<?xml version="1.0" encoding="UTF-8"?>
<gpx version="1.1" creator="https://www.youtrack.es" xsi:schemaLocation="http://www.topografix.com/GPX/1/1 http://www.topografix.com/GPX/1/1/gpx.xsd http://www.garmin.com/xmlschemas/GpxExtensions/v3 http://www.garmin.com/xmlschemas/GpxExtensionsv3.xsd http://www.garmin.com/xmlschemas/TrackPointExtension/v1 http://www.garmin.com/xmlschemas/TrackPointExtensionv1.xsd" xmlns:gpxtpx="http://www.garmin.com/xmlschemas/TrackPointExtension/v1" xmlns:gpxx="http://www.garmin.com/xmlschemas/GpxExtensions/v3" xmlns:xsi="http://www.w3.org/2001/XMLSchema-instance">
  <metadata>
    <link href="https://www.youtrack.es">
      <text>YouTrack.es</text>
    </link>
    <time>2026-05-08T02:40:46Z</time>
  </metadata>
  <trk>
    <src>https://www.youtrack.es</src>
    <link href="https://www.youtrack.es/ruta/15336-javalambre-2020">
      <text>YouTrack.es</text>
    </link>
    <trkseg>
      <trkpt lat="39.790841974318027496337890625" lon="-0.8592800237238407135009765625">
        <ele>812</ele>
        <time>2020-08-22T04:58:46.000Z</time>
      </trkpt>
      <trkpt lat="39.79077567346394062042236328125" lon="-0.85935629904270172119140625">
        <ele>811.4000244140625</ele>
        <time>2020-08-22T04:58:54.000Z</time>
      </trkpt>
      <trkpt lat="39.79052991606295108795166015625" lon="-0.8599398471415042877197265625">
        <ele>811.4000244140625</ele>
        <time>2020-08-22T04:59:18.000Z</time>
      </trkpt>
      <trkpt lat="39.79034450836479663848876953125" lon="-0.86010807193815708160400390625">
        <ele>811</ele>
        <time>2020-08-22T04:59:37.000Z</time>
      </trkpt>
      <trkpt lat="39.78985483758151531219482421875" lon="-0.86038920097053050994873046875">
        <ele>811</ele>
        <time>2020-08-22T05:00:06.000Z</time>
      </trkpt>
      <trkpt lat="39.789441861212253570556640625" lon="-0.86076018400490283966064453125">
        <ele>811</ele>
        <time>2020-08-22T05:00:33.000Z</time>
      </trkpt>
      <trkpt lat="39.7894966788589954376220703125" lon="-0.86110870353877544403076171875">
        <ele>811.4000244140625</ele>
        <time>2020-08-22T05:00:47.000Z</time>
      </trkpt>
      <trkpt lat="39.7897005267441272735595703125" lon="-0.86124457418918609619140625">
        <ele>812</ele>
        <time>2020-08-22T05:00:59.000Z</time>
      </trkpt>
      <trkpt lat="39.7900086455047130584716796875" lon="-0.861387737095355987548828125">
        <ele>813</ele>
        <time>2020-08-22T05:01:15.000Z</time>
      </trkpt>
      <trkpt lat="39.790259934961795806884765625" lon="-0.86152461357414722442626953125">
        <ele>814</ele>
        <time>2020-08-22T05:01:29.000Z</time>
      </trkpt>
      <trkpt lat="39.7907247953116893768310546875" lon="-0.861414559185504913330078125">
        <ele>815</ele>
        <time>2020-08-22T05:01:51.000Z</time>
      </trkpt>
      <trkpt lat="39.7909997217357158660888671875" lon="-0.86124834604561328887939453125">
        <ele>816.20001220703125</ele>
        <time>2020-08-22T05:02:07.000Z</time>
      </trkpt>
      <trkpt lat="39.791143052279949188232421875" lon="-0.8611491881310939788818359375">
        <ele>817.4000244140625</ele>
        <time>2020-08-22T05:02:16.000Z</time>
      </trkpt>
      <trkpt lat="39.791273139417171478271484375" lon="-0.86107157170772552490234375">
        <ele>818.4000244140625</ele>
        <time>2020-08-22T05:02:24.000Z</time>
      </trkpt>
      <trkpt lat="39.79148394428193569183349609375" lon="-0.86091332137584686279296875">
        <ele>819.4000244140625</ele>
        <time>2020-08-22T05:02:37.000Z</time>
      </trkpt>
      <trkpt lat="39.79161210358142852783203125" lon="-0.86082422174513339996337890625">
        <ele>820.5999755859375</ele>
        <time>2020-08-22T05:02:45.000Z</time>
      </trkpt>
      <trkpt lat="39.791735149919986724853515625" lon="-0.86075180210173130035400390625">
        <ele>821.79998779296875</ele>
        <time>2020-08-22T05:02:52.000Z</time>
      </trkpt>
      <trkpt lat="39.79185744188725948333740234375" lon="-0.86067569442093372344970703125">
        <ele>822.79998779296875</ele>
        <time>2020-08-22T05:02:59.000Z</time>
      </trkpt>
      <trkpt lat="39.79199037887156009674072265625" lon="-0.86058282293379306793212890625">
        <ele>823.79998779296875</ele>
        <time>2020-08-22T05:03:07.000Z</time>
      </trkpt>
      <trkpt lat="39.79209423065185546875" lon="-0.86051727645099163055419921875">
        <ele>825</ele>
        <time>2020-08-22T05:03:13.000Z</time>
      </trkpt>
      <trkpt lat="39.79220780543982982635498046875" lon="-0.8604477904736995697021484375">
        <ele>826</ele>
        <time>2020-08-22T05:03:20.000Z</time>
      </trkpt>
      <trkpt lat="39.79231039993464946746826171875" lon="-0.8603850938379764556884765625">
        <ele>827</ele>
        <time>2020-08-22T05:03:26.000Z</time>
      </trkpt>
      <trkpt lat="39.79241819120943546295166015625" lon="-0.86031359620392322540283203125">
        <ele>828</ele>
        <time>2020-08-22T05:03:33.000Z</time>
      </trkpt>
      <trkpt lat="39.7925440035760402679443359375" lon="-0.86021049879491329193115234375">
        <ele>829.20001220703125</ele>
        <time>2020-08-22T05:03:41.000Z</time>
      </trkpt>
      <trkpt lat="39.79263377375900745391845703125" lon="-0.86011628620326519012451171875">
        <ele>830.4000244140625</ele>
        <time>2020-08-22T05:03:47.000Z</time>
      </trkpt>
      <trkpt lat="39.792727567255496978759765625" lon="-0.85995309054851531982421875">
        <ele>831.4000244140625</ele>
        <time>2020-08-22T05:03:55.000Z</time>
      </trkpt>
      <trkpt lat="39.79286067187786102294921875" lon="-0.85973574779927730560302734375">
        <ele>832.5999755859375</ele>
        <time>2020-08-22T05:04:05.000Z</time>
      </trkpt>
      <trkpt lat="39.79306158609688282012939453125" lon="-0.85973449051380157470703125">
        <ele>833.5999755859375</ele>
        <time>2020-08-22T05:04:15.000Z</time>
      </trkpt>
      <trkpt lat="39.7932678647339344024658203125" lon="-0.85971529595553874969482421875">
        <ele>834.5999755859375</ele>
        <time>2020-08-22T05:04:26.000Z</time>
      </trkpt>
      <trkpt lat="39.79341530241072177886962890625" lon="-0.8596494980156421661376953125">
        <ele>835.79998779296875</ele>
        <time>2020-08-22T05:04:34.000Z</time>
      </trkpt>
      <trkpt lat="39.7935313917696475982666015625" lon="-0.85958923213183879852294921875">
        <ele>836.79998779296875</ele>
        <time>2020-08-22T05:04:41.000Z</time>
      </trkpt>
      <trkpt lat="39.79364463128149509429931640625" lon="-0.8595143817365169525146484375">
        <ele>837.79998779296875</ele>
        <time>2020-08-22T05:04:48.000Z</time>
      </trkpt>
      <trkpt lat="39.79377907700836658477783203125" lon="-0.8594349212944507598876953125">
        <ele>839</ele>
        <time>2020-08-22T05:04:56.000Z</time>
      </trkpt>
      <trkpt lat="39.7939167916774749755859375" lon="-0.8593524433672428131103515625">
        <ele>840</ele>
        <time>2020-08-22T05:05:04.000Z</time>
      </trkpt>
      <trkpt lat="39.79405584745109081268310546875" lon="-0.859252698719501495361328125">
        <ele>841</ele>
        <time>2020-08-22T05:05:12.000Z</time>
      </trkpt>
      <trkpt lat="39.7942039556801319122314453125" lon="-0.85916326381266117095947265625">
        <ele>842.20001220703125</ele>
        <time>2020-08-22T05:05:21.000Z</time>
      </trkpt>
      <trkpt lat="39.7943528182804584503173828125" lon="-0.85908045060932636260986328125">
        <ele>843.20001220703125</ele>
        <time>2020-08-22T05:05:30.000Z</time>
      </trkpt>
      <trkpt lat="39.79448600672185420989990234375" lon="-0.85900182835757732391357421875">
        <ele>844.4000244140625</ele>
        <time>2020-08-22T05:05:38.000Z</time>
      </trkpt>
      <trkpt lat="39.794580973684787750244140625" lon="-0.85893561132252216339111328125">
        <ele>845.4000244140625</ele>
        <time>2020-08-22T05:05:44.000Z</time>
      </trkpt>
      <trkpt lat="39.79472774080932140350341796875" lon="-0.85885204374790191650390625">
        <ele>846.4000244140625</ele>
        <time>2020-08-22T05:05:53.000Z</time>
      </trkpt>
      <trkpt lat="39.79485782794654369354248046875" lon="-0.85877249948680400848388671875">
        <ele>847.5999755859375</ele>
        <time>2020-08-22T05:06:01.000Z</time>
      </trkpt>
      <trkpt lat="39.794988669455051422119140625" lon="-0.858695805072784423828125">
        <ele>848.5999755859375</ele>
        <time>2020-08-22T05:06:09.000Z</time>
      </trkpt>
      <trkpt lat="39.79515488259494304656982421875" lon="-0.85860234685242176055908203125">
        <ele>849.79998779296875</ele>
        <time>2020-08-22T05:06:19.000Z</time>
      </trkpt>
      <trkpt lat="39.79528631083667278289794921875" lon="-0.85852422751486301422119140625">
        <ele>851</ele>
        <time>2020-08-22T05:06:27.000Z</time>
      </trkpt>
      <trkpt lat="39.79542779736220836639404296875" lon="-0.85843236185610294342041015625">
        <ele>852</ele>
        <time>2020-08-22T05:06:36.000Z</time>
      </trkpt>
      <trkpt lat="39.79555587284266948699951171875" lon="-0.85833571851253509521484375">
        <ele>853</ele>
        <time>2020-08-22T05:06:44.000Z</time>
      </trkpt>
      <trkpt lat="39.7957240976393222808837890625" lon="-0.858220048248767852783203125">
        <ele>854.20001220703125</ele>
        <time>2020-08-22T05:06:54.000Z</time>
      </trkpt>
      <trkpt lat="39.7958592139184474945068359375" lon="-0.858134888112545013427734375">
        <ele>855.20001220703125</ele>
        <time>2020-08-22T05:07:02.000Z</time>
      </trkpt>
      <trkpt lat="39.7959547676146030426025390625" lon="-0.858068503439426422119140625">
        <ele>856.20001220703125</ele>
        <time>2020-08-22T05:07:08.000Z</time>
      </trkpt>
      <trkpt lat="39.79606733657419681549072265625" lon="-0.8579863607883453369140625">
        <ele>857.20001220703125</ele>
        <time>2020-08-22T05:07:15.000Z</time>
      </trkpt>
      <trkpt lat="39.796227850019931793212890625" lon="-0.8578656613826751708984375">
        <ele>858.4000244140625</ele>
        <time>2020-08-22T05:07:25.000Z</time>
      </trkpt>
      <trkpt lat="39.7963239066302776336669921875" lon="-0.85775342769920825958251953125">
        <ele>859.4000244140625</ele>
        <time>2020-08-22T05:07:32.000Z</time>
      </trkpt>
      <trkpt lat="39.7964171133935451507568359375" lon="-0.85762887261807918548583984375">
        <ele>860.5999755859375</ele>
        <time>2020-08-22T05:07:40.000Z</time>
      </trkpt>
      <trkpt lat="39.79648324660956859588623046875" lon="-0.857528708875179290771484375">
        <ele>861.5999755859375</ele>
        <time>2020-08-22T05:07:46.000Z</time>
      </trkpt>
      <trkpt lat="39.79656052775681018829345703125" lon="-0.8574179001152515411376953125">
        <ele>862.5999755859375</ele>
        <time>2020-08-22T05:07:52.000Z</time>
      </trkpt>
      <trkpt lat="39.79664518497884273529052734375" lon="-0.8572433888912200927734375">
        <ele>863.5999755859375</ele>
        <time>2020-08-22T05:08:00.000Z</time>
      </trkpt>
      <trkpt lat="39.7967332787811756134033203125" lon="-0.857047252357006072998046875">
        <ele>864.79998779296875</ele>
        <time>2020-08-22T05:08:09.000Z</time>
      </trkpt>
      <trkpt lat="39.79685272090137004852294921875" lon="-0.856744833290576934814453125">
        <ele>865.79998779296875</ele>
        <time>2020-08-22T05:08:22.000Z</time>
      </trkpt>
      <trkpt lat="39.7969307564198970794677734375" lon="-0.8565808832645416259765625">
        <ele>866.79998779296875</ele>
        <time>2020-08-22T05:08:29.000Z</time>
      </trkpt>
      <trkpt lat="39.79705053381621837615966796875" lon="-0.85642187856137752532958984375">
        <ele>868</ele>
        <time>2020-08-22T05:08:38.000Z</time>
      </trkpt>
      <trkpt lat="39.79715413413941860198974609375" lon="-0.856296904385089874267578125">
        <ele>869.20001220703125</ele>
        <time>2020-08-22T05:08:46.000Z</time>
      </trkpt>
      <trkpt lat="39.79730651713907718658447265625" lon="-0.856141336262226104736328125">
        <ele>870.20001220703125</ele>
        <time>2020-08-22T05:08:56.000Z</time>
      </trkpt>
      <trkpt lat="39.797450266778469085693359375" lon="-0.85602122358977794647216796875">
        <ele>871.20001220703125</ele>
        <time>2020-08-22T05:09:05.000Z</time>
      </trkpt>
      <trkpt lat="39.79763408191502094268798828125" lon="-0.855863392353057861328125">
        <ele>872.4000244140625</ele>
        <time>2020-08-22T05:09:17.000Z</time>
      </trkpt>
      <trkpt lat="39.797772467136383056640625" lon="-0.8557428605854511260986328125">
        <ele>873.4000244140625</ele>
        <time>2020-08-22T05:09:26.000Z</time>
      </trkpt>
      <trkpt lat="39.7978795878589153289794921875" lon="-0.85564537905156612396240234375">
        <ele>874.4000244140625</ele>
        <time>2020-08-22T05:09:33.000Z</time>
      </trkpt>
      <trkpt lat="39.79800841771066188812255859375" lon="-0.855558626353740692138671875">
        <ele>875.5999755859375</ele>
        <time>2020-08-22T05:09:41.000Z</time>
      </trkpt>
      <trkpt lat="39.79808083735406398773193359375" lon="-0.85550053976476192474365234375">
        <ele>876.5999755859375</ele>
        <time>2020-08-22T05:09:46.000Z</time>
      </trkpt>
      <trkpt lat="39.79823045432567596435546875" lon="-0.85540540516376495361328125">
        <ele>877.5999755859375</ele>
        <time>2020-08-22T05:09:55.000Z</time>
      </trkpt>
      <trkpt lat="39.798394404351711273193359375" lon="-0.85533759556710720062255859375">
        <ele>878.5999755859375</ele>
        <time>2020-08-22T05:10:04.000Z</time>
      </trkpt>
      <trkpt lat="39.79855005629360675811767578125" lon="-0.85528546012938022613525390625">
        <ele>879.5999755859375</ele>
        <time>2020-08-22T05:10:13.000Z</time>
      </trkpt>
      <trkpt lat="39.798677377402782440185546875" lon="-0.855264924466609954833984375">
        <ele>880.79998779296875</ele>
        <time>2020-08-22T05:10:20.000Z</time>
      </trkpt>
      <trkpt lat="39.79884677566587924957275390625" lon="-0.85525444708764553070068359375">
        <ele>882</ele>
        <time>2020-08-22T05:10:29.000Z</time>
      </trkpt>
      <trkpt lat="39.79899161495268344879150390625" lon="-0.85526115261018276214599609375">
        <ele>883.20001220703125</ele>
        <time>2020-08-22T05:10:37.000Z</time>
      </trkpt>
      <trkpt lat="39.79917216114699840545654296875" lon="-0.8552831970155239105224609375">
        <ele>884.20001220703125</ele>
        <time>2020-08-22T05:10:48.000Z</time>
      </trkpt>
      <trkpt lat="39.79929688386619091033935546875" lon="-0.85532820783555507659912109375">
        <ele>885.20001220703125</ele>
        <time>2020-08-22T05:10:56.000Z</time>
      </trkpt>
      <trkpt lat="39.7994327545166015625" lon="-0.85539735853672027587890625">
        <ele>886.4000244140625</ele>
        <time>2020-08-22T05:11:04.000Z</time>
      </trkpt>
      <trkpt lat="39.7996433079242706298828125" lon="-0.85552476346492767333984375">
        <ele>887.4000244140625</ele>
        <time>2020-08-22T05:11:16.000Z</time>
      </trkpt>
      <trkpt lat="39.79976157657802104949951171875" lon="-0.85561537183821201324462890625">
        <ele>888.4000244140625</ele>
        <time>2020-08-22T05:11:23.000Z</time>
      </trkpt>
      <trkpt lat="39.7999277897179126739501953125" lon="-0.85575484670698642730712890625">
        <ele>889.4000244140625</ele>
        <time>2020-08-22T05:11:33.000Z</time>
      </trkpt>
      <trkpt lat="39.800120405852794647216796875" lon="-0.855895914137363433837890625">
        <ele>890.5999755859375</ele>
        <time>2020-08-22T05:11:44.000Z</time>
      </trkpt>
      <trkpt lat="39.80023004114627838134765625" lon="-0.85600881837308406829833984375">
        <ele>891.5999755859375</ele>
        <time>2020-08-22T05:11:51.000Z</time>
      </trkpt>
      <trkpt lat="39.8003824241459369659423828125" lon="-0.8561544120311737060546875">
        <ele>892.79998779296875</ele>
        <time>2020-08-22T05:12:01.000Z</time>
      </trkpt>
      <trkpt lat="39.80050756596028804779052734375" lon="-0.8562632091343402862548828125">
        <ele>893.79998779296875</ele>
        <time>2020-08-22T05:12:09.000Z</time>
      </trkpt>
      <trkpt lat="39.8006016947329044342041015625" lon="-0.85634551942348480224609375">
        <ele>894.79998779296875</ele>
        <time>2020-08-22T05:12:15.000Z</time>
      </trkpt>
      <trkpt lat="39.8007230646908283233642578125" lon="-0.85645875893533229827880859375">
        <ele>896</ele>
        <time>2020-08-22T05:12:23.000Z</time>
      </trkpt>
      <trkpt lat="39.80084854178130626678466796875" lon="-0.85659957490861415863037109375">
        <ele>897.20001220703125</ele>
        <time>2020-08-22T05:12:32.000Z</time>
      </trkpt>
      <trkpt lat="39.80098198167979717254638671875" lon="-0.85671708919107913970947265625">
        <ele>898.4000244140625</ele>
        <time>2020-08-22T05:12:40.000Z</time>
      </trkpt>
      <trkpt lat="39.8011212050914764404296875" lon="-0.85685153491795063018798828125">
        <ele>899.4000244140625</ele>
        <time>2020-08-22T05:12:49.000Z</time>
      </trkpt>
      <trkpt lat="39.8012735880911350250244140625" lon="-0.85699402727186679840087890625">
        <ele>900.4000244140625</ele>
        <time>2020-08-22T05:12:59.000Z</time>
      </trkpt>
      <trkpt lat="39.80143644846975803375244140625" lon="-0.85710936225950717926025390625">
        <ele>901.5999755859375</ele>
        <time>2020-08-22T05:13:08.000Z</time>
      </trkpt>
      <trkpt lat="39.801584891974925994873046875" lon="-0.85723693482577800750732421875">
        <ele>902.5999755859375</ele>
        <time>2020-08-22T05:13:17.000Z</time>
      </trkpt>
      <trkpt lat="39.80170869268476963043212890625" lon="-0.85733986459672451019287109375">
        <ele>903.5999755859375</ele>
        <time>2020-08-22T05:13:24.000Z</time>
      </trkpt>
      <trkpt lat="39.8018733970820903778076171875" lon="-0.8575550280511379241943359375">
        <ele>904.5999755859375</ele>
        <time>2020-08-22T05:13:35.000Z</time>
      </trkpt>
      <trkpt lat="39.80196920223534107208251953125" lon="-0.85771101526916027069091796875">
        <ele>905.79998779296875</ele>
        <time>2020-08-22T05:13:42.000Z</time>
      </trkpt>
      <trkpt lat="39.8020356707274913787841796875" lon="-0.85797856561839580535888671875">
        <ele>906.79998779296875</ele>
        <time>2020-08-22T05:13:52.000Z</time>
      </trkpt>
      <trkpt lat="39.8020465672016143798828125" lon="-0.8582805655896663665771484375">
        <ele>907.79998779296875</ele>
        <time>2020-08-22T05:14:03.000Z</time>
      </trkpt>
      <trkpt lat="39.801874570548534393310546875" lon="-0.85870720446109771728515625">
        <ele>908.79998779296875</ele>
        <time>2020-08-22T05:14:20.000Z</time>
      </trkpt>
      <trkpt lat="39.80166108347475528717041015625" lon="-0.85903577506542205810546875">
        <ele>910</ele>
        <time>2020-08-22T05:14:35.000Z</time>
      </trkpt>
      <trkpt lat="39.80151423253118991851806640625" lon="-0.8593340031802654266357421875">
        <ele>911</ele>
        <time>2020-08-22T05:14:48.000Z</time>
      </trkpt>
      <trkpt lat="39.80141599662601947784423828125" lon="-0.85961001925170421600341796875">
        <ele>912</ele>
        <time>2020-08-22T05:15:00.000Z</time>
      </trkpt>
      <trkpt lat="39.80136570520699024200439453125" lon="-0.85980179719626903533935546875">
        <ele>913</ele>
        <time>2020-08-22T05:15:08.000Z</time>
      </trkpt>
      <trkpt lat="39.80129764415323734283447265625" lon="-0.8600434474647045135498046875">
        <ele>914</ele>
        <time>2020-08-22T05:15:17.000Z</time>
      </trkpt>
      <trkpt lat="39.801269732415676116943359375" lon="-0.8603099919855594635009765625">
        <ele>915.20001220703125</ele>
        <time>2020-08-22T05:15:26.000Z</time>
      </trkpt>
      <trkpt lat="39.80127501301467418670654296875" lon="-0.8604937233030796051025390625">
        <ele>916.4000244140625</ele>
        <time>2020-08-22T05:15:33.000Z</time>
      </trkpt>
      <trkpt lat="39.80128305964171886444091796875" lon="-0.86071039550006389617919921875">
        <ele>917.4000244140625</ele>
        <time>2020-08-22T05:15:41.000Z</time>
      </trkpt>
      <trkpt lat="39.80127652175724506378173828125" lon="-0.8609560690820217132568359375">
        <ele>918.4000244140625</ele>
        <time>2020-08-22T05:15:49.000Z</time>
      </trkpt>
      <trkpt lat="39.80127015151083469390869140625" lon="-0.86118883453309535980224609375">
        <ele>919.5999755859375</ele>
        <time>2020-08-22T05:15:57.000Z</time>
      </trkpt>
      <trkpt lat="39.80127207934856414794921875" lon="-0.861364938318729400634765625">
        <ele>920.5999755859375</ele>
        <time>2020-08-22T05:16:03.000Z</time>
      </trkpt>
      <trkpt lat="39.80128121562302112579345703125" lon="-0.86160206235945224761962890625">
        <ele>921.79998779296875</ele>
        <time>2020-08-22T05:16:12.000Z</time>
      </trkpt>
      <trkpt lat="39.801370315253734588623046875" lon="-0.8618740551173686981201171875">
        <ele>922.79998779296875</ele>
        <time>2020-08-22T05:16:23.000Z</time>
      </trkpt>
      <trkpt lat="39.801455475389957427978515625" lon="-0.862077064812183380126953125">
        <ele>924</ele>
        <time>2020-08-22T05:16:31.000Z</time>
      </trkpt>
      <trkpt lat="39.80155329219996929168701171875" lon="-0.86233665235340595245361328125">
        <ele>925</ele>
        <time>2020-08-22T05:16:41.000Z</time>
      </trkpt>
      <trkpt lat="39.80167181231081485748291015625" lon="-0.86262146942317485809326171875">
        <ele>926</ele>
        <time>2020-08-22T05:16:53.000Z</time>
      </trkpt>
      <trkpt lat="39.8017729818820953369140625" lon="-0.862862952053546905517578125">
        <ele>927.20001220703125</ele>
        <time>2020-08-22T05:17:03.000Z</time>
      </trkpt>
      <trkpt lat="39.8018361814320087432861328125" lon="-0.86302849464118480682373046875">
        <ele>928.20001220703125</ele>
        <time>2020-08-22T05:17:10.000Z</time>
      </trkpt>
      <trkpt lat="39.80191170237958431243896484375" lon="-0.8631873317062854766845703125">
        <ele>929.20001220703125</ele>
        <time>2020-08-22T05:17:17.000Z</time>
      </trkpt>
      <trkpt lat="39.80200105346739292144775390625" lon="-0.863349437713623046875">
        <ele>930.4000244140625</ele>
        <time>2020-08-22T05:17:25.000Z</time>
      </trkpt>
      <trkpt lat="39.8020519316196441650390625" lon="-0.8635159023106098175048828125">
        <ele>931.4000244140625</ele>
        <time>2020-08-22T05:17:33.000Z</time>
      </trkpt>
      <trkpt lat="39.8020504228770732879638671875" lon="-0.8636865578591823577880859375">
        <ele>932.4000244140625</ele>
        <time>2020-08-22T05:17:39.000Z</time>
      </trkpt>
      <trkpt lat="39.80201731435954570770263671875" lon="-0.86385570466518402099609375">
        <ele>933.5999755859375</ele>
        <time>2020-08-22T05:17:45.000Z</time>
      </trkpt>
      <trkpt lat="39.80189527384936809539794921875" lon="-0.86420036852359771728515625">
        <ele>934.5999755859375</ele>
        <time>2020-08-22T05:17:58.000Z</time>
      </trkpt>
      <trkpt lat="39.80185654945671558380126953125" lon="-0.8644104190170764923095703125">
        <ele>935.79998779296875</ele>
        <time>2020-08-22T05:18:07.000Z</time>
      </trkpt>
      <trkpt lat="39.80182352475821971893310546875" lon="-0.8646182902157306671142578125">
        <ele>936.79998779296875</ele>
        <time>2020-08-22T05:18:15.000Z</time>
      </trkpt>
      <trkpt lat="39.80178144760429859161376953125" lon="-0.8648030273616313934326171875">
        <ele>938</ele>
        <time>2020-08-22T05:18:22.000Z</time>
      </trkpt>
      <trkpt lat="39.801724366843700408935546875" lon="-0.86501182056963443756103515625">
        <ele>939</ele>
        <time>2020-08-22T05:18:30.000Z</time>
      </trkpt>
      <trkpt lat="39.80165907181799411773681640625" lon="-0.865160264074802398681640625">
        <ele>940.20001220703125</ele>
        <time>2020-08-22T05:18:37.000Z</time>
      </trkpt>
      <trkpt lat="39.8015485145151615142822265625" lon="-0.86541884578764438629150390625">
        <ele>941.20001220703125</ele>
        <time>2020-08-22T05:18:48.000Z</time>
      </trkpt>
      <trkpt lat="39.8014858178794384002685546875" lon="-0.865701735019683837890625">
        <ele>942.20001220703125</ele>
        <time>2020-08-22T05:18:58.000Z</time>
      </trkpt>
      <trkpt lat="39.80150015093386173248291015625" lon="-0.8659141324460506439208984375">
        <ele>943.4000244140625</ele>
        <time>2020-08-22T05:19:07.000Z</time>
      </trkpt>
      <trkpt lat="39.801504425704479217529296875" lon="-0.86608135141432285308837890625">
        <ele>944.4000244140625</ele>
        <time>2020-08-22T05:19:14.000Z</time>
      </trkpt>
      <trkpt lat="39.80148690752685070037841796875" lon="-0.866244547069072723388671875">
        <ele>945.5999755859375</ele>
        <time>2020-08-22T05:19:21.000Z</time>
      </trkpt>
      <trkpt lat="39.80144935660064220428466796875" lon="-0.866415537893772125244140625">
        <ele>946.79998779296875</ele>
        <time>2020-08-22T05:19:28.000Z</time>
      </trkpt>
      <trkpt lat="39.80138297192752361297607421875" lon="-0.8666440285742282867431640625">
        <ele>947.79998779296875</ele>
        <time>2020-08-22T05:19:37.000Z</time>
      </trkpt>
      <trkpt lat="39.8013453371822834014892578125" lon="-0.8668859302997589111328125">
        <ele>948.79998779296875</ele>
        <time>2020-08-22T05:19:46.000Z</time>
      </trkpt>
      <trkpt lat="39.80133083648979663848876953125" lon="-0.86708432994782924652099609375">
        <ele>949.79998779296875</ele>
        <time>2020-08-22T05:19:54.000Z</time>
      </trkpt>
      <trkpt lat="39.8013225384056568145751953125" lon="-0.867234952747821807861328125">
        <ele>951</ele>
        <time>2020-08-22T05:20:00.000Z</time>
      </trkpt>
      <trkpt lat="39.80132932774722576141357421875" lon="-0.86737635545432567596435546875">
        <ele>952</ele>
        <time>2020-08-22T05:20:05.000Z</time>
      </trkpt>
      <trkpt lat="39.8013476841151714324951171875" lon="-0.867576934397220611572265625">
        <ele>953</ele>
        <time>2020-08-22T05:20:13.000Z</time>
      </trkpt>
      <trkpt lat="39.80137928389012813568115234375" lon="-0.8677457459270954132080078125">
        <ele>954.20001220703125</ele>
        <time>2020-08-22T05:20:20.000Z</time>
      </trkpt>
      <trkpt lat="39.801429994404315948486328125" lon="-0.86791380308568477630615234375">
        <ele>955.4000244140625</ele>
        <time>2020-08-22T05:20:27.000Z</time>
      </trkpt>
      <trkpt lat="39.80154155753552913665771484375" lon="-0.86812519468367099761962890625">
        <ele>956.4000244140625</ele>
        <time>2020-08-22T05:20:36.000Z</time>
      </trkpt>
      <trkpt lat="39.80162738822400569915771484375" lon="-0.86822410114109516143798828125">
        <ele>957.5999755859375</ele>
        <time>2020-08-22T05:20:42.000Z</time>
      </trkpt>
      <trkpt lat="39.80170768685638904571533203125" lon="-0.86829786188900470733642578125">
        <ele>958.79998779296875</ele>
        <time>2020-08-22T05:20:47.000Z</time>
      </trkpt>
      <trkpt lat="39.80182084254920482635498046875" lon="-0.86841923184692859649658203125">
        <ele>959.79998779296875</ele>
        <time>2020-08-22T05:20:54.000Z</time>
      </trkpt>
      <trkpt lat="39.801910780370235443115234375" lon="-0.86860447190701961517333984375">
        <ele>960.79998779296875</ele>
        <time>2020-08-22T05:21:02.000Z</time>
      </trkpt>
      <trkpt lat="39.8019124567508697509765625" lon="-0.86900663562119007110595703125">
        <ele>961.79998779296875</ele>
        <time>2020-08-22T05:21:15.000Z</time>
      </trkpt>
      <trkpt lat="39.8019337467849254608154296875" lon="-0.8693604357540607452392578125">
        <ele>962.79998779296875</ele>
        <time>2020-08-22T05:21:28.000Z</time>
      </trkpt>
      <trkpt lat="39.8019766621291637420654296875" lon="-0.8695575781166553497314453125">
        <ele>963.79998779296875</ele>
        <time>2020-08-22T05:21:36.000Z</time>
      </trkpt>
      <trkpt lat="39.80207808315753936767578125" lon="-0.86971767246723175048828125">
        <ele>965</ele>
        <time>2020-08-22T05:21:44.000Z</time>
      </trkpt>
      <trkpt lat="39.80218042619526386260986328125" lon="-0.869851447641849517822265625">
        <ele>966</ele>
        <time>2020-08-22T05:21:51.000Z</time>
      </trkpt>
      <trkpt lat="39.80225334875285625457763671875" lon="-0.86996653117239475250244140625">
        <ele>967.20001220703125</ele>
        <time>2020-08-22T05:21:57.000Z</time>
      </trkpt>
      <trkpt lat="39.80229475535452365875244140625" lon="-0.87012763135135173797607421875">
        <ele>968.4000244140625</ele>
        <time>2020-08-22T05:22:03.000Z</time>
      </trkpt>
      <trkpt lat="39.8022898100316524505615234375" lon="-0.8703109435737133026123046875">
        <ele>969.4000244140625</ele>
        <time>2020-08-22T05:22:09.000Z</time>
      </trkpt>
      <trkpt lat="39.80226173065602779388427734375" lon="-0.870608501136302947998046875">
        <ele>970.5999755859375</ele>
        <time>2020-08-22T05:22:19.000Z</time>
      </trkpt>
      <trkpt lat="39.80227597989141941070556640625" lon="-0.8708396740257740020751953125">
        <ele>971.79998779296875</ele>
        <time>2020-08-22T05:22:28.000Z</time>
      </trkpt>
      <trkpt lat="39.80229525826871395111083984375" lon="-0.8709875307977199554443359375">
        <ele>973</ele>
        <time>2020-08-22T05:22:34.000Z</time>
      </trkpt>
      <trkpt lat="39.8022797517478466033935546875" lon="-0.871160030364990234375">
        <ele>974</ele>
        <time>2020-08-22T05:22:41.000Z</time>
      </trkpt>
      <trkpt lat="39.80225871317088603973388671875" lon="-0.8713147602975368499755859375">
        <ele>975.20001220703125</ele>
        <time>2020-08-22T05:22:47.000Z</time>
      </trkpt>
      <trkpt lat="39.80221278034150600433349609375" lon="-0.8715796284377574920654296875">
        <ele>976.4000244140625</ele>
        <time>2020-08-22T05:22:57.000Z</time>
      </trkpt>
      <trkpt lat="39.80222560465335845947265625" lon="-0.8717851527035236358642578125">
        <ele>977.4000244140625</ele>
        <time>2020-08-22T05:23:05.000Z</time>
      </trkpt>
      <trkpt lat="39.80228000320494174957275390625" lon="-0.8719246275722980499267578125">
        <ele>978.5999755859375</ele>
        <time>2020-08-22T05:23:11.000Z</time>
      </trkpt>
      <trkpt lat="39.80232543312013149261474609375" lon="-0.872020684182643890380859375">
        <ele>979.5999755859375</ele>
        <time>2020-08-22T05:23:16.000Z</time>
      </trkpt>
      <trkpt lat="39.8023887164890766143798828125" lon="-0.87217365391552448272705078125">
        <ele>980.79998779296875</ele>
        <time>2020-08-22T05:23:23.000Z</time>
      </trkpt>
      <trkpt lat="39.8024145327508449554443359375" lon="-0.87231941521167755126953125">
        <ele>981.79998779296875</ele>
        <time>2020-08-22T05:23:29.000Z</time>
      </trkpt>
      <trkpt lat="39.8024462163448333740234375" lon="-0.87246291339397430419921875">
        <ele>983</ele>
        <time>2020-08-22T05:23:35.000Z</time>
      </trkpt>
      <trkpt lat="39.80246574617922306060791015625" lon="-0.87268159724771976470947265625">
        <ele>984</ele>
        <time>2020-08-22T05:23:43.000Z</time>
      </trkpt>
      <trkpt lat="39.8024259321391582489013671875" lon="-0.87282274849712848663330078125">
        <ele>985</ele>
        <time>2020-08-22T05:23:48.000Z</time>
      </trkpt>
      <trkpt lat="39.802278578281402587890625" lon="-0.8730447851121425628662109375">
        <ele>986</ele>
        <time>2020-08-22T05:23:58.000Z</time>
      </trkpt>
      <trkpt lat="39.8021704517304897308349609375" lon="-0.87319591082632541656494140625">
        <ele>987</ele>
        <time>2020-08-22T05:24:05.000Z</time>
      </trkpt>
      <trkpt lat="39.8020251095294952392578125" lon="-0.87340998463332653045654296875">
        <ele>988.20001220703125</ele>
        <time>2020-08-22T05:24:15.000Z</time>
      </trkpt>
      <trkpt lat="39.80194472707808017730712890625" lon="-0.8736343681812286376953125">
        <ele>989.20001220703125</ele>
        <time>2020-08-22T05:24:24.000Z</time>
      </trkpt>
      <trkpt lat="39.80193852446973323822021484375" lon="-0.87377459742128849029541015625">
        <ele>990.20001220703125</ele>
        <time>2020-08-22T05:24:30.000Z</time>
      </trkpt>
      <trkpt lat="39.80197750031948089599609375" lon="-0.87398498319089412689208984375">
        <ele>991.4000244140625</ele>
        <time>2020-08-22T05:24:39.000Z</time>
      </trkpt>
      <trkpt lat="39.80201429687440395355224609375" lon="-0.87407894432544708251953125">
        <ele>992.4000244140625</ele>
        <time>2020-08-22T05:24:43.000Z</time>
      </trkpt>
      <trkpt lat="39.802056290209293365478515625" lon="-0.87417189963161945343017578125">
        <ele>993.79998779296875</ele>
        <time>2020-08-22T05:24:47.000Z</time>
      </trkpt>
      <trkpt lat="39.80213642120361328125" lon="-0.8743268810212612152099609375">
        <ele>994.79998779296875</ele>
        <time>2020-08-22T05:24:54.000Z</time>
      </trkpt>
      <trkpt lat="39.80219601653516292572021484375" lon="-0.8744578063488006591796875">
        <ele>996</ele>
        <time>2020-08-22T05:25:00.000Z</time>
      </trkpt>
      <trkpt lat="39.80222987942397594451904296875" lon="-0.8745592273771762847900390625">
        <ele>997</ele>
        <time>2020-08-22T05:25:04.000Z</time>
      </trkpt>
      <trkpt lat="39.80225804261863231658935546875" lon="-0.87477338500320911407470703125">
        <ele>998.20001220703125</ele>
        <time>2020-08-22T05:25:12.000Z</time>
      </trkpt>
      <trkpt lat="39.8022572882473468780517578125" lon="-0.8749860338866710662841796875">
        <ele>999.20001220703125</ele>
        <time>2020-08-22T05:25:20.000Z</time>
      </trkpt>
      <trkpt lat="39.8022281192243099212646484375" lon="-0.8752167038619518280029296875">
        <ele>1000.20001220703125</ele>
        <time>2020-08-22T05:25:28.000Z</time>
      </trkpt>
      <trkpt lat="39.80219475924968719482421875" lon="-0.8754745312035083770751953125">
        <ele>1001.4000244140625</ele>
        <time>2020-08-22T05:25:37.000Z</time>
      </trkpt>
      <trkpt lat="39.80217992328107357025146484375" lon="-0.8757129125297069549560546875">
        <ele>1002.4000244140625</ele>
        <time>2020-08-22T05:25:45.000Z</time>
      </trkpt>
      <trkpt lat="39.80218646116554737091064453125" lon="-0.875909216701984405517578125">
        <ele>1003.4000244140625</ele>
        <time>2020-08-22T05:25:52.000Z</time>
      </trkpt>
      <trkpt lat="39.80221730656921863555908203125" lon="-0.87610627524554729461669921875">
        <ele>1004.4000244140625</ele>
        <time>2020-08-22T05:25:59.000Z</time>
      </trkpt>
      <trkpt lat="39.802270866930484771728515625" lon="-0.8763234503567218780517578125">
        <ele>1005.5999755859375</ele>
        <time>2020-08-22T05:26:07.000Z</time>
      </trkpt>
      <trkpt lat="39.8022971861064434051513671875" lon="-0.8764954470098018646240234375">
        <ele>1006.5999755859375</ele>
        <time>2020-08-22T05:26:14.000Z</time>
      </trkpt>
      <trkpt lat="39.80233230628073215484619140625" lon="-0.8766422979533672332763671875">
        <ele>1007.79998779296875</ele>
        <time>2020-08-22T05:26:20.000Z</time>
      </trkpt>
      <trkpt lat="39.80234119109809398651123046875" lon="-0.87676190771162509918212890625">
        <ele>1008.79998779296875</ele>
        <time>2020-08-22T05:26:25.000Z</time>
      </trkpt>
      <trkpt lat="39.80236776173114776611328125" lon="-0.876913368701934814453125">
        <ele>1009.79998779296875</ele>
        <time>2020-08-22T05:26:31.000Z</time>
      </trkpt>
      <trkpt lat="39.8024125210940837860107421875" lon="-0.87714998982846736907958984375">
        <ele>1011</ele>
        <time>2020-08-22T05:26:40.000Z</time>
      </trkpt>
      <trkpt lat="39.80246121995151042938232421875" lon="-0.87731444276869297027587890625">
        <ele>1012</ele>
        <time>2020-08-22T05:26:47.000Z</time>
      </trkpt>
      <trkpt lat="39.8025127686560153961181640625" lon="-0.8774516545236110687255859375">
        <ele>1013</ele>
        <time>2020-08-22T05:26:53.000Z</time>
      </trkpt>
      <trkpt lat="39.80257219634950160980224609375" lon="-0.87768559344112873077392578125">
        <ele>1014.20001220703125</ele>
        <time>2020-08-22T05:27:02.000Z</time>
      </trkpt>
      <trkpt lat="39.80259977281093597412109375" lon="-0.8778640441596508026123046875">
        <ele>1015.4000244140625</ele>
        <time>2020-08-22T05:27:09.000Z</time>
      </trkpt>
      <trkpt lat="39.80262257158756256103515625" lon="-0.87803310714662075042724609375">
        <ele>1016.4000244140625</ele>
        <time>2020-08-22T05:27:16.000Z</time>
      </trkpt>
      <trkpt lat="39.8026566021144390106201171875" lon="-0.8781822212040424346923828125">
        <ele>1017.4000244140625</ele>
        <time>2020-08-22T05:27:22.000Z</time>
      </trkpt>
      <trkpt lat="39.8027169518172740936279296875" lon="-0.87836838327348232269287109375">
        <ele>1018.4000244140625</ele>
        <time>2020-08-22T05:27:30.000Z</time>
      </trkpt>
      <trkpt lat="39.8027920536696910858154296875" lon="-0.87853166274726390838623046875">
        <ele>1019.5999755859375</ele>
        <time>2020-08-22T05:27:38.000Z</time>
      </trkpt>
      <trkpt lat="39.802836142480373382568359375" lon="-0.87866292335093021392822265625">
        <ele>1020.79998779296875</ele>
        <time>2020-08-22T05:27:44.000Z</time>
      </trkpt>
      <trkpt lat="39.80285458266735076904296875" lon="-0.8788276277482509613037109375">
        <ele>1021.79998779296875</ele>
        <time>2020-08-22T05:27:50.000Z</time>
      </trkpt>
      <trkpt lat="39.802896492183208465576171875" lon="-0.87902627885341644287109375">
        <ele>1022.79998779296875</ele>
        <time>2020-08-22T05:27:58.000Z</time>
      </trkpt>
      <trkpt lat="39.80291786603629589080810546875" lon="-0.8792135305702686309814453125">
        <ele>1024</ele>
        <time>2020-08-22T05:28:05.000Z</time>
      </trkpt>
      <trkpt lat="39.80293764732778072357177734375" lon="-0.87939516641199588775634765625">
        <ele>1025</ele>
        <time>2020-08-22T05:28:12.000Z</time>
      </trkpt>
      <trkpt lat="39.80296178720891475677490234375" lon="-0.87956674396991729736328125">
        <ele>1026.199951171875</ele>
        <time>2020-08-22T05:28:19.000Z</time>
      </trkpt>
      <trkpt lat="39.80300067923963069915771484375" lon="-0.879792384803295135498046875">
        <ele>1027.199951171875</ele>
        <time>2020-08-22T05:28:28.000Z</time>
      </trkpt>
      <trkpt lat="39.8030099831521511077880859375" lon="-0.87997586466372013092041015625">
        <ele>1028.4000244140625</ele>
        <time>2020-08-22T05:28:35.000Z</time>
      </trkpt>
      <trkpt lat="39.80298458598554134368896484375" lon="-0.8802646212279796600341796875">
        <ele>1029.4000244140625</ele>
        <time>2020-08-22T05:28:45.000Z</time>
      </trkpt>
      <trkpt lat="39.80296497233211994171142578125" lon="-0.88052202947437763214111328125">
        <ele>1030.4000244140625</ele>
        <time>2020-08-22T05:28:54.000Z</time>
      </trkpt>
      <trkpt lat="39.80295793153345584869384765625" lon="-0.8807905018329620361328125">
        <ele>1031.5999755859375</ele>
        <time>2020-08-22T05:29:03.000Z</time>
      </trkpt>
      <trkpt lat="39.802930690348148345947265625" lon="-0.8809955231845378875732421875">
        <ele>1032.5999755859375</ele>
        <time>2020-08-22T05:29:10.000Z</time>
      </trkpt>
      <trkpt lat="39.80290562845766544342041015625" lon="-0.8812754787504673004150390625">
        <ele>1033.800048828125</ele>
        <time>2020-08-22T05:29:20.000Z</time>
      </trkpt>
      <trkpt lat="39.802884422242641448974609375" lon="-0.8814387582242488861083984375">
        <ele>1034.800048828125</ele>
        <time>2020-08-22T05:29:26.000Z</time>
      </trkpt>
      <trkpt lat="39.8028450272977352142333984375" lon="-0.88167403824627399444580078125">
        <ele>1036</ele>
        <time>2020-08-22T05:29:35.000Z</time>
      </trkpt>
      <trkpt lat="39.8028259165585041046142578125" lon="-0.8818605355918407440185546875">
        <ele>1037</ele>
        <time>2020-08-22T05:29:42.000Z</time>
      </trkpt>
      <trkpt lat="39.80282046832144260406494140625" lon="-0.88206010870635509490966796875">
        <ele>1038</ele>
        <time>2020-08-22T05:29:50.000Z</time>
      </trkpt>
      <trkpt lat="39.802812002599239349365234375" lon="-0.88230251334607601165771484375">
        <ele>1039.199951171875</ele>
        <time>2020-08-22T05:30:00.000Z</time>
      </trkpt>
      <trkpt lat="39.8028312809765338897705078125" lon="-0.88253117166459560394287109375">
        <ele>1040.199951171875</ele>
        <time>2020-08-22T05:30:09.000Z</time>
      </trkpt>
      <trkpt lat="39.802836477756500244140625" lon="-0.8828090317547321319580078125">
        <ele>1041.199951171875</ele>
        <time>2020-08-22T05:30:19.000Z</time>
      </trkpt>
      <trkpt lat="39.80283790268003940582275390625" lon="-0.8830718882381916046142578125">
        <ele>1042.199951171875</ele>
        <time>2020-08-22T05:30:29.000Z</time>
      </trkpt>
      <trkpt lat="39.8028326220810413360595703125" lon="-0.8833546936511993408203125">
        <ele>1043.4000244140625</ele>
        <time>2020-08-22T05:30:38.000Z</time>
      </trkpt>
      <trkpt lat="39.8028319515287876129150390625" lon="-0.88358259759843349456787109375">
        <ele>1044.4000244140625</ele>
        <time>2020-08-22T05:30:46.000Z</time>
      </trkpt>
      <trkpt lat="39.80280269868671894073486328125" lon="-0.88383388705551624298095703125">
        <ele>1045.4000244140625</ele>
        <time>2020-08-22T05:30:55.000Z</time>
      </trkpt>
      <trkpt lat="39.80274871923029422760009765625" lon="-0.88414871133863925933837890625">
        <ele>1046.4000244140625</ele>
        <time>2020-08-22T05:31:06.000Z</time>
      </trkpt>
      <trkpt lat="39.8027256689965724945068359375" lon="-0.8843063749372959136962890625">
        <ele>1047.4000244140625</ele>
        <time>2020-08-22T05:31:12.000Z</time>
      </trkpt>
      <trkpt lat="39.80270831845700740814208984375" lon="-0.88446035049855709075927734375">
        <ele>1048.5999755859375</ele>
        <time>2020-08-22T05:31:18.000Z</time>
      </trkpt>
      <trkpt lat="39.8026753775775432586669921875" lon="-0.8846931159496307373046875">
        <ele>1049.800048828125</ele>
        <time>2020-08-22T05:31:27.000Z</time>
      </trkpt>
      <trkpt lat="39.80268451385200023651123046875" lon="-0.88487575761973857879638671875">
        <ele>1050.800048828125</ele>
        <time>2020-08-22T05:31:34.000Z</time>
      </trkpt>
      <trkpt lat="39.8027327097952365875244140625" lon="-0.885108523070812225341796875">
        <ele>1051.800048828125</ele>
        <time>2020-08-22T05:31:43.000Z</time>
      </trkpt>
      <trkpt lat="39.80277822352945804595947265625" lon="-0.8852531947195529937744140625">
        <ele>1052.800048828125</ele>
        <time>2020-08-22T05:31:49.000Z</time>
      </trkpt>
      <trkpt lat="39.80285382829606533050537109375" lon="-0.8854617364704608917236328125">
        <ele>1054</ele>
        <time>2020-08-22T05:31:58.000Z</time>
      </trkpt>
      <trkpt lat="39.8028995096683502197265625" lon="-0.88564194738864898681640625">
        <ele>1055</ele>
        <time>2020-08-22T05:32:05.000Z</time>
      </trkpt>
      <trkpt lat="39.8030121624469757080078125" lon="-0.8859073184430599212646484375">
        <ele>1056.199951171875</ele>
        <time>2020-08-22T05:32:16.000Z</time>
      </trkpt>
      <trkpt lat="39.80315272696316242218017578125" lon="-0.88625483214855194091796875">
        <ele>1057.4000244140625</ele>
        <time>2020-08-22T05:32:29.000Z</time>
      </trkpt>
      <trkpt lat="39.80329044163227081298828125" lon="-0.88650964200496673583984375">
        <ele>1058.4000244140625</ele>
        <time>2020-08-22T05:32:40.000Z</time>
      </trkpt>
      <trkpt lat="39.8033590056002140045166015625" lon="-0.8866526372730731964111328125">
        <ele>1059.4000244140625</ele>
        <time>2020-08-22T05:32:46.000Z</time>
      </trkpt>
      <trkpt lat="39.80349655263125896453857421875" lon="-0.886935107409954071044921875">
        <ele>1060.5999755859375</ele>
        <time>2020-08-22T05:32:59.000Z</time>
      </trkpt>
      <trkpt lat="39.80364323593676090240478515625" lon="-0.8872108720242977142333984375">
        <ele>1061.800048828125</ele>
        <time>2020-08-22T05:33:11.000Z</time>
      </trkpt>
      <trkpt lat="39.803770221769809722900390625" lon="-0.88737691752612590789794921875">
        <ele>1063</ele>
        <time>2020-08-22T05:33:20.000Z</time>
      </trkpt>
      <trkpt lat="39.80389502830803394317626953125" lon="-0.8874968625605106353759765625">
        <ele>1064</ele>
        <time>2020-08-22T05:33:28.000Z</time>
      </trkpt>
      <trkpt lat="39.8039879836142063140869140625" lon="-0.88757422752678394317626953125">
        <ele>1065.199951171875</ele>
        <time>2020-08-22T05:33:34.000Z</time>
      </trkpt>
      <trkpt lat="39.80414095334708690643310546875" lon="-0.88767514564096927642822265625">
        <ele>1066.199951171875</ele>
        <time>2020-08-22T05:33:43.000Z</time>
      </trkpt>
      <trkpt lat="39.80426517315208911895751953125" lon="-0.8877293765544891357421875">
        <ele>1067.199951171875</ele>
        <time>2020-08-22T05:33:50.000Z</time>
      </trkpt>
      <trkpt lat="39.804733134806156158447265625" lon="-0.88776625692844390869140625">
        <ele>1067.800048828125</ele>
        <time>2020-08-22T05:34:20.000Z</time>
      </trkpt>
      <trkpt lat="39.80544668622314929962158203125" lon="-0.8874358423054218292236328125">
        <ele>1068</ele>
        <time>2020-08-22T05:44:45.000Z</time>
      </trkpt>
      <trkpt lat="39.805746339261531829833984375" lon="-0.88706796057522296905517578125">
        <ele>1066</ele>
        <time>2020-08-22T05:44:55.000Z</time>
      </trkpt>
      <trkpt lat="39.80584650300443172454833984375" lon="-0.886944495141506195068359375">
        <ele>1064.5999755859375</ele>
        <time>2020-08-22T05:44:58.000Z</time>
      </trkpt>
      <trkpt lat="39.8061005584895610809326171875" lon="-0.8866261504590511322021484375">
        <ele>1063.5999755859375</ele>
        <time>2020-08-22T05:45:06.000Z</time>
      </trkpt>
      <trkpt lat="39.80650733225047588348388671875" lon="-0.8861198835074901580810546875">
        <ele>1063</ele>
        <time>2020-08-22T05:45:19.000Z</time>
      </trkpt>
      <trkpt lat="39.80669827200472354888916015625" lon="-0.88589801453053951263427734375">
        <ele>1062.5999755859375</ele>
        <time>2020-08-22T05:45:24.000Z</time>
      </trkpt>
      <trkpt lat="39.80697370134294033050537109375" lon="-0.8855272829532623291015625">
        <ele>1061.4000244140625</ele>
        <time>2020-08-22T05:45:31.000Z</time>
      </trkpt>
      <trkpt lat="39.80717101134359836578369140625" lon="-0.88522830046713352203369140625">
        <ele>1061</ele>
        <time>2020-08-22T05:45:36.000Z</time>
      </trkpt>
      <trkpt lat="39.8073350451886653900146484375" lon="-0.88497499935328960418701171875">
        <ele>1060.4000244140625</ele>
        <time>2020-08-22T05:45:40.000Z</time>
      </trkpt>
      <trkpt lat="39.8075160942971706390380859375" lon="-0.88470853865146636962890625">
        <ele>1059.199951171875</ele>
        <time>2020-08-22T05:45:44.000Z</time>
      </trkpt>
      <trkpt lat="39.80775221250951290130615234375" lon="-0.884363539516925811767578125">
        <ele>1058.199951171875</ele>
        <time>2020-08-22T05:45:49.000Z</time>
      </trkpt>
      <trkpt lat="39.807994365692138671875" lon="-0.88402734138071537017822265625">
        <ele>1057</ele>
        <time>2020-08-22T05:45:54.000Z</time>
      </trkpt>
      <trkpt lat="39.808441288769245147705078125" lon="-0.88362467475235462188720703125">
        <ele>1056</ele>
        <time>2020-08-22T05:46:01.000Z</time>
      </trkpt>
      <trkpt lat="39.808523096144199371337890625" lon="-0.883582346141338348388671875">
        <ele>1056</ele>
        <time>2020-08-22T05:46:02.000Z</time>
      </trkpt>
      <trkpt lat="39.8086084239184856414794921875" lon="-0.88354982435703277587890625">
        <ele>1055.800048828125</ele>
        <time>2020-08-22T05:46:03.000Z</time>
      </trkpt>
      <trkpt lat="39.8087877966463565826416015625" lon="-0.88350422680377960205078125">
        <ele>1054.800048828125</ele>
        <time>2020-08-22T05:46:05.000Z</time>
      </trkpt>
      <trkpt lat="39.8090831749141216278076171875" lon="-0.8834222517907619476318359375">
        <ele>1053.800048828125</ele>
        <time>2020-08-22T05:46:08.000Z</time>
      </trkpt>
      <trkpt lat="39.80918065644800662994384765625" lon="-0.88337816298007965087890625">
        <ele>1053.4000244140625</ele>
        <time>2020-08-22T05:46:09.000Z</time>
      </trkpt>
      <trkpt lat="39.80927252210676670074462890625" lon="-0.88332175277173519134521484375">
        <ele>1052.4000244140625</ele>
        <time>2020-08-22T05:46:10.000Z</time>
      </trkpt>
      <trkpt lat="39.809515513479709625244140625" lon="-0.883118323981761932373046875">
        <ele>1051.199951171875</ele>
        <time>2020-08-22T05:46:13.000Z</time>
      </trkpt>
      <trkpt lat="39.80966496281325817108154296875" lon="-0.88295596651732921600341796875">
        <ele>1049.800048828125</ele>
        <time>2020-08-22T05:46:15.000Z</time>
      </trkpt>
      <trkpt lat="39.80979991145431995391845703125" lon="-0.882777683436870574951171875">
        <ele>1048.199951171875</ele>
        <time>2020-08-22T05:46:17.000Z</time>
      </trkpt>
      <trkpt lat="39.8099481873214244842529296875" lon="-0.88261867873370647430419921875">
        <ele>1047</ele>
        <time>2020-08-22T05:46:19.000Z</time>
      </trkpt>
      <trkpt lat="39.81031112372875213623046875" lon="-0.88240795768797397613525390625">
        <ele>1045.4000244140625</ele>
        <time>2020-08-22T05:46:23.000Z</time>
      </trkpt>
      <trkpt lat="39.8104061745107173919677734375" lon="-0.88237769901752471923828125">
        <ele>1044.4000244140625</ele>
        <time>2020-08-22T05:46:24.000Z</time>
      </trkpt>
      <trkpt lat="39.81050265021622180938720703125" lon="-0.88235615752637386322021484375">
        <ele>1043.199951171875</ele>
        <time>2020-08-22T05:46:25.000Z</time>
      </trkpt>
      <trkpt lat="39.810696355998516082763671875" lon="-0.88232799433171749114990234375">
        <ele>1041.800048828125</ele>
        <time>2020-08-22T05:46:27.000Z</time>
      </trkpt>
      <trkpt lat="39.81088578701019287109375" lon="-0.8822967298328876495361328125">
        <ele>1040.5999755859375</ele>
        <time>2020-08-22T05:46:29.000Z</time>
      </trkpt>
      <trkpt lat="39.81106742285192012786865234375" lon="-0.88224601931869983673095703125">
        <ele>1039.4000244140625</ele>
        <time>2020-08-22T05:46:31.000Z</time>
      </trkpt>
      <trkpt lat="39.81142717413604259490966796875" lon="-0.8821123279631137847900390625">
        <ele>1038.199951171875</ele>
        <time>2020-08-22T05:46:35.000Z</time>
      </trkpt>
      <trkpt lat="39.8117824830114841461181640625" lon="-0.88193940930068492889404296875">
        <ele>1037.199951171875</ele>
        <time>2020-08-22T05:46:39.000Z</time>
      </trkpt>
      <trkpt lat="39.8120584152638912200927734375" lon="-0.88183723390102386474609375">
        <ele>1035.800048828125</ele>
        <time>2020-08-22T05:46:42.000Z</time>
      </trkpt>
      <trkpt lat="39.8121603392064571380615234375" lon="-0.88183052837848663330078125">
        <ele>1035</ele>
        <time>2020-08-22T05:46:43.000Z</time>
      </trkpt>
      <trkpt lat="39.81225974857807159423828125" lon="-0.88183413259685039520263671875">
        <ele>1034.5999755859375</ele>
        <time>2020-08-22T05:46:44.000Z</time>
      </trkpt>
      <trkpt lat="39.8123569786548614501953125" lon="-0.8818541653454303741455078125">
        <ele>1034.4000244140625</ele>
        <time>2020-08-22T05:46:45.000Z</time>
      </trkpt>
      <trkpt lat="39.8128236830234527587890625" lon="-0.8820181153714656829833984375">
        <ele>1033.199951171875</ele>
        <time>2020-08-22T05:46:50.000Z</time>
      </trkpt>
      <trkpt lat="39.81302359141409397125244140625" lon="-0.88199590332806110382080078125">
        <ele>1032.5999755859375</ele>
        <time>2020-08-22T05:46:52.000Z</time>
      </trkpt>
      <trkpt lat="39.81321302242577075958251953125" lon="-0.88190152309834957122802734375">
        <ele>1032.199951171875</ele>
        <time>2020-08-22T05:46:54.000Z</time>
      </trkpt>
      <trkpt lat="39.81338300742208957672119140625" lon="-0.8817488886415958404541015625">
        <ele>1031.800048828125</ele>
        <time>2020-08-22T05:46:56.000Z</time>
      </trkpt>
      <trkpt lat="39.813551567494869232177734375" lon="-0.88155887089669704437255859375">
        <ele>1030.800048828125</ele>
        <time>2020-08-22T05:46:58.000Z</time>
      </trkpt>
      <trkpt lat="39.81364485807716846466064453125" lon="-0.88147320784628391265869140625">
        <ele>1029.800048828125</ele>
        <time>2020-08-22T05:46:59.000Z</time>
      </trkpt>
      <trkpt lat="39.8137495480477809906005859375" lon="-0.88141051121056079864501953125">
        <ele>1028.199951171875</ele>
        <time>2020-08-22T05:47:00.000Z</time>
      </trkpt>
      <trkpt lat="39.81386161409318447113037109375" lon="-0.88137052953243255615234375">
        <ele>1027.199951171875</ele>
        <time>2020-08-22T05:47:01.000Z</time>
      </trkpt>
      <trkpt lat="39.81397946365177631378173828125" lon="-0.8813529275357723236083984375">
        <ele>1026.5999755859375</ele>
        <time>2020-08-22T05:47:02.000Z</time>
      </trkpt>
      <trkpt lat="39.814096055924892425537109375" lon="-0.8813596330583095550537109375">
        <ele>1025.4000244140625</ele>
        <time>2020-08-22T05:47:03.000Z</time>
      </trkpt>
      <trkpt lat="39.8143198527395725250244140625" lon="-0.88143783621490001678466796875">
        <ele>1023.79998779296875</ele>
        <time>2020-08-22T05:47:05.000Z</time>
      </trkpt>
      <trkpt lat="39.81453786604106426239013671875" lon="-0.8815742097795009613037109375">
        <ele>1022.20001220703125</ele>
        <time>2020-08-22T05:47:07.000Z</time>
      </trkpt>
      <trkpt lat="39.814755879342555999755859375" lon="-0.88171728886663913726806640625">
        <ele>1021</ele>
        <time>2020-08-22T05:47:09.000Z</time>
      </trkpt>
      <trkpt lat="39.8148680292069911956787109375" lon="-0.88177897967398166656494140625">
        <ele>1019.79998779296875</ele>
        <time>2020-08-22T05:47:10.000Z</time>
      </trkpt>
      <trkpt lat="39.81498361565172672271728515625" lon="-0.88182290084660053253173828125">
        <ele>1018.79998779296875</ele>
        <time>2020-08-22T05:47:11.000Z</time>
      </trkpt>
      <trkpt lat="39.81510263867676258087158203125" lon="-0.88184033520519733428955078125">
        <ele>1018.4000244140625</ele>
        <time>2020-08-22T05:47:12.000Z</time>
      </trkpt>
      <trkpt lat="39.81521529145538806915283203125" lon="-0.88182323612272739410400390625">
        <ele>1017.5999755859375</ele>
        <time>2020-08-22T05:47:13.000Z</time>
      </trkpt>
      <trkpt lat="39.81532014906406402587890625" lon="-0.881777219474315643310546875">
        <ele>1016.79998779296875</ele>
        <time>2020-08-22T05:47:14.000Z</time>
      </trkpt>
      <trkpt lat="39.8154208995401859283447265625" lon="-0.88170773349702358245849609375">
        <ele>1016.4000244140625</ele>
        <time>2020-08-22T05:47:15.000Z</time>
      </trkpt>
      <trkpt lat="39.81551452539861202239990234375" lon="-0.8816325478255748748779296875">
        <ele>1015.79998779296875</ele>
        <time>2020-08-22T05:47:16.000Z</time>
      </trkpt>
      <trkpt lat="39.81570429168641567230224609375" lon="-0.88147186674177646636962890625">
        <ele>1014.5999755859375</ele>
        <time>2020-08-22T05:47:18.000Z</time>
      </trkpt>
      <trkpt lat="39.8158889450132846832275390625" lon="-0.8813224174082279205322265625">
        <ele>1012.5999755859375</ele>
        <time>2020-08-22T05:47:20.000Z</time>
      </trkpt>
      <trkpt lat="39.816076196730136871337890625" lon="-0.88119140826165676116943359375">
        <ele>1011.4000244140625</ele>
        <time>2020-08-22T05:47:22.000Z</time>
      </trkpt>
      <trkpt lat="39.816174097359180450439453125" lon="-0.88114514015614986419677734375">
        <ele>1011.20001220703125</ele>
        <time>2020-08-22T05:47:23.000Z</time>
      </trkpt>
      <trkpt lat="39.8163791187107563018798828125" lon="-0.881110019981861114501953125">
        <ele>1010.5999755859375</ele>
        <time>2020-08-22T05:47:25.000Z</time>
      </trkpt>
      <trkpt lat="39.8164823837578296661376953125" lon="-0.8811225928366184234619140625">
        <ele>1010.20001220703125</ele>
        <time>2020-08-22T05:47:26.000Z</time>
      </trkpt>
      <trkpt lat="39.81668732129037380218505859375" lon="-0.88118352927267551422119140625">
        <ele>1009.79998779296875</ele>
        <time>2020-08-22T05:47:28.000Z</time>
      </trkpt>
      <trkpt lat="39.81686971150338649749755859375" lon="-0.881309844553470611572265625">
        <ele>1009.20001220703125</ele>
        <time>2020-08-22T05:47:30.000Z</time>
      </trkpt>
      <trkpt lat="39.817002899944782257080078125" lon="-0.8814826793968677520751953125">
        <ele>1009</ele>
        <time>2020-08-22T05:47:32.000Z</time>
      </trkpt>
      <trkpt lat="39.81708948500454425811767578125" lon="-0.88168845511972904205322265625">
        <ele>1009</ele>
        <time>2020-08-22T05:47:34.000Z</time>
      </trkpt>
      <trkpt lat="39.817295931279659271240234375" lon="-0.88238130323588848114013671875">
        <ele>1008.5999755859375</ele>
        <time>2020-08-22T05:47:41.000Z</time>
      </trkpt>
      <trkpt lat="39.81749718077480792999267578125" lon="-0.8831159770488739013671875">
        <ele>1009</ele>
        <time>2020-08-22T05:47:50.000Z</time>
      </trkpt>
      <trkpt lat="39.81772181577980518341064453125" lon="-0.8838081546127796173095703125">
        <ele>1008.5999755859375</ele>
        <time>2020-08-22T05:47:59.000Z</time>
      </trkpt>
      <trkpt lat="39.8177745379507541656494140625" lon="-0.883969925343990325927734375">
        <ele>1008.20001220703125</ele>
        <time>2020-08-22T05:48:01.000Z</time>
      </trkpt>
      <trkpt lat="39.81791979633271694183349609375" lon="-0.88442900218069553375244140625">
        <ele>1007.20001220703125</ele>
        <time>2020-08-22T05:48:06.000Z</time>
      </trkpt>
      <trkpt lat="39.8180808126926422119140625" lon="-0.884990505874156951904296875">
        <ele>1006</ele>
        <time>2020-08-22T05:48:11.000Z</time>
      </trkpt>
      <trkpt lat="39.818138815462589263916015625" lon="-0.88523198850452899932861328125">
        <ele>1005</ele>
        <time>2020-08-22T05:48:13.000Z</time>
      </trkpt>
      <trkpt lat="39.81820947490632534027099609375" lon="-0.8857423625886440277099609375">
        <ele>1003.79998779296875</ele>
        <time>2020-08-22T05:48:17.000Z</time>
      </trkpt>
      <trkpt lat="39.8182342015206813812255859375" lon="-0.88600806891918182373046875">
        <ele>1002.20001220703125</ele>
        <time>2020-08-22T05:48:19.000Z</time>
      </trkpt>
      <trkpt lat="39.8182445950806140899658203125" lon="-0.886273942887783050537109375">
        <ele>1000.79998779296875</ele>
        <time>2020-08-22T05:48:21.000Z</time>
      </trkpt>
      <trkpt lat="39.8182378895580768585205078125" lon="-0.8865403197705745697021484375">
        <ele>999.20001220703125</ele>
        <time>2020-08-22T05:48:23.000Z</time>
      </trkpt>
      <trkpt lat="39.81822020374238491058349609375" lon="-0.88679789565503597259521484375">
        <ele>998</ele>
        <time>2020-08-22T05:48:25.000Z</time>
      </trkpt>
      <trkpt lat="39.8181969858705997467041015625" lon="-0.8870485983788967132568359375">
        <ele>996.5999755859375</ele>
        <time>2020-08-22T05:48:27.000Z</time>
      </trkpt>
      <trkpt lat="39.81816890649497509002685546875" lon="-0.8873003907501697540283203125">
        <ele>995.5999755859375</ele>
        <time>2020-08-22T05:48:29.000Z</time>
      </trkpt>
      <trkpt lat="39.81809883378446102142333984375" lon="-0.88782534934580326080322265625">
        <ele>994.5999755859375</ele>
        <time>2020-08-22T05:48:33.000Z</time>
      </trkpt>
      <trkpt lat="39.8180112428963184356689453125" lon="-0.888508222997188568115234375">
        <ele>993</ele>
        <time>2020-08-22T05:48:38.000Z</time>
      </trkpt>
      <trkpt lat="39.81796002946794033050537109375" lon="-0.8889167569577693939208984375">
        <ele>991.5999755859375</ele>
        <time>2020-08-22T05:48:41.000Z</time>
      </trkpt>
      <trkpt lat="39.8179306089878082275390625" lon="-0.889187157154083251953125">
        <ele>990.4000244140625</ele>
        <time>2020-08-22T05:48:43.000Z</time>
      </trkpt>
      <trkpt lat="39.81788962148129940032958984375" lon="-0.88959862478077411651611328125">
        <ele>989.20001220703125</ele>
        <time>2020-08-22T05:48:46.000Z</time>
      </trkpt>
      <trkpt lat="39.8177195526659488677978515625" lon="-0.89035953395068645477294921875">
        <ele>988</ele>
        <time>2020-08-22T05:48:52.000Z</time>
      </trkpt>
      <trkpt lat="39.81754504144191741943359375" lon="-0.89080796577036380767822265625">
        <ele>986.5999755859375</ele>
        <time>2020-08-22T05:48:56.000Z</time>
      </trkpt>
      <trkpt lat="39.8174040578305721282958984375" lon="-0.89111340232193470001220703125">
        <ele>985.4000244140625</ele>
        <time>2020-08-22T05:48:59.000Z</time>
      </trkpt>
      <trkpt lat="39.8171797581017017364501953125" lon="-0.89172519743442535400390625">
        <ele>984.20001220703125</ele>
        <time>2020-08-22T05:49:05.000Z</time>
      </trkpt>
      <trkpt lat="39.81714480556547641754150390625" lon="-0.892441682517528533935546875">
        <ele>983.5999755859375</ele>
        <time>2020-08-22T05:49:12.000Z</time>
      </trkpt>
      <trkpt lat="39.81717397458851337432861328125" lon="-0.8926539123058319091796875">
        <ele>983.4000244140625</ele>
        <time>2020-08-22T05:49:14.000Z</time>
      </trkpt>
      <trkpt lat="39.817245304584503173828125" lon="-0.89284677989780902862548828125">
        <ele>983.4000244140625</ele>
        <time>2020-08-22T05:49:16.000Z</time>
      </trkpt>
      <trkpt lat="39.817293584346771240234375" lon="-0.89293294586241245269775390625">
        <ele>983.20001220703125</ele>
        <time>2020-08-22T05:49:17.000Z</time>
      </trkpt>
      <trkpt lat="39.81744504533708095550537109375" lon="-0.893196724355220794677734375">
        <ele>983</ele>
        <time>2020-08-22T05:49:20.000Z</time>
      </trkpt>
      <trkpt lat="39.81750522740185260772705078125" lon="-0.89340115897357463836669921875">
        <ele>982.5999755859375</ele>
        <time>2020-08-22T05:49:22.000Z</time>
      </trkpt>
      <trkpt lat="39.8175307922065258026123046875" lon="-0.8936206810176372528076171875">
        <ele>982.4000244140625</ele>
        <time>2020-08-22T05:49:24.000Z</time>
      </trkpt>
      <trkpt lat="39.81754101812839508056640625" lon="-0.89384690858423709869384765625">
        <ele>982.20001220703125</ele>
        <time>2020-08-22T05:49:26.000Z</time>
      </trkpt>
      <trkpt lat="39.817563481628894805908203125" lon="-0.89420179836452007293701171875">
        <ele>981</ele>
        <time>2020-08-22T05:49:29.000Z</time>
      </trkpt>
      <trkpt lat="39.81758586131036281585693359375" lon="-0.8948202989995479583740234375">
        <ele>980</ele>
        <time>2020-08-22T05:49:34.000Z</time>
      </trkpt>
      <trkpt lat="39.8175395093858242034912109375" lon="-0.8950544893741607666015625">
        <ele>978.79998779296875</ele>
        <time>2020-08-22T05:49:36.000Z</time>
      </trkpt>
      <trkpt lat="39.817451499402523040771484375" lon="-0.89526613242924213409423828125">
        <ele>977.5999755859375</ele>
        <time>2020-08-22T05:49:38.000Z</time>
      </trkpt>
      <trkpt lat="39.8173282854259014129638671875" lon="-0.895426310598850250244140625">
        <ele>976.4000244140625</ele>
        <time>2020-08-22T05:49:40.000Z</time>
      </trkpt>
      <trkpt lat="39.8168753273785114288330078125" lon="-0.895852781832218170166015625">
        <ele>975.4000244140625</ele>
        <time>2020-08-22T05:49:47.000Z</time>
      </trkpt>
      <trkpt lat="39.81679947115480899810791015625" lon="-0.8960108645260334014892578125">
        <ele>975.4000244140625</ele>
        <time>2020-08-22T05:49:49.000Z</time>
      </trkpt>
      <trkpt lat="39.81675571762025356292724609375" lon="-0.8961838670074939727783203125">
        <ele>975.20001220703125</ele>
        <time>2020-08-22T05:49:51.000Z</time>
      </trkpt>
      <trkpt lat="39.81674180366098880767822265625" lon="-0.8963558636605739593505859375">
        <ele>975.20001220703125</ele>
        <time>2020-08-22T05:49:53.000Z</time>
      </trkpt>
      <trkpt lat="39.81675772927701473236083984375" lon="-0.8965315483510494232177734375">
        <ele>975.20001220703125</ele>
        <time>2020-08-22T05:49:55.000Z</time>
      </trkpt>
      <trkpt lat="39.81680751778185367584228515625" lon="-0.89670044369995594024658203125">
        <ele>975.20001220703125</ele>
        <time>2020-08-22T05:49:57.000Z</time>
      </trkpt>
      <trkpt lat="39.8170436359941959381103515625" lon="-0.8973385579884052276611328125">
        <ele>975</ele>
        <time>2020-08-22T05:50:05.000Z</time>
      </trkpt>
      <trkpt lat="39.81706316582858562469482421875" lon="-0.8974944613873958587646484375">
        <ele>975</ele>
        <time>2020-08-22T05:50:07.000Z</time>
      </trkpt>
      <trkpt lat="39.81705486774444580078125" lon="-0.89771314524114131927490234375">
        <ele>975</ele>
        <time>2020-08-22T05:50:10.000Z</time>
      </trkpt>
      <trkpt lat="39.8170205019414424896240234375" lon="-0.89785404503345489501953125">
        <ele>975.20001220703125</ele>
        <time>2020-08-22T05:50:12.000Z</time>
      </trkpt>
      <trkpt lat="39.81677767820656299591064453125" lon="-0.89853725396096706390380859375">
        <ele>974.79998779296875</ele>
        <time>2020-08-22T05:50:22.000Z</time>
      </trkpt>
      <trkpt lat="39.81651398353278636932373046875" lon="-0.8991555869579315185546875">
        <ele>974.5999755859375</ele>
        <time>2020-08-22T05:50:33.000Z</time>
      </trkpt>
      <trkpt lat="39.81624819338321685791015625" lon="-0.8997867442667484283447265625">
        <ele>975.5999755859375</ele>
        <time>2020-08-22T05:50:49.000Z</time>
      </trkpt>
      <trkpt lat="39.8160502128303050994873046875" lon="-0.90045738033950328826904296875">
        <ele>976.4000244140625</ele>
        <time>2020-08-22T05:51:04.000Z</time>
      </trkpt>
      <trkpt lat="39.81603118591010570526123046875" lon="-0.90114654041826725006103515625">
        <ele>977.4000244140625</ele>
        <time>2020-08-22T05:51:20.000Z</time>
      </trkpt>
      <trkpt lat="39.81603738851845264434814453125" lon="-0.9011875279247760772705078125">
        <ele>977.4000244140625</ele>
        <time>2020-08-22T05:51:21.000Z</time>
      </trkpt>
      <trkpt lat="39.81613730080425739288330078125" lon="-0.9014993347227573394775390625">
        <ele>978.5999755859375</ele>
        <time>2020-08-22T05:51:29.000Z</time>
      </trkpt>
      <trkpt lat="39.81625246815383434295654296875" lon="-0.901687256991863250732421875">
        <ele>979.5999755859375</ele>
        <time>2020-08-22T05:51:35.000Z</time>
      </trkpt>
      <trkpt lat="39.81644575484097003936767578125" lon="-0.9018981456756591796875">
        <ele>980.5999755859375</ele>
        <time>2020-08-22T05:51:43.000Z</time>
      </trkpt>
      <trkpt lat="39.81661356054246425628662109375" lon="-0.9021048434078693389892578125">
        <ele>981.5999755859375</ele>
        <time>2020-08-22T05:51:51.000Z</time>
      </trkpt>
      <trkpt lat="39.816760160028934478759765625" lon="-0.9024954400956630706787109375">
        <ele>982.79998779296875</ele>
        <time>2020-08-22T05:52:02.000Z</time>
      </trkpt>
      <trkpt lat="39.8167180828750133514404296875" lon="-0.9028816781938076019287109375">
        <ele>983.79998779296875</ele>
        <time>2020-08-22T05:52:12.000Z</time>
      </trkpt>
      <trkpt lat="39.81660484336316585540771484375" lon="-0.90358181856572628021240234375">
        <ele>984.5999755859375</ele>
        <time>2020-08-22T05:52:30.000Z</time>
      </trkpt>
      <trkpt lat="39.816613309085369110107421875" lon="-0.90380586683750152587890625">
        <ele>984.79998779296875</ele>
        <time>2020-08-22T05:52:36.000Z</time>
      </trkpt>
      <trkpt lat="39.81662236154079437255859375" lon="-0.9040749259293079376220703125">
        <ele>986</ele>
        <time>2020-08-22T05:52:44.000Z</time>
      </trkpt>
      <trkpt lat="39.8166242055594921112060546875" lon="-0.90423393063247203826904296875">
        <ele>987.20001220703125</ele>
        <time>2020-08-22T05:52:49.000Z</time>
      </trkpt>
      <trkpt lat="39.816667623817920684814453125" lon="-0.90447834692895412445068359375">
        <ele>988.20001220703125</ele>
        <time>2020-08-22T05:52:57.000Z</time>
      </trkpt>
      <trkpt lat="39.8167700506746768951416015625" lon="-0.904652774333953857421875">
        <ele>989.4000244140625</ele>
        <time>2020-08-22T05:53:04.000Z</time>
      </trkpt>
      <trkpt lat="39.81690625660121440887451171875" lon="-0.9047391079366207122802734375">
        <ele>990.4000244140625</ele>
        <time>2020-08-22T05:53:10.000Z</time>
      </trkpt>
      <trkpt lat="39.81708797626197338104248046875" lon="-0.9047786705195903778076171875">
        <ele>991.5999755859375</ele>
        <time>2020-08-22T05:53:17.000Z</time>
      </trkpt>
      <trkpt lat="39.81761234812438488006591796875" lon="-0.90452042408287525177001953125">
        <ele>991.5999755859375</ele>
        <time>2020-08-22T05:53:30.000Z</time>
      </trkpt>
      <trkpt lat="39.81779674999415874481201171875" lon="-0.90437407605350017547607421875">
        <ele>990.5999755859375</ele>
        <time>2020-08-22T05:53:34.000Z</time>
      </trkpt>
      <trkpt lat="39.8181487061083316802978515625" lon="-0.9041108004748821258544921875">
        <ele>989.5999755859375</ele>
        <time>2020-08-22T05:53:42.000Z</time>
      </trkpt>
      <trkpt lat="39.81823495589196681976318359375" lon="-0.90405941940844058990478515625">
        <ele>989.4000244140625</ele>
        <time>2020-08-22T05:53:44.000Z</time>
      </trkpt>
      <trkpt lat="39.81874071992933750152587890625" lon="-0.9036900289356708526611328125">
        <ele>989.4000244140625</ele>
        <time>2020-08-22T05:53:55.000Z</time>
      </trkpt>
      <trkpt lat="39.8190821148455142974853515625" lon="-0.903442762792110443115234375">
        <ele>988.20001220703125</ele>
        <time>2020-08-22T05:54:02.000Z</time>
      </trkpt>
      <trkpt lat="39.819522835314273834228515625" lon="-0.9029765613377094268798828125">
        <ele>987.20001220703125</ele>
        <time>2020-08-22T05:54:14.000Z</time>
      </trkpt>
      <trkpt lat="39.81988795101642608642578125" lon="-0.90246585197746753692626953125">
        <ele>987</ele>
        <time>2020-08-22T05:54:26.000Z</time>
      </trkpt>
      <trkpt lat="39.81996598653495311737060546875" lon="-0.90242494828999042510986328125">
        <ele>986.79998779296875</ele>
        <time>2020-08-22T05:54:28.000Z</time>
      </trkpt>
      <trkpt lat="39.820050559937953948974609375" lon="-0.90241941623389720916748046875">
        <ele>986.79998779296875</ele>
        <time>2020-08-22T05:54:30.000Z</time>
      </trkpt>
      <trkpt lat="39.820129014551639556884765625" lon="-0.902453362941741943359375">
        <ele>986.79998779296875</ele>
        <time>2020-08-22T05:54:32.000Z</time>
      </trkpt>
      <trkpt lat="39.8203772865235805511474609375" lon="-0.903061889111995697021484375">
        <ele>987.5999755859375</ele>
        <time>2020-08-22T05:54:47.000Z</time>
      </trkpt>
      <trkpt lat="39.820460937917232513427734375" lon="-0.903302617371082305908203125">
        <ele>988.20001220703125</ele>
        <time>2020-08-22T05:54:53.000Z</time>
      </trkpt>
      <trkpt lat="39.82064458541572093963623046875" lon="-0.90360025875270366668701171875">
        <ele>989.4000244140625</ele>
        <time>2020-08-22T05:55:02.000Z</time>
      </trkpt>
      <trkpt lat="39.820906184613704681396484375" lon="-0.90381600894033908843994140625">
        <ele>990.4000244140625</ele>
        <time>2020-08-22T05:55:11.000Z</time>
      </trkpt>
      <trkpt lat="39.82127641327679157257080078125" lon="-0.903774686157703399658203125">
        <ele>991.4000244140625</ele>
        <time>2020-08-22T05:55:23.000Z</time>
      </trkpt>
      <trkpt lat="39.8215021379292011260986328125" lon="-0.9036605246365070343017578125">
        <ele>992.5999755859375</ele>
        <time>2020-08-22T05:55:31.000Z</time>
      </trkpt>
      <trkpt lat="39.82177220284938812255859375" lon="-0.90355901978909969329833984375">
        <ele>993.5999755859375</ele>
        <time>2020-08-22T05:55:40.000Z</time>
      </trkpt>
      <trkpt lat="39.8219262622296810150146484375" lon="-0.9036375582218170166015625">
        <ele>994.5999755859375</ele>
        <time>2020-08-22T05:55:45.000Z</time>
      </trkpt>
      <trkpt lat="39.8220566846430301666259765625" lon="-0.9038378857076168060302734375">
        <ele>995.79998779296875</ele>
        <time>2020-08-22T05:55:52.000Z</time>
      </trkpt>
      <trkpt lat="39.82212969101965427398681640625" lon="-0.90404324233531951904296875">
        <ele>996.79998779296875</ele>
        <time>2020-08-22T05:55:58.000Z</time>
      </trkpt>
      <trkpt lat="39.82219037599861621856689453125" lon="-0.90433484874665737152099609375">
        <ele>997.79998779296875</ele>
        <time>2020-08-22T05:56:05.000Z</time>
      </trkpt>
      <trkpt lat="39.82224334962666034698486328125" lon="-0.90464347042143344879150390625">
        <ele>999</ele>
        <time>2020-08-22T05:56:12.000Z</time>
      </trkpt>
      <trkpt lat="39.8224375583231449127197265625" lon="-0.90496835298836231231689453125">
        <ele>999.79998779296875</ele>
        <time>2020-08-22T05:56:21.000Z</time>
      </trkpt>
      <trkpt lat="39.822522886097431182861328125" lon="-0.90501009486615657806396484375">
        <ele>999.79998779296875</ele>
        <time>2020-08-22T05:56:23.000Z</time>
      </trkpt>
      <trkpt lat="39.822620116174221038818359375" lon="-0.9050227515399456024169921875">
        <ele>999.79998779296875</ele>
        <time>2020-08-22T05:56:25.000Z</time>
      </trkpt>
      <trkpt lat="39.82273134402930736541748046875" lon="-0.90500523336231708526611328125">
        <ele>999.79998779296875</ele>
        <time>2020-08-22T05:56:27.000Z</time>
      </trkpt>
      <trkpt lat="39.8228489421308040618896484375" lon="-0.90493482537567615509033203125">
        <ele>999.79998779296875</ele>
        <time>2020-08-22T05:56:29.000Z</time>
      </trkpt>
      <trkpt lat="39.82328656129539012908935546875" lon="-0.904471389949321746826171875">
        <ele>998</ele>
        <time>2020-08-22T05:56:36.000Z</time>
      </trkpt>
      <trkpt lat="39.82335579581558704376220703125" lon="-0.90439570136368274688720703125">
        <ele>997.79998779296875</ele>
        <time>2020-08-22T05:56:37.000Z</time>
      </trkpt>
      <trkpt lat="39.82358001172542572021484375" lon="-0.904170982539653778076171875">
        <ele>996.79998779296875</ele>
        <time>2020-08-22T05:56:40.000Z</time>
      </trkpt>
      <trkpt lat="39.82365787960588932037353515625" lon="-0.9040994010865688323974609375">
        <ele>995.20001220703125</ele>
        <time>2020-08-22T05:56:41.000Z</time>
      </trkpt>
      <trkpt lat="39.8238256014883518218994140625" lon="-0.9039689786732196807861328125">
        <ele>993.79998779296875</ele>
        <time>2020-08-22T05:56:43.000Z</time>
      </trkpt>
      <trkpt lat="39.8240113444626331329345703125" lon="-0.90386378578841686248779296875">
        <ele>992.20001220703125</ele>
        <time>2020-08-22T05:56:45.000Z</time>
      </trkpt>
      <trkpt lat="39.82431937940418720245361328125" lon="-0.903749875724315643310546875">
        <ele>991</ele>
        <time>2020-08-22T05:56:48.000Z</time>
      </trkpt>
      <trkpt lat="39.8247533105313777923583984375" lon="-0.90361920185387134552001953125">
        <ele>989.5999755859375</ele>
        <time>2020-08-22T05:56:52.000Z</time>
      </trkpt>
      <trkpt lat="39.8250802047550678253173828125" lon="-0.90346598066389560699462890625">
        <ele>988.20001220703125</ele>
        <time>2020-08-22T05:56:55.000Z</time>
      </trkpt>
      <trkpt lat="39.82518933713436126708984375" lon="-0.90341091156005859375">
        <ele>987.20001220703125</ele>
        <time>2020-08-22T05:56:56.000Z</time>
      </trkpt>
      <trkpt lat="39.82540399767458438873291015625" lon="-0.9032933972775936126708984375">
        <ele>985.4000244140625</ele>
        <time>2020-08-22T05:56:58.000Z</time>
      </trkpt>
      <trkpt lat="39.8256205022335052490234375" lon="-0.90315266512334346771240234375">
        <ele>983.79998779296875</ele>
        <time>2020-08-22T05:57:00.000Z</time>
      </trkpt>
      <trkpt lat="39.82584387995302677154541015625" lon="-0.9030057303607463836669921875">
        <ele>982.4000244140625</ele>
        <time>2020-08-22T05:57:02.000Z</time>
      </trkpt>
      <trkpt lat="39.8260749690234661102294921875" lon="-0.902898609638214111328125">
        <ele>981</ele>
        <time>2020-08-22T05:57:04.000Z</time>
      </trkpt>
      <trkpt lat="39.82630874030292034149169921875" lon="-0.90283867903053760528564453125">
        <ele>979.79998779296875</ele>
        <time>2020-08-22T05:57:06.000Z</time>
      </trkpt>
      <trkpt lat="39.82652968727052211761474609375" lon="-0.9028914012014865875244140625">
        <ele>978</ele>
        <time>2020-08-22T05:57:08.000Z</time>
      </trkpt>
      <trkpt lat="39.8267173580825328826904296875" lon="-0.90305677615106105804443359375">
        <ele>976.20001220703125</ele>
        <time>2020-08-22T05:57:10.000Z</time>
      </trkpt>
      <trkpt lat="39.826882816851139068603515625" lon="-0.90325878001749515533447265625">
        <ele>973.79998779296875</ele>
        <time>2020-08-22T05:57:12.000Z</time>
      </trkpt>
      <trkpt lat="39.82696990482509136199951171875" lon="-0.9033478796482086181640625">
        <ele>972.79998779296875</ele>
        <time>2020-08-22T05:57:13.000Z</time>
      </trkpt>
      <trkpt lat="39.82706026174128055572509765625" lon="-0.90342474170029163360595703125">
        <ele>972.20001220703125</ele>
        <time>2020-08-22T05:57:14.000Z</time>
      </trkpt>
      <trkpt lat="39.82716335915029048919677734375" lon="-0.90347721241414546966552734375">
        <ele>971.5999755859375</ele>
        <time>2020-08-22T05:57:15.000Z</time>
      </trkpt>
      <trkpt lat="39.82727081514894962310791015625" lon="-0.9035170264542102813720703125">
        <ele>971</ele>
        <time>2020-08-22T05:57:16.000Z</time>
      </trkpt>
      <trkpt lat="39.82749645598232746124267578125" lon="-0.9035488776862621307373046875">
        <ele>970.4000244140625</ele>
        <time>2020-08-22T05:57:18.000Z</time>
      </trkpt>
      <trkpt lat="39.827717654407024383544921875" lon="-0.903530605137348175048828125">
        <ele>969.79998779296875</ele>
        <time>2020-08-22T05:57:20.000Z</time>
      </trkpt>
      <trkpt lat="39.82782184146344661712646484375" lon="-0.903501771390438079833984375">
        <ele>969</ele>
        <time>2020-08-22T05:57:21.000Z</time>
      </trkpt>
      <trkpt lat="39.827924855053424835205078125" lon="-0.9034550003707408905029296875">
        <ele>968.4000244140625</ele>
        <time>2020-08-22T05:57:22.000Z</time>
      </trkpt>
      <trkpt lat="39.82802434824407100677490234375" lon="-0.903398506343364715576171875">
        <ele>967.20001220703125</ele>
        <time>2020-08-22T05:57:23.000Z</time>
      </trkpt>
      <trkpt lat="39.82811939902603626251220703125" lon="-0.9033532440662384033203125">
        <ele>966.5999755859375</ele>
        <time>2020-08-22T05:57:24.000Z</time>
      </trkpt>
      <trkpt lat="39.8282147012650966644287109375" lon="-0.90333321131765842437744140625">
        <ele>965.79998779296875</ele>
        <time>2020-08-22T05:57:25.000Z</time>
      </trkpt>
      <trkpt lat="39.82831771485507488250732421875" lon="-0.90336556546390056610107421875">
        <ele>965.20001220703125</ele>
        <time>2020-08-22T05:57:26.000Z</time>
      </trkpt>
      <trkpt lat="39.82846439816057682037353515625" lon="-0.90349229983985424041748046875">
        <ele>964.5999755859375</ele>
        <time>2020-08-22T05:57:28.000Z</time>
      </trkpt>
      <trkpt lat="39.828517623245716094970703125" lon="-0.90370905585587024688720703125">
        <ele>963.79998779296875</ele>
        <time>2020-08-22T05:57:31.000Z</time>
      </trkpt>
      <trkpt lat="39.82841276563704013824462890625" lon="-0.903861522674560546875">
        <ele>963.5999755859375</ele>
        <time>2020-08-22T05:57:32.000Z</time>
      </trkpt>
      <trkpt lat="39.8283461295068264007568359375" lon="-0.90395078994333744049072265625">
        <ele>963.4000244140625</ele>
        <time>2020-08-22T05:57:33.000Z</time>
      </trkpt>
      <trkpt lat="39.8282797448337078094482421875" lon="-0.90402849018573760986328125">
        <ele>963.20001220703125</ele>
        <time>2020-08-22T05:57:34.000Z</time>
      </trkpt>
      <trkpt lat="39.82788219116628170013427734375" lon="-0.90453785844147205352783203125">
        <ele>962.5999755859375</ele>
        <time>2020-08-22T05:57:41.000Z</time>
      </trkpt>
      <trkpt lat="39.82783793471753597259521484375" lon="-0.90462435968220233917236328125">
        <ele>962.5999755859375</ele>
        <time>2020-08-22T05:57:42.000Z</time>
      </trkpt>
      <trkpt lat="39.82771321199834346771240234375" lon="-0.90491839684545993804931640625">
        <ele>962.20001220703125</ele>
        <time>2020-08-22T05:57:45.000Z</time>
      </trkpt>
      <trkpt lat="39.827570803463459014892578125" lon="-0.90537789277732372283935546875">
        <ele>962</ele>
        <time>2020-08-22T05:57:49.000Z</time>
      </trkpt>
      <trkpt lat="39.827548675239086151123046875" lon="-0.90564125217497348785400390625">
        <ele>961.5999755859375</ele>
        <time>2020-08-22T05:57:51.000Z</time>
      </trkpt>
      <trkpt lat="39.82755328528583049774169921875" lon="-0.905782319605350494384765625">
        <ele>960.79998779296875</ele>
        <time>2020-08-22T05:57:52.000Z</time>
      </trkpt>
      <trkpt lat="39.82757021673023700714111328125" lon="-0.905927829444408416748046875">
        <ele>960.20001220703125</ele>
        <time>2020-08-22T05:57:53.000Z</time>
      </trkpt>
      <trkpt lat="39.8276252858340740203857421875" lon="-0.90622345916926860809326171875">
        <ele>959.20001220703125</ele>
        <time>2020-08-22T05:57:55.000Z</time>
      </trkpt>
      <trkpt lat="39.82767851091921329498291015625" lon="-0.90651682578027248382568359375">
        <ele>958</ele>
        <time>2020-08-22T05:57:57.000Z</time>
      </trkpt>
      <trkpt lat="39.82773249037563800811767578125" lon="-0.9068027324974536895751953125">
        <ele>956.5999755859375</ele>
        <time>2020-08-22T05:57:59.000Z</time>
      </trkpt>
      <trkpt lat="39.82777104713022708892822265625" lon="-0.90694447048008441925048828125">
        <ele>956</ele>
        <time>2020-08-22T05:58:00.000Z</time>
      </trkpt>
      <trkpt lat="39.82781932689249515533447265625" lon="-0.90709023177623748779296875">
        <ele>955.5999755859375</ele>
        <time>2020-08-22T05:58:01.000Z</time>
      </trkpt>
      <trkpt lat="39.8278723843395709991455078125" lon="-0.90722694061696529388427734375">
        <ele>954.4000244140625</ele>
        <time>2020-08-22T05:58:02.000Z</time>
      </trkpt>
      <trkpt lat="39.8279352486133575439453125" lon="-0.90735283680260181427001953125">
        <ele>953</ele>
        <time>2020-08-22T05:58:03.000Z</time>
      </trkpt>
      <trkpt lat="39.8280732147395610809326171875" lon="-0.90757730416953563690185546875">
        <ele>951.5999755859375</ele>
        <time>2020-08-22T05:58:05.000Z</time>
      </trkpt>
      <trkpt lat="39.82822802849113941192626953125" lon="-0.90777528472244739532470703125">
        <ele>950.5999755859375</ele>
        <time>2020-08-22T05:58:07.000Z</time>
      </trkpt>
      <trkpt lat="39.8285821639001369476318359375" lon="-0.90815029107034206390380859375">
        <ele>949.20001220703125</ele>
        <time>2020-08-22T05:58:11.000Z</time>
      </trkpt>
      <trkpt lat="39.82868635095655918121337890625" lon="-0.90822354890406131744384765625">
        <ele>948.79998779296875</ele>
        <time>2020-08-22T05:58:12.000Z</time>
      </trkpt>
      <trkpt lat="39.828894473612308502197265625" lon="-0.90832312591373920440673828125">
        <ele>948.20001220703125</ele>
        <time>2020-08-22T05:58:14.000Z</time>
      </trkpt>
      <trkpt lat="39.82900318689644336700439453125" lon="-0.9083473496139049530029296875">
        <ele>947.5999755859375</ele>
        <time>2020-08-22T05:58:15.000Z</time>
      </trkpt>
      <trkpt lat="39.8293294943869113922119140625" lon="-0.908407866954803466796875">
        <ele>946.4000244140625</ele>
        <time>2020-08-22T05:58:18.000Z</time>
      </trkpt>
      <trkpt lat="39.829547591507434844970703125" lon="-0.90847869403660297393798828125">
        <ele>944.4000244140625</ele>
        <time>2020-08-22T05:58:20.000Z</time>
      </trkpt>
      <trkpt lat="39.829743392765522003173828125" lon="-0.9086092002689838409423828125">
        <ele>942.5999755859375</ele>
        <time>2020-08-22T05:58:22.000Z</time>
      </trkpt>
      <trkpt lat="39.829916395246982574462890625" lon="-0.908774323761463165283203125">
        <ele>941.4000244140625</ele>
        <time>2020-08-22T05:58:24.000Z</time>
      </trkpt>
      <trkpt lat="39.82998604886233806610107421875" lon="-0.90886543504893779754638671875">
        <ele>941.20001220703125</ele>
        <time>2020-08-22T05:58:25.000Z</time>
      </trkpt>
      <trkpt lat="39.8301485739648342132568359375" lon="-0.90916156768798828125">
        <ele>940.4000244140625</ele>
        <time>2020-08-22T05:58:28.000Z</time>
      </trkpt>
      <trkpt lat="39.8304137773811817169189453125" lon="-0.90978710912168025970458984375">
        <ele>940.20001220703125</ele>
        <time>2020-08-22T05:58:35.000Z</time>
      </trkpt>
      <trkpt lat="39.83070119284093379974365234375" lon="-0.9104585833847522735595703125">
        <ele>940.79998779296875</ele>
        <time>2020-08-22T05:58:44.000Z</time>
      </trkpt>
      <trkpt lat="39.83080747537314891815185546875" lon="-0.91061289422214031219482421875">
        <ele>941.4000244140625</ele>
        <time>2020-08-22T05:58:47.000Z</time>
      </trkpt>
      <trkpt lat="39.83099103905260562896728515625" lon="-0.9107990562915802001953125">
        <ele>942.4000244140625</ele>
        <time>2020-08-22T05:58:52.000Z</time>
      </trkpt>
      <trkpt lat="39.8310987465083599090576171875" lon="-0.91087088920176029205322265625">
        <ele>943.5999755859375</ele>
        <time>2020-08-22T05:58:55.000Z</time>
      </trkpt>
      <trkpt lat="39.83129027299582958221435546875" lon="-0.91099360026419162750244140625">
        <ele>944.79998779296875</ele>
        <time>2020-08-22T05:59:01.000Z</time>
      </trkpt>
      <trkpt lat="39.8314517922699451446533203125" lon="-0.91110440902411937713623046875">
        <ele>946</ele>
        <time>2020-08-22T05:59:06.000Z</time>
      </trkpt>
      <trkpt lat="39.83162437565624713897705078125" lon="-0.911213792860507965087890625">
        <ele>947.4000244140625</ele>
        <time>2020-08-22T05:59:12.000Z</time>
      </trkpt>
      <trkpt lat="39.8317359387874603271484375" lon="-0.91129249893128871917724609375">
        <ele>948.5999755859375</ele>
        <time>2020-08-22T05:59:16.000Z</time>
      </trkpt>
      <trkpt lat="39.83187566511332988739013671875" lon="-0.9113906510174274444580078125">
        <ele>949.79998779296875</ele>
        <time>2020-08-22T05:59:21.000Z</time>
      </trkpt>
      <trkpt lat="39.83200189657509326934814453125" lon="-0.91148595325648784637451171875">
        <ele>951</ele>
        <time>2020-08-22T05:59:26.000Z</time>
      </trkpt>
      <trkpt lat="39.83213198371231555938720703125" lon="-0.9115830995142459869384765625">
        <ele>952</ele>
        <time>2020-08-22T05:59:31.000Z</time>
      </trkpt>
      <trkpt lat="39.8322960175573825836181640625" lon="-0.91168192215263843536376953125">
        <ele>953</ele>
        <time>2020-08-22T05:59:37.000Z</time>
      </trkpt>
      <trkpt lat="39.832504726946353912353515625" lon="-0.91184017248451709747314453125">
        <ele>954</ele>
        <time>2020-08-22T05:59:45.000Z</time>
      </trkpt>
      <trkpt lat="39.83273179270327091217041015625" lon="-0.91200060211122035980224609375">
        <ele>955.20001220703125</ele>
        <time>2020-08-22T05:59:54.000Z</time>
      </trkpt>
      <trkpt lat="39.83293111436069011688232421875" lon="-0.91213823296129703521728515625">
        <ele>956.20001220703125</ele>
        <time>2020-08-22T06:00:02.000Z</time>
      </trkpt>
      <trkpt lat="39.83308299444615840911865234375" lon="-0.9122472815215587615966796875">
        <ele>957.20001220703125</ele>
        <time>2020-08-22T06:00:08.000Z</time>
      </trkpt>
      <trkpt lat="39.83323588036000728607177734375" lon="-0.912355072796344757080078125">
        <ele>958.4000244140625</ele>
        <time>2020-08-22T06:00:14.000Z</time>
      </trkpt>
      <trkpt lat="39.83339111320674419403076171875" lon="-0.9124558232724666595458984375">
        <ele>959.4000244140625</ele>
        <time>2020-08-22T06:00:20.000Z</time>
      </trkpt>
      <trkpt lat="39.83361574821174144744873046875" lon="-0.9126191027462482452392578125">
        <ele>960.4000244140625</ele>
        <time>2020-08-22T06:00:29.000Z</time>
      </trkpt>
      <trkpt lat="39.8338128067553043365478515625" lon="-0.91276436112821102142333984375">
        <ele>961.5999755859375</ele>
        <time>2020-08-22T06:00:37.000Z</time>
      </trkpt>
      <trkpt lat="39.8340186662971973419189453125" lon="-0.912918336689472198486328125">
        <ele>962.5999755859375</ele>
        <time>2020-08-22T06:00:45.000Z</time>
      </trkpt>
      <trkpt lat="39.8343284614384174346923828125" lon="-0.91313919983804225921630859375">
        <ele>963.79998779296875</ele>
        <time>2020-08-22T06:00:57.000Z</time>
      </trkpt>
      <trkpt lat="39.83459810726344585418701171875" lon="-0.91333382762968540191650390625">
        <ele>964.79998779296875</ele>
        <time>2020-08-22T06:01:07.000Z</time>
      </trkpt>
      <trkpt lat="39.83498535118997097015380859375" lon="-0.9136017970740795135498046875">
        <ele>965.79998779296875</ele>
        <time>2020-08-22T06:01:19.000Z</time>
      </trkpt>
      <trkpt lat="39.83550536446273326873779296875" lon="-0.913975127041339874267578125">
        <ele>966.4000244140625</ele>
        <time>2020-08-22T06:01:32.000Z</time>
      </trkpt>
      <trkpt lat="39.83602319844067096710205078125" lon="-0.9143363870680332183837890625">
        <ele>966.4000244140625</ele>
        <time>2020-08-22T06:01:41.000Z</time>
      </trkpt>
      <trkpt lat="39.83645017258822917938232421875" lon="-0.91464576311409473419189453125">
        <ele>964.20001220703125</ele>
        <time>2020-08-22T06:01:47.000Z</time>
      </trkpt>
      <trkpt lat="39.83658143319189548492431640625" lon="-0.91474550776183605194091796875">
        <ele>963.20001220703125</ele>
        <time>2020-08-22T06:01:49.000Z</time>
      </trkpt>
      <trkpt lat="39.8370596207678318023681640625" lon="-0.91509260237216949462890625">
        <ele>962.20001220703125</ele>
        <time>2020-08-22T06:01:58.000Z</time>
      </trkpt>
      <trkpt lat="39.83747628517448902130126953125" lon="-0.91538923792541027069091796875">
        <ele>964.20001220703125</ele>
        <time>2020-08-22T06:02:08.000Z</time>
      </trkpt>
      <trkpt lat="39.837684072554111480712890625" lon="-0.91555084101855754852294921875">
        <ele>965.4000244140625</ele>
        <time>2020-08-22T06:02:14.000Z</time>
      </trkpt>
      <trkpt lat="39.83779999427497386932373046875" lon="-0.9156308881938457489013671875">
        <ele>966.5999755859375</ele>
        <time>2020-08-22T06:02:17.000Z</time>
      </trkpt>
      <trkpt lat="39.83797500841319561004638671875" lon="-0.9157589636743068695068359375">
        <ele>967</ele>
        <time>2020-08-22T06:02:21.000Z</time>
      </trkpt>
      <trkpt lat="39.83845361508429050445556640625" lon="-0.91609667055308818817138671875">
        <ele>966.79998779296875</ele>
        <time>2020-08-22T06:02:31.000Z</time>
      </trkpt>
      <trkpt lat="39.8388382606208324432373046875" lon="-0.91638165526092052459716796875">
        <ele>965.5999755859375</ele>
        <time>2020-08-22T06:02:40.000Z</time>
      </trkpt>
      <trkpt lat="39.83915367163717746734619140625" lon="-0.91660327278077602386474609375">
        <ele>964.5999755859375</ele>
        <time>2020-08-22T06:02:48.000Z</time>
      </trkpt>
      <trkpt lat="39.83970117755234241485595703125" lon="-0.91694424860179424285888671875">
        <ele>963.79998779296875</ele>
        <time>2020-08-22T06:02:58.000Z</time>
      </trkpt>
      <trkpt lat="39.83976437710225582122802734375" lon="-0.916981883347034454345703125">
        <ele>963.4000244140625</ele>
        <time>2020-08-22T06:02:59.000Z</time>
      </trkpt>
      <trkpt lat="39.84001499600708484649658203125" lon="-0.9171312488615512847900390625">
        <ele>962.20001220703125</ele>
        <time>2020-08-22T06:03:03.000Z</time>
      </trkpt>
      <trkpt lat="39.84034557826817035675048828125" lon="-0.9173387847840785980224609375">
        <ele>961</ele>
        <time>2020-08-22T06:03:09.000Z</time>
      </trkpt>
      <trkpt lat="39.8408572934567928314208984375" lon="-0.91758764348924160003662109375">
        <ele>960.5999755859375</ele>
        <time>2020-08-22T06:03:20.000Z</time>
      </trkpt>
      <trkpt lat="39.8411835171282291412353515625" lon="-0.91769074089825153350830078125">
        <ele>960.4000244140625</ele>
        <time>2020-08-22T06:03:26.000Z</time>
      </trkpt>
      <trkpt lat="39.8413085751235485076904296875" lon="-0.91767028905451297760009765625">
        <ele>960.20001220703125</ele>
        <time>2020-08-22T06:03:28.000Z</time>
      </trkpt>
      <trkpt lat="39.84137713909149169921875" lon="-0.9176412038505077362060546875">
        <ele>960</ele>
        <time>2020-08-22T06:03:29.000Z</time>
      </trkpt>
      <trkpt lat="39.841449558734893798828125" lon="-0.91759636066854000091552734375">
        <ele>959.79998779296875</ele>
        <time>2020-08-22T06:03:30.000Z</time>
      </trkpt>
      <trkpt lat="39.8417521454393863677978515625" lon="-0.91738932766020298004150390625">
        <ele>959</ele>
        <time>2020-08-22T06:03:34.000Z</time>
      </trkpt>
      <trkpt lat="39.84191718511283397674560546875" lon="-0.9173545427620410919189453125">
        <ele>958.20001220703125</ele>
        <time>2020-08-22T06:03:36.000Z</time>
      </trkpt>
      <trkpt lat="39.84200276434421539306640625" lon="-0.9173535369336605072021484375">
        <ele>957.4000244140625</ele>
        <time>2020-08-22T06:03:37.000Z</time>
      </trkpt>
      <trkpt lat="39.84227090142667293548583984375" lon="-0.91740089468657970428466796875">
        <ele>956.20001220703125</ele>
        <time>2020-08-22T06:03:40.000Z</time>
      </trkpt>
      <trkpt lat="39.84244591556489467620849609375" lon="-0.9174589812755584716796875">
        <ele>954.5999755859375</ele>
        <time>2020-08-22T06:03:42.000Z</time>
      </trkpt>
      <trkpt lat="39.8427066765725612640380859375" lon="-0.91758345253765583038330078125">
        <ele>952.79998779296875</ele>
        <time>2020-08-22T06:03:45.000Z</time>
      </trkpt>
      <trkpt lat="39.84287180006504058837890625" lon="-0.9176683612167835235595703125">
        <ele>951.20001220703125</ele>
        <time>2020-08-22T06:03:47.000Z</time>
      </trkpt>
      <trkpt lat="39.843024350702762603759765625" lon="-0.9177588857710361480712890625">
        <ele>949.79998779296875</ele>
        <time>2020-08-22T06:03:49.000Z</time>
      </trkpt>
      <trkpt lat="39.84315670095384120941162109375" lon="-0.917899198830127716064453125">
        <ele>949</ele>
        <time>2020-08-22T06:03:51.000Z</time>
      </trkpt>
      <trkpt lat="39.8432458005845546722412109375" lon="-0.9180884622037410736083984375">
        <ele>947.79998779296875</ele>
        <time>2020-08-22T06:03:53.000Z</time>
      </trkpt>
      <trkpt lat="39.8432521708309650421142578125" lon="-0.91830060817301273345947265625">
        <ele>947</ele>
        <time>2020-08-22T06:03:55.000Z</time>
      </trkpt>
      <trkpt lat="39.84323398210108280181884765625" lon="-0.9184046275913715362548828125">
        <ele>946.5999755859375</ele>
        <time>2020-08-22T06:03:56.000Z</time>
      </trkpt>
      <trkpt lat="39.84319408424198627471923828125" lon="-0.91859556734561920166015625">
        <ele>945.20001220703125</ele>
        <time>2020-08-22T06:03:58.000Z</time>
      </trkpt>
      <trkpt lat="39.84316659159958362579345703125" lon="-0.91883151791989803314208984375">
        <ele>944.4000244140625</ele>
        <time>2020-08-22T06:04:01.000Z</time>
      </trkpt>
      <trkpt lat="39.8431807570159435272216796875" lon="-0.9189784526824951171875">
        <ele>944.20001220703125</ele>
        <time>2020-08-22T06:04:03.000Z</time>
      </trkpt>
      <trkpt lat="39.8432300426065921783447265625" lon="-0.91912890784442424774169921875">
        <ele>944.20001220703125</ele>
        <time>2020-08-22T06:04:05.000Z</time>
      </trkpt>
      <trkpt lat="39.84331302344799041748046875" lon="-0.91925966553390026092529296875">
        <ele>944.20001220703125</ele>
        <time>2020-08-22T06:04:07.000Z</time>
      </trkpt>
      <trkpt lat="39.8434573598206043243408203125" lon="-0.919393189251422882080078125">
        <ele>944</ele>
        <time>2020-08-22T06:04:10.000Z</time>
      </trkpt>
      <trkpt lat="39.84394208528101444244384765625" lon="-0.919611118733882904052734375">
        <ele>945.4000244140625</ele>
        <time>2020-08-22T06:04:21.000Z</time>
      </trkpt>
      <trkpt lat="39.844136796891689300537109375" lon="-0.9196702949702739715576171875">
        <ele>946.4000244140625</ele>
        <time>2020-08-22T06:04:26.000Z</time>
      </trkpt>
      <trkpt lat="39.84440476633608341217041015625" lon="-0.91972553171217441558837890625">
        <ele>947.5999755859375</ele>
        <time>2020-08-22T06:04:34.000Z</time>
      </trkpt>
      <trkpt lat="39.84462001360952854156494140625" lon="-0.91977213509380817413330078125">
        <ele>948.79998779296875</ele>
        <time>2020-08-22T06:04:41.000Z</time>
      </trkpt>
      <trkpt lat="39.84476745128631591796875" lon="-0.91977632604539394378662109375">
        <ele>950</ele>
        <time>2020-08-22T06:04:45.000Z</time>
      </trkpt>
      <trkpt lat="39.84492276795208454132080078125" lon="-0.91979292221367359161376953125">
        <ele>951.20001220703125</ele>
        <time>2020-08-22T06:04:50.000Z</time>
      </trkpt>
      <trkpt lat="39.84503860585391521453857421875" lon="-0.91982946731150150299072265625">
        <ele>952.20001220703125</ele>
        <time>2020-08-22T06:04:54.000Z</time>
      </trkpt>
      <trkpt lat="39.84520741738379001617431640625" lon="-0.91991177760064601898193359375">
        <ele>953.4000244140625</ele>
        <time>2020-08-22T06:05:00.000Z</time>
      </trkpt>
      <trkpt lat="39.84547077678143978118896484375" lon="-0.919920913875102996826171875">
        <ele>954.4000244140625</ele>
        <time>2020-08-22T06:05:08.000Z</time>
      </trkpt>
      <trkpt lat="39.8457268439233303070068359375" lon="-0.919792167842388153076171875">
        <ele>954.79998779296875</ele>
        <time>2020-08-22T06:05:15.000Z</time>
      </trkpt>
      <trkpt lat="39.8461945541203022003173828125" lon="-0.91941473074257373809814453125">
        <ele>954</ele>
        <time>2020-08-22T06:05:25.000Z</time>
      </trkpt>
      <trkpt lat="39.8463705740869045257568359375" lon="-0.9193350188434123992919921875">
        <ele>953.20001220703125</ele>
        <time>2020-08-22T06:05:28.000Z</time>
      </trkpt>
      <trkpt lat="39.8465844802558422088623046875" lon="-0.919285230338573455810546875">
        <ele>952</ele>
        <time>2020-08-22T06:05:32.000Z</time>
      </trkpt>
      <trkpt lat="39.84711832366883754730224609375" lon="-0.9191301651298999786376953125">
        <ele>952.4000244140625</ele>
        <time>2020-08-22T06:05:46.000Z</time>
      </trkpt>
      <trkpt lat="39.84723449684679508209228515625" lon="-0.91908775269985198974609375">
        <ele>953.20001220703125</ele>
        <time>2020-08-22T06:05:50.000Z</time>
      </trkpt>
      <trkpt lat="39.847401715815067291259765625" lon="-0.9190208651125431060791015625">
        <ele>954.20001220703125</ele>
        <time>2020-08-22T06:05:56.000Z</time>
      </trkpt>
      <trkpt lat="39.8475768975913524627685546875" lon="-0.918949954211711883544921875">
        <ele>955.20001220703125</ele>
        <time>2020-08-22T06:06:02.000Z</time>
      </trkpt>
      <trkpt lat="39.84774445183575153350830078125" lon="-0.9188750199973583221435546875">
        <ele>956.4000244140625</ele>
        <time>2020-08-22T06:06:07.000Z</time>
      </trkpt>
      <trkpt lat="39.8479859344661235809326171875" lon="-0.918819867074489593505859375">
        <ele>957.4000244140625</ele>
        <time>2020-08-22T06:06:15.000Z</time>
      </trkpt>
      <trkpt lat="39.8481961525976657867431640625" lon="-0.918774269521236419677734375">
        <ele>958.4000244140625</ele>
        <time>2020-08-22T06:06:22.000Z</time>
      </trkpt>
      <trkpt lat="39.84839270822703838348388671875" lon="-0.91871785931289196014404296875">
        <ele>959.5999755859375</ele>
        <time>2020-08-22T06:06:29.000Z</time>
      </trkpt>
      <trkpt lat="39.8485461808741092681884765625" lon="-0.918632782995700836181640625">
        <ele>960.79998779296875</ele>
        <time>2020-08-22T06:06:35.000Z</time>
      </trkpt>
      <trkpt lat="39.8487681336700916290283203125" lon="-0.918540917336940765380859375">
        <ele>961.79998779296875</ele>
        <time>2020-08-22T06:06:43.000Z</time>
      </trkpt>
      <trkpt lat="39.84930985607206821441650390625" lon="-0.91838509775698184967041015625">
        <ele>961.4000244140625</ele>
        <time>2020-08-22T06:06:58.000Z</time>
      </trkpt>
      <trkpt lat="39.84960615634918212890625" lon="-0.91831770725548267364501953125">
        <ele>961</ele>
        <time>2020-08-22T06:07:05.000Z</time>
      </trkpt>
      <trkpt lat="39.849686957895755767822265625" lon="-0.91832977719604969024658203125">
        <ele>960.79998779296875</ele>
        <time>2020-08-22T06:07:07.000Z</time>
      </trkpt>
      <trkpt lat="39.849731884896755218505859375" lon="-0.91833882965147495269775390625">
        <ele>960.79998779296875</ele>
        <time>2020-08-22T06:07:08.000Z</time>
      </trkpt>
      <trkpt lat="39.849869348108768463134765625" lon="-0.91838777996599674224853515625">
        <ele>960.5999755859375</ele>
        <time>2020-08-22T06:07:11.000Z</time>
      </trkpt>
      <trkpt lat="39.85000857152044773101806640625" lon="-0.91847847215831279754638671875">
        <ele>960.20001220703125</ele>
        <time>2020-08-22T06:07:14.000Z</time>
      </trkpt>
      <trkpt lat="39.8500780574977397918701171875" lon="-0.91857637278735637664794921875">
        <ele>960</ele>
        <time>2020-08-22T06:07:16.000Z</time>
      </trkpt>
      <trkpt lat="39.85015810467302799224853515625" lon="-0.9187865070998668670654296875">
        <ele>959.5999755859375</ele>
        <time>2020-08-22T06:07:20.000Z</time>
      </trkpt>
      <trkpt lat="39.85036748461425304412841796875" lon="-0.91945379041135311126708984375">
        <ele>959.79998779296875</ele>
        <time>2020-08-22T06:07:34.000Z</time>
      </trkpt>
      <trkpt lat="39.85061491839587688446044921875" lon="-0.92012434266507625579833984375">
        <ele>960</ele>
        <time>2020-08-22T06:07:48.000Z</time>
      </trkpt>
      <trkpt lat="39.8507777787744998931884765625" lon="-0.92057696543633937835693359375">
        <ele>960.79998779296875</ele>
        <time>2020-08-22T06:08:00.000Z</time>
      </trkpt>
      <trkpt lat="39.85094927251338958740234375" lon="-0.92079606838524341583251953125">
        <ele>961.79998779296875</ele>
        <time>2020-08-22T06:08:09.000Z</time>
      </trkpt>
      <trkpt lat="39.8511524498462677001953125" lon="-0.92086203396320343017578125">
        <ele>963.20001220703125</ele>
        <time>2020-08-22T06:08:17.000Z</time>
      </trkpt>
      <trkpt lat="39.85128899104893207550048828125" lon="-0.9208672307431697845458984375">
        <ele>964.20001220703125</ele>
        <time>2020-08-22T06:08:23.000Z</time>
      </trkpt>
      <trkpt lat="39.8514617420732975006103515625" lon="-0.92086195014417171478271484375">
        <ele>965.20001220703125</ele>
        <time>2020-08-22T06:08:31.000Z</time>
      </trkpt>
      <trkpt lat="39.85174898989498615264892578125" lon="-0.9208466112613677978515625">
        <ele>966.20001220703125</ele>
        <time>2020-08-22T06:08:44.000Z</time>
      </trkpt>
      <trkpt lat="39.85185912810266017913818359375" lon="-0.920839570462703704833984375">
        <ele>967.4000244140625</ele>
        <time>2020-08-22T06:08:49.000Z</time>
      </trkpt>
      <trkpt lat="39.85204285942018032073974609375" lon="-0.9207720123231410980224609375">
        <ele>968.4000244140625</ele>
        <time>2020-08-22T06:08:56.000Z</time>
      </trkpt>
      <trkpt lat="39.85225257463753223419189453125" lon="-0.9206293523311614990234375">
        <ele>969.5999755859375</ele>
        <time>2020-08-22T06:09:06.000Z</time>
      </trkpt>
      <trkpt lat="39.85238836146891117095947265625" lon="-0.92042106203734874725341796875">
        <ele>970.79998779296875</ele>
        <time>2020-08-22T06:09:16.000Z</time>
      </trkpt>
      <trkpt lat="39.85247670672833919525146484375" lon="-0.92028527520596981048583984375">
        <ele>972</ele>
        <time>2020-08-22T06:09:23.000Z</time>
      </trkpt>
      <trkpt lat="39.8525919578969478607177734375" lon="-0.920126773416996002197265625">
        <ele>973.20001220703125</ele>
        <time>2020-08-22T06:09:32.000Z</time>
      </trkpt>
      <trkpt lat="39.85268709249794483184814453125" lon="-0.91999844647943973541259765625">
        <ele>974.4000244140625</ele>
        <time>2020-08-22T06:09:39.000Z</time>
      </trkpt>
      <trkpt lat="39.852783568203449249267578125" lon="-0.91987724415957927703857421875">
        <ele>975.4000244140625</ele>
        <time>2020-08-22T06:09:46.000Z</time>
      </trkpt>
      <trkpt lat="39.85287241637706756591796875" lon="-0.919778756797313690185546875">
        <ele>976.5999755859375</ele>
        <time>2020-08-22T06:09:52.000Z</time>
      </trkpt>
      <trkpt lat="39.85296587459743022918701171875" lon="-0.91962360776960849761962890625">
        <ele>977.5999755859375</ele>
        <time>2020-08-22T06:10:00.000Z</time>
      </trkpt>
      <trkpt lat="39.85303142108023166656494140625" lon="-0.91947793029248714447021484375">
        <ele>978.5999755859375</ele>
        <time>2020-08-22T06:10:06.000Z</time>
      </trkpt>
      <trkpt lat="39.85308791510760784149169921875" lon="-0.9193085320293903350830078125">
        <ele>979.5999755859375</ele>
        <time>2020-08-22T06:10:13.000Z</time>
      </trkpt>
      <trkpt lat="39.8532792739570140838623046875" lon="-0.91899328865110874176025390625">
        <ele>980.79998779296875</ele>
        <time>2020-08-22T06:10:28.000Z</time>
      </trkpt>
      <trkpt lat="39.85338597558438777923583984375" lon="-0.9188944660127162933349609375">
        <ele>981.79998779296875</ele>
        <time>2020-08-22T06:10:35.000Z</time>
      </trkpt>
      <trkpt lat="39.85349795781075954437255859375" lon="-0.91879966668784618377685546875">
        <ele>982.79998779296875</ele>
        <time>2020-08-22T06:10:41.000Z</time>
      </trkpt>
      <trkpt lat="39.85371722839772701263427734375" lon="-0.91862750239670276641845703125">
        <ele>983.79998779296875</ele>
        <time>2020-08-22T06:10:51.000Z</time>
      </trkpt>
      <trkpt lat="39.85401763580739498138427734375" lon="-0.91832927428185939788818359375">
        <ele>984.79998779296875</ele>
        <time>2020-08-22T06:11:05.000Z</time>
      </trkpt>
      <trkpt lat="39.8544983379542827606201171875" lon="-0.91799634508788585662841796875">
        <ele>985.79998779296875</ele>
        <time>2020-08-22T06:11:25.000Z</time>
      </trkpt>
      <trkpt lat="39.85463622026145458221435546875" lon="-0.91793063096702098846435546875">
        <ele>987</ele>
        <time>2020-08-22T06:11:31.000Z</time>
      </trkpt>
      <trkpt lat="39.85483956523239612579345703125" lon="-0.91783918440341949462890625">
        <ele>988.20001220703125</ele>
        <time>2020-08-22T06:11:40.000Z</time>
      </trkpt>
      <trkpt lat="39.8549757711589336395263671875" lon="-0.91779484413564205169677734375">
        <ele>989.4000244140625</ele>
        <time>2020-08-22T06:11:46.000Z</time>
      </trkpt>
      <trkpt lat="39.85510895960032939910888671875" lon="-0.917720831930637359619140625">
        <ele>990.4000244140625</ele>
        <time>2020-08-22T06:11:52.000Z</time>
      </trkpt>
      <trkpt lat="39.85526167787611484527587890625" lon="-0.91762837953865528106689453125">
        <ele>991.5999755859375</ele>
        <time>2020-08-22T06:11:59.000Z</time>
      </trkpt>
      <trkpt lat="39.85549561679363250732421875" lon="-0.91749309562146663665771484375">
        <ele>992.5999755859375</ele>
        <time>2020-08-22T06:12:10.000Z</time>
      </trkpt>
      <trkpt lat="39.85565613023936748504638671875" lon="-0.91742956079542636871337890625">
        <ele>993.79998779296875</ele>
        <time>2020-08-22T06:12:17.000Z</time>
      </trkpt>
      <trkpt lat="39.8558890633285045623779296875" lon="-0.9173454903066158294677734375">
        <ele>994.79998779296875</ele>
        <time>2020-08-22T06:12:27.000Z</time>
      </trkpt>
      <trkpt lat="39.85605217516422271728515625" lon="-0.917272232472896575927734375">
        <ele>995.79998779296875</ele>
        <time>2020-08-22T06:12:35.000Z</time>
      </trkpt>
      <trkpt lat="39.8561981879174709320068359375" lon="-0.91721448116004467010498046875">
        <ele>996.79998779296875</ele>
        <time>2020-08-22T06:12:42.000Z</time>
      </trkpt>
      <trkpt lat="39.8565249145030975341796875" lon="-0.917200483381748199462890625">
        <ele>998</ele>
        <time>2020-08-22T06:12:56.000Z</time>
      </trkpt>
      <trkpt lat="39.85665089450776576995849609375" lon="-0.9172207675874233245849609375">
        <ele>999</ele>
        <time>2020-08-22T06:13:02.000Z</time>
      </trkpt>
      <trkpt lat="39.85684049315750598907470703125" lon="-0.91719285584986209869384765625">
        <ele>1000.20001220703125</ele>
        <time>2020-08-22T06:13:11.000Z</time>
      </trkpt>
      <trkpt lat="39.8571041040122509002685546875" lon="-0.91709311120212078094482421875">
        <ele>1001.20001220703125</ele>
        <time>2020-08-22T06:13:23.000Z</time>
      </trkpt>
      <trkpt lat="39.8573190160095691680908203125" lon="-0.916953049600124359130859375">
        <ele>1002.4000244140625</ele>
        <time>2020-08-22T06:13:33.000Z</time>
      </trkpt>
      <trkpt lat="39.8575604148209095001220703125" lon="-0.9167896024882793426513671875">
        <ele>1003.4000244140625</ele>
        <time>2020-08-22T06:13:44.000Z</time>
      </trkpt>
      <trkpt lat="39.857793264091014862060546875" lon="-0.916582904756069183349609375">
        <ele>1004.4000244140625</ele>
        <time>2020-08-22T06:13:56.000Z</time>
      </trkpt>
      <trkpt lat="39.85792947001755237579345703125" lon="-0.91644988395273685455322265625">
        <ele>1005.5999755859375</ele>
        <time>2020-08-22T06:14:03.000Z</time>
      </trkpt>
      <trkpt lat="39.85807363875210285186767578125" lon="-0.91633471660315990447998046875">
        <ele>1006.5999755859375</ele>
        <time>2020-08-22T06:14:10.000Z</time>
      </trkpt>
      <trkpt lat="39.85820590518414974212646484375" lon="-0.9162518195807933807373046875">
        <ele>1007.79998779296875</ele>
        <time>2020-08-22T06:14:16.000Z</time>
      </trkpt>
      <trkpt lat="39.85838376916944980621337890625" lon="-0.9161542542278766632080078125">
        <ele>1008.79998779296875</ele>
        <time>2020-08-22T06:14:24.000Z</time>
      </trkpt>
      <trkpt lat="39.858541600406169891357421875" lon="-0.91600949876010417938232421875">
        <ele>1009.79998779296875</ele>
        <time>2020-08-22T06:14:32.000Z</time>
      </trkpt>
      <trkpt lat="39.85865886323153972625732421875" lon="-0.91573021374642848968505859375">
        <ele>1011</ele>
        <time>2020-08-22T06:14:43.000Z</time>
      </trkpt>
      <trkpt lat="39.8587211407721042633056640625" lon="-0.91538705863058567047119140625">
        <ele>1012</ele>
        <time>2020-08-22T06:14:54.000Z</time>
      </trkpt>
      <trkpt lat="39.8588046245276927947998046875" lon="-0.91512587852776050567626953125">
        <ele>1013</ele>
        <time>2020-08-22T06:15:03.000Z</time>
      </trkpt>
      <trkpt lat="39.85897234641015529632568359375" lon="-0.91482865624129772186279296875">
        <ele>1014</ele>
        <time>2020-08-22T06:15:15.000Z</time>
      </trkpt>
      <trkpt lat="39.85913428477942943572998046875" lon="-0.914577953517436981201171875">
        <ele>1015.20001220703125</ele>
        <time>2020-08-22T06:15:26.000Z</time>
      </trkpt>
      <trkpt lat="39.85924760811030864715576171875" lon="-0.9143880195915699005126953125">
        <ele>1016.20001220703125</ele>
        <time>2020-08-22T06:15:34.000Z</time>
      </trkpt>
      <trkpt lat="39.8593621887266635894775390625" lon="-0.914149470627307891845703125">
        <ele>1017.4000244140625</ele>
        <time>2020-08-22T06:15:43.000Z</time>
      </trkpt>
      <trkpt lat="39.8595026694238185882568359375" lon="-0.91385954059660434722900390625">
        <ele>1018.4000244140625</ele>
        <time>2020-08-22T06:15:54.000Z</time>
      </trkpt>
      <trkpt lat="39.85967609100043773651123046875" lon="-0.913500376045703887939453125">
        <ele>1019.5999755859375</ele>
        <time>2020-08-22T06:16:08.000Z</time>
      </trkpt>
      <trkpt lat="39.85986870713531970977783203125" lon="-0.91288992203772068023681640625">
        <ele>1020.5999755859375</ele>
        <time>2020-08-22T06:16:28.000Z</time>
      </trkpt>
      <trkpt lat="39.86014732159674167633056640625" lon="-0.9125034324824810028076171875">
        <ele>1021.5999755859375</ele>
        <time>2020-08-22T06:16:44.000Z</time>
      </trkpt>
      <trkpt lat="39.860643781721591949462890625" lon="-0.91269529424607753753662109375">
        <ele>1021.79998779296875</ele>
        <time>2020-08-22T06:17:01.000Z</time>
      </trkpt>
      <trkpt lat="39.8609342984855175018310546875" lon="-0.913192592561244964599609375">
        <ele>1020.5999755859375</ele>
        <time>2020-08-22T06:17:13.000Z</time>
      </trkpt>
      <trkpt lat="39.8610332049429416656494140625" lon="-0.913464836776256561279296875">
        <ele>1019.5999755859375</ele>
        <time>2020-08-22T06:17:18.000Z</time>
      </trkpt>
      <trkpt lat="39.86106522381305694580078125" lon="-0.91351856477558612823486328125">
        <ele>1019.4000244140625</ele>
        <time>2020-08-22T06:17:19.000Z</time>
      </trkpt>
      <trkpt lat="39.8611069656908512115478515625" lon="-0.913570113480091094970703125">
        <ele>1019.4000244140625</ele>
        <time>2020-08-22T06:17:20.000Z</time>
      </trkpt>
      <trkpt lat="39.8614633642137050628662109375" lon="-0.913884602487087249755859375">
        <ele>1018.79998779296875</ele>
        <time>2020-08-22T06:17:26.000Z</time>
      </trkpt>
      <trkpt lat="39.861607365310192108154296875" lon="-0.913955010473728179931640625">
        <ele>1018</ele>
        <time>2020-08-22T06:17:28.000Z</time>
      </trkpt>
      <trkpt lat="39.8618506081402301788330078125" lon="-0.914007984101772308349609375">
        <ele>1016.5999755859375</ele>
        <time>2020-08-22T06:17:31.000Z</time>
      </trkpt>
      <trkpt lat="39.86202084459364414215087890625" lon="-0.9140098281204700469970703125">
        <ele>1015.4000244140625</ele>
        <time>2020-08-22T06:17:33.000Z</time>
      </trkpt>
      <trkpt lat="39.86210717819631099700927734375" lon="-0.9140054695308208465576171875">
        <ele>1013.79998779296875</ele>
        <time>2020-08-22T06:17:34.000Z</time>
      </trkpt>
      <trkpt lat="39.862375818192958831787109375" lon="-0.913985855877399444580078125">
        <ele>1012.20001220703125</ele>
        <time>2020-08-22T06:17:37.000Z</time>
      </trkpt>
      <trkpt lat="39.86254856921732425689697265625" lon="-0.9139672480523586273193359375">
        <ele>1011</ele>
        <time>2020-08-22T06:17:39.000Z</time>
      </trkpt>
      <trkpt lat="39.86279717646539211273193359375" lon="-0.91395266354084014892578125">
        <ele>1009.79998779296875</ele>
        <time>2020-08-22T06:17:42.000Z</time>
      </trkpt>
      <trkpt lat="39.8629429377615451812744140625" lon="-0.9139239974319934844970703125">
        <ele>1009.4000244140625</ele>
        <time>2020-08-22T06:17:44.000Z</time>
      </trkpt>
      <trkpt lat="39.8630633018910884857177734375" lon="-0.9138475544750690460205078125">
        <ele>1009.4000244140625</ele>
        <time>2020-08-22T06:17:46.000Z</time>
      </trkpt>
      <trkpt lat="39.8631672374904155731201171875" lon="-0.91375443153083324432373046875">
        <ele>1009.4000244140625</ele>
        <time>2020-08-22T06:17:48.000Z</time>
      </trkpt>
      <trkpt lat="39.8634584248065948486328125" lon="-0.91336903162300586700439453125">
        <ele>1011</ele>
        <time>2020-08-22T06:17:59.000Z</time>
      </trkpt>
      <trkpt lat="39.86351433210074901580810546875" lon="-0.9132809378206729888916015625">
        <ele>1012.20001220703125</ele>
        <time>2020-08-22T06:18:02.000Z</time>
      </trkpt>
      <trkpt lat="39.86363184638321399688720703125" lon="-0.9130816161632537841796875">
        <ele>1013.4000244140625</ele>
        <time>2020-08-22T06:18:09.000Z</time>
      </trkpt>
      <trkpt lat="39.8637170903384685516357421875" lon="-0.912966616451740264892578125">
        <ele>1014.4000244140625</ele>
        <time>2020-08-22T06:18:14.000Z</time>
      </trkpt>
      <trkpt lat="39.86381943337619304656982421875" lon="-0.9128299914300441741943359375">
        <ele>1015.5999755859375</ele>
        <time>2020-08-22T06:18:20.000Z</time>
      </trkpt>
      <trkpt lat="39.86388020217418670654296875" lon="-0.91274206526577472686767578125">
        <ele>1016.79998779296875</ele>
        <time>2020-08-22T06:18:24.000Z</time>
      </trkpt>
      <trkpt lat="39.86395522020757198333740234375" lon="-0.91263326816260814666748046875">
        <ele>1017.79998779296875</ele>
        <time>2020-08-22T06:18:29.000Z</time>
      </trkpt>
      <trkpt lat="39.86403987742960453033447265625" lon="-0.9124900214374065399169921875">
        <ele>1018.79998779296875</ele>
        <time>2020-08-22T06:18:35.000Z</time>
      </trkpt>
      <trkpt lat="39.8641584813594818115234375" lon="-0.912322215735912322998046875">
        <ele>1020</ele>
        <time>2020-08-22T06:18:43.000Z</time>
      </trkpt>
      <trkpt lat="39.86422897316515445709228515625" lon="-0.912247113883495330810546875">
        <ele>1021.20001220703125</ele>
        <time>2020-08-22T06:18:47.000Z</time>
      </trkpt>
      <trkpt lat="39.864330478012561798095703125" lon="-0.91214217245578765869140625">
        <ele>1022.20001220703125</ele>
        <time>2020-08-22T06:18:53.000Z</time>
      </trkpt>
      <trkpt lat="39.86444539390504360198974609375" lon="-0.91202876530587673187255859375">
        <ele>1023.4000244140625</ele>
        <time>2020-08-22T06:19:00.000Z</time>
      </trkpt>
      <trkpt lat="39.86455268226563930511474609375" lon="-0.91194896958768367767333984375">
        <ele>1024.4000244140625</ele>
        <time>2020-08-22T06:19:06.000Z</time>
      </trkpt>
      <trkpt lat="39.86467237584292888641357421875" lon="-0.911895073950290679931640625">
        <ele>1025.5999755859375</ele>
        <time>2020-08-22T06:19:12.000Z</time>
      </trkpt>
      <trkpt lat="39.8648516647517681121826171875" lon="-0.91184084303677082061767578125">
        <ele>1026.5999755859375</ele>
        <time>2020-08-22T06:19:21.000Z</time>
      </trkpt>
      <trkpt lat="39.8650382459163665771484375" lon="-0.91179206036031246185302734375">
        <ele>1027.5999755859375</ele>
        <time>2020-08-22T06:19:30.000Z</time>
      </trkpt>
      <trkpt lat="39.8652335442602634429931640625" lon="-0.91167370788753032684326171875">
        <ele>1028.800048828125</ele>
        <time>2020-08-22T06:19:40.000Z</time>
      </trkpt>
      <trkpt lat="39.86557158641517162322998046875" lon="-0.9111217595636844635009765625">
        <ele>1028.5999755859375</ele>
        <time>2020-08-22T06:19:57.000Z</time>
      </trkpt>
      <trkpt lat="39.86577711068093776702880859375" lon="-0.91067274101078510284423828125">
        <ele>1027.4000244140625</ele>
        <time>2020-08-22T06:20:05.000Z</time>
      </trkpt>
      <trkpt lat="39.86590485088527202606201171875" lon="-0.910529159009456634521484375">
        <ele>1027</ele>
        <time>2020-08-22T06:20:08.000Z</time>
      </trkpt>
      <trkpt lat="39.866010211408138275146484375" lon="-0.9104535542428493499755859375">
        <ele>1026.5999755859375</ele>
        <time>2020-08-22T06:20:10.000Z</time>
      </trkpt>
      <trkpt lat="39.86607081256806850433349609375" lon="-0.91042513959109783172607421875">
        <ele>1026.199951171875</ele>
        <time>2020-08-22T06:20:11.000Z</time>
      </trkpt>
      <trkpt lat="39.866279102861881256103515625" lon="-0.91036814264953136444091796875">
        <ele>1025</ele>
        <time>2020-08-22T06:20:14.000Z</time>
      </trkpt>
      <trkpt lat="39.86652611754834651947021484375" lon="-0.9103512950241565704345703125">
        <ele>1023.79998779296875</ele>
        <time>2020-08-22T06:20:17.000Z</time>
      </trkpt>
      <trkpt lat="39.8667801730334758758544921875" lon="-0.9103325195610523223876953125">
        <ele>1023.20001220703125</ele>
        <time>2020-08-22T06:20:20.000Z</time>
      </trkpt>
      <trkpt lat="39.8668646626174449920654296875" lon="-0.910307876765727996826171875">
        <ele>1022.5999755859375</ele>
        <time>2020-08-22T06:20:21.000Z</time>
      </trkpt>
      <trkpt lat="39.8671050556004047393798828125" lon="-0.9102148376405239105224609375">
        <ele>1021</ele>
        <time>2020-08-22T06:20:24.000Z</time>
      </trkpt>
      <trkpt lat="39.867250062525272369384765625" lon="-0.91015624813735485076904296875">
        <ele>1019.20001220703125</ele>
        <time>2020-08-22T06:20:26.000Z</time>
      </trkpt>
      <trkpt lat="39.8678188584744930267333984375" lon="-0.91006815433502197265625">
        <ele>1018.4000244140625</ele>
        <time>2020-08-22T06:20:36.000Z</time>
      </trkpt>
      <trkpt lat="39.86817014403641223907470703125" lon="-0.9100306034088134765625">
        <ele>1020.5999755859375</ele>
        <time>2020-08-22T06:20:45.000Z</time>
      </trkpt>
      <trkpt lat="39.868311546742916107177734375" lon="-0.91001124121248722076416015625">
        <ele>1021.79998779296875</ele>
        <time>2020-08-22T06:20:49.000Z</time>
      </trkpt>
      <trkpt lat="39.868542887270450592041015625" lon="-0.90998559258878231048583984375">
        <ele>1022.79998779296875</ele>
        <time>2020-08-22T06:20:56.000Z</time>
      </trkpt>
      <trkpt lat="39.86886366270482540130615234375" lon="-0.91004158370196819305419921875">
        <ele>1024</ele>
        <time>2020-08-22T06:21:06.000Z</time>
      </trkpt>
      <trkpt lat="39.86908041872084140777587890625" lon="-0.91021525673568248748779296875">
        <ele>1025</ele>
        <time>2020-08-22T06:21:13.000Z</time>
      </trkpt>
      <trkpt lat="39.8694489710032939910888671875" lon="-0.910733006894588470458984375">
        <ele>1026</ele>
        <time>2020-08-22T06:21:29.000Z</time>
      </trkpt>
      <trkpt lat="39.86989513970911502838134765625" lon="-0.91096200048923492431640625">
        <ele>1027.199951171875</ele>
        <time>2020-08-22T06:21:43.000Z</time>
      </trkpt>
      <trkpt lat="39.87024114467203617095947265625" lon="-0.91114983893930912017822265625">
        <ele>1028.199951171875</ele>
        <time>2020-08-22T06:21:54.000Z</time>
      </trkpt>
      <trkpt lat="39.87056602723896503448486328125" lon="-0.9114265255630016326904296875">
        <ele>1029.199951171875</ele>
        <time>2020-08-22T06:22:06.000Z</time>
      </trkpt>
      <trkpt lat="39.87077389843761920928955078125" lon="-0.91174009256064891815185546875">
        <ele>1030.199951171875</ele>
        <time>2020-08-22T06:22:15.000Z</time>
      </trkpt>
      <trkpt lat="39.8712396807968616485595703125" lon="-0.91214359737932682037353515625">
        <ele>1031</ele>
        <time>2020-08-22T06:22:31.000Z</time>
      </trkpt>
      <trkpt lat="39.87133917398750782012939453125" lon="-0.91220319271087646484375">
        <ele>1031.4000244140625</ele>
        <time>2020-08-22T06:22:34.000Z</time>
      </trkpt>
      <trkpt lat="39.871835969388484954833984375" lon="-0.91255364008247852325439453125">
        <ele>1032.4000244140625</ele>
        <time>2020-08-22T06:22:50.000Z</time>
      </trkpt>
      <trkpt lat="39.871905036270618438720703125" lon="-0.9125828929245471954345703125">
        <ele>1032.4000244140625</ele>
        <time>2020-08-22T06:22:52.000Z</time>
      </trkpt>
      <trkpt lat="39.8721901886165142059326171875" lon="-0.91259806416928768157958984375">
        <ele>1033.4000244140625</ele>
        <time>2020-08-22T06:23:01.000Z</time>
      </trkpt>
      <trkpt lat="39.872343577444553375244140625" lon="-0.912548862397670745849609375">
        <ele>1034.5999755859375</ele>
        <time>2020-08-22T06:23:07.000Z</time>
      </trkpt>
      <trkpt lat="39.87245145253837108612060546875" lon="-0.9125560708343982696533203125">
        <ele>1035.800048828125</ele>
        <time>2020-08-22T06:23:11.000Z</time>
      </trkpt>
      <trkpt lat="39.87261372618377208709716796875" lon="-0.91260217130184173583984375">
        <ele>1037</ele>
        <time>2020-08-22T06:23:17.000Z</time>
      </trkpt>
      <trkpt lat="39.8728801868855953216552734375" lon="-0.91273519210517406463623046875">
        <ele>1038.199951171875</ele>
        <time>2020-08-22T06:23:27.000Z</time>
      </trkpt>
      <trkpt lat="39.87300583161413669586181640625" lon="-0.912823788821697235107421875">
        <ele>1039.199951171875</ele>
        <time>2020-08-22T06:23:32.000Z</time>
      </trkpt>
      <trkpt lat="39.8731936700642108917236328125" lon="-0.9130013175308704376220703125">
        <ele>1040.199951171875</ele>
        <time>2020-08-22T06:23:40.000Z</time>
      </trkpt>
      <trkpt lat="39.8733799159526824951171875" lon="-0.91317842714488506317138671875">
        <ele>1041.4000244140625</ele>
        <time>2020-08-22T06:23:48.000Z</time>
      </trkpt>
      <trkpt lat="39.87360052764415740966796875" lon="-0.91340524144470691680908203125">
        <ele>1042.4000244140625</ele>
        <time>2020-08-22T06:23:58.000Z</time>
      </trkpt>
      <trkpt lat="39.8738370649516582489013671875" lon="-0.91355946846306324005126953125">
        <ele>1043.5999755859375</ele>
        <time>2020-08-22T06:24:08.000Z</time>
      </trkpt>
      <trkpt lat="39.873960278928279876708984375" lon="-0.9136209078133106231689453125">
        <ele>1044.5999755859375</ele>
        <time>2020-08-22T06:24:14.000Z</time>
      </trkpt>
      <trkpt lat="39.8741344548761844635009765625" lon="-0.91370464302599430084228515625">
        <ele>1045.800048828125</ele>
        <time>2020-08-22T06:24:22.000Z</time>
      </trkpt>
      <trkpt lat="39.8742903582751750946044921875" lon="-0.913776643574237823486328125">
        <ele>1047</ele>
        <time>2020-08-22T06:24:29.000Z</time>
      </trkpt>
      <trkpt lat="39.874466545879840850830078125" lon="-0.913861803710460662841796875">
        <ele>1048</ele>
        <time>2020-08-22T06:24:37.000Z</time>
      </trkpt>
      <trkpt lat="39.87459654919803142547607421875" lon="-0.91391871683299541473388671875">
        <ele>1049</ele>
        <time>2020-08-22T06:24:43.000Z</time>
      </trkpt>
      <trkpt lat="39.87470157444477081298828125" lon="-0.9139763005077838897705078125">
        <ele>1050.199951171875</ele>
        <time>2020-08-22T06:24:48.000Z</time>
      </trkpt>
      <trkpt lat="39.87489963881671428680419921875" lon="-0.9140856005251407623291015625">
        <ele>1051.199951171875</ele>
        <time>2020-08-22T06:24:57.000Z</time>
      </trkpt>
      <trkpt lat="39.87502989359200000762939453125" lon="-0.9141657315194606781005859375">
        <ele>1052.4000244140625</ele>
        <time>2020-08-22T06:25:03.000Z</time>
      </trkpt>
      <trkpt lat="39.87519937567412853240966796875" lon="-0.91427796520292758941650390625">
        <ele>1053.4000244140625</ele>
        <time>2020-08-22T06:25:11.000Z</time>
      </trkpt>
      <trkpt lat="39.87531756050884723663330078125" lon="-0.91437913477420806884765625">
        <ele>1054.4000244140625</ele>
        <time>2020-08-22T06:25:17.000Z</time>
      </trkpt>
      <trkpt lat="39.87545192241668701171875" lon="-0.91453528963029384613037109375">
        <ele>1055.800048828125</ele>
        <time>2020-08-22T06:25:25.000Z</time>
      </trkpt>
      <trkpt lat="39.87556390464305877685546875" lon="-0.91466990299522876739501953125">
        <ele>1056.800048828125</ele>
        <time>2020-08-22T06:25:32.000Z</time>
      </trkpt>
      <trkpt lat="39.8756837658584117889404296875" lon="-0.91484181582927703857421875">
        <ele>1058</ele>
        <time>2020-08-22T06:25:40.000Z</time>
      </trkpt>
      <trkpt lat="39.875765740871429443359375" lon="-0.9149744175374507904052734375">
        <ele>1059</ele>
        <time>2020-08-22T06:25:46.000Z</time>
      </trkpt>
      <trkpt lat="39.8758316226303577423095703125" lon="-0.9151259623467922210693359375">
        <ele>1060.199951171875</ele>
        <time>2020-08-22T06:25:52.000Z</time>
      </trkpt>
      <trkpt lat="39.87592508085072040557861328125" lon="-0.915331654250621795654296875">
        <ele>1061.4000244140625</ele>
        <time>2020-08-22T06:26:00.000Z</time>
      </trkpt>
      <trkpt lat="39.8759925551712512969970703125" lon="-0.91547691263258457183837890625">
        <ele>1062.4000244140625</ele>
        <time>2020-08-22T06:26:06.000Z</time>
      </trkpt>
      <trkpt lat="39.87604410387575626373291015625" lon="-0.915671624243259429931640625">
        <ele>1063.4000244140625</ele>
        <time>2020-08-22T06:26:13.000Z</time>
      </trkpt>
      <trkpt lat="39.8760824091732501983642578125" lon="-0.9158840216696262359619140625">
        <ele>1064.5999755859375</ele>
        <time>2020-08-22T06:26:20.000Z</time>
      </trkpt>
      <trkpt lat="39.8761202953755855560302734375" lon="-0.91608309186995029449462890625">
        <ele>1065.800048828125</ele>
        <time>2020-08-22T06:26:27.000Z</time>
      </trkpt>
      <trkpt lat="39.87615457735955715179443359375" lon="-0.91629884205758571624755859375">
        <ele>1066.800048828125</ele>
        <time>2020-08-22T06:26:34.000Z</time>
      </trkpt>
      <trkpt lat="39.87618081271648406982421875" lon="-0.916470251977443695068359375">
        <ele>1068</ele>
        <time>2020-08-22T06:26:40.000Z</time>
      </trkpt>
      <trkpt lat="39.87620051018893718719482421875" lon="-0.9166122414171695709228515625">
        <ele>1069</ele>
        <time>2020-08-22T06:26:45.000Z</time>
      </trkpt>
      <trkpt lat="39.87626505084335803985595703125" lon="-0.9168455936014652252197265625">
        <ele>1070</ele>
        <time>2020-08-22T06:26:53.000Z</time>
      </trkpt>
      <trkpt lat="39.87639136612415313720703125" lon="-0.91703393496572971343994140625">
        <ele>1071</ele>
        <time>2020-08-22T06:27:01.000Z</time>
      </trkpt>
      <trkpt lat="39.87656973302364349365234375" lon="-0.917223952710628509521484375">
        <ele>1072</ele>
        <time>2020-08-22T06:27:10.000Z</time>
      </trkpt>
      <trkpt lat="39.87676830030977725982666015625" lon="-0.91738312505185604095458984375">
        <ele>1073.199951171875</ele>
        <time>2020-08-22T06:27:19.000Z</time>
      </trkpt>
      <trkpt lat="39.87700265832245349884033203125" lon="-0.9175582230091094970703125">
        <ele>1074.199951171875</ele>
        <time>2020-08-22T06:27:30.000Z</time>
      </trkpt>
      <trkpt lat="39.877138696610927581787109375" lon="-0.91768738813698291778564453125">
        <ele>1075.199951171875</ele>
        <time>2020-08-22T06:27:37.000Z</time>
      </trkpt>
      <trkpt lat="39.877303652465343475341796875" lon="-0.91787665151059627532958984375">
        <ele>1076.4000244140625</ele>
        <time>2020-08-22T06:27:45.000Z</time>
      </trkpt>
      <trkpt lat="39.877747558057308197021484375" lon="-0.91835123486816883087158203125">
        <ele>1077.4000244140625</ele>
        <time>2020-08-22T06:28:03.000Z</time>
      </trkpt>
      <trkpt lat="39.87783305346965789794921875" lon="-0.91844008304178714752197265625">
        <ele>1077.4000244140625</ele>
        <time>2020-08-22T06:28:06.000Z</time>
      </trkpt>
      <trkpt lat="39.8780508153140544891357421875" lon="-0.91858215630054473876953125">
        <ele>1077.199951171875</ele>
        <time>2020-08-22T06:28:14.000Z</time>
      </trkpt>
      <trkpt lat="39.8783984966576099395751953125" lon="-0.9180271066725254058837890625">
        <ele>1076.800048828125</ele>
        <time>2020-08-22T06:28:33.000Z</time>
      </trkpt>
      <trkpt lat="39.87865246832370758056640625" lon="-0.917548500001430511474609375">
        <ele>1078.4000244140625</ele>
        <time>2020-08-22T06:28:50.000Z</time>
      </trkpt>
      <trkpt lat="39.87882035784423351287841796875" lon="-0.9172470867633819580078125">
        <ele>1079.4000244140625</ele>
        <time>2020-08-22T06:29:00.000Z</time>
      </trkpt>
      <trkpt lat="39.8790019936859607696533203125" lon="-0.91694466769695281982421875">
        <ele>1080.5999755859375</ele>
        <time>2020-08-22T06:29:11.000Z</time>
      </trkpt>
      <trkpt lat="39.8792085237801074981689453125" lon="-0.91658265329897403717041015625">
        <ele>1081.5999755859375</ele>
        <time>2020-08-22T06:29:24.000Z</time>
      </trkpt>
      <trkpt lat="39.8794110305607318878173828125" lon="-0.91624503023922443389892578125">
        <ele>1082.5999755859375</ele>
        <time>2020-08-22T06:29:36.000Z</time>
      </trkpt>
      <trkpt lat="39.8797369189560413360595703125" lon="-0.9157435409724712371826171875">
        <ele>1083.800048828125</ele>
        <time>2020-08-22T06:29:52.000Z</time>
      </trkpt>
      <trkpt lat="39.88007244653999805450439453125" lon="-0.91515672393143177032470703125">
        <ele>1084.199951171875</ele>
        <time>2020-08-22T06:30:09.000Z</time>
      </trkpt>
      <trkpt lat="39.8802914656698703765869140625" lon="-0.91467275284230709075927734375">
        <ele>1084.800048828125</ele>
        <time>2020-08-22T06:30:21.000Z</time>
      </trkpt>
      <trkpt lat="39.88060645759105682373046875" lon="-0.91404494829475879669189453125">
        <ele>1084.800048828125</ele>
        <time>2020-08-22T06:30:36.000Z</time>
      </trkpt>
      <trkpt lat="39.88092471845448017120361328125" lon="-0.91341949068009853363037109375">
        <ele>1084</ele>
        <time>2020-08-22T06:30:51.000Z</time>
      </trkpt>
      <trkpt lat="39.8812527023255825042724609375" lon="-0.91283275745809078216552734375">
        <ele>1083.800048828125</ele>
        <time>2020-08-22T06:31:05.000Z</time>
      </trkpt>
      <trkpt lat="39.88158202730119228363037109375" lon="-0.912216268479824066162109375">
        <ele>1083.800048828125</ele>
        <time>2020-08-22T06:31:19.000Z</time>
      </trkpt>
      <trkpt lat="39.881902970373630523681640625" lon="-0.91163523495197296142578125">
        <ele>1084.199951171875</ele>
        <time>2020-08-22T06:31:33.000Z</time>
      </trkpt>
      <trkpt lat="39.88222123123705387115478515625" lon="-0.91103584505617618560791015625">
        <ele>1083.800048828125</ele>
        <time>2020-08-22T06:31:47.000Z</time>
      </trkpt>
      <trkpt lat="39.8825840838253498077392578125" lon="-0.910474844276905059814453125">
        <ele>1083.5999755859375</ele>
        <time>2020-08-22T06:32:01.000Z</time>
      </trkpt>
      <trkpt lat="39.88307585008442401885986328125" lon="-0.910106040537357330322265625">
        <ele>1083.800048828125</ele>
        <time>2020-08-22T06:32:15.000Z</time>
      </trkpt>
      <trkpt lat="39.8836113698780536651611328125" lon="-0.90997000224888324737548828125">
        <ele>1083.800048828125</ele>
        <time>2020-08-22T06:32:27.000Z</time>
      </trkpt>
      <trkpt lat="39.88417304120957851409912109375" lon="-0.909863971173763275146484375">
        <ele>1083</ele>
        <time>2020-08-22T06:32:36.000Z</time>
      </trkpt>
      <trkpt lat="39.88432643003761768341064453125" lon="-0.9098342992365360260009765625">
        <ele>1082.199951171875</ele>
        <time>2020-08-22T06:32:38.000Z</time>
      </trkpt>
      <trkpt lat="39.88456766121089458465576171875" lon="-0.90977956540882587432861328125">
        <ele>1081.199951171875</ele>
        <time>2020-08-22T06:32:41.000Z</time>
      </trkpt>
      <trkpt lat="39.88481995649635791778564453125" lon="-0.90969591401517391204833984375">
        <ele>1079.4000244140625</ele>
        <time>2020-08-22T06:32:44.000Z</time>
      </trkpt>
      <trkpt lat="39.8849045298993587493896484375" lon="-0.90966138057410717010498046875">
        <ele>1077.4000244140625</ele>
        <time>2020-08-22T06:32:45.000Z</time>
      </trkpt>
      <trkpt lat="39.88506554625928401947021484375" lon="-0.90958158485591411590576171875">
        <ele>1076.4000244140625</ele>
        <time>2020-08-22T06:32:47.000Z</time>
      </trkpt>
      <trkpt lat="39.88521273247897624969482421875" lon="-0.90949592180550098419189453125">
        <ele>1075.4000244140625</ele>
        <time>2020-08-22T06:32:49.000Z</time>
      </trkpt>
      <trkpt lat="39.885585308074951171875" lon="-0.90926416218280792236328125">
        <ele>1074.199951171875</ele>
        <time>2020-08-22T06:32:54.000Z</time>
      </trkpt>
      <trkpt lat="39.886081516742706298828125" lon="-0.90894070453941822052001953125">
        <ele>1073.199951171875</ele>
        <time>2020-08-22T06:33:00.000Z</time>
      </trkpt>
      <trkpt lat="39.88616508431732654571533203125" lon="-0.9088824503123760223388671875">
        <ele>1073.199951171875</ele>
        <time>2020-08-22T06:33:01.000Z</time>
      </trkpt>
      <trkpt lat="39.886524416506290435791015625" lon="-0.9085619263350963592529296875">
        <ele>1071.5999755859375</ele>
        <time>2020-08-22T06:33:06.000Z</time>
      </trkpt>
      <trkpt lat="39.88661770708858966827392578125" lon="-0.908408872783184051513671875">
        <ele>1070.800048828125</ele>
        <time>2020-08-22T06:33:08.000Z</time>
      </trkpt>
      <trkpt lat="39.8866486363112926483154296875" lon="-0.908323712646961212158203125">
        <ele>1070.199951171875</ele>
        <time>2020-08-22T06:33:09.000Z</time>
      </trkpt>
      <trkpt lat="39.8866756260395050048828125" lon="-0.90824433602392673492431640625">
        <ele>1069.199951171875</ele>
        <time>2020-08-22T06:33:10.000Z</time>
      </trkpt>
      <trkpt lat="39.88693286664783954620361328125" lon="-0.90757864527404308319091796875">
        <ele>1068.4000244140625</ele>
        <time>2020-08-22T06:33:21.000Z</time>
      </trkpt>
      <trkpt lat="39.88720963709056377410888671875" lon="-0.90724253095686435699462890625">
        <ele>1070.4000244140625</ele>
        <time>2020-08-22T06:33:31.000Z</time>
      </trkpt>
      <trkpt lat="39.88739940337836742401123046875" lon="-0.90706064365804195404052734375">
        <ele>1071.4000244140625</ele>
        <time>2020-08-22T06:33:38.000Z</time>
      </trkpt>
      <trkpt lat="39.8875334300100803375244140625" lon="-0.90688177384436130523681640625">
        <ele>1072.800048828125</ele>
        <time>2020-08-22T06:33:44.000Z</time>
      </trkpt>
      <trkpt lat="39.88759034313261508941650390625" lon="-0.9067811071872711181640625">
        <ele>1073.800048828125</ele>
        <time>2020-08-22T06:33:47.000Z</time>
      </trkpt>
      <trkpt lat="39.8876876570284366607666015625" lon="-0.90650081634521484375">
        <ele>1074.800048828125</ele>
        <time>2020-08-22T06:33:54.000Z</time>
      </trkpt>
      <trkpt lat="39.88778295926749706268310546875" lon="-0.906155146658420562744140625">
        <ele>1075.800048828125</ele>
        <time>2020-08-22T06:34:02.000Z</time>
      </trkpt>
      <trkpt lat="39.8878727294504642486572265625" lon="-0.90572138316929340362548828125">
        <ele>1076.800048828125</ele>
        <time>2020-08-22T06:34:12.000Z</time>
      </trkpt>
      <trkpt lat="39.88793048076331615447998046875" lon="-0.9054827503859996795654296875">
        <ele>1078</ele>
        <time>2020-08-22T06:34:18.000Z</time>
      </trkpt>
      <trkpt lat="39.88804816268384456634521484375" lon="-0.9050660021603107452392578125">
        <ele>1079</ele>
        <time>2020-08-22T06:34:29.000Z</time>
      </trkpt>
      <trkpt lat="39.88815260119736194610595703125" lon="-0.90465805493295192718505859375">
        <ele>1080</ele>
        <time>2020-08-22T06:34:40.000Z</time>
      </trkpt>
      <trkpt lat="39.88823390565812587738037109375" lon="-0.90431204997003078460693359375">
        <ele>1081.199951171875</ele>
        <time>2020-08-22T06:34:49.000Z</time>
      </trkpt>
      <trkpt lat="39.88836382515728473663330078125" lon="-0.90377577580511569976806640625">
        <ele>1082.199951171875</ele>
        <time>2020-08-22T06:35:03.000Z</time>
      </trkpt>
      <trkpt lat="39.88849977962672710418701171875" lon="-0.9033014439046382904052734375">
        <ele>1083.4000244140625</ele>
        <time>2020-08-22T06:35:15.000Z</time>
      </trkpt>
      <trkpt lat="39.88887562416493892669677734375" lon="-0.902760811150074005126953125">
        <ele>1083.4000244140625</ele>
        <time>2020-08-22T06:35:28.000Z</time>
      </trkpt>
      <trkpt lat="39.88930888473987579345703125" lon="-0.9022962860763072967529296875">
        <ele>1083.199951171875</ele>
        <time>2020-08-22T06:35:43.000Z</time>
      </trkpt>
      <trkpt lat="39.88953150808811187744140625" lon="-0.90210677124559879302978515625">
        <ele>1084.4000244140625</ele>
        <time>2020-08-22T06:35:51.000Z</time>
      </trkpt>
      <trkpt lat="39.88972722552716732025146484375" lon="-0.901944749057292938232421875">
        <ele>1085.4000244140625</ele>
        <time>2020-08-22T06:35:58.000Z</time>
      </trkpt>
      <trkpt lat="39.889955632388591766357421875" lon="-0.9017859958112239837646484375">
        <ele>1086.5999755859375</ele>
        <time>2020-08-22T06:36:06.000Z</time>
      </trkpt>
      <trkpt lat="39.89009317941963672637939453125" lon="-0.90169790200889110565185546875">
        <ele>1087.5999755859375</ele>
        <time>2020-08-22T06:36:11.000Z</time>
      </trkpt>
      <trkpt lat="39.89032502286136150360107421875" lon="-0.90154954232275485992431640625">
        <ele>1088.5999755859375</ele>
        <time>2020-08-22T06:36:19.000Z</time>
      </trkpt>
      <trkpt lat="39.89055954851210117340087890625" lon="-0.9013900347054004669189453125">
        <ele>1089.800048828125</ele>
        <time>2020-08-22T06:36:27.000Z</time>
      </trkpt>
      <trkpt lat="39.89069432951509952545166015625" lon="-0.90129657648503780364990234375">
        <ele>1090.800048828125</ele>
        <time>2020-08-22T06:36:32.000Z</time>
      </trkpt>
      <trkpt lat="39.89113303832709789276123046875" lon="-0.9008304588496685028076171875">
        <ele>1091.5999755859375</ele>
        <time>2020-08-22T06:36:46.000Z</time>
      </trkpt>
      <trkpt lat="39.8915223777294158935546875" lon="-0.90051018632948398590087890625">
        <ele>1091.800048828125</ele>
        <time>2020-08-22T06:36:59.000Z</time>
      </trkpt>
      <trkpt lat="39.89170870743691921234130859375" lon="-0.90037372894585132598876953125">
        <ele>1093</ele>
        <time>2020-08-22T06:37:06.000Z</time>
      </trkpt>
      <trkpt lat="39.89185019396245479583740234375" lon="-0.90028186328709125518798828125">
        <ele>1094.199951171875</ele>
        <time>2020-08-22T06:37:12.000Z</time>
      </trkpt>
      <trkpt lat="39.8920003138482570648193359375" lon="-0.90021313168108463287353515625">
        <ele>1095.199951171875</ele>
        <time>2020-08-22T06:37:18.000Z</time>
      </trkpt>
      <trkpt lat="39.89207432605326175689697265625" lon="-0.900170803070068359375">
        <ele>1096.199951171875</ele>
        <time>2020-08-22T06:37:21.000Z</time>
      </trkpt>
      <trkpt lat="39.89217373542487621307373046875" lon="-0.90011053718626499176025390625">
        <ele>1097.4000244140625</ele>
        <time>2020-08-22T06:37:25.000Z</time>
      </trkpt>
      <trkpt lat="39.8924173973500728607177734375" lon="-0.899858660995960235595703125">
        <ele>1098.5999755859375</ele>
        <time>2020-08-22T06:37:35.000Z</time>
      </trkpt>
      <trkpt lat="39.89290706813335418701171875" lon="-0.89953402988612651824951171875">
        <ele>1099.5999755859375</ele>
        <time>2020-08-22T06:37:50.000Z</time>
      </trkpt>
      <trkpt lat="39.89344778470695018768310546875" lon="-0.89933370240032672882080078125">
        <ele>1099</ele>
        <time>2020-08-22T06:38:04.000Z</time>
      </trkpt>
      <trkpt lat="39.89396796561777591705322265625" lon="-0.89929430745542049407958984375">
        <ele>1099.5999755859375</ele>
        <time>2020-08-22T06:38:18.000Z</time>
      </trkpt>
      <trkpt lat="39.8945403657853603363037109375" lon="-0.8993272483348846435546875">
        <ele>1100</ele>
        <time>2020-08-22T06:38:33.000Z</time>
      </trkpt>
      <trkpt lat="39.8949685133993625640869140625" lon="-0.899157933890819549560546875">
        <ele>1100.5999755859375</ele>
        <time>2020-08-22T06:38:45.000Z</time>
      </trkpt>
      <trkpt lat="39.8953946493566036224365234375" lon="-0.8991529047489166259765625">
        <ele>1101.4000244140625</ele>
        <time>2020-08-22T06:38:57.000Z</time>
      </trkpt>
      <trkpt lat="39.89559405483305454254150390625" lon="-0.89909649454057216644287109375">
        <ele>1101.5999755859375</ele>
        <time>2020-08-22T06:39:02.000Z</time>
      </trkpt>
      <trkpt lat="39.89612865261733531951904296875" lon="-0.898917205631732940673828125">
        <ele>1102</ele>
        <time>2020-08-22T06:39:16.000Z</time>
      </trkpt>
      <trkpt lat="39.89649427123367786407470703125" lon="-0.8988131023943424224853515625">
        <ele>1102.5999755859375</ele>
        <time>2020-08-22T06:39:26.000Z</time>
      </trkpt>
      <trkpt lat="39.8969972692430019378662109375" lon="-0.89864823035895824432373046875">
        <ele>1103.800048828125</ele>
        <time>2020-08-22T06:39:40.000Z</time>
      </trkpt>
      <trkpt lat="39.89724596031010150909423828125" lon="-0.8984221704304218292236328125">
        <ele>1104.800048828125</ele>
        <time>2020-08-22T06:39:49.000Z</time>
      </trkpt>
      <trkpt lat="39.897361882030963897705078125" lon="-0.89826853014528751373291015625">
        <ele>1106</ele>
        <time>2020-08-22T06:39:54.000Z</time>
      </trkpt>
      <trkpt lat="39.8975028656423091888427734375" lon="-0.89800466783344745635986328125">
        <ele>1107</ele>
        <time>2020-08-22T06:40:02.000Z</time>
      </trkpt>
      <trkpt lat="39.89759556949138641357421875" lon="-0.897886566817760467529296875">
        <ele>1108</ele>
        <time>2020-08-22T06:40:06.000Z</time>
      </trkpt>
      <trkpt lat="39.897750131785869598388671875" lon="-0.89776142500340938568115234375">
        <ele>1109</ele>
        <time>2020-08-22T06:40:12.000Z</time>
      </trkpt>
      <trkpt lat="39.8979414068162441253662109375" lon="-0.897697471082210540771484375">
        <ele>1110.199951171875</ele>
        <time>2020-08-22T06:40:18.000Z</time>
      </trkpt>
      <trkpt lat="39.89822044037282466888427734375" lon="-0.89759076945483684539794921875">
        <ele>1111.4000244140625</ele>
        <time>2020-08-22T06:40:27.000Z</time>
      </trkpt>
      <trkpt lat="39.89840635098516941070556640625" lon="-0.8974538929760456085205078125">
        <ele>1112.4000244140625</ele>
        <time>2020-08-22T06:40:34.000Z</time>
      </trkpt>
      <trkpt lat="39.89862897433340549468994140625" lon="-0.8973343670368194580078125">
        <ele>1113.4000244140625</ele>
        <time>2020-08-22T06:40:42.000Z</time>
      </trkpt>
      <trkpt lat="39.89885645918548107147216796875" lon="-0.89726488105952739715576171875">
        <ele>1114.4000244140625</ele>
        <time>2020-08-22T06:40:49.000Z</time>
      </trkpt>
      <trkpt lat="39.89941871725022792816162109375" lon="-0.8973016776144504547119140625">
        <ele>1115.4000244140625</ele>
        <time>2020-08-22T06:41:04.000Z</time>
      </trkpt>
      <trkpt lat="39.89984326064586639404296875" lon="-0.89731969870626926422119140625">
        <ele>1115</ele>
        <time>2020-08-22T06:41:14.000Z</time>
      </trkpt>
      <trkpt lat="39.90026696585118770599365234375" lon="-0.89690328575670719146728515625">
        <ele>1115.199951171875</ele>
        <time>2020-08-22T06:41:27.000Z</time>
      </trkpt>
      <trkpt lat="39.90040090866386890411376953125" lon="-0.89670069515705108642578125">
        <ele>1115.5999755859375</ele>
        <time>2020-08-22T06:41:32.000Z</time>
      </trkpt>
      <trkpt lat="39.9006886593997478485107421875" lon="-0.8962559513747692108154296875">
        <ele>1116.5999755859375</ele>
        <time>2020-08-22T06:41:44.000Z</time>
      </trkpt>
      <trkpt lat="39.90083458833396434783935546875" lon="-0.896053947508335113525390625">
        <ele>1117.5999755859375</ele>
        <time>2020-08-22T06:41:50.000Z</time>
      </trkpt>
      <trkpt lat="39.901227615773677825927734375" lon="-0.8958817832171916961669921875">
        <ele>1118.5999755859375</ele>
        <time>2020-08-22T06:42:02.000Z</time>
      </trkpt>
      <trkpt lat="39.901476390659809112548828125" lon="-0.8957513608038425445556640625">
        <ele>1119.800048828125</ele>
        <time>2020-08-22T06:42:11.000Z</time>
      </trkpt>
      <trkpt lat="39.90168568678200244903564453125" lon="-0.895422957837581634521484375">
        <ele>1120.800048828125</ele>
        <time>2020-08-22T06:42:20.000Z</time>
      </trkpt>
      <trkpt lat="39.9021226353943347930908203125" lon="-0.8950556628406047821044921875">
        <ele>1122</ele>
        <time>2020-08-22T06:42:35.000Z</time>
      </trkpt>
      <trkpt lat="39.90250007249414920806884765625" lon="-0.89491526596248149871826171875">
        <ele>1123</ele>
        <time>2020-08-22T06:42:46.000Z</time>
      </trkpt>
      <trkpt lat="39.90299594588577747344970703125" lon="-0.89481384493410587310791015625">
        <ele>1124</ele>
        <time>2020-08-22T06:43:01.000Z</time>
      </trkpt>
      <trkpt lat="39.90326173603534698486328125" lon="-0.89475567452609539031982421875">
        <ele>1125.199951171875</ele>
        <time>2020-08-22T06:43:10.000Z</time>
      </trkpt>
      <trkpt lat="39.903370030224323272705078125" lon="-0.89469063095748424530029296875">
        <ele>1126.199951171875</ele>
        <time>2020-08-22T06:43:15.000Z</time>
      </trkpt>
      <trkpt lat="39.9034577049314975738525390625" lon="-0.8945931494235992431640625">
        <ele>1127.199951171875</ele>
        <time>2020-08-22T06:43:20.000Z</time>
      </trkpt>
      <trkpt lat="39.90351227112114429473876953125" lon="-0.89449164457619190216064453125">
        <ele>1128.4000244140625</ele>
        <time>2020-08-22T06:43:24.000Z</time>
      </trkpt>
      <trkpt lat="39.9035871215164661407470703125" lon="-0.8942766487598419189453125">
        <ele>1129.4000244140625</ele>
        <time>2020-08-22T06:43:31.000Z</time>
      </trkpt>
      <trkpt lat="39.90361134521663188934326171875" lon="-0.8940374292433261871337890625">
        <ele>1130.5999755859375</ele>
        <time>2020-08-22T06:43:38.000Z</time>
      </trkpt>
      <trkpt lat="39.90363162942230701446533203125" lon="-0.89387096464633941650390625">
        <ele>1131.800048828125</ele>
        <time>2020-08-22T06:43:43.000Z</time>
      </trkpt>
      <trkpt lat="39.90366415120661258697509765625" lon="-0.893730819225311279296875">
        <ele>1132.800048828125</ele>
        <time>2020-08-22T06:43:47.000Z</time>
      </trkpt>
      <trkpt lat="39.9037443660199642181396484375" lon="-0.89354666881263256072998046875">
        <ele>1134</ele>
        <time>2020-08-22T06:43:53.000Z</time>
      </trkpt>
      <trkpt lat="39.9039401672780513763427734375" lon="-0.89328582398593425750732421875">
        <ele>1135.199951171875</ele>
        <time>2020-08-22T06:44:04.000Z</time>
      </trkpt>
      <trkpt lat="39.90419975481927394866943359375" lon="-0.893094800412654876708984375">
        <ele>1136.199951171875</ele>
        <time>2020-08-22T06:44:13.000Z</time>
      </trkpt>
      <trkpt lat="39.904561936855316162109375" lon="-0.8929806388914585113525390625">
        <ele>1137.4000244140625</ele>
        <time>2020-08-22T06:44:26.000Z</time>
      </trkpt>
      <trkpt lat="39.904678948223590850830078125" lon="-0.8929766155779361724853515625">
        <ele>1138.4000244140625</ele>
        <time>2020-08-22T06:44:31.000Z</time>
      </trkpt>
      <trkpt lat="39.9048028327524662017822265625" lon="-0.8929876796901226043701171875">
        <ele>1139.4000244140625</ele>
        <time>2020-08-22T06:44:36.000Z</time>
      </trkpt>
      <trkpt lat="39.90494943223893642425537109375" lon="-0.8929927088320255279541015625">
        <ele>1140.4000244140625</ele>
        <time>2020-08-22T06:44:42.000Z</time>
      </trkpt>
      <trkpt lat="39.90507214330136775970458984375" lon="-0.89297602884471416473388671875">
        <ele>1141.5999755859375</ele>
        <time>2020-08-22T06:44:47.000Z</time>
      </trkpt>
      <trkpt lat="39.90522243082523345947265625" lon="-0.8929310180246829986572265625">
        <ele>1142.5999755859375</ele>
        <time>2020-08-22T06:44:53.000Z</time>
      </trkpt>
      <trkpt lat="39.90539970807731151580810546875" lon="-0.8928518928587436676025390625">
        <ele>1144</ele>
        <time>2020-08-22T06:45:01.000Z</time>
      </trkpt>
      <trkpt lat="39.90553800947964191436767578125" lon="-0.892789363861083984375">
        <ele>1145.199951171875</ele>
        <time>2020-08-22T06:45:07.000Z</time>
      </trkpt>
      <trkpt lat="39.90567580796778202056884765625" lon="-0.89272675104439258575439453125">
        <ele>1146.199951171875</ele>
        <time>2020-08-22T06:45:13.000Z</time>
      </trkpt>
      <trkpt lat="39.90582668222486972808837890625" lon="-0.89265382848680019378662109375">
        <ele>1147.199951171875</ele>
        <time>2020-08-22T06:45:19.000Z</time>
      </trkpt>
      <trkpt lat="39.906069338321685791015625" lon="-0.89253597892820835113525390625">
        <ele>1148.4000244140625</ele>
        <time>2020-08-22T06:45:28.000Z</time>
      </trkpt>
      <trkpt lat="39.90638441406190395355224609375" lon="-0.892394073307514190673828125">
        <ele>1149.4000244140625</ele>
        <time>2020-08-22T06:45:40.000Z</time>
      </trkpt>
      <trkpt lat="39.90655272267758846282958984375" lon="-0.89231369085609912872314453125">
        <ele>1150.800048828125</ele>
        <time>2020-08-22T06:45:47.000Z</time>
      </trkpt>
      <trkpt lat="39.9066686443984508514404296875" lon="-0.8922765590250492095947265625">
        <ele>1151.800048828125</ele>
        <time>2020-08-22T06:45:52.000Z</time>
      </trkpt>
      <trkpt lat="39.90683653391897678375244140625" lon="-0.8922346495091915130615234375">
        <ele>1153</ele>
        <time>2020-08-22T06:45:59.000Z</time>
      </trkpt>
      <trkpt lat="39.90696008317172527313232421875" lon="-0.89220975525677204132080078125">
        <ele>1154</ele>
        <time>2020-08-22T06:46:04.000Z</time>
      </trkpt>
      <trkpt lat="39.90713828243315219879150390625" lon="-0.8921764791011810302734375">
        <ele>1155.199951171875</ele>
        <time>2020-08-22T06:46:11.000Z</time>
      </trkpt>
      <trkpt lat="39.907286725938320159912109375" lon="-0.89215560816228389739990234375">
        <ele>1156.199951171875</ele>
        <time>2020-08-22T06:46:17.000Z</time>
      </trkpt>
      <trkpt lat="39.907411448657512664794921875" lon="-0.8921323902904987335205078125">
        <ele>1157.199951171875</ele>
        <time>2020-08-22T06:46:22.000Z</time>
      </trkpt>
      <trkpt lat="39.90760867483913898468017578125" lon="-0.8920918218791484832763671875">
        <ele>1158.4000244140625</ele>
        <time>2020-08-22T06:46:29.000Z</time>
      </trkpt>
      <trkpt lat="39.907834567129611968994140625" lon="-0.89205510914325714111328125">
        <ele>1159.4000244140625</ele>
        <time>2020-08-22T06:46:37.000Z</time>
      </trkpt>
      <trkpt lat="39.908268749713897705078125" lon="-0.8917795121669769287109375">
        <ele>1160.4000244140625</ele>
        <time>2020-08-22T06:46:53.000Z</time>
      </trkpt>
      <trkpt lat="39.90873285569250583648681640625" lon="-0.89140442200005054473876953125">
        <ele>1161.199951171875</ele>
        <time>2020-08-22T06:47:11.000Z</time>
      </trkpt>
      <trkpt lat="39.90884475409984588623046875" lon="-0.891297720372676849365234375">
        <ele>1161.4000244140625</ele>
        <time>2020-08-22T06:47:16.000Z</time>
      </trkpt>
      <trkpt lat="39.90911691449582576751708984375" lon="-0.8910715766251087188720703125">
        <ele>1162.5999755859375</ele>
        <time>2020-08-22T06:47:28.000Z</time>
      </trkpt>
      <trkpt lat="39.90929477848112583160400390625" lon="-0.8909411542117595672607421875">
        <ele>1163.800048828125</ele>
        <time>2020-08-22T06:47:36.000Z</time>
      </trkpt>
      <trkpt lat="39.909423105418682098388671875" lon="-0.8908375538885593414306640625">
        <ele>1165</ele>
        <time>2020-08-22T06:47:42.000Z</time>
      </trkpt>
      <trkpt lat="39.90951622836291790008544921875" lon="-0.8907361328601837158203125">
        <ele>1166</ele>
        <time>2020-08-22T06:47:47.000Z</time>
      </trkpt>
      <trkpt lat="39.9096103571355342864990234375" lon="-0.89065876789391040802001953125">
        <ele>1167</ele>
        <time>2020-08-22T06:47:52.000Z</time>
      </trkpt>
      <trkpt lat="39.9097062461078166961669921875" lon="-0.89052733965218067169189453125">
        <ele>1168.4000244140625</ele>
        <time>2020-08-22T06:47:59.000Z</time>
      </trkpt>
      <trkpt lat="39.909721501171588897705078125" lon="-0.890510492026805877685546875">
        <ele>1169.4000244140625</ele>
        <time>2020-08-22T06:48:21.000Z</time>
      </trkpt>
      <trkpt lat="39.9097112752497196197509765625" lon="-0.89057696051895618438720703125">
        <ele>1169.4000244140625</ele>
        <time>2020-08-22T06:55:26.000Z</time>
      </trkpt>
      <trkpt lat="39.909805990755558013916015625" lon="-0.89076119475066661834716796875">
        <ele>1169.4000244140625</ele>
        <time>2020-08-22T06:55:36.000Z</time>
      </trkpt>
      <trkpt lat="39.90995963104069232940673828125" lon="-0.8909589238464832305908203125">
        <ele>1170.5999755859375</ele>
        <time>2020-08-22T06:55:49.000Z</time>
      </trkpt>
      <trkpt lat="39.9100294522941112518310546875" lon="-0.891116000711917877197265625">
        <ele>1171.5999755859375</ele>
        <time>2020-08-22T06:55:58.000Z</time>
      </trkpt>
      <trkpt lat="39.91007798351347446441650390625" lon="-0.89139369316399097442626953125">
        <ele>1172.800048828125</ele>
        <time>2020-08-22T06:56:11.000Z</time>
      </trkpt>
      <trkpt lat="39.9100036360323429107666015625" lon="-0.89170239865779876708984375">
        <ele>1173.800048828125</ele>
        <time>2020-08-22T06:56:24.000Z</time>
      </trkpt>
      <trkpt lat="39.9098302982747554779052734375" lon="-0.8920182287693023681640625">
        <ele>1175</ele>
        <time>2020-08-22T06:56:37.000Z</time>
      </trkpt>
      <trkpt lat="39.90973684005439281463623046875" lon="-0.89221872389316558837890625">
        <ele>1176</ele>
        <time>2020-08-22T06:56:46.000Z</time>
      </trkpt>
      <trkpt lat="39.9096472375094890594482421875" lon="-0.89247378520667552947998046875">
        <ele>1177.199951171875</ele>
        <time>2020-08-22T06:56:55.000Z</time>
      </trkpt>
      <trkpt lat="39.90963608957827091217041015625" lon="-0.89275709353387355804443359375">
        <ele>1178.199951171875</ele>
        <time>2020-08-22T06:57:06.000Z</time>
      </trkpt>
      <trkpt lat="39.90994370542466640472412109375" lon="-0.893364362418651580810546875">
        <ele>1178.199951171875</ele>
        <time>2020-08-22T06:57:26.000Z</time>
      </trkpt>
      <trkpt lat="39.91007320582866668701171875" lon="-0.8938225172460079193115234375">
        <ele>1177.199951171875</ele>
        <time>2020-08-22T06:57:37.000Z</time>
      </trkpt>
      <trkpt lat="39.9101565219461917877197265625" lon="-0.89394874870777130126953125">
        <ele>1176.4000244140625</ele>
        <time>2020-08-22T06:57:41.000Z</time>
      </trkpt>
      <trkpt lat="39.91022785194218158721923828125" lon="-0.89394430629909038543701171875">
        <ele>1176</ele>
        <time>2020-08-22T06:57:43.000Z</time>
      </trkpt>
      <trkpt lat="39.9105927161872386932373046875" lon="-0.89341607876121997833251953125">
        <ele>1176.800048828125</ele>
        <time>2020-08-22T06:58:07.000Z</time>
      </trkpt>
      <trkpt lat="39.91062766872346401214599609375" lon="-0.893338210880756378173828125">
        <ele>1177.199951171875</ele>
        <time>2020-08-22T06:58:10.000Z</time>
      </trkpt>
      <trkpt lat="39.910707883536815643310546875" lon="-0.89305850677192211151123046875">
        <ele>1178.199951171875</ele>
        <time>2020-08-22T06:58:20.000Z</time>
      </trkpt>
      <trkpt lat="39.91076429374516010284423828125" lon="-0.89245475828647613525390625">
        <ele>1179.199951171875</ele>
        <time>2020-08-22T06:58:38.000Z</time>
      </trkpt>
      <trkpt lat="39.91076395846903324127197265625" lon="-0.8922517485916614532470703125">
        <ele>1180.4000244140625</ele>
        <time>2020-08-22T06:58:44.000Z</time>
      </trkpt>
      <trkpt lat="39.9107564985752105712890625" lon="-0.892001800239086151123046875">
        <ele>1181.5999755859375</ele>
        <time>2020-08-22T06:58:52.000Z</time>
      </trkpt>
      <trkpt lat="39.91080402396619319915771484375" lon="-0.89174724183976650238037109375">
        <ele>1182.5999755859375</ele>
        <time>2020-08-22T06:59:01.000Z</time>
      </trkpt>
      <trkpt lat="39.9108331091701984405517578125" lon="-0.8916314877569675445556640625">
        <ele>1183.800048828125</ele>
        <time>2020-08-22T06:59:05.000Z</time>
      </trkpt>
      <trkpt lat="39.9108946323394775390625" lon="-0.8914013206958770751953125">
        <ele>1184.800048828125</ele>
        <time>2020-08-22T06:59:13.000Z</time>
      </trkpt>
      <trkpt lat="39.9109970591962337493896484375" lon="-0.8912087045609951019287109375">
        <ele>1186</ele>
        <time>2020-08-22T06:59:21.000Z</time>
      </trkpt>
      <trkpt lat="39.91139796562492847442626953125" lon="-0.89071132242679595947265625">
        <ele>1186</ele>
        <time>2020-08-22T06:59:40.000Z</time>
      </trkpt>
      <trkpt lat="39.911830388009548187255859375" lon="-0.89024805463850498199462890625">
        <ele>1186</ele>
        <time>2020-08-22T06:59:59.000Z</time>
      </trkpt>
      <trkpt lat="39.911941029131412506103515625" lon="-0.89012634940445423126220703125">
        <ele>1187</ele>
        <time>2020-08-22T07:00:05.000Z</time>
      </trkpt>
      <trkpt lat="39.912108667194843292236328125" lon="-0.889948569238185882568359375">
        <ele>1188</ele>
        <time>2020-08-22T07:00:14.000Z</time>
      </trkpt>
      <trkpt lat="39.9122556857764720916748046875" lon="-0.88981403969228267669677734375">
        <ele>1189.199951171875</ele>
        <time>2020-08-22T07:00:22.000Z</time>
      </trkpt>
      <trkpt lat="39.9123737029731273651123046875" lon="-0.88968277908861637115478515625">
        <ele>1190.199951171875</ele>
        <time>2020-08-22T07:00:29.000Z</time>
      </trkpt>
      <trkpt lat="39.9124655686318874359130859375" lon="-0.8895635046064853668212890625">
        <ele>1191.199951171875</ele>
        <time>2020-08-22T07:00:35.000Z</time>
      </trkpt>
      <trkpt lat="39.912548549473285675048828125" lon="-0.889441631734371185302734375">
        <ele>1192.4000244140625</ele>
        <time>2020-08-22T07:00:41.000Z</time>
      </trkpt>
      <trkpt lat="39.91261267103254795074462890625" lon="-0.8893368579447269439697265625">
        <ele>1193.5999755859375</ele>
        <time>2020-08-22T07:00:46.000Z</time>
      </trkpt>
      <trkpt lat="39.91268844343721866607666015625" lon="-0.88913242332637310028076171875">
        <ele>1194.5999755859375</ele>
        <time>2020-08-22T07:00:54.000Z</time>
      </trkpt>
      <trkpt lat="39.91275298409163951873779296875" lon="-0.88888985104858875274658203125">
        <ele>1195.5999755859375</ele>
        <time>2020-08-22T07:01:03.000Z</time>
      </trkpt>
      <trkpt lat="39.91279958747327327728271484375" lon="-0.88867376558482646942138671875">
        <ele>1196.800048828125</ele>
        <time>2020-08-22T07:01:11.000Z</time>
      </trkpt>
      <trkpt lat="39.91282138042151927947998046875" lon="-0.8884000964462757110595703125">
        <ele>1197.800048828125</ele>
        <time>2020-08-22T07:01:21.000Z</time>
      </trkpt>
      <trkpt lat="39.91281040012836456298828125" lon="-0.88813112117350101470947265625">
        <ele>1199</ele>
        <time>2020-08-22T07:01:30.000Z</time>
      </trkpt>
      <trkpt lat="39.912862367928028106689453125" lon="-0.887857116758823394775390625">
        <ele>1200</ele>
        <time>2020-08-22T07:01:40.000Z</time>
      </trkpt>
      <trkpt lat="39.91290721110999584197998046875" lon="-0.887667350471019744873046875">
        <ele>1201</ele>
        <time>2020-08-22T07:01:47.000Z</time>
      </trkpt>
      <trkpt lat="39.91296286694705486297607421875" lon="-0.88751303963363170623779296875">
        <ele>1202.199951171875</ele>
        <time>2020-08-22T07:01:53.000Z</time>
      </trkpt>
      <trkpt lat="39.91309161297976970672607421875" lon="-0.8873077668249607086181640625">
        <ele>1203.199951171875</ele>
        <time>2020-08-22T07:02:03.000Z</time>
      </trkpt>
      <trkpt lat="39.91316721774637699127197265625" lon="-0.88713099248707294464111328125">
        <ele>1204.4000244140625</ele>
        <time>2020-08-22T07:02:10.000Z</time>
      </trkpt>
      <trkpt lat="39.913268052041530609130859375" lon="-0.88691490702331066131591796875">
        <ele>1205.4000244140625</ele>
        <time>2020-08-22T07:02:19.000Z</time>
      </trkpt>
      <trkpt lat="39.91331708617508411407470703125" lon="-0.8867954649031162261962890625">
        <ele>1206.4000244140625</ele>
        <time>2020-08-22T07:02:24.000Z</time>
      </trkpt>
      <trkpt lat="39.91339101456105709075927734375" lon="-0.886609219014644622802734375">
        <ele>1207.5999755859375</ele>
        <time>2020-08-22T07:02:32.000Z</time>
      </trkpt>
      <trkpt lat="39.913439042866230010986328125" lon="-0.88643797673285007476806640625">
        <ele>1208.5999755859375</ele>
        <time>2020-08-22T07:02:39.000Z</time>
      </trkpt>
      <trkpt lat="39.9134923517704010009765625" lon="-0.8862529881298542022705078125">
        <ele>1209.800048828125</ele>
        <time>2020-08-22T07:02:46.000Z</time>
      </trkpt>
      <trkpt lat="39.91353250108659267425537109375" lon="-0.8861195482313632965087890625">
        <ele>1210.800048828125</ele>
        <time>2020-08-22T07:02:52.000Z</time>
      </trkpt>
      <trkpt lat="39.91361816413700580596923828125" lon="-0.8858952485024929046630859375">
        <ele>1211.800048828125</ele>
        <time>2020-08-22T07:03:02.000Z</time>
      </trkpt>
      <trkpt lat="39.913693852722644805908203125" lon="-0.88577044196426868438720703125">
        <ele>1213</ele>
        <time>2020-08-22T07:03:08.000Z</time>
      </trkpt>
      <trkpt lat="39.9138495884835720062255859375" lon="-0.8856555260717868804931640625">
        <ele>1214</ele>
        <time>2020-08-22T07:03:17.000Z</time>
      </trkpt>
      <trkpt lat="39.91397791542112827301025390625" lon="-0.8855683542788028717041015625">
        <ele>1215</ele>
        <time>2020-08-22T07:03:24.000Z</time>
      </trkpt>
      <trkpt lat="39.91411261260509490966796875" lon="-0.88540968485176563262939453125">
        <ele>1216.199951171875</ele>
        <time>2020-08-22T07:03:33.000Z</time>
      </trkpt>
      <trkpt lat="39.9141925759613513946533203125" lon="-0.88525629602372646331787109375">
        <ele>1217.199951171875</ele>
        <time>2020-08-22T07:03:40.000Z</time>
      </trkpt>
      <trkpt lat="39.9142556078732013702392578125" lon="-0.88514112867414951324462890625">
        <ele>1218.4000244140625</ele>
        <time>2020-08-22T07:03:46.000Z</time>
      </trkpt>
      <trkpt lat="39.91435007192194461822509765625" lon="-0.88501908816397190093994140625">
        <ele>1219.4000244140625</ele>
        <time>2020-08-22T07:03:53.000Z</time>
      </trkpt>
      <trkpt lat="39.91450061090290546417236328125" lon="-0.8849479258060455322265625">
        <ele>1220.4000244140625</ele>
        <time>2020-08-22T07:04:01.000Z</time>
      </trkpt>
      <trkpt lat="39.9146304465830326080322265625" lon="-0.88491163216531276702880859375">
        <ele>1221.5999755859375</ele>
        <time>2020-08-22T07:04:07.000Z</time>
      </trkpt>
      <trkpt lat="39.91477520205080509185791015625" lon="-0.88487349450588226318359375">
        <ele>1222.5999755859375</ele>
        <time>2020-08-22T07:04:14.000Z</time>
      </trkpt>
      <trkpt lat="39.91488265804946422576904296875" lon="-0.884865783154964447021484375">
        <ele>1223.800048828125</ele>
        <time>2020-08-22T07:04:19.000Z</time>
      </trkpt>
      <trkpt lat="39.9149943888187408447265625" lon="-0.88485446758568286895751953125">
        <ele>1225</ele>
        <time>2020-08-22T07:04:25.000Z</time>
      </trkpt>
      <trkpt lat="39.9151410721242427825927734375" lon="-0.88485530577600002288818359375">
        <ele>1226</ele>
        <time>2020-08-22T07:04:32.000Z</time>
      </trkpt>
      <trkpt lat="39.915264286100864410400390625" lon="-0.88486921973526477813720703125">
        <ele>1227.199951171875</ele>
        <time>2020-08-22T07:04:38.000Z</time>
      </trkpt>
      <trkpt lat="39.91543150506913661956787109375" lon="-0.88489436544477939605712890625">
        <ele>1228.4000244140625</ele>
        <time>2020-08-22T07:04:46.000Z</time>
      </trkpt>
      <trkpt lat="39.91556100547313690185546875" lon="-0.8849021606147289276123046875">
        <ele>1229.5999755859375</ele>
        <time>2020-08-22T07:04:52.000Z</time>
      </trkpt>
      <trkpt lat="39.9157132208347320556640625" lon="-0.8848996460437774658203125">
        <ele>1230.5999755859375</ele>
        <time>2020-08-22T07:05:00.000Z</time>
      </trkpt>
      <trkpt lat="39.91584355942904949188232421875" lon="-0.88489939458668231964111328125">
        <ele>1231.800048828125</ele>
        <time>2020-08-22T07:05:07.000Z</time>
      </trkpt>
      <trkpt lat="39.9159940145909786224365234375" lon="-0.88490433990955352783203125">
        <ele>1233</ele>
        <time>2020-08-22T07:05:15.000Z</time>
      </trkpt>
      <trkpt lat="39.9161294661462306976318359375" lon="-0.8849078603088855743408203125">
        <ele>1234</ele>
        <time>2020-08-22T07:05:22.000Z</time>
      </trkpt>
      <trkpt lat="39.9162451364099979400634765625" lon="-0.88490056805312633514404296875">
        <ele>1235</ele>
        <time>2020-08-22T07:05:28.000Z</time>
      </trkpt>
      <trkpt lat="39.91638218052685260772705078125" lon="-0.88477768935263156890869140625">
        <ele>1236.199951171875</ele>
        <time>2020-08-22T07:05:37.000Z</time>
      </trkpt>
      <trkpt lat="39.916429035365581512451171875" lon="-0.88459295220673084259033203125">
        <ele>1237.199951171875</ele>
        <time>2020-08-22T07:05:44.000Z</time>
      </trkpt>
      <trkpt lat="39.91643900983035564422607421875" lon="-0.8843670599162578582763671875">
        <ele>1238.199951171875</ele>
        <time>2020-08-22T07:05:53.000Z</time>
      </trkpt>
      <trkpt lat="39.91647119633853435516357421875" lon="-0.88419481180608272552490234375">
        <ele>1239.4000244140625</ele>
        <time>2020-08-22T07:06:00.000Z</time>
      </trkpt>
      <trkpt lat="39.91656188853085041046142578125" lon="-0.8839902095496654510498046875">
        <ele>1240.4000244140625</ele>
        <time>2020-08-22T07:06:09.000Z</time>
      </trkpt>
      <trkpt lat="39.9166410975158214569091796875" lon="-0.88387571275234222412109375">
        <ele>1241.4000244140625</ele>
        <time>2020-08-22T07:06:15.000Z</time>
      </trkpt>
      <trkpt lat="39.9167493917047977447509765625" lon="-0.88374428451061248779296875">
        <ele>1242.5999755859375</ele>
        <time>2020-08-22T07:06:23.000Z</time>
      </trkpt>
      <trkpt lat="39.91686112247407436370849609375" lon="-0.88356834836304187774658203125">
        <ele>1243.5999755859375</ele>
        <time>2020-08-22T07:06:33.000Z</time>
      </trkpt>
      <trkpt lat="39.91694628261029720306396484375" lon="-0.8834618143737316131591796875">
        <ele>1244.800048828125</ele>
        <time>2020-08-22T07:06:39.000Z</time>
      </trkpt>
      <trkpt lat="39.917025156319141387939453125" lon="-0.8833297155797481536865234375">
        <ele>1246.4000244140625</ele>
        <time>2020-08-22T07:06:46.000Z</time>
      </trkpt>
      <trkpt lat="39.91705088876187801361083984375" lon="-0.88323407806456089019775390625">
        <ele>1247.5999755859375</ele>
        <time>2020-08-22T07:06:50.000Z</time>
      </trkpt>
      <trkpt lat="39.91711073555052280426025390625" lon="-0.88311639614403247833251953125">
        <ele>1248.5999755859375</ele>
        <time>2020-08-22T07:06:56.000Z</time>
      </trkpt>
      <trkpt lat="39.91721366532146930694580078125" lon="-0.883021764457225799560546875">
        <ele>1249.5999755859375</ele>
        <time>2020-08-22T07:07:03.000Z</time>
      </trkpt>
      <trkpt lat="39.91729949600994586944580078125" lon="-0.8829411305487155914306640625">
        <ele>1250.5999755859375</ele>
        <time>2020-08-22T07:07:09.000Z</time>
      </trkpt>
      <trkpt lat="39.91736554540693759918212890625" lon="-0.8828703872859477996826171875">
        <ele>1252</ele>
        <time>2020-08-22T07:07:14.000Z</time>
      </trkpt>
      <trkpt lat="39.91743260063230991363525390625" lon="-0.8828050084412097930908203125">
        <ele>1253</ele>
        <time>2020-08-22T07:07:19.000Z</time>
      </trkpt>
      <trkpt lat="39.917508624494075775146484375" lon="-0.882746838033199310302734375">
        <ele>1254.199951171875</ele>
        <time>2020-08-22T07:07:24.000Z</time>
      </trkpt>
      <trkpt lat="39.91764818318188190460205078125" lon="-0.88274289853870868682861328125">
        <ele>1255.4000244140625</ele>
        <time>2020-08-22T07:07:31.000Z</time>
      </trkpt>
      <trkpt lat="39.91784767247736454010009765625" lon="-0.88276905007660388946533203125">
        <ele>1256.5999755859375</ele>
        <time>2020-08-22T07:07:41.000Z</time>
      </trkpt>
      <trkpt lat="39.91797356866300106048583984375" lon="-0.8827527053654193878173828125">
        <ele>1257.5999755859375</ele>
        <time>2020-08-22T07:07:47.000Z</time>
      </trkpt>
      <trkpt lat="39.91816115565598011016845703125" lon="-0.882742814719676971435546875">
        <ele>1258.5999755859375</ele>
        <time>2020-08-22T07:07:56.000Z</time>
      </trkpt>
      <trkpt lat="39.918244220316410064697265625" lon="-0.8828251250088214874267578125">
        <ele>1259.800048828125</ele>
        <time>2020-08-22T07:08:01.000Z</time>
      </trkpt>
      <trkpt lat="39.91839903406798839569091796875" lon="-0.8830014802515506744384765625">
        <ele>1260.800048828125</ele>
        <time>2020-08-22T07:08:11.000Z</time>
      </trkpt>
      <trkpt lat="39.91859584115445613861083984375" lon="-0.883100889623165130615234375">
        <ele>1261.800048828125</ele>
        <time>2020-08-22T07:08:20.000Z</time>
      </trkpt>
      <trkpt lat="39.918772280216217041015625" lon="-0.88313248939812183380126953125">
        <ele>1263</ele>
        <time>2020-08-22T07:08:28.000Z</time>
      </trkpt>
      <trkpt lat="39.91895458661019802093505859375" lon="-0.8831530250608921051025390625">
        <ele>1264</ele>
        <time>2020-08-22T07:08:36.000Z</time>
      </trkpt>
      <trkpt lat="39.91912121884524822235107421875" lon="-0.88315797038376331329345703125">
        <ele>1265.199951171875</ele>
        <time>2020-08-22T07:08:43.000Z</time>
      </trkpt>
      <trkpt lat="39.919279552996158599853515625" lon="-0.88317506946623325347900390625">
        <ele>1266.199951171875</ele>
        <time>2020-08-22T07:08:50.000Z</time>
      </trkpt>
      <trkpt lat="39.9194497056305408477783203125" lon="-0.8832339942455291748046875">
        <ele>1267.199951171875</ele>
        <time>2020-08-22T07:08:58.000Z</time>
      </trkpt>
      <trkpt lat="39.9195677228271961212158203125" lon="-0.8833290450274944305419921875">
        <ele>1268.199951171875</ele>
        <time>2020-08-22T07:09:05.000Z</time>
      </trkpt>
      <trkpt lat="39.9197122268378734588623046875" lon="-0.88342937640845775604248046875">
        <ele>1269.4000244140625</ele>
        <time>2020-08-22T07:09:13.000Z</time>
      </trkpt>
      <trkpt lat="39.9198439903557300567626953125" lon="-0.88345100171864032745361328125">
        <ele>1270.4000244140625</ele>
        <time>2020-08-22T07:09:19.000Z</time>
      </trkpt>
      <trkpt lat="39.919978938996791839599609375" lon="-0.883428789675235748291015625">
        <ele>1271.4000244140625</ele>
        <time>2020-08-22T07:09:25.000Z</time>
      </trkpt>
      <trkpt lat="39.92007558234035968780517578125" lon="-0.8834044821560382843017578125">
        <ele>1272.4000244140625</ele>
        <time>2020-08-22T07:09:30.000Z</time>
      </trkpt>
      <trkpt lat="39.92016845382750034332275390625" lon="-0.8833654224872589111328125">
        <ele>1273.5999755859375</ele>
        <time>2020-08-22T07:09:35.000Z</time>
      </trkpt>
      <trkpt lat="39.92034615017473697662353515625" lon="-0.88331119157373905181884765625">
        <ele>1274.800048828125</ele>
        <time>2020-08-22T07:09:43.000Z</time>
      </trkpt>
      <trkpt lat="39.92042929865419864654541015625" lon="-0.8832965232431888580322265625">
        <ele>1276</ele>
        <time>2020-08-22T07:09:47.000Z</time>
      </trkpt>
      <trkpt lat="39.9205358326435089111328125" lon="-0.88328294456005096435546875">
        <ele>1277</ele>
        <time>2020-08-22T07:09:52.000Z</time>
      </trkpt>
      <trkpt lat="39.920689724385738372802734375" lon="-0.88327699340879917144775390625">
        <ele>1278.199951171875</ele>
        <time>2020-08-22T07:09:59.000Z</time>
      </trkpt>
      <trkpt lat="39.920845963060855865478515625" lon="-0.88327649049460887908935546875">
        <ele>1279.4000244140625</ele>
        <time>2020-08-22T07:10:06.000Z</time>
      </trkpt>
      <trkpt lat="39.9210291914641857147216796875" lon="-0.88325017131865024566650390625">
        <ele>1280.4000244140625</ele>
        <time>2020-08-22T07:10:14.000Z</time>
      </trkpt>
      <trkpt lat="39.92121384479105472564697265625" lon="-0.88313282467424869537353515625">
        <ele>1281.4000244140625</ele>
        <time>2020-08-22T07:10:22.000Z</time>
      </trkpt>
      <trkpt lat="39.92144099436700344085693359375" lon="-0.88285521604120731353759765625">
        <ele>1282.5999755859375</ele>
        <time>2020-08-22T07:10:35.000Z</time>
      </trkpt>
      <trkpt lat="39.9215590953826904296875" lon="-0.88277072645723819732666015625">
        <ele>1283.5999755859375</ele>
        <time>2020-08-22T07:10:41.000Z</time>
      </trkpt>
      <trkpt lat="39.9216343648731708526611328125" lon="-0.88272948749363422393798828125">
        <ele>1284.800048828125</ele>
        <time>2020-08-22T07:10:45.000Z</time>
      </trkpt>
      <trkpt lat="39.9216943792998790740966796875" lon="-0.88270350359380245208740234375">
        <ele>1285.800048828125</ele>
        <time>2020-08-22T07:10:48.000Z</time>
      </trkpt>
      <trkpt lat="39.92177903652191162109375" lon="-0.88268338702619075775146484375">
        <ele>1286.800048828125</ele>
        <time>2020-08-22T07:10:52.000Z</time>
      </trkpt>
      <trkpt lat="39.92198850028216838836669921875" lon="-0.88255480863153934478759765625">
        <ele>1287.800048828125</ele>
        <time>2020-08-22T07:11:01.000Z</time>
      </trkpt>
      <trkpt lat="39.9222821183502674102783203125" lon="-0.88215398602187633514404296875">
        <ele>1289</ele>
        <time>2020-08-22T07:11:17.000Z</time>
      </trkpt>
      <trkpt lat="39.92248537950217723846435546875" lon="-0.88204217143356800079345703125">
        <ele>1290</ele>
        <time>2020-08-22T07:11:26.000Z</time>
      </trkpt>
      <trkpt lat="39.92262217216193675994873046875" lon="-0.88195516727864742279052734375">
        <ele>1291</ele>
        <time>2020-08-22T07:11:32.000Z</time>
      </trkpt>
      <trkpt lat="39.92278059013187885284423828125" lon="-0.881781913340091705322265625">
        <ele>1292</ele>
        <time>2020-08-22T07:11:40.000Z</time>
      </trkpt>
      <trkpt lat="39.9229000322520732879638671875" lon="-0.88162173517048358917236328125">
        <ele>1293</ele>
        <time>2020-08-22T07:11:47.000Z</time>
      </trkpt>
      <trkpt lat="39.923047721385955810546875" lon="-0.88152165524661540985107421875">
        <ele>1294.199951171875</ele>
        <time>2020-08-22T07:11:54.000Z</time>
      </trkpt>
      <trkpt lat="39.92322416044771671295166015625" lon="-0.881464742124080657958984375">
        <ele>1295.199951171875</ele>
        <time>2020-08-22T07:12:01.000Z</time>
      </trkpt>
      <trkpt lat="39.9233801476657390594482421875" lon="-0.8814342319965362548828125">
        <ele>1296.4000244140625</ele>
        <time>2020-08-22T07:12:07.000Z</time>
      </trkpt>
      <trkpt lat="39.92357016541063785552978515625" lon="-0.88138754479587078094482421875">
        <ele>1297.4000244140625</ele>
        <time>2020-08-22T07:12:15.000Z</time>
      </trkpt>
      <trkpt lat="39.92374853231012821197509765625" lon="-0.8813267759978771209716796875">
        <ele>1298.5999755859375</ele>
        <time>2020-08-22T07:12:22.000Z</time>
      </trkpt>
      <trkpt lat="39.9238642863929271697998046875" lon="-0.88126852177083492279052734375">
        <ele>1299.800048828125</ele>
        <time>2020-08-22T07:12:27.000Z</time>
      </trkpt>
      <trkpt lat="39.92395891807973384857177734375" lon="-0.8812248520553112030029296875">
        <ele>1300.800048828125</ele>
        <time>2020-08-22T07:12:31.000Z</time>
      </trkpt>
      <trkpt lat="39.92409621365368366241455078125" lon="-0.88118386454880237579345703125">
        <ele>1302</ele>
        <time>2020-08-22T07:12:37.000Z</time>
      </trkpt>
      <trkpt lat="39.92421087808907032012939453125" lon="-0.88117606937885284423828125">
        <ele>1303.199951171875</ele>
        <time>2020-08-22T07:12:42.000Z</time>
      </trkpt>
      <trkpt lat="39.92433694191277027130126953125" lon="-0.881178081035614013671875">
        <ele>1304.4000244140625</ele>
        <time>2020-08-22T07:12:47.000Z</time>
      </trkpt>
      <trkpt lat="39.9244741536676883697509765625" lon="-0.88117162697017192840576171875">
        <ele>1305.4000244140625</ele>
        <time>2020-08-22T07:12:52.000Z</time>
      </trkpt>
      <trkpt lat="39.92497782222926616668701171875" lon="-0.88133758865296840667724609375">
        <ele>1305.5999755859375</ele>
        <time>2020-08-22T07:13:11.000Z</time>
      </trkpt>
      <trkpt lat="39.9250464700162410736083984375" lon="-0.8816617168486118316650390625">
        <ele>1306.4000244140625</ele>
        <time>2020-08-22T07:13:20.000Z</time>
      </trkpt>
      <trkpt lat="39.92514680139720439910888671875" lon="-0.88190160691738128662109375">
        <ele>1307.4000244140625</ele>
        <time>2020-08-22T07:13:28.000Z</time>
      </trkpt>
      <trkpt lat="39.925256185233592987060546875" lon="-0.8820332027971744537353515625">
        <ele>1308.800048828125</ele>
        <time>2020-08-22T07:13:34.000Z</time>
      </trkpt>
      <trkpt lat="39.925340004265308380126953125" lon="-0.88209740817546844482421875">
        <ele>1309.800048828125</ele>
        <time>2020-08-22T07:13:38.000Z</time>
      </trkpt>
      <trkpt lat="39.92543413303792476654052734375" lon="-0.88214124552905559539794921875">
        <ele>1311</ele>
        <time>2020-08-22T07:13:42.000Z</time>
      </trkpt>
      <trkpt lat="39.9256132543087005615234375" lon="-0.8821639604866504669189453125">
        <ele>1312.199951171875</ele>
        <time>2020-08-22T07:13:49.000Z</time>
      </trkpt>
      <trkpt lat="39.9258162640035152435302734375" lon="-0.8820281736552715301513671875">
        <ele>1313.199951171875</ele>
        <time>2020-08-22T07:13:58.000Z</time>
      </trkpt>
      <trkpt lat="39.9259372986853122711181640625" lon="-0.8816630579531192779541015625">
        <ele>1314.199951171875</ele>
        <time>2020-08-22T07:14:09.000Z</time>
      </trkpt>
      <trkpt lat="39.9261148273944854736328125" lon="-0.88131126947700977325439453125">
        <ele>1315.199951171875</ele>
        <time>2020-08-22T07:14:22.000Z</time>
      </trkpt>
      <trkpt lat="39.9262320064008235931396484375" lon="-0.88115788064897060394287109375">
        <ele>1316.4000244140625</ele>
        <time>2020-08-22T07:14:29.000Z</time>
      </trkpt>
      <trkpt lat="39.92636402137577533721923828125" lon="-0.88102561421692371368408203125">
        <ele>1317.5999755859375</ele>
        <time>2020-08-22T07:14:36.000Z</time>
      </trkpt>
      <trkpt lat="39.9265143088996410369873046875" lon="-0.88090675882995128631591796875">
        <ele>1318.800048828125</ele>
        <time>2020-08-22T07:14:43.000Z</time>
      </trkpt>
      <trkpt lat="39.9266420491039752960205078125" lon="-0.880834423005580902099609375">
        <ele>1319.800048828125</ele>
        <time>2020-08-22T07:14:49.000Z</time>
      </trkpt>
      <trkpt lat="39.92671706713736057281494140625" lon="-0.88075873441994190216064453125">
        <ele>1321</ele>
        <time>2020-08-22T07:14:53.000Z</time>
      </trkpt>
      <trkpt lat="39.92677892558276653289794921875" lon="-0.88054038584232330322265625">
        <ele>1322</ele>
        <time>2020-08-22T07:15:01.000Z</time>
      </trkpt>
      <trkpt lat="39.9267386086285114288330078125" lon="-0.88022128678858280181884765625">
        <ele>1323</ele>
        <time>2020-08-22T07:15:11.000Z</time>
      </trkpt>
      <trkpt lat="39.92669912986457347869873046875" lon="-0.88002942502498626708984375">
        <ele>1324.199951171875</ele>
        <time>2020-08-22T07:15:17.000Z</time>
      </trkpt>
      <trkpt lat="39.926656968891620635986328125" lon="-0.87988031096756458282470703125">
        <ele>1325.4000244140625</ele>
        <time>2020-08-22T07:15:22.000Z</time>
      </trkpt>
      <trkpt lat="39.92659603245556354522705078125" lon="-0.8796574361622333526611328125">
        <ele>1326.4000244140625</ele>
        <time>2020-08-22T07:15:30.000Z</time>
      </trkpt>
      <trkpt lat="39.9265977926552295684814453125" lon="-0.87944881059229373931884765625">
        <ele>1327.4000244140625</ele>
        <time>2020-08-22T07:15:37.000Z</time>
      </trkpt>
      <trkpt lat="39.92672729305922985076904296875" lon="-0.87931235320866107940673828125">
        <ele>1328.5999755859375</ele>
        <time>2020-08-22T07:15:44.000Z</time>
      </trkpt>
      <trkpt lat="39.9268998764455318450927734375" lon="-0.87924219667911529541015625">
        <ele>1329.800048828125</ele>
        <time>2020-08-22T07:15:51.000Z</time>
      </trkpt>
      <trkpt lat="39.92709609679877758026123046875" lon="-0.8790931664407253265380859375">
        <ele>1331</ele>
        <time>2020-08-22T07:16:00.000Z</time>
      </trkpt>
      <trkpt lat="39.92722031660377979278564453125" lon="-0.87885587476193904876708984375">
        <ele>1332</ele>
        <time>2020-08-22T07:16:09.000Z</time>
      </trkpt>
      <trkpt lat="39.927257783710956573486328125" lon="-0.8787010610103607177734375">
        <ele>1332.800048828125</ele>
        <time>2020-08-22T07:16:14.000Z</time>
      </trkpt>
      <trkpt lat="39.92727647535502910614013671875" lon="-0.8786026574671268463134765625">
        <ele>1333.199951171875</ele>
        <time>2020-08-22T07:16:17.000Z</time>
      </trkpt>
      <trkpt lat="39.92732115089893341064453125" lon="-0.87838514707982540130615234375">
        <ele>1334.199951171875</ele>
        <time>2020-08-22T07:16:24.000Z</time>
      </trkpt>
      <trkpt lat="39.92736096493899822235107421875" lon="-0.87820845656096935272216796875">
        <ele>1335.4000244140625</ele>
        <time>2020-08-22T07:16:30.000Z</time>
      </trkpt>
      <trkpt lat="39.92741745896637439727783203125" lon="-0.87799874134361743927001953125">
        <ele>1336.800048828125</ele>
        <time>2020-08-22T07:16:37.000Z</time>
      </trkpt>
      <trkpt lat="39.92747378535568714141845703125" lon="-0.87785406969487667083740234375">
        <ele>1337.800048828125</ele>
        <time>2020-08-22T07:16:42.000Z</time>
      </trkpt>
      <trkpt lat="39.927550815045833587646484375" lon="-0.8777488768100738525390625">
        <ele>1339</ele>
        <time>2020-08-22T07:16:47.000Z</time>
      </trkpt>
      <trkpt lat="39.92760538123548030853271484375" lon="-0.877699591219425201416015625">
        <ele>1340</ele>
        <time>2020-08-22T07:16:50.000Z</time>
      </trkpt>
      <trkpt lat="39.9277206324040889739990234375" lon="-0.87764603085815906524658203125">
        <ele>1341</ele>
        <time>2020-08-22T07:16:55.000Z</time>
      </trkpt>
      <trkpt lat="39.927917607128620147705078125" lon="-0.87763044051826000213623046875">
        <ele>1342.199951171875</ele>
        <time>2020-08-22T07:17:03.000Z</time>
      </trkpt>
      <trkpt lat="39.9280844070017337799072265625" lon="-0.8775961585342884063720703125">
        <ele>1343.199951171875</ele>
        <time>2020-08-22T07:17:10.000Z</time>
      </trkpt>
      <trkpt lat="39.92830954492092132568359375" lon="-0.8775207214057445526123046875">
        <ele>1344.199951171875</ele>
        <time>2020-08-22T07:17:19.000Z</time>
      </trkpt>
      <trkpt lat="39.928507022559642791748046875" lon="-0.87745676748454570770263671875">
        <ele>1345.4000244140625</ele>
        <time>2020-08-22T07:17:27.000Z</time>
      </trkpt>
      <trkpt lat="39.928700812160968780517578125" lon="-0.87738987989723682403564453125">
        <ele>1346.4000244140625</ele>
        <time>2020-08-22T07:17:35.000Z</time>
      </trkpt>
      <trkpt lat="39.928835928440093994140625" lon="-0.877214111387729644775390625">
        <ele>1347.5999755859375</ele>
        <time>2020-08-22T07:17:43.000Z</time>
      </trkpt>
      <trkpt lat="39.9288572184741497039794921875" lon="-0.87704739533364772796630859375">
        <ele>1348.5999755859375</ele>
        <time>2020-08-22T07:17:49.000Z</time>
      </trkpt>
      <trkpt lat="39.92890457622706890106201171875" lon="-0.8769500814378261566162109375">
        <ele>1350.199951171875</ele>
        <time>2020-08-22T07:17:53.000Z</time>
      </trkpt>
      <trkpt lat="39.9290116131305694580078125" lon="-0.87688763625919818878173828125">
        <ele>1351.199951171875</ele>
        <time>2020-08-22T07:17:58.000Z</time>
      </trkpt>
      <trkpt lat="39.9290711246430873870849609375" lon="-0.87689165957272052764892578125">
        <ele>1352.4000244140625</ele>
        <time>2020-08-22T07:18:01.000Z</time>
      </trkpt>
      <trkpt lat="39.9291760660707950592041015625" lon="-0.876937843859195709228515625">
        <ele>1353.5999755859375</ele>
        <time>2020-08-22T07:18:06.000Z</time>
      </trkpt>
      <trkpt lat="39.92929953150451183319091796875" lon="-0.8770121075212955474853515625">
        <ele>1354.5999755859375</ele>
        <time>2020-08-22T07:18:12.000Z</time>
      </trkpt>
      <trkpt lat="39.9294201470911502838134765625" lon="-0.87708578445017337799072265625">
        <ele>1355.800048828125</ele>
        <time>2020-08-22T07:18:18.000Z</time>
      </trkpt>
      <trkpt lat="39.929562471807003021240234375" lon="-0.877134986221790313720703125">
        <ele>1356.800048828125</ele>
        <time>2020-08-22T07:18:24.000Z</time>
      </trkpt>
      <trkpt lat="39.92969716899096965789794921875" lon="-0.87718301452696323394775390625">
        <ele>1358</ele>
        <time>2020-08-22T07:18:30.000Z</time>
      </trkpt>
      <trkpt lat="39.9298214726150035858154296875" lon="-0.877283513545989990234375">
        <ele>1359</ele>
        <time>2020-08-22T07:18:36.000Z</time>
      </trkpt>
      <trkpt lat="39.929893724620342254638671875" lon="-0.8773671649396419525146484375">
        <ele>1360</ele>
        <time>2020-08-22T07:18:40.000Z</time>
      </trkpt>
      <trkpt lat="39.929999001324176788330078125" lon="-0.87748803198337554931640625">
        <ele>1361.4000244140625</ele>
        <time>2020-08-22T07:18:46.000Z</time>
      </trkpt>
      <trkpt lat="39.9300980754196643829345703125" lon="-0.87753622792661190032958984375">
        <ele>1362.4000244140625</ele>
        <time>2020-08-22T07:18:50.000Z</time>
      </trkpt>
      <trkpt lat="39.93025154806673526763916015625" lon="-0.87757729925215244293212890625">
        <ele>1363.5999755859375</ele>
        <time>2020-08-22T07:18:56.000Z</time>
      </trkpt>
      <trkpt lat="39.9304492771625518798828125" lon="-0.877621471881866455078125">
        <ele>1364.5999755859375</ele>
        <time>2020-08-22T07:19:04.000Z</time>
      </trkpt>
      <trkpt lat="39.93061733432114124298095703125" lon="-0.877649299800395965576171875">
        <ele>1365.5999755859375</ele>
        <time>2020-08-22T07:19:11.000Z</time>
      </trkpt>
      <trkpt lat="39.93078279308974742889404296875" lon="-0.8776578493416309356689453125">
        <ele>1366.800048828125</ele>
        <time>2020-08-22T07:19:18.000Z</time>
      </trkpt>
      <trkpt lat="39.93101128377020359039306640625" lon="-0.87765290401875972747802734375">
        <ele>1367.800048828125</ele>
        <time>2020-08-22T07:19:27.000Z</time>
      </trkpt>
      <trkpt lat="39.9311595596373081207275390625" lon="-0.877599008381366729736328125">
        <ele>1368.800048828125</ele>
        <time>2020-08-22T07:19:33.000Z</time>
      </trkpt>
      <trkpt lat="39.93130867369472980499267578125" lon="-0.87745157070457935333251953125">
        <ele>1369.800048828125</ele>
        <time>2020-08-22T07:19:41.000Z</time>
      </trkpt>
      <trkpt lat="39.93141612969338893890380859375" lon="-0.87729080580174922943115234375">
        <ele>1371</ele>
        <time>2020-08-22T07:19:48.000Z</time>
      </trkpt>
      <trkpt lat="39.93153766728937625885009765625" lon="-0.877173207700252532958984375">
        <ele>1372.199951171875</ele>
        <time>2020-08-22T07:19:54.000Z</time>
      </trkpt>
      <trkpt lat="39.9316668324172496795654296875" lon="-0.8771448768675327301025390625">
        <ele>1373.199951171875</ele>
        <time>2020-08-22T07:19:59.000Z</time>
      </trkpt>
      <trkpt lat="39.93184561841189861297607421875" lon="-0.8771676756441593170166015625">
        <ele>1374.4000244140625</ele>
        <time>2020-08-22T07:20:06.000Z</time>
      </trkpt>
      <trkpt lat="39.9320477060973644256591796875" lon="-0.8772126026451587677001953125">
        <ele>1375.4000244140625</ele>
        <time>2020-08-22T07:20:14.000Z</time>
      </trkpt>
      <trkpt lat="39.9322317726910114288330078125" lon="-0.8772419393062591552734375">
        <ele>1376.4000244140625</ele>
        <time>2020-08-22T07:20:21.000Z</time>
      </trkpt>
      <trkpt lat="39.93252689950168132781982421875" lon="-0.87729499675333499908447265625">
        <ele>1377.4000244140625</ele>
        <time>2020-08-22T07:20:32.000Z</time>
      </trkpt>
      <trkpt lat="39.93276628665626049041748046875" lon="-0.8773265965282917022705078125">
        <ele>1378.5999755859375</ele>
        <time>2020-08-22T07:20:41.000Z</time>
      </trkpt>
      <trkpt lat="39.9329598248004913330078125" lon="-0.8773492276668548583984375">
        <ele>1379.5999755859375</ele>
        <time>2020-08-22T07:20:48.000Z</time>
      </trkpt>
      <trkpt lat="39.9332218430936336517333984375" lon="-0.8774077333509922027587890625">
        <ele>1380.800048828125</ele>
        <time>2020-08-22T07:20:58.000Z</time>
      </trkpt>
      <trkpt lat="39.9334307201206684112548828125" lon="-0.8774586953222751617431640625">
        <ele>1381.800048828125</ele>
        <time>2020-08-22T07:21:06.000Z</time>
      </trkpt>
      <trkpt lat="39.93377513252198696136474609375" lon="-0.87751862592995166778564453125">
        <ele>1383</ele>
        <time>2020-08-22T07:21:19.000Z</time>
      </trkpt>
      <trkpt lat="39.933927096426486968994140625" lon="-0.8775545842945575714111328125">
        <ele>1384</ele>
        <time>2020-08-22T07:21:25.000Z</time>
      </trkpt>
      <trkpt lat="39.93407973088324069976806640625" lon="-0.8776035346090793609619140625">
        <ele>1385.199951171875</ele>
        <time>2020-08-22T07:21:31.000Z</time>
      </trkpt>
      <trkpt lat="39.93419489823281764984130859375" lon="-0.87765390984714031219482421875">
        <ele>1386.5999755859375</ele>
        <time>2020-08-22T07:21:36.000Z</time>
      </trkpt>
      <trkpt lat="39.93428525514900684356689453125" lon="-0.87769397534430027008056640625">
        <ele>1387.800048828125</ele>
        <time>2020-08-22T07:21:40.000Z</time>
      </trkpt>
      <trkpt lat="39.934380389750003814697265625" lon="-0.877740494906902313232421875">
        <ele>1389</ele>
        <time>2020-08-22T07:21:44.000Z</time>
      </trkpt>
      <trkpt lat="39.93447619490325450897216796875" lon="-0.87779053486883640289306640625">
        <ele>1390</ele>
        <time>2020-08-22T07:21:48.000Z</time>
      </trkpt>
      <trkpt lat="39.93460829369723796844482421875" lon="-0.87784769944846630096435546875">
        <ele>1391</ele>
        <time>2020-08-22T07:21:53.000Z</time>
      </trkpt>
      <trkpt lat="39.935170300304889678955078125" lon="-0.87792414240539073944091796875">
        <ele>1391.5999755859375</ele>
        <time>2020-08-22T07:22:12.000Z</time>
      </trkpt>
      <trkpt lat="39.93532243184745311737060546875" lon="-0.8779334463179111480712890625">
        <ele>1392</ele>
        <time>2020-08-22T07:22:17.000Z</time>
      </trkpt>
      <trkpt lat="39.935630299150943756103515625" lon="-0.87795599363744258880615234375">
        <ele>1393</ele>
        <time>2020-08-22T07:22:28.000Z</time>
      </trkpt>
      <trkpt lat="39.93584630079567432403564453125" lon="-0.8780085481703281402587890625">
        <ele>1394.199951171875</ele>
        <time>2020-08-22T07:22:36.000Z</time>
      </trkpt>
      <trkpt lat="39.9359409324824810028076171875" lon="-0.87807149626314640045166015625">
        <ele>1395.199951171875</ele>
        <time>2020-08-22T07:22:40.000Z</time>
      </trkpt>
      <trkpt lat="39.9361970834434032440185546875" lon="-0.87826260365545749664306640625">
        <ele>1396.199951171875</ele>
        <time>2020-08-22T07:22:50.000Z</time>
      </trkpt>
      <trkpt lat="39.93651836179196834564208984375" lon="-0.87828037329018115997314453125">
        <ele>1397.4000244140625</ele>
        <time>2020-08-22T07:23:01.000Z</time>
      </trkpt>
      <trkpt lat="39.93669387884438037872314453125" lon="-0.8781671337783336639404296875">
        <ele>1398.5999755859375</ele>
        <time>2020-08-22T07:23:08.000Z</time>
      </trkpt>
      <trkpt lat="39.93678842671215534210205078125" lon="-0.87810762226581573486328125">
        <ele>1399.800048828125</ele>
        <time>2020-08-22T07:23:12.000Z</time>
      </trkpt>
      <trkpt lat="39.93706762790679931640625" lon="-0.8781446702778339385986328125">
        <ele>1400.800048828125</ele>
        <time>2020-08-22T07:23:22.000Z</time>
      </trkpt>
      <trkpt lat="39.93728513829410076141357421875" lon="-0.8782408945262432098388671875">
        <ele>1401.800048828125</ele>
        <time>2020-08-22T07:23:30.000Z</time>
      </trkpt>
      <trkpt lat="39.93756794370710849761962890625" lon="-0.87836201302707195281982421875">
        <ele>1402.800048828125</ele>
        <time>2020-08-22T07:23:41.000Z</time>
      </trkpt>
      <trkpt lat="39.9378157965838909149169921875" lon="-0.87847734801471233367919921875">
        <ele>1404</ele>
        <time>2020-08-22T07:23:51.000Z</time>
      </trkpt>
      <trkpt lat="39.93803833611309528350830078125" lon="-0.87857524864375591278076171875">
        <ele>1405</ele>
        <time>2020-08-22T07:24:00.000Z</time>
      </trkpt>
      <trkpt lat="39.9382697604596614837646484375" lon="-0.8786581456661224365234375">
        <ele>1406</ele>
        <time>2020-08-22T07:24:09.000Z</time>
      </trkpt>
      <trkpt lat="39.93847419507801532745361328125" lon="-0.8787082694470882415771484375">
        <ele>1407</ele>
        <time>2020-08-22T07:24:17.000Z</time>
      </trkpt>
      <trkpt lat="39.93870310485363006591796875" lon="-0.8787022344768047332763671875">
        <ele>1408</ele>
        <time>2020-08-22T07:24:26.000Z</time>
      </trkpt>
      <trkpt lat="39.938884489238262176513671875" lon="-0.878698714077472686767578125">
        <ele>1409.199951171875</ele>
        <time>2020-08-22T07:24:33.000Z</time>
      </trkpt>
      <trkpt lat="39.9390591681003570556640625" lon="-0.878722183406352996826171875">
        <ele>1410.4000244140625</ele>
        <time>2020-08-22T07:24:40.000Z</time>
      </trkpt>
      <trkpt lat="39.9392112158238887786865234375" lon="-0.87874439544975757598876953125">
        <ele>1411.4000244140625</ele>
        <time>2020-08-22T07:24:46.000Z</time>
      </trkpt>
      <trkpt lat="39.9393651075661182403564453125" lon="-0.87877012789249420166015625">
        <ele>1412.4000244140625</ele>
        <time>2020-08-22T07:24:52.000Z</time>
      </trkpt>
      <trkpt lat="39.93953098542988300323486328125" lon="-0.87880323641002178192138671875">
        <ele>1413.4000244140625</ele>
        <time>2020-08-22T07:24:58.000Z</time>
      </trkpt>
      <trkpt lat="39.9398046545684337615966796875" lon="-0.87886400520801544189453125">
        <ele>1414.5999755859375</ele>
        <time>2020-08-22T07:25:08.000Z</time>
      </trkpt>
      <trkpt lat="39.94026155211031436920166015625" lon="-0.87905050255358219146728515625">
        <ele>1415.5999755859375</ele>
        <time>2020-08-22T07:25:25.000Z</time>
      </trkpt>
      <trkpt lat="39.9404879473149776458740234375" lon="-0.87926960550248622894287109375">
        <ele>1416.5999755859375</ele>
        <time>2020-08-22T07:25:35.000Z</time>
      </trkpt>
      <trkpt lat="39.94080939330160617828369140625" lon="-0.879732705652713775634765625">
        <ele>1418</ele>
        <time>2020-08-22T07:25:51.000Z</time>
      </trkpt>
      <trkpt lat="39.940910898149013519287109375" lon="-0.87996111251413822174072265625">
        <ele>1419</ele>
        <time>2020-08-22T07:25:58.000Z</time>
      </trkpt>
      <trkpt lat="39.941018186509609222412109375" lon="-0.88028582744300365447998046875">
        <ele>1420.199951171875</ele>
        <time>2020-08-22T07:26:08.000Z</time>
      </trkpt>
      <trkpt lat="39.94106655009090900421142578125" lon="-0.8804010786116123199462890625">
        <ele>1421.199951171875</ele>
        <time>2020-08-22T07:26:12.000Z</time>
      </trkpt>
      <trkpt lat="39.941117428243160247802734375" lon="-0.88051498867571353912353515625">
        <ele>1422.4000244140625</ele>
        <time>2020-08-22T07:26:16.000Z</time>
      </trkpt>
      <trkpt lat="39.94116545654833316802978515625" lon="-0.88062915019690990447998046875">
        <ele>1423.5999755859375</ele>
        <time>2020-08-22T07:26:20.000Z</time>
      </trkpt>
      <trkpt lat="39.941212646663188934326171875" lon="-0.8807470835745334625244140625">
        <ele>1424.5999755859375</ele>
        <time>2020-08-22T07:26:24.000Z</time>
      </trkpt>
      <trkpt lat="39.94129143655300140380859375" lon="-0.8809485845267772674560546875">
        <ele>1425.800048828125</ele>
        <time>2020-08-22T07:26:31.000Z</time>
      </trkpt>
      <trkpt lat="39.94135991670191287994384765625" lon="-0.88110188953578472137451171875">
        <ele>1426.800048828125</ele>
        <time>2020-08-22T07:26:37.000Z</time>
      </trkpt>
      <trkpt lat="39.9414381198585033416748046875" lon="-0.88129081763327121734619140625">
        <ele>1428</ele>
        <time>2020-08-22T07:26:44.000Z</time>
      </trkpt>
      <trkpt lat="39.9415028281509876251220703125" lon="-0.8814183063805103302001953125">
        <ele>1429.4000244140625</ele>
        <time>2020-08-22T07:26:49.000Z</time>
      </trkpt>
      <trkpt lat="39.9415661953389644622802734375" lon="-0.88151344098150730133056640625">
        <ele>1430.5999755859375</ele>
        <time>2020-08-22T07:26:53.000Z</time>
      </trkpt>
      <trkpt lat="39.9416074343025684356689453125" lon="-0.8815871179103851318359375">
        <ele>1431.5999755859375</ele>
        <time>2020-08-22T07:26:56.000Z</time>
      </trkpt>
      <trkpt lat="39.941653870046138763427734375" lon="-0.88166196830570697784423828125">
        <ele>1432.800048828125</ele>
        <time>2020-08-22T07:26:59.000Z</time>
      </trkpt>
      <trkpt lat="39.94178387336432933807373046875" lon="-0.88187805376946926116943359375">
        <ele>1434</ele>
        <time>2020-08-22T07:27:08.000Z</time>
      </trkpt>
      <trkpt lat="39.941856376826763153076171875" lon="-0.8819990046322345733642578125">
        <ele>1435.199951171875</ele>
        <time>2020-08-22T07:27:13.000Z</time>
      </trkpt>
      <trkpt lat="39.9419386871159076690673828125" lon="-0.882152728736400604248046875">
        <ele>1436.199951171875</ele>
        <time>2020-08-22T07:27:19.000Z</time>
      </trkpt>
      <trkpt lat="39.941993169486522674560546875" lon="-0.88225540705025196075439453125">
        <ele>1437.4000244140625</ele>
        <time>2020-08-22T07:27:23.000Z</time>
      </trkpt>
      <trkpt lat="39.94206433184444904327392578125" lon="-0.8824083767831325531005859375">
        <ele>1438.4000244140625</ele>
        <time>2020-08-22T07:27:29.000Z</time>
      </trkpt>
      <trkpt lat="39.94214815087616443634033203125" lon="-0.88261649943888187408447265625">
        <ele>1439.5999755859375</ele>
        <time>2020-08-22T07:27:37.000Z</time>
      </trkpt>
      <trkpt lat="39.94218486361205577850341796875" lon="-0.8826876617968082427978515625">
        <ele>1440.800048828125</ele>
        <time>2020-08-22T07:27:40.000Z</time>
      </trkpt>
      <trkpt lat="39.94222308509051799774169921875" lon="-0.88276368565857410430908203125">
        <ele>1442</ele>
        <time>2020-08-22T07:27:43.000Z</time>
      </trkpt>
      <trkpt lat="39.94228762574493885040283203125" lon="-0.88289025239646434783935546875">
        <ele>1443.199951171875</ele>
        <time>2020-08-22T07:27:48.000Z</time>
      </trkpt>
      <trkpt lat="39.9423396773636341094970703125" lon="-0.88299435563385486602783203125">
        <ele>1444.199951171875</ele>
        <time>2020-08-22T07:27:52.000Z</time>
      </trkpt>
      <trkpt lat="39.9424687586724758148193359375" lon="-0.88325754739344120025634765625">
        <ele>1445.199951171875</ele>
        <time>2020-08-22T07:28:02.000Z</time>
      </trkpt>
      <trkpt lat="39.94255266152322292327880859375" lon="-0.88344924151897430419921875">
        <ele>1446.4000244140625</ele>
        <time>2020-08-22T07:28:09.000Z</time>
      </trkpt>
      <trkpt lat="39.94261770509183406829833984375" lon="-0.8836162090301513671875">
        <ele>1447.5999755859375</ele>
        <time>2020-08-22T07:28:15.000Z</time>
      </trkpt>
      <trkpt lat="39.9426855146884918212890625" lon="-0.88378996588289737701416015625">
        <ele>1448.5999755859375</ele>
        <time>2020-08-22T07:28:21.000Z</time>
      </trkpt>
      <trkpt lat="39.94276522658765316009521484375" lon="-0.88398207910358905792236328125">
        <ele>1449.5999755859375</ele>
        <time>2020-08-22T07:28:28.000Z</time>
      </trkpt>
      <trkpt lat="39.94284334592521190643310546875" lon="-0.8840904571115970611572265625">
        <ele>1450.800048828125</ele>
        <time>2020-08-22T07:28:33.000Z</time>
      </trkpt>
      <trkpt lat="39.94292716495692729949951171875" lon="-0.88415189646184444427490234375">
        <ele>1452</ele>
        <time>2020-08-22T07:28:37.000Z</time>
      </trkpt>
      <trkpt lat="39.94299422018229961395263671875" lon="-0.8842061273753643035888671875">
        <ele>1453</ele>
        <time>2020-08-22T07:28:40.000Z</time>
      </trkpt>
      <trkpt lat="39.94309522211551666259765625" lon="-0.8843497931957244873046875">
        <ele>1454</ele>
        <time>2020-08-22T07:28:46.000Z</time>
      </trkpt>
      <trkpt lat="39.9431493692100048065185546875" lon="-0.88445364497601985931396484375">
        <ele>1455.199951171875</ele>
        <time>2020-08-22T07:28:50.000Z</time>
      </trkpt>
      <trkpt lat="39.943191446363925933837890625" lon="-0.8845323510468006134033203125">
        <ele>1456.199951171875</ele>
        <time>2020-08-22T07:28:53.000Z</time>
      </trkpt>
      <trkpt lat="39.94328297674655914306640625" lon="-0.8847244642674922943115234375">
        <ele>1457.4000244140625</ele>
        <time>2020-08-22T07:29:00.000Z</time>
      </trkpt>
      <trkpt lat="39.94332312606275081634521484375" lon="-0.88480602018535137176513671875">
        <ele>1458.4000244140625</ele>
        <time>2020-08-22T07:29:03.000Z</time>
      </trkpt>
      <trkpt lat="39.94338934309780597686767578125" lon="-0.8849400468170642852783203125">
        <ele>1459.5999755859375</ele>
        <time>2020-08-22T07:29:08.000Z</time>
      </trkpt>
      <trkpt lat="39.94344365783035755157470703125" lon="-0.885042808949947357177734375">
        <ele>1461</ele>
        <time>2020-08-22T07:29:12.000Z</time>
      </trkpt>
      <trkpt lat="39.9435141496360301971435546875" lon="-0.8851727284491062164306640625">
        <ele>1462.199951171875</ele>
        <time>2020-08-22T07:29:17.000Z</time>
      </trkpt>
      <trkpt lat="39.94360140524804592132568359375" lon="-0.88533374480903148651123046875">
        <ele>1463.4000244140625</ele>
        <time>2020-08-22T07:29:23.000Z</time>
      </trkpt>
      <trkpt lat="39.943704418838024139404296875" lon="-0.8855301328003406524658203125">
        <ele>1464.5999755859375</ele>
        <time>2020-08-22T07:29:30.000Z</time>
      </trkpt>
      <trkpt lat="39.94377289898693561553955078125" lon="-0.885673128068447113037109375">
        <ele>1465.5999755859375</ele>
        <time>2020-08-22T07:29:35.000Z</time>
      </trkpt>
      <trkpt lat="39.94383760727941989898681640625" lon="-0.88583196513354778289794921875">
        <ele>1466.5999755859375</ele>
        <time>2020-08-22T07:29:40.000Z</time>
      </trkpt>
      <trkpt lat="39.94396249763667583465576171875" lon="-0.88618635199964046478271484375">
        <ele>1467.800048828125</ele>
        <time>2020-08-22T07:29:51.000Z</time>
      </trkpt>
      <trkpt lat="39.9440318159759044647216796875" lon="-0.88642020709812641143798828125">
        <ele>1468.800048828125</ele>
        <time>2020-08-22T07:29:58.000Z</time>
      </trkpt>
      <trkpt lat="39.94413617067039012908935546875" lon="-0.8866777829825878143310546875">
        <ele>1470</ele>
        <time>2020-08-22T07:30:07.000Z</time>
      </trkpt>
      <trkpt lat="39.94421713985502719879150390625" lon="-0.88684064336121082305908203125">
        <ele>1471</ele>
        <time>2020-08-22T07:30:13.000Z</time>
      </trkpt>
      <trkpt lat="39.94429458864033222198486328125" lon="-0.88697995059192180633544921875">
        <ele>1472.199951171875</ele>
        <time>2020-08-22T07:30:18.000Z</time>
      </trkpt>
      <trkpt lat="39.9443516694009304046630859375" lon="-0.88709042407572269439697265625">
        <ele>1473.5999755859375</ele>
        <time>2020-08-22T07:30:22.000Z</time>
      </trkpt>
      <trkpt lat="39.94445501826703548431396484375" lon="-0.8873087726533412933349609375">
        <ele>1474.800048828125</ele>
        <time>2020-08-22T07:30:30.000Z</time>
      </trkpt>
      <trkpt lat="39.9445162899792194366455078125" lon="-0.88744430802762508392333984375">
        <ele>1476</ele>
        <time>2020-08-22T07:30:35.000Z</time>
      </trkpt>
      <trkpt lat="39.94458879344165325164794921875" lon="-0.88759769685566425323486328125">
        <ele>1477.199951171875</ele>
        <time>2020-08-22T07:30:41.000Z</time>
      </trkpt>
      <trkpt lat="39.94466791860759258270263671875" lon="-0.88774287141859531402587890625">
        <ele>1478.199951171875</ele>
        <time>2020-08-22T07:30:47.000Z</time>
      </trkpt>
      <trkpt lat="39.94471720419824123382568359375" lon="-0.88783540762960910797119140625">
        <ele>1479.4000244140625</ele>
        <time>2020-08-22T07:30:51.000Z</time>
      </trkpt>
      <trkpt lat="39.94477973319590091705322265625" lon="-0.88794437237083911895751953125">
        <ele>1480.4000244140625</ele>
        <time>2020-08-22T07:30:56.000Z</time>
      </trkpt>
      <trkpt lat="39.94485382921993732452392578125" lon="-0.888068340718746185302734375">
        <ele>1481.5999755859375</ele>
        <time>2020-08-22T07:31:02.000Z</time>
      </trkpt>
      <trkpt lat="39.94492758996784687042236328125" lon="-0.88818543590605258941650390625">
        <ele>1482.800048828125</ele>
        <time>2020-08-22T07:31:08.000Z</time>
      </trkpt>
      <trkpt lat="39.94498676620423793792724609375" lon="-0.88828526437282562255859375">
        <ele>1484</ele>
        <time>2020-08-22T07:31:13.000Z</time>
      </trkpt>
      <trkpt lat="39.9450619518756866455078125" lon="-0.88840336538851261138916015625">
        <ele>1485.4000244140625</ele>
        <time>2020-08-22T07:31:19.000Z</time>
      </trkpt>
      <trkpt lat="39.94512431323528289794921875" lon="-0.8885060437023639678955078125">
        <ele>1486.4000244140625</ele>
        <time>2020-08-22T07:31:24.000Z</time>
      </trkpt>
      <trkpt lat="39.9451724253594875335693359375" lon="-0.88858692906796932220458984375">
        <ele>1487.5999755859375</ele>
        <time>2020-08-22T07:31:28.000Z</time>
      </trkpt>
      <trkpt lat="39.94525280781090259552001953125" lon="-0.88872975669801235198974609375">
        <ele>1488.800048828125</ele>
        <time>2020-08-22T07:31:35.000Z</time>
      </trkpt>
      <trkpt lat="39.9452884308993816375732421875" lon="-0.88881609030067920684814453125">
        <ele>1490</ele>
        <time>2020-08-22T07:31:39.000Z</time>
      </trkpt>
      <trkpt lat="39.9453435838222503662109375" lon="-0.88894885964691638946533203125">
        <ele>1491.199951171875</ele>
        <time>2020-08-22T07:31:45.000Z</time>
      </trkpt>
      <trkpt lat="39.945374764502048492431640625" lon="-0.8890401385724544525146484375">
        <ele>1492.4000244140625</ele>
        <time>2020-08-22T07:31:49.000Z</time>
      </trkpt>
      <trkpt lat="39.9454124830663204193115234375" lon="-0.88915295898914337158203125">
        <ele>1493.4000244140625</ele>
        <time>2020-08-22T07:31:54.000Z</time>
      </trkpt>
      <trkpt lat="39.94545363821089267730712890625" lon="-0.88926502503454685211181640625">
        <ele>1494.5999755859375</ele>
        <time>2020-08-22T07:31:59.000Z</time>
      </trkpt>
      <trkpt lat="39.9454939551651477813720703125" lon="-0.88938538916409015655517578125">
        <ele>1495.5999755859375</ele>
        <time>2020-08-22T07:32:04.000Z</time>
      </trkpt>
      <trkpt lat="39.945527650415897369384765625" lon="-0.88948228396475315093994140625">
        <ele>1496.5999755859375</ele>
        <time>2020-08-22T07:32:08.000Z</time>
      </trkpt>
      <trkpt lat="39.9455999024212360382080078125" lon="-0.88964438997209072113037109375">
        <ele>1497.800048828125</ele>
        <time>2020-08-22T07:32:15.000Z</time>
      </trkpt>
      <trkpt lat="39.94575287215411663055419921875" lon="-0.88996642269194126129150390625">
        <ele>1498.4000244140625</ele>
        <time>2020-08-22T07:32:32.000Z</time>
      </trkpt>
      <trkpt lat="39.94574725627899169921875" lon="-0.889986790716648101806640625">
        <ele>1497.800048828125</ele>
        <time>2020-08-22T07:42:03.000Z</time>
      </trkpt>
      <trkpt lat="39.94578405283391475677490234375" lon="-0.89006030000746250152587890625">
        <ele>1497.800048828125</ele>
        <time>2020-08-22T07:42:12.000Z</time>
      </trkpt>
      <trkpt lat="39.94601706974208354949951171875" lon="-0.890522561967372894287109375">
        <ele>1496.5999755859375</ele>
        <time>2020-08-22T07:42:34.000Z</time>
      </trkpt>
      <trkpt lat="39.94638168253004550933837890625" lon="-0.891059674322605133056640625">
        <ele>1495.800048828125</ele>
        <time>2020-08-22T07:42:59.000Z</time>
      </trkpt>
      <trkpt lat="39.9465854465961456298828125" lon="-0.8912807889282703399658203125">
        <ele>1495.4000244140625</ele>
        <time>2020-08-22T07:43:10.000Z</time>
      </trkpt>
      <trkpt lat="39.94688593782484531402587890625" lon="-0.891645736992359161376953125">
        <ele>1494.4000244140625</ele>
        <time>2020-08-22T07:43:23.000Z</time>
      </trkpt>
      <trkpt lat="39.9470741115510463714599609375" lon="-0.89190088212490081787109375">
        <ele>1493.4000244140625</ele>
        <time>2020-08-22T07:43:29.000Z</time>
      </trkpt>
      <trkpt lat="39.94733202271163463592529296875" lon="-0.89233447797596454620361328125">
        <ele>1492.4000244140625</ele>
        <time>2020-08-22T07:43:35.000Z</time>
      </trkpt>
      <trkpt lat="39.9474249780178070068359375" lon="-0.892508737742900848388671875">
        <ele>1491.4000244140625</ele>
        <time>2020-08-22T07:43:37.000Z</time>
      </trkpt>
      <trkpt lat="39.947523213922977447509765625" lon="-0.89269540272653102874755859375">
        <ele>1490</ele>
        <time>2020-08-22T07:43:39.000Z</time>
      </trkpt>
      <trkpt lat="39.9476289935410022735595703125" lon="-0.8928927965462207794189453125">
        <ele>1488.800048828125</ele>
        <time>2020-08-22T07:43:41.000Z</time>
      </trkpt>
      <trkpt lat="39.94785421527922153472900390625" lon="-0.8933165855705738067626953125">
        <ele>1487.199951171875</ele>
        <time>2020-08-22T07:43:45.000Z</time>
      </trkpt>
      <trkpt lat="39.94796804152429103851318359375" lon="-0.89352822862565517425537109375">
        <ele>1485.800048828125</ele>
        <time>2020-08-22T07:43:47.000Z</time>
      </trkpt>
      <trkpt lat="39.9480202607810497283935546875" lon="-0.89362964965403079986572265625">
        <ele>1484.5999755859375</ele>
        <time>2020-08-22T07:43:48.000Z</time>
      </trkpt>
      <trkpt lat="39.94806996546685695648193359375" lon="-0.8937262929975986480712890625">
        <ele>1483.199951171875</ele>
        <time>2020-08-22T07:43:49.000Z</time>
      </trkpt>
      <trkpt lat="39.94811506010591983795166015625" lon="-0.8938228525221347808837890625">
        <ele>1482.4000244140625</ele>
        <time>2020-08-22T07:43:50.000Z</time>
      </trkpt>
      <trkpt lat="39.94815831072628498077392578125" lon="-0.89391924440860748291015625">
        <ele>1481.4000244140625</ele>
        <time>2020-08-22T07:43:51.000Z</time>
      </trkpt>
      <trkpt lat="39.94820793159306049346923828125" lon="-0.8940109424293041229248046875">
        <ele>1480.800048828125</ele>
        <time>2020-08-22T07:43:52.000Z</time>
      </trkpt>
      <trkpt lat="39.94826727546751499176025390625" lon="-0.89409685693681240081787109375">
        <ele>1480.4000244140625</ele>
        <time>2020-08-22T07:43:53.000Z</time>
      </trkpt>
      <trkpt lat="39.948487468063831329345703125" lon="-0.89433632791042327880859375">
        <ele>1479.5999755859375</ele>
        <time>2020-08-22T07:43:56.000Z</time>
      </trkpt>
      <trkpt lat="39.9485771544277667999267578125" lon="-0.89440212585031986236572265625">
        <ele>1479.4000244140625</ele>
        <time>2020-08-22T07:43:57.000Z</time>
      </trkpt>
      <trkpt lat="39.9486747197806835174560546875" lon="-0.8944563567638397216796875">
        <ele>1479.199951171875</ele>
        <time>2020-08-22T07:43:58.000Z</time>
      </trkpt>
      <trkpt lat="39.94889105670154094696044921875" lon="-0.8945178799331188201904296875">
        <ele>1477.800048828125</ele>
        <time>2020-08-22T07:44:00.000Z</time>
      </trkpt>
      <trkpt lat="39.949006140232086181640625" lon="-0.89451896958053112030029296875">
        <ele>1476.800048828125</ele>
        <time>2020-08-22T07:44:01.000Z</time>
      </trkpt>
      <trkpt lat="39.9491209723055362701416015625" lon="-0.89449885301291942596435546875">
        <ele>1476.199951171875</ele>
        <time>2020-08-22T07:44:02.000Z</time>
      </trkpt>
      <trkpt lat="39.94934485293924808502197265625" lon="-0.89443380944430828094482421875">
        <ele>1475.4000244140625</ele>
        <time>2020-08-22T07:44:04.000Z</time>
      </trkpt>
      <trkpt lat="39.9495678953826427459716796875" lon="-0.8943921513855457305908203125">
        <ele>1473</ele>
        <time>2020-08-22T07:44:06.000Z</time>
      </trkpt>
      <trkpt lat="39.94968004524707794189453125" lon="-0.89438620023429393768310546875">
        <ele>1471.5999755859375</ele>
        <time>2020-08-22T07:44:07.000Z</time>
      </trkpt>
      <trkpt lat="39.949791021645069122314453125" lon="-0.8943851105868816375732421875">
        <ele>1470.199951171875</ele>
        <time>2020-08-22T07:44:08.000Z</time>
      </trkpt>
      <trkpt lat="39.9499014951288700103759765625" lon="-0.89438620023429393768310546875">
        <ele>1469.199951171875</ele>
        <time>2020-08-22T07:44:09.000Z</time>
      </trkpt>
      <trkpt lat="39.95012084953486919403076171875" lon="-0.894395671784877777099609375">
        <ele>1467.800048828125</ele>
        <time>2020-08-22T07:44:11.000Z</time>
      </trkpt>
      <trkpt lat="39.95044648647308349609375" lon="-0.89437161572277545928955078125">
        <ele>1466.4000244140625</ele>
        <time>2020-08-22T07:44:14.000Z</time>
      </trkpt>
      <trkpt lat="39.95074563659727573394775390625" lon="-0.89427824132144451141357421875">
        <ele>1465.199951171875</ele>
        <time>2020-08-22T07:44:17.000Z</time>
      </trkpt>
      <trkpt lat="39.95111108757555484771728515625" lon="-0.89414454996585845947265625">
        <ele>1464</ele>
        <time>2020-08-22T07:44:21.000Z</time>
      </trkpt>
      <trkpt lat="39.95129599235951900482177734375" lon="-0.89409082196652889251708984375">
        <ele>1462</ele>
        <time>2020-08-22T07:44:23.000Z</time>
      </trkpt>
      <trkpt lat="39.95149112306535243988037109375" lon="-0.89406073093414306640625">
        <ele>1461</ele>
        <time>2020-08-22T07:44:25.000Z</time>
      </trkpt>
      <trkpt lat="39.95159153826534748077392578125" lon="-0.89406383223831653594970703125">
        <ele>1460.5999755859375</ele>
        <time>2020-08-22T07:44:26.000Z</time>
      </trkpt>
      <trkpt lat="39.951881468296051025390625" lon="-0.8941371738910675048828125">
        <ele>1459.4000244140625</ele>
        <time>2020-08-22T07:44:29.000Z</time>
      </trkpt>
      <trkpt lat="39.95222277939319610595703125" lon="-0.89431495405733585357666015625">
        <ele>1458.4000244140625</ele>
        <time>2020-08-22T07:44:33.000Z</time>
      </trkpt>
      <trkpt lat="39.95237968862056732177734375" lon="-0.89442710392177104949951171875">
        <ele>1457.4000244140625</ele>
        <time>2020-08-22T07:44:35.000Z</time>
      </trkpt>
      <trkpt lat="39.9526799283921718597412109375" lon="-0.8946781419217586517333984375">
        <ele>1456</ele>
        <time>2020-08-22T07:44:39.000Z</time>
      </trkpt>
      <trkpt lat="39.95310430414974689483642578125" lon="-0.89513889513909816741943359375">
        <ele>1455</ele>
        <time>2020-08-22T07:44:45.000Z</time>
      </trkpt>
      <trkpt lat="39.95341074652969837188720703125" lon="-0.89555111713707447052001953125">
        <ele>1453.800048828125</ele>
        <time>2020-08-22T07:44:50.000Z</time>
      </trkpt>
      <trkpt lat="39.953518621623516082763671875" lon="-0.895711965858936309814453125">
        <ele>1452.5999755859375</ele>
        <time>2020-08-22T07:44:52.000Z</time>
      </trkpt>
      <trkpt lat="39.95395322330296039581298828125" lon="-0.89626207016408443450927734375">
        <ele>1451.5999755859375</ele>
        <time>2020-08-22T07:45:00.000Z</time>
      </trkpt>
      <trkpt lat="39.95435689575970172882080078125" lon="-0.89673464186489582061767578125">
        <ele>1452</ele>
        <time>2020-08-22T07:45:08.000Z</time>
      </trkpt>
      <trkpt lat="39.95479124598205089569091796875" lon="-0.89716069400310516357421875">
        <ele>1451.800048828125</ele>
        <time>2020-08-22T07:45:17.000Z</time>
      </trkpt>
      <trkpt lat="39.95496139861643314361572265625" lon="-0.89733646251261234283447265625">
        <ele>1451.5999755859375</ele>
        <time>2020-08-22T07:45:21.000Z</time>
      </trkpt>
      <trkpt lat="39.9549968540668487548828125" lon="-0.8973804675042629241943359375">
        <ele>1451.4000244140625</ele>
        <time>2020-08-22T07:45:22.000Z</time>
      </trkpt>
      <trkpt lat="39.9553829245269298553466796875" lon="-0.89791364036500453948974609375">
        <ele>1452.4000244140625</ele>
        <time>2020-08-22T07:45:35.000Z</time>
      </trkpt>
      <trkpt lat="39.95540882460772991180419921875" lon="-0.89795370586216449737548828125">
        <ele>1452.5999755859375</ele>
        <time>2020-08-22T07:45:36.000Z</time>
      </trkpt>
      <trkpt lat="39.95567478239536285400390625" lon="-0.89841186068952083587646484375">
        <ele>1453.800048828125</ele>
        <time>2020-08-22T07:45:47.000Z</time>
      </trkpt>
      <trkpt lat="39.955764971673488616943359375" lon="-0.898582600057125091552734375">
        <ele>1454.800048828125</ele>
        <time>2020-08-22T07:45:51.000Z</time>
      </trkpt>
      <trkpt lat="39.95607568882405757904052734375" lon="-0.89918584562838077545166015625">
        <ele>1455.4000244140625</ele>
        <time>2020-08-22T07:46:05.000Z</time>
      </trkpt>
      <trkpt lat="39.95635606348514556884765625" lon="-0.8998239599168300628662109375">
        <ele>1455.4000244140625</ele>
        <time>2020-08-22T07:46:18.000Z</time>
      </trkpt>
      <trkpt lat="39.95660819113254547119140625" lon="-0.90044531039893627166748046875">
        <ele>1455.4000244140625</ele>
        <time>2020-08-22T07:46:30.000Z</time>
      </trkpt>
      <trkpt lat="39.95694355107843875885009765625" lon="-0.90104981325566768646240234375">
        <ele>1455.5999755859375</ele>
        <time>2020-08-22T07:46:44.000Z</time>
      </trkpt>
      <trkpt lat="39.95706307701766490936279296875" lon="-0.90117990039288997650146484375">
        <ele>1455.800048828125</ele>
        <time>2020-08-22T07:46:48.000Z</time>
      </trkpt>
      <trkpt lat="39.95755593292415142059326171875" lon="-0.90155859477818012237548828125">
        <ele>1456.800048828125</ele>
        <time>2020-08-22T07:47:03.000Z</time>
      </trkpt>
      <trkpt lat="39.95801760815083980560302734375" lon="-0.90193175710737705230712890625">
        <ele>1457.800048828125</ele>
        <time>2020-08-22T07:47:18.000Z</time>
      </trkpt>
      <trkpt lat="39.95818709023296833038330078125" lon="-0.9020750038325786590576171875">
        <ele>1458</ele>
        <time>2020-08-22T07:47:23.000Z</time>
      </trkpt>
      <trkpt lat="39.9587162397801876068115234375" lon="-0.9023951925337314605712890625">
        <ele>1458.199951171875</ele>
        <time>2020-08-22T07:47:36.000Z</time>
      </trkpt>
      <trkpt lat="39.9592077545821666717529296875" lon="-0.90255637653172016143798828125">
        <ele>1457.4000244140625</ele>
        <time>2020-08-22T07:47:45.000Z</time>
      </trkpt>
      <trkpt lat="39.95933054946362972259521484375" lon="-0.902651511132717132568359375">
        <ele>1457.199951171875</ele>
        <time>2020-08-22T07:47:47.000Z</time>
      </trkpt>
      <trkpt lat="39.9593820981681346893310546875" lon="-0.90271286666393280029296875">
        <ele>1456.800048828125</ele>
        <time>2020-08-22T07:47:48.000Z</time>
      </trkpt>
      <trkpt lat="39.95942291803658008575439453125" lon="-0.9027780778706073760986328125">
        <ele>1456.4000244140625</ele>
        <time>2020-08-22T07:47:49.000Z</time>
      </trkpt>
      <trkpt lat="39.95949315838515758514404296875" lon="-0.902957282960414886474609375">
        <ele>1455.800048828125</ele>
        <time>2020-08-22T07:47:52.000Z</time>
      </trkpt>
      <trkpt lat="39.95961721055209636688232421875" lon="-0.90344888158142566680908203125">
        <ele>1457</ele>
        <time>2020-08-22T07:48:03.000Z</time>
      </trkpt>
      <trkpt lat="39.95971393771469593048095703125" lon="-0.90364359319210052490234375">
        <ele>1458</ele>
        <time>2020-08-22T07:48:08.000Z</time>
      </trkpt>
      <trkpt lat="39.96007251553237438201904296875" lon="-0.9042522870004177093505859375">
        <ele>1458.800048828125</ele>
        <time>2020-08-22T07:48:22.000Z</time>
      </trkpt>
      <trkpt lat="39.9604184366762638092041015625" lon="-0.9048158861696720123291015625">
        <ele>1457</ele>
        <time>2020-08-22T07:48:31.000Z</time>
      </trkpt>
      <trkpt lat="39.9605284072458744049072265625" lon="-0.90505577623844146728515625">
        <ele>1455.800048828125</ele>
        <time>2020-08-22T07:48:35.000Z</time>
      </trkpt>
      <trkpt lat="39.96068707667291164398193359375" lon="-0.9055043756961822509765625">
        <ele>1455.4000244140625</ele>
        <time>2020-08-22T07:48:43.000Z</time>
      </trkpt>
      <trkpt lat="39.96097105555236339569091796875" lon="-0.90613494627177715301513671875">
        <ele>1456.4000244140625</ele>
        <time>2020-08-22T07:48:55.000Z</time>
      </trkpt>
      <trkpt lat="39.96127498336136341094970703125" lon="-0.90674950741231441497802734375">
        <ele>1456</ele>
        <time>2020-08-22T07:49:06.000Z</time>
      </trkpt>
      <trkpt lat="39.9613394401967525482177734375" lon="-0.906837768852710723876953125">
        <ele>1456</ele>
        <time>2020-08-22T07:49:08.000Z</time>
      </trkpt>
      <trkpt lat="39.961724840104579925537109375" lon="-0.90733699500560760498046875">
        <ele>1456.4000244140625</ele>
        <time>2020-08-22T07:49:21.000Z</time>
      </trkpt>
      <trkpt lat="39.961807318031787872314453125" lon="-0.9074944071471691131591796875">
        <ele>1457</ele>
        <time>2020-08-22T07:49:25.000Z</time>
      </trkpt>
      <trkpt lat="39.96202952228486537933349609375" lon="-0.907931439578533172607421875">
        <ele>1458.199951171875</ele>
        <time>2020-08-22T07:49:35.000Z</time>
      </trkpt>
      <trkpt lat="39.9624131619930267333984375" lon="-0.9084475971758365631103515625">
        <ele>1458.199951171875</ele>
        <time>2020-08-22T07:49:46.000Z</time>
      </trkpt>
      <trkpt lat="39.9627055227756500244140625" lon="-0.908617079257965087890625">
        <ele>1457</ele>
        <time>2020-08-22T07:49:50.000Z</time>
      </trkpt>
      <trkpt lat="39.962996542453765869140625" lon="-0.90876904316246509552001953125">
        <ele>1455.5999755859375</ele>
        <time>2020-08-22T07:49:53.000Z</time>
      </trkpt>
      <trkpt lat="39.96321178972721099853515625" lon="-0.9088469110429286956787109375">
        <ele>1454.4000244140625</ele>
        <time>2020-08-22T07:49:55.000Z</time>
      </trkpt>
      <trkpt lat="39.9635492451488971710205078125" lon="-0.90894766151905059814453125">
        <ele>1452.199951171875</ele>
        <time>2020-08-22T07:49:58.000Z</time>
      </trkpt>
      <trkpt lat="39.96377237141132354736328125" lon="-0.90904078446328639984130859375">
        <ele>1447.800048828125</ele>
        <time>2020-08-22T07:50:00.000Z</time>
      </trkpt>
      <trkpt lat="39.96388628147542476654052734375" lon="-0.90909007005393505096435546875">
        <ele>1445.4000244140625</ele>
        <time>2020-08-22T07:50:01.000Z</time>
      </trkpt>
      <trkpt lat="39.96399960480630397796630859375" lon="-0.90914547443389892578125">
        <ele>1443.5999755859375</ele>
        <time>2020-08-22T07:50:02.000Z</time>
      </trkpt>
      <trkpt lat="39.9641141854226589202880859375" lon="-0.90920305810868740081787109375">
        <ele>1442</ele>
        <time>2020-08-22T07:50:03.000Z</time>
      </trkpt>
      <trkpt lat="39.96422491036355495452880859375" lon="-0.909260809421539306640625">
        <ele>1440.4000244140625</ele>
        <time>2020-08-22T07:50:04.000Z</time>
      </trkpt>
      <trkpt lat="39.96445767581462860107421875" lon="-0.90936231426894664764404296875">
        <ele>1438.5999755859375</ele>
        <time>2020-08-22T07:50:06.000Z</time>
      </trkpt>
      <trkpt lat="39.96458214707672595977783203125" lon="-0.9093970991671085357666015625">
        <ele>1436.800048828125</ele>
        <time>2020-08-22T07:50:07.000Z</time>
      </trkpt>
      <trkpt lat="39.964712820947170257568359375" lon="-0.90942182578146457672119140625">
        <ele>1435.5999755859375</ele>
        <time>2020-08-22T07:50:08.000Z</time>
      </trkpt>
      <trkpt lat="39.96484919451177120208740234375" lon="-0.90944294817745685577392578125">
        <ele>1434.5999755859375</ele>
        <time>2020-08-22T07:50:09.000Z</time>
      </trkpt>
      <trkpt lat="39.96498045511543750762939453125" lon="-0.9094785712659358978271484375">
        <ele>1433.199951171875</ele>
        <time>2020-08-22T07:50:10.000Z</time>
      </trkpt>
      <trkpt lat="39.96511020697653293609619140625" lon="-0.90952224098145961761474609375">
        <ele>1431.5999755859375</ele>
        <time>2020-08-22T07:50:11.000Z</time>
      </trkpt>
      <trkpt lat="39.96523710899055004119873046875" lon="-0.9095861949026584625244140625">
        <ele>1430.5999755859375</ele>
        <time>2020-08-22T07:50:12.000Z</time>
      </trkpt>
      <trkpt lat="39.96547557413578033447265625" lon="-0.90975659899413585662841796875">
        <ele>1428.4000244140625</ele>
        <time>2020-08-22T07:50:14.000Z</time>
      </trkpt>
      <trkpt lat="39.96558981947600841522216796875" lon="-0.90985399670898914337158203125">
        <ele>1425.800048828125</ele>
        <time>2020-08-22T07:50:15.000Z</time>
      </trkpt>
      <trkpt lat="39.9657047353684902191162109375" lon="-0.9099576808512210845947265625">
        <ele>1424.4000244140625</ele>
        <time>2020-08-22T07:50:16.000Z</time>
      </trkpt>
      <trkpt lat="39.96582166291773319244384765625" lon="-0.9100592695176601409912109375">
        <ele>1421.800048828125</ele>
        <time>2020-08-22T07:50:17.000Z</time>
      </trkpt>
      <trkpt lat="39.96593783609569072723388671875" lon="-0.91015859507024288177490234375">
        <ele>1420.199951171875</ele>
        <time>2020-08-22T07:50:18.000Z</time>
      </trkpt>
      <trkpt lat="39.96616515330970287322998046875" lon="-0.91037862002849578857421875">
        <ele>1418.199951171875</ele>
        <time>2020-08-22T07:50:20.000Z</time>
      </trkpt>
      <trkpt lat="39.9662663228809833526611328125" lon="-0.91050677932798862457275390625">
        <ele>1417.199951171875</ele>
        <time>2020-08-22T07:50:21.000Z</time>
      </trkpt>
      <trkpt lat="39.96635324321687221527099609375" lon="-0.91065212152898311614990234375">
        <ele>1415</ele>
        <time>2020-08-22T07:50:22.000Z</time>
      </trkpt>
      <trkpt lat="39.96643245220184326171875" lon="-0.910805761814117431640625">
        <ele>1412.5999755859375</ele>
        <time>2020-08-22T07:50:23.000Z</time>
      </trkpt>
      <trkpt lat="39.9665083922445774078369140625" lon="-0.91095940209925174713134765625">
        <ele>1410.4000244140625</ele>
        <time>2020-08-22T07:50:24.000Z</time>
      </trkpt>
      <trkpt lat="39.96658734977245330810546875" lon="-0.9111096896231174468994140625">
        <ele>1409</ele>
        <time>2020-08-22T07:50:25.000Z</time>
      </trkpt>
      <trkpt lat="39.96667259372770786285400390625" lon="-0.91125226579606533050537109375">
        <ele>1407</ele>
        <time>2020-08-22T07:50:26.000Z</time>
      </trkpt>
      <trkpt lat="39.96676395647227764129638671875" lon="-0.9113893099129199981689453125">
        <ele>1406</ele>
        <time>2020-08-22T07:50:27.000Z</time>
      </trkpt>
      <trkpt lat="39.96685766614973545074462890625" lon="-0.91152467764914035797119140625">
        <ele>1404.800048828125</ele>
        <time>2020-08-22T07:50:28.000Z</time>
      </trkpt>
      <trkpt lat="39.96694601140916347503662109375" lon="-0.91166482307016849517822265625">
        <ele>1404</ele>
        <time>2020-08-22T07:50:29.000Z</time>
      </trkpt>
      <trkpt lat="39.9670203588902950286865234375" lon="-0.91181226074695587158203125">
        <ele>1402.4000244140625</ele>
        <time>2020-08-22T07:50:30.000Z</time>
      </trkpt>
      <trkpt lat="39.96707894839346408843994140625" lon="-0.9119684994220733642578125">
        <ele>1401.199951171875</ele>
        <time>2020-08-22T07:50:31.000Z</time>
      </trkpt>
      <trkpt lat="39.96715924702584743499755859375" lon="-0.91229111887514591217041015625">
        <ele>1399.199951171875</ele>
        <time>2020-08-22T07:50:33.000Z</time>
      </trkpt>
      <trkpt lat="39.96722278185188770294189453125" lon="-0.9126197732985019683837890625">
        <ele>1396.800048828125</ele>
        <time>2020-08-22T07:50:35.000Z</time>
      </trkpt>
      <trkpt lat="39.9672510288655757904052734375" lon="-0.91278313659131526947021484375">
        <ele>1395.4000244140625</ele>
        <time>2020-08-22T07:50:36.000Z</time>
      </trkpt>
      <trkpt lat="39.9672915972769260406494140625" lon="-0.913108773529529571533203125">
        <ele>1394</ele>
        <time>2020-08-22T07:50:38.000Z</time>
      </trkpt>
      <trkpt lat="39.96730542741715908050537109375" lon="-0.9134328179061412811279296875">
        <ele>1392.800048828125</ele>
        <time>2020-08-22T07:50:40.000Z</time>
      </trkpt>
      <trkpt lat="39.96728145517408847808837890625" lon="-0.91391670517623424530029296875">
        <ele>1390.5999755859375</ele>
        <time>2020-08-22T07:50:43.000Z</time>
      </trkpt>
      <trkpt lat="39.9672637693583965301513671875" lon="-0.91407780535519123077392578125">
        <ele>1389.4000244140625</ele>
        <time>2020-08-22T07:50:44.000Z</time>
      </trkpt>
      <trkpt lat="39.9672198481857776641845703125" lon="-0.914394557476043701171875">
        <ele>1388</ele>
        <time>2020-08-22T07:50:46.000Z</time>
      </trkpt>
      <trkpt lat="39.9671574868261814117431640625" lon="-0.9147045202553272247314453125">
        <ele>1386.4000244140625</ele>
        <time>2020-08-22T07:50:48.000Z</time>
      </trkpt>
      <trkpt lat="39.9670823849737644195556640625" lon="-0.91500274837017059326171875">
        <ele>1384.800048828125</ele>
        <time>2020-08-22T07:50:50.000Z</time>
      </trkpt>
      <trkpt lat="39.96704399585723876953125" lon="-0.91514901258051395416259765625">
        <ele>1383.5999755859375</ele>
        <time>2020-08-22T07:50:51.000Z</time>
      </trkpt>
      <trkpt lat="39.96700887568295001983642578125" lon="-0.9152966178953647613525390625">
        <ele>1382.199951171875</ele>
        <time>2020-08-22T07:50:52.000Z</time>
      </trkpt>
      <trkpt lat="39.96694500558078289031982421875" lon="-0.91559241525828838348388671875">
        <ele>1380.800048828125</ele>
        <time>2020-08-22T07:50:54.000Z</time>
      </trkpt>
      <trkpt lat="39.96685816906392574310302734375" lon="-0.91603145934641361236572265625">
        <ele>1379.5999755859375</ele>
        <time>2020-08-22T07:50:57.000Z</time>
      </trkpt>
      <trkpt lat="39.96677803806960582733154296875" lon="-0.91646513901650905609130859375">
        <ele>1378.4000244140625</ele>
        <time>2020-08-22T07:51:00.000Z</time>
      </trkpt>
      <trkpt lat="39.96672020293772220611572265625" lon="-0.916748531162738800048828125">
        <ele>1376.800048828125</ele>
        <time>2020-08-22T07:51:02.000Z</time>
      </trkpt>
      <trkpt lat="39.96668969281017780303955078125" lon="-0.9168888442218303680419921875">
        <ele>1375.800048828125</ele>
        <time>2020-08-22T07:51:03.000Z</time>
      </trkpt>
      <trkpt lat="39.9666381441056728363037109375" lon="-0.91717055998742580413818359375">
        <ele>1374.4000244140625</ele>
        <time>2020-08-22T07:51:05.000Z</time>
      </trkpt>
      <trkpt lat="39.96658056043088436126708984375" lon="-0.9174568019807338714599609375">
        <ele>1373</ele>
        <time>2020-08-22T07:51:07.000Z</time>
      </trkpt>
      <trkpt lat="39.96650193817913532257080078125" lon="-0.9178841114044189453125">
        <ele>1371.800048828125</ele>
        <time>2020-08-22T07:51:10.000Z</time>
      </trkpt>
      <trkpt lat="39.9664607830345630645751953125" lon="-0.91817337088286876678466796875">
        <ele>1370.800048828125</ele>
        <time>2020-08-22T07:51:12.000Z</time>
      </trkpt>
      <trkpt lat="39.9664420075714588165283203125" lon="-0.91858358122408390045166015625">
        <ele>1369.5999755859375</ele>
        <time>2020-08-22T07:51:15.000Z</time>
      </trkpt>
      <trkpt lat="39.96643521822988986968994140625" lon="-0.9188361279666423797607421875">
        <ele>1368</ele>
        <time>2020-08-22T07:51:17.000Z</time>
      </trkpt>
      <trkpt lat="39.966441504657268524169921875" lon="-0.919082053005695343017578125">
        <ele>1366.800048828125</ele>
        <time>2020-08-22T07:51:19.000Z</time>
      </trkpt>
      <trkpt lat="39.9664852581918239593505859375" lon="-0.91930056922137737274169921875">
        <ele>1365.800048828125</ele>
        <time>2020-08-22T07:51:21.000Z</time>
      </trkpt>
      <trkpt lat="39.9665271677076816558837890625" lon="-0.919387824833393096923828125">
        <ele>1365.5999755859375</ele>
        <time>2020-08-22T07:51:22.000Z</time>
      </trkpt>
      <trkpt lat="39.9665813148021697998046875" lon="-0.91945462860167026519775390625">
        <ele>1365.5999755859375</ele>
        <time>2020-08-22T07:51:23.000Z</time>
      </trkpt>
      <trkpt lat="39.9667910300195217132568359375" lon="-0.91958153061568737030029296875">
        <ele>1365.4000244140625</ele>
        <time>2020-08-22T07:51:26.000Z</time>
      </trkpt>
      <trkpt lat="39.96700736694037914276123046875" lon="-0.91969351284205913543701171875">
        <ele>1365.4000244140625</ele>
        <time>2020-08-22T07:51:29.000Z</time>
      </trkpt>
      <trkpt lat="39.9671098776161670684814453125" lon="-0.9198171459138393402099609375">
        <ele>1365.4000244140625</ele>
        <time>2020-08-22T07:51:31.000Z</time>
      </trkpt>
      <trkpt lat="39.9673770926892757415771484375" lon="-0.920490212738513946533203125">
        <ele>1365.5999755859375</ele>
        <time>2020-08-22T07:51:40.000Z</time>
      </trkpt>
      <trkpt lat="39.96754380874335765838623046875" lon="-0.92114442028105258941650390625">
        <ele>1365.5999755859375</ele>
        <time>2020-08-22T07:51:48.000Z</time>
      </trkpt>
      <trkpt lat="39.96770138852298259735107421875" lon="-0.92151741497218608856201171875">
        <ele>1364.5999755859375</ele>
        <time>2020-08-22T07:51:52.000Z</time>
      </trkpt>
      <trkpt lat="39.9677936732769012451171875" lon="-0.92168949544429779052734375">
        <ele>1363.4000244140625</ele>
        <time>2020-08-22T07:51:54.000Z</time>
      </trkpt>
      <trkpt lat="39.96796424500644207000732421875" lon="-0.9220299683511257171630859375">
        <ele>1362.199951171875</ele>
        <time>2020-08-22T07:51:58.000Z</time>
      </trkpt>
      <trkpt lat="39.96806851588189601898193359375" lon="-0.92250413261353969573974609375">
        <ele>1361.199951171875</ele>
        <time>2020-08-22T07:52:03.000Z</time>
      </trkpt>
      <trkpt lat="39.96826180256903171539306640625" lon="-0.92318993993103504180908203125">
        <ele>1360.800048828125</ele>
        <time>2020-08-22T07:52:11.000Z</time>
      </trkpt>
      <trkpt lat="39.96853035874664783477783203125" lon="-0.9238622523844242095947265625">
        <ele>1361</ele>
        <time>2020-08-22T07:52:21.000Z</time>
      </trkpt>
      <trkpt lat="39.9687834084033966064453125" lon="-0.92448444105684757232666015625">
        <ele>1361.199951171875</ele>
        <time>2020-08-22T07:52:31.000Z</time>
      </trkpt>
      <trkpt lat="39.9690259806811809539794921875" lon="-0.92512548901140689849853515625">
        <ele>1361.199951171875</ele>
        <time>2020-08-22T07:52:43.000Z</time>
      </trkpt>
      <trkpt lat="39.96926687657833099365234375" lon="-0.92580006457865238189697265625">
        <ele>1361.199951171875</ele>
        <time>2020-08-22T07:52:55.000Z</time>
      </trkpt>
      <trkpt lat="39.96958731673657894134521484375" lon="-0.9264321438968181610107421875">
        <ele>1361</ele>
        <time>2020-08-22T07:53:08.000Z</time>
      </trkpt>
      <trkpt lat="39.96992074884474277496337890625" lon="-0.9268968366086483001708984375">
        <ele>1360.800048828125</ele>
        <time>2020-08-22T07:53:19.000Z</time>
      </trkpt>
      <trkpt lat="39.9703417718410491943359375" lon="-0.927349962294101715087890625">
        <ele>1360.5999755859375</ele>
        <time>2020-08-22T07:53:32.000Z</time>
      </trkpt>
      <trkpt lat="39.9707875214517116546630859375" lon="-0.92778305523097515106201171875">
        <ele>1361.5999755859375</ele>
        <time>2020-08-22T07:53:46.000Z</time>
      </trkpt>
      <trkpt lat="39.97114450670778751373291015625" lon="-0.92814850620925426483154296875">
        <ele>1362.199951171875</ele>
        <time>2020-08-22T07:53:58.000Z</time>
      </trkpt>
      <trkpt lat="39.97157315723598003387451171875" lon="-0.9286070801317691802978515625">
        <ele>1363</ele>
        <time>2020-08-22T07:54:13.000Z</time>
      </trkpt>
      <trkpt lat="39.97160115279257297515869140625" lon="-0.92863616533577442169189453125">
        <ele>1363.199951171875</ele>
        <time>2020-08-22T07:54:14.000Z</time>
      </trkpt>
      <trkpt lat="39.97184087522327899932861328125" lon="-0.92892500571906566619873046875">
        <ele>1364.4000244140625</ele>
        <time>2020-08-22T07:54:23.000Z</time>
      </trkpt>
      <trkpt lat="39.97210876084864139556884765625" lon="-0.929545350372791290283203125">
        <ele>1364.800048828125</ele>
        <time>2020-08-22T07:54:38.000Z</time>
      </trkpt>
      <trkpt lat="39.97219224460422992706298828125" lon="-0.9298077039420604705810546875">
        <ele>1365.4000244140625</ele>
        <time>2020-08-22T07:54:44.000Z</time>
      </trkpt>
      <trkpt lat="39.9723244272172451019287109375" lon="-0.9302155673503875732421875">
        <ele>1366.4000244140625</ele>
        <time>2020-08-22T07:54:54.000Z</time>
      </trkpt>
      <trkpt lat="39.97245644219219684600830078125" lon="-0.93068805523216724395751953125">
        <ele>1367.5999755859375</ele>
        <time>2020-08-22T07:55:06.000Z</time>
      </trkpt>
      <trkpt lat="39.97253942303359508514404296875" lon="-0.9309979341924190521240234375">
        <ele>1368.800048828125</ele>
        <time>2020-08-22T07:55:14.000Z</time>
      </trkpt>
      <trkpt lat="39.97260094620287418365478515625" lon="-0.9312185458838939666748046875">
        <ele>1369.800048828125</ele>
        <time>2020-08-22T07:55:20.000Z</time>
      </trkpt>
      <trkpt lat="39.972743690013885498046875" lon="-0.931638814508914947509765625">
        <ele>1370.800048828125</ele>
        <time>2020-08-22T07:55:31.000Z</time>
      </trkpt>
      <trkpt lat="39.972831867635250091552734375" lon="-0.93187459744513034820556640625">
        <ele>1371.800048828125</ele>
        <time>2020-08-22T07:55:37.000Z</time>
      </trkpt>
      <trkpt lat="39.97293873690068721771240234375" lon="-0.9322123043239116668701171875">
        <ele>1372.800048828125</ele>
        <time>2020-08-22T07:55:46.000Z</time>
      </trkpt>
      <trkpt lat="39.97302406467497348785400390625" lon="-0.93251899816095829010009765625">
        <ele>1374</ele>
        <time>2020-08-22T07:55:54.000Z</time>
      </trkpt>
      <trkpt lat="39.97315230779349803924560546875" lon="-0.9329344891011714935302734375">
        <ele>1375</ele>
        <time>2020-08-22T07:56:04.000Z</time>
      </trkpt>
      <trkpt lat="39.97334743849933147430419921875" lon="-0.93348920345306396484375">
        <ele>1376</ele>
        <time>2020-08-22T07:56:18.000Z</time>
      </trkpt>
      <trkpt lat="39.97361616231501102447509765625" lon="-0.934121869504451751708984375">
        <ele>1376.800048828125</ele>
        <time>2020-08-22T07:56:35.000Z</time>
      </trkpt>
      <trkpt lat="39.97372261248528957366943359375" lon="-0.93433585949242115020751953125">
        <ele>1377.199951171875</ele>
        <time>2020-08-22T07:56:41.000Z</time>
      </trkpt>
      <trkpt lat="39.97406828217208385467529296875" lon="-0.9349052421748638153076171875">
        <ele>1378</ele>
        <time>2020-08-22T07:56:57.000Z</time>
      </trkpt>
      <trkpt lat="39.974263496696949005126953125" lon="-0.9351955913007259368896484375">
        <ele>1378.4000244140625</ele>
        <time>2020-08-22T07:57:05.000Z</time>
      </trkpt>
      <trkpt lat="39.9746869504451751708984375" lon="-0.93568718992173671722412109375">
        <ele>1379.199951171875</ele>
        <time>2020-08-22T07:57:21.000Z</time>
      </trkpt>
      <trkpt lat="39.97491694986820220947265625" lon="-0.9359559975564479827880859375">
        <ele>1379.4000244140625</ele>
        <time>2020-08-22T07:57:30.000Z</time>
      </trkpt>
      <trkpt lat="39.97500655241310596466064453125" lon="-0.93609404750168323516845703125">
        <ele>1380</ele>
        <time>2020-08-22T07:57:51.000Z</time>
      </trkpt>
      <trkpt lat="39.975247867405414581298828125" lon="-0.939617045223712921142578125">
        <ele>1435.4000244140625</ele>
        <time>2020-08-22T07:59:53.000Z</time>
      </trkpt>
      <trkpt lat="39.9751625396311283111572265625" lon="-0.94002884812653064727783203125">
        <ele>1434.800048828125</ele>
        <time>2020-08-22T07:59:59.000Z</time>
      </trkpt>
      <trkpt lat="39.9751028604805469512939453125" lon="-0.94042564742267131805419921875">
        <ele>1436.5999755859375</ele>
        <time>2020-08-22T08:00:06.000Z</time>
      </trkpt>
      <trkpt lat="39.97509506531059741973876953125" lon="-0.94058892689645290374755859375">
        <ele>1435.4000244140625</ele>
        <time>2020-08-22T08:00:09.000Z</time>
      </trkpt>
      <trkpt lat="39.97509657405316829681396484375" lon="-0.94092252664268016815185546875">
        <ele>1436.4000244140625</ele>
        <time>2020-08-22T08:00:15.000Z</time>
      </trkpt>
      <trkpt lat="39.97511685825884342193603515625" lon="-0.94118622131645679473876953125">
        <ele>1437.4000244140625</ele>
        <time>2020-08-22T08:00:20.000Z</time>
      </trkpt>
      <trkpt lat="39.975236468017101287841796875" lon="-0.9416174702346324920654296875">
        <ele>1438.4000244140625</ele>
        <time>2020-08-22T08:00:29.000Z</time>
      </trkpt>
      <trkpt lat="39.97529204003512859344482421875" lon="-0.9423426724970340728759765625">
        <ele>1439.4000244140625</ele>
        <time>2020-08-22T08:00:44.000Z</time>
      </trkpt>
      <trkpt lat="39.97529556043446063995361328125" lon="-0.94254559837281703948974609375">
        <ele>1439.5999755859375</ele>
        <time>2020-08-22T08:00:48.000Z</time>
      </trkpt>
      <trkpt lat="39.97531416825950145721435546875" lon="-0.94264559447765350341796875">
        <ele>1439.5999755859375</ele>
        <time>2020-08-22T08:00:50.000Z</time>
      </trkpt>
      <trkpt lat="39.9754398129880428314208984375" lon="-0.94297307543456554412841796875">
        <ele>1439.800048828125</ele>
        <time>2020-08-22T08:00:57.000Z</time>
      </trkpt>
      <trkpt lat="39.9757536314427852630615234375" lon="-0.943598784506320953369140625">
        <ele>1438.800048828125</ele>
        <time>2020-08-22T08:01:11.000Z</time>
      </trkpt>
      <trkpt lat="39.976126290857791900634765625" lon="-0.94413044862449169158935546875">
        <ele>1438.5999755859375</ele>
        <time>2020-08-22T08:01:24.000Z</time>
      </trkpt>
      <trkpt lat="39.97651613317430019378662109375" lon="-0.9446647949516773223876953125">
        <ele>1439.199951171875</ele>
        <time>2020-08-22T08:01:37.000Z</time>
      </trkpt>
      <trkpt lat="39.97686423361301422119140625" lon="-0.945277512073516845703125">
        <ele>1439.4000244140625</ele>
        <time>2020-08-22T08:01:50.000Z</time>
      </trkpt>
      <trkpt lat="39.977177046239376068115234375" lon="-0.94587874598801136016845703125">
        <ele>1439</ele>
        <time>2020-08-22T08:02:02.000Z</time>
      </trkpt>
      <trkpt lat="39.9774662218987941741943359375" lon="-0.9465131722390651702880859375">
        <ele>1439.800048828125</ele>
        <time>2020-08-22T08:02:15.000Z</time>
      </trkpt>
      <trkpt lat="39.9777317605912685394287109375" lon="-0.94718900509178638458251953125">
        <ele>1440.199951171875</ele>
        <time>2020-08-22T08:02:28.000Z</time>
      </trkpt>
      <trkpt lat="39.9779584072530269622802734375" lon="-0.94787883572280406951904296875">
        <ele>1440.199951171875</ele>
        <time>2020-08-22T08:02:40.000Z</time>
      </trkpt>
      <trkpt lat="39.9781823717057704925537109375" lon="-0.9483350627124309539794921875">
        <ele>1439.4000244140625</ele>
        <time>2020-08-22T08:02:49.000Z</time>
      </trkpt>
      <trkpt lat="39.97846056707203388214111328125" lon="-0.949006117880344390869140625">
        <ele>1439</ele>
        <time>2020-08-22T08:03:01.000Z</time>
      </trkpt>
      <trkpt lat="39.9786799214780330657958984375" lon="-0.94965797848999500274658203125">
        <ele>1439</ele>
        <time>2020-08-22T08:03:12.000Z</time>
      </trkpt>
      <trkpt lat="39.97878159396350383758544921875" lon="-0.94988261349499225616455078125">
        <ele>1438.800048828125</ele>
        <time>2020-08-22T08:03:16.000Z</time>
      </trkpt>
      <trkpt lat="39.97900220565497875213623046875" lon="-0.9505458734929561614990234375">
        <ele>1438.800048828125</ele>
        <time>2020-08-22T08:03:28.000Z</time>
      </trkpt>
      <trkpt lat="39.97928333468735218048095703125" lon="-0.95116990618407726287841796875">
        <ele>1440</ele>
        <time>2020-08-22T08:03:40.000Z</time>
      </trkpt>
      <trkpt lat="39.9797129072248935699462890625" lon="-0.95163426361978054046630859375">
        <ele>1440.5999755859375</ele>
        <time>2020-08-22T08:03:52.000Z</time>
      </trkpt>
      <trkpt lat="39.98017081059515476226806640625" lon="-0.95205822028219699859619140625">
        <ele>1441</ele>
        <time>2020-08-22T08:04:06.000Z</time>
      </trkpt>
      <trkpt lat="39.980645813047885894775390625" lon="-0.95243968069553375244140625">
        <ele>1440.800048828125</ele>
        <time>2020-08-22T08:04:19.000Z</time>
      </trkpt>
      <trkpt lat="39.9810751341283321380615234375" lon="-0.95289741642773151397705078125">
        <ele>1440.4000244140625</ele>
        <time>2020-08-22T08:04:33.000Z</time>
      </trkpt>
      <trkpt lat="39.98124637641012668609619140625" lon="-0.95311920158565044403076171875">
        <ele>1441.5999755859375</ele>
        <time>2020-08-22T08:04:41.000Z</time>
      </trkpt>
      <trkpt lat="39.98134729452431201934814453125" lon="-0.95324090681970119476318359375">
        <ele>1442.800048828125</ele>
        <time>2020-08-22T08:04:46.000Z</time>
      </trkpt>
      <trkpt lat="39.98179103247821331024169921875" lon="-0.95364105887711048126220703125">
        <ele>1443.5999755859375</ele>
        <time>2020-08-22T08:05:08.000Z</time>
      </trkpt>
      <trkpt lat="39.9821905978024005889892578125" lon="-0.9539549611508846282958984375">
        <ele>1443.5999755859375</ele>
        <time>2020-08-22T08:05:28.000Z</time>
      </trkpt>
      <trkpt lat="39.9823258817195892333984375" lon="-0.95409929752349853515625">
        <ele>1443.800048828125</ele>
        <time>2020-08-22T08:11:39.000Z</time>
      </trkpt>
      <trkpt lat="39.98235161416232585906982421875" lon="-0.95412167720496654510498046875">
        <ele>1443.800048828125</ele>
        <time>2020-08-22T08:11:41.000Z</time>
      </trkpt>
      <trkpt lat="39.98255185782909393310546875" lon="-0.95431177876889705657958984375">
        <ele>1442.800048828125</ele>
        <time>2020-08-22T08:11:56.000Z</time>
      </trkpt>
      <trkpt lat="39.9829449690878391265869140625" lon="-0.9546788223087787628173828125">
        <ele>1441.800048828125</ele>
        <time>2020-08-22T08:12:15.000Z</time>
      </trkpt>
      <trkpt lat="39.98334554024040699005126953125" lon="-0.9551800601184368133544921875">
        <ele>1441.199951171875</ele>
        <time>2020-08-22T08:12:29.000Z</time>
      </trkpt>
      <trkpt lat="39.98358224518597126007080078125" lon="-0.9555220417678356170654296875">
        <ele>1440.800048828125</ele>
        <time>2020-08-22T08:12:39.000Z</time>
      </trkpt>
      <trkpt lat="39.98398675583302974700927734375" lon="-0.9559971280395984649658203125">
        <ele>1440.199951171875</ele>
        <time>2020-08-22T08:12:54.000Z</time>
      </trkpt>
      <trkpt lat="39.98445463366806507110595703125" lon="-0.95639300532639026641845703125">
        <ele>1440</ele>
        <time>2020-08-22T08:13:09.000Z</time>
      </trkpt>
      <trkpt lat="39.9846293963491916656494140625" lon="-0.9565486572682857513427734375">
        <ele>1439.800048828125</ele>
        <time>2020-08-22T08:13:14.000Z</time>
      </trkpt>
      <trkpt lat="39.9850236810743808746337890625" lon="-0.9570344723761081695556640625">
        <ele>1439.5999755859375</ele>
        <time>2020-08-22T08:13:28.000Z</time>
      </trkpt>
      <trkpt lat="39.9853995256125926971435546875" lon="-0.95754132606089115142822265625">
        <ele>1439.800048828125</ele>
        <time>2020-08-22T08:13:42.000Z</time>
      </trkpt>
      <trkpt lat="39.9857713468372821807861328125" lon="-0.95811531879007816314697265625">
        <ele>1439.800048828125</ele>
        <time>2020-08-22T08:13:57.000Z</time>
      </trkpt>
      <trkpt lat="39.9860777892172336578369140625" lon="-0.958717055618762969970703125">
        <ele>1439.199951171875</ele>
        <time>2020-08-22T08:14:12.000Z</time>
      </trkpt>
      <trkpt lat="39.9863399751484394073486328125" lon="-0.9593389928340911865234375">
        <ele>1440.199951171875</ele>
        <time>2020-08-22T08:14:29.000Z</time>
      </trkpt>
      <trkpt lat="39.9866172485053539276123046875" lon="-0.95999278128147125244140625">
        <ele>1440.4000244140625</ele>
        <time>2020-08-22T08:14:47.000Z</time>
      </trkpt>
      <trkpt lat="39.98679704032838344573974609375" lon="-0.96025521866977214813232421875">
        <ele>1440.800048828125</ele>
        <time>2020-08-22T08:14:55.000Z</time>
      </trkpt>
      <trkpt lat="39.9872851185500621795654296875" lon="-0.96057347953319549560546875">
        <ele>1440.199951171875</ele>
        <time>2020-08-22T08:15:11.000Z</time>
      </trkpt>
      <trkpt lat="39.98779012821614742279052734375" lon="-0.960845388472080230712890625">
        <ele>1440.5999755859375</ele>
        <time>2020-08-22T08:15:26.000Z</time>
      </trkpt>
      <trkpt lat="39.98825465328991413116455078125" lon="-0.96125618554651737213134765625">
        <ele>1440.5999755859375</ele>
        <time>2020-08-22T08:15:40.000Z</time>
      </trkpt>
      <trkpt lat="39.9887174181640148162841796875" lon="-0.9616508893668651580810546875">
        <ele>1439.800048828125</ele>
        <time>2020-08-22T08:15:51.000Z</time>
      </trkpt>
      <trkpt lat="39.9887616746127605438232421875" lon="-0.96168282441794872283935546875">
        <ele>1439.800048828125</ele>
        <time>2020-08-22T08:15:52.000Z</time>
      </trkpt>
      <trkpt lat="39.989266432821750640869140625" lon="-0.9620059467852115631103515625">
        <ele>1439.199951171875</ele>
        <time>2020-08-22T08:16:04.000Z</time>
      </trkpt>
      <trkpt lat="39.98975652270019054412841796875" lon="-0.96230744384229183197021484375">
        <ele>1439.5999755859375</ele>
        <time>2020-08-22T08:16:16.000Z</time>
      </trkpt>
      <trkpt lat="39.990256167948246002197265625" lon="-0.9626449830830097198486328125">
        <ele>1439.5999755859375</ele>
        <time>2020-08-22T08:16:29.000Z</time>
      </trkpt>
      <trkpt lat="39.99071247875690460205078125" lon="-0.9631049819290637969970703125">
        <ele>1439.800048828125</ele>
        <time>2020-08-22T08:16:43.000Z</time>
      </trkpt>
      <trkpt lat="39.99116853810846805572509765625" lon="-0.963537655770778656005859375">
        <ele>1440</ele>
        <time>2020-08-22T08:16:56.000Z</time>
      </trkpt>
      <trkpt lat="39.991664327681064605712890625" lon="-0.9639528952538967132568359375">
        <ele>1439.4000244140625</ele>
        <time>2020-08-22T08:17:08.000Z</time>
      </trkpt>
      <trkpt lat="39.9918921478092670440673828125" lon="-0.96421298570930957794189453125">
        <ele>1438.800048828125</ele>
        <time>2020-08-22T08:17:14.000Z</time>
      </trkpt>
      <trkpt lat="39.99221543781459331512451171875" lon="-0.96481698565185070037841796875">
        <ele>1438</ele>
        <time>2020-08-22T08:17:27.000Z</time>
      </trkpt>
      <trkpt lat="39.99259782023727893829345703125" lon="-0.9653766453266143798828125">
        <ele>1439.199951171875</ele>
        <time>2020-08-22T08:17:42.000Z</time>
      </trkpt>
      <trkpt lat="39.99270242638885974884033203125" lon="-0.96551653929054737091064453125">
        <ele>1439.800048828125</ele>
        <time>2020-08-22T08:17:46.000Z</time>
      </trkpt>
      <trkpt lat="39.99280133284628391265869140625" lon="-0.96564612351357936859130859375">
        <ele>1441</ele>
        <time>2020-08-22T08:17:50.000Z</time>
      </trkpt>
      <trkpt lat="39.992947764694690704345703125" lon="-0.96583203412592411041259765625">
        <ele>1442</ele>
        <time>2020-08-22T08:17:56.000Z</time>
      </trkpt>
      <trkpt lat="39.9934143014252185821533203125" lon="-0.96622849814593791961669921875">
        <ele>1442.800048828125</ele>
        <time>2020-08-22T08:18:12.000Z</time>
      </trkpt>
      <trkpt lat="39.993444979190826416015625" lon="-0.96626219339668750762939453125">
        <ele>1443</ele>
        <time>2020-08-22T08:18:13.000Z</time>
      </trkpt>
      <trkpt lat="39.9935028143227100372314453125" lon="-0.96632690168917179107666015625">
        <ele>1443</ele>
        <time>2020-08-22T08:18:15.000Z</time>
      </trkpt>
      <trkpt lat="39.99382384121417999267578125" lon="-0.96682528965175151824951171875">
        <ele>1444.199951171875</ele>
        <time>2020-08-22T08:18:28.000Z</time>
      </trkpt>
      <trkpt lat="39.9942387454211711883544921875" lon="-0.96728797070682048797607421875">
        <ele>1443.4000244140625</ele>
        <time>2020-08-22T08:18:41.000Z</time>
      </trkpt>
      <trkpt lat="39.99435550533235073089599609375" lon="-0.9674055688083171844482421875">
        <ele>1442.800048828125</ele>
        <time>2020-08-22T08:18:44.000Z</time>
      </trkpt>
      <trkpt lat="39.9946209602057933807373046875" lon="-0.9676323831081390380859375">
        <ele>1441.800048828125</ele>
        <time>2020-08-22T08:18:50.000Z</time>
      </trkpt>
      <trkpt lat="39.99490988440811634063720703125" lon="-0.96784050576388835906982421875">
        <ele>1440.800048828125</ele>
        <time>2020-08-22T08:18:56.000Z</time>
      </trkpt>
      <trkpt lat="39.995106272399425506591796875" lon="-0.96796254627406597137451171875">
        <ele>1439.5999755859375</ele>
        <time>2020-08-22T08:19:00.000Z</time>
      </trkpt>
      <trkpt lat="39.9953052587807178497314453125" lon="-0.96807972528040409088134765625">
        <ele>1438.5999755859375</ele>
        <time>2020-08-22T08:19:04.000Z</time>
      </trkpt>
      <trkpt lat="39.99562586657702922821044921875" lon="-0.96827946603298187255859375">
        <ele>1437.5999755859375</ele>
        <time>2020-08-22T08:19:10.000Z</time>
      </trkpt>
      <trkpt lat="39.99598897062242031097412109375" lon="-0.96849949099123477935791015625">
        <ele>1436.5999755859375</ele>
        <time>2020-08-22T08:19:16.000Z</time>
      </trkpt>
      <trkpt lat="39.996510408818721771240234375" lon="-0.96884918399155139923095703125">
        <ele>1435.5999755859375</ele>
        <time>2020-08-22T08:19:25.000Z</time>
      </trkpt>
      <trkpt lat="39.9966031126677989959716796875" lon="-0.96893166191875934600830078125">
        <ele>1435.5999755859375</ele>
        <time>2020-08-22T08:19:27.000Z</time>
      </trkpt>
      <trkpt lat="39.9970252253115177154541015625" lon="-0.96941177733242511749267578125">
        <ele>1434.5999755859375</ele>
        <time>2020-08-22T08:19:38.000Z</time>
      </trkpt>
      <trkpt lat="39.99740148894488811492919921875" lon="-0.9699218161404132843017578125">
        <ele>1435.5999755859375</ele>
        <time>2020-08-22T08:19:50.000Z</time>
      </trkpt>
      <trkpt lat="39.99783047474920749664306640625" lon="-0.97041584551334381103515625">
        <ele>1435.800048828125</ele>
        <time>2020-08-22T08:20:03.000Z</time>
      </trkpt>
      <trkpt lat="39.99834160320460796356201171875" lon="-0.9707385487854480743408203125">
        <ele>1435.800048828125</ele>
        <time>2020-08-22T08:20:15.000Z</time>
      </trkpt>
      <trkpt lat="39.99878902919590473175048828125" lon="-0.97114465199410915374755859375">
        <ele>1435.800048828125</ele>
        <time>2020-08-22T08:20:27.000Z</time>
      </trkpt>
      <trkpt lat="39.99896689318120479583740234375" lon="-0.9713842906057834625244140625">
        <ele>1436.5999755859375</ele>
        <time>2020-08-22T08:20:33.000Z</time>
      </trkpt>
      <trkpt lat="39.99932396225631237030029296875" lon="-0.97197814844548702239990234375">
        <ele>1437.199951171875</ele>
        <time>2020-08-22T08:20:46.000Z</time>
      </trkpt>
      <trkpt lat="39.99959737993776798248291015625" lon="-0.97239824943244457244873046875">
        <ele>1437.5999755859375</ele>
        <time>2020-08-22T08:20:56.000Z</time>
      </trkpt>
      <trkpt lat="39.99979066662490367889404296875" lon="-0.9726422466337680816650390625">
        <ele>1438.5999755859375</ele>
        <time>2020-08-22T08:21:03.000Z</time>
      </trkpt>
      <trkpt lat="40.00001396052539348602294921875" lon="-0.97291289828717708587646484375">
        <ele>1439.800048828125</ele>
        <time>2020-08-22T08:21:12.000Z</time>
      </trkpt>
      <trkpt lat="40.0002421997487545013427734375" lon="-0.97317022271454334259033203125">
        <ele>1441</ele>
        <time>2020-08-22T08:21:21.000Z</time>
      </trkpt>
      <trkpt lat="40.00041109509766101837158203125" lon="-0.97335546277463436126708984375">
        <ele>1442</ele>
        <time>2020-08-22T08:21:28.000Z</time>
      </trkpt>
      <trkpt lat="40.000632293522357940673828125" lon="-0.9735686145722866058349609375">
        <ele>1443</ele>
        <time>2020-08-22T08:21:37.000Z</time>
      </trkpt>
      <trkpt lat="40.00080286525189876556396484375" lon="-0.97369425930082798004150390625">
        <ele>1444.199951171875</ele>
        <time>2020-08-22T08:21:44.000Z</time>
      </trkpt>
      <trkpt lat="40.000895150005817413330078125" lon="-0.9737573750317096710205078125">
        <ele>1445.199951171875</ele>
        <time>2020-08-22T08:21:48.000Z</time>
      </trkpt>
      <trkpt lat="40.0010679848492145538330078125" lon="-0.97386474721133708953857421875">
        <ele>1446.199951171875</ele>
        <time>2020-08-22T08:21:55.000Z</time>
      </trkpt>
      <trkpt lat="40.00117887742817401885986328125" lon="-0.97392627038061618804931640625">
        <ele>1447.199951171875</ele>
        <time>2020-08-22T08:22:00.000Z</time>
      </trkpt>
      <trkpt lat="40.001341402530670166015625" lon="-0.97402953542768955230712890625">
        <ele>1448.5999755859375</ele>
        <time>2020-08-22T08:22:07.000Z</time>
      </trkpt>
      <trkpt lat="40.001429580152034759521484375" lon="-0.9741006977856159210205078125">
        <ele>1449.5999755859375</ele>
        <time>2020-08-22T08:22:11.000Z</time>
      </trkpt>
      <trkpt lat="40.00155522488057613372802734375" lon="-0.974385179579257965087890625">
        <ele>1450.800048828125</ele>
        <time>2020-08-22T08:22:21.000Z</time>
      </trkpt>
      <trkpt lat="40.001531504094600677490234375" lon="-0.97459598444402217864990234375">
        <ele>1451.800048828125</ele>
        <time>2020-08-22T08:22:28.000Z</time>
      </trkpt>
      <trkpt lat="40.00152119435369968414306640625" lon="-0.9748383052647113800048828125">
        <ele>1453</ele>
        <time>2020-08-22T08:22:35.000Z</time>
      </trkpt>
      <trkpt lat="40.00153812579810619354248046875" lon="-0.975054390728473663330078125">
        <ele>1454.4000244140625</ele>
        <time>2020-08-22T08:22:41.000Z</time>
      </trkpt>
      <trkpt lat="40.001568384468555450439453125" lon="-0.97524155862629413604736328125">
        <ele>1455.4000244140625</ele>
        <time>2020-08-22T08:22:46.000Z</time>
      </trkpt>
      <trkpt lat="40.00164222903549671173095703125" lon="-0.97579292021691799163818359375">
        <ele>1456.4000244140625</ele>
        <time>2020-08-22T08:23:01.000Z</time>
      </trkpt>
      <trkpt lat="40.001752786338329315185546875" lon="-0.97613456659018993377685546875">
        <ele>1457.5999755859375</ele>
        <time>2020-08-22T08:23:10.000Z</time>
      </trkpt>
      <trkpt lat="40.00202000141143798828125" lon="-0.9766151010990142822265625">
        <ele>1458.199951171875</ele>
        <time>2020-08-22T08:23:23.000Z</time>
      </trkpt>
      <trkpt lat="40.002493746578693389892578125" lon="-0.976879298686981201171875">
        <ele>1456.4000244140625</ele>
        <time>2020-08-22T08:23:33.000Z</time>
      </trkpt>
      <trkpt lat="40.0026409327983856201171875" lon="-0.97696387208998203277587890625">
        <ele>1455.4000244140625</ele>
        <time>2020-08-22T08:23:36.000Z</time>
      </trkpt>
      <trkpt lat="40.0030772946774959564208984375" lon="-0.9772130660712718963623046875">
        <ele>1454.4000244140625</ele>
        <time>2020-08-22T08:23:44.000Z</time>
      </trkpt>
      <trkpt lat="40.00343997962772846221923828125" lon="-0.9773934446275234222412109375">
        <ele>1453</ele>
        <time>2020-08-22T08:23:50.000Z</time>
      </trkpt>
      <trkpt lat="40.0036931969225406646728515625" lon="-0.9775141440331935882568359375">
        <ele>1452</ele>
        <time>2020-08-22T08:23:54.000Z</time>
      </trkpt>
      <trkpt lat="40.00406728126108646392822265625" lon="-0.97768655978143215179443359375">
        <ele>1450.800048828125</ele>
        <time>2020-08-22T08:24:00.000Z</time>
      </trkpt>
      <trkpt lat="40.00418764539062976837158203125" lon="-0.977713130414485931396484375">
        <ele>1450.800048828125</ele>
        <time>2020-08-22T08:24:02.000Z</time>
      </trkpt>
      <trkpt lat="40.00431127846240997314453125" lon="-0.9777029044926166534423828125">
        <ele>1450.4000244140625</ele>
        <time>2020-08-22T08:24:04.000Z</time>
      </trkpt>
      <trkpt lat="40.00443323515355587005615234375" lon="-0.97764263860881328582763671875">
        <ele>1450</ele>
        <time>2020-08-22T08:24:06.000Z</time>
      </trkpt>
      <trkpt lat="40.00449157319962978363037109375" lon="-0.9775860607624053955078125">
        <ele>1449.800048828125</ele>
        <time>2020-08-22T08:24:07.000Z</time>
      </trkpt>
      <trkpt lat="40.00454253517091274261474609375" lon="-0.977515317499637603759765625">
        <ele>1449.5999755859375</ele>
        <time>2020-08-22T08:24:08.000Z</time>
      </trkpt>
      <trkpt lat="40.004585199058055877685546875" lon="-0.97731180489063262939453125">
        <ele>1449.199951171875</ele>
        <time>2020-08-22T08:24:10.000Z</time>
      </trkpt>
      <trkpt lat="40.004622749984264373779296875" lon="-0.9770953841507434844970703125">
        <ele>1448.800048828125</ele>
        <time>2020-08-22T08:24:12.000Z</time>
      </trkpt>
      <trkpt lat="40.00473867170512676239013671875" lon="-0.9766726009547710418701171875">
        <ele>1447.199951171875</ele>
        <time>2020-08-22T08:24:16.000Z</time>
      </trkpt>
      <trkpt lat="40.00483925454318523406982421875" lon="-0.9763517417013645172119140625">
        <ele>1446.199951171875</ele>
        <time>2020-08-22T08:24:19.000Z</time>
      </trkpt>
      <trkpt lat="40.00490002334117889404296875" lon="-0.97613071091473102569580078125">
        <ele>1444.800048828125</ele>
        <time>2020-08-22T08:24:21.000Z</time>
      </trkpt>
      <trkpt lat="40.0049749575555324554443359375" lon="-0.97592912614345550537109375">
        <ele>1443.800048828125</ele>
        <time>2020-08-22T08:24:23.000Z</time>
      </trkpt>
      <trkpt lat="40.00502482987940311431884765625" lon="-0.97583550028502941131591796875">
        <ele>1443.4000244140625</ele>
        <time>2020-08-22T08:24:24.000Z</time>
      </trkpt>
      <trkpt lat="40.00509850680828094482421875" lon="-0.97575453110039234161376953125">
        <ele>1443</ele>
        <time>2020-08-22T08:24:25.000Z</time>
      </trkpt>
      <trkpt lat="40.0052844174206256866455078125" lon="-0.97562394104897975921630859375">
        <ele>1442.5999755859375</ele>
        <time>2020-08-22T08:24:27.000Z</time>
      </trkpt>
      <trkpt lat="40.005392543971538543701171875" lon="-0.9755668602883815765380859375">
        <ele>1442.4000244140625</ele>
        <time>2020-08-22T08:24:28.000Z</time>
      </trkpt>
      <trkpt lat="40.0056089647114276885986328125" lon="-0.9754267148673534393310546875">
        <ele>1441</ele>
        <time>2020-08-22T08:24:30.000Z</time>
      </trkpt>
      <trkpt lat="40.0058247148990631103515625" lon="-0.975250191986560821533203125">
        <ele>1439.800048828125</ele>
        <time>2020-08-22T08:24:32.000Z</time>
      </trkpt>
      <trkpt lat="40.005929656326770782470703125" lon="-0.97515019588172435760498046875">
        <ele>1438.199951171875</ele>
        <time>2020-08-22T08:24:33.000Z</time>
      </trkpt>
      <trkpt lat="40.006030909717082977294921875" lon="-0.97504760138690471649169921875">
        <ele>1437.199951171875</ele>
        <time>2020-08-22T08:24:34.000Z</time>
      </trkpt>
      <trkpt lat="40.006226040422916412353515625" lon="-0.97482548095285892486572265625">
        <ele>1434.5999755859375</ele>
        <time>2020-08-22T08:24:36.000Z</time>
      </trkpt>
      <trkpt lat="40.00631916336715221405029296875" lon="-0.97470729611814022064208984375">
        <ele>1433</ele>
        <time>2020-08-22T08:24:37.000Z</time>
      </trkpt>
      <trkpt lat="40.0064055807888507843017578125" lon="-0.97459062002599239349365234375">
        <ele>1431.5999755859375</ele>
        <time>2020-08-22T08:24:38.000Z</time>
      </trkpt>
      <trkpt lat="40.006551928818225860595703125" lon="-0.9743508137762546539306640625">
        <ele>1430</ele>
        <time>2020-08-22T08:24:40.000Z</time>
      </trkpt>
      <trkpt lat="40.0066791661083698272705078125" lon="-0.97409709356725215911865234375">
        <ele>1428.5999755859375</ele>
        <time>2020-08-22T08:24:42.000Z</time>
      </trkpt>
      <trkpt lat="40.00677849166095256805419921875" lon="-0.97383071668446063995361328125">
        <ele>1426.800048828125</ele>
        <time>2020-08-22T08:24:44.000Z</time>
      </trkpt>
      <trkpt lat="40.006814785301685333251953125" lon="-0.9736930020153522491455078125">
        <ele>1425.800048828125</ele>
        <time>2020-08-22T08:24:45.000Z</time>
      </trkpt>
      <trkpt lat="40.00684772618114948272705078125" lon="-0.9735520184040069580078125">
        <ele>1425</ele>
        <time>2020-08-22T08:24:46.000Z</time>
      </trkpt>
      <trkpt lat="40.0069108419120311737060546875" lon="-0.97326979972422122955322265625">
        <ele>1423.5999755859375</ele>
        <time>2020-08-22T08:24:48.000Z</time>
      </trkpt>
      <trkpt lat="40.0069685094058513641357421875" lon="-0.9729914367198944091796875">
        <ele>1422.4000244140625</ele>
        <time>2020-08-22T08:24:50.000Z</time>
      </trkpt>
      <trkpt lat="40.00698351301252841949462890625" lon="-0.9728538058698177337646484375">
        <ele>1421.5999755859375</ele>
        <time>2020-08-22T08:24:51.000Z</time>
      </trkpt>
      <trkpt lat="40.0069879554212093353271484375" lon="-0.97271759994328022003173828125">
        <ele>1420.800048828125</ele>
        <time>2020-08-22T08:24:52.000Z</time>
      </trkpt>
      <trkpt lat="40.0069728679955005645751953125" lon="-0.97245256416499614715576171875">
        <ele>1419.5999755859375</ele>
        <time>2020-08-22T08:24:54.000Z</time>
      </trkpt>
      <trkpt lat="40.00697647221386432647705078125" lon="-0.97220395691692829132080078125">
        <ele>1419.199951171875</ele>
        <time>2020-08-22T08:24:56.000Z</time>
      </trkpt>
      <trkpt lat="40.007027685642242431640625" lon="-0.97197898663580417633056640625">
        <ele>1418.800048828125</ele>
        <time>2020-08-22T08:24:58.000Z</time>
      </trkpt>
      <trkpt lat="40.00707001425325870513916015625" lon="-0.9718751348555088043212890625">
        <ele>1418.5999755859375</ele>
        <time>2020-08-22T08:24:59.000Z</time>
      </trkpt>
      <trkpt lat="40.007123909890651702880859375" lon="-0.971778742969036102294921875">
        <ele>1418.4000244140625</ele>
        <time>2020-08-22T08:25:00.000Z</time>
      </trkpt>
      <trkpt lat="40.00740998424589633941650390625" lon="-0.97127524204552173614501953125">
        <ele>1417.4000244140625</ele>
        <time>2020-08-22T08:25:05.000Z</time>
      </trkpt>
      <trkpt lat="40.0077765248715877532958984375" lon="-0.97077031619846820831298828125">
        <ele>1416</ele>
        <time>2020-08-22T08:25:10.000Z</time>
      </trkpt>
      <trkpt lat="40.00804969109594821929931640625" lon="-0.970526151359081268310546875">
        <ele>1414.5999755859375</ele>
        <time>2020-08-22T08:25:13.000Z</time>
      </trkpt>
      <trkpt lat="40.00824431888759136199951171875" lon="-0.97038365900516510009765625">
        <ele>1413.199951171875</ele>
        <time>2020-08-22T08:25:15.000Z</time>
      </trkpt>
      <trkpt lat="40.00843207351863384246826171875" lon="-0.9702389873564243316650390625">
        <ele>1412</ele>
        <time>2020-08-22T08:25:17.000Z</time>
      </trkpt>
      <trkpt lat="40.0086988694965839385986328125" lon="-0.97001477144658565521240234375">
        <ele>1411</ele>
        <time>2020-08-22T08:25:20.000Z</time>
      </trkpt>
      <trkpt lat="40.00887103378772735595703125" lon="-0.96985601820051670074462890625">
        <ele>1409.800048828125</ele>
        <time>2020-08-22T08:25:22.000Z</time>
      </trkpt>
      <trkpt lat="40.0092579424381256103515625" lon="-0.9695885516703128814697265625">
        <ele>1408.5999755859375</ele>
        <time>2020-08-22T08:25:26.000Z</time>
      </trkpt>
      <trkpt lat="40.00951836816966533660888671875" lon="-0.96941160969436168670654296875">
        <ele>1407.4000244140625</ele>
        <time>2020-08-22T08:25:29.000Z</time>
      </trkpt>
      <trkpt lat="40.00966966152191162109375" lon="-0.96929644234478473663330078125">
        <ele>1406.199951171875</ele>
        <time>2020-08-22T08:25:31.000Z</time>
      </trkpt>
      <trkpt lat="40.0098158419132232666015625" lon="-0.96918462775647640228271484375">
        <ele>1405</ele>
        <time>2020-08-22T08:25:33.000Z</time>
      </trkpt>
      <trkpt lat="40.0100825540721416473388671875" lon="-0.96892462112009525299072265625">
        <ele>1404.199951171875</ele>
        <time>2020-08-22T08:25:37.000Z</time>
      </trkpt>
      <trkpt lat="40.0101385451853275299072265625" lon="-0.9688474237918853759765625">
        <ele>1404</ele>
        <time>2020-08-22T08:25:38.000Z</time>
      </trkpt>
      <trkpt lat="40.0104134716093540191650390625" lon="-0.96845154650509357452392578125">
        <ele>1403</ele>
        <time>2020-08-22T08:25:43.000Z</time>
      </trkpt>
      <trkpt lat="40.0107588060200214385986328125" lon="-0.968098081648349761962890625">
        <ele>1401.5999755859375</ele>
        <time>2020-08-22T08:25:48.000Z</time>
      </trkpt>
      <trkpt lat="40.01106281764805316925048828125" lon="-0.9677906334400177001953125">
        <ele>1400.5999755859375</ele>
        <time>2020-08-22T08:25:52.000Z</time>
      </trkpt>
      <trkpt lat="40.0112278573215007781982421875" lon="-0.96763749606907367706298828125">
        <ele>1398.800048828125</ele>
        <time>2020-08-22T08:25:54.000Z</time>
      </trkpt>
      <trkpt lat="40.011396668851375579833984375" lon="-0.96750020049512386322021484375">
        <ele>1397.5999755859375</ele>
        <time>2020-08-22T08:25:56.000Z</time>
      </trkpt>
      <trkpt lat="40.0116362236440181732177734375" lon="-0.9673502482473850250244140625">
        <ele>1396.4000244140625</ele>
        <time>2020-08-22T08:25:59.000Z</time>
      </trkpt>
      <trkpt lat="40.01180310733616352081298828125" lon="-0.9673442132771015167236328125">
        <ele>1395</ele>
        <time>2020-08-22T08:26:01.000Z</time>
      </trkpt>
      <trkpt lat="40.01188290305435657501220703125" lon="-0.9673780761659145355224609375">
        <ele>1394</ele>
        <time>2020-08-22T08:26:02.000Z</time>
      </trkpt>
      <trkpt lat="40.0119517184793949127197265625" lon="-0.96743582747876644134521484375">
        <ele>1393.199951171875</ele>
        <time>2020-08-22T08:26:03.000Z</time>
      </trkpt>
      <trkpt lat="40.01200712285935878753662109375" lon="-0.9675063192844390869140625">
        <ele>1392.800048828125</ele>
        <time>2020-08-22T08:26:04.000Z</time>
      </trkpt>
      <trkpt lat="40.0120479427278041839599609375" lon="-0.96758469007909297943115234375">
        <ele>1392.4000244140625</ele>
        <time>2020-08-22T08:26:05.000Z</time>
      </trkpt>
      <trkpt lat="40.01230048947036266326904296875" lon="-0.96823747269809246063232421875">
        <ele>1393</ele>
        <time>2020-08-22T08:26:18.000Z</time>
      </trkpt>
      <trkpt lat="40.01233317889273166656494140625" lon="-0.96835448406636714935302734375">
        <ele>1393.800048828125</ele>
        <time>2020-08-22T08:26:21.000Z</time>
      </trkpt>
      <trkpt lat="40.01237039454281330108642578125" lon="-0.9684680588543415069580078125">
        <ele>1395</ele>
        <time>2020-08-22T08:26:24.000Z</time>
      </trkpt>
      <trkpt lat="40.0124308280646800994873046875" lon="-0.9686142392456531524658203125">
        <ele>1396</ele>
        <time>2020-08-22T08:26:28.000Z</time>
      </trkpt>
      <trkpt lat="40.01247382722795009613037109375" lon="-0.96875824034214019775390625">
        <ele>1397.199951171875</ele>
        <time>2020-08-22T08:26:32.000Z</time>
      </trkpt>
      <trkpt lat="40.01254105009138584136962890625" lon="-0.96897826530039310455322265625">
        <ele>1398.199951171875</ele>
        <time>2020-08-22T08:26:38.000Z</time>
      </trkpt>
      <trkpt lat="40.01260592602193355560302734375" lon="-0.96915923058986663818359375">
        <ele>1399.199951171875</ele>
        <time>2020-08-22T08:26:43.000Z</time>
      </trkpt>
      <trkpt lat="40.01294237561523914337158203125" lon="-0.969698019325733184814453125">
        <ele>1399.800048828125</ele>
        <time>2020-08-22T08:26:57.000Z</time>
      </trkpt>
      <trkpt lat="40.01335166394710540771484375" lon="-0.97005818970501422882080078125">
        <ele>1398</ele>
        <time>2020-08-22T08:27:04.000Z</time>
      </trkpt>
      <trkpt lat="40.013488791882991790771484375" lon="-0.97017168067395687103271484375">
        <ele>1396.800048828125</ele>
        <time>2020-08-22T08:27:06.000Z</time>
      </trkpt>
      <trkpt lat="40.01363002695143222808837890625" lon="-0.97028844058513641357421875">
        <ele>1395.5999755859375</ele>
        <time>2020-08-22T08:27:08.000Z</time>
      </trkpt>
      <trkpt lat="40.01376966945827007293701171875" lon="-0.9704093076288700103759765625">
        <ele>1394.199951171875</ele>
        <time>2020-08-22T08:27:10.000Z</time>
      </trkpt>
      <trkpt lat="40.01390931196510791778564453125" lon="-0.9705345332622528076171875">
        <ele>1393</ele>
        <time>2020-08-22T08:27:12.000Z</time>
      </trkpt>
      <trkpt lat="40.01421307213604450225830078125" lon="-0.97079646773636341094970703125">
        <ele>1391.5999755859375</ele>
        <time>2020-08-22T08:27:16.000Z</time>
      </trkpt>
      <trkpt lat="40.01439026556909084320068359375" lon="-0.97093342803418636322021484375">
        <ele>1390.199951171875</ele>
        <time>2020-08-22T08:27:18.000Z</time>
      </trkpt>
      <trkpt lat="40.01457332633435726165771484375" lon="-0.9710845537483692169189453125">
        <ele>1389.199951171875</ele>
        <time>2020-08-22T08:27:20.000Z</time>
      </trkpt>
      <trkpt lat="40.01475420780479907989501953125" lon="-0.97124439664185047149658203125">
        <ele>1387.199951171875</ele>
        <time>2020-08-22T08:27:22.000Z</time>
      </trkpt>
      <trkpt lat="40.01484205015003681182861328125" lon="-0.97132603637874126434326171875">
        <ele>1386</ele>
        <time>2020-08-22T08:27:23.000Z</time>
      </trkpt>
      <trkpt lat="40.01501404680311679840087890625" lon="-0.9714853763580322265625">
        <ele>1384</ele>
        <time>2020-08-22T08:27:25.000Z</time>
      </trkpt>
      <trkpt lat="40.01510071568191051483154296875" lon="-0.971562154591083526611328125">
        <ele>1382.4000244140625</ele>
        <time>2020-08-22T08:27:26.000Z</time>
      </trkpt>
      <trkpt lat="40.01527740620076656341552734375" lon="-0.97170464694499969482421875">
        <ele>1380.199951171875</ele>
        <time>2020-08-22T08:27:28.000Z</time>
      </trkpt>
      <trkpt lat="40.01536943949759006500244140625" lon="-0.97176524810492992401123046875">
        <ele>1379.199951171875</ele>
        <time>2020-08-22T08:27:29.000Z</time>
      </trkpt>
      <trkpt lat="40.015466921031475067138671875" lon="-0.97181193530559539794921875">
        <ele>1377.800048828125</ele>
        <time>2020-08-22T08:27:30.000Z</time>
      </trkpt>
      <trkpt lat="40.0155696831643581390380859375" lon="-0.97183884121477603912353515625">
        <ele>1377</ele>
        <time>2020-08-22T08:27:31.000Z</time>
      </trkpt>
      <trkpt lat="40.01567487604916095733642578125" lon="-0.9718466363847255706787109375">
        <ele>1376.4000244140625</ele>
        <time>2020-08-22T08:27:32.000Z</time>
      </trkpt>
      <trkpt lat="40.01578032039105892181396484375" lon="-0.971839092671871185302734375">
        <ele>1376</ele>
        <time>2020-08-22T08:27:33.000Z</time>
      </trkpt>
      <trkpt lat="40.015981234610080718994140625" lon="-0.97178234718739986419677734375">
        <ele>1375.4000244140625</ele>
        <time>2020-08-22T08:27:35.000Z</time>
      </trkpt>
      <trkpt lat="40.01616287045180797576904296875" lon="-0.97168461419641971588134765625">
        <ele>1374.199951171875</ele>
        <time>2020-08-22T08:27:37.000Z</time>
      </trkpt>
      <trkpt lat="40.0166754238307476043701171875" lon="-0.97145679406821727752685546875">
        <ele>1373.4000244140625</ele>
        <time>2020-08-22T08:27:43.000Z</time>
      </trkpt>
      <trkpt lat="40.01675010658800601959228515625" lon="-0.9714215062558650970458984375">
        <ele>1373.199951171875</ele>
        <time>2020-08-22T08:27:44.000Z</time>
      </trkpt>
      <trkpt lat="40.0172085128724575042724609375" lon="-0.9710718132555484771728515625">
        <ele>1374</ele>
        <time>2020-08-22T08:27:51.000Z</time>
      </trkpt>
      <trkpt lat="40.01730448566377162933349609375" lon="-0.97092504613101482391357421875">
        <ele>1374</ele>
        <time>2020-08-22T08:27:53.000Z</time>
      </trkpt>
      <trkpt lat="40.01750179566442966461181640625" lon="-0.97025482915341854095458984375">
        <ele>1374.800048828125</ele>
        <time>2020-08-22T08:28:01.000Z</time>
      </trkpt>
      <trkpt lat="40.01754756085574626922607421875" lon="-0.97008853219449520111083984375">
        <ele>1375</ele>
        <time>2020-08-22T08:28:03.000Z</time>
      </trkpt>
      <trkpt lat="40.0176111795008182525634765625" lon="-0.96993380226194858551025390625">
        <ele>1375</ele>
        <time>2020-08-22T08:28:05.000Z</time>
      </trkpt>
      <trkpt lat="40.01805902458727359771728515625" lon="-0.9694401919841766357421875">
        <ele>1375</ele>
        <time>2020-08-22T08:28:13.000Z</time>
      </trkpt>
      <trkpt lat="40.0184372998774051666259765625" lon="-0.96920927055180072784423828125">
        <ele>1374.199951171875</ele>
        <time>2020-08-22T08:28:18.000Z</time>
      </trkpt>
      <trkpt lat="40.01861256547272205352783203125" lon="-0.96917532384395599365234375">
        <ele>1373.4000244140625</ele>
        <time>2020-08-22T08:28:20.000Z</time>
      </trkpt>
      <trkpt lat="40.0187020003795623779296875" lon="-0.9691773355007171630859375">
        <ele>1373</ele>
        <time>2020-08-22T08:28:21.000Z</time>
      </trkpt>
      <trkpt lat="40.018792189657688140869140625" lon="-0.96919066272675991058349609375">
        <ele>1372.5999755859375</ele>
        <time>2020-08-22T08:28:22.000Z</time>
      </trkpt>
      <trkpt lat="40.0189760886132717132568359375" lon="-0.969235002994537353515625">
        <ele>1371.5999755859375</ele>
        <time>2020-08-22T08:28:24.000Z</time>
      </trkpt>
      <trkpt lat="40.019339360296726226806640625" lon="-0.96935343928635120391845703125">
        <ele>1370.4000244140625</ele>
        <time>2020-08-22T08:28:28.000Z</time>
      </trkpt>
      <trkpt lat="40.0197022967040538787841796875" lon="-0.96947296522557735443115234375">
        <ele>1369.4000244140625</ele>
        <time>2020-08-22T08:28:32.000Z</time>
      </trkpt>
      <trkpt lat="40.0199765525758266448974609375" lon="-0.969557873904705047607421875">
        <ele>1368</ele>
        <time>2020-08-22T08:28:35.000Z</time>
      </trkpt>
      <trkpt lat="40.0202471204102039337158203125" lon="-0.96964211203157901763916015625">
        <ele>1366.800048828125</ele>
        <time>2020-08-22T08:28:38.000Z</time>
      </trkpt>
      <trkpt lat="40.0206025131046772003173828125" lon="-0.96977404318749904632568359375">
        <ele>1365.5999755859375</ele>
        <time>2020-08-22T08:28:42.000Z</time>
      </trkpt>
      <trkpt lat="40.02068473957479000091552734375" lon="-0.969824753701686859130859375">
        <ele>1365</ele>
        <time>2020-08-22T08:28:43.000Z</time>
      </trkpt>
      <trkpt lat="40.02082605846226215362548828125" lon="-0.96996766515076160430908203125">
        <ele>1364.199951171875</ele>
        <time>2020-08-22T08:28:45.000Z</time>
      </trkpt>
      <trkpt lat="40.020932592451572418212890625" lon="-0.9701384045183658599853515625">
        <ele>1363.5999755859375</ele>
        <time>2020-08-22T08:28:47.000Z</time>
      </trkpt>
      <trkpt lat="40.02097492106258869171142578125" lon="-0.97022783942520618438720703125">
        <ele>1363</ele>
        <time>2020-08-22T08:28:48.000Z</time>
      </trkpt>
      <trkpt lat="40.0211315788328647613525390625" lon="-0.970556996762752532958984375">
        <ele>1362.199951171875</ele>
        <time>2020-08-22T08:28:52.000Z</time>
      </trkpt>
      <trkpt lat="40.02122704870998859405517578125" lon="-0.9706751815974712371826171875">
        <ele>1362</ele>
        <time>2020-08-22T08:28:54.000Z</time>
      </trkpt>
      <trkpt lat="40.02126954495906829833984375" lon="-0.97073477692902088165283203125">
        <ele>1362</ele>
        <time>2020-08-22T08:28:55.000Z</time>
      </trkpt>
      <trkpt lat="40.02129997126758098602294921875" lon="-0.97087383270263671875">
        <ele>1361.800048828125</ele>
        <time>2020-08-22T08:28:57.000Z</time>
      </trkpt>
      <trkpt lat="40.021315477788448333740234375" lon="-0.9710503555834293365478515625">
        <ele>1361.800048828125</ele>
        <time>2020-08-22T08:29:00.000Z</time>
      </trkpt>
      <trkpt lat="40.021362416446208953857421875" lon="-0.9711465798318386077880859375">
        <ele>1361.800048828125</ele>
        <time>2020-08-22T08:29:02.000Z</time>
      </trkpt>
      <trkpt lat="40.0217504985630512237548828125" lon="-0.9716977737843990325927734375">
        <ele>1361.800048828125</ele>
        <time>2020-08-22T08:29:17.000Z</time>
      </trkpt>
      <trkpt lat="40.0219261832535266876220703125" lon="-0.972106643021106719970703125">
        <ele>1363</ele>
        <time>2020-08-22T08:29:29.000Z</time>
      </trkpt>
      <trkpt lat="40.02200170420110225677490234375" lon="-0.97237343899905681610107421875">
        <ele>1364.199951171875</ele>
        <time>2020-08-22T08:29:37.000Z</time>
      </trkpt>
      <trkpt lat="40.02211720682680606842041015625" lon="-0.97270100377500057220458984375">
        <ele>1365.199951171875</ele>
        <time>2020-08-22T08:29:47.000Z</time>
      </trkpt>
      <trkpt lat="40.02221309579908847808837890625" lon="-0.97301683388650417327880859375">
        <ele>1366.199951171875</ele>
        <time>2020-08-22T08:29:56.000Z</time>
      </trkpt>
      <trkpt lat="40.022316612303256988525390625" lon="-0.97338211722671985626220703125">
        <ele>1367.4000244140625</ele>
        <time>2020-08-22T08:30:06.000Z</time>
      </trkpt>
      <trkpt lat="40.0224525667726993560791015625" lon="-0.973898358643054962158203125">
        <ele>1368.4000244140625</ele>
        <time>2020-08-22T08:30:20.000Z</time>
      </trkpt>
      <trkpt lat="40.02262565307319164276123046875" lon="-0.974486768245697021484375">
        <ele>1369.199951171875</ele>
        <time>2020-08-22T08:30:35.000Z</time>
      </trkpt>
      <trkpt lat="40.0227157585322856903076171875" lon="-0.974609814584255218505859375">
        <ele>1369.199951171875</ele>
        <time>2020-08-22T08:30:38.000Z</time>
      </trkpt>
      <trkpt lat="40.02279169857501983642578125" lon="-0.97466580569744110107421875">
        <ele>1369.199951171875</ele>
        <time>2020-08-22T08:30:40.000Z</time>
      </trkpt>
      <trkpt lat="40.023337192833423614501953125" lon="-0.9748322702944278717041015625">
        <ele>1368.800048828125</ele>
        <time>2020-08-22T08:30:56.000Z</time>
      </trkpt>
      <trkpt lat="40.02383549697697162628173828125" lon="-0.9751236252486705780029296875">
        <ele>1369</ele>
        <time>2020-08-22T08:31:12.000Z</time>
      </trkpt>
      <trkpt lat="40.02392224967479705810546875" lon="-0.97524591721594333648681640625">
        <ele>1369.5999755859375</ele>
        <time>2020-08-22T08:31:16.000Z</time>
      </trkpt>
      <trkpt lat="40.024107657372951507568359375" lon="-0.9755809418857097625732421875">
        <ele>1370.5999755859375</ele>
        <time>2020-08-22T08:31:26.000Z</time>
      </trkpt>
      <trkpt lat="40.0244875252246856689453125" lon="-0.9761053137481212615966796875">
        <ele>1371.5999755859375</ele>
        <time>2020-08-22T08:31:43.000Z</time>
      </trkpt>
      <trkpt lat="40.02475130371749401092529296875" lon="-0.97631779499351978302001953125">
        <ele>1372.5999755859375</ele>
        <time>2020-08-22T08:31:54.000Z</time>
      </trkpt>
      <trkpt lat="40.024943836033344268798828125" lon="-0.9763728640973567962646484375">
        <ele>1373.800048828125</ele>
        <time>2020-08-22T08:32:01.000Z</time>
      </trkpt>
      <trkpt lat="40.025175511837005615234375" lon="-0.97637110389769077301025390625">
        <ele>1375</ele>
        <time>2020-08-22T08:32:09.000Z</time>
      </trkpt>
      <trkpt lat="40.02535161562263965606689453125" lon="-0.97635693848133087158203125">
        <ele>1376.199951171875</ele>
        <time>2020-08-22T08:32:15.000Z</time>
      </trkpt>
      <trkpt lat="40.02575017511844635009765625" lon="-0.9763066470623016357421875">
        <ele>1377.199951171875</ele>
        <time>2020-08-22T08:32:28.000Z</time>
      </trkpt>
      <trkpt lat="40.0263136066496372222900390625" lon="-0.976185612380504608154296875">
        <ele>1377.4000244140625</ele>
        <time>2020-08-22T08:32:42.000Z</time>
      </trkpt>
      <trkpt lat="40.02689455635845661163330078125" lon="-0.9761457145214080810546875">
        <ele>1377</ele>
        <time>2020-08-22T08:32:54.000Z</time>
      </trkpt>
      <trkpt lat="40.02744088880717754364013671875" lon="-0.97616557963192462921142578125">
        <ele>1376.5999755859375</ele>
        <time>2020-08-22T08:33:05.000Z</time>
      </trkpt>
      <trkpt lat="40.02799677662551403045654296875" lon="-0.9762270189821720123291015625">
        <ele>1377.5999755859375</ele>
        <time>2020-08-22T08:33:19.000Z</time>
      </trkpt>
      <trkpt lat="40.0282721221446990966796875" lon="-0.9762980975210666656494140625">
        <ele>1378.199951171875</ele>
        <time>2020-08-22T08:33:26.000Z</time>
      </trkpt>
      <trkpt lat="40.02881870605051517486572265625" lon="-0.9764727763831615447998046875">
        <ele>1379.199951171875</ele>
        <time>2020-08-22T08:33:40.000Z</time>
      </trkpt>
      <trkpt lat="40.02889766357839107513427734375" lon="-0.9765006043016910552978515625">
        <ele>1379.199951171875</ele>
        <time>2020-08-22T08:33:42.000Z</time>
      </trkpt>
      <trkpt lat="40.02893689088523387908935546875" lon="-0.97651694901287555694580078125">
        <ele>1379.199951171875</ele>
        <time>2020-08-22T08:33:43.000Z</time>
      </trkpt>
      <trkpt lat="40.02916672267019748687744140625" lon="-0.976626165211200714111328125">
        <ele>1379.5999755859375</ele>
        <time>2020-08-22T08:33:49.000Z</time>
      </trkpt>
      <trkpt lat="40.02955329604446887969970703125" lon="-0.97687058150768280029296875">
        <ele>1380.4000244140625</ele>
        <time>2020-08-22T08:34:00.000Z</time>
      </trkpt>
      <trkpt lat="40.0300257839262485504150390625" lon="-0.9771439991891384124755859375">
        <ele>1381.5999755859375</ele>
        <time>2020-08-22T08:34:13.000Z</time>
      </trkpt>
      <trkpt lat="40.03028637729585170745849609375" lon="-0.97730954177677631378173828125">
        <ele>1382.5999755859375</ele>
        <time>2020-08-22T08:34:21.000Z</time>
      </trkpt>
      <trkpt lat="40.03049190156161785125732421875" lon="-0.97746200859546661376953125">
        <ele>1383.800048828125</ele>
        <time>2020-08-22T08:34:28.000Z</time>
      </trkpt>
      <trkpt lat="40.03084125928580760955810546875" lon="-0.97777440212666988372802734375">
        <ele>1385</ele>
        <time>2020-08-22T08:34:40.000Z</time>
      </trkpt>
      <trkpt lat="40.0310939736664295196533203125" lon="-0.97786299884319305419921875">
        <ele>1386</ele>
        <time>2020-08-22T08:34:48.000Z</time>
      </trkpt>
      <trkpt lat="40.031376779079437255859375" lon="-0.9780224226415157318115234375">
        <ele>1387.4000244140625</ele>
        <time>2020-08-22T08:34:58.000Z</time>
      </trkpt>
      <trkpt lat="40.031571574509143829345703125" lon="-0.9782271087169647216796875">
        <ele>1388.5999755859375</ele>
        <time>2020-08-22T08:35:06.000Z</time>
      </trkpt>
      <trkpt lat="40.03183401189744472503662109375" lon="-0.978509746491909027099609375">
        <ele>1389.5999755859375</ele>
        <time>2020-08-22T08:35:17.000Z</time>
      </trkpt>
      <trkpt lat="40.0321504287421703338623046875" lon="-0.9788807295262813568115234375">
        <ele>1390.5999755859375</ele>
        <time>2020-08-22T08:35:30.000Z</time>
      </trkpt>
      <trkpt lat="40.03239811398088932037353515625" lon="-0.9791623614728450775146484375">
        <ele>1391.5999755859375</ele>
        <time>2020-08-22T08:35:40.000Z</time>
      </trkpt>
      <trkpt lat="40.03259894438087940216064453125" lon="-0.97939915023744106292724609375">
        <ele>1392.800048828125</ele>
        <time>2020-08-22T08:35:48.000Z</time>
      </trkpt>
      <trkpt lat="40.03281251527369022369384765625" lon="-0.9796317480504512786865234375">
        <ele>1393.800048828125</ele>
        <time>2020-08-22T08:35:56.000Z</time>
      </trkpt>
      <trkpt lat="40.0331564247608184814453125" lon="-0.97983635030686855316162109375">
        <ele>1395</ele>
        <time>2020-08-22T08:36:07.000Z</time>
      </trkpt>
      <trkpt lat="40.0334251485764980316162109375" lon="-0.98014027811586856842041015625">
        <ele>1396</ele>
        <time>2020-08-22T08:36:17.000Z</time>
      </trkpt>
      <trkpt lat="40.0335319340229034423828125" lon="-0.98035602830350399017333984375">
        <ele>1397</ele>
        <time>2020-08-22T08:36:23.000Z</time>
      </trkpt>
      <trkpt lat="40.033645927906036376953125" lon="-0.98062676377594470977783203125">
        <ele>1398</ele>
        <time>2020-08-22T08:36:30.000Z</time>
      </trkpt>
      <trkpt lat="40.03376704640686511993408203125" lon="-0.9809896163642406463623046875">
        <ele>1399</ele>
        <time>2020-08-22T08:36:39.000Z</time>
      </trkpt>
      <trkpt lat="40.03394960425794124603271484375" lon="-0.98146788775920867919921875">
        <ele>1400.199951171875</ele>
        <time>2020-08-22T08:36:51.000Z</time>
      </trkpt>
      <trkpt lat="40.03410785458981990814208984375" lon="-0.98173803649842739105224609375">
        <ele>1401.199951171875</ele>
        <time>2020-08-22T08:36:59.000Z</time>
      </trkpt>
      <trkpt lat="40.03434807993471622467041015625" lon="-0.982120670378208160400390625">
        <ele>1402.4000244140625</ele>
        <time>2020-08-22T08:37:11.000Z</time>
      </trkpt>
      <trkpt lat="40.0344812683761119842529296875" lon="-0.98242585547268390655517578125">
        <ele>1403.5999755859375</ele>
        <time>2020-08-22T08:37:20.000Z</time>
      </trkpt>
      <trkpt lat="40.03458143211901187896728515625" lon="-0.98257362842559814453125">
        <ele>1404.5999755859375</ele>
        <time>2020-08-22T08:37:25.000Z</time>
      </trkpt>
      <trkpt lat="40.0347930751740932464599609375" lon="-0.98283941857516765594482421875">
        <ele>1405.5999755859375</ele>
        <time>2020-08-22T08:37:35.000Z</time>
      </trkpt>
      <trkpt lat="40.035008825361728668212890625" lon="-0.982981659471988677978515625">
        <ele>1406.800048828125</ele>
        <time>2020-08-22T08:37:44.000Z</time>
      </trkpt>
      <trkpt lat="40.03522633574903011322021484375" lon="-0.98331752233207225799560546875">
        <ele>1407.800048828125</ele>
        <time>2020-08-22T08:37:58.000Z</time>
      </trkpt>
      <trkpt lat="40.0352557562291622161865234375" lon="-0.98349689505994319915771484375">
        <ele>1409.199951171875</ele>
        <time>2020-08-22T08:38:04.000Z</time>
      </trkpt>
      <trkpt lat="40.03527075983583927154541015625" lon="-0.9836185164749622344970703125">
        <ele>1410.199951171875</ele>
        <time>2020-08-22T08:38:08.000Z</time>
      </trkpt>
      <trkpt lat="40.03535457886755466461181640625" lon="-0.9838356077671051025390625">
        <ele>1411.4000244140625</ele>
        <time>2020-08-22T08:38:15.000Z</time>
      </trkpt>
      <trkpt lat="40.03538559190928936004638671875" lon="-0.9843170642852783203125">
        <ele>1412.4000244140625</ele>
        <time>2020-08-22T08:38:29.000Z</time>
      </trkpt>
      <trkpt lat="40.03537352196872234344482421875" lon="-0.98446634598076343536376953125">
        <ele>1413.4000244140625</ele>
        <time>2020-08-22T08:38:35.000Z</time>
      </trkpt>
      <trkpt lat="40.03538089804351329803466796875" lon="-0.98459961824119091033935546875">
        <ele>1414.5999755859375</ele>
        <time>2020-08-22T08:38:41.000Z</time>
      </trkpt>
      <trkpt lat="40.0353932194411754608154296875" lon="-0.984687544405460357666015625">
        <ele>1416</ele>
        <time>2020-08-22T08:38:45.000Z</time>
      </trkpt>
      <trkpt lat="40.0354066304862499237060546875" lon="-0.9847494028508663177490234375">
        <ele>1417.4000244140625</ele>
        <time>2020-08-22T08:38:48.000Z</time>
      </trkpt>
      <trkpt lat="40.03543990664184093475341796875" lon="-0.98483850248157978057861328125">
        <ele>1418.5999755859375</ele>
        <time>2020-08-22T08:38:53.000Z</time>
      </trkpt>
      <trkpt lat="40.0354870967566967010498046875" lon="-0.9849555976688861846923828125">
        <ele>1419.5999755859375</ele>
        <time>2020-08-22T08:38:59.000Z</time>
      </trkpt>
      <trkpt lat="40.035495646297931671142578125" lon="-0.9850722737610340118408203125">
        <ele>1420.800048828125</ele>
        <time>2020-08-22T08:39:04.000Z</time>
      </trkpt>
      <trkpt lat="40.0355058722198009490966796875" lon="-0.98521082662045955657958984375">
        <ele>1422</ele>
        <time>2020-08-22T08:39:10.000Z</time>
      </trkpt>
      <trkpt lat="40.03550444729626178741455078125" lon="-0.98529917187988758087158203125">
        <ele>1423</ele>
        <time>2020-08-22T08:39:14.000Z</time>
      </trkpt>
      <trkpt lat="40.03549790941178798675537109375" lon="-0.9853824041783809661865234375">
        <ele>1424.199951171875</ele>
        <time>2020-08-22T08:39:18.000Z</time>
      </trkpt>
      <trkpt lat="40.03548030741512775421142578125" lon="-0.9854682348668575286865234375">
        <ele>1425.4000244140625</ele>
        <time>2020-08-22T08:39:22.000Z</time>
      </trkpt>
      <trkpt lat="40.0354602746665477752685546875" lon="-0.98557208664715290069580078125">
        <ele>1426.4000244140625</ele>
        <time>2020-08-22T08:39:27.000Z</time>
      </trkpt>
      <trkpt lat="40.035441331565380096435546875" lon="-0.985663868486881256103515625">
        <ele>1427.4000244140625</ele>
        <time>2020-08-22T08:39:31.000Z</time>
      </trkpt>
      <trkpt lat="40.03537402488291263580322265625" lon="-0.98587852902710437774658203125">
        <ele>1428.4000244140625</ele>
        <time>2020-08-22T08:39:39.000Z</time>
      </trkpt>
      <trkpt lat="40.0352852605283260345458984375" lon="-0.98613216541707515716552734375">
        <ele>1429.4000244140625</ele>
        <time>2020-08-22T08:39:49.000Z</time>
      </trkpt>
      <trkpt lat="40.03519280813634395599365234375" lon="-0.98645369522273540496826171875">
        <ele>1430.5999755859375</ele>
        <time>2020-08-22T08:40:00.000Z</time>
      </trkpt>
      <trkpt lat="40.03510748036205768585205078125" lon="-0.986680425703525543212890625">
        <ele>1431.5999755859375</ele>
        <time>2020-08-22T08:40:08.000Z</time>
      </trkpt>
      <trkpt lat="40.03503330051898956298828125" lon="-0.9869152866303920745849609375">
        <ele>1432.5999755859375</ele>
        <time>2020-08-22T08:40:16.000Z</time>
      </trkpt>
      <trkpt lat="40.0349503196775913238525390625" lon="-0.987155847251415252685546875">
        <ele>1433.5999755859375</ele>
        <time>2020-08-22T08:40:26.000Z</time>
      </trkpt>
      <trkpt lat="40.0349117629230022430419921875" lon="-0.987228266894817352294921875">
        <ele>1434.5999755859375</ele>
        <time>2020-08-22T08:40:41.000Z</time>
      </trkpt>
      <trkpt lat="40.03493766300380229949951171875" lon="-0.98724058829247951507568359375">
        <ele>1433.5999755859375</ele>
        <time>2020-08-22T08:42:40.000Z</time>
      </trkpt>
      <trkpt lat="40.0349114276468753814697265625" lon="-0.9872639738023281097412109375">
        <ele>1433.5999755859375</ele>
        <time>2020-08-22T08:42:47.000Z</time>
      </trkpt>
      <trkpt lat="40.036649666726589202880859375" lon="-0.98414012230932712554931640625">
        <ele>1362.199951171875</ele>
        <time>2020-08-22T09:14:54.000Z</time>
      </trkpt>
      <trkpt lat="40.03666617907583713531494140625" lon="-0.98414045758545398712158203125">
        <ele>1364.199951171875</ele>
        <time>2020-08-22T09:14:55.000Z</time>
      </trkpt>
      <trkpt lat="40.03668411634862422943115234375" lon="-0.98414028994739055633544921875">
        <ele>1366</ele>
        <time>2020-08-22T09:14:56.000Z</time>
      </trkpt>
      <trkpt lat="40.03670389764010906219482421875" lon="-0.9841395355761051177978515625">
        <ele>1367</ele>
        <time>2020-08-22T09:14:57.000Z</time>
      </trkpt>
      <trkpt lat="40.03676324151456356048583984375" lon="-0.9841522760689258575439453125">
        <ele>1368.199951171875</ele>
        <time>2020-08-22T09:15:00.000Z</time>
      </trkpt>
      <trkpt lat="40.03716724924743175506591796875" lon="-0.9844590537250041961669921875">
        <ele>1369.199951171875</ele>
        <time>2020-08-22T09:15:23.000Z</time>
      </trkpt>
      <trkpt lat="40.03727621398866176605224609375" lon="-0.9845619834959506988525390625">
        <ele>1370.199951171875</ele>
        <time>2020-08-22T09:15:30.000Z</time>
      </trkpt>
      <trkpt lat="40.037446953356266021728515625" lon="-0.98474512808024883270263671875">
        <ele>1371.4000244140625</ele>
        <time>2020-08-22T09:15:41.000Z</time>
      </trkpt>
      <trkpt lat="40.03761735744774341583251953125" lon="-0.98494461737573146820068359375">
        <ele>1372.4000244140625</ele>
        <time>2020-08-22T09:15:52.000Z</time>
      </trkpt>
      <trkpt lat="40.0377954728901386260986328125" lon="-0.98514259792864322662353515625">
        <ele>1373.4000244140625</ele>
        <time>2020-08-22T09:16:03.000Z</time>
      </trkpt>
      <trkpt lat="40.0379842333495616912841796875" lon="-0.98534627817571163177490234375">
        <ele>1374.4000244140625</ele>
        <time>2020-08-22T09:16:14.000Z</time>
      </trkpt>
      <trkpt lat="40.0382030010223388671875" lon="-0.98555549047887325286865234375">
        <ele>1375.5999755859375</ele>
        <time>2020-08-22T09:16:27.000Z</time>
      </trkpt>
      <trkpt lat="40.03832546062767505645751953125" lon="-0.98567216657102108001708984375">
        <ele>1376.5999755859375</ele>
        <time>2020-08-22T09:16:34.000Z</time>
      </trkpt>
      <trkpt lat="40.038613379001617431640625" lon="-0.98590426146984100341796875">
        <ele>1377.5999755859375</ele>
        <time>2020-08-22T09:16:50.000Z</time>
      </trkpt>
      <trkpt lat="40.0388546101748943328857421875" lon="-0.98601398058235645294189453125">
        <ele>1378.800048828125</ele>
        <time>2020-08-22T09:17:02.000Z</time>
      </trkpt>
      <trkpt lat="40.03898981027305126190185546875" lon="-0.98609729669988155364990234375">
        <ele>1380</ele>
        <time>2020-08-22T09:17:09.000Z</time>
      </trkpt>
      <trkpt lat="40.039108581840991973876953125" lon="-0.98620944656431674957275390625">
        <ele>1381</ele>
        <time>2020-08-22T09:17:16.000Z</time>
      </trkpt>
      <trkpt lat="40.03918594680726528167724609375" lon="-0.9863013960421085357666015625">
        <ele>1382.199951171875</ele>
        <time>2020-08-22T09:17:21.000Z</time>
      </trkpt>
      <trkpt lat="40.0393119268119335174560546875" lon="-0.98643542267382144927978515625">
        <ele>1383.199951171875</ele>
        <time>2020-08-22T09:17:29.000Z</time>
      </trkpt>
      <trkpt lat="40.039400272071361541748046875" lon="-0.9865474887192249298095703125">
        <ele>1384.199951171875</ele>
        <time>2020-08-22T09:17:35.000Z</time>
      </trkpt>
      <trkpt lat="40.0394577719271183013916015625" lon="-0.98664983175694942474365234375">
        <ele>1385.4000244140625</ele>
        <time>2020-08-22T09:17:40.000Z</time>
      </trkpt>
      <trkpt lat="40.03952122293412685394287109375" lon="-0.9868049807846546173095703125">
        <ele>1386.4000244140625</ele>
        <time>2020-08-22T09:17:47.000Z</time>
      </trkpt>
      <trkpt lat="40.0395560078322887420654296875" lon="-0.9869531728327274322509765625">
        <ele>1387.5999755859375</ele>
        <time>2020-08-22T09:17:53.000Z</time>
      </trkpt>
      <trkpt lat="40.03958609886467456817626953125" lon="-0.98719096742570400238037109375">
        <ele>1388.5999755859375</ele>
        <time>2020-08-22T09:18:02.000Z</time>
      </trkpt>
      <trkpt lat="40.039608813822269439697265625" lon="-0.98732105456292629241943359375">
        <ele>1389.800048828125</ele>
        <time>2020-08-22T09:18:07.000Z</time>
      </trkpt>
      <trkpt lat="40.0396394915878772735595703125" lon="-0.98747628740966320037841796875">
        <ele>1391</ele>
        <time>2020-08-22T09:18:13.000Z</time>
      </trkpt>
      <trkpt lat="40.03967762924730777740478515625" lon="-0.9876391477882862091064453125">
        <ele>1392</ele>
        <time>2020-08-22T09:18:19.000Z</time>
      </trkpt>
      <trkpt lat="40.03974434919655323028564453125" lon="-0.987839139997959136962890625">
        <ele>1393</ele>
        <time>2020-08-22T09:18:27.000Z</time>
      </trkpt>
      <trkpt lat="40.0398002564907073974609375" lon="-0.98794466815888881683349609375">
        <ele>1394.199951171875</ele>
        <time>2020-08-22T09:18:32.000Z</time>
      </trkpt>
      <trkpt lat="40.0398577563464641571044921875" lon="-0.98807659931480884552001953125">
        <ele>1395.4000244140625</ele>
        <time>2020-08-22T09:18:38.000Z</time>
      </trkpt>
      <trkpt lat="40.0399137474596500396728515625" lon="-0.98820081911981105804443359375">
        <ele>1396.5999755859375</ele>
        <time>2020-08-22T09:18:44.000Z</time>
      </trkpt>
      <trkpt lat="40.0399593450129032135009765625" lon="-0.98829955793917179107666015625">
        <ele>1397.800048828125</ele>
        <time>2020-08-22T09:18:49.000Z</time>
      </trkpt>
      <trkpt lat="40.03999664448201656341552734375" lon="-0.9883784316480159759521484375">
        <ele>1398.800048828125</ele>
        <time>2020-08-22T09:18:53.000Z</time>
      </trkpt>
      <trkpt lat="40.04003620706498622894287109375" lon="-0.98846082575619220733642578125">
        <ele>1399.800048828125</ele>
        <time>2020-08-22T09:18:57.000Z</time>
      </trkpt>
      <trkpt lat="40.04013695754110813140869140625" lon="-0.98866282962262630462646484375">
        <ele>1401</ele>
        <time>2020-08-22T09:19:07.000Z</time>
      </trkpt>
      <trkpt lat="40.04019663669168949127197265625" lon="-0.988769195973873138427734375">
        <ele>1402.199951171875</ele>
        <time>2020-08-22T09:19:12.000Z</time>
      </trkpt>
      <trkpt lat="40.04025111906230449676513671875" lon="-0.98887489177286624908447265625">
        <ele>1403.199951171875</ele>
        <time>2020-08-22T09:19:17.000Z</time>
      </trkpt>
      <trkpt lat="40.04027861170470714569091796875" lon="-0.98893574438989162445068359375">
        <ele>1404.199951171875</ele>
        <time>2020-08-22T09:19:20.000Z</time>
      </trkpt>
      <trkpt lat="40.0403241254389286041259765625" lon="-0.98904152400791645050048828125">
        <ele>1405.199951171875</ele>
        <time>2020-08-22T09:19:25.000Z</time>
      </trkpt>
      <trkpt lat="40.04038724116981029510498046875" lon="-0.98918787203729152679443359375">
        <ele>1406.4000244140625</ele>
        <time>2020-08-22T09:19:32.000Z</time>
      </trkpt>
      <trkpt lat="40.04046611487865447998046875" lon="-0.98937931470572948455810546875">
        <ele>1407.5999755859375</ele>
        <time>2020-08-22T09:19:41.000Z</time>
      </trkpt>
      <trkpt lat="40.04052621312439441680908203125" lon="-0.9894950687885284423828125">
        <ele>1408.800048828125</ele>
        <time>2020-08-22T09:19:47.000Z</time>
      </trkpt>
      <trkpt lat="40.0405826233327388763427734375" lon="-0.98961283452808856964111328125">
        <ele>1409.800048828125</ele>
        <time>2020-08-22T09:19:53.000Z</time>
      </trkpt>
      <trkpt lat="40.04069586284458637237548828125" lon="-0.9897855855524539947509765625">
        <ele>1411.199951171875</ele>
        <time>2020-08-22T09:20:03.000Z</time>
      </trkpt>
      <trkpt lat="40.040746740996837615966796875" lon="-0.989852137863636016845703125">
        <ele>1412.199951171875</ele>
        <time>2020-08-22T09:20:07.000Z</time>
      </trkpt>
      <trkpt lat="40.04080147482454776763916015625" lon="-0.98991257138550281524658203125">
        <ele>1413.199951171875</ele>
        <time>2020-08-22T09:20:11.000Z</time>
      </trkpt>
      <trkpt lat="40.04088856279850006103515625" lon="-0.9899917803704738616943359375">
        <ele>1414.4000244140625</ele>
        <time>2020-08-22T09:20:17.000Z</time>
      </trkpt>
      <trkpt lat="40.04096542485058307647705078125" lon="-0.9900494478642940521240234375">
        <ele>1415.800048828125</ele>
        <time>2020-08-22T09:20:22.000Z</time>
      </trkpt>
      <trkpt lat="40.041028372943401336669921875" lon="-0.9900987334549427032470703125">
        <ele>1416.800048828125</ele>
        <time>2020-08-22T09:20:26.000Z</time>
      </trkpt>
      <trkpt lat="40.04111093468964099884033203125" lon="-0.99013469181954860687255859375">
        <ele>1417.800048828125</ele>
        <time>2020-08-22T09:20:31.000Z</time>
      </trkpt>
      <trkpt lat="40.0411777384579181671142578125" lon="-0.99015497602522373199462890625">
        <ele>1419</ele>
        <time>2020-08-22T09:20:35.000Z</time>
      </trkpt>
      <trkpt lat="40.04128125496208667755126953125" lon="-0.99017433822154998779296875">
        <ele>1420.4000244140625</ele>
        <time>2020-08-22T09:20:41.000Z</time>
      </trkpt>
      <trkpt lat="40.04136892966926097869873046875" lon="-0.99017408676445484161376953125">
        <ele>1421.4000244140625</ele>
        <time>2020-08-22T09:20:46.000Z</time>
      </trkpt>
      <trkpt lat="40.04144067876040935516357421875" lon="-0.9901708178222179412841796875">
        <ele>1422.5999755859375</ele>
        <time>2020-08-22T09:20:50.000Z</time>
      </trkpt>
      <trkpt lat="40.0415495596826076507568359375" lon="-0.99015313200652599334716796875">
        <ele>1423.800048828125</ele>
        <time>2020-08-22T09:20:56.000Z</time>
      </trkpt>
      <trkpt lat="40.0416749529540538787841796875" lon="-0.99012278951704502105712890625">
        <ele>1424.800048828125</ele>
        <time>2020-08-22T09:21:03.000Z</time>
      </trkpt>
      <trkpt lat="40.04176120273768901824951171875" lon="-0.99010233767330646514892578125">
        <ele>1426</ele>
        <time>2020-08-22T09:21:08.000Z</time>
      </trkpt>
      <trkpt lat="40.0418680720031261444091796875" lon="-0.99006998352706432342529296875">
        <ele>1427.199951171875</ele>
        <time>2020-08-22T09:21:14.000Z</time>
      </trkpt>
      <trkpt lat="40.04195465706288814544677734375" lon="-0.99003276787698268890380859375">
        <ele>1428.4000244140625</ele>
        <time>2020-08-22T09:21:19.000Z</time>
      </trkpt>
      <trkpt lat="40.042052976787090301513671875" lon="-0.9899671375751495361328125">
        <ele>1429.4000244140625</ele>
        <time>2020-08-22T09:21:25.000Z</time>
      </trkpt>
      <trkpt lat="40.0421265698969364166259765625" lon="-0.98988256417214870452880859375">
        <ele>1430.5999755859375</ele>
        <time>2020-08-22T09:21:30.000Z</time>
      </trkpt>
      <trkpt lat="40.0421725027263164520263671875" lon="-0.989775359630584716796875">
        <ele>1431.5999755859375</ele>
        <time>2020-08-22T09:21:35.000Z</time>
      </trkpt>
      <trkpt lat="40.0422003306448459625244140625" lon="-0.9896565042436122894287109375">
        <ele>1432.800048828125</ele>
        <time>2020-08-22T09:21:40.000Z</time>
      </trkpt>
      <trkpt lat="40.04221684299409389495849609375" lon="-0.9895475395023822784423828125">
        <ele>1434</ele>
        <time>2020-08-22T09:21:44.000Z</time>
      </trkpt>
      <trkpt lat="40.042234696447849273681640625" lon="-0.989414937794208526611328125">
        <ele>1435.199951171875</ele>
        <time>2020-08-22T09:21:49.000Z</time>
      </trkpt>
      <trkpt lat="40.04225372336804866790771484375" lon="-0.98930798470973968505859375">
        <ele>1436.4000244140625</ele>
        <time>2020-08-22T09:21:53.000Z</time>
      </trkpt>
      <trkpt lat="40.04228037782013416290283203125" lon="-0.98917244933545589447021484375">
        <ele>1437.4000244140625</ele>
        <time>2020-08-22T09:21:58.000Z</time>
      </trkpt>
      <trkpt lat="40.04233888350427150726318359375" lon="-0.98898938857018947601318359375">
        <ele>1438.5999755859375</ele>
        <time>2020-08-22T09:22:05.000Z</time>
      </trkpt>
      <trkpt lat="40.04242144525051116943359375" lon="-0.98878361284732818603515625">
        <ele>1439.800048828125</ele>
        <time>2020-08-22T09:22:13.000Z</time>
      </trkpt>
      <trkpt lat="40.0424873270094394683837890625" lon="-0.98861890845000743865966796875">
        <ele>1441.199951171875</ele>
        <time>2020-08-22T09:22:20.000Z</time>
      </trkpt>
      <trkpt lat="40.0425218604505062103271484375" lon="-0.9885267913341522216796875">
        <ele>1442.199951171875</ele>
        <time>2020-08-22T09:22:24.000Z</time>
      </trkpt>
      <trkpt lat="40.042560584843158721923828125" lon="-0.98841154016554355621337890625">
        <ele>1443.4000244140625</ele>
        <time>2020-08-22T09:22:29.000Z</time>
      </trkpt>
      <trkpt lat="40.04260894842445850372314453125" lon="-0.98826653324067592620849609375">
        <ele>1444.4000244140625</ele>
        <time>2020-08-22T09:22:35.000Z</time>
      </trkpt>
      <trkpt lat="40.0426519475877285003662109375" lon="-0.98814264871180057525634765625">
        <ele>1445.5999755859375</ele>
        <time>2020-08-22T09:22:40.000Z</time>
      </trkpt>
      <trkpt lat="40.04269360564649105072021484375" lon="-0.9880267269909381866455078125">
        <ele>1446.800048828125</ele>
        <time>2020-08-22T09:22:45.000Z</time>
      </trkpt>
      <trkpt lat="40.0427535362541675567626953125" lon="-0.98786286078393459320068359375">
        <ele>1448</ele>
        <time>2020-08-22T09:22:52.000Z</time>
      </trkpt>
      <trkpt lat="40.0427964515984058380126953125" lon="-0.98777350969612598419189453125">
        <ele>1449</ele>
        <time>2020-08-22T09:22:56.000Z</time>
      </trkpt>
      <trkpt lat="40.04286174662411212921142578125" lon="-0.98767292685806751251220703125">
        <ele>1450.199951171875</ele>
        <time>2020-08-22T09:23:01.000Z</time>
      </trkpt>
      <trkpt lat="40.042936764657497406005859375" lon="-0.9875838272273540496826171875">
        <ele>1451.199951171875</ele>
        <time>2020-08-22T09:23:06.000Z</time>
      </trkpt>
      <trkpt lat="40.04302703775465488433837890625" lon="-0.9875107370316982269287109375">
        <ele>1452.4000244140625</ele>
        <time>2020-08-22T09:23:11.000Z</time>
      </trkpt>
      <trkpt lat="40.04316441714763641357421875" lon="-0.98742633126676082611083984375">
        <ele>1453.5999755859375</ele>
        <time>2020-08-22T09:23:18.000Z</time>
      </trkpt>
      <trkpt lat="40.043279416859149932861328125" lon="-0.987337566912174224853515625">
        <ele>1454.800048828125</ele>
        <time>2020-08-22T09:23:24.000Z</time>
      </trkpt>
      <trkpt lat="40.04339684732258319854736328125" lon="-0.98721628077328205108642578125">
        <ele>1456</ele>
        <time>2020-08-22T09:23:31.000Z</time>
      </trkpt>
      <trkpt lat="40.04351519979536533355712890625" lon="-0.9870514087378978729248046875">
        <ele>1457</ele>
        <time>2020-08-22T09:23:39.000Z</time>
      </trkpt>
      <trkpt lat="40.043583177030086517333984375" lon="-0.98694504238665103912353515625">
        <ele>1458.199951171875</ele>
        <time>2020-08-22T09:23:44.000Z</time>
      </trkpt>
      <trkpt lat="40.04363807849586009979248046875" lon="-0.98684571683406829833984375">
        <ele>1459.199951171875</ele>
        <time>2020-08-22T09:23:48.000Z</time>
      </trkpt>
      <trkpt lat="40.04368610680103302001953125" lon="-0.9867506660521030426025390625">
        <ele>1460.4000244140625</ele>
        <time>2020-08-22T09:23:52.000Z</time>
      </trkpt>
      <trkpt lat="40.04372592084109783172607421875" lon="-0.9866795875132083892822265625">
        <ele>1461.4000244140625</ele>
        <time>2020-08-22T09:23:55.000Z</time>
      </trkpt>
      <trkpt lat="40.04377663135528564453125" lon="-0.9865902364253997802734375">
        <ele>1462.5999755859375</ele>
        <time>2020-08-22T09:23:59.000Z</time>
      </trkpt>
      <trkpt lat="40.043888278305530548095703125" lon="-0.986419580876827239990234375">
        <ele>1463.5999755859375</ele>
        <time>2020-08-22T09:24:07.000Z</time>
      </trkpt>
      <trkpt lat="40.04398391582071781158447265625" lon="-0.98626233637332916259765625">
        <ele>1464.800048828125</ele>
        <time>2020-08-22T09:24:14.000Z</time>
      </trkpt>
      <trkpt lat="40.0440450198948383331298828125" lon="-0.98614792339503765106201171875">
        <ele>1466</ele>
        <time>2020-08-22T09:24:19.000Z</time>
      </trkpt>
      <trkpt lat="40.04410679452121257781982421875" lon="-0.98603460006415843963623046875">
        <ele>1467.199951171875</ele>
        <time>2020-08-22T09:24:24.000Z</time>
      </trkpt>
      <trkpt lat="40.0441918708384037017822265625" lon="-0.985901243984699249267578125">
        <ele>1468.199951171875</ele>
        <time>2020-08-22T09:24:30.000Z</time>
      </trkpt>
      <trkpt lat="40.0442944653332233428955078125" lon="-0.985771827399730682373046875">
        <ele>1469.5999755859375</ele>
        <time>2020-08-22T09:24:36.000Z</time>
      </trkpt>
      <trkpt lat="40.04437183029949665069580078125" lon="-0.98570150323212146759033203125">
        <ele>1470.800048828125</ele>
        <time>2020-08-22T09:24:40.000Z</time>
      </trkpt>
      <trkpt lat="40.04446797072887420654296875" lon="-0.98562673665583133697509765625">
        <ele>1471.800048828125</ele>
        <time>2020-08-22T09:24:45.000Z</time>
      </trkpt>
      <trkpt lat="40.04456813447177410125732421875" lon="-0.9855549037456512451171875">
        <ele>1473</ele>
        <time>2020-08-22T09:24:50.000Z</time>
      </trkpt>
      <trkpt lat="40.04466284997761249542236328125" lon="-0.98546898923814296722412109375">
        <ele>1474.199951171875</ele>
        <time>2020-08-22T09:24:55.000Z</time>
      </trkpt>
      <trkpt lat="40.04473610781133174896240234375" lon="-0.98536052741110324859619140625">
        <ele>1475.4000244140625</ele>
        <time>2020-08-22T09:25:00.000Z</time>
      </trkpt>
      <trkpt lat="40.04480232484638690948486328125" lon="-0.98524234257638454437255859375">
        <ele>1476.4000244140625</ele>
        <time>2020-08-22T09:25:05.000Z</time>
      </trkpt>
      <trkpt lat="40.0448701344430446624755859375" lon="-0.985095910727977752685546875">
        <ele>1477.4000244140625</ele>
        <time>2020-08-22T09:25:11.000Z</time>
      </trkpt>
      <trkpt lat="40.04494666121900081634521484375" lon="-0.984924919903278350830078125">
        <ele>1478.5999755859375</ele>
        <time>2020-08-22T09:25:18.000Z</time>
      </trkpt>
      <trkpt lat="40.0449941866099834442138671875" lon="-0.9847946651279926300048828125">
        <ele>1479.800048828125</ele>
        <time>2020-08-22T09:25:23.000Z</time>
      </trkpt>
      <trkpt lat="40.045044980943202972412109375" lon="-0.98468997515738010406494140625">
        <ele>1481</ele>
        <time>2020-08-22T09:25:27.000Z</time>
      </trkpt>
      <trkpt lat="40.04510910250246524810791015625" lon="-0.98460565321147441864013671875">
        <ele>1482.4000244140625</ele>
        <time>2020-08-22T09:25:31.000Z</time>
      </trkpt>
      <trkpt lat="40.04517900757491588592529296875" lon="-0.98455150611698627471923828125">
        <ele>1483.4000244140625</ele>
        <time>2020-08-22T09:25:34.000Z</time>
      </trkpt>
      <trkpt lat="40.04531227983534336090087890625" lon="-0.9844614006578922271728515625">
        <ele>1484.5999755859375</ele>
        <time>2020-08-22T09:25:39.000Z</time>
      </trkpt>
      <trkpt lat="40.04547648131847381591796875" lon="-0.9843732230365276336669921875">
        <ele>1485.800048828125</ele>
        <time>2020-08-22T09:25:45.000Z</time>
      </trkpt>
      <trkpt lat="40.0455802492797374725341796875" lon="-0.9843157231807708740234375">
        <ele>1487</ele>
        <time>2020-08-22T09:25:49.000Z</time>
      </trkpt>
      <trkpt lat="40.04573321901261806488037109375" lon="-0.98422092385590076446533203125">
        <ele>1488.199951171875</ele>
        <time>2020-08-22T09:25:55.000Z</time>
      </trkpt>
      <trkpt lat="40.0458786450326442718505859375" lon="-0.9841150604188442230224609375">
        <ele>1489.4000244140625</ele>
        <time>2020-08-22T09:26:01.000Z</time>
      </trkpt>
      <trkpt lat="40.04601669497787952423095703125" lon="-0.9839940257370471954345703125">
        <ele>1490.4000244140625</ele>
        <time>2020-08-22T09:26:07.000Z</time>
      </trkpt>
      <trkpt lat="40.04616974852979183197021484375" lon="-0.98380082286894321441650390625">
        <ele>1491.4000244140625</ele>
        <time>2020-08-22T09:26:15.000Z</time>
      </trkpt>
      <trkpt lat="40.04629547707736492156982421875" lon="-0.9835977293550968170166015625">
        <ele>1492.5999755859375</ele>
        <time>2020-08-22T09:26:23.000Z</time>
      </trkpt>
      <trkpt lat="40.0464191101491451263427734375" lon="-0.98337703384459018707275390625">
        <ele>1493.5999755859375</ele>
        <time>2020-08-22T09:26:32.000Z</time>
      </trkpt>
      <trkpt lat="40.04652095027267932891845703125" lon="-0.98314150236546993255615234375">
        <ele>1495.199951171875</ele>
        <time>2020-08-22T09:26:41.000Z</time>
      </trkpt>
      <trkpt lat="40.04657308571040630340576171875" lon="-0.98301560617983341217041015625">
        <ele>1496.4000244140625</ele>
        <time>2020-08-22T09:26:46.000Z</time>
      </trkpt>
      <trkpt lat="40.0466420687735080718994140625" lon="-0.98292994312942028045654296875">
        <ele>1497.5999755859375</ele>
        <time>2020-08-22T09:26:50.000Z</time>
      </trkpt>
      <trkpt lat="40.04670183174312114715576171875" lon="-0.98287738859653472900390625">
        <ele>1498.800048828125</ele>
        <time>2020-08-22T09:26:53.000Z</time>
      </trkpt>
      <trkpt lat="40.04683560691773891448974609375" lon="-0.98278409801423549652099609375">
        <ele>1499.800048828125</ele>
        <time>2020-08-22T09:26:59.000Z</time>
      </trkpt>
      <trkpt lat="40.04704196937382221221923828125" lon="-0.98264831118285655975341796875">
        <ele>1500.800048828125</ele>
        <time>2020-08-22T09:27:08.000Z</time>
      </trkpt>
      <trkpt lat="40.04721832461655139923095703125" lon="-0.98253984935581684112548828125">
        <ele>1501.800048828125</ele>
        <time>2020-08-22T09:27:15.000Z</time>
      </trkpt>
      <trkpt lat="40.04748352803289890289306640625" lon="-0.9823850356042385101318359375">
        <ele>1503</ele>
        <time>2020-08-22T09:27:25.000Z</time>
      </trkpt>
      <trkpt lat="40.0476921536028385162353515625" lon="-0.98230062983930110931396484375">
        <ele>1504</ele>
        <time>2020-08-22T09:27:32.000Z</time>
      </trkpt>
      <trkpt lat="40.04826924763619899749755859375" lon="-0.98226190544664859771728515625">
        <ele>1504.5999755859375</ele>
        <time>2020-08-22T09:27:47.000Z</time>
      </trkpt>
      <trkpt lat="40.04839397035539150238037109375" lon="-0.98222854547202587127685546875">
        <ele>1504.5999755859375</ele>
        <time>2020-08-22T09:27:50.000Z</time>
      </trkpt>
      <trkpt lat="40.04845616407692432403564453125" lon="-0.98215813748538494110107421875">
        <ele>1504.4000244140625</ele>
        <time>2020-08-22T09:27:52.000Z</time>
      </trkpt>
      <trkpt lat="40.04826103337109088897705078125" lon="-0.9815181791782379150390625">
        <ele>1504.5999755859375</ele>
        <time>2020-08-22T09:28:10.000Z</time>
      </trkpt>
      <trkpt lat="40.04817453213036060333251953125" lon="-0.98139823414385318756103515625">
        <ele>1505.199951171875</ele>
        <time>2020-08-22T09:28:14.000Z</time>
      </trkpt>
      <trkpt lat="40.04804142750799655914306640625" lon="-0.98121601156890392303466796875">
        <ele>1506.199951171875</ele>
        <time>2020-08-22T09:28:21.000Z</time>
      </trkpt>
      <trkpt lat="40.04796280525624752044677734375" lon="-0.98106798715889453887939453125">
        <ele>1507.5999755859375</ele>
        <time>2020-08-22T09:28:26.000Z</time>
      </trkpt>
      <trkpt lat="40.04789323545992374420166015625" lon="-0.980843268334865570068359375">
        <ele>1508.5999755859375</ele>
        <time>2020-08-22T09:28:33.000Z</time>
      </trkpt>
      <trkpt lat="40.04786658100783824920654296875" lon="-0.98069800995290279388427734375">
        <ele>1509.5999755859375</ele>
        <time>2020-08-22T09:28:37.000Z</time>
      </trkpt>
      <trkpt lat="40.04787127487361431121826171875" lon="-0.98020833916962146759033203125">
        <ele>1510.800048828125</ele>
        <time>2020-08-22T09:28:49.000Z</time>
      </trkpt>
      <trkpt lat="40.04787948913872241973876953125" lon="-0.97980760037899017333984375">
        <ele>1512</ele>
        <time>2020-08-22T09:29:01.000Z</time>
      </trkpt>
      <trkpt lat="40.04788083024322986602783203125" lon="-0.97960199229419231414794921875">
        <ele>1513.199951171875</ele>
        <time>2020-08-22T09:29:07.000Z</time>
      </trkpt>
      <trkpt lat="40.0478849373757839202880859375" lon="-0.979392863810062408447265625">
        <ele>1514.199951171875</ele>
        <time>2020-08-22T09:29:13.000Z</time>
      </trkpt>
      <trkpt lat="40.047891475260257720947265625" lon="-0.9791831485927104949951171875">
        <ele>1515.4000244140625</ele>
        <time>2020-08-22T09:29:19.000Z</time>
      </trkpt>
      <trkpt lat="40.0479053892195224761962890625" lon="-0.9789347089827060699462890625">
        <ele>1516.5999755859375</ele>
        <time>2020-08-22T09:29:26.000Z</time>
      </trkpt>
      <trkpt lat="40.04791838116943836212158203125" lon="-0.97876824438571929931640625">
        <ele>1517.800048828125</ele>
        <time>2020-08-22T09:29:31.000Z</time>
      </trkpt>
      <trkpt lat="40.04793346859514713287353515625" lon="-0.978647880256175994873046875">
        <ele>1519</ele>
        <time>2020-08-22T09:29:35.000Z</time>
      </trkpt>
      <trkpt lat="40.04797269590198993682861328125" lon="-0.97847831435501575469970703125">
        <ele>1520</ele>
        <time>2020-08-22T09:29:40.000Z</time>
      </trkpt>
      <trkpt lat="40.04801628179848194122314453125" lon="-0.97827413119375705718994140625">
        <ele>1521.199951171875</ele>
        <time>2020-08-22T09:29:46.000Z</time>
      </trkpt>
      <trkpt lat="40.0480850972235202789306640625" lon="-0.9779942594468593597412109375">
        <ele>1522.199951171875</ele>
        <time>2020-08-22T09:29:54.000Z</time>
      </trkpt>
      <trkpt lat="40.04819330759346485137939453125" lon="-0.9777189977467060089111328125">
        <ele>1523.199951171875</ele>
        <time>2020-08-22T09:30:02.000Z</time>
      </trkpt>
      <trkpt lat="40.048442669212818145751953125" lon="-0.9770769439637660980224609375">
        <ele>1524.199951171875</ele>
        <time>2020-08-22T09:30:18.000Z</time>
      </trkpt>
      <trkpt lat="40.048734359443187713623046875" lon="-0.9764479659497737884521484375">
        <ele>1525.199951171875</ele>
        <time>2020-08-22T09:30:34.000Z</time>
      </trkpt>
      <trkpt lat="40.04875808022916316986083984375" lon="-0.9764100797474384307861328125">
        <ele>1525.4000244140625</ele>
        <time>2020-08-22T09:30:35.000Z</time>
      </trkpt>
      <trkpt lat="40.0490573979914188385009765625" lon="-0.97603633068501949310302734375">
        <ele>1526.4000244140625</ele>
        <time>2020-08-22T09:30:46.000Z</time>
      </trkpt>
      <trkpt lat="40.0494959391653537750244140625" lon="-0.9755584783852100372314453125">
        <ele>1526.4000244140625</ele>
        <time>2020-08-22T09:30:59.000Z</time>
      </trkpt>
      <trkpt lat="40.04960750229656696319580078125" lon="-0.97542277537286281585693359375">
        <ele>1526.199951171875</ele>
        <time>2020-08-22T09:31:02.000Z</time>
      </trkpt>
      <trkpt lat="40.0496746413409709930419921875" lon="-0.97531816922128200531005859375">
        <ele>1526</ele>
        <time>2020-08-22T09:31:04.000Z</time>
      </trkpt>
      <trkpt lat="40.0497150421142578125" lon="-0.97519830800592899322509765625">
        <ele>1525.800048828125</ele>
        <time>2020-08-22T09:31:06.000Z</time>
      </trkpt>
      <trkpt lat="40.04971261136233806610107421875" lon="-0.97507241182029247283935546875">
        <ele>1525.5999755859375</ele>
        <time>2020-08-22T09:31:08.000Z</time>
      </trkpt>
      <trkpt lat="40.04968360997736454010009765625" lon="-0.97496218979358673095703125">
        <ele>1525.199951171875</ele>
        <time>2020-08-22T09:31:10.000Z</time>
      </trkpt>
      <trkpt lat="40.04947406239807605743408203125" lon="-0.97425400279462337493896484375">
        <ele>1525.4000244140625</ele>
        <time>2020-08-22T09:31:23.000Z</time>
      </trkpt>
      <trkpt lat="40.04938789643347263336181640625" lon="-0.97355495207011699676513671875">
        <ele>1525.800048828125</ele>
        <time>2020-08-22T09:31:34.000Z</time>
      </trkpt>
      <trkpt lat="40.0493454001843929290771484375" lon="-0.97317324019968509674072265625">
        <ele>1525.800048828125</ele>
        <time>2020-08-22T09:31:40.000Z</time>
      </trkpt>
      <trkpt lat="40.0494562089443206787109375" lon="-0.97246513701975345611572265625">
        <ele>1525.5999755859375</ele>
        <time>2020-08-22T09:31:51.000Z</time>
      </trkpt>
      <trkpt lat="40.04950792528688907623291015625" lon="-0.97215265966951847076416015625">
        <ele>1525.199951171875</ele>
        <time>2020-08-22T09:31:56.000Z</time>
      </trkpt>
      <trkpt lat="40.0495542772114276885986328125" lon="-0.971656031906604766845703125">
        <ele>1525.199951171875</ele>
        <time>2020-08-22T09:32:04.000Z</time>
      </trkpt>
      <trkpt lat="40.04940784536302089691162109375" lon="-0.9709705598652362823486328125">
        <ele>1525.199951171875</ele>
        <time>2020-08-22T09:32:15.000Z</time>
      </trkpt>
      <trkpt lat="40.0492630898952484130859375" lon="-0.97027611918747425079345703125">
        <ele>1525.199951171875</ele>
        <time>2020-08-22T09:32:25.000Z</time>
      </trkpt>
      <trkpt lat="40.04925797693431377410888671875" lon="-0.9701531566679477691650390625">
        <ele>1525.199951171875</ele>
        <time>2020-08-22T09:32:27.000Z</time>
      </trkpt>
      <trkpt lat="40.04933408461511135101318359375" lon="-0.96994721330702304840087890625">
        <ele>1525</ele>
        <time>2020-08-22T09:32:46.000Z</time>
      </trkpt>
      <trkpt lat="40.049340538680553436279296875" lon="-0.9699761308729648590087890625">
        <ele>1525</ele>
        <time>2020-08-22T09:41:31.000Z</time>
      </trkpt>
      <trkpt lat="40.04934011958539485931396484375" lon="-0.96997537650167942047119140625">
        <ele>1525</ele>
        <time>2020-08-22T09:41:33.000Z</time>
      </trkpt>
      <trkpt lat="40.04935017786920070648193359375" lon="-0.9699533320963382720947265625">
        <ele>1525</ele>
        <time>2020-08-22T09:41:35.000Z</time>
      </trkpt>
      <trkpt lat="40.0493893213570117950439453125" lon="-0.96994369290769100189208984375">
        <ele>1525</ele>
        <time>2020-08-22T09:41:38.000Z</time>
      </trkpt>
      <trkpt lat="40.04947573877871036529541015625" lon="-0.97038189880549907684326171875">
        <ele>1526.199951171875</ele>
        <time>2020-08-22T09:42:05.000Z</time>
      </trkpt>
      <trkpt lat="40.04952661693096160888671875" lon="-0.97050880081951618194580078125">
        <ele>1527.4000244140625</ele>
        <time>2020-08-22T09:42:12.000Z</time>
      </trkpt>
      <trkpt lat="40.04957146011292934417724609375" lon="-0.97062312997877597808837890625">
        <ele>1528.4000244140625</ele>
        <time>2020-08-22T09:42:18.000Z</time>
      </trkpt>
      <trkpt lat="40.04962191917002201080322265625" lon="-0.97073159180581569671630859375">
        <ele>1529.5999755859375</ele>
        <time>2020-08-22T09:42:24.000Z</time>
      </trkpt>
      <trkpt lat="40.04968729801476001739501953125" lon="-0.9708760119974613189697265625">
        <ele>1530.800048828125</ele>
        <time>2020-08-22T09:42:32.000Z</time>
      </trkpt>
      <trkpt lat="40.0497262738645076751708984375" lon="-0.97099947743117809295654296875">
        <ele>1531.800048828125</ele>
        <time>2020-08-22T09:42:38.000Z</time>
      </trkpt>
      <trkpt lat="40.0497785769402980804443359375" lon="-0.97112151794135570526123046875">
        <ele>1533</ele>
        <time>2020-08-22T09:42:44.000Z</time>
      </trkpt>
      <trkpt lat="40.04983104765415191650390625" lon="-0.971233583986759185791015625">
        <ele>1534.4000244140625</ele>
        <time>2020-08-22T09:42:50.000Z</time>
      </trkpt>
      <trkpt lat="40.04985946230590343475341796875" lon="-0.9713142178952693939208984375">
        <ele>1535.5999755859375</ele>
        <time>2020-08-22T09:42:54.000Z</time>
      </trkpt>
      <trkpt lat="40.04989206790924072265625" lon="-0.9714453108608722686767578125">
        <ele>1536.5999755859375</ele>
        <time>2020-08-22T09:43:00.000Z</time>
      </trkpt>
      <trkpt lat="40.049908496439456939697265625" lon="-0.971602387726306915283203125">
        <ele>1537.800048828125</ele>
        <time>2020-08-22T09:43:07.000Z</time>
      </trkpt>
      <trkpt lat="40.0499116815626621246337890625" lon="-0.97174110822379589080810546875">
        <ele>1539.199951171875</ele>
        <time>2020-08-22T09:43:13.000Z</time>
      </trkpt>
      <trkpt lat="40.049909837543964385986328125" lon="-0.9719116799533367156982421875">
        <ele>1540.4000244140625</ele>
        <time>2020-08-22T09:43:20.000Z</time>
      </trkpt>
      <trkpt lat="40.04991092719137668609619140625" lon="-0.9720799885690212249755859375">
        <ele>1541.4000244140625</ele>
        <time>2020-08-22T09:43:27.000Z</time>
      </trkpt>
      <trkpt lat="40.049932636320590972900390625" lon="-0.9722918830811977386474609375">
        <ele>1542.5999755859375</ele>
        <time>2020-08-22T09:43:36.000Z</time>
      </trkpt>
      <trkpt lat="40.04996172152459621429443359375" lon="-0.97247402183711528778076171875">
        <ele>1543.5999755859375</ele>
        <time>2020-08-22T09:43:44.000Z</time>
      </trkpt>
      <trkpt lat="40.04997479729354381561279296875" lon="-0.9725590981543064117431640625">
        <ele>1544.5999755859375</ele>
        <time>2020-08-22T09:43:48.000Z</time>
      </trkpt>
      <trkpt lat="40.0499926507472991943359375" lon="-0.972667224705219268798828125">
        <ele>1545.800048828125</ele>
        <time>2020-08-22T09:43:53.000Z</time>
      </trkpt>
      <trkpt lat="40.05002877674996852874755859375" lon="-0.97291876561939716339111328125">
        <ele>1546.800048828125</ele>
        <time>2020-08-22T09:44:05.000Z</time>
      </trkpt>
      <trkpt lat="40.050045959651470184326171875" lon="-0.9730258025228977203369140625">
        <ele>1548</ele>
        <time>2020-08-22T09:44:10.000Z</time>
      </trkpt>
      <trkpt lat="40.05007320083677768707275390625" lon="-0.97318178974092006683349609375">
        <ele>1549.199951171875</ele>
        <time>2020-08-22T09:44:17.000Z</time>
      </trkpt>
      <trkpt lat="40.05010605789721012115478515625" lon="-0.9733406268060207366943359375">
        <ele>1550.199951171875</ele>
        <time>2020-08-22T09:44:24.000Z</time>
      </trkpt>
      <trkpt lat="40.05012148059904575347900390625" lon="-0.97342905588448047637939453125">
        <ele>1551.4000244140625</ele>
        <time>2020-08-22T09:44:28.000Z</time>
      </trkpt>
      <trkpt lat="40.05014981143176555633544921875" lon="-0.97356635145843029022216796875">
        <ele>1552.4000244140625</ele>
        <time>2020-08-22T09:44:34.000Z</time>
      </trkpt>
      <trkpt lat="40.050169341266155242919921875" lon="-0.97368336282670497894287109375">
        <ele>1553.5999755859375</ele>
        <time>2020-08-22T09:44:39.000Z</time>
      </trkpt>
      <trkpt lat="40.05019851028919219970703125" lon="-0.97383121959865093231201171875">
        <ele>1554.5999755859375</ele>
        <time>2020-08-22T09:44:45.000Z</time>
      </trkpt>
      <trkpt lat="40.0502221472561359405517578125" lon="-0.9739582054316997528076171875">
        <ele>1556</ele>
        <time>2020-08-22T09:44:50.000Z</time>
      </trkpt>
      <trkpt lat="40.0502439402043819427490234375" lon="-0.97408887930214405059814453125">
        <ele>1557.199951171875</ele>
        <time>2020-08-22T09:44:55.000Z</time>
      </trkpt>
      <trkpt lat="40.05026162602007389068603515625" lon="-0.974195413291454315185546875">
        <ele>1558.4000244140625</ele>
        <time>2020-08-22T09:44:59.000Z</time>
      </trkpt>
      <trkpt lat="40.050277300179004669189453125" lon="-0.974300689995288848876953125">
        <ele>1559.4000244140625</ele>
        <time>2020-08-22T09:45:03.000Z</time>
      </trkpt>
      <trkpt lat="40.0502989254891872406005859375" lon="-0.9744021110236644744873046875">
        <ele>1560.4000244140625</ele>
        <time>2020-08-22T09:45:07.000Z</time>
      </trkpt>
      <trkpt lat="40.05034075118601322174072265625" lon="-0.97452306188642978668212890625">
        <ele>1561.5999755859375</ele>
        <time>2020-08-22T09:45:12.000Z</time>
      </trkpt>
      <trkpt lat="40.0504068844020366668701171875" lon="-0.97463470883667469024658203125">
        <ele>1562.5999755859375</ele>
        <time>2020-08-22T09:45:17.000Z</time>
      </trkpt>
      <trkpt lat="40.0505768693983554840087890625" lon="-0.9747930429875850677490234375">
        <ele>1563.5999755859375</ele>
        <time>2020-08-22T09:45:27.000Z</time>
      </trkpt>
      <trkpt lat="40.05069580860435962677001953125" lon="-0.974866636097431182861328125">
        <ele>1564.800048828125</ele>
        <time>2020-08-22T09:45:33.000Z</time>
      </trkpt>
      <trkpt lat="40.0508563220500946044921875" lon="-0.97495188005268573760986328125">
        <ele>1565.800048828125</ele>
        <time>2020-08-22T09:45:41.000Z</time>
      </trkpt>
      <trkpt lat="40.05094240419566631317138671875" lon="-0.97498825751245021820068359375">
        <ele>1567</ele>
        <time>2020-08-22T09:45:45.000Z</time>
      </trkpt>
      <trkpt lat="40.05105991847813129425048828125" lon="-0.9750532172620296478271484375">
        <ele>1568</ele>
        <time>2020-08-22T09:45:51.000Z</time>
      </trkpt>
      <trkpt lat="40.05116854794323444366455078125" lon="-0.97509319894015789031982421875">
        <ele>1569.199951171875</ele>
        <time>2020-08-22T09:45:56.000Z</time>
      </trkpt>
      <trkpt lat="40.05133803002536296844482421875" lon="-0.97520367242395877838134765625">
        <ele>1570.4000244140625</ele>
        <time>2020-08-22T09:46:04.000Z</time>
      </trkpt>
      <trkpt lat="40.0513925962150096893310546875" lon="-0.9753801114857196807861328125">
        <ele>1571.4000244140625</ele>
        <time>2020-08-22T09:46:10.000Z</time>
      </trkpt>
      <trkpt lat="40.051369629800319671630859375" lon="-0.9754451550543308258056640625">
        <ele>1571.800048828125</ele>
        <time>2020-08-22T09:46:12.000Z</time>
      </trkpt>
      <trkpt lat="40.0512732379138469696044921875" lon="-0.97555898129940032958984375">
        <ele>1572.5999755859375</ele>
        <time>2020-08-22T09:46:17.000Z</time>
      </trkpt>
      <trkpt lat="40.05111490376293659210205078125" lon="-0.97567557357251644134521484375">
        <ele>1573.5999755859375</ele>
        <time>2020-08-22T09:46:24.000Z</time>
      </trkpt>
      <trkpt lat="40.050969980657100677490234375" lon="-0.975771211087703704833984375">
        <ele>1574.800048828125</ele>
        <time>2020-08-22T09:46:30.000Z</time>
      </trkpt>
      <trkpt lat="40.05062657408416271209716796875" lon="-0.97601629793643951416015625">
        <ele>1575.800048828125</ele>
        <time>2020-08-22T09:46:44.000Z</time>
      </trkpt>
      <trkpt lat="40.05043664015829563140869140625" lon="-0.97624336369335651397705078125">
        <ele>1577</ele>
        <time>2020-08-22T09:46:54.000Z</time>
      </trkpt>
      <trkpt lat="40.0503170304000377655029296875" lon="-0.97640664316713809967041015625">
        <ele>1578</ele>
        <time>2020-08-22T09:47:01.000Z</time>
      </trkpt>
      <trkpt lat="40.0502342171967029571533203125" lon="-0.97652784548699855804443359375">
        <ele>1579.4000244140625</ele>
        <time>2020-08-22T09:47:06.000Z</time>
      </trkpt>
      <trkpt lat="40.0501701794564723968505859375" lon="-0.97662641666829586029052734375">
        <ele>1580.4000244140625</ele>
        <time>2020-08-22T09:47:10.000Z</time>
      </trkpt>
      <trkpt lat="40.0500632263720035552978515625" lon="-0.97680461592972278594970703125">
        <ele>1581.800048828125</ele>
        <time>2020-08-22T09:47:17.000Z</time>
      </trkpt>
      <trkpt lat="40.049982927739620208740234375" lon="-0.9769616089761257171630859375">
        <ele>1583</ele>
        <time>2020-08-22T09:47:23.000Z</time>
      </trkpt>
      <trkpt lat="40.04992358386516571044921875" lon="-0.97709513269364833831787109375">
        <ele>1584.199951171875</ele>
        <time>2020-08-22T09:47:28.000Z</time>
      </trkpt>
      <trkpt lat="40.0498707778751850128173828125" lon="-0.9772224538028240203857421875">
        <ele>1585.4000244140625</ele>
        <time>2020-08-22T09:47:33.000Z</time>
      </trkpt>
      <trkpt lat="40.04983750171959400177001953125" lon="-0.9773622639477252960205078125">
        <ele>1586.4000244140625</ele>
        <time>2020-08-22T09:47:38.000Z</time>
      </trkpt>
      <trkpt lat="40.04979575984179973602294921875" lon="-0.97751188091933727264404296875">
        <ele>1587.5999755859375</ele>
        <time>2020-08-22T09:47:43.000Z</time>
      </trkpt>
      <trkpt lat="40.0497564487159252166748046875" lon="-0.97772159613668918609619140625">
        <ele>1588.800048828125</ele>
        <time>2020-08-22T09:47:50.000Z</time>
      </trkpt>
      <trkpt lat="40.04975871182978153228759765625" lon="-0.9778665192425251007080078125">
        <ele>1590</ele>
        <time>2020-08-22T09:47:55.000Z</time>
      </trkpt>
      <trkpt lat="40.0497715361416339874267578125" lon="-0.9779858775436878204345703125">
        <ele>1591</ele>
        <time>2020-08-22T09:47:59.000Z</time>
      </trkpt>
      <trkpt lat="40.04978436045348644256591796875" lon="-0.9780985303223133087158203125">
        <ele>1592</ele>
        <time>2020-08-22T09:48:03.000Z</time>
      </trkpt>
      <trkpt lat="40.04979928024113178253173828125" lon="-0.9782343171536922454833984375">
        <ele>1593.199951171875</ele>
        <time>2020-08-22T09:48:08.000Z</time>
      </trkpt>
      <trkpt lat="40.04980883561074733734130859375" lon="-0.9783570282161235809326171875">
        <ele>1594.4000244140625</ele>
        <time>2020-08-22T09:48:12.000Z</time>
      </trkpt>
      <trkpt lat="40.049820654094219207763671875" lon="-0.97847588360309600830078125">
        <ele>1595.5999755859375</ele>
        <time>2020-08-22T09:48:16.000Z</time>
      </trkpt>
      <trkpt lat="40.04982073791325092315673828125" lon="-0.97859063185751438140869140625">
        <ele>1597</ele>
        <time>2020-08-22T09:48:20.000Z</time>
      </trkpt>
      <trkpt lat="40.04985057748854160308837890625" lon="-0.9788019396364688873291015625">
        <ele>1598</ele>
        <time>2020-08-22T09:48:28.000Z</time>
      </trkpt>
      <trkpt lat="40.0498778186738491058349609375" lon="-0.97904006950557231903076171875">
        <ele>1599.199951171875</ele>
        <time>2020-08-22T09:48:36.000Z</time>
      </trkpt>
      <trkpt lat="40.04991226829588413238525390625" lon="-0.9791818074882030487060546875">
        <ele>1600.199951171875</ele>
        <time>2020-08-22T09:48:41.000Z</time>
      </trkpt>
      <trkpt lat="40.04995032213628292083740234375" lon="-0.97939495928585529327392578125">
        <ele>1601.4000244140625</ele>
        <time>2020-08-22T09:48:48.000Z</time>
      </trkpt>
      <trkpt lat="40.0500038824975490570068359375" lon="-0.97956175915896892547607421875">
        <ele>1602.4000244140625</ele>
        <time>2020-08-22T09:48:54.000Z</time>
      </trkpt>
      <trkpt lat="40.0500642322003841400146484375" lon="-0.97972302697598934173583984375">
        <ele>1603.4000244140625</ele>
        <time>2020-08-22T09:49:00.000Z</time>
      </trkpt>
      <trkpt lat="40.05013413727283477783203125" lon="-0.97994430921971797943115234375">
        <ele>1604.4000244140625</ele>
        <time>2020-08-22T09:49:08.000Z</time>
      </trkpt>
      <trkpt lat="40.05020664073526859283447265625" lon="-0.98016391508281230926513671875">
        <ele>1605.4000244140625</ele>
        <time>2020-08-22T09:49:16.000Z</time>
      </trkpt>
      <trkpt lat="40.05030420608818531036376953125" lon="-0.9803110174834728240966796875">
        <ele>1606.5999755859375</ele>
        <time>2020-08-22T09:49:22.000Z</time>
      </trkpt>
      <trkpt lat="40.050438232719898223876953125" lon="-0.98048217594623565673828125">
        <ele>1607.800048828125</ele>
        <time>2020-08-22T09:49:30.000Z</time>
      </trkpt>
      <trkpt lat="40.05052439868450164794921875" lon="-0.9805852733552455902099609375">
        <ele>1609</ele>
        <time>2020-08-22T09:49:35.000Z</time>
      </trkpt>
      <trkpt lat="40.0506117381155490875244140625" lon="-0.980683676898479461669921875">
        <ele>1610</ele>
        <time>2020-08-22T09:49:40.000Z</time>
      </trkpt>
      <trkpt lat="40.0507445074617862701416015625" lon="-0.98073899745941162109375">
        <ele>1611.199951171875</ele>
        <time>2020-08-22T09:49:46.000Z</time>
      </trkpt>
      <trkpt lat="40.05086059682071208953857421875" lon="-0.98072282038629055023193359375">
        <ele>1612.199951171875</ele>
        <time>2020-08-22T09:49:51.000Z</time>
      </trkpt>
      <trkpt lat="40.05092949606478214263916015625" lon="-0.98070505075156688690185546875">
        <ele>1613.4000244140625</ele>
        <time>2020-08-22T09:49:54.000Z</time>
      </trkpt>
      <trkpt lat="40.05104231648147106170654296875" lon="-0.98069331608712673187255859375">
        <ele>1614.5999755859375</ele>
        <time>2020-08-22T09:49:59.000Z</time>
      </trkpt>
      <trkpt lat="40.051147006452083587646484375" lon="-0.9806761331856250762939453125">
        <ele>1615.800048828125</ele>
        <time>2020-08-22T09:50:04.000Z</time>
      </trkpt>
      <trkpt lat="40.0512667000293731689453125" lon="-0.9806680865585803985595703125">
        <ele>1617</ele>
        <time>2020-08-22T09:50:09.000Z</time>
      </trkpt>
      <trkpt lat="40.0513899140059947967529296875" lon="-0.98067420534789562225341796875">
        <ele>1618.199951171875</ele>
        <time>2020-08-22T09:50:14.000Z</time>
      </trkpt>
      <trkpt lat="40.05148488096892833709716796875" lon="-0.980695746839046478271484375">
        <ele>1619.4000244140625</ele>
        <time>2020-08-22T09:50:18.000Z</time>
      </trkpt>
      <trkpt lat="40.05160675384104251861572265625" lon="-0.98074528388679027557373046875">
        <ele>1620.4000244140625</ele>
        <time>2020-08-22T09:50:23.000Z</time>
      </trkpt>
      <trkpt lat="40.05169929005205631256103515625" lon="-0.9807968325912952423095703125">
        <ele>1621.5999755859375</ele>
        <time>2020-08-22T09:50:27.000Z</time>
      </trkpt>
      <trkpt lat="40.051870532333850860595703125" lon="-0.9809369780123233795166015625">
        <ele>1622.5999755859375</ele>
        <time>2020-08-22T09:50:36.000Z</time>
      </trkpt>
      <trkpt lat="40.0521087460219860076904296875" lon="-0.98113596439361572265625">
        <ele>1623.5999755859375</ele>
        <time>2020-08-22T09:50:48.000Z</time>
      </trkpt>
      <trkpt lat="40.052286945283412933349609375" lon="-0.98124836571514606475830078125">
        <ele>1624.5999755859375</ele>
        <time>2020-08-22T09:50:55.000Z</time>
      </trkpt>
      <trkpt lat="40.05247143097221851348876953125" lon="-0.98135598935186862945556640625">
        <ele>1625.800048828125</ele>
        <time>2020-08-22T09:51:02.000Z</time>
      </trkpt>
      <trkpt lat="40.05270226858556270599365234375" lon="-0.98157785832881927490234375">
        <ele>1626.800048828125</ele>
        <time>2020-08-22T09:51:12.000Z</time>
      </trkpt>
      <trkpt lat="40.0528041087090969085693359375" lon="-0.9817114658653736114501953125">
        <ele>1628</ele>
        <time>2020-08-22T09:51:17.000Z</time>
      </trkpt>
      <trkpt lat="40.05295506678521633148193359375" lon="-0.9819917567074298858642578125">
        <ele>1629</ele>
        <time>2020-08-22T09:51:26.000Z</time>
      </trkpt>
      <trkpt lat="40.05326167680323123931884765625" lon="-0.98261964507400989532470703125">
        <ele>1629.800048828125</ele>
        <time>2020-08-22T09:51:42.000Z</time>
      </trkpt>
      <trkpt lat="40.05337558686733245849609375" lon="-0.9827511571347713470458984375">
        <ele>1630</ele>
        <time>2020-08-22T09:51:46.000Z</time>
      </trkpt>
      <trkpt lat="40.053591169416904449462890625" lon="-0.98296858370304107666015625">
        <ele>1631.199951171875</ele>
        <time>2020-08-22T09:51:55.000Z</time>
      </trkpt>
      <trkpt lat="40.05378990434110164642333984375" lon="-0.98313915543258190155029296875">
        <ele>1632.4000244140625</ele>
        <time>2020-08-22T09:52:04.000Z</time>
      </trkpt>
      <trkpt lat="40.0538987852632999420166015625" lon="-0.98321962170302867889404296875">
        <ele>1633.800048828125</ele>
        <time>2020-08-22T09:52:09.000Z</time>
      </trkpt>
      <trkpt lat="40.05397631786763668060302734375" lon="-0.983285419642925262451171875">
        <ele>1635</ele>
        <time>2020-08-22T09:52:13.000Z</time>
      </trkpt>
      <trkpt lat="40.054029710590839385986328125" lon="-0.98332875408232212066650390625">
        <ele>1636</ele>
        <time>2020-08-22T09:52:16.000Z</time>
      </trkpt>
      <trkpt lat="40.0541093386709690093994140625" lon="-0.98339974880218505859375">
        <ele>1637</ele>
        <time>2020-08-22T09:52:20.000Z</time>
      </trkpt>
      <trkpt lat="40.054226852953433990478515625" lon="-0.9834991581737995147705078125">
        <ele>1638.199951171875</ele>
        <time>2020-08-22T09:52:26.000Z</time>
      </trkpt>
      <trkpt lat="40.05430287681519985198974609375" lon="-0.9835719130933284759521484375">
        <ele>1639.4000244140625</ele>
        <time>2020-08-22T09:52:30.000Z</time>
      </trkpt>
      <trkpt lat="40.05440748296678066253662109375" lon="-0.98371289670467376708984375">
        <ele>1640.4000244140625</ele>
        <time>2020-08-22T09:52:37.000Z</time>
      </trkpt>
      <trkpt lat="40.05447654984891414642333984375" lon="-0.98382680676877498626708984375">
        <ele>1641.4000244140625</ele>
        <time>2020-08-22T09:52:42.000Z</time>
      </trkpt>
      <trkpt lat="40.05454377271234989166259765625" lon="-0.983941555023193359375">
        <ele>1642.4000244140625</ele>
        <time>2020-08-22T09:52:47.000Z</time>
      </trkpt>
      <trkpt lat="40.0547295995056629180908203125" lon="-0.98417155444622039794921875">
        <ele>1643.800048828125</ele>
        <time>2020-08-22T09:52:56.000Z</time>
      </trkpt>
      <trkpt lat="40.0548930466175079345703125" lon="-0.98428596742451190948486328125">
        <ele>1644.800048828125</ele>
        <time>2020-08-22T09:53:02.000Z</time>
      </trkpt>
      <trkpt lat="40.0551974773406982421875" lon="-0.98456206731498241424560546875">
        <ele>1646</ele>
        <time>2020-08-22T09:53:13.000Z</time>
      </trkpt>
      <trkpt lat="40.0553626008331775665283203125" lon="-0.9850169532001018524169921875">
        <ele>1646</ele>
        <time>2020-08-22T09:53:25.000Z</time>
      </trkpt>
      <trkpt lat="40.055266879498958587646484375" lon="-0.98507403396070003509521484375">
        <ele>1646</ele>
        <time>2020-08-22T09:53:27.000Z</time>
      </trkpt>
      <trkpt lat="40.05515783093869686126708984375" lon="-0.985085181891918182373046875">
        <ele>1645.800048828125</ele>
        <time>2020-08-22T09:53:29.000Z</time>
      </trkpt>
      <trkpt lat="40.05503864027559757232666015625" lon="-0.9850613772869110107421875">
        <ele>1645.4000244140625</ele>
        <time>2020-08-22T09:53:31.000Z</time>
      </trkpt>
      <trkpt lat="40.0548375584185123443603515625" lon="-0.9849674999713897705078125">
        <ele>1644.800048828125</ele>
        <time>2020-08-22T09:53:34.000Z</time>
      </trkpt>
      <trkpt lat="40.05444050766527652740478515625" lon="-0.9847529232501983642578125">
        <ele>1643.800048828125</ele>
        <time>2020-08-22T09:53:40.000Z</time>
      </trkpt>
      <trkpt lat="40.05404706113040447235107421875" lon="-0.9845502488315105438232421875">
        <ele>1643</ele>
        <time>2020-08-22T09:53:48.000Z</time>
      </trkpt>
      <trkpt lat="40.0538166426122188568115234375" lon="-0.98444522358477115631103515625">
        <ele>1643.800048828125</ele>
        <time>2020-08-22T09:53:53.000Z</time>
      </trkpt>
      <trkpt lat="40.0532745011150836944580078125" lon="-0.98430122248828411102294921875">
        <ele>1643.800048828125</ele>
        <time>2020-08-22T09:54:02.000Z</time>
      </trkpt>
      <trkpt lat="40.05290980450809001922607421875" lon="-0.9842433035373687744140625">
        <ele>1642.5999755859375</ele>
        <time>2020-08-22T09:54:07.000Z</time>
      </trkpt>
      <trkpt lat="40.0527202896773815155029296875" lon="-0.98423232324421405792236328125">
        <ele>1641.4000244140625</ele>
        <time>2020-08-22T09:54:10.000Z</time>
      </trkpt>
      <trkpt lat="40.0521491467952728271484375" lon="-0.984328798949718475341796875">
        <ele>1641.4000244140625</ele>
        <time>2020-08-22T09:54:22.000Z</time>
      </trkpt>
      <trkpt lat="40.0515991263091564178466796875" lon="-0.98457480780780315399169921875">
        <ele>1642.199951171875</ele>
        <time>2020-08-22T09:54:36.000Z</time>
      </trkpt>
      <trkpt lat="40.05139184184372425079345703125" lon="-0.98475619219243526458740234375">
        <ele>1642.4000244140625</ele>
        <time>2020-08-22T09:54:42.000Z</time>
      </trkpt>
      <trkpt lat="40.05113988183438777923583984375" lon="-0.98508995957672595977783203125">
        <ele>1643.5999755859375</ele>
        <time>2020-08-22T09:54:53.000Z</time>
      </trkpt>
      <trkpt lat="40.05105908028781414031982421875" lon="-0.98521518521010875701904296875">
        <ele>1644.800048828125</ele>
        <time>2020-08-22T09:54:57.000Z</time>
      </trkpt>
      <trkpt lat="40.05096788518130779266357421875" lon="-0.98536220379173755645751953125">
        <ele>1646</ele>
        <time>2020-08-22T09:55:02.000Z</time>
      </trkpt>
      <trkpt lat="40.05087987519800662994384765625" lon="-0.98549698479473590850830078125">
        <ele>1647.4000244140625</ele>
        <time>2020-08-22T09:55:07.000Z</time>
      </trkpt>
      <trkpt lat="40.050814412534236907958984375" lon="-0.9855949692428112030029296875">
        <ele>1648.5999755859375</ele>
        <time>2020-08-22T09:55:11.000Z</time>
      </trkpt>
      <trkpt lat="40.050710476934909820556640625" lon="-0.985746681690216064453125">
        <ele>1649.5999755859375</ele>
        <time>2020-08-22T09:55:17.000Z</time>
      </trkpt>
      <trkpt lat="40.05064736120402812957763671875" lon="-0.9858504496514797210693359375">
        <ele>1650.800048828125</ele>
        <time>2020-08-22T09:55:21.000Z</time>
      </trkpt>
      <trkpt lat="40.0505741871893405914306640625" lon="-0.98598665557801723480224609375">
        <ele>1652</ele>
        <time>2020-08-22T09:55:26.000Z</time>
      </trkpt>
      <trkpt lat="40.05052951164543628692626953125" lon="-0.98606628365814685821533203125">
        <ele>1653</ele>
        <time>2020-08-22T09:55:29.000Z</time>
      </trkpt>
      <trkpt lat="40.050440244376659393310546875" lon="-0.98620693199336528778076171875">
        <ele>1654</ele>
        <time>2020-08-22T09:55:35.000Z</time>
      </trkpt>
      <trkpt lat="40.05035500042140483856201171875" lon="-0.98636560142040252685546875">
        <ele>1655.4000244140625</ele>
        <time>2020-08-22T09:55:41.000Z</time>
      </trkpt>
      <trkpt lat="40.05026967264711856842041015625" lon="-0.9865312278270721435546875">
        <ele>1656.4000244140625</ele>
        <time>2020-08-22T09:55:47.000Z</time>
      </trkpt>
      <trkpt lat="40.05021217279136180877685546875" lon="-0.986642204225063323974609375">
        <ele>1657.5999755859375</ele>
        <time>2020-08-22T09:55:51.000Z</time>
      </trkpt>
      <trkpt lat="40.05014310590922832489013671875" lon="-0.98678830079734325408935546875">
        <ele>1658.5999755859375</ele>
        <time>2020-08-22T09:55:56.000Z</time>
      </trkpt>
      <trkpt lat="40.0500087440013885498046875" lon="-0.9870571084320545196533203125">
        <ele>1659.5999755859375</ele>
        <time>2020-08-22T09:56:05.000Z</time>
      </trkpt>
      <trkpt lat="40.0498449616134166717529296875" lon="-0.98734905011951923370361328125">
        <ele>1660.5999755859375</ele>
        <time>2020-08-22T09:56:15.000Z</time>
      </trkpt>
      <trkpt lat="40.04975401796400547027587890625" lon="-0.9875057078897953033447265625">
        <ele>1661.800048828125</ele>
        <time>2020-08-22T09:56:21.000Z</time>
      </trkpt>
      <trkpt lat="40.049668438732624053955078125" lon="-0.987743921577930450439453125">
        <ele>1662.800048828125</ele>
        <time>2020-08-22T09:56:29.000Z</time>
      </trkpt>
      <trkpt lat="40.0496230088174343109130859375" lon="-0.987892113626003265380859375">
        <ele>1664</ele>
        <time>2020-08-22T09:56:34.000Z</time>
      </trkpt>
      <trkpt lat="40.0495995394885540008544921875" lon="-0.9880116395652294158935546875">
        <ele>1665</ele>
        <time>2020-08-22T09:56:38.000Z</time>
      </trkpt>
      <trkpt lat="40.04958738572895526885986328125" lon="-0.9881353564560413360595703125">
        <ele>1666</ele>
        <time>2020-08-22T09:56:42.000Z</time>
      </trkpt>
      <trkpt lat="40.0495723821222782135009765625" lon="-0.98826385103166103363037109375">
        <ele>1667.4000244140625</ele>
        <time>2020-08-22T09:56:46.000Z</time>
      </trkpt>
      <trkpt lat="40.0495442189276218414306640625" lon="-0.98839879967272281646728515625">
        <ele>1668.4000244140625</ele>
        <time>2020-08-22T09:56:50.000Z</time>
      </trkpt>
      <trkpt lat="40.04951563663780689239501953125" lon="-0.98853207193315029144287109375">
        <ele>1669.800048828125</ele>
        <time>2020-08-22T09:56:54.000Z</time>
      </trkpt>
      <trkpt lat="40.0494615733623504638671875" lon="-0.98870926536619663238525390625">
        <ele>1670.800048828125</ele>
        <time>2020-08-22T09:56:59.000Z</time>
      </trkpt>
      <trkpt lat="40.04940717481076717376708984375" lon="-0.98897195421159267425537109375">
        <ele>1672</ele>
        <time>2020-08-22T09:57:07.000Z</time>
      </trkpt>
      <trkpt lat="40.04934917204082012176513671875" lon="-0.98915300332009792327880859375">
        <ele>1673.199951171875</ele>
        <time>2020-08-22T09:57:13.000Z</time>
      </trkpt>
      <trkpt lat="40.04929058253765106201171875" lon="-0.98932349123060703277587890625">
        <ele>1674.4000244140625</ele>
        <time>2020-08-22T09:57:18.000Z</time>
      </trkpt>
      <trkpt lat="40.0492183305323123931884765625" lon="-0.9895237348973751068115234375">
        <ele>1675.4000244140625</ele>
        <time>2020-08-22T09:57:24.000Z</time>
      </trkpt>
      <trkpt lat="40.04913928918540477752685546875" lon="-0.98971693776547908782958984375">
        <ele>1676.4000244140625</ele>
        <time>2020-08-22T09:57:30.000Z</time>
      </trkpt>
      <trkpt lat="40.04907022230327129364013671875" lon="-0.98987937904894351959228515625">
        <ele>1677.4000244140625</ele>
        <time>2020-08-22T09:57:35.000Z</time>
      </trkpt>
      <trkpt lat="40.048987157642841339111328125" lon="-0.9900819696485996246337890625">
        <ele>1678.5999755859375</ele>
        <time>2020-08-22T09:57:41.000Z</time>
      </trkpt>
      <trkpt lat="40.0488795340061187744140625" lon="-0.99034977145493030548095703125">
        <ele>1679.800048828125</ele>
        <time>2020-08-22T09:57:49.000Z</time>
      </trkpt>
      <trkpt lat="40.0488022528588771820068359375" lon="-0.9905503503978252410888671875">
        <ele>1680.800048828125</ele>
        <time>2020-08-22T09:57:55.000Z</time>
      </trkpt>
      <trkpt lat="40.0486751832067966461181640625" lon="-0.99090700037777423858642578125">
        <ele>1682</ele>
        <time>2020-08-22T09:58:06.000Z</time>
      </trkpt>
      <trkpt lat="40.04864056594669818878173828125" lon="-0.991075895726680755615234375">
        <ele>1683</ele>
        <time>2020-08-22T09:58:11.000Z</time>
      </trkpt>
      <trkpt lat="40.04861894063651561737060546875" lon="-0.99123221822082996368408203125">
        <ele>1684.199951171875</ele>
        <time>2020-08-22T09:58:16.000Z</time>
      </trkpt>
      <trkpt lat="40.048623383045196533203125" lon="-0.99140019156038761138916015625">
        <ele>1685.4000244140625</ele>
        <time>2020-08-22T09:58:21.000Z</time>
      </trkpt>
      <trkpt lat="40.04867124371230602264404296875" lon="-0.991540253162384033203125">
        <ele>1686.4000244140625</ele>
        <time>2020-08-22T09:58:26.000Z</time>
      </trkpt>
      <trkpt lat="40.04879982210695743560791015625" lon="-0.99157906137406826019287109375">
        <ele>1687.5999755859375</ele>
        <time>2020-08-22T09:58:32.000Z</time>
      </trkpt>
      <trkpt lat="40.0488636083900928497314453125" lon="-0.9915008582174777984619140625">
        <ele>1688.5999755859375</ele>
        <time>2020-08-22T09:58:36.000Z</time>
      </trkpt>
      <trkpt lat="40.04890744574368000030517578125" lon="-0.9913664124906063079833984375">
        <ele>1689.800048828125</ele>
        <time>2020-08-22T09:58:40.000Z</time>
      </trkpt>
      <trkpt lat="40.04892840050160884857177734375" lon="-0.991301201283931732177734375">
        <ele>1691</ele>
        <time>2020-08-22T09:58:42.000Z</time>
      </trkpt>
      <trkpt lat="40.0490020774304866790771484375" lon="-0.9911273606121540069580078125">
        <ele>1692</ele>
        <time>2020-08-22T09:58:48.000Z</time>
      </trkpt>
      <trkpt lat="40.0490538775920867919921875" lon="-0.9910212457180023193359375">
        <ele>1693.199951171875</ele>
        <time>2020-08-22T09:58:52.000Z</time>
      </trkpt>
      <trkpt lat="40.04913040436804294586181640625" lon="-0.9908534400165081024169921875">
        <ele>1694.199951171875</ele>
        <time>2020-08-22T09:58:58.000Z</time>
      </trkpt>
      <trkpt lat="40.04925261251628398895263671875" lon="-0.99062025547027587890625">
        <ele>1695.4000244140625</ele>
        <time>2020-08-22T09:59:05.000Z</time>
      </trkpt>
      <trkpt lat="40.0495847873389720916748046875" lon="-0.99005707539618015289306640625">
        <ele>1696.199951171875</ele>
        <time>2020-08-22T09:59:19.000Z</time>
      </trkpt>
      <trkpt lat="40.04983817227184772491455078125" lon="-0.98965910263359546661376953125">
        <ele>1695.5999755859375</ele>
        <time>2020-08-22T09:59:27.000Z</time>
      </trkpt>
      <trkpt lat="40.0502553395926952362060546875" lon="-0.98913456313312053680419921875">
        <ele>1695.800048828125</ele>
        <time>2020-08-22T09:59:40.000Z</time>
      </trkpt>
      <trkpt lat="40.05044904537498950958251953125" lon="-0.988886542618274688720703125">
        <ele>1696.4000244140625</ele>
        <time>2020-08-22T09:59:47.000Z</time>
      </trkpt>
      <trkpt lat="40.0506107322871685028076171875" lon="-0.98870775662362575531005859375">
        <ele>1697.5999755859375</ele>
        <time>2020-08-22T09:59:53.000Z</time>
      </trkpt>
      <trkpt lat="40.0507089681923389434814453125" lon="-0.98858923651278018951416015625">
        <ele>1698.5999755859375</ele>
        <time>2020-08-22T09:59:57.000Z</time>
      </trkpt>
      <trkpt lat="40.05087786354124546051025390625" lon="-0.9884025715291500091552734375">
        <ele>1699.5999755859375</ele>
        <time>2020-08-22T10:00:04.000Z</time>
      </trkpt>
      <trkpt lat="40.05104483105242252349853515625" lon="-0.98820618353784084320068359375">
        <ele>1700.800048828125</ele>
        <time>2020-08-22T10:00:11.000Z</time>
      </trkpt>
      <trkpt lat="40.051135607063770294189453125" lon="-0.98809939809143543243408203125">
        <ele>1701.800048828125</ele>
        <time>2020-08-22T10:00:15.000Z</time>
      </trkpt>
      <trkpt lat="40.05134272389113903045654296875" lon="-0.98784592933952808380126953125">
        <ele>1703</ele>
        <time>2020-08-22T10:00:24.000Z</time>
      </trkpt>
      <trkpt lat="40.05152293480932712554931640625" lon="-0.987624563276767730712890625">
        <ele>1704.199951171875</ele>
        <time>2020-08-22T10:00:32.000Z</time>
      </trkpt>
      <trkpt lat="40.05170364864170551300048828125" lon="-0.98737654276192188262939453125">
        <ele>1705.4000244140625</ele>
        <time>2020-08-22T10:00:41.000Z</time>
      </trkpt>
      <trkpt lat="40.05183826200664043426513671875" lon="-0.98724000155925750732421875">
        <ele>1706.5999755859375</ele>
        <time>2020-08-22T10:00:46.000Z</time>
      </trkpt>
      <trkpt lat="40.05194152705371379852294921875" lon="-0.9871657378971576690673828125">
        <ele>1707.800048828125</ele>
        <time>2020-08-22T10:00:50.000Z</time>
      </trkpt>
      <trkpt lat="40.05200455896556377410888671875" lon="-0.98709440790116786956787109375">
        <ele>1709</ele>
        <time>2020-08-22T10:00:53.000Z</time>
      </trkpt>
      <trkpt lat="40.052079074084758758544921875" lon="-0.98700991831719875335693359375">
        <ele>1710.199951171875</ele>
        <time>2020-08-22T10:00:57.000Z</time>
      </trkpt>
      <trkpt lat="40.05218711681663990020751953125" lon="-0.98691277205944061279296875">
        <ele>1711.199951171875</ele>
        <time>2020-08-22T10:01:02.000Z</time>
      </trkpt>
      <trkpt lat="40.05235140211880207061767578125" lon="-0.986814200878143310546875">
        <ele>1712.199951171875</ele>
        <time>2020-08-22T10:01:08.000Z</time>
      </trkpt>
      <trkpt lat="40.0524946488440036773681640625" lon="-0.986707247793674468994140625">
        <ele>1713.5999755859375</ele>
        <time>2020-08-22T10:01:14.000Z</time>
      </trkpt>
      <trkpt lat="40.0526954792439937591552734375" lon="-0.986549668014049530029296875">
        <ele>1714.800048828125</ele>
        <time>2020-08-22T10:01:22.000Z</time>
      </trkpt>
      <trkpt lat="40.05282112397253513336181640625" lon="-0.98646744154393672943115234375">
        <ele>1716</ele>
        <time>2020-08-22T10:01:27.000Z</time>
      </trkpt>
      <trkpt lat="40.0530307553708553314208984375" lon="-0.98636216484010219573974609375">
        <ele>1717.4000244140625</ele>
        <time>2020-08-22T10:01:35.000Z</time>
      </trkpt>
      <trkpt lat="40.05313544534146785736083984375" lon="-0.98635755479335784912109375">
        <ele>1718.5999755859375</ele>
        <time>2020-08-22T10:01:39.000Z</time>
      </trkpt>
      <trkpt lat="40.053219683468341827392578125" lon="-0.98642461001873016357421875">
        <ele>1719.5999755859375</ele>
        <time>2020-08-22T10:01:43.000Z</time>
      </trkpt>
      <trkpt lat="40.05326854996383190155029296875" lon="-0.986534245312213897705078125">
        <ele>1720.800048828125</ele>
        <time>2020-08-22T10:01:47.000Z</time>
      </trkpt>
      <trkpt lat="40.05329101346433162689208984375" lon="-0.9866626560688018798828125">
        <ele>1722</ele>
        <time>2020-08-22T10:01:51.000Z</time>
      </trkpt>
      <trkpt lat="40.05329805426299571990966796875" lon="-0.98679081536829471588134765625">
        <ele>1723.199951171875</ele>
        <time>2020-08-22T10:01:55.000Z</time>
      </trkpt>
      <trkpt lat="40.05333929322659969329833984375" lon="-0.9869612194597721099853515625">
        <ele>1724.199951171875</ele>
        <time>2020-08-22T10:02:01.000Z</time>
      </trkpt>
      <trkpt lat="40.053385980427265167236328125" lon="-0.9871278516948223114013671875">
        <ele>1725.4000244140625</ele>
        <time>2020-08-22T10:02:07.000Z</time>
      </trkpt>
      <trkpt lat="40.05344088189303874969482421875" lon="-0.98726908676326274871826171875">
        <ele>1726.5999755859375</ele>
        <time>2020-08-22T10:02:12.000Z</time>
      </trkpt>
      <trkpt lat="40.0534820370376110076904296875" lon="-0.98740152083337306976318359375">
        <ele>1727.5999755859375</ele>
        <time>2020-08-22T10:02:17.000Z</time>
      </trkpt>
      <trkpt lat="40.05352503620088100433349609375" lon="-0.9875343739986419677734375">
        <ele>1728.800048828125</ele>
        <time>2020-08-22T10:02:22.000Z</time>
      </trkpt>
      <trkpt lat="40.05355261266231536865234375" lon="-0.98768617026507854461669921875">
        <ele>1729.800048828125</ele>
        <time>2020-08-22T10:02:27.000Z</time>
      </trkpt>
      <trkpt lat="40.0535785965621471405029296875" lon="-0.98783134482800960540771484375">
        <ele>1730.800048828125</ele>
        <time>2020-08-22T10:02:32.000Z</time>
      </trkpt>
      <trkpt lat="40.0536101125180721282958984375" lon="-0.9879975579679012298583984375">
        <ele>1732</ele>
        <time>2020-08-22T10:02:38.000Z</time>
      </trkpt>
      <trkpt lat="40.0536493398249149322509765625" lon="-0.98816226236522197723388671875">
        <ele>1733.199951171875</ele>
        <time>2020-08-22T10:02:44.000Z</time>
      </trkpt>
      <trkpt lat="40.0536754913628101348876953125" lon="-0.98830089904367923736572265625">
        <ele>1734.199951171875</ele>
        <time>2020-08-22T10:02:49.000Z</time>
      </trkpt>
      <trkpt lat="40.053701139986515045166015625" lon="-0.988433919847011566162109375">
        <ele>1735.5999755859375</ele>
        <time>2020-08-22T10:02:54.000Z</time>
      </trkpt>
      <trkpt lat="40.053732655942440032958984375" lon="-0.988529138267040252685546875">
        <ele>1736.5999755859375</ele>
        <time>2020-08-22T10:02:58.000Z</time>
      </trkpt>
      <trkpt lat="40.0537586398422718048095703125" lon="-0.9886791743338108062744140625">
        <ele>1737.5999755859375</ele>
        <time>2020-08-22T10:03:04.000Z</time>
      </trkpt>
      <trkpt lat="40.05376526154577732086181640625" lon="-0.9887547791004180908203125">
        <ele>1738.800048828125</ele>
        <time>2020-08-22T10:03:07.000Z</time>
      </trkpt>
      <trkpt lat="40.05374380387365818023681640625" lon="-0.98887405358254909515380859375">
        <ele>1740.199951171875</ele>
        <time>2020-08-22T10:03:12.000Z</time>
      </trkpt>
      <trkpt lat="40.05369837395846843719482421875" lon="-0.98895720206201076507568359375">
        <ele>1741.4000244140625</ele>
        <time>2020-08-22T10:03:16.000Z</time>
      </trkpt>
      <trkpt lat="40.05362947471439838409423828125" lon="-0.98901486955583095550537109375">
        <ele>1742.4000244140625</ele>
        <time>2020-08-22T10:03:20.000Z</time>
      </trkpt>
      <trkpt lat="40.0536107830703258514404296875" lon="-0.98902425728738307952880859375">
        <ele>1742.5999755859375</ele>
        <time>2020-08-22T10:03:21.000Z</time>
      </trkpt>
      <trkpt lat="40.05353257991373538970947265625" lon="-0.98904252983629703521728515625">
        <ele>1743.5999755859375</ele>
        <time>2020-08-22T10:03:25.000Z</time>
      </trkpt>
      <trkpt lat="40.05345379002392292022705078125" lon="-0.9890436194837093353271484375">
        <ele>1744.5999755859375</ele>
        <time>2020-08-22T10:03:29.000Z</time>
      </trkpt>
      <trkpt lat="40.05334549583494663238525390625" lon="-0.98905183374881744384765625">
        <ele>1745.800048828125</ele>
        <time>2020-08-22T10:03:34.000Z</time>
      </trkpt>
      <trkpt lat="40.05320115946233272552490234375" lon="-0.98905124701559543609619140625">
        <ele>1746.800048828125</ele>
        <time>2020-08-22T10:03:41.000Z</time>
      </trkpt>
      <trkpt lat="40.0530827231705188751220703125" lon="-0.9890927374362945556640625">
        <ele>1748</ele>
        <time>2020-08-22T10:03:47.000Z</time>
      </trkpt>
      <trkpt lat="40.0529523007571697235107421875" lon="-0.98925425671041011810302734375">
        <ele>1749.199951171875</ele>
        <time>2020-08-22T10:03:55.000Z</time>
      </trkpt>
      <trkpt lat="40.05285800434648990631103515625" lon="-0.98940127529203891754150390625">
        <ele>1750.4000244140625</ele>
        <time>2020-08-22T10:04:01.000Z</time>
      </trkpt>
      <trkpt lat="40.0528346188366413116455078125" lon="-0.98942373879253864288330078125">
        <ele>1751.4000244140625</ele>
        <time>2020-08-22T10:04:08.000Z</time>
      </trkpt>
      <trkpt lat="40.05281223915517330169677734375" lon="-0.9894077293574810028076171875">
        <ele>1752</ele>
        <time>2020-08-22T10:04:15.000Z</time>
      </trkpt>
      <trkpt lat="40.05295582115650177001953125" lon="-0.98979539237916469573974609375">
        <ele>1752.4000244140625</ele>
        <time>2020-08-22T10:32:14.000Z</time>
      </trkpt>
      <trkpt lat="40.05306922830641269683837890625" lon="-0.98987451754510402679443359375">
        <ele>1754.5999755859375</ele>
        <time>2020-08-22T10:32:24.000Z</time>
      </trkpt>
      <trkpt lat="40.05308247171342372894287109375" lon="-0.989885665476322174072265625">
        <ele>1755.800048828125</ele>
        <time>2020-08-22T10:32:25.000Z</time>
      </trkpt>
      <trkpt lat="40.05311817862093448638916015625" lon="-0.98990209400653839111328125">
        <ele>1756.800048828125</ele>
        <time>2020-08-22T10:32:27.000Z</time>
      </trkpt>
      <trkpt lat="40.0532332621514797210693359375" lon="-0.98995582200586795806884765625">
        <ele>1758</ele>
        <time>2020-08-22T10:32:34.000Z</time>
      </trkpt>
      <trkpt lat="40.05333459936082363128662109375" lon="-0.99000493995845317840576171875">
        <ele>1759</ele>
        <time>2020-08-22T10:32:40.000Z</time>
      </trkpt>
      <trkpt lat="40.053478516638278961181640625" lon="-0.99009387195110321044921875">
        <ele>1760.199951171875</ele>
        <time>2020-08-22T10:32:49.000Z</time>
      </trkpt>
      <trkpt lat="40.053573064506053924560546875" lon="-0.99015631712973117828369140625">
        <ele>1761.199951171875</ele>
        <time>2020-08-22T10:32:58.000Z</time>
      </trkpt>
      <trkpt lat="40.05371597595512866973876953125" lon="-0.990182049572467803955078125">
        <ele>1762.199951171875</ele>
        <time>2020-08-22T10:33:06.000Z</time>
      </trkpt>
      <trkpt lat="40.0537891499698162078857421875" lon="-0.99018347449600696563720703125">
        <ele>1763.4000244140625</ele>
        <time>2020-08-22T10:33:11.000Z</time>
      </trkpt>
      <trkpt lat="40.05387456156313419342041015625" lon="-0.99016654305160045623779296875">
        <ele>1764.4000244140625</ele>
        <time>2020-08-22T10:33:17.000Z</time>
      </trkpt>
      <trkpt lat="40.0540052354335784912109375" lon="-0.99010602571070194244384765625">
        <ele>1765.5999755859375</ele>
        <time>2020-08-22T10:33:24.000Z</time>
      </trkpt>
      <trkpt lat="40.05412266589701175689697265625" lon="-0.99005187861621379852294921875">
        <ele>1766.800048828125</ele>
        <time>2020-08-22T10:33:30.000Z</time>
      </trkpt>
      <trkpt lat="40.05425593815743923187255859375" lon="-0.98999203182756900787353515625">
        <ele>1767.800048828125</ele>
        <time>2020-08-22T10:33:37.000Z</time>
      </trkpt>
      <trkpt lat="40.05437680520117282867431640625" lon="-0.989914499223232269287109375">
        <ele>1768.800048828125</ele>
        <time>2020-08-22T10:33:44.000Z</time>
      </trkpt>
      <trkpt lat="40.05455634556710720062255859375" lon="-0.98981450311839580535888671875">
        <ele>1770.199951171875</ele>
        <time>2020-08-22T10:33:53.000Z</time>
      </trkpt>
      <trkpt lat="40.05470487289130687713623046875" lon="-0.98971978761255741119384765625">
        <ele>1771.199951171875</ele>
        <time>2020-08-22T10:34:01.000Z</time>
      </trkpt>
      <trkpt lat="40.0548093952238559722900390625" lon="-0.98965189419686794281005859375">
        <ele>1772.4000244140625</ele>
        <time>2020-08-22T10:34:07.000Z</time>
      </trkpt>
      <trkpt lat="40.05487351678311824798583984375" lon="-0.9895969927310943603515625">
        <ele>1773.4000244140625</ele>
        <time>2020-08-22T10:34:11.000Z</time>
      </trkpt>
      <trkpt lat="40.05495934747159481048583984375" lon="-0.98954544402658939361572265625">
        <ele>1774.4000244140625</ele>
        <time>2020-08-22T10:34:16.000Z</time>
      </trkpt>
      <trkpt lat="40.05504819564521312713623046875" lon="-0.989512167870998382568359375">
        <ele>1775.4000244140625</ele>
        <time>2020-08-22T10:34:21.000Z</time>
      </trkpt>
      <trkpt lat="40.0551399774849414825439453125" lon="-0.98949439823627471923828125">
        <ele>1776.5999755859375</ele>
        <time>2020-08-22T10:34:26.000Z</time>
      </trkpt>
      <trkpt lat="40.0552301667630672454833984375" lon="-0.98947227001190185546875">
        <ele>1777.5999755859375</ele>
        <time>2020-08-22T10:34:31.000Z</time>
      </trkpt>
      <trkpt lat="40.0553589127957820892333984375" lon="-0.98943899385631084442138671875">
        <ele>1778.800048828125</ele>
        <time>2020-08-22T10:34:38.000Z</time>
      </trkpt>
      <trkpt lat="40.05547315813601016998291015625" lon="-0.98941200412809848785400390625">
        <ele>1780</ele>
        <time>2020-08-22T10:34:44.000Z</time>
      </trkpt>
      <trkpt lat="40.0555704720318317413330078125" lon="-0.9893815778195858001708984375">
        <ele>1781</ele>
        <time>2020-08-22T10:34:49.000Z</time>
      </trkpt>
      <trkpt lat="40.0556646846234798431396484375" lon="-0.98936439491808414459228515625">
        <ele>1782.199951171875</ele>
        <time>2020-08-22T10:34:54.000Z</time>
      </trkpt>
      <trkpt lat="40.05573919974267482757568359375" lon="-0.98935148678719997406005859375">
        <ele>1783.199951171875</ele>
        <time>2020-08-22T10:34:58.000Z</time>
      </trkpt>
      <trkpt lat="40.05589057691395282745361328125" lon="-0.98935483954846858978271484375">
        <ele>1784.4000244140625</ele>
        <time>2020-08-22T10:35:05.000Z</time>
      </trkpt>
      <trkpt lat="40.05607196129858493804931640625" lon="-0.98953220061957836151123046875">
        <ele>1785.4000244140625</ele>
        <time>2020-08-22T10:35:14.000Z</time>
      </trkpt>
      <trkpt lat="40.05612392909824848175048828125" lon="-0.9898529760539531707763671875">
        <ele>1786.5999755859375</ele>
        <time>2020-08-22T10:35:24.000Z</time>
      </trkpt>
      <trkpt lat="40.0561179779469966888427734375" lon="-0.99000510759651660919189453125">
        <ele>1787.5999755859375</ele>
        <time>2020-08-22T10:35:29.000Z</time>
      </trkpt>
      <trkpt lat="40.0561079196631908416748046875" lon="-0.99021364934742450714111328125">
        <ele>1788.5999755859375</ele>
        <time>2020-08-22T10:35:36.000Z</time>
      </trkpt>
      <trkpt lat="40.05610029213130474090576171875" lon="-0.9904759190976619720458984375">
        <ele>1789.800048828125</ele>
        <time>2020-08-22T10:35:45.000Z</time>
      </trkpt>
      <trkpt lat="40.0560971908271312713623046875" lon="-0.990644060075283050537109375">
        <ele>1791</ele>
        <time>2020-08-22T10:35:51.000Z</time>
      </trkpt>
      <trkpt lat="40.05609744228422641754150390625" lon="-0.99080222658812999725341796875">
        <ele>1792.199951171875</ele>
        <time>2020-08-22T10:35:57.000Z</time>
      </trkpt>
      <trkpt lat="40.05608461797237396240234375" lon="-0.99094371311366558074951171875">
        <ele>1793.4000244140625</ele>
        <time>2020-08-22T10:36:02.000Z</time>
      </trkpt>
      <trkpt lat="40.0560851208865642547607421875" lon="-0.99108838476240634918212890625">
        <ele>1794.5999755859375</ele>
        <time>2020-08-22T10:36:07.000Z</time>
      </trkpt>
      <trkpt lat="40.0560841150581836700439453125" lon="-0.991257615387439727783203125">
        <ele>1795.800048828125</ele>
        <time>2020-08-22T10:36:13.000Z</time>
      </trkpt>
      <trkpt lat="40.0560837797820568084716796875" lon="-0.99139080382883548736572265625">
        <ele>1796.800048828125</ele>
        <time>2020-08-22T10:36:18.000Z</time>
      </trkpt>
      <trkpt lat="40.056081600487232208251953125" lon="-0.991552658379077911376953125">
        <ele>1798</ele>
        <time>2020-08-22T10:36:24.000Z</time>
      </trkpt>
      <trkpt lat="40.05606961436569690704345703125" lon="-0.99176849238574504852294921875">
        <ele>1799</ele>
        <time>2020-08-22T10:36:32.000Z</time>
      </trkpt>
      <trkpt lat="40.0560606457293033599853515625" lon="-0.99189723841845989227294921875">
        <ele>1800.4000244140625</ele>
        <time>2020-08-22T10:36:37.000Z</time>
      </trkpt>
      <trkpt lat="40.056053102016448974609375" lon="-0.99202296696603298187255859375">
        <ele>1801.5999755859375</ele>
        <time>2020-08-22T10:36:42.000Z</time>
      </trkpt>
      <trkpt lat="40.056052096188068389892578125" lon="-0.99209857173264026641845703125">
        <ele>1802.5999755859375</ele>
        <time>2020-08-22T10:36:45.000Z</time>
      </trkpt>
      <trkpt lat="40.05605452693998813629150390625" lon="-0.99219295196235179901123046875">
        <ele>1803.5999755859375</ele>
        <time>2020-08-22T10:36:49.000Z</time>
      </trkpt>
      <trkpt lat="40.056080929934978485107421875" lon="-0.99232924170792102813720703125">
        <ele>1804.5999755859375</ele>
        <time>2020-08-22T10:36:55.000Z</time>
      </trkpt>
      <trkpt lat="40.05615837872028350830078125" lon="-0.992458574473857879638671875">
        <ele>1805.800048828125</ele>
        <time>2020-08-22T10:37:02.000Z</time>
      </trkpt>
      <trkpt lat="40.05628452636301517486572265625" lon="-0.99255689419806003570556640625">
        <ele>1806.800048828125</ele>
        <time>2020-08-22T10:37:10.000Z</time>
      </trkpt>
      <trkpt lat="40.0563496537506580352783203125" lon="-0.9925935231149196624755859375">
        <ele>1808</ele>
        <time>2020-08-22T10:37:14.000Z</time>
      </trkpt>
      <trkpt lat="40.05648099817335605621337890625" lon="-0.99266803823411464691162109375">
        <ele>1809.199951171875</ele>
        <time>2020-08-22T10:37:22.000Z</time>
      </trkpt>
      <trkpt lat="40.05656967870891094207763671875" lon="-0.9927293099462985992431640625">
        <ele>1810.4000244140625</ele>
        <time>2020-08-22T10:37:28.000Z</time>
      </trkpt>
      <trkpt lat="40.0566309504210948944091796875" lon="-0.9927698783576488494873046875">
        <ele>1811.4000244140625</ele>
        <time>2020-08-22T10:37:32.000Z</time>
      </trkpt>
      <trkpt lat="40.05673983134329319000244140625" lon="-0.9928352572023868560791015625">
        <ele>1812.4000244140625</ele>
        <time>2020-08-22T10:37:39.000Z</time>
      </trkpt>
      <trkpt lat="40.0568736903369426727294921875" lon="-0.992917902767658233642578125">
        <ele>1813.5999755859375</ele>
        <time>2020-08-22T10:37:47.000Z</time>
      </trkpt>
      <trkpt lat="40.05694015882909297943115234375" lon="-0.99296174012124538421630859375">
        <ele>1814.5999755859375</ele>
        <time>2020-08-22T10:37:51.000Z</time>
      </trkpt>
      <trkpt lat="40.05705130286514759063720703125" lon="-0.99305578507483005523681640625">
        <ele>1815.5999755859375</ele>
        <time>2020-08-22T10:37:57.000Z</time>
      </trkpt>
      <trkpt lat="40.05719237029552459716796875" lon="-0.9931453876197338104248046875">
        <ele>1816.800048828125</ele>
        <time>2020-08-22T10:38:05.000Z</time>
      </trkpt>
      <trkpt lat="40.057260431349277496337890625" lon="-0.99319224245846271514892578125">
        <ele>1817.800048828125</ele>
        <time>2020-08-22T10:38:09.000Z</time>
      </trkpt>
      <trkpt lat="40.0573605112731456756591796875" lon="-0.9932566992938518524169921875">
        <ele>1819</ele>
        <time>2020-08-22T10:38:15.000Z</time>
      </trkpt>
      <trkpt lat="40.05747525952756404876708984375" lon="-0.99332769401371479034423828125">
        <ele>1820.199951171875</ele>
        <time>2020-08-22T10:38:22.000Z</time>
      </trkpt>
      <trkpt lat="40.057609118521213531494140625" lon="-0.9934058971703052520751953125">
        <ele>1821.199951171875</ele>
        <time>2020-08-22T10:38:30.000Z</time>
      </trkpt>
      <trkpt lat="40.05769503302872180938720703125" lon="-0.99345560185611248016357421875">
        <ele>1822.199951171875</ele>
        <time>2020-08-22T10:38:35.000Z</time>
      </trkpt>
      <trkpt lat="40.05780852399766445159912109375" lon="-0.99353573285043239593505859375">
        <ele>1823.4000244140625</ele>
        <time>2020-08-22T10:38:42.000Z</time>
      </trkpt>
      <trkpt lat="40.0578694604337215423583984375" lon="-0.99358686245977878570556640625">
        <ele>1824.5999755859375</ele>
        <time>2020-08-22T10:38:46.000Z</time>
      </trkpt>
      <trkpt lat="40.05796208046376705169677734375" lon="-0.99366280250251293182373046875">
        <ele>1825.5999755859375</ele>
        <time>2020-08-22T10:38:52.000Z</time>
      </trkpt>
      <trkpt lat="40.05804003216326236724853515625" lon="-0.99373019300401210784912109375">
        <ele>1826.800048828125</ele>
        <time>2020-08-22T10:38:57.000Z</time>
      </trkpt>
      <trkpt lat="40.0581212528049945831298828125" lon="-0.99382054992020130157470703125">
        <ele>1828.4000244140625</ele>
        <time>2020-08-22T10:39:03.000Z</time>
      </trkpt>
      <trkpt lat="40.05817313678562641143798828125" lon="-0.99387712776660919189453125">
        <ele>1829.4000244140625</ele>
        <time>2020-08-22T10:39:07.000Z</time>
      </trkpt>
      <trkpt lat="40.0582513399422168731689453125" lon="-0.99396429955959320068359375">
        <ele>1830.5999755859375</ele>
        <time>2020-08-22T10:39:13.000Z</time>
      </trkpt>
      <trkpt lat="40.05832166410982608795166015625" lon="-0.994059853255748748779296875">
        <ele>1831.800048828125</ele>
        <time>2020-08-22T10:39:19.000Z</time>
      </trkpt>
      <trkpt lat="40.0583638250827789306640625" lon="-0.99413570947945117950439453125">
        <ele>1832.800048828125</ele>
        <time>2020-08-22T10:39:23.000Z</time>
      </trkpt>
      <trkpt lat="40.0584308803081512451171875" lon="-0.99427199922502040863037109375">
        <ele>1834</ele>
        <time>2020-08-22T10:39:30.000Z</time>
      </trkpt>
      <trkpt lat="40.05846113897860050201416015625" lon="-0.9943513758480548858642578125">
        <ele>1835</ele>
        <time>2020-08-22T10:39:34.000Z</time>
      </trkpt>
      <trkpt lat="40.05850841291248798370361328125" lon="-0.9944717399775981903076171875">
        <ele>1836</ele>
        <time>2020-08-22T10:39:40.000Z</time>
      </trkpt>
      <trkpt lat="40.05853557027876377105712890625" lon="-0.9945746697485446929931640625">
        <ele>1837.199951171875</ele>
        <time>2020-08-22T10:39:45.000Z</time>
      </trkpt>
      <trkpt lat="40.05856356583535671234130859375" lon="-0.99468355067074298858642578125">
        <ele>1838.199951171875</ele>
        <time>2020-08-22T10:39:50.000Z</time>
      </trkpt>
      <trkpt lat="40.058594159781932830810546875" lon="-0.99478597752749919891357421875">
        <ele>1839.199951171875</ele>
        <time>2020-08-22T10:39:55.000Z</time>
      </trkpt>
      <trkpt lat="40.0586298666894435882568359375" lon="-0.994893014430999755859375">
        <ele>1840.4000244140625</ele>
        <time>2020-08-22T10:40:00.000Z</time>
      </trkpt>
      <trkpt lat="40.0587207265198230743408203125" lon="-0.99504548124969005584716796875">
        <ele>1841.4000244140625</ele>
        <time>2020-08-22T10:40:08.000Z</time>
      </trkpt>
      <trkpt lat="40.05885492078959941864013671875" lon="-0.995186381042003631591796875">
        <ele>1842.5999755859375</ele>
        <time>2020-08-22T10:40:17.000Z</time>
      </trkpt>
      <trkpt lat="40.05898668430745601654052734375" lon="-0.9952945075929164886474609375">
        <ele>1843.5999755859375</ele>
        <time>2020-08-22T10:40:25.000Z</time>
      </trkpt>
      <trkpt lat="40.05908726714551448822021484375" lon="-0.99537572823464870452880859375">
        <ele>1845</ele>
        <time>2020-08-22T10:40:31.000Z</time>
      </trkpt>
      <trkpt lat="40.05920746363699436187744140625" lon="-0.995475389063358306884765625">
        <ele>1846</ele>
        <time>2020-08-22T10:40:38.000Z</time>
      </trkpt>
      <trkpt lat="40.05938951857388019561767578125" lon="-0.99561260081827640533447265625">
        <ele>1847.199951171875</ele>
        <time>2020-08-22T10:40:48.000Z</time>
      </trkpt>
      <trkpt lat="40.05951859988272190093994140625" lon="-0.99570614285767078399658203125">
        <ele>1848.199951171875</ele>
        <time>2020-08-22T10:40:55.000Z</time>
      </trkpt>
      <trkpt lat="40.05976586602628231048583984375" lon="-0.995901860296726226806640625">
        <ele>1849.199951171875</ele>
        <time>2020-08-22T10:41:09.000Z</time>
      </trkpt>
      <trkpt lat="40.05990366451442241668701171875" lon="-0.99599649198353290557861328125">
        <ele>1850.199951171875</ele>
        <time>2020-08-22T10:41:16.000Z</time>
      </trkpt>
      <trkpt lat="40.060080103576183319091796875" lon="-0.99612456746399402618408203125">
        <ele>1851.4000244140625</ele>
        <time>2020-08-22T10:41:24.000Z</time>
      </trkpt>
      <trkpt lat="40.0602365098893642425537109375" lon="-0.99624157883226871490478515625">
        <ele>1852.5999755859375</ele>
        <time>2020-08-22T10:41:31.000Z</time>
      </trkpt>
      <trkpt lat="40.0604095123708248138427734375" lon="-0.9963801316916942596435546875">
        <ele>1853.800048828125</ele>
        <time>2020-08-22T10:41:39.000Z</time>
      </trkpt>
      <trkpt lat="40.0605251826345920562744140625" lon="-0.996476523578166961669921875">
        <ele>1855</ele>
        <time>2020-08-22T10:41:44.000Z</time>
      </trkpt>
      <trkpt lat="40.06069323979318141937255859375" lon="-0.9966232068836688995361328125">
        <ele>1856.199951171875</ele>
        <time>2020-08-22T10:41:52.000Z</time>
      </trkpt>
      <trkpt lat="40.06077538244426250457763671875" lon="-0.99670224823057651519775390625">
        <ele>1857.4000244140625</ele>
        <time>2020-08-22T10:41:56.000Z</time>
      </trkpt>
      <trkpt lat="40.0608919747173786163330078125" lon="-0.996826551854610443115234375">
        <ele>1858.5999755859375</ele>
        <time>2020-08-22T10:42:02.000Z</time>
      </trkpt>
      <trkpt lat="40.06096833385527133941650390625" lon="-0.99691062234342098236083984375">
        <ele>1859.5999755859375</ele>
        <time>2020-08-22T10:42:06.000Z</time>
      </trkpt>
      <trkpt lat="40.06106254644691944122314453125" lon="-0.9970218501985073089599609375">
        <ele>1860.800048828125</ele>
        <time>2020-08-22T10:42:11.000Z</time>
      </trkpt>
      <trkpt lat="40.0611377321183681488037109375" lon="-0.99711245857179164886474609375">
        <ele>1861.800048828125</ele>
        <time>2020-08-22T10:42:15.000Z</time>
      </trkpt>
      <trkpt lat="40.061230771243572235107421875" lon="-0.99722796119749546051025390625">
        <ele>1862.800048828125</ele>
        <time>2020-08-22T10:42:20.000Z</time>
      </trkpt>
      <trkpt lat="40.06140402518212795257568359375" lon="-0.99744488485157489776611328125">
        <ele>1864</ele>
        <time>2020-08-22T10:42:29.000Z</time>
      </trkpt>
      <trkpt lat="40.0615605153143405914306640625" lon="-0.99764722399413585662841796875">
        <ele>1865.199951171875</ele>
        <time>2020-08-22T10:42:37.000Z</time>
      </trkpt>
      <trkpt lat="40.061636455357074737548828125" lon="-0.99774462170898914337158203125">
        <ele>1866.199951171875</ele>
        <time>2020-08-22T10:42:41.000Z</time>
      </trkpt>
      <trkpt lat="40.06176897324621677398681640625" lon="-0.99791527725756168365478515625">
        <ele>1867.4000244140625</ele>
        <time>2020-08-22T10:42:48.000Z</time>
      </trkpt>
      <trkpt lat="40.06186452694237232208251953125" lon="-0.99804117344319820404052734375">
        <ele>1868.4000244140625</ele>
        <time>2020-08-22T10:42:53.000Z</time>
      </trkpt>
      <trkpt lat="40.06197349168360233306884765625" lon="-0.9981892816722393035888671875">
        <ele>1869.4000244140625</ele>
        <time>2020-08-22T10:42:59.000Z</time>
      </trkpt>
      <trkpt lat="40.0620882399380207061767578125" lon="-0.99833705462515354156494140625">
        <ele>1870.800048828125</ele>
        <time>2020-08-22T10:43:05.000Z</time>
      </trkpt>
      <trkpt lat="40.0621633417904376983642578125" lon="-0.998433865606784820556640625">
        <ele>1871.800048828125</ele>
        <time>2020-08-22T10:43:09.000Z</time>
      </trkpt>
      <trkpt lat="40.06225713528692722320556640625" lon="-0.9985580854117870330810546875">
        <ele>1872.800048828125</ele>
        <time>2020-08-22T10:43:14.000Z</time>
      </trkpt>
      <trkpt lat="40.06236894987523555755615234375" lon="-0.99875045008957386016845703125">
        <ele>1873.800048828125</ele>
        <time>2020-08-22T10:43:21.000Z</time>
      </trkpt>
      <trkpt lat="40.06240926682949066162109375" lon="-0.99883728660643100738525390625">
        <ele>1874.800048828125</ele>
        <time>2020-08-22T10:43:24.000Z</time>
      </trkpt>
      <trkpt lat="40.06246919743716716766357421875" lon="-0.99898849613964557647705078125">
        <ele>1876.199951171875</ele>
        <time>2020-08-22T10:43:29.000Z</time>
      </trkpt>
      <trkpt lat="40.06250892765820026397705078125" lon="-0.99925990216434001922607421875">
        <ele>1877.4000244140625</ele>
        <time>2020-08-22T10:43:37.000Z</time>
      </trkpt>
      <trkpt lat="40.0625126995146274566650390625" lon="-0.99949459545314311981201171875">
        <ele>1878.5999755859375</ele>
        <time>2020-08-22T10:43:44.000Z</time>
      </trkpt>
      <trkpt lat="40.06251429207623004913330078125" lon="-0.99960096180438995361328125">
        <ele>1879.5999755859375</ele>
        <time>2020-08-22T10:43:47.000Z</time>
      </trkpt>
      <trkpt lat="40.06251789629459381103515625" lon="-0.99985484965145587921142578125">
        <ele>1880.800048828125</ele>
        <time>2020-08-22T10:43:54.000Z</time>
      </trkpt>
      <trkpt lat="40.06252049468457698822021484375" lon="-1.00007697008550167083740234375">
        <ele>1881.800048828125</ele>
        <time>2020-08-22T10:44:01.000Z</time>
      </trkpt>
      <trkpt lat="40.06252334453165531158447265625" lon="-1.0003357194364070892333984375">
        <ele>1883</ele>
        <time>2020-08-22T10:44:09.000Z</time>
      </trkpt>
      <trkpt lat="40.06249953992664813995361328125" lon="-1.000507213175296783447265625">
        <ele>1884</ele>
        <time>2020-08-22T10:44:14.000Z</time>
      </trkpt>
      <trkpt lat="40.06245218217372894287109375" lon="-1.00077635608613491058349609375">
        <ele>1885.199951171875</ele>
        <time>2020-08-22T10:44:22.000Z</time>
      </trkpt>
      <trkpt lat="40.06239308975636959075927734375" lon="-1.0012171603739261627197265625">
        <ele>1886.199951171875</ele>
        <time>2020-08-22T10:44:35.000Z</time>
      </trkpt>
      <trkpt lat="40.0623469054698944091796875" lon="-1.0015554539859294891357421875">
        <ele>1887.4000244140625</ele>
        <time>2020-08-22T10:44:45.000Z</time>
      </trkpt>
      <trkpt lat="40.06230658851563930511474609375" lon="-1.00184102542698383331298828125">
        <ele>1888.800048828125</ele>
        <time>2020-08-22T10:44:53.000Z</time>
      </trkpt>
      <trkpt lat="40.06229284219443798065185546875" lon="-1.0019483976066112518310546875">
        <ele>1890</ele>
        <time>2020-08-22T10:44:56.000Z</time>
      </trkpt>
      <trkpt lat="40.0622766651213169097900390625" lon="-1.00226850248873233795166015625">
        <ele>1891</ele>
        <time>2020-08-22T10:45:05.000Z</time>
      </trkpt>
      <trkpt lat="40.0622770003974437713623046875" lon="-1.0024878568947315216064453125">
        <ele>1892.4000244140625</ele>
        <time>2020-08-22T10:45:11.000Z</time>
      </trkpt>
      <trkpt lat="40.0622387789189815521240234375" lon="-1.003218591213226318359375">
        <ele>1892.800048828125</ele>
        <time>2020-08-22T10:45:29.000Z</time>
      </trkpt>
      <trkpt lat="40.06220332346856594085693359375" lon="-1.003941781818866729736328125">
        <ele>1891.800048828125</ele>
        <time>2020-08-22T10:45:46.000Z</time>
      </trkpt>
      <trkpt lat="40.06197349168360233306884765625" lon="-1.0045719332993030548095703125">
        <ele>1892.199951171875</ele>
        <time>2020-08-22T10:46:04.000Z</time>
      </trkpt>
      <trkpt lat="40.06172371096909046173095703125" lon="-1.00520275533199310302734375">
        <ele>1891.800048828125</ele>
        <time>2020-08-22T10:46:21.000Z</time>
      </trkpt>
      <trkpt lat="40.0616486929357051849365234375" lon="-1.005477011203765869140625">
        <ele>1891.4000244140625</ele>
        <time>2020-08-22T10:46:27.000Z</time>
      </trkpt>
      <trkpt lat="40.0615665502846240997314453125" lon="-1.00582008250057697296142578125">
        <ele>1890.199951171875</ele>
        <time>2020-08-22T10:46:34.000Z</time>
      </trkpt>
      <trkpt lat="40.06148993968963623046875" lon="-1.0060907341539859771728515625">
        <ele>1889.199951171875</ele>
        <time>2020-08-22T10:46:40.000Z</time>
      </trkpt>
      <trkpt lat="40.0613734312355518341064453125" lon="-1.006235070526599884033203125">
        <ele>1888</ele>
        <time>2020-08-22T10:46:45.000Z</time>
      </trkpt>
      <trkpt lat="40.0611372292041778564453125" lon="-1.0063626430928707122802734375">
        <ele>1887</ele>
        <time>2020-08-22T10:46:53.000Z</time>
      </trkpt>
      <trkpt lat="40.061117447912693023681640625" lon="-1.006408073008060455322265625">
        <ele>1886.800048828125</ele>
        <time>2020-08-22T10:46:54.000Z</time>
      </trkpt>
      <trkpt lat="40.06108534522354602813720703125" lon="-1.00651611573994159698486328125">
        <ele>1885.800048828125</ele>
        <time>2020-08-22T10:46:56.000Z</time>
      </trkpt>
      <trkpt lat="40.06107377819716930389404296875" lon="-1.0065728612244129180908203125">
        <ele>1885.4000244140625</ele>
        <time>2020-08-22T10:46:57.000Z</time>
      </trkpt>
      <trkpt lat="40.06105969659984111785888671875" lon="-1.006685011088848114013671875">
        <ele>1884.800048828125</ele>
        <time>2020-08-22T10:46:59.000Z</time>
      </trkpt>
      <trkpt lat="40.0610026158392429351806640625" lon="-1.0072092153131961822509765625">
        <ele>1883.5999755859375</ele>
        <time>2020-08-22T10:47:10.000Z</time>
      </trkpt>
      <trkpt lat="40.06097369827330112457275390625" lon="-1.007912456989288330078125">
        <ele>1884</ele>
        <time>2020-08-22T10:47:26.000Z</time>
      </trkpt>
      <trkpt lat="40.0610244087874889373779296875" lon="-1.00855425931513309478759765625">
        <ele>1884.5999755859375</ele>
        <time>2020-08-22T10:47:43.000Z</time>
      </trkpt>
      <trkpt lat="40.061047710478305816650390625" lon="-1.00891116075217723846435546875">
        <ele>1885.5999755859375</ele>
        <time>2020-08-22T10:48:04.000Z</time>
      </trkpt>
      <trkpt lat="40.0609757937490940093994140625" lon="-1.00947819650173187255859375">
        <ele>1885.199951171875</ele>
        <time>2020-08-22T10:58:25.000Z</time>
      </trkpt>
      <trkpt lat="40.060805976390838623046875" lon="-1.0101576335728168487548828125">
        <ele>1884.199951171875</ele>
        <time>2020-08-22T10:58:40.000Z</time>
      </trkpt>
      <trkpt lat="40.06075694225728511810302734375" lon="-1.01031429134309291839599609375">
        <ele>1883.5999755859375</ele>
        <time>2020-08-22T10:58:43.000Z</time>
      </trkpt>
      <trkpt lat="40.06063926033675670623779296875" lon="-1.0106679238379001617431640625">
        <ele>1882.5999755859375</ele>
        <time>2020-08-22T10:58:50.000Z</time>
      </trkpt>
      <trkpt lat="40.06056466139853000640869140625" lon="-1.01086582057178020477294921875">
        <ele>1881.4000244140625</ele>
        <time>2020-08-22T10:58:54.000Z</time>
      </trkpt>
      <trkpt lat="40.06042351014912128448486328125" lon="-1.0111916251480579376220703125">
        <ele>1880.4000244140625</ele>
        <time>2020-08-22T10:59:00.000Z</time>
      </trkpt>
      <trkpt lat="40.0603300519287586212158203125" lon="-1.01138348691165447235107421875">
        <ele>1879</ele>
        <time>2020-08-22T10:59:03.000Z</time>
      </trkpt>
      <trkpt lat="40.060194768011569976806640625" lon="-1.0117005743086338043212890625">
        <ele>1878</ele>
        <time>2020-08-22T10:59:07.000Z</time>
      </trkpt>
      <trkpt lat="40.06015956401824951171875" lon="-1.011788584291934967041015625">
        <ele>1876.800048828125</ele>
        <time>2020-08-22T10:59:08.000Z</time>
      </trkpt>
      <trkpt lat="40.0600893236696720123291015625" lon="-1.0119607485830783843994140625">
        <ele>1875.800048828125</ele>
        <time>2020-08-22T10:59:10.000Z</time>
      </trkpt>
      <trkpt lat="40.06001531146466732025146484375" lon="-1.0121230222284793853759765625">
        <ele>1874.5999755859375</ele>
        <time>2020-08-22T10:59:12.000Z</time>
      </trkpt>
      <trkpt lat="40.05992889404296875" lon="-1.01227699778974056243896484375">
        <ele>1873.5999755859375</ele>
        <time>2020-08-22T10:59:14.000Z</time>
      </trkpt>
      <trkpt lat="40.05978330038487911224365234375" lon="-1.0124898143112659454345703125">
        <ele>1872</ele>
        <time>2020-08-22T10:59:17.000Z</time>
      </trkpt>
      <trkpt lat="40.0596943683922290802001953125" lon="-1.01263876073062419891357421875">
        <ele>1870.800048828125</ele>
        <time>2020-08-22T10:59:19.000Z</time>
      </trkpt>
      <trkpt lat="40.0595971383154392242431640625" lon="-1.0128767229616641998291015625">
        <ele>1869.199951171875</ele>
        <time>2020-08-22T10:59:22.000Z</time>
      </trkpt>
      <trkpt lat="40.05955539643764495849609375" lon="-1.01304687559604644775390625">
        <ele>1867.800048828125</ele>
        <time>2020-08-22T10:59:24.000Z</time>
      </trkpt>
      <trkpt lat="40.05952815525233745574951171875" lon="-1.01322348229587078094482421875">
        <ele>1866.800048828125</ele>
        <time>2020-08-22T10:59:26.000Z</time>
      </trkpt>
      <trkpt lat="40.05948373116552829742431640625" lon="-1.01355020888149738311767578125">
        <ele>1865.5999755859375</ele>
        <time>2020-08-22T10:59:30.000Z</time>
      </trkpt>
      <trkpt lat="40.05944299511611461639404296875" lon="-1.01376947946846485137939453125">
        <ele>1864.199951171875</ele>
        <time>2020-08-22T10:59:33.000Z</time>
      </trkpt>
      <trkpt lat="40.05942790769040584564208984375" lon="-1.0138949565589427947998046875">
        <ele>1863.5999755859375</ele>
        <time>2020-08-22T10:59:35.000Z</time>
      </trkpt>
      <trkpt lat="40.0594318471848964691162109375" lon="-1.0139496065676212310791015625">
        <ele>1863.199951171875</ele>
        <time>2020-08-22T10:59:36.000Z</time>
      </trkpt>
      <trkpt lat="40.0594469346106052398681640625" lon="-1.01400048471987247467041015625">
        <ele>1863</ele>
        <time>2020-08-22T10:59:37.000Z</time>
      </trkpt>
      <trkpt lat="40.05947182886302471160888671875" lon="-1.01404465734958648681640625">
        <ele>1861.800048828125</ele>
        <time>2020-08-22T10:59:38.000Z</time>
      </trkpt>
      <trkpt lat="40.0595072843134403228759765625" lon="-1.014078520238399505615234375">
        <ele>1861</ele>
        <time>2020-08-22T10:59:39.000Z</time>
      </trkpt>
      <trkpt lat="40.05955045111477375030517578125" lon="-1.01410073228180408477783203125">
        <ele>1859.800048828125</ele>
        <time>2020-08-22T10:59:40.000Z</time>
      </trkpt>
      <trkpt lat="40.0595971383154392242431640625" lon="-1.01410676725208759307861328125">
        <ele>1859.199951171875</ele>
        <time>2020-08-22T10:59:41.000Z</time>
      </trkpt>
      <trkpt lat="40.05964634008705615997314453125" lon="-1.01409369148313999176025390625">
        <ele>1858.800048828125</ele>
        <time>2020-08-22T10:59:42.000Z</time>
      </trkpt>
      <trkpt lat="40.0598090328276157379150390625" lon="-1.01401456631720066070556640625">
        <ele>1857.800048828125</ele>
        <time>2020-08-22T10:59:45.000Z</time>
      </trkpt>
      <trkpt lat="40.06003911606967449188232421875" lon="-1.0138916037976741790771484375">
        <ele>1856.4000244140625</ele>
        <time>2020-08-22T10:59:49.000Z</time>
      </trkpt>
      <trkpt lat="40.060154534876346588134765625" lon="-1.0138148255646228790283203125">
        <ele>1855.4000244140625</ele>
        <time>2020-08-22T10:59:51.000Z</time>
      </trkpt>
      <trkpt lat="40.06027498282492160797119140625" lon="-1.01373662240803241729736328125">
        <ele>1853.800048828125</ele>
        <time>2020-08-22T10:59:53.000Z</time>
      </trkpt>
      <trkpt lat="40.06039953790605068206787109375" lon="-1.01365213282406330108642578125">
        <ele>1852.4000244140625</ele>
        <time>2020-08-22T10:59:55.000Z</time>
      </trkpt>
      <trkpt lat="40.06046206690371036529541015625" lon="-1.013609133660793304443359375">
        <ele>1851.800048828125</ele>
        <time>2020-08-22T10:59:56.000Z</time>
      </trkpt>
      <trkpt lat="40.060524009168148040771484375" lon="-1.01356864906847476959228515625">
        <ele>1851.199951171875</ele>
        <time>2020-08-22T10:59:57.000Z</time>
      </trkpt>
      <trkpt lat="40.060646720230579376220703125" lon="-1.01350276730954647064208984375">
        <ele>1850.5999755859375</ele>
        <time>2020-08-22T10:59:59.000Z</time>
      </trkpt>
      <trkpt lat="40.0607082433998584747314453125" lon="-1.01348533295094966888427734375">
        <ele>1849.4000244140625</ele>
        <time>2020-08-22T11:00:00.000Z</time>
      </trkpt>
      <trkpt lat="40.06083120591938495635986328125" lon="-1.013470999896526336669921875">
        <ele>1848.4000244140625</ele>
        <time>2020-08-22T11:00:02.000Z</time>
      </trkpt>
      <trkpt lat="40.06095928139984607696533203125" lon="-1.013483740389347076416015625">
        <ele>1847.800048828125</ele>
        <time>2020-08-22T11:00:04.000Z</time>
      </trkpt>
      <trkpt lat="40.06102466024458408355712890625" lon="-1.01350553333759307861328125">
        <ele>1847.199951171875</ele>
        <time>2020-08-22T11:00:05.000Z</time>
      </trkpt>
      <trkpt lat="40.0611533224582672119140625" lon="-1.0135694034397602081298828125">
        <ele>1846</ele>
        <time>2020-08-22T11:00:07.000Z</time>
      </trkpt>
      <trkpt lat="40.0612865947186946868896484375" lon="-1.013663113117218017578125">
        <ele>1845</ele>
        <time>2020-08-22T11:00:09.000Z</time>
      </trkpt>
      <trkpt lat="40.0613518059253692626953125" lon="-1.01372279226779937744140625">
        <ele>1844.5999755859375</ele>
        <time>2020-08-22T11:00:10.000Z</time>
      </trkpt>
      <trkpt lat="40.06148834712803363800048828125" lon="-1.01384659297764301300048828125">
        <ele>1842.5999755859375</ele>
        <time>2020-08-22T11:00:12.000Z</time>
      </trkpt>
      <trkpt lat="40.061633773148059844970703125" lon="-1.0139673762023448944091796875">
        <ele>1841</ele>
        <time>2020-08-22T11:00:14.000Z</time>
      </trkpt>
      <trkpt lat="40.06179177202284336090087890625" lon="-1.01407206617295742034912109375">
        <ele>1839</ele>
        <time>2020-08-22T11:00:16.000Z</time>
      </trkpt>
      <trkpt lat="40.06187559105455875396728515625" lon="-1.0141202621161937713623046875">
        <ele>1837.800048828125</ele>
        <time>2020-08-22T11:00:17.000Z</time>
      </trkpt>
      <trkpt lat="40.062048174440860748291015625" lon="-1.0142008960247039794921875">
        <ele>1836.4000244140625</ele>
        <time>2020-08-22T11:00:19.000Z</time>
      </trkpt>
      <trkpt lat="40.06232050247490406036376953125" lon="-1.01427239365875720977783203125">
        <ele>1834.4000244140625</ele>
        <time>2020-08-22T11:00:22.000Z</time>
      </trkpt>
      <trkpt lat="40.06249786354601383209228515625" lon="-1.01431690156459808349609375">
        <ele>1833.199951171875</ele>
        <time>2020-08-22T11:00:24.000Z</time>
      </trkpt>
      <trkpt lat="40.06275015883147716522216796875" lon="-1.01440818049013614654541015625">
        <ele>1832</ele>
        <time>2020-08-22T11:00:27.000Z</time>
      </trkpt>
      <trkpt lat="40.06305157206952571868896484375" lon="-1.0146000422537326812744140625">
        <ele>1830.800048828125</ele>
        <time>2020-08-22T11:00:31.000Z</time>
      </trkpt>
      <trkpt lat="40.063384585082530975341796875" lon="-1.01495082490146160125732421875">
        <ele>1830</ele>
        <time>2020-08-22T11:00:37.000Z</time>
      </trkpt>
      <trkpt lat="40.063480474054813385009765625" lon="-1.01512650959193706512451171875">
        <ele>1830</ele>
        <time>2020-08-22T11:00:40.000Z</time>
      </trkpt>
      <trkpt lat="40.0636127404868602752685546875" lon="-1.015521548688411712646484375">
        <ele>1832</ele>
        <time>2020-08-22T11:00:51.000Z</time>
      </trkpt>
      <trkpt lat="40.06364115513861179351806640625" lon="-1.0156464390456676483154296875">
        <ele>1833</ele>
        <time>2020-08-22T11:00:56.000Z</time>
      </trkpt>
      <trkpt lat="40.0636898539960384368896484375" lon="-1.01577929221093654632568359375">
        <ele>1834.199951171875</ele>
        <time>2020-08-22T11:01:01.000Z</time>
      </trkpt>
      <trkpt lat="40.0637106411159038543701171875" lon="-1.015878953039646148681640625">
        <ele>1835.199951171875</ele>
        <time>2020-08-22T11:01:05.000Z</time>
      </trkpt>
      <trkpt lat="40.0637099705636501312255859375" lon="-1.01600191555917263031005859375">
        <ele>1836.199951171875</ele>
        <time>2020-08-22T11:01:10.000Z</time>
      </trkpt>
      <trkpt lat="40.06369060836732387542724609375" lon="-1.0161020793020725250244140625">
        <ele>1837.4000244140625</ele>
        <time>2020-08-22T11:01:14.000Z</time>
      </trkpt>
      <trkpt lat="40.06363344378769397735595703125" lon="-1.0162502713501453399658203125">
        <ele>1838.5999755859375</ele>
        <time>2020-08-22T11:01:21.000Z</time>
      </trkpt>
      <trkpt lat="40.063569657504558563232421875" lon="-1.0163786821067333221435546875">
        <ele>1839.5999755859375</ele>
        <time>2020-08-22T11:01:28.000Z</time>
      </trkpt>
      <trkpt lat="40.06350469775497913360595703125" lon="-1.0164888203144073486328125">
        <ele>1840.5999755859375</ele>
        <time>2020-08-22T11:01:34.000Z</time>
      </trkpt>
      <trkpt lat="40.06343730725347995758056640625" lon="-1.01657775230705738067626953125">
        <ele>1841.800048828125</ele>
        <time>2020-08-22T11:01:39.000Z</time>
      </trkpt>
      <trkpt lat="40.063354410231113433837890625" lon="-1.01673617027699947357177734375">
        <ele>1843</ele>
        <time>2020-08-22T11:01:47.000Z</time>
      </trkpt>
      <trkpt lat="40.06332783959805965423583984375" lon="-1.016783528029918670654296875">
        <ele>1844</ele>
        <time>2020-08-22T11:01:50.000Z</time>
      </trkpt>
      <trkpt lat="40.06327159702777862548828125" lon="-1.01687698625028133392333984375">
        <ele>1845.199951171875</ele>
        <time>2020-08-22T11:01:56.000Z</time>
      </trkpt>
      <trkpt lat="40.06319993175566196441650390625" lon="-1.0169644095003604888916015625">
        <ele>1846.199951171875</ele>
        <time>2020-08-22T11:02:02.000Z</time>
      </trkpt>
      <trkpt lat="40.06314821541309356689453125" lon="-1.01706750690937042236328125">
        <ele>1847.4000244140625</ele>
        <time>2020-08-22T11:02:08.000Z</time>
      </trkpt>
      <trkpt lat="40.06310203112661838531494140625" lon="-1.0171675868332386016845703125">
        <ele>1848.4000244140625</ele>
        <time>2020-08-22T11:02:14.000Z</time>
      </trkpt>
      <trkpt lat="40.0630711019039154052734375" lon="-1.01726104505360126495361328125">
        <ele>1849.5999755859375</ele>
        <time>2020-08-22T11:02:19.000Z</time>
      </trkpt>
      <trkpt lat="40.0630347244441509246826171875" lon="-1.01739448495209217071533203125">
        <ele>1850.800048828125</ele>
        <time>2020-08-22T11:02:25.000Z</time>
      </trkpt>
      <trkpt lat="40.062982924282550811767578125" lon="-1.0175628773868083953857421875">
        <ele>1851.800048828125</ele>
        <time>2020-08-22T11:02:33.000Z</time>
      </trkpt>
      <trkpt lat="40.06296892650425434112548828125" lon="-1.0176694951951503753662109375">
        <ele>1853</ele>
        <time>2020-08-22T11:02:38.000Z</time>
      </trkpt>
      <trkpt lat="40.062958784401416778564453125" lon="-1.017793379724025726318359375">
        <ele>1854</ele>
        <time>2020-08-22T11:02:44.000Z</time>
      </trkpt>
      <trkpt lat="40.062952749431133270263671875" lon="-1.0178830660879611968994140625">
        <ele>1855</ele>
        <time>2020-08-22T11:02:48.000Z</time>
      </trkpt>
      <trkpt lat="40.06295333616435527801513671875" lon="-1.01800753735005855560302734375">
        <ele>1856.199951171875</ele>
        <time>2020-08-22T11:02:53.000Z</time>
      </trkpt>
      <trkpt lat="40.062962137162685394287109375" lon="-1.0181794501841068267822265625">
        <ele>1857.4000244140625</ele>
        <time>2020-08-22T11:03:00.000Z</time>
      </trkpt>
      <trkpt lat="40.06299407221376895904541015625" lon="-1.0183772630989551544189453125">
        <ele>1858.4000244140625</ele>
        <time>2020-08-22T11:03:08.000Z</time>
      </trkpt>
      <trkpt lat="40.06302743218839168548583984375" lon="-1.0185264609754085540771484375">
        <ele>1859.5999755859375</ele>
        <time>2020-08-22T11:03:14.000Z</time>
      </trkpt>
      <trkpt lat="40.063064061105251312255859375" lon="-1.0186478309333324432373046875">
        <ele>1860.5999755859375</ele>
        <time>2020-08-22T11:03:19.000Z</time>
      </trkpt>
      <trkpt lat="40.063101947307586669921875" lon="-1.0187386907637119293212890625">
        <ele>1861.800048828125</ele>
        <time>2020-08-22T11:03:23.000Z</time>
      </trkpt>
      <trkpt lat="40.0632174499332904815673828125" lon="-1.0189415328204631805419921875">
        <ele>1863</ele>
        <time>2020-08-22T11:03:33.000Z</time>
      </trkpt>
      <trkpt lat="40.06327536888420581817626953125" lon="-1.019011437892913818359375">
        <ele>1864</ele>
        <time>2020-08-22T11:03:37.000Z</time>
      </trkpt>
      <trkpt lat="40.06337813101708889007568359375" lon="-1.0191361606121063232421875">
        <ele>1865.199951171875</ele>
        <time>2020-08-22T11:03:44.000Z</time>
      </trkpt>
      <trkpt lat="40.063487850129604339599609375" lon="-1.01926180534064769744873046875">
        <ele>1866.199951171875</ele>
        <time>2020-08-22T11:03:51.000Z</time>
      </trkpt>
      <trkpt lat="40.06357225589454174041748046875" lon="-1.01940547116100788116455078125">
        <ele>1867.4000244140625</ele>
        <time>2020-08-22T11:03:57.000Z</time>
      </trkpt>
      <trkpt lat="40.06368205882608890533447265625" lon="-1.0197103209793567657470703125">
        <ele>1868.4000244140625</ele>
        <time>2020-08-22T11:04:08.000Z</time>
      </trkpt>
      <trkpt lat="40.06377476267516613006591796875" lon="-1.02015414275228977203369140625">
        <ele>1869.4000244140625</ele>
        <time>2020-08-22T11:04:23.000Z</time>
      </trkpt>
      <trkpt lat="40.063830502331256866455078125" lon="-1.02056904695928096771240234375">
        <ele>1870.4000244140625</ele>
        <time>2020-08-22T11:04:38.000Z</time>
      </trkpt>
      <trkpt lat="40.06387651897966861724853515625" lon="-1.02087029255926609039306640625">
        <ele>1871.5999755859375</ele>
        <time>2020-08-22T11:04:49.000Z</time>
      </trkpt>
      <trkpt lat="40.06390250287950038909912109375" lon="-1.02105938829481601715087890625">
        <ele>1872.5999755859375</ele>
        <time>2020-08-22T11:04:56.000Z</time>
      </trkpt>
      <trkpt lat="40.0639307498931884765625" lon="-1.0212462209165096282958984375">
        <ele>1873.800048828125</ele>
        <time>2020-08-22T11:05:03.000Z</time>
      </trkpt>
      <trkpt lat="40.063948519527912139892578125" lon="-1.02143305353820323944091796875">
        <ele>1874.800048828125</ele>
        <time>2020-08-22T11:05:10.000Z</time>
      </trkpt>
      <trkpt lat="40.063952542841434478759765625" lon="-1.021621227264404296875">
        <ele>1875.800048828125</ele>
        <time>2020-08-22T11:05:17.000Z</time>
      </trkpt>
      <trkpt lat="40.06388724781572818756103515625" lon="-1.02181795053184032440185546875">
        <ele>1877</ele>
        <time>2020-08-22T11:05:25.000Z</time>
      </trkpt>
      <trkpt lat="40.06375917233526706695556640625" lon="-1.0219536535441875457763671875">
        <ele>1878</ele>
        <time>2020-08-22T11:05:33.000Z</time>
      </trkpt>
      <trkpt lat="40.06363411433994770050048828125" lon="-1.02205901406705379486083984375">
        <ele>1879.199951171875</ele>
        <time>2020-08-22T11:05:40.000Z</time>
      </trkpt>
      <trkpt lat="40.06343596614897251129150390625" lon="-1.02219245396554470062255859375">
        <ele>1880.199951171875</ele>
        <time>2020-08-22T11:05:50.000Z</time>
      </trkpt>
      <trkpt lat="40.0632774643599987030029296875" lon="-1.02227359078824520111083984375">
        <ele>1881.4000244140625</ele>
        <time>2020-08-22T11:05:58.000Z</time>
      </trkpt>
      <trkpt lat="40.0631810724735260009765625" lon="-1.0223253071308135986328125">
        <ele>1882.4000244140625</ele>
        <time>2020-08-22T11:06:03.000Z</time>
      </trkpt>
      <trkpt lat="40.063045285642147064208984375" lon="-1.02236662991344928741455078125">
        <ele>1883.5999755859375</ele>
        <time>2020-08-22T11:06:10.000Z</time>
      </trkpt>
      <trkpt lat="40.06290103308856487274169921875" lon="-1.02240703068673610687255859375">
        <ele>1884.5999755859375</ele>
        <time>2020-08-22T11:06:17.000Z</time>
      </trkpt>
      <trkpt lat="40.06280480884015560150146484375" lon="-1.02247978560626506805419921875">
        <ele>1885.800048828125</ele>
        <time>2020-08-22T11:06:22.000Z</time>
      </trkpt>
      <trkpt lat="40.06271394900977611541748046875" lon="-1.02255857549607753753662109375">
        <ele>1886.800048828125</ele>
        <time>2020-08-22T11:06:27.000Z</time>
      </trkpt>
      <trkpt lat="40.06261655129492282867431640625" lon="-1.022677682340145111083984375">
        <ele>1887.800048828125</ele>
        <time>2020-08-22T11:06:33.000Z</time>
      </trkpt>
      <trkpt lat="40.06246366538107395172119140625" lon="-1.022849343717098236083984375">
        <ele>1889</ele>
        <time>2020-08-22T11:06:42.000Z</time>
      </trkpt>
      <trkpt lat="40.0623303093016147613525390625" lon="-1.02300482802093029022216796875">
        <ele>1890</ele>
        <time>2020-08-22T11:06:50.000Z</time>
      </trkpt>
      <trkpt lat="40.06215068511664867401123046875" lon="-1.0232102684676647186279296875">
        <ele>1891.199951171875</ele>
        <time>2020-08-22T11:07:00.000Z</time>
      </trkpt>
      <trkpt lat="40.0620842166244983673095703125" lon="-1.02355753071606159210205078125">
        <ele>1892.199951171875</ele>
        <time>2020-08-22T11:07:11.000Z</time>
      </trkpt>
      <trkpt lat="40.06218262016773223876953125" lon="-1.02379004471004009246826171875">
        <ele>1893.4000244140625</ele>
        <time>2020-08-22T11:07:19.000Z</time>
      </trkpt>
      <trkpt lat="40.06229418329894542694091796875" lon="-1.02390940301120281219482421875">
        <ele>1894.4000244140625</ele>
        <time>2020-08-22T11:07:25.000Z</time>
      </trkpt>
      <trkpt lat="40.06236140616238117218017578125" lon="-1.0239495523273944854736328125">
        <ele>1895.5999755859375</ele>
        <time>2020-08-22T11:07:28.000Z</time>
      </trkpt>
      <trkpt lat="40.06245545111596584320068359375" lon="-1.023984253406524658203125">
        <ele>1896.5999755859375</ele>
        <time>2020-08-22T11:07:32.000Z</time>
      </trkpt>
      <trkpt lat="40.0627168826758861541748046875" lon="-1.02396204136312007904052734375">
        <ele>1897.5999755859375</ele>
        <time>2020-08-22T11:07:43.000Z</time>
      </trkpt>
      <trkpt lat="40.06280648522078990936279296875" lon="-1.02391577325761318206787109375">
        <ele>1898.800048828125</ele>
        <time>2020-08-22T11:07:48.000Z</time>
      </trkpt>
      <trkpt lat="40.063048303127288818359375" lon="-1.02386020123958587646484375">
        <ele>1899.800048828125</ele>
        <time>2020-08-22T11:07:59.000Z</time>
      </trkpt>
      <trkpt lat="40.0631622970104217529296875" lon="-1.0238291881978511810302734375">
        <ele>1901</ele>
        <time>2020-08-22T11:08:04.000Z</time>
      </trkpt>
      <trkpt lat="40.06342716515064239501953125" lon="-1.02377193979918956756591796875">
        <ele>1902.199951171875</ele>
        <time>2020-08-22T11:08:14.000Z</time>
      </trkpt>
      <trkpt lat="40.06397693417966365814208984375" lon="-1.023530624806880950927734375">
        <ele>1903</ele>
        <time>2020-08-22T11:08:30.000Z</time>
      </trkpt>
      <trkpt lat="40.06448906846344470977783203125" lon="-1.0232441313564777374267578125">
        <ele>1902.4000244140625</ele>
        <time>2020-08-22T11:08:40.000Z</time>
      </trkpt>
      <trkpt lat="40.06463658995926380157470703125" lon="-1.0231782495975494384765625">
        <ele>1901</ele>
        <time>2020-08-22T11:08:43.000Z</time>
      </trkpt>
      <trkpt lat="40.06491981446743011474609375" lon="-1.02309065870940685272216796875">
        <ele>1900</ele>
        <time>2020-08-22T11:08:49.000Z</time>
      </trkpt>
      <trkpt lat="40.0653840042650699615478515625" lon="-1.02305511943995952606201171875">
        <ele>1899</ele>
        <time>2020-08-22T11:08:59.000Z</time>
      </trkpt>
      <trkpt lat="40.065771751105785369873046875" lon="-1.023081354796886444091796875">
        <ele>1897.4000244140625</ele>
        <time>2020-08-22T11:09:06.000Z</time>
      </trkpt>
      <trkpt lat="40.066017173230648040771484375" lon="-1.02308177389204502105712890625">
        <ele>1896.4000244140625</ele>
        <time>2020-08-22T11:09:10.000Z</time>
      </trkpt>
      <trkpt lat="40.06625480018556118011474609375" lon="-1.02307473309338092803955078125">
        <ele>1895.199951171875</ele>
        <time>2020-08-22T11:09:14.000Z</time>
      </trkpt>
      <trkpt lat="40.0667013041675090789794921875" lon="-1.02318705059587955474853515625">
        <ele>1894.4000244140625</ele>
        <time>2020-08-22T11:09:24.000Z</time>
      </trkpt>
      <trkpt lat="40.06680632941424846649169921875" lon="-1.02329425513744354248046875">
        <ele>1894.199951171875</ele>
        <time>2020-08-22T11:09:27.000Z</time>
      </trkpt>
      <trkpt lat="40.0670379213988780975341796875" lon="-1.02364830672740936279296875">
        <ele>1893.199951171875</ele>
        <time>2020-08-22T11:09:35.000Z</time>
      </trkpt>
      <trkpt lat="40.06735852919518947601318359375" lon="-1.024223975837230682373046875">
        <ele>1894.4000244140625</ele>
        <time>2020-08-22T11:09:51.000Z</time>
      </trkpt>
      <trkpt lat="40.067409239709377288818359375" lon="-1.02432531304657459259033203125">
        <ele>1895.800048828125</ele>
        <time>2020-08-22T11:09:54.000Z</time>
      </trkpt>
      <trkpt lat="40.06752423942089080810546875" lon="-1.0246033407747745513916015625">
        <ele>1896.800048828125</ele>
        <time>2020-08-22T11:10:02.000Z</time>
      </trkpt>
      <trkpt lat="40.06763823330402374267578125" lon="-1.02495948784053325653076171875">
        <ele>1898</ele>
        <time>2020-08-22T11:10:12.000Z</time>
      </trkpt>
      <trkpt lat="40.06771693937480449676513671875" lon="-1.0252316482365131378173828125">
        <ele>1899.199951171875</ele>
        <time>2020-08-22T11:10:20.000Z</time>
      </trkpt>
      <trkpt lat="40.06777527742087841033935546875" lon="-1.025411188602447509765625">
        <ele>1900.4000244140625</ele>
        <time>2020-08-22T11:10:26.000Z</time>
      </trkpt>
      <trkpt lat="40.06781852804124355316162109375" lon="-1.025537587702274322509765625">
        <ele>1901.4000244140625</ele>
        <time>2020-08-22T11:10:31.000Z</time>
      </trkpt>
      <trkpt lat="40.0678714178502559661865234375" lon="-1.0256494022905826568603515625">
        <ele>1902.5999755859375</ele>
        <time>2020-08-22T11:10:36.000Z</time>
      </trkpt>
      <trkpt lat="40.06792531348764896392822265625" lon="-1.02572500705718994140625">
        <ele>1903.5999755859375</ele>
        <time>2020-08-22T11:10:40.000Z</time>
      </trkpt>
      <trkpt lat="40.06797208450734615325927734375" lon="-1.02576951496303081512451171875">
        <ele>1904.5999755859375</ele>
        <time>2020-08-22T11:10:43.000Z</time>
      </trkpt>
      <trkpt lat="40.0680608488619327545166015625" lon="-1.02581343613564968109130859375">
        <ele>1905.800048828125</ele>
        <time>2020-08-22T11:10:48.000Z</time>
      </trkpt>
      <trkpt lat="40.06815724074840545654296875" lon="-1.02582802064716815948486328125">
        <ele>1907.199951171875</ele>
        <time>2020-08-22T11:10:53.000Z</time>
      </trkpt>
      <trkpt lat="40.068232007324695587158203125" lon="-1.0258079878985881805419921875">
        <ele>1908.199951171875</ele>
        <time>2020-08-22T11:10:57.000Z</time>
      </trkpt>
      <trkpt lat="40.06832395680248737335205078125" lon="-1.02576767094433307647705078125">
        <ele>1909.4000244140625</ele>
        <time>2020-08-22T11:11:02.000Z</time>
      </trkpt>
      <trkpt lat="40.06845630705356597900390625" lon="-1.02570715360343456268310546875">
        <ele>1910.4000244140625</ele>
        <time>2020-08-22T11:11:09.000Z</time>
      </trkpt>
      <trkpt lat="40.068532414734363555908203125" lon="-1.02569282054901123046875">
        <ele>1911.5999755859375</ele>
        <time>2020-08-22T11:11:13.000Z</time>
      </trkpt>
      <trkpt lat="40.06866627372801303863525390625" lon="-1.02568133734166622161865234375">
        <ele>1912.5999755859375</ele>
        <time>2020-08-22T11:11:20.000Z</time>
      </trkpt>
      <trkpt lat="40.06876618601381778717041015625" lon="-1.02568946778774261474609375">
        <ele>1913.5999755859375</ele>
        <time>2020-08-22T11:11:25.000Z</time>
      </trkpt>
      <trkpt lat="40.068886466324329376220703125" lon="-1.025705225765705108642578125">
        <ele>1914.800048828125</ele>
        <time>2020-08-22T11:11:31.000Z</time>
      </trkpt>
      <trkpt lat="40.06903122179210186004638671875" lon="-1.02570497430860996246337890625">
        <ele>1915.800048828125</ele>
        <time>2020-08-22T11:11:38.000Z</time>
      </trkpt>
      <trkpt lat="40.069154687225818634033203125" lon="-1.0257030464708805084228515625">
        <ele>1916.800048828125</ele>
        <time>2020-08-22T11:11:44.000Z</time>
      </trkpt>
      <trkpt lat="40.06925300695002079010009765625" lon="-1.0256970115005970001220703125">
        <ele>1918</ele>
        <time>2020-08-22T11:11:49.000Z</time>
      </trkpt>
      <trkpt lat="40.069353841245174407958984375" lon="-1.02568410336971282958984375">
        <ele>1919.199951171875</ele>
        <time>2020-08-22T11:11:54.000Z</time>
      </trkpt>
      <trkpt lat="40.069453418254852294921875" lon="-1.0256673395633697509765625">
        <ele>1920.4000244140625</ele>
        <time>2020-08-22T11:11:59.000Z</time>
      </trkpt>
      <trkpt lat="40.06960806436836719512939453125" lon="-1.02563959546387195587158203125">
        <ele>1921.5999755859375</ele>
        <time>2020-08-22T11:12:07.000Z</time>
      </trkpt>
      <trkpt lat="40.069666989147663116455078125" lon="-1.02562509477138519287109375">
        <ele>1922.5999755859375</ele>
        <time>2020-08-22T11:12:10.000Z</time>
      </trkpt>
      <trkpt lat="40.0697845034301280975341796875" lon="-1.02560707367956638336181640625">
        <ele>1923.800048828125</ele>
        <time>2020-08-22T11:12:16.000Z</time>
      </trkpt>
      <trkpt lat="40.06990134716033935546875" lon="-1.025591902434825897216796875">
        <ele>1924.800048828125</ele>
        <time>2020-08-22T11:12:22.000Z</time>
      </trkpt>
      <trkpt lat="40.07001860998570919036865234375" lon="-1.02557740174233913421630859375">
        <ele>1925.800048828125</ele>
        <time>2020-08-22T11:12:28.000Z</time>
      </trkpt>
      <trkpt lat="40.0701140798628330230712890625" lon="-1.0255578719079494476318359375">
        <ele>1927</ele>
        <time>2020-08-22T11:12:33.000Z</time>
      </trkpt>
      <trkpt lat="40.07020804099738597869873046875" lon="-1.02553415112197399139404296875">
        <ele>1928</ele>
        <time>2020-08-22T11:12:38.000Z</time>
      </trkpt>
      <trkpt lat="40.07030895911157131195068359375" lon="-1.02552208118140697479248046875">
        <ele>1929</ele>
        <time>2020-08-22T11:12:43.000Z</time>
      </trkpt>
      <trkpt lat="40.07042680867016315460205078125" lon="-1.02551789022982120513916015625">
        <ele>1930.199951171875</ele>
        <time>2020-08-22T11:12:49.000Z</time>
      </trkpt>
      <trkpt lat="40.07050677202641963958740234375" lon="-1.02552476339042186737060546875">
        <ele>1931.199951171875</ele>
        <time>2020-08-22T11:12:53.000Z</time>
      </trkpt>
      <trkpt lat="40.070610456168651580810546875" lon="-1.0255444608628749847412109375">
        <ele>1932.5999755859375</ele>
        <time>2020-08-22T11:12:58.000Z</time>
      </trkpt>
      <trkpt lat="40.0706890784204006195068359375" lon="-1.0255840234458446502685546875">
        <ele>1933.5999755859375</ele>
        <time>2020-08-22T11:13:02.000Z</time>
      </trkpt>
      <trkpt lat="40.0707785971462726593017578125" lon="-1.02565853856503963470458984375">
        <ele>1934.5999755859375</ele>
        <time>2020-08-22T11:13:07.000Z</time>
      </trkpt>
      <trkpt lat="40.070862583816051483154296875" lon="-1.02576247416436672210693359375">
        <ele>1935.800048828125</ele>
        <time>2020-08-22T11:13:12.000Z</time>
      </trkpt>
      <trkpt lat="40.07125376723706722259521484375" lon="-1.0262978263199329376220703125">
        <ele>1936.5999755859375</ele>
        <time>2020-08-22T11:13:29.000Z</time>
      </trkpt>
      <trkpt lat="40.07167898118495941162109375" lon="-1.026782132685184478759765625">
        <ele>1936</ele>
        <time>2020-08-22T11:13:41.000Z</time>
      </trkpt>
      <trkpt lat="40.071743689477443695068359375" lon="-1.02689252234995365142822265625">
        <ele>1936</ele>
        <time>2020-08-22T11:13:43.000Z</time>
      </trkpt>
      <trkpt lat="40.071836225688457489013671875" lon="-1.027160994708538055419921875">
        <ele>1936</ele>
        <time>2020-08-22T11:13:47.000Z</time>
      </trkpt>
      <trkpt lat="40.07187570445239543914794921875" lon="-1.02759626694023609161376953125">
        <ele>1934.4000244140625</ele>
        <time>2020-08-22T11:13:53.000Z</time>
      </trkpt>
      <trkpt lat="40.071910321712493896484375" lon="-1.02808828465640544891357421875">
        <ele>1933.4000244140625</ele>
        <time>2020-08-22T11:14:00.000Z</time>
      </trkpt>
      <trkpt lat="40.07190763950347900390625" lon="-1.0281596146523952484130859375">
        <ele>1933.199951171875</ele>
        <time>2020-08-22T11:14:01.000Z</time>
      </trkpt>
      <trkpt lat="40.07192247547209262847900390625" lon="-1.02859086357057094573974609375">
        <ele>1932</ele>
        <time>2020-08-22T11:14:07.000Z</time>
      </trkpt>
      <trkpt lat="40.07195348851382732391357421875" lon="-1.02873570285737514495849609375">
        <ele>1931</ele>
        <time>2020-08-22T11:14:09.000Z</time>
      </trkpt>
      <trkpt lat="40.07197997532784938812255859375" lon="-1.02880326099693775177001953125">
        <ele>1931</ele>
        <time>2020-08-22T11:14:10.000Z</time>
      </trkpt>
      <trkpt lat="40.07201568223536014556884765625" lon="-1.02886696346104145050048828125">
        <ele>1930.5999755859375</ele>
        <time>2020-08-22T11:14:11.000Z</time>
      </trkpt>
      <trkpt lat="40.07211006246507167816162109375" lon="-1.0289827175438404083251953125">
        <ele>1930.4000244140625</ele>
        <time>2020-08-22T11:14:13.000Z</time>
      </trkpt>
      <trkpt lat="40.07222841493785381317138671875" lon="-1.0290605016052722930908203125">
        <ele>1930.199951171875</ele>
        <time>2020-08-22T11:14:15.000Z</time>
      </trkpt>
      <trkpt lat="40.0723674707114696502685546875" lon="-1.02908514440059661865234375">
        <ele>1929.800048828125</ele>
        <time>2020-08-22T11:14:17.000Z</time>
      </trkpt>
      <trkpt lat="40.0725203566253185272216796875" lon="-1.029091179370880126953125">
        <ele>1929.199951171875</ele>
        <time>2020-08-22T11:14:19.000Z</time>
      </trkpt>
      <trkpt lat="40.07267416454851627349853515625" lon="-1.029137112200260162353515625">
        <ele>1928.4000244140625</ele>
        <time>2020-08-22T11:14:21.000Z</time>
      </trkpt>
      <trkpt lat="40.0727476738393306732177734375" lon="-1.029173992574214935302734375">
        <ele>1928</ele>
        <time>2020-08-22T11:14:22.000Z</time>
      </trkpt>
      <trkpt lat="40.0728700496256351470947265625" lon="-1.02930265478789806365966796875">
        <ele>1927.199951171875</ele>
        <time>2020-08-22T11:14:24.000Z</time>
      </trkpt>
      <trkpt lat="40.07298312149941921234130859375" lon="-1.0295788384974002838134765625">
        <ele>1925.5999755859375</ele>
        <time>2020-08-22T11:14:27.000Z</time>
      </trkpt>
      <trkpt lat="40.0731553696095943450927734375" lon="-1.02991168387234210968017578125">
        <ele>1924.199951171875</ele>
        <time>2020-08-22T11:14:31.000Z</time>
      </trkpt>
      <trkpt lat="40.07329107262194156646728515625" lon="-1.0301162861287593841552734375">
        <ele>1923</ele>
        <time>2020-08-22T11:14:34.000Z</time>
      </trkpt>
      <trkpt lat="40.0733900628983974456787109375" lon="-1.0302262566983699798583984375">
        <ele>1922.800048828125</ele>
        <time>2020-08-22T11:14:36.000Z</time>
      </trkpt>
      <trkpt lat="40.07390898652374744415283203125" lon="-1.0304738581180572509765625">
        <ele>1922.5999755859375</ele>
        <time>2020-08-22T11:14:45.000Z</time>
      </trkpt>
      <trkpt lat="40.074419192969799041748046875" lon="-1.03063403628766536712646484375">
        <ele>1924</ele>
        <time>2020-08-22T11:14:54.000Z</time>
      </trkpt>
      <trkpt lat="40.0749078579246997833251953125" lon="-1.030756495893001556396484375">
        <ele>1925.199951171875</ele>
        <time>2020-08-22T11:15:04.000Z</time>
      </trkpt>
      <trkpt lat="40.0754764862358570098876953125" lon="-1.03089337237179279327392578125">
        <ele>1925.4000244140625</ele>
        <time>2020-08-22T11:15:15.000Z</time>
      </trkpt>
      <trkpt lat="40.07566281594336032867431640625" lon="-1.03096000850200653076171875">
        <ele>1924</ele>
        <time>2020-08-22T11:15:18.000Z</time>
      </trkpt>
      <trkpt lat="40.075798518955707550048828125" lon="-1.031016670167446136474609375">
        <ele>1922.800048828125</ele>
        <time>2020-08-22T11:15:20.000Z</time>
      </trkpt>
      <trkpt lat="40.07601208984851837158203125" lon="-1.03113192133605480194091796875">
        <ele>1921.199951171875</ele>
        <time>2020-08-22T11:15:23.000Z</time>
      </trkpt>
      <trkpt lat="40.0760803185403347015380859375" lon="-1.0311824642121791839599609375">
        <ele>1920.4000244140625</ele>
        <time>2020-08-22T11:15:24.000Z</time>
      </trkpt>
      <trkpt lat="40.07614309899508953094482421875" lon="-1.03124222718179225921630859375">
        <ele>1919.4000244140625</ele>
        <time>2020-08-22T11:15:25.000Z</time>
      </trkpt>
      <trkpt lat="40.07626061327755451202392578125" lon="-1.0313705541193485260009765625">
        <ele>1918.199951171875</ele>
        <time>2020-08-22T11:15:27.000Z</time>
      </trkpt>
      <trkpt lat="40.07631207816302776336669921875" lon="-1.03144288994371891021728515625">
        <ele>1917.5999755859375</ele>
        <time>2020-08-22T11:15:28.000Z</time>
      </trkpt>
      <trkpt lat="40.07640159688889980316162109375" lon="-1.03159946389496326446533203125">
        <ele>1916.800048828125</ele>
        <time>2020-08-22T11:15:30.000Z</time>
      </trkpt>
      <trkpt lat="40.0764816440641880035400390625" lon="-1.03176198899745941162109375">
        <ele>1915.4000244140625</ele>
        <time>2020-08-22T11:15:32.000Z</time>
      </trkpt>
      <trkpt lat="40.0766717456281185150146484375" lon="-1.03217513300478458404541015625">
        <ele>1914.199951171875</ele>
        <time>2020-08-22T11:15:37.000Z</time>
      </trkpt>
      <trkpt lat="40.07679554633796215057373046875" lon="-1.0326207987964153289794921875">
        <ele>1912.800048828125</ele>
        <time>2020-08-22T11:15:42.000Z</time>
      </trkpt>
      <trkpt lat="40.07681264542043209075927734375" lon="-1.03270973078906536102294921875">
        <ele>1911.4000244140625</ele>
        <time>2020-08-22T11:15:43.000Z</time>
      </trkpt>
      <trkpt lat="40.07684315554797649383544921875" lon="-1.032883487641811370849609375">
        <ele>1910</ele>
        <time>2020-08-22T11:15:45.000Z</time>
      </trkpt>
      <trkpt lat="40.07686159573495388031005859375" lon="-1.0329634509980678558349609375">
        <ele>1909.4000244140625</ele>
        <time>2020-08-22T11:15:46.000Z</time>
      </trkpt>
      <trkpt lat="40.07691733539104461669921875" lon="-1.03309907019138336181640625">
        <ele>1908.800048828125</ele>
        <time>2020-08-22T11:15:48.000Z</time>
      </trkpt>
      <trkpt lat="40.077010206878185272216796875" lon="-1.03319303132593631744384765625">
        <ele>1908.4000244140625</ele>
        <time>2020-08-22T11:15:50.000Z</time>
      </trkpt>
      <trkpt lat="40.0771285593509674072265625" lon="-1.03323494084179401397705078125">
        <ele>1908</ele>
        <time>2020-08-22T11:15:52.000Z</time>
      </trkpt>
      <trkpt lat="40.077189914882183074951171875" lon="-1.0332316718995571136474609375">
        <ele>1907.4000244140625</ele>
        <time>2020-08-22T11:15:53.000Z</time>
      </trkpt>
      <trkpt lat="40.0772497616708278656005859375" lon="-1.03321365080773830413818359375">
        <ele>1907</ele>
        <time>2020-08-22T11:15:54.000Z</time>
      </trkpt>
      <trkpt lat="40.077470876276493072509765625" lon="-1.03308741934597492218017578125">
        <ele>1906.4000244140625</ele>
        <time>2020-08-22T11:15:58.000Z</time>
      </trkpt>
      <trkpt lat="40.07752443663775920867919921875" lon="-1.03305288590490818023681640625">
        <ele>1906.4000244140625</ele>
        <time>2020-08-22T11:15:59.000Z</time>
      </trkpt>
      <trkpt lat="40.07773247547447681427001953125" lon="-1.03286596946418285369873046875">
        <ele>1906</ele>
        <time>2020-08-22T11:16:03.000Z</time>
      </trkpt>
      <trkpt lat="40.078133046627044677734375" lon="-1.032417118549346923828125">
        <ele>1905.4000244140625</ele>
        <time>2020-08-22T11:16:11.000Z</time>
      </trkpt>
      <trkpt lat="40.0786649622023105621337890625" lon="-1.03211545385420322418212890625">
        <ele>1904.5999755859375</ele>
        <time>2020-08-22T11:16:20.000Z</time>
      </trkpt>
      <trkpt lat="40.07891499437391757965087890625" lon="-1.03203213773667812347412109375">
        <ele>1904.4000244140625</ele>
        <time>2020-08-22T11:16:24.000Z</time>
      </trkpt>
      <trkpt lat="40.07945579476654529571533203125" lon="-1.03205258958041667938232421875">
        <ele>1903.4000244140625</ele>
        <time>2020-08-22T11:16:32.000Z</time>
      </trkpt>
      <trkpt lat="40.07952519692480564117431640625" lon="-1.03206432424485683441162109375">
        <ele>1903.4000244140625</ele>
        <time>2020-08-22T11:16:33.000Z</time>
      </trkpt>
      <trkpt lat="40.08012752048671245574951171875" lon="-1.0321846045553684234619140625">
        <ele>1902.199951171875</ele>
        <time>2020-08-22T11:16:41.000Z</time>
      </trkpt>
      <trkpt lat="40.080716349184513092041015625" lon="-1.0321770608425140380859375">
        <ele>1902</ele>
        <time>2020-08-22T11:16:48.000Z</time>
      </trkpt>
      <trkpt lat="40.08112764917314052581787109375" lon="-1.03209399618208408355712890625">
        <ele>1900.4000244140625</ele>
        <time>2020-08-22T11:16:53.000Z</time>
      </trkpt>
      <trkpt lat="40.08134155534207820892333984375" lon="-1.0320538468658924102783203125">
        <ele>1898.800048828125</ele>
        <time>2020-08-22T11:16:56.000Z</time>
      </trkpt>
      <trkpt lat="40.0814775936305522918701171875" lon="-1.03203364647924900054931640625">
        <ele>1898</ele>
        <time>2020-08-22T11:16:58.000Z</time>
      </trkpt>
      <trkpt lat="40.0815461575984954833984375" lon="-1.0320374183356761932373046875">
        <ele>1897.800048828125</ele>
        <time>2020-08-22T11:16:59.000Z</time>
      </trkpt>
      <trkpt lat="40.08161597885191440582275390625" lon="-1.0320521704852581024169921875">
        <ele>1897.5999755859375</ele>
        <time>2020-08-22T11:17:00.000Z</time>
      </trkpt>
      <trkpt lat="40.0819055736064910888671875" lon="-1.03213674388825893402099609375">
        <ele>1896.800048828125</ele>
        <time>2020-08-22T11:17:04.000Z</time>
      </trkpt>
      <trkpt lat="40.08225467987358570098876953125" lon="-1.03225811384618282318115234375">
        <ele>1896</ele>
        <time>2020-08-22T11:17:09.000Z</time>
      </trkpt>
      <trkpt lat="40.082500688731670379638671875" lon="-1.03242826648056507110595703125">
        <ele>1895.5999755859375</ele>
        <time>2020-08-22T11:17:13.000Z</time>
      </trkpt>
      <trkpt lat="40.0830299220979213714599609375" lon="-1.0326737724244594573974609375">
        <ele>1895.5999755859375</ele>
        <time>2020-08-22T11:17:22.000Z</time>
      </trkpt>
      <trkpt lat="40.08340836502611637115478515625" lon="-1.03295682929456233978271484375">
        <ele>1897</ele>
        <time>2020-08-22T11:17:30.000Z</time>
      </trkpt>
      <trkpt lat="40.08388211019337177276611328125" lon="-1.0333677940070629119873046875">
        <ele>1897</ele>
        <time>2020-08-22T11:17:40.000Z</time>
      </trkpt>
      <trkpt lat="40.08416198194026947021484375" lon="-1.033798791468143463134765625">
        <ele>1896.199951171875</ele>
        <time>2020-08-22T11:17:47.000Z</time>
      </trkpt>
      <trkpt lat="40.08421026170253753662109375" lon="-1.03386660106480121612548828125">
        <ele>1895.800048828125</ele>
        <time>2020-08-22T11:17:48.000Z</time>
      </trkpt>
      <trkpt lat="40.0842659175395965576171875" lon="-1.03392778895795345306396484375">
        <ele>1895.199951171875</ele>
        <time>2020-08-22T11:17:49.000Z</time>
      </trkpt>
      <trkpt lat="40.0843287818133831024169921875" lon="-1.03397942148149013519287109375">
        <ele>1894.5999755859375</ele>
        <time>2020-08-22T11:17:50.000Z</time>
      </trkpt>
      <trkpt lat="40.08439265191555023193359375" lon="-1.03401747532188892364501953125">
        <ele>1893.5999755859375</ele>
        <time>2020-08-22T11:17:51.000Z</time>
      </trkpt>
      <trkpt lat="40.08452282287180423736572265625" lon="-1.0340611450374126434326171875">
        <ele>1892.4000244140625</ele>
        <time>2020-08-22T11:17:53.000Z</time>
      </trkpt>
      <trkpt lat="40.084911994636058807373046875" lon="-1.03416197933256626129150390625">
        <ele>1891.4000244140625</ele>
        <time>2020-08-22T11:17:59.000Z</time>
      </trkpt>
      <trkpt lat="40.085398145020008087158203125" lon="-1.03432609699666500091552734375">
        <ele>1890.4000244140625</ele>
        <time>2020-08-22T11:18:06.000Z</time>
      </trkpt>
      <trkpt lat="40.0856068544089794158935546875" lon="-1.0343411006033420562744140625">
        <ele>1890.199951171875</ele>
        <time>2020-08-22T11:18:09.000Z</time>
      </trkpt>
      <trkpt lat="40.08585236035287380218505859375" lon="-1.03426423855125904083251953125">
        <ele>1890.4000244140625</ele>
        <time>2020-08-22T11:18:13.000Z</time>
      </trkpt>
      <trkpt lat="40.08595059625804424285888671875" lon="-1.0341989435255527496337890625">
        <ele>1890.4000244140625</ele>
        <time>2020-08-22T11:18:15.000Z</time>
      </trkpt>
      <trkpt lat="40.08615595288574695587158203125" lon="-1.03398419916629791259765625">
        <ele>1891.5999755859375</ele>
        <time>2020-08-22T11:18:21.000Z</time>
      </trkpt>
      <trkpt lat="40.0862093456089496612548828125" lon="-1.033919490873813629150390625">
        <ele>1892.800048828125</ele>
        <time>2020-08-22T11:18:23.000Z</time>
      </trkpt>
      <trkpt lat="40.08626139722764492034912109375" lon="-1.03385603986680507659912109375">
        <ele>1893.800048828125</ele>
        <time>2020-08-22T11:18:25.000Z</time>
      </trkpt>
      <trkpt lat="40.08633951656520366668701171875" lon="-1.03376970626413822174072265625">
        <ele>1895</ele>
        <time>2020-08-22T11:18:28.000Z</time>
      </trkpt>
      <trkpt lat="40.08642199449241161346435546875" lon="-1.03368085809051990509033203125">
        <ele>1896.199951171875</ele>
        <time>2020-08-22T11:18:31.000Z</time>
      </trkpt>
      <trkpt lat="40.08653380908071994781494140625" lon="-1.03355278261005878448486328125">
        <ele>1897.4000244140625</ele>
        <time>2020-08-22T11:18:35.000Z</time>
      </trkpt>
      <trkpt lat="40.08662936277687549591064453125" lon="-1.03340861387550830841064453125">
        <ele>1898.4000244140625</ele>
        <time>2020-08-22T11:18:39.000Z</time>
      </trkpt>
      <trkpt lat="40.08670295588672161102294921875" lon="-1.0332417301833629608154296875">
        <ele>1899.4000244140625</ele>
        <time>2020-08-22T11:18:43.000Z</time>
      </trkpt>
      <trkpt lat="40.08674000389873981475830078125" lon="-1.03311122395098209381103515625">
        <ele>1900.4000244140625</ele>
        <time>2020-08-22T11:18:46.000Z</time>
      </trkpt>
      <trkpt lat="40.0867655687034130096435546875" lon="-1.032981388270854949951171875">
        <ele>1901.5999755859375</ele>
        <time>2020-08-22T11:18:49.000Z</time>
      </trkpt>
      <trkpt lat="40.08679096587002277374267578125" lon="-1.03281131945550441741943359375">
        <ele>1902.5999755859375</ele>
        <time>2020-08-22T11:18:53.000Z</time>
      </trkpt>
      <trkpt lat="40.08682969026267528533935546875" lon="-1.03255684487521648406982421875">
        <ele>1903.800048828125</ele>
        <time>2020-08-22T11:18:59.000Z</time>
      </trkpt>
      <trkpt lat="40.08686053566634654998779296875" lon="-1.03236774913966655731201171875">
        <ele>1904.800048828125</ele>
        <time>2020-08-22T11:19:03.000Z</time>
      </trkpt>
      <trkpt lat="40.08700621314346790313720703125" lon="-1.03194773197174072265625">
        <ele>1906</ele>
        <time>2020-08-22T11:19:12.000Z</time>
      </trkpt>
      <trkpt lat="40.08710126392543315887451171875" lon="-1.0317752324044704437255859375">
        <ele>1906.5999755859375</ele>
        <time>2020-08-22T11:19:16.000Z</time>
      </trkpt>
      <trkpt lat="40.08721928112208843231201171875" lon="-1.0316069237887859344482421875">
        <ele>1907</ele>
        <time>2020-08-22T11:19:20.000Z</time>
      </trkpt>
      <trkpt lat="40.087384991347789764404296875" lon="-1.03139586746692657470703125">
        <ele>1908</ele>
        <time>2020-08-22T11:19:25.000Z</time>
      </trkpt>
      <trkpt lat="40.0875028409063816070556640625" lon="-1.03127726353704929351806640625">
        <ele>1908.199951171875</ele>
        <time>2020-08-22T11:19:28.000Z</time>
      </trkpt>
      <trkpt lat="40.087592862546443939208984375" lon="-1.03120367042720317840576171875">
        <ele>1908.199951171875</ele>
        <time>2020-08-22T11:19:30.000Z</time>
      </trkpt>
      <trkpt lat="40.0876946188509464263916015625" lon="-1.03115170262753963470458984375">
        <ele>1908.199951171875</ele>
        <time>2020-08-22T11:19:32.000Z</time>
      </trkpt>
      <trkpt lat="40.0878012366592884063720703125" lon="-1.03110878728330135345458984375">
        <ele>1908.199951171875</ele>
        <time>2020-08-22T11:19:34.000Z</time>
      </trkpt>
      <trkpt lat="40.08832183666527271270751953125" lon="-1.03080469183623790740966796875">
        <ele>1908.4000244140625</ele>
        <time>2020-08-22T11:19:44.000Z</time>
      </trkpt>
      <trkpt lat="40.0887356512248516082763671875" lon="-1.0305945575237274169921875">
        <ele>1909.199951171875</ele>
        <time>2020-08-22T11:19:52.000Z</time>
      </trkpt>
      <trkpt lat="40.08878820575773715972900390625" lon="-1.030576117336750030517578125">
        <ele>1909.4000244140625</ele>
        <time>2020-08-22T11:19:53.000Z</time>
      </trkpt>
      <trkpt lat="40.0888417661190032958984375" lon="-1.0305648855865001678466796875">
        <ele>1909.4000244140625</ele>
        <time>2020-08-22T11:19:54.000Z</time>
      </trkpt>
      <trkpt lat="40.0889502279460430145263671875" lon="-1.030575446784496307373046875">
        <ele>1909.4000244140625</ele>
        <time>2020-08-22T11:19:56.000Z</time>
      </trkpt>
      <trkpt lat="40.0890551693737506866455078125" lon="-1.03062833659350872039794921875">
        <ele>1909.800048828125</ele>
        <time>2020-08-22T11:19:58.000Z</time>
      </trkpt>
      <trkpt lat="40.08923646993935108184814453125" lon="-1.0307811386883258819580078125">
        <ele>1910.199951171875</ele>
        <time>2020-08-22T11:20:02.000Z</time>
      </trkpt>
      <trkpt lat="40.0893827341496944427490234375" lon="-1.0309487767517566680908203125">
        <ele>1911</ele>
        <time>2020-08-22T11:20:06.000Z</time>
      </trkpt>
      <trkpt lat="40.0894310139119625091552734375" lon="-1.03104542009532451629638671875">
        <ele>1911.199951171875</ele>
        <time>2020-08-22T11:20:08.000Z</time>
      </trkpt>
      <trkpt lat="40.08944819681346416473388671875" lon="-1.0310947895050048828125">
        <ele>1911.4000244140625</ele>
        <time>2020-08-22T11:20:09.000Z</time>
      </trkpt>
      <trkpt lat="40.0894762761890888214111328125" lon="-1.03128631599247455596923828125">
        <ele>1912.4000244140625</ele>
        <time>2020-08-22T11:20:13.000Z</time>
      </trkpt>
      <trkpt lat="40.08949547074735164642333984375" lon="-1.03149837814271450042724609375">
        <ele>1914</ele>
        <time>2020-08-22T11:20:18.000Z</time>
      </trkpt>
      <trkpt lat="40.08953922428190708160400390625" lon="-1.03163936175405979156494140625">
        <ele>1915.199951171875</ele>
        <time>2020-08-22T11:20:22.000Z</time>
      </trkpt>
      <trkpt lat="40.08964902721345424652099609375" lon="-1.031778417527675628662109375">
        <ele>1916.5999755859375</ele>
        <time>2020-08-22T11:20:27.000Z</time>
      </trkpt>
      <trkpt lat="40.089777521789073944091796875" lon="-1.03189433924853801727294921875">
        <ele>1917.5999755859375</ele>
        <time>2020-08-22T11:20:32.000Z</time>
      </trkpt>
      <trkpt lat="40.08992739021778106689453125" lon="-1.03199408389627933502197265625">
        <ele>1918.5999755859375</ele>
        <time>2020-08-22T11:20:37.000Z</time>
      </trkpt>
      <trkpt lat="40.09021304547786712646484375" lon="-1.03203968144953250885009765625">
        <ele>1919.5999755859375</ele>
        <time>2020-08-22T11:20:45.000Z</time>
      </trkpt>
      <trkpt lat="40.0904807634651660919189453125" lon="-1.032016463577747344970703125">
        <ele>1920.800048828125</ele>
        <time>2020-08-22T11:20:52.000Z</time>
      </trkpt>
      <trkpt lat="40.09092223830521106719970703125" lon="-1.0319351591169834136962890625">
        <ele>1921.800048828125</ele>
        <time>2020-08-22T11:21:02.000Z</time>
      </trkpt>
      <trkpt lat="40.0911328755319118499755859375" lon="-1.03183834813535213470458984375">
        <ele>1922.199951171875</ele>
        <time>2020-08-22T11:21:07.000Z</time>
      </trkpt>
      <trkpt lat="40.09120387025177478790283203125" lon="-1.03176509030163288116455078125">
        <ele>1922.5999755859375</ele>
        <time>2020-08-22T11:21:09.000Z</time>
      </trkpt>
      <trkpt lat="40.09123404510319232940673828125" lon="-1.0317185707390308380126953125">
        <ele>1922.800048828125</ele>
        <time>2020-08-22T11:21:10.000Z</time>
      </trkpt>
      <trkpt lat="40.09128852747380733489990234375" lon="-1.03161723352968692779541015625">
        <ele>1923</ele>
        <time>2020-08-22T11:21:12.000Z</time>
      </trkpt>
      <trkpt lat="40.09145650081336498260498046875" lon="-1.0309041850268840789794921875">
        <ele>1923.4000244140625</ele>
        <time>2020-08-22T11:21:22.000Z</time>
      </trkpt>
      <trkpt lat="40.09166034869849681854248046875" lon="-1.0302136838436126708984375">
        <ele>1923.199951171875</ele>
        <time>2020-08-22T11:21:30.000Z</time>
      </trkpt>
      <trkpt lat="40.09195773862302303314208984375" lon="-1.02956919930875301361083984375">
        <ele>1923.199951171875</ele>
        <time>2020-08-22T11:21:40.000Z</time>
      </trkpt>
      <trkpt lat="40.09204356931149959564208984375" lon="-1.0294202528893947601318359375">
        <ele>1924</ele>
        <time>2020-08-22T11:21:44.000Z</time>
      </trkpt>
      <trkpt lat="40.09210911579430103302001953125" lon="-1.02931790985167026519775390625">
        <ele>1925.4000244140625</ele>
        <time>2020-08-22T11:21:47.000Z</time>
      </trkpt>
      <trkpt lat="40.09217835031449794769287109375" lon="-1.02921984158456325531005859375">
        <ele>1926.4000244140625</ele>
        <time>2020-08-22T11:21:50.000Z</time>
      </trkpt>
      <trkpt lat="40.092224366962909698486328125" lon="-1.02916033007204532623291015625">
        <ele>1927.5999755859375</ele>
        <time>2020-08-22T11:21:52.000Z</time>
      </trkpt>
      <trkpt lat="40.09229100309312343597412109375" lon="-1.02907902561128139495849609375">
        <ele>1928.800048828125</ele>
        <time>2020-08-22T11:21:55.000Z</time>
      </trkpt>
      <trkpt lat="40.09237716905772686004638671875" lon="-1.028982885181903839111328125">
        <ele>1930.199951171875</ele>
        <time>2020-08-22T11:21:59.000Z</time>
      </trkpt>
      <trkpt lat="40.0924585573375225067138671875" lon="-1.0288938693702220916748046875">
        <ele>1931.4000244140625</ele>
        <time>2020-08-22T11:22:03.000Z</time>
      </trkpt>
      <trkpt lat="40.09251832030713558197021484375" lon="-1.0288323462009429931640625">
        <ele>1932.5999755859375</ele>
        <time>2020-08-22T11:22:06.000Z</time>
      </trkpt>
      <trkpt lat="40.09266131557524204254150390625" lon="-1.02869345806539058685302734375">
        <ele>1934</ele>
        <time>2020-08-22T11:22:13.000Z</time>
      </trkpt>
      <trkpt lat="40.09279006160795688629150390625" lon="-1.0285720042884349822998046875">
        <ele>1935</ele>
        <time>2020-08-22T11:22:19.000Z</time>
      </trkpt>
      <trkpt lat="40.0929960049688816070556640625" lon="-1.02842976339161396026611328125">
        <ele>1936</ele>
        <time>2020-08-22T11:22:27.000Z</time>
      </trkpt>
      <trkpt lat="40.09317697025835514068603515625" lon="-1.028382070362567901611328125">
        <ele>1937.199951171875</ele>
        <time>2020-08-22T11:22:33.000Z</time>
      </trkpt>
      <trkpt lat="40.09343949146568775177001953125" lon="-1.02846429683268070220947265625">
        <ele>1938.4000244140625</ele>
        <time>2020-08-22T11:22:41.000Z</time>
      </trkpt>
      <trkpt lat="40.093794129788875579833984375" lon="-1.0285257361829280853271484375">
        <ele>1939.4000244140625</ele>
        <time>2020-08-22T11:22:51.000Z</time>
      </trkpt>
      <trkpt lat="40.09416955523192882537841796875" lon="-1.0284469462931156158447265625">
        <ele>1940.4000244140625</ele>
        <time>2020-08-22T11:23:01.000Z</time>
      </trkpt>
      <trkpt lat="40.0944806076586246490478515625" lon="-1.02836891077458858489990234375">
        <ele>1941.4000244140625</ele>
        <time>2020-08-22T11:23:10.000Z</time>
      </trkpt>
      <trkpt lat="40.09473298676311969757080078125" lon="-1.028259694576263427734375">
        <ele>1942.5999755859375</ele>
        <time>2020-08-22T11:23:19.000Z</time>
      </trkpt>
      <trkpt lat="40.09494119323790073394775390625" lon="-1.0281026177108287811279296875">
        <ele>1943.5999755859375</ele>
        <time>2020-08-22T11:23:27.000Z</time>
      </trkpt>
      <trkpt lat="40.09514889679849147796630859375" lon="-1.02788074873387813568115234375">
        <ele>1944.5999755859375</ele>
        <time>2020-08-22T11:23:36.000Z</time>
      </trkpt>
      <trkpt lat="40.09524176828563213348388671875" lon="-1.027750410139560699462890625">
        <ele>1945.800048828125</ele>
        <time>2020-08-22T11:23:41.000Z</time>
      </trkpt>
      <trkpt lat="40.09532491676509380340576171875" lon="-1.0276154614984989166259765625">
        <ele>1946.800048828125</ele>
        <time>2020-08-22T11:23:46.000Z</time>
      </trkpt>
      <trkpt lat="40.09542189538478851318359375" lon="-1.0274511761963367462158203125">
        <ele>1948</ele>
        <time>2020-08-22T11:23:52.000Z</time>
      </trkpt>
      <trkpt lat="40.09549188427627086639404296875" lon="-1.02730960585176944732666015625">
        <ele>1949</ele>
        <time>2020-08-22T11:23:57.000Z</time>
      </trkpt>
      <trkpt lat="40.0955608673393726348876953125" lon="-1.027180440723896026611328125">
        <ele>1950.199951171875</ele>
        <time>2020-08-22T11:24:02.000Z</time>
      </trkpt>
      <trkpt lat="40.095632784068584442138671875" lon="-1.02707390673458576202392578125">
        <ele>1951.4000244140625</ele>
        <time>2020-08-22T11:24:07.000Z</time>
      </trkpt>
      <trkpt lat="40.09569757618010044097900390625" lon="-1.0269950330257415771484375">
        <ele>1952.5999755859375</ele>
        <time>2020-08-22T11:24:11.000Z</time>
      </trkpt>
      <trkpt lat="40.09575490839779376983642578125" lon="-1.0269093699753284454345703125">
        <ele>1953.800048828125</ele>
        <time>2020-08-22T11:24:15.000Z</time>
      </trkpt>
      <trkpt lat="40.09585280902683734893798828125" lon="-1.026774756610393524169921875">
        <ele>1955</ele>
        <time>2020-08-22T11:24:22.000Z</time>
      </trkpt>
      <trkpt lat="40.09590947069227695465087890625" lon="-1.02668448351323604583740234375">
        <ele>1956.199951171875</ele>
        <time>2020-08-22T11:24:26.000Z</time>
      </trkpt>
      <trkpt lat="40.09597166441380977630615234375" lon="-1.0265737585723400115966796875">
        <ele>1957.4000244140625</ele>
        <time>2020-08-22T11:24:31.000Z</time>
      </trkpt>
      <trkpt lat="40.09604156948626041412353515625" lon="-1.02642430923879146575927734375">
        <ele>1958.5999755859375</ele>
        <time>2020-08-22T11:24:38.000Z</time>
      </trkpt>
      <trkpt lat="40.096087753772735595703125" lon="-1.02634124457836151123046875">
        <ele>1959.800048828125</ele>
        <time>2020-08-22T11:24:42.000Z</time>
      </trkpt>
      <trkpt lat="40.09614466689527034759521484375" lon="-1.02623320184648036956787109375">
        <ele>1961</ele>
        <time>2020-08-22T11:24:47.000Z</time>
      </trkpt>
      <trkpt lat="40.09622027166187763214111328125" lon="-1.02604863233864307403564453125">
        <ele>1962</ele>
        <time>2020-08-22T11:24:54.000Z</time>
      </trkpt>
      <trkpt lat="40.09627006016671657562255859375" lon="-1.025843359529972076416015625">
        <ele>1963</ele>
        <time>2020-08-22T11:25:01.000Z</time>
      </trkpt>
      <trkpt lat="40.096285231411457061767578125" lon="-1.02569357492029666900634765625">
        <ele>1964.199951171875</ele>
        <time>2020-08-22T11:25:06.000Z</time>
      </trkpt>
      <trkpt lat="40.09628950618207454681396484375" lon="-1.0253667645156383514404296875">
        <ele>1965.4000244140625</ele>
        <time>2020-08-22T11:25:16.000Z</time>
      </trkpt>
      <trkpt lat="40.09628414176404476165771484375" lon="-1.02513215504586696624755859375">
        <ele>1966.4000244140625</ele>
        <time>2020-08-22T11:25:23.000Z</time>
      </trkpt>
      <trkpt lat="40.0962817110121250152587890625" lon="-1.0249040834605693817138671875">
        <ele>1967.4000244140625</ele>
        <time>2020-08-22T11:25:30.000Z</time>
      </trkpt>
      <trkpt lat="40.09627777151763439178466796875" lon="-1.02471540682017803192138671875">
        <ele>1968.4000244140625</ele>
        <time>2020-08-22T11:25:36.000Z</time>
      </trkpt>
      <trkpt lat="40.09627961553633213043212890625" lon="-1.0245245508849620819091796875">
        <ele>1969.5999755859375</ele>
        <time>2020-08-22T11:25:42.000Z</time>
      </trkpt>
      <trkpt lat="40.09627710096538066864013671875" lon="-1.02432162500917911529541015625">
        <ele>1970.5999755859375</ele>
        <time>2020-08-22T11:25:48.000Z</time>
      </trkpt>
      <trkpt lat="40.09626670740544795989990234375" lon="-1.02417410351336002349853515625">
        <ele>1971.800048828125</ele>
        <time>2020-08-22T11:25:53.000Z</time>
      </trkpt>
      <trkpt lat="40.09625530801713466644287109375" lon="-1.0240293480455875396728515625">
        <ele>1973</ele>
        <time>2020-08-22T11:25:58.000Z</time>
      </trkpt>
      <trkpt lat="40.0962522067129611968994140625" lon="-1.023916192352771759033203125">
        <ele>1974</ele>
        <time>2020-08-22T11:26:02.000Z</time>
      </trkpt>
      <trkpt lat="40.0962652824819087982177734375" lon="-1.02377898059785366058349609375">
        <ele>1975</ele>
        <time>2020-08-22T11:26:07.000Z</time>
      </trkpt>
      <trkpt lat="40.09628866799175739288330078125" lon="-1.02373807691037654876708984375">
        <ele>1975.199951171875</ele>
        <time>2020-08-22T11:26:09.000Z</time>
      </trkpt>
      <trkpt lat="40.09633108042180538177490234375" lon="-1.0237359814345836639404296875">
        <ele>1975.4000244140625</ele>
        <time>2020-08-22T11:26:11.000Z</time>
      </trkpt>
      <trkpt lat="40.09646971710026264190673828125" lon="-1.024099923670291900634765625">
        <ele>1976.199951171875</ele>
        <time>2020-08-22T11:26:25.000Z</time>
      </trkpt>
      <trkpt lat="40.09655269794166088104248046875" lon="-1.0242315195500850677490234375">
        <ele>1977.199951171875</ele>
        <time>2020-08-22T11:26:31.000Z</time>
      </trkpt>
      <trkpt lat="40.09664389304816722869873046875" lon="-1.0243532247841358184814453125">
        <ele>1978.4000244140625</ele>
        <time>2020-08-22T11:26:37.000Z</time>
      </trkpt>
      <trkpt lat="40.09673609398305416107177734375" lon="-1.02446462027728557586669921875">
        <ele>1979.5999755859375</ele>
        <time>2020-08-22T11:26:43.000Z</time>
      </trkpt>
      <trkpt lat="40.096847154200077056884765625" lon="-1.0245644487440586090087890625">
        <ele>1980.800048828125</ele>
        <time>2020-08-22T11:26:50.000Z</time>
      </trkpt>
      <trkpt lat="40.09692535735666751861572265625" lon="-1.0246117226779460906982421875">
        <ele>1981.800048828125</ele>
        <time>2020-08-22T11:26:55.000Z</time>
      </trkpt>
      <trkpt lat="40.096976570785045623779296875" lon="-1.0247005708515644073486328125">
        <ele>1982.5999755859375</ele>
        <time>2020-08-22T11:27:00.000Z</time>
      </trkpt>
      <trkpt lat="40.09697950445115566253662109375" lon="-1.0247203521430492401123046875">
        <ele>1982.800048828125</ele>
        <time>2020-08-22T11:27:01.000Z</time>
      </trkpt>
      <trkpt lat="40.0969965197145938873291015625" lon="-1.024783216416835784912109375">
        <ele>1984</ele>
        <time>2020-08-22T11:27:05.000Z</time>
      </trkpt>
      <trkpt lat="40.0970179773867130279541015625" lon="-1.02478413842618465423583984375">
        <ele>1985</ele>
        <time>2020-08-22T11:27:13.000Z</time>
      </trkpt>
      <trkpt lat="40.09702325798571109771728515625" lon="-1.0247822105884552001953125">
        <ele>1985</ele>
        <time>2020-08-22T11:27:19.000Z</time>
      </trkpt>
      <trkpt lat="40.097042955458164215087890625" lon="-1.02468900382518768310546875">
        <ele>2013.199951171875</ele>
        <time>2020-08-22T11:49:22.000Z</time>
      </trkpt>
      <trkpt lat="40.09699878282845020294189453125" lon="-1.0246722400188446044921875">
        <ele>2012.199951171875</ele>
        <time>2020-08-22T11:49:28.000Z</time>
      </trkpt>
      <trkpt lat="40.09685243479907512664794921875" lon="-1.024543829262256622314453125">
        <ele>2011</ele>
        <time>2020-08-22T11:49:35.000Z</time>
      </trkpt>
      <trkpt lat="40.09680734016001224517822265625" lon="-1.0244910232722759246826171875">
        <ele>2009.4000244140625</ele>
        <time>2020-08-22T11:49:37.000Z</time>
      </trkpt>
      <trkpt lat="40.096676163375377655029296875" lon="-1.0243626125156879425048828125">
        <ele>2010.5999755859375</ele>
        <time>2020-08-22T11:49:42.000Z</time>
      </trkpt>
      <trkpt lat="40.0965663604438304901123046875" lon="-1.02422120980918407440185546875">
        <ele>2009.199951171875</ele>
        <time>2020-08-22T11:49:47.000Z</time>
      </trkpt>
      <trkpt lat="40.09647625498473644256591796875" lon="-1.0240826569497585296630859375">
        <ele>2008.199951171875</ele>
        <time>2020-08-22T11:49:51.000Z</time>
      </trkpt>
      <trkpt lat="40.09639880619943141937255859375" lon="-1.0239331237971782684326171875">
        <ele>2006.800048828125</ele>
        <time>2020-08-22T11:49:55.000Z</time>
      </trkpt>
      <trkpt lat="40.0963769294321537017822265625" lon="-1.0237658210098743438720703125">
        <ele>2005.5999755859375</ele>
        <time>2020-08-22T11:49:59.000Z</time>
      </trkpt>
      <trkpt lat="40.09634767659008502960205078125" lon="-1.02371242828667163848876953125">
        <ele>2005.199951171875</ele>
        <time>2020-08-22T11:50:01.000Z</time>
      </trkpt>
      <trkpt lat="40.096283219754695892333984375" lon="-1.02377126924693584442138671875">
        <ele>2004.5999755859375</ele>
        <time>2020-08-22T11:50:05.000Z</time>
      </trkpt>
      <trkpt lat="40.09626486338675022125244140625" lon="-1.02392784319818019866943359375">
        <ele>2003.5999755859375</ele>
        <time>2020-08-22T11:50:10.000Z</time>
      </trkpt>
      <trkpt lat="40.096271149814128875732421875" lon="-1.02413236163556575775146484375">
        <ele>2002.199951171875</ele>
        <time>2020-08-22T11:50:15.000Z</time>
      </trkpt>
      <trkpt lat="40.09627374820411205291748046875" lon="-1.024264208972454071044921875">
        <ele>2001</ele>
        <time>2020-08-22T11:50:18.000Z</time>
      </trkpt>
      <trkpt lat="40.0962768495082855224609375" lon="-1.024355404078960418701171875">
        <ele>1999.800048828125</ele>
        <time>2020-08-22T11:50:20.000Z</time>
      </trkpt>
      <trkpt lat="40.09626142680644989013671875" lon="-1.02482336573302745819091796875">
        <ele>1998.5999755859375</ele>
        <time>2020-08-22T11:50:30.000Z</time>
      </trkpt>
      <trkpt lat="40.0962827168405055999755859375" lon="-1.02512913756072521209716796875">
        <ele>1997.199951171875</ele>
        <time>2020-08-22T11:50:35.000Z</time>
      </trkpt>
      <trkpt lat="40.0962947867810726165771484375" lon="-1.02532762102782726287841796875">
        <ele>1995.800048828125</ele>
        <time>2020-08-22T11:50:38.000Z</time>
      </trkpt>
      <trkpt lat="40.09628824889659881591796875" lon="-1.02568435482680797576904296875">
        <ele>1994.5999755859375</ele>
        <time>2020-08-22T11:50:43.000Z</time>
      </trkpt>
      <trkpt lat="40.09624256752431392669677734375" lon="-1.02600060403347015380859375">
        <ele>1993.4000244140625</ele>
        <time>2020-08-22T11:50:48.000Z</time>
      </trkpt>
      <trkpt lat="40.09615723975002765655517578125" lon="-1.02623999118804931640625">
        <ele>1992.4000244140625</ele>
        <time>2020-08-22T11:50:52.000Z</time>
      </trkpt>
      <trkpt lat="40.09599664248526096343994140625" lon="-1.02654182352125644683837890625">
        <ele>1991.4000244140625</ele>
        <time>2020-08-22T11:50:57.000Z</time>
      </trkpt>
      <trkpt lat="40.09593092836439609527587890625" lon="-1.02666922844946384429931640625">
        <ele>1990</ele>
        <time>2020-08-22T11:50:59.000Z</time>
      </trkpt>
      <trkpt lat="40.0958572514355182647705078125" lon="-1.02679789066314697265625">
        <ele>1988.4000244140625</ele>
        <time>2020-08-22T11:51:01.000Z</time>
      </trkpt>
      <trkpt lat="40.09572674520313739776611328125" lon="-1.02698958478868007659912109375">
        <ele>1987.199951171875</ele>
        <time>2020-08-22T11:51:04.000Z</time>
      </trkpt>
      <trkpt lat="40.09563018567860126495361328125" lon="-1.02712176740169525146484375">
        <ele>1985.199951171875</ele>
        <time>2020-08-22T11:51:06.000Z</time>
      </trkpt>
      <trkpt lat="40.09553882293403148651123046875" lon="-1.0272713005542755126953125">
        <ele>1983.5999755859375</ele>
        <time>2020-08-22T11:51:08.000Z</time>
      </trkpt>
      <trkpt lat="40.0954458676278591156005859375" lon="-1.027433238923549652099609375">
        <ele>1982.4000244140625</ele>
        <time>2020-08-22T11:51:10.000Z</time>
      </trkpt>
      <trkpt lat="40.09529943577945232391357421875" lon="-1.02769416756927967071533203125">
        <ele>1981.199951171875</ele>
        <time>2020-08-22T11:51:13.000Z</time>
      </trkpt>
      <trkpt lat="40.09518586099147796630859375" lon="-1.02785677649080753326416015625">
        <ele>1979.5999755859375</ele>
        <time>2020-08-22T11:51:15.000Z</time>
      </trkpt>
      <trkpt lat="40.095062814652919769287109375" lon="-1.0280073992908000946044921875">
        <ele>1978</ele>
        <time>2020-08-22T11:51:17.000Z</time>
      </trkpt>
      <trkpt lat="40.09493147023022174835205078125" lon="-1.0281391628086566925048828125">
        <ele>1977</ele>
        <time>2020-08-22T11:51:19.000Z</time>
      </trkpt>
      <trkpt lat="40.09486273862421512603759765625" lon="-1.02819599211215972900390625">
        <ele>1975.4000244140625</ele>
        <time>2020-08-22T11:51:20.000Z</time>
      </trkpt>
      <trkpt lat="40.09471974335610866546630859375" lon="-1.02829280309379100799560546875">
        <ele>1973.800048828125</ele>
        <time>2020-08-22T11:51:22.000Z</time>
      </trkpt>
      <trkpt lat="40.09457088075578212738037109375" lon="-1.02836388163268566131591796875">
        <ele>1972</ele>
        <time>2020-08-22T11:51:24.000Z</time>
      </trkpt>
      <trkpt lat="40.09426678530871868133544921875" lon="-1.02845205925405025482177734375">
        <ele>1971</ele>
        <time>2020-08-22T11:51:28.000Z</time>
      </trkpt>
      <trkpt lat="40.09376873262226581573486328125" lon="-1.0285549052059650421142578125">
        <ele>1970</ele>
        <time>2020-08-22T11:51:35.000Z</time>
      </trkpt>
      <trkpt lat="40.09356371127068996429443359375" lon="-1.02854057215154170989990234375">
        <ele>1968.800048828125</ele>
        <time>2020-08-22T11:51:38.000Z</time>
      </trkpt>
      <trkpt lat="40.0932306982576847076416015625" lon="-1.0284405760467052459716796875">
        <ele>1967.800048828125</ele>
        <time>2020-08-22T11:51:43.000Z</time>
      </trkpt>
      <trkpt lat="40.09304956533014774322509765625" lon="-1.02844770066440105438232421875">
        <ele>1967.199951171875</ele>
        <time>2020-08-22T11:51:46.000Z</time>
      </trkpt>
      <trkpt lat="40.09293959476053714752197265625" lon="-1.02849447168409824371337890625">
        <ele>1967</ele>
        <time>2020-08-22T11:51:48.000Z</time>
      </trkpt>
      <trkpt lat="40.09283213876187801361083984375" lon="-1.0285693220794200897216796875">
        <ele>1966.800048828125</ele>
        <time>2020-08-22T11:51:50.000Z</time>
      </trkpt>
      <trkpt lat="40.09257095865905284881591796875" lon="-1.0287912748754024505615234375">
        <ele>1965.4000244140625</ele>
        <time>2020-08-22T11:51:55.000Z</time>
      </trkpt>
      <trkpt lat="40.09241790510714054107666015625" lon="-1.0289498604834079742431640625">
        <ele>1964</ele>
        <time>2020-08-22T11:51:58.000Z</time>
      </trkpt>
      <trkpt lat="40.09215789847075939178466796875" lon="-1.029260493814945220947265625">
        <ele>1962.5999755859375</ele>
        <time>2020-08-22T11:52:03.000Z</time>
      </trkpt>
      <trkpt lat="40.0919998995959758758544921875" lon="-1.02949929423630237579345703125">
        <ele>1961.4000244140625</ele>
        <time>2020-08-22T11:52:06.000Z</time>
      </trkpt>
      <trkpt lat="40.09189839474856853485107421875" lon="-1.0296807624399662017822265625">
        <ele>1959.5999755859375</ele>
        <time>2020-08-22T11:52:08.000Z</time>
      </trkpt>
      <trkpt lat="40.0918030925095081329345703125" lon="-1.029877401888370513916015625">
        <ele>1958</ele>
        <time>2020-08-22T11:52:10.000Z</time>
      </trkpt>
      <trkpt lat="40.09171240031719207763671875" lon="-1.0300780646502971649169921875">
        <ele>1957</ele>
        <time>2020-08-22T11:52:12.000Z</time>
      </trkpt>
      <trkpt lat="40.09162732400000095367431640625" lon="-1.03027470409870147705078125">
        <ele>1954.5999755859375</ele>
        <time>2020-08-22T11:52:14.000Z</time>
      </trkpt>
      <trkpt lat="40.0915569998323917388916015625" lon="-1.03046690113842487335205078125">
        <ele>1953</ele>
        <time>2020-08-22T11:52:16.000Z</time>
      </trkpt>
      <trkpt lat="40.09150444529950618743896484375" lon="-1.03065331466495990753173828125">
        <ele>1952</ele>
        <time>2020-08-22T11:52:18.000Z</time>
      </trkpt>
      <trkpt lat="40.09134317748248577117919921875" lon="-1.03138455189764499664306640625">
        <ele>1951.199951171875</ele>
        <time>2020-08-22T11:52:28.000Z</time>
      </trkpt>
      <trkpt lat="40.09123873896896839141845703125" lon="-1.03170675225555896759033203125">
        <ele>1951.800048828125</ele>
        <time>2020-08-22T11:52:34.000Z</time>
      </trkpt>
      <trkpt lat="40.0911855138838291168212890625" lon="-1.03179761208593845367431640625">
        <ele>1952.199951171875</ele>
        <time>2020-08-22T11:52:36.000Z</time>
      </trkpt>
      <trkpt lat="40.09111150167882442474365234375" lon="-1.0318659245967864990234375">
        <ele>1952.4000244140625</ele>
        <time>2020-08-22T11:52:38.000Z</time>
      </trkpt>
      <trkpt lat="40.090981163084506988525390625" lon="-1.03193490765988826751708984375">
        <ele>1952.5999755859375</ele>
        <time>2020-08-22T11:52:41.000Z</time>
      </trkpt>
      <trkpt lat="40.0908358208835124969482421875" lon="-1.03197396732866764068603515625">
        <ele>1952.5999755859375</ele>
        <time>2020-08-22T11:52:44.000Z</time>
      </trkpt>
      <trkpt lat="40.0902928411960601806640625" lon="-1.03205610997974872589111328125">
        <ele>1951.5999755859375</ele>
        <time>2020-08-22T11:52:54.000Z</time>
      </trkpt>
      <trkpt lat="40.09000274352729320526123046875" lon="-1.0320434533059597015380859375">
        <ele>1950.800048828125</ele>
        <time>2020-08-22T11:52:59.000Z</time>
      </trkpt>
      <trkpt lat="40.0898866541683673858642578125" lon="-1.03199936449527740478515625">
        <ele>1950.4000244140625</ele>
        <time>2020-08-22T11:53:01.000Z</time>
      </trkpt>
      <trkpt lat="40.08977643214166164398193359375" lon="-1.03191864676773548126220703125">
        <ele>1950</ele>
        <time>2020-08-22T11:53:03.000Z</time>
      </trkpt>
      <trkpt lat="40.08967333473265171051025390625" lon="-1.03182594291865825653076171875">
        <ele>1949.800048828125</ele>
        <time>2020-08-22T11:53:05.000Z</time>
      </trkpt>
      <trkpt lat="40.08957308717072010040283203125" lon="-1.03172753937542438507080078125">
        <ele>1949.199951171875</ele>
        <time>2020-08-22T11:53:07.000Z</time>
      </trkpt>
      <trkpt lat="40.08949823677539825439453125" lon="-1.0315972007811069488525390625">
        <ele>1949</ele>
        <time>2020-08-22T11:53:09.000Z</time>
      </trkpt>
      <trkpt lat="40.08945892564952373504638671875" lon="-1.0314225219190120697021484375">
        <ele>1948.5999755859375</ele>
        <time>2020-08-22T11:53:11.000Z</time>
      </trkpt>
      <trkpt lat="40.0894330255687236785888671875" lon="-1.03112102486193180084228515625">
        <ele>1948.4000244140625</ele>
        <time>2020-08-22T11:53:14.000Z</time>
      </trkpt>
      <trkpt lat="40.08940008468925952911376953125" lon="-1.031023375689983367919921875">
        <ele>1947.5999755859375</ele>
        <time>2020-08-22T11:53:15.000Z</time>
      </trkpt>
      <trkpt lat="40.08935096673667430877685546875" lon="-1.03093494661152362823486328125">
        <ele>1946.800048828125</ele>
        <time>2020-08-22T11:53:16.000Z</time>
      </trkpt>
      <trkpt lat="40.0892214663326740264892578125" lon="-1.03078658692538738250732421875">
        <ele>1946.4000244140625</ele>
        <time>2020-08-22T11:53:18.000Z</time>
      </trkpt>
      <trkpt lat="40.08907738141715526580810546875" lon="-1.030661277472972869873046875">
        <ele>1944.800048828125</ele>
        <time>2020-08-22T11:53:20.000Z</time>
      </trkpt>
      <trkpt lat="40.089005716145038604736328125" lon="-1.03061526082456111907958984375">
        <ele>1944.199951171875</ele>
        <time>2020-08-22T11:53:21.000Z</time>
      </trkpt>
      <trkpt lat="40.08893237449228763580322265625" lon="-1.0305900312960147857666015625">
        <ele>1943.5999755859375</ele>
        <time>2020-08-22T11:53:22.000Z</time>
      </trkpt>
      <trkpt lat="40.08885827846825122833251953125" lon="-1.03058760054409503936767578125">
        <ele>1942</ele>
        <time>2020-08-22T11:53:23.000Z</time>
      </trkpt>
      <trkpt lat="40.08878585882484912872314453125" lon="-1.03060335852205753326416015625">
        <ele>1940.800048828125</ele>
        <time>2020-08-22T11:53:24.000Z</time>
      </trkpt>
      <trkpt lat="40.08864806033670902252197265625" lon="-1.03065557777881622314453125">
        <ele>1939.5999755859375</ele>
        <time>2020-08-22T11:53:26.000Z</time>
      </trkpt>
      <trkpt lat="40.08821052499115467071533203125" lon="-1.0308605991303920745849609375">
        <ele>1938.4000244140625</ele>
        <time>2020-08-22T11:53:33.000Z</time>
      </trkpt>
      <trkpt lat="40.087983123958110809326171875" lon="-1.03099009953439235687255859375">
        <ele>1937.199951171875</ele>
        <time>2020-08-22T11:53:37.000Z</time>
      </trkpt>
      <trkpt lat="40.0877241231501102447509765625" lon="-1.031156145036220550537109375">
        <ele>1936.4000244140625</ele>
        <time>2020-08-22T11:53:42.000Z</time>
      </trkpt>
      <trkpt lat="40.08762647397816181182861328125" lon="-1.03121138177812099456787109375">
        <ele>1936.199951171875</ele>
        <time>2020-08-22T11:53:44.000Z</time>
      </trkpt>
      <trkpt lat="40.08758104406297206878662109375" lon="-1.03124490939080715179443359375">
        <ele>1936.199951171875</ele>
        <time>2020-08-22T11:53:45.000Z</time>
      </trkpt>
      <trkpt lat="40.087209641933441162109375" lon="-1.031634919345378875732421875">
        <ele>1937.199951171875</ele>
        <time>2020-08-22T11:53:55.000Z</time>
      </trkpt>
      <trkpt lat="40.08705340325832366943359375" lon="-1.03186667896807193756103515625">
        <ele>1938.199951171875</ele>
        <time>2020-08-22T11:54:00.000Z</time>
      </trkpt>
      <trkpt lat="40.0868172012269496917724609375" lon="-1.0325084812939167022705078125">
        <ele>1938.199951171875</ele>
        <time>2020-08-22T11:54:12.000Z</time>
      </trkpt>
      <trkpt lat="40.08676900528371334075927734375" lon="-1.03283009491860866546630859375">
        <ele>1937.199951171875</ele>
        <time>2020-08-22T11:54:17.000Z</time>
      </trkpt>
      <trkpt lat="40.08676347322762012481689453125" lon="-1.03288927115499973297119140625">
        <ele>1935.5999755859375</ele>
        <time>2020-08-22T11:54:18.000Z</time>
      </trkpt>
      <trkpt lat="40.086746625602245330810546875" lon="-1.0330016724765300750732421875">
        <ele>1933.800048828125</ele>
        <time>2020-08-22T11:54:20.000Z</time>
      </trkpt>
      <trkpt lat="40.08672893978655338287353515625" lon="-1.0330997407436370849609375">
        <ele>1932.5999755859375</ele>
        <time>2020-08-22T11:54:22.000Z</time>
      </trkpt>
      <trkpt lat="40.08669524453580379486083984375" lon="-1.03324432857334613800048828125">
        <ele>1931.199951171875</ele>
        <time>2020-08-22T11:54:25.000Z</time>
      </trkpt>
      <trkpt lat="40.08659608662128448486328125" lon="-1.03346711955964565277099609375">
        <ele>1930</ele>
        <time>2020-08-22T11:54:30.000Z</time>
      </trkpt>
      <trkpt lat="40.086502544581890106201171875" lon="-1.03360072709619998931884765625">
        <ele>1928.5999755859375</ele>
        <time>2020-08-22T11:54:35.000Z</time>
      </trkpt>
      <trkpt lat="40.08644043467938899993896484375" lon="-1.03367440402507781982421875">
        <ele>1927.5999755859375</ele>
        <time>2020-08-22T11:54:38.000Z</time>
      </trkpt>
      <trkpt lat="40.08613700978457927703857421875" lon="-1.03400942869484424591064453125">
        <ele>1926.4000244140625</ele>
        <time>2020-08-22T11:54:49.000Z</time>
      </trkpt>
      <trkpt lat="40.08598915301263332366943359375" lon="-1.034170277416706085205078125">
        <ele>1925</ele>
        <time>2020-08-22T11:54:53.000Z</time>
      </trkpt>
      <trkpt lat="40.08589024655520915985107421875" lon="-1.03424713946878910064697265625">
        <ele>1924</ele>
        <time>2020-08-22T11:54:55.000Z</time>
      </trkpt>
      <trkpt lat="40.08577340282499790191650390625" lon="-1.03431100957095623016357421875">
        <ele>1922.800048828125</ele>
        <time>2020-08-22T11:54:57.000Z</time>
      </trkpt>
      <trkpt lat="40.0856470875442028045654296875" lon="-1.03434587828814983367919921875">
        <ele>1921.800048828125</ele>
        <time>2020-08-22T11:54:59.000Z</time>
      </trkpt>
      <trkpt lat="40.0855853967368602752685546875" lon="-1.03435610421001911163330078125">
        <ele>1921.4000244140625</ele>
        <time>2020-08-22T11:55:00.000Z</time>
      </trkpt>
      <trkpt lat="40.08546444587409496307373046875" lon="-1.03435912169516086578369140625">
        <ele>1920.800048828125</ele>
        <time>2020-08-22T11:55:02.000Z</time>
      </trkpt>
      <trkpt lat="40.085407197475433349609375" lon="-1.03435032069683074951171875">
        <ele>1920.4000244140625</ele>
        <time>2020-08-22T11:55:03.000Z</time>
      </trkpt>
      <trkpt lat="40.08484871126711368560791015625" lon="-1.03415762074291706085205078125">
        <ele>1920</ele>
        <time>2020-08-22T11:55:15.000Z</time>
      </trkpt>
      <trkpt lat="40.0843103416264057159423828125" lon="-1.033986546099185943603515625">
        <ele>1920.800048828125</ele>
        <time>2020-08-22T11:55:29.000Z</time>
      </trkpt>
      <trkpt lat="40.0840813480317592620849609375" lon="-1.03370348922908306121826171875">
        <ele>1921.5999755859375</ele>
        <time>2020-08-22T11:55:38.000Z</time>
      </trkpt>
      <trkpt lat="40.0839834474027156829833984375" lon="-1.0335159860551357269287109375">
        <ele>1922.5999755859375</ele>
        <time>2020-08-22T11:55:44.000Z</time>
      </trkpt>
      <trkpt lat="40.08389820344746112823486328125" lon="-1.03340886533260345458984375">
        <ele>1923.800048828125</ele>
        <time>2020-08-22T11:55:49.000Z</time>
      </trkpt>
      <trkpt lat="40.0838003866374492645263671875" lon="-1.03332228027284145355224609375">
        <ele>1924.800048828125</ele>
        <time>2020-08-22T11:55:54.000Z</time>
      </trkpt>
      <trkpt lat="40.08364808745682239532470703125" lon="-1.0331827215850353240966796875">
        <ele>1926</ele>
        <time>2020-08-22T11:56:02.000Z</time>
      </trkpt>
      <trkpt lat="40.083550103008747100830078125" lon="-1.03308909572660923004150390625">
        <ele>1927</ele>
        <time>2020-08-22T11:56:07.000Z</time>
      </trkpt>
      <trkpt lat="40.08305691182613372802734375" lon="-1.03270880877971649169921875">
        <ele>1927.199951171875</ele>
        <time>2020-08-22T11:56:26.000Z</time>
      </trkpt>
      <trkpt lat="40.08254201151430606842041015625" lon="-1.0324625484645366668701171875">
        <ele>1927.199951171875</ele>
        <time>2020-08-22T11:56:39.000Z</time>
      </trkpt>
      <trkpt lat="40.0822678394615650177001953125" lon="-1.03228577412664890289306640625">
        <ele>1925.800048828125</ele>
        <time>2020-08-22T11:56:45.000Z</time>
      </trkpt>
      <trkpt lat="40.08213330991566181182861328125" lon="-1.03221704252064228057861328125">
        <ele>1925.5999755859375</ele>
        <time>2020-08-22T11:56:48.000Z</time>
      </trkpt>
      <trkpt lat="40.0815775059163570404052734375" lon="-1.032049655914306640625">
        <ele>1925.5999755859375</ele>
        <time>2020-08-22T11:57:00.000Z</time>
      </trkpt>
      <trkpt lat="40.08103913627564907073974609375" lon="-1.03210489265620708465576171875">
        <ele>1926</ele>
        <time>2020-08-22T11:57:14.000Z</time>
      </trkpt>
      <trkpt lat="40.0804721005260944366455078125" lon="-1.0322012007236480712890625">
        <ele>1926.800048828125</ele>
        <time>2020-08-22T11:57:30.000Z</time>
      </trkpt>
      <trkpt lat="40.0804405845701694488525390625" lon="-1.03220229037106037139892578125">
        <ele>1927</ele>
        <time>2020-08-22T11:57:31.000Z</time>
      </trkpt>
      <trkpt lat="40.080104134976863861083984375" lon="-1.03219114243984222412109375">
        <ele>1928.199951171875</ele>
        <time>2020-08-22T11:57:42.000Z</time>
      </trkpt>
      <trkpt lat="40.07984253577888011932373046875" lon="-1.0321380011737346649169921875">
        <ele>1929.199951171875</ele>
        <time>2020-08-22T11:57:51.000Z</time>
      </trkpt>
      <trkpt lat="40.07947339676320552825927734375" lon="-1.0320652462542057037353515625">
        <ele>1930.199951171875</ele>
        <time>2020-08-22T11:58:04.000Z</time>
      </trkpt>
      <trkpt lat="40.078923292458057403564453125" lon="-1.03204085491597652435302734375">
        <ele>1931.199951171875</ele>
        <time>2020-08-22T11:58:22.000Z</time>
      </trkpt>
      <trkpt lat="40.078833438456058502197265625" lon="-1.03206097148358821868896484375">
        <ele>1931.4000244140625</ele>
        <time>2020-08-22T11:58:25.000Z</time>
      </trkpt>
      <trkpt lat="40.07829724811017513275146484375" lon="-1.0322794876992702484130859375">
        <ele>1931.800048828125</ele>
        <time>2020-08-22T11:58:42.000Z</time>
      </trkpt>
      <trkpt lat="40.077901370823383331298828125" lon="-1.0326070524752140045166015625">
        <ele>1932.4000244140625</ele>
        <time>2020-08-22T11:58:56.000Z</time>
      </trkpt>
      <trkpt lat="40.077470205724239349365234375" lon="-1.03309127502143383026123046875">
        <ele>1932.5999755859375</ele>
        <time>2020-08-22T11:59:14.000Z</time>
      </trkpt>
      <trkpt lat="40.07727138698101043701171875" lon="-1.03321784175932407379150390625">
        <ele>1933.4000244140625</ele>
        <time>2020-08-22T11:59:22.000Z</time>
      </trkpt>
      <trkpt lat="40.0770190916955471038818359375" lon="-1.033269055187702178955078125">
        <ele>1934.5999755859375</ele>
        <time>2020-08-22T11:59:33.000Z</time>
      </trkpt>
      <trkpt lat="40.07699319161474704742431640625" lon="-1.0332856513559818267822265625">
        <ele>1935</ele>
        <time>2020-08-22T11:59:35.000Z</time>
      </trkpt>
      <trkpt lat="40.07698916830122470855712890625" lon="-1.0333315841853618621826171875">
        <ele>1935.199951171875</ele>
        <time>2020-08-22T11:59:38.000Z</time>
      </trkpt>
      <trkpt lat="40.07704432122409343719482421875" lon="-1.03338765911757946014404296875">
        <ele>1935.800048828125</ele>
        <time>2020-08-22T11:59:43.000Z</time>
      </trkpt>
      <trkpt lat="40.07708706893026828765869140625" lon="-1.03341246955096721649169921875">
        <ele>1937.199951171875</ele>
        <time>2020-08-22T11:59:46.000Z</time>
      </trkpt>
      <trkpt lat="40.07713618688285350799560546875" lon="-1.0334376990795135498046875">
        <ele>1938.199951171875</ele>
        <time>2020-08-22T11:59:49.000Z</time>
      </trkpt>
      <trkpt lat="40.0772269628942012786865234375" lon="-1.03345840238034725189208984375">
        <ele>1939.4000244140625</ele>
        <time>2020-08-22T11:59:54.000Z</time>
      </trkpt>
      <trkpt lat="40.07745645940303802490234375" lon="-1.03340023197233676910400390625">
        <ele>1940.4000244140625</ele>
        <time>2020-08-22T12:00:06.000Z</time>
      </trkpt>
      <trkpt lat="40.07765184156596660614013671875" lon="-1.0333711467683315277099609375">
        <ele>1941.4000244140625</ele>
        <time>2020-08-22T12:00:16.000Z</time>
      </trkpt>
      <trkpt lat="40.07785166613757610321044921875" lon="-1.0333518683910369873046875">
        <ele>1942.5999755859375</ele>
        <time>2020-08-22T12:00:26.000Z</time>
      </trkpt>
      <trkpt lat="40.0780351459980010986328125" lon="-1.03332999162375926971435546875">
        <ele>1943.5999755859375</ele>
        <time>2020-08-22T12:00:35.000Z</time>
      </trkpt>
      <trkpt lat="40.078202784061431884765625" lon="-1.03329445235431194305419921875">
        <ele>1944.800048828125</ele>
        <time>2020-08-22T12:00:43.000Z</time>
      </trkpt>
      <trkpt lat="40.0784052908420562744140625" lon="-1.03325438685715198516845703125">
        <ele>1945.800048828125</ele>
        <time>2020-08-22T12:00:53.000Z</time>
      </trkpt>
      <trkpt lat="40.07858189754188060760498046875" lon="-1.03321113623678684234619140625">
        <ele>1947</ele>
        <time>2020-08-22T12:01:02.000Z</time>
      </trkpt>
      <trkpt lat="40.0787336938083171844482421875" lon="-1.033206693828105926513671875">
        <ele>1948.199951171875</ele>
        <time>2020-08-22T12:01:10.000Z</time>
      </trkpt>
      <trkpt lat="40.0788560695946216583251953125" lon="-1.03328003548085689544677734375">
        <ele>1949.199951171875</ele>
        <time>2020-08-22T12:01:17.000Z</time>
      </trkpt>
      <trkpt lat="40.07892102934420108795166015625" lon="-1.0334056802093982696533203125">
        <ele>1950.5999755859375</ele>
        <time>2020-08-22T12:01:23.000Z</time>
      </trkpt>
      <trkpt lat="40.07892119698226451873779296875" lon="-1.03406734764575958251953125">
        <ele>1951.800048828125</ele>
        <time>2020-08-22T12:01:49.000Z</time>
      </trkpt>
      <trkpt lat="40.07892522029578685760498046875" lon="-1.03415787220001220703125">
        <ele>1953</ele>
        <time>2020-08-22T12:01:52.000Z</time>
      </trkpt>
      <trkpt lat="40.07892605848610401153564453125" lon="-1.0342197306454181671142578125">
        <ele>1954</ele>
        <time>2020-08-22T12:01:54.000Z</time>
      </trkpt>
      <trkpt lat="40.07898867130279541015625" lon="-1.03492875583469867706298828125">
        <ele>1953.4000244140625</ele>
        <time>2020-08-22T12:02:12.000Z</time>
      </trkpt>
      <trkpt lat="40.07909604348242282867431640625" lon="-1.0356600768864154815673828125">
        <ele>1953.199951171875</ele>
        <time>2020-08-22T12:02:29.000Z</time>
      </trkpt>
      <trkpt lat="40.07944875396788120269775390625" lon="-1.036194004118442535400390625">
        <ele>1953.199951171875</ele>
        <time>2020-08-22T12:02:44.000Z</time>
      </trkpt>
      <trkpt lat="40.07960264571011066436767578125" lon="-1.0363551042973995208740234375">
        <ele>1952.5999755859375</ele>
        <time>2020-08-22T12:02:49.000Z</time>
      </trkpt>
      <trkpt lat="40.07985678501427173614501953125" lon="-1.0365448705852031707763671875">
        <ele>1951.5999755859375</ele>
        <time>2020-08-22T12:02:56.000Z</time>
      </trkpt>
      <trkpt lat="40.080047138035297393798828125" lon="-1.03659692220389842987060546875">
        <ele>1950.800048828125</ele>
        <time>2020-08-22T12:03:01.000Z</time>
      </trkpt>
      <trkpt lat="40.08011628873646259307861328125" lon="-1.03668074123561382293701171875">
        <ele>1950.5999755859375</ele>
        <time>2020-08-22T12:03:03.000Z</time>
      </trkpt>
      <trkpt lat="40.08012316189706325531005859375" lon="-1.03679590858519077301025390625">
        <ele>1950.4000244140625</ele>
        <time>2020-08-22T12:03:05.000Z</time>
      </trkpt>
      <trkpt lat="40.08008795790374279022216796875" lon="-1.03689305484294891357421875">
        <ele>1950</ele>
        <time>2020-08-22T12:03:07.000Z</time>
      </trkpt>
      <trkpt lat="40.080028362572193145751953125" lon="-1.03697888553142547607421875">
        <ele>1949.800048828125</ele>
        <time>2020-08-22T12:03:09.000Z</time>
      </trkpt>
      <trkpt lat="40.07999248802661895751953125" lon="-1.03701618500053882598876953125">
        <ele>1949</ele>
        <time>2020-08-22T12:03:10.000Z</time>
      </trkpt>
      <trkpt lat="40.07995418272912502288818359375" lon="-1.03704887442290782928466796875">
        <ele>1948.199951171875</ele>
        <time>2020-08-22T12:03:11.000Z</time>
      </trkpt>
      <trkpt lat="40.0799167156219482421875" lon="-1.03708005510270595550537109375">
        <ele>1947.5999755859375</ele>
        <time>2020-08-22T12:03:12.000Z</time>
      </trkpt>
      <trkpt lat="40.07988142780959606170654296875" lon="-1.0371155105531215667724609375">
        <ele>1947.199951171875</ele>
        <time>2020-08-22T12:03:13.000Z</time>
      </trkpt>
      <trkpt lat="40.07977330125868320465087890625" lon="-1.03722472675144672393798828125">
        <ele>1946.5999755859375</ele>
        <time>2020-08-22T12:03:16.000Z</time>
      </trkpt>
      <trkpt lat="40.0796090997755527496337890625" lon="-1.0373569093644618988037109375">
        <ele>1945.4000244140625</ele>
        <time>2020-08-22T12:03:20.000Z</time>
      </trkpt>
      <trkpt lat="40.0794565491378307342529296875" lon="-1.0374766029417514801025390625">
        <ele>1944</ele>
        <time>2020-08-22T12:03:24.000Z</time>
      </trkpt>
      <trkpt lat="40.07925228215754032135009765625" lon="-1.037619598209857940673828125">
        <ele>1942.5999755859375</ele>
        <time>2020-08-22T12:03:29.000Z</time>
      </trkpt>
      <trkpt lat="40.07896863855421543121337890625" lon="-1.03778094984591007232666015625">
        <ele>1941.199951171875</ele>
        <time>2020-08-22T12:03:35.000Z</time>
      </trkpt>
      <trkpt lat="40.0787682272493839263916015625" lon="-1.037876419723033905029296875">
        <ele>1940.199951171875</ele>
        <time>2020-08-22T12:03:39.000Z</time>
      </trkpt>
      <trkpt lat="40.07863721810281276702880859375" lon="-1.03792662732303142547607421875">
        <ele>1938.800048828125</ele>
        <time>2020-08-22T12:03:42.000Z</time>
      </trkpt>
      <trkpt lat="40.078518278896808624267578125" lon="-1.03797398507595062255859375">
        <ele>1937.800048828125</ele>
        <time>2020-08-22T12:03:45.000Z</time>
      </trkpt>
      <trkpt lat="40.07840436883270740509033203125" lon="-1.03799854405224323272705078125">
        <ele>1936.800048828125</ele>
        <time>2020-08-22T12:03:48.000Z</time>
      </trkpt>
      <trkpt lat="40.07822583429515361785888671875" lon="-1.03802419267594814300537109375">
        <ele>1935.4000244140625</ele>
        <time>2020-08-22T12:03:53.000Z</time>
      </trkpt>
      <trkpt lat="40.0780396722257137298583984375" lon="-1.038091666996479034423828125">
        <ele>1934</ele>
        <time>2020-08-22T12:03:58.000Z</time>
      </trkpt>
      <trkpt lat="40.07790438830852508544921875" lon="-1.0381511785089969635009765625">
        <ele>1932.800048828125</ele>
        <time>2020-08-22T12:04:02.000Z</time>
      </trkpt>
      <trkpt lat="40.07783473469316959381103515625" lon="-1.03819258511066436767578125">
        <ele>1931.800048828125</ele>
        <time>2020-08-22T12:04:04.000Z</time>
      </trkpt>
      <trkpt lat="40.07776181213557720184326171875" lon="-1.0382490791380405426025390625">
        <ele>1930.800048828125</ele>
        <time>2020-08-22T12:04:06.000Z</time>
      </trkpt>
      <trkpt lat="40.077687799930572509765625" lon="-1.0383121110498905181884765625">
        <ele>1929.5999755859375</ele>
        <time>2020-08-22T12:04:08.000Z</time>
      </trkpt>
      <trkpt lat="40.07758310995995998382568359375" lon="-1.038406826555728912353515625">
        <ele>1928.5999755859375</ele>
        <time>2020-08-22T12:04:11.000Z</time>
      </trkpt>
      <trkpt lat="40.0775501690804958343505859375" lon="-1.03844412602484226226806640625">
        <ele>1927.199951171875</ele>
        <time>2020-08-22T12:04:12.000Z</time>
      </trkpt>
      <trkpt lat="40.07749057374894618988037109375" lon="-1.03853230364620685577392578125">
        <ele>1925.800048828125</ele>
        <time>2020-08-22T12:04:14.000Z</time>
      </trkpt>
      <trkpt lat="40.07746660150587558746337890625" lon="-1.038579158484935760498046875">
        <ele>1925</ele>
        <time>2020-08-22T12:04:15.000Z</time>
      </trkpt>
      <trkpt lat="40.077450089156627655029296875" lon="-1.03862718679010868072509765625">
        <ele>1924.4000244140625</ele>
        <time>2020-08-22T12:04:16.000Z</time>
      </trkpt>
      <trkpt lat="40.07741488516330718994140625" lon="-1.03882114402949810028076171875">
        <ele>1923</ele>
        <time>2020-08-22T12:04:20.000Z</time>
      </trkpt>
      <trkpt lat="40.0774093531072139739990234375" lon="-1.0389410890638828277587890625">
        <ele>1922.199951171875</ele>
        <time>2020-08-22T12:04:22.000Z</time>
      </trkpt>
      <trkpt lat="40.0773967802524566650390625" lon="-1.039005629718303680419921875">
        <ele>1921.800048828125</ele>
        <time>2020-08-22T12:04:23.000Z</time>
      </trkpt>
      <trkpt lat="40.0773775018751621246337890625" lon="-1.03906430304050445556640625">
        <ele>1921.5999755859375</ele>
        <time>2020-08-22T12:04:24.000Z</time>
      </trkpt>
      <trkpt lat="40.07731354795396327972412109375" lon="-1.03913797996938228607177734375">
        <ele>1921.199951171875</ele>
        <time>2020-08-22T12:04:26.000Z</time>
      </trkpt>
      <trkpt lat="40.077228806912899017333984375" lon="-1.0391881875693798065185546875">
        <ele>1920.800048828125</ele>
        <time>2020-08-22T12:04:28.000Z</time>
      </trkpt>
      <trkpt lat="40.077149011194705963134765625" lon="-1.03924526832997798919677734375">
        <ele>1920</ele>
        <time>2020-08-22T12:04:30.000Z</time>
      </trkpt>
      <trkpt lat="40.07711590267717838287353515625" lon="-1.03927846066653728485107421875">
        <ele>1919.5999755859375</ele>
        <time>2020-08-22T12:04:31.000Z</time>
      </trkpt>
      <trkpt lat="40.07702269591391086578369140625" lon="-1.03938625194132328033447265625">
        <ele>1918.199951171875</ele>
        <time>2020-08-22T12:04:34.000Z</time>
      </trkpt>
      <trkpt lat="40.07679068483412265777587890625" lon="-1.0396371223032474517822265625">
        <ele>1917.199951171875</ele>
        <time>2020-08-22T12:04:41.000Z</time>
      </trkpt>
      <trkpt lat="40.076715163886547088623046875" lon="-1.0396870784461498260498046875">
        <ele>1917.199951171875</ele>
        <time>2020-08-22T12:04:43.000Z</time>
      </trkpt>
      <trkpt lat="40.0763911195099353790283203125" lon="-1.03973527438938617706298828125">
        <ele>1916</ele>
        <time>2020-08-22T12:04:51.000Z</time>
      </trkpt>
      <trkpt lat="40.0761037878692150115966796875" lon="-1.03981926105916500091552734375">
        <ele>1915.199951171875</ele>
        <time>2020-08-22T12:04:58.000Z</time>
      </trkpt>
      <trkpt lat="40.075772367417812347412109375" lon="-1.040091924369335174560546875">
        <ele>1915</ele>
        <time>2020-08-22T12:05:07.000Z</time>
      </trkpt>
      <trkpt lat="40.0753759033977985382080078125" lon="-1.04052300564944744110107421875">
        <ele>1913.800048828125</ele>
        <time>2020-08-22T12:05:17.000Z</time>
      </trkpt>
      <trkpt lat="40.07518940605223178863525390625" lon="-1.0407177172601222991943359375">
        <ele>1912.800048828125</ele>
        <time>2020-08-22T12:05:22.000Z</time>
      </trkpt>
      <trkpt lat="40.07479059509932994842529296875" lon="-1.04121769778430461883544921875">
        <ele>1912.800048828125</ele>
        <time>2020-08-22T12:05:34.000Z</time>
      </trkpt>
      <trkpt lat="40.07435850799083709716796875" lon="-1.04174542240798473358154296875">
        <ele>1913</ele>
        <time>2020-08-22T12:05:46.000Z</time>
      </trkpt>
      <trkpt lat="40.07418818771839141845703125" lon="-1.04191574268043041229248046875">
        <ele>1911.5999755859375</ele>
        <time>2020-08-22T12:05:50.000Z</time>
      </trkpt>
      <trkpt lat="40.0739814899861812591552734375" lon="-1.04215613566339015960693359375">
        <ele>1910.199951171875</ele>
        <time>2020-08-22T12:05:55.000Z</time>
      </trkpt>
      <trkpt lat="40.07385333068668842315673828125" lon="-1.0423039086163043975830078125">
        <ele>1909.199951171875</ele>
        <time>2020-08-22T12:05:58.000Z</time>
      </trkpt>
      <trkpt lat="40.0735821761190891265869140625" lon="-1.04259970597922801971435546875">
        <ele>1908.199951171875</ele>
        <time>2020-08-22T12:06:04.000Z</time>
      </trkpt>
      <trkpt lat="40.07322871126234531402587890625" lon="-1.04296415112912654876708984375">
        <ele>1907</ele>
        <time>2020-08-22T12:06:12.000Z</time>
      </trkpt>
      <trkpt lat="40.072854124009609222412109375" lon="-1.0432141833007335662841796875">
        <ele>1906</ele>
        <time>2020-08-22T12:06:20.000Z</time>
      </trkpt>
      <trkpt lat="40.07271238602697849273681640625" lon="-1.04328836314380168914794921875">
        <ele>1904.800048828125</ele>
        <time>2020-08-22T12:06:23.000Z</time>
      </trkpt>
      <trkpt lat="40.07258095778524875640869140625" lon="-1.04336522519588470458984375">
        <ele>1903.5999755859375</ele>
        <time>2020-08-22T12:06:26.000Z</time>
      </trkpt>
      <trkpt lat="40.07249982096254825592041015625" lon="-1.0434155166149139404296875">
        <ele>1902.4000244140625</ele>
        <time>2020-08-22T12:06:28.000Z</time>
      </trkpt>
      <trkpt lat="40.07238934747874736785888671875" lon="-1.04349908418953418731689453125">
        <ele>1901</ele>
        <time>2020-08-22T12:06:31.000Z</time>
      </trkpt>
      <trkpt lat="40.07231575436890125274658203125" lon="-1.04355876334011554718017578125">
        <ele>1900.199951171875</ele>
        <time>2020-08-22T12:06:33.000Z</time>
      </trkpt>
      <trkpt lat="40.07228306494653224945068359375" lon="-1.04359430260956287384033203125">
        <ele>1899.800048828125</ele>
        <time>2020-08-22T12:06:34.000Z</time>
      </trkpt>
      <trkpt lat="40.07218650542199611663818359375" lon="-1.04370611719787120819091796875">
        <ele>1898.4000244140625</ele>
        <time>2020-08-22T12:06:37.000Z</time>
      </trkpt>
      <trkpt lat="40.07205541245639324188232421875" lon="-1.04389739222824573516845703125">
        <ele>1897.199951171875</ele>
        <time>2020-08-22T12:06:41.000Z</time>
      </trkpt>
      <trkpt lat="40.07199187763035297393798828125" lon="-1.0440047644078731536865234375">
        <ele>1896.4000244140625</ele>
        <time>2020-08-22T12:06:43.000Z</time>
      </trkpt>
      <trkpt lat="40.0719661451876163482666015625" lon="-1.0440644435584545135498046875">
        <ele>1895.5999755859375</ele>
        <time>2020-08-22T12:06:44.000Z</time>
      </trkpt>
      <trkpt lat="40.07192230783402919769287109375" lon="-1.04419997893273830413818359375">
        <ele>1894.199951171875</ele>
        <time>2020-08-22T12:06:46.000Z</time>
      </trkpt>
      <trkpt lat="40.07188760675489902496337890625" lon="-1.04434666223824024200439453125">
        <ele>1893.4000244140625</ele>
        <time>2020-08-22T12:06:48.000Z</time>
      </trkpt>
      <trkpt lat="40.07187939248979091644287109375" lon="-1.04441958479583263397216796875">
        <ele>1892.199951171875</ele>
        <time>2020-08-22T12:06:49.000Z</time>
      </trkpt>
      <trkpt lat="40.07187520153820514678955078125" lon="-1.0445549525320529937744140625">
        <ele>1890.199951171875</ele>
        <time>2020-08-22T12:06:51.000Z</time>
      </trkpt>
      <trkpt lat="40.071877799928188323974609375" lon="-1.04468780569732189178466796875">
        <ele>1888.5999755859375</ele>
        <time>2020-08-22T12:06:53.000Z</time>
      </trkpt>
      <trkpt lat="40.0718719325959682464599609375" lon="-1.044756956398487091064453125">
        <ele>1888</ele>
        <time>2020-08-22T12:06:54.000Z</time>
      </trkpt>
      <trkpt lat="40.07186003029346466064453125" lon="-1.04482610709965229034423828125">
        <ele>1887.199951171875</ele>
        <time>2020-08-22T12:06:55.000Z</time>
      </trkpt>
      <trkpt lat="40.07183094508945941925048828125" lon="-1.0449631512165069580078125">
        <ele>1886</ele>
        <time>2020-08-22T12:06:57.000Z</time>
      </trkpt>
      <trkpt lat="40.0717587769031524658203125" lon="-1.04505945928394794464111328125">
        <ele>1885.199951171875</ele>
        <time>2020-08-22T12:06:59.000Z</time>
      </trkpt>
      <trkpt lat="40.07167420350015163421630859375" lon="-1.04510128498077392578125">
        <ele>1884.800048828125</ele>
        <time>2020-08-22T12:07:01.000Z</time>
      </trkpt>
      <trkpt lat="40.071580074727535247802734375" lon="-1.045135147869586944580078125">
        <ele>1883.199951171875</ele>
        <time>2020-08-22T12:07:03.000Z</time>
      </trkpt>
      <trkpt lat="40.07153011858463287353515625" lon="-1.04515249840915203094482421875">
        <ele>1882.800048828125</ele>
        <time>2020-08-22T12:07:04.000Z</time>
      </trkpt>
      <trkpt lat="40.0713341496884822845458984375" lon="-1.045216619968414306640625">
        <ele>1882.199951171875</ele>
        <time>2020-08-22T12:07:08.000Z</time>
      </trkpt>
      <trkpt lat="40.0708778388798236846923828125" lon="-1.04541300795972347259521484375">
        <ele>1881.199951171875</ele>
        <time>2020-08-22T12:07:18.000Z</time>
      </trkpt>
      <trkpt lat="40.07065630517899990081787109375" lon="-1.04557561688125133514404296875">
        <ele>1880</ele>
        <time>2020-08-22T12:07:24.000Z</time>
      </trkpt>
      <trkpt lat="40.0703873299062252044677734375" lon="-1.04585037566721439361572265625">
        <ele>1879.5999755859375</ele>
        <time>2020-08-22T12:07:54.000Z</time>
      </trkpt>
      <trkpt lat="40.07029227912425994873046875" lon="-1.04594416916370391845703125">
        <ele>1879</ele>
        <time>2020-08-22T12:07:57.000Z</time>
      </trkpt>
      <trkpt lat="40.070114247500896453857421875" lon="-1.0461337678134441375732421875">
        <ele>1877.5999755859375</ele>
        <time>2020-08-22T12:08:02.000Z</time>
      </trkpt>
      <trkpt lat="40.06994493305683135986328125" lon="-1.04635530151426792144775390625">
        <ele>1876.4000244140625</ele>
        <time>2020-08-22T12:08:07.000Z</time>
      </trkpt>
      <trkpt lat="40.06982984952628612518310546875" lon="-1.04654967784881591796875">
        <ele>1875.4000244140625</ele>
        <time>2020-08-22T12:08:11.000Z</time>
      </trkpt>
      <trkpt lat="40.06977670826017856597900390625" lon="-1.04664498008787631988525390625">
        <ele>1874.199951171875</ele>
        <time>2020-08-22T12:08:13.000Z</time>
      </trkpt>
      <trkpt lat="40.069692134857177734375" lon="-1.04678906500339508056640625">
        <ele>1872.800048828125</ele>
        <time>2020-08-22T12:08:16.000Z</time>
      </trkpt>
      <trkpt lat="40.0695893727242946624755859375" lon="-1.04693046770989894866943359375">
        <ele>1871.800048828125</ele>
        <time>2020-08-22T12:08:19.000Z</time>
      </trkpt>
      <trkpt lat="40.06942969746887683868408203125" lon="-1.04710045270621776580810546875">
        <ele>1871.4000244140625</ele>
        <time>2020-08-22T12:08:23.000Z</time>
      </trkpt>
      <trkpt lat="40.069277398288249969482421875" lon="-1.04727923870086669921875">
        <ele>1870.5999755859375</ele>
        <time>2020-08-22T12:08:27.000Z</time>
      </trkpt>
      <trkpt lat="40.069129876792430877685546875" lon="-1.0474524088203907012939453125">
        <ele>1869.4000244140625</ele>
        <time>2020-08-22T12:08:31.000Z</time>
      </trkpt>
      <trkpt lat="40.06905871443450450897216796875" lon="-1.04754117317497730255126953125">
        <ele>1868.4000244140625</ele>
        <time>2020-08-22T12:08:33.000Z</time>
      </trkpt>
      <trkpt lat="40.06891806609928607940673828125" lon="-1.04770411737263202667236328125">
        <ele>1867</ele>
        <time>2020-08-22T12:08:37.000Z</time>
      </trkpt>
      <trkpt lat="40.06881061010062694549560546875" lon="-1.0478373058140277862548828125">
        <ele>1865.199951171875</ele>
        <time>2020-08-22T12:08:40.000Z</time>
      </trkpt>
      <trkpt lat="40.06865018047392368316650390625" lon="-1.0480351187288761138916015625">
        <ele>1864</ele>
        <time>2020-08-22T12:08:44.000Z</time>
      </trkpt>
      <trkpt lat="40.06860022433102130889892578125" lon="-1.04808214120566844940185546875">
        <ele>1863.800048828125</ele>
        <time>2020-08-22T12:08:45.000Z</time>
      </trkpt>
      <trkpt lat="40.068479441106319427490234375" lon="-1.0481507889926433563232421875">
        <ele>1863.4000244140625</ele>
        <time>2020-08-22T12:08:47.000Z</time>
      </trkpt>
      <trkpt lat="40.06841096095740795135498046875" lon="-1.0481665469706058502197265625">
        <ele>1863</ele>
        <time>2020-08-22T12:08:48.000Z</time>
      </trkpt>
      <trkpt lat="40.0683411397039890289306640625" lon="-1.04816637933254241943359375">
        <ele>1862.800048828125</ele>
        <time>2020-08-22T12:08:49.000Z</time>
      </trkpt>
      <trkpt lat="40.06820979528129100799560546875" lon="-1.04813595302402973175048828125">
        <ele>1861.5999755859375</ele>
        <time>2020-08-22T12:08:51.000Z</time>
      </trkpt>
      <trkpt lat="40.0680276565253734588623046875" lon="-1.0480887629091739654541015625">
        <ele>1860.4000244140625</ele>
        <time>2020-08-22T12:08:54.000Z</time>
      </trkpt>
      <trkpt lat="40.06780947558581829071044921875" lon="-1.04800812900066375732421875">
        <ele>1859.4000244140625</ele>
        <time>2020-08-22T12:08:58.000Z</time>
      </trkpt>
      <trkpt lat="40.0672739557921886444091796875" lon="-1.04782481677830219268798828125">
        <ele>1859.4000244140625</ele>
        <time>2020-08-22T12:09:10.000Z</time>
      </trkpt>
      <trkpt lat="40.06672100163996219635009765625" lon="-1.04761116206645965576171875">
        <ele>1858.5999755859375</ele>
        <time>2020-08-22T12:09:21.000Z</time>
      </trkpt>
      <trkpt lat="40.0666679441928863525390625" lon="-1.047593392431735992431640625">
        <ele>1858.199951171875</ele>
        <time>2020-08-22T12:09:22.000Z</time>
      </trkpt>
      <trkpt lat="40.066567026078701019287109375" lon="-1.04755818843841552734375">
        <ele>1856.800048828125</ele>
        <time>2020-08-22T12:09:24.000Z</time>
      </trkpt>
      <trkpt lat="40.06647859700024127960205078125" lon="-1.04752809740602970123291015625">
        <ele>1855.4000244140625</ele>
        <time>2020-08-22T12:09:26.000Z</time>
      </trkpt>
      <trkpt lat="40.0663326680660247802734375" lon="-1.04747747071087360382080078125">
        <ele>1854.4000244140625</ele>
        <time>2020-08-22T12:09:30.000Z</time>
      </trkpt>
      <trkpt lat="40.06623032502830028533935546875" lon="-1.04749322868883609771728515625">
        <ele>1854</ele>
        <time>2020-08-22T12:09:33.000Z</time>
      </trkpt>
      <trkpt lat="40.066156648099422454833984375" lon="-1.04759012348949909210205078125">
        <ele>1853.199951171875</ele>
        <time>2020-08-22T12:09:36.000Z</time>
      </trkpt>
      <trkpt lat="40.0661085359752178192138671875" lon="-1.04776832275092601776123046875">
        <ele>1851.5999755859375</ele>
        <time>2020-08-22T12:09:40.000Z</time>
      </trkpt>
      <trkpt lat="40.0660724937915802001953125" lon="-1.04785264469683170318603515625">
        <ele>1850.4000244140625</ele>
        <time>2020-08-22T12:09:42.000Z</time>
      </trkpt>
      <trkpt lat="40.066001079976558685302734375" lon="-1.0479429177939891815185546875">
        <ele>1849.199951171875</ele>
        <time>2020-08-22T12:09:45.000Z</time>
      </trkpt>
      <trkpt lat="40.065935365855693817138671875" lon="-1.0479994118213653564453125">
        <ele>1848</ele>
        <time>2020-08-22T12:09:48.000Z</time>
      </trkpt>
      <trkpt lat="40.06589303724467754364013671875" lon="-1.0480394773185253143310546875">
        <ele>1846.5999755859375</ele>
        <time>2020-08-22T12:09:50.000Z</time>
      </trkpt>
      <trkpt lat="40.06585196591913700103759765625" lon="-1.04809706099331378936767578125">
        <ele>1845.5999755859375</ele>
        <time>2020-08-22T12:09:52.000Z</time>
      </trkpt>
      <trkpt lat="40.06581039167940616607666015625" lon="-1.0482161678373813629150390625">
        <ele>1844.5999755859375</ele>
        <time>2020-08-22T12:09:55.000Z</time>
      </trkpt>
      <trkpt lat="40.065782479941844940185546875" lon="-1.04834700934588909149169921875">
        <ele>1843.199951171875</ele>
        <time>2020-08-22T12:09:58.000Z</time>
      </trkpt>
      <trkpt lat="40.06575138308107852935791015625" lon="-1.0484233684837818145751953125">
        <ele>1841.800048828125</ele>
        <time>2020-08-22T12:10:00.000Z</time>
      </trkpt>
      <trkpt lat="40.0657082162797451019287109375" lon="-1.048483550548553466796875">
        <ele>1840.4000244140625</ele>
        <time>2020-08-22T12:10:02.000Z</time>
      </trkpt>
      <trkpt lat="40.06562255322933197021484375" lon="-1.04852437041699886322021484375">
        <ele>1839.199951171875</ele>
        <time>2020-08-22T12:10:05.000Z</time>
      </trkpt>
      <trkpt lat="40.06551836617290973663330078125" lon="-1.04850106872618198394775390625">
        <ele>1838</ele>
        <time>2020-08-22T12:10:08.000Z</time>
      </trkpt>
      <trkpt lat="40.065446197986602783203125" lon="-1.04847089387476444244384765625">
        <ele>1836.800048828125</ele>
        <time>2020-08-22T12:10:10.000Z</time>
      </trkpt>
      <trkpt lat="40.0652944855391979217529296875" lon="-1.04841171763837337493896484375">
        <ele>1835.4000244140625</ele>
        <time>2020-08-22T12:10:14.000Z</time>
      </trkpt>
      <trkpt lat="40.06514570675790309906005859375" lon="-1.0483750887215137481689453125">
        <ele>1834.199951171875</ele>
        <time>2020-08-22T12:10:18.000Z</time>
      </trkpt>
      <trkpt lat="40.065025426447391510009765625" lon="-1.04837332852184772491455078125">
        <ele>1833</ele>
        <time>2020-08-22T12:10:21.000Z</time>
      </trkpt>
      <trkpt lat="40.064953006803989410400390625" lon="-1.0483908466994762420654296875">
        <ele>1831.800048828125</ele>
        <time>2020-08-22T12:10:23.000Z</time>
      </trkpt>
      <trkpt lat="40.06489005871117115020751953125" lon="-1.0484203509986400604248046875">
        <ele>1830.4000244140625</ele>
        <time>2020-08-22T12:10:25.000Z</time>
      </trkpt>
      <trkpt lat="40.0648023001849651336669921875" lon="-1.048489920794963836669921875">
        <ele>1829.4000244140625</ele>
        <time>2020-08-22T12:10:28.000Z</time>
      </trkpt>
      <trkpt lat="40.0647463090717792510986328125" lon="-1.04854331351816654205322265625">
        <ele>1828</ele>
        <time>2020-08-22T12:10:30.000Z</time>
      </trkpt>
      <trkpt lat="40.06466626189649105072021484375" lon="-1.04864456690847873687744140625">
        <ele>1826.800048828125</ele>
        <time>2020-08-22T12:10:33.000Z</time>
      </trkpt>
      <trkpt lat="40.0646026432514190673828125" lon="-1.04874950833618640899658203125">
        <ele>1825.5999755859375</ele>
        <time>2020-08-22T12:10:36.000Z</time>
      </trkpt>
      <trkpt lat="40.06455109454691410064697265625" lon="-1.04891873896121978759765625">
        <ele>1824.199951171875</ele>
        <time>2020-08-22T12:10:40.000Z</time>
      </trkpt>
      <trkpt lat="40.06453718058764934539794921875" lon="-1.04907137341797351837158203125">
        <ele>1823.199951171875</ele>
        <time>2020-08-22T12:10:43.000Z</time>
      </trkpt>
      <trkpt lat="40.0645307265222072601318359375" lon="-1.04912853799760341644287109375">
        <ele>1822.800048828125</ele>
        <time>2020-08-22T12:10:44.000Z</time>
      </trkpt>
      <trkpt lat="40.06450415588915348052978515625" lon="-1.0493118502199649810791015625">
        <ele>1821.4000244140625</ele>
        <time>2020-08-22T12:10:47.000Z</time>
      </trkpt>
      <trkpt lat="40.06448035128414630889892578125" lon="-1.04943430982530117034912109375">
        <ele>1820.199951171875</ele>
        <time>2020-08-22T12:10:49.000Z</time>
      </trkpt>
      <trkpt lat="40.0644631683826446533203125" lon="-1.04949449189007282257080078125">
        <ele>1820</ele>
        <time>2020-08-22T12:10:50.000Z</time>
      </trkpt>
      <trkpt lat="40.06440726108849048614501953125" lon="-1.049603037536144256591796875">
        <ele>1819.4000244140625</ele>
        <time>2020-08-22T12:10:52.000Z</time>
      </trkpt>
      <trkpt lat="40.0643677823245525360107421875" lon="-1.04964972473680973052978515625">
        <ele>1819</ele>
        <time>2020-08-22T12:10:53.000Z</time>
      </trkpt>
      <trkpt lat="40.06432302296161651611328125" lon="-1.0496887005865573883056640625">
        <ele>1818.199951171875</ele>
        <time>2020-08-22T12:10:54.000Z</time>
      </trkpt>
      <trkpt lat="40.06427734158933162689208984375" lon="-1.04971895925700664520263671875">
        <ele>1817.5999755859375</ele>
        <time>2020-08-22T12:10:55.000Z</time>
      </trkpt>
      <trkpt lat="40.0642313249409198760986328125" lon="-1.04974108748137950897216796875">
        <ele>1817</ele>
        <time>2020-08-22T12:10:56.000Z</time>
      </trkpt>
      <trkpt lat="40.06418447010219097137451171875" lon="-1.04975416325032711029052734375">
        <ele>1816</ele>
        <time>2020-08-22T12:10:57.000Z</time>
      </trkpt>
      <trkpt lat="40.06413786672055721282958984375" lon="-1.04975751601159572601318359375">
        <ele>1815.4000244140625</ele>
        <time>2020-08-22T12:10:58.000Z</time>
      </trkpt>
      <trkpt lat="40.06404482759535312652587890625" lon="-1.0497513972222805023193359375">
        <ele>1814.800048828125</ele>
        <time>2020-08-22T12:11:00.000Z</time>
      </trkpt>
      <trkpt lat="40.0638910196721553802490234375" lon="-1.04967135004699230194091796875">
        <ele>1813.4000244140625</ele>
        <time>2020-08-22T12:11:04.000Z</time>
      </trkpt>
      <trkpt lat="40.06355498917400836944580078125" lon="-1.04946398176252841949462890625">
        <ele>1812.199951171875</ele>
        <time>2020-08-22T12:11:14.000Z</time>
      </trkpt>
      <trkpt lat="40.06342523731291294097900390625" lon="-1.04951712302863597869873046875">
        <ele>1811.199951171875</ele>
        <time>2020-08-22T12:11:18.000Z</time>
      </trkpt>
      <trkpt lat="40.06333873607218265533447265625" lon="-1.0495891235768795013427734375">
        <ele>1810</ele>
        <time>2020-08-22T12:11:21.000Z</time>
      </trkpt>
      <trkpt lat="40.06326413713395595550537109375" lon="-1.04966497980058193206787109375">
        <ele>1808.800048828125</ele>
        <time>2020-08-22T12:11:24.000Z</time>
      </trkpt>
      <trkpt lat="40.06319691427052021026611328125" lon="-1.04974351823329925537109375">
        <ele>1807.5999755859375</ele>
        <time>2020-08-22T12:11:27.000Z</time>
      </trkpt>
      <trkpt lat="40.06311871111392974853515625" lon="-1.0498161055147647857666015625">
        <ele>1806</ele>
        <time>2020-08-22T12:11:30.000Z</time>
      </trkpt>
      <trkpt lat="40.06304201669991016387939453125" lon="-1.04989011771976947784423828125">
        <ele>1804.800048828125</ele>
        <time>2020-08-22T12:11:33.000Z</time>
      </trkpt>
      <trkpt lat="40.06291888654232025146484375" lon="-1.049998663365840911865234375">
        <ele>1803.800048828125</ele>
        <time>2020-08-22T12:11:37.000Z</time>
      </trkpt>
      <trkpt lat="40.062843449413776397705078125" lon="-1.05005172081291675567626953125">
        <ele>1802.5999755859375</ele>
        <time>2020-08-22T12:11:39.000Z</time>
      </trkpt>
      <trkpt lat="40.0627143681049346923828125" lon="-1.05010829865932464599609375">
        <ele>1801.800048828125</ele>
        <time>2020-08-22T12:11:42.000Z</time>
      </trkpt>
      <trkpt lat="40.0626675970852375030517578125" lon="-1.05012078769505023956298828125">
        <ele>1800.5999755859375</ele>
        <time>2020-08-22T12:11:43.000Z</time>
      </trkpt>
      <trkpt lat="40.0625723786652088165283203125" lon="-1.05013906024396419525146484375">
        <ele>1799.4000244140625</ele>
        <time>2020-08-22T12:11:45.000Z</time>
      </trkpt>
      <trkpt lat="40.06247498095035552978515625" lon="-1.05014895088970661163330078125">
        <ele>1797.5999755859375</ele>
        <time>2020-08-22T12:11:47.000Z</time>
      </trkpt>
      <trkpt lat="40.062377750873565673828125" lon="-1.0501600988209247589111328125">
        <ele>1796.199951171875</ele>
        <time>2020-08-22T12:11:49.000Z</time>
      </trkpt>
      <trkpt lat="40.06228513084352016448974609375" lon="-1.05017359368503093719482421875">
        <ele>1794.199951171875</ele>
        <time>2020-08-22T12:11:51.000Z</time>
      </trkpt>
      <trkpt lat="40.0621940195560455322265625" lon="-1.05019547045230865478515625">
        <ele>1791.5999755859375</ele>
        <time>2020-08-22T12:11:53.000Z</time>
      </trkpt>
      <trkpt lat="40.06210626102983951568603515625" lon="-1.05022430419921875">
        <ele>1790.4000244140625</ele>
        <time>2020-08-22T12:11:55.000Z</time>
      </trkpt>
      <trkpt lat="40.0620158202946186065673828125" lon="-1.05026126839220523834228515625">
        <ele>1788.800048828125</ele>
        <time>2020-08-22T12:11:57.000Z</time>
      </trkpt>
      <trkpt lat="40.06192789413034915924072265625" lon="-1.0503082908689975738525390625">
        <ele>1787.199951171875</ele>
        <time>2020-08-22T12:11:59.000Z</time>
      </trkpt>
      <trkpt lat="40.06181909702718257904052734375" lon="-1.05038314126431941986083984375">
        <ele>1786.199951171875</ele>
        <time>2020-08-22T12:12:02.000Z</time>
      </trkpt>
      <trkpt lat="40.06171985529363155364990234375" lon="-1.0504482686519622802734375">
        <ele>1785</ele>
        <time>2020-08-22T12:12:05.000Z</time>
      </trkpt>
      <trkpt lat="40.06158138625323772430419921875" lon="-1.05053971521556377410888671875">
        <ele>1783.800048828125</ele>
        <time>2020-08-22T12:12:09.000Z</time>
      </trkpt>
      <trkpt lat="40.06143218837678432464599609375" lon="-1.050639040768146514892578125">
        <ele>1782.199951171875</ele>
        <time>2020-08-22T12:12:13.000Z</time>
      </trkpt>
      <trkpt lat="40.06135071627795696258544921875" lon="-1.0506955347955226898193359375">
        <ele>1780.800048828125</ele>
        <time>2020-08-22T12:12:15.000Z</time>
      </trkpt>
      <trkpt lat="40.06126857362687587738037109375" lon="-1.05075429193675518035888671875">
        <ele>1779.5999755859375</ele>
        <time>2020-08-22T12:12:17.000Z</time>
      </trkpt>
      <trkpt lat="40.06111132912337779998779296875" lon="-1.05087616480886936187744140625">
        <ele>1778.4000244140625</ele>
        <time>2020-08-22T12:12:21.000Z</time>
      </trkpt>
      <trkpt lat="40.0609915517270565032958984375" lon="-1.05100289918482303619384765625">
        <ele>1777.199951171875</ele>
        <time>2020-08-22T12:12:24.000Z</time>
      </trkpt>
      <trkpt lat="40.06095190532505512237548828125" lon="-1.05105201713740825653076171875">
        <ele>1775.800048828125</ele>
        <time>2020-08-22T12:12:25.000Z</time>
      </trkpt>
      <trkpt lat="40.060913264751434326171875" lon="-1.05110432021319866180419921875">
        <ele>1774.5999755859375</ele>
        <time>2020-08-22T12:12:26.000Z</time>
      </trkpt>
      <trkpt lat="40.060837157070636749267578125" lon="-1.0512148775160312652587890625">
        <ele>1773.199951171875</ele>
        <time>2020-08-22T12:12:28.000Z</time>
      </trkpt>
      <trkpt lat="40.06069307215511798858642578125" lon="-1.05147161521017551422119140625">
        <ele>1772</ele>
        <time>2020-08-22T12:12:32.000Z</time>
      </trkpt>
      <trkpt lat="40.06059718318283557891845703125" lon="-1.05167646892368793487548828125">
        <ele>1770.800048828125</ele>
        <time>2020-08-22T12:12:35.000Z</time>
      </trkpt>
      <trkpt lat="40.06050364114344120025634765625" lon="-1.0518901236355304718017578125">
        <ele>1769</ele>
        <time>2020-08-22T12:12:38.000Z</time>
      </trkpt>
      <trkpt lat="40.060443878173828125" lon="-1.0520255751907825469970703125">
        <ele>1768</ele>
        <time>2020-08-22T12:12:40.000Z</time>
      </trkpt>
      <trkpt lat="40.0603870488703250885009765625" lon="-1.05216085910797119140625">
        <ele>1766.4000244140625</ele>
        <time>2020-08-22T12:12:42.000Z</time>
      </trkpt>
      <trkpt lat="40.06032795645296573638916015625" lon="-1.0522994957864284515380859375">
        <ele>1764.800048828125</ele>
        <time>2020-08-22T12:12:44.000Z</time>
      </trkpt>
      <trkpt lat="40.0603012181818485260009765625" lon="-1.052371747791767120361328125">
        <ele>1764.199951171875</ele>
        <time>2020-08-22T12:12:45.000Z</time>
      </trkpt>
      <trkpt lat="40.0602787546813488006591796875" lon="-1.05244810692965984344482421875">
        <ele>1763.800048828125</ele>
        <time>2020-08-22T12:12:46.000Z</time>
      </trkpt>
      <trkpt lat="40.0602479092776775360107421875" lon="-1.052609793841838836669921875">
        <ele>1763</ele>
        <time>2020-08-22T12:12:48.000Z</time>
      </trkpt>
      <trkpt lat="40.0602391920983791351318359375" lon="-1.05269235558807849884033203125">
        <ele>1762</ele>
        <time>2020-08-22T12:12:49.000Z</time>
      </trkpt>
      <trkpt lat="40.0602308101952075958251953125" lon="-1.052773408591747283935546875">
        <ele>1761</ele>
        <time>2020-08-22T12:12:50.000Z</time>
      </trkpt>
      <trkpt lat="40.06021044217050075531005859375" lon="-1.05292755179107189178466796875">
        <ele>1759.5999755859375</ele>
        <time>2020-08-22T12:12:52.000Z</time>
      </trkpt>
      <trkpt lat="40.06018479354679584503173828125" lon="-1.0531420446932315826416015625">
        <ele>1758.199951171875</ele>
        <time>2020-08-22T12:12:55.000Z</time>
      </trkpt>
      <trkpt lat="40.06016048602759838104248046875" lon="-1.0533368401229381561279296875">
        <ele>1757.199951171875</ele>
        <time>2020-08-22T12:12:58.000Z</time>
      </trkpt>
      <trkpt lat="40.06013383157551288604736328125" lon="-1.05354798026382923126220703125">
        <ele>1756.199951171875</ele>
        <time>2020-08-22T12:13:02.000Z</time>
      </trkpt>
      <trkpt lat="40.06009225733578205108642578125" lon="-1.05379742570221424102783203125">
        <ele>1755</ele>
        <time>2020-08-22T12:13:07.000Z</time>
      </trkpt>
      <trkpt lat="40.0600829534232616424560546875" lon="-1.05406044982373714447021484375">
        <ele>1753.800048828125</ele>
        <time>2020-08-22T12:13:12.000Z</time>
      </trkpt>
      <trkpt lat="40.06009410135447978973388671875" lon="-1.05418701656162738800048828125">
        <ele>1752.5999755859375</ele>
        <time>2020-08-22T12:13:14.000Z</time>
      </trkpt>
      <trkpt lat="40.06013073027133941650390625" lon="-1.054432690143585205078125">
        <ele>1751.4000244140625</ele>
        <time>2020-08-22T12:13:18.000Z</time>
      </trkpt>
      <trkpt lat="40.06016182713210582733154296875" lon="-1.054625473916530609130859375">
        <ele>1750.199951171875</ele>
        <time>2020-08-22T12:13:21.000Z</time>
      </trkpt>
      <trkpt lat="40.060203485190868377685546875" lon="-1.05490920133888721466064453125">
        <ele>1749</ele>
        <time>2020-08-22T12:13:25.000Z</time>
      </trkpt>
      <trkpt lat="40.06025050766766071319580078125" lon="-1.05519116856157779693603515625">
        <ele>1748</ele>
        <time>2020-08-22T12:13:29.000Z</time>
      </trkpt>
      <trkpt lat="40.06028587929904460906982421875" lon="-1.0554239340126514434814453125">
        <ele>1746.5999755859375</ele>
        <time>2020-08-22T12:13:33.000Z</time>
      </trkpt>
      <trkpt lat="40.0603223405778408050537109375" lon="-1.05561428703367710113525390625">
        <ele>1745.4000244140625</ele>
        <time>2020-08-22T12:15:21.000Z</time>
      </trkpt>
      <trkpt lat="40.06037305109202861785888671875" lon="-1.05603857897222042083740234375">
        <ele>1744.199951171875</ele>
        <time>2020-08-22T12:16:18.000Z</time>
      </trkpt>
      <trkpt lat="40.06041512824594974517822265625" lon="-1.0563995875418186187744140625">
        <ele>1743.199951171875</ele>
        <time>2020-08-22T12:16:24.000Z</time>
      </trkpt>
      <trkpt lat="40.06044848822057247161865234375" lon="-1.056526489555835723876953125">
        <ele>1742.800048828125</ele>
        <time>2020-08-22T12:16:26.000Z</time>
      </trkpt>
      <trkpt lat="40.0605047307908535003662109375" lon="-1.05664408765733242034912109375">
        <ele>1742.199951171875</ele>
        <time>2020-08-22T12:16:28.000Z</time>
      </trkpt>
      <trkpt lat="40.06056399084627628326416015625" lon="-1.05676528997719287872314453125">
        <ele>1741.199951171875</ele>
        <time>2020-08-22T12:16:30.000Z</time>
      </trkpt>
      <trkpt lat="40.0607468001544475555419921875" lon="-1.057156138122081756591796875">
        <ele>1740</ele>
        <time>2020-08-22T12:16:36.000Z</time>
      </trkpt>
      <trkpt lat="40.060854256153106689453125" lon="-1.05735235847532749176025390625">
        <ele>1738.800048828125</ele>
        <time>2020-08-22T12:16:39.000Z</time>
      </trkpt>
      <trkpt lat="40.06095408461987972259521484375" lon="-1.05755737982690334320068359375">
        <ele>1738.4000244140625</ele>
        <time>2020-08-22T12:16:42.000Z</time>
      </trkpt>
      <trkpt lat="40.06099431775510311126708984375" lon="-1.05772049166262149810791015625">
        <ele>1737.5999755859375</ele>
        <time>2020-08-22T12:16:44.000Z</time>
      </trkpt>
      <trkpt lat="40.06101326085627079010009765625" lon="-1.0579799115657806396484375">
        <ele>1737</ele>
        <time>2020-08-22T12:16:47.000Z</time>
      </trkpt>
      <trkpt lat="40.06101577542722225189208984375" lon="-1.05815400369465351104736328125">
        <ele>1736.4000244140625</ele>
        <time>2020-08-22T12:16:49.000Z</time>
      </trkpt>
      <trkpt lat="40.06104511208832263946533203125" lon="-1.05848391540348529815673828125">
        <ele>1734.199951171875</ele>
        <time>2020-08-22T12:16:53.000Z</time>
      </trkpt>
      <trkpt lat="40.06105869077146053314208984375" lon="-1.0585560835897922515869140625">
        <ele>1733.5999755859375</ele>
        <time>2020-08-22T12:16:54.000Z</time>
      </trkpt>
      <trkpt lat="40.06107830442488193511962890625" lon="-1.058620624244213104248046875">
        <ele>1733</ele>
        <time>2020-08-22T12:16:55.000Z</time>
      </trkpt>
      <trkpt lat="40.06113211624324321746826171875" lon="-1.05879236944019794464111328125">
        <ele>1732</ele>
        <time>2020-08-22T12:16:58.000Z</time>
      </trkpt>
      <trkpt lat="40.06113655865192413330078125" lon="-1.05884433723986148834228515625">
        <ele>1731.800048828125</ele>
        <time>2020-08-22T12:16:59.000Z</time>
      </trkpt>
      <trkpt lat="40.06112960167229175567626953125" lon="-1.05889110825955867767333984375">
        <ele>1731.800048828125</ele>
        <time>2020-08-22T12:17:00.000Z</time>
      </trkpt>
      <trkpt lat="40.061074532568454742431640625" lon="-1.05894726701080799102783203125">
        <ele>1731.4000244140625</ele>
        <time>2020-08-22T12:17:02.000Z</time>
      </trkpt>
      <trkpt lat="40.0608879514038562774658203125" lon="-1.05873604305088520050048828125">
        <ele>1730.5999755859375</ele>
        <time>2020-08-22T12:17:09.000Z</time>
      </trkpt>
      <trkpt lat="40.0607675872743129730224609375" lon="-1.05853588320314884185791015625">
        <ele>1729.5999755859375</ele>
        <time>2020-08-22T12:17:13.000Z</time>
      </trkpt>
      <trkpt lat="40.060735233128070831298828125" lon="-1.0584917105734348297119140625">
        <ele>1729.199951171875</ele>
        <time>2020-08-22T12:17:14.000Z</time>
      </trkpt>
      <trkpt lat="40.0606626458466053009033203125" lon="-1.0584052093327045440673828125">
        <ele>1728.5999755859375</ele>
        <time>2020-08-22T12:17:16.000Z</time>
      </trkpt>
      <trkpt lat="40.0605793297290802001953125" lon="-1.05835969559848308563232421875">
        <ele>1727.4000244140625</ele>
        <time>2020-08-22T12:17:18.000Z</time>
      </trkpt>
      <trkpt lat="40.060500204563140869140625" lon="-1.05835952796041965484619140625">
        <ele>1726.199951171875</ele>
        <time>2020-08-22T12:17:20.000Z</time>
      </trkpt>
      <trkpt lat="40.06046005524694919586181640625" lon="-1.05836573056876659393310546875">
        <ele>1725.800048828125</ele>
        <time>2020-08-22T12:17:21.000Z</time>
      </trkpt>
      <trkpt lat="40.06041906774044036865234375" lon="-1.05836941860616207122802734375">
        <ele>1724.800048828125</ele>
        <time>2020-08-22T12:17:22.000Z</time>
      </trkpt>
      <trkpt lat="40.060376822948455810546875" lon="-1.0583646409213542938232421875">
        <ele>1724.4000244140625</ele>
        <time>2020-08-22T12:17:23.000Z</time>
      </trkpt>
      <trkpt lat="40.06033332087099552154541015625" lon="-1.05835500173270702362060546875">
        <ele>1723.4000244140625</ele>
        <time>2020-08-22T12:17:24.000Z</time>
      </trkpt>
      <trkpt lat="40.0602388568222522735595703125" lon="-1.05832122266292572021484375">
        <ele>1722.4000244140625</ele>
        <time>2020-08-22T12:17:26.000Z</time>
      </trkpt>
      <trkpt lat="40.06018999032676219940185546875" lon="-1.058294065296649932861328125">
        <ele>1722.199951171875</ele>
        <time>2020-08-22T12:17:27.000Z</time>
      </trkpt>
      <trkpt lat="40.060049928724765777587890625" lon="-1.0581923089921474456787109375">
        <ele>1721</ele>
        <time>2020-08-22T12:17:30.000Z</time>
      </trkpt>
      <trkpt lat="40.05993350408971309661865234375" lon="-1.05807370506227016448974609375">
        <ele>1719.800048828125</ele>
        <time>2020-08-22T12:17:33.000Z</time>
      </trkpt>
      <trkpt lat="40.0598653592169284820556640625" lon="-1.05800447054207324981689453125">
        <ele>1718.199951171875</ele>
        <time>2020-08-22T12:17:35.000Z</time>
      </trkpt>
      <trkpt lat="40.05981029011309146881103515625" lon="-1.0579445399343967437744140625">
        <ele>1716.5999755859375</ele>
        <time>2020-08-22T12:17:37.000Z</time>
      </trkpt>
      <trkpt lat="40.0597614236176013946533203125" lon="-1.05787807144224643707275390625">
        <ele>1715.4000244140625</ele>
        <time>2020-08-22T12:17:39.000Z</time>
      </trkpt>
      <trkpt lat="40.0597181729972362518310546875" lon="-1.0577983595430850982666015625">
        <ele>1714.199951171875</ele>
        <time>2020-08-22T12:17:41.000Z</time>
      </trkpt>
      <trkpt lat="40.05963326431810855865478515625" lon="-1.05767355300486087799072265625">
        <ele>1712.800048828125</ele>
        <time>2020-08-22T12:17:44.000Z</time>
      </trkpt>
      <trkpt lat="40.059547685086727142333984375" lon="-1.0575381852686405181884765625">
        <ele>1711.800048828125</ele>
        <time>2020-08-22T12:17:47.000Z</time>
      </trkpt>
      <trkpt lat="40.0594690628349781036376953125" lon="-1.05743743479251861572265625">
        <ele>1710.199951171875</ele>
        <time>2020-08-22T12:17:50.000Z</time>
      </trkpt>
      <trkpt lat="40.0594033487141132354736328125" lon="-1.05734816752374172210693359375">
        <ele>1708.199951171875</ele>
        <time>2020-08-22T12:17:53.000Z</time>
      </trkpt>
      <trkpt lat="40.05936856381595134735107421875" lon="-1.05728647671639919281005859375">
        <ele>1707</ele>
        <time>2020-08-22T12:17:55.000Z</time>
      </trkpt>
      <trkpt lat="40.0593319348990917205810546875" lon="-1.0572287254035472869873046875">
        <ele>1705.4000244140625</ele>
        <time>2020-08-22T12:17:57.000Z</time>
      </trkpt>
      <trkpt lat="40.05924803204834461212158203125" lon="-1.05709017254412174224853515625">
        <ele>1704</ele>
        <time>2020-08-22T12:18:01.000Z</time>
      </trkpt>
      <trkpt lat="40.05913286469876766204833984375" lon="-1.056868135929107666015625">
        <ele>1703</ele>
        <time>2020-08-22T12:18:06.000Z</time>
      </trkpt>
      <trkpt lat="40.0590828247368335723876953125" lon="-1.056776940822601318359375">
        <ele>1701.800048828125</ele>
        <time>2020-08-22T12:18:08.000Z</time>
      </trkpt>
      <trkpt lat="40.05903504788875579833984375" lon="-1.05669203214347362518310546875">
        <ele>1700.800048828125</ele>
        <time>2020-08-22T12:18:10.000Z</time>
      </trkpt>
      <trkpt lat="40.05894142203032970428466796875" lon="-1.0565216280519962310791015625">
        <ele>1699.5999755859375</ele>
        <time>2020-08-22T12:18:14.000Z</time>
      </trkpt>
      <trkpt lat="40.058858357369899749755859375" lon="-1.0563680715858936309814453125">
        <ele>1698.4000244140625</ele>
        <time>2020-08-22T12:18:17.000Z</time>
      </trkpt>
      <trkpt lat="40.05880379118025302886962890625" lon="-1.05617067776620388031005859375">
        <ele>1697</ele>
        <time>2020-08-22T12:18:21.000Z</time>
      </trkpt>
      <trkpt lat="40.05878434516489505767822265625" lon="-1.05612005107104778289794921875">
        <ele>1696.800048828125</ele>
        <time>2020-08-22T12:18:22.000Z</time>
      </trkpt>
      <trkpt lat="40.05873220972716808319091796875" lon="-1.05601795949041843414306640625">
        <ele>1695.800048828125</ele>
        <time>2020-08-22T12:18:24.000Z</time>
      </trkpt>
      <trkpt lat="40.0586576946079730987548828125" lon="-1.05592693202197551727294921875">
        <ele>1695</ele>
        <time>2020-08-22T12:18:26.000Z</time>
      </trkpt>
      <trkpt lat="40.05861503072082996368408203125" lon="-1.05588820762932300567626953125">
        <ele>1694.5999755859375</ele>
        <time>2020-08-22T12:18:27.000Z</time>
      </trkpt>
      <trkpt lat="40.05849667824804782867431640625" lon="-1.055771447718143463134765625">
        <ele>1693.5999755859375</ele>
        <time>2020-08-22T12:18:30.000Z</time>
      </trkpt>
      <trkpt lat="40.05840280093252658843994140625" lon="-1.05566315352916717529296875">
        <ele>1692</ele>
        <time>2020-08-22T12:18:33.000Z</time>
      </trkpt>
      <trkpt lat="40.05835234187543392181396484375" lon="-1.055596433579921722412109375">
        <ele>1690.5999755859375</ele>
        <time>2020-08-22T12:18:35.000Z</time>
      </trkpt>
      <trkpt lat="40.05829744040966033935546875" lon="-1.05552728287875652313232421875">
        <ele>1689.5999755859375</ele>
        <time>2020-08-22T12:18:37.000Z</time>
      </trkpt>
      <trkpt lat="40.058241784572601318359375" lon="-1.05545637197792530059814453125">
        <ele>1688.4000244140625</ele>
        <time>2020-08-22T12:18:39.000Z</time>
      </trkpt>
      <trkpt lat="40.0581948459148406982421875" lon="-1.0553837008774280548095703125">
        <ele>1687.4000244140625</ele>
        <time>2020-08-22T12:18:41.000Z</time>
      </trkpt>
      <trkpt lat="40.0581386871635913848876953125" lon="-1.0552837885916233062744140625">
        <ele>1686.4000244140625</ele>
        <time>2020-08-22T12:18:44.000Z</time>
      </trkpt>
      <trkpt lat="40.0580431334674358367919921875" lon="-1.05517767369747161865234375">
        <ele>1685</ele>
        <time>2020-08-22T12:18:48.000Z</time>
      </trkpt>
      <trkpt lat="40.057961158454418182373046875" lon="-1.055180020630359649658203125">
        <ele>1683.800048828125</ele>
        <time>2020-08-22T12:18:51.000Z</time>
      </trkpt>
      <trkpt lat="40.05791514180600643157958984375" lon="-1.05529594235122203826904296875">
        <ele>1682.800048828125</ele>
        <time>2020-08-22T12:18:54.000Z</time>
      </trkpt>
      <trkpt lat="40.0579103641211986541748046875" lon="-1.05539082549512386322021484375">
        <ele>1681.4000244140625</ele>
        <time>2020-08-22T12:18:56.000Z</time>
      </trkpt>
      <trkpt lat="40.057914555072784423828125" lon="-1.055541448295116424560546875">
        <ele>1680</ele>
        <time>2020-08-22T12:18:59.000Z</time>
      </trkpt>
      <trkpt lat="40.057947747409343719482421875" lon="-1.05577756650745868682861328125">
        <ele>1678.5999755859375</ele>
        <time>2020-08-22T12:19:03.000Z</time>
      </trkpt>
      <trkpt lat="40.05796618759632110595703125" lon="-1.0559065639972686767578125">
        <ele>1677.4000244140625</ele>
        <time>2020-08-22T12:19:05.000Z</time>
      </trkpt>
      <trkpt lat="40.05798353813588619232177734375" lon="-1.05604126118123531341552734375">
        <ele>1676.199951171875</ele>
        <time>2020-08-22T12:19:07.000Z</time>
      </trkpt>
      <trkpt lat="40.05800214596092700958251953125" lon="-1.05632104910910129547119140625">
        <ele>1675.199951171875</ele>
        <time>2020-08-22T12:19:11.000Z</time>
      </trkpt>
      <trkpt lat="40.058018155395984649658203125" lon="-1.05654836632311344146728515625">
        <ele>1673.800048828125</ele>
        <time>2020-08-22T12:19:14.000Z</time>
      </trkpt>
      <trkpt lat="40.058028884232044219970703125" lon="-1.056701838970184326171875">
        <ele>1672.4000244140625</ele>
        <time>2020-08-22T12:19:16.000Z</time>
      </trkpt>
      <trkpt lat="40.05803936161100864410400390625" lon="-1.056862436234951019287109375">
        <ele>1671.4000244140625</ele>
        <time>2020-08-22T12:19:18.000Z</time>
      </trkpt>
      <trkpt lat="40.05806031636893749237060546875" lon="-1.0572092793881893157958984375">
        <ele>1670</ele>
        <time>2020-08-22T12:19:22.000Z</time>
      </trkpt>
      <trkpt lat="40.05807573907077312469482421875" lon="-1.057565845549106597900390625">
        <ele>1668.800048828125</ele>
        <time>2020-08-22T12:19:26.000Z</time>
      </trkpt>
      <trkpt lat="40.05810122005641460418701171875" lon="-1.05790145695209503173828125">
        <ele>1667.800048828125</ele>
        <time>2020-08-22T12:19:30.000Z</time>
      </trkpt>
      <trkpt lat="40.058144219219684600830078125" lon="-1.058122403919696807861328125">
        <ele>1666.4000244140625</ele>
        <time>2020-08-22T12:19:33.000Z</time>
      </trkpt>
      <trkpt lat="40.05822862498462200164794921875" lon="-1.058322228491306304931640625">
        <ele>1665.4000244140625</ele>
        <time>2020-08-22T12:19:36.000Z</time>
      </trkpt>
      <trkpt lat="40.05836592055857181549072265625" lon="-1.05857946909964084625244140625">
        <ele>1664.4000244140625</ele>
        <time>2020-08-22T12:19:40.000Z</time>
      </trkpt>
      <trkpt lat="40.05845560692250728607177734375" lon="-1.05875599198043346405029296875">
        <ele>1663.800048828125</ele>
        <time>2020-08-22T12:19:43.000Z</time>
      </trkpt>
      <trkpt lat="40.05847102962434291839599609375" lon="-1.0588129051029682159423828125">
        <ele>1663.4000244140625</ele>
        <time>2020-08-22T12:19:44.000Z</time>
      </trkpt>
      <trkpt lat="40.058472119271755218505859375" lon="-1.0588715784251689910888671875">
        <ele>1662.800048828125</ele>
        <time>2020-08-22T12:19:45.000Z</time>
      </trkpt>
      <trkpt lat="40.05843180231750011444091796875" lon="-1.05897526256740093231201171875">
        <ele>1662.199951171875</ele>
        <time>2020-08-22T12:19:47.000Z</time>
      </trkpt>
      <trkpt lat="40.0583331473171710968017578125" lon="-1.0589849017560482025146484375">
        <ele>1661.5999755859375</ele>
        <time>2020-08-22T12:19:49.000Z</time>
      </trkpt>
      <trkpt lat="40.05824287422001361846923828125" lon="-1.058896891772747039794921875">
        <ele>1661.4000244140625</ele>
        <time>2020-08-22T12:19:51.000Z</time>
      </trkpt>
      <trkpt lat="40.05820314399898052215576171875" lon="-1.058845259249210357666015625">
        <ele>1660.800048828125</ele>
        <time>2020-08-22T12:19:52.000Z</time>
      </trkpt>
      <trkpt lat="40.058087892830371856689453125" lon="-1.0586938820779323577880859375">
        <ele>1659.4000244140625</ele>
        <time>2020-08-22T12:19:55.000Z</time>
      </trkpt>
      <trkpt lat="40.058053024113178253173828125" lon="-1.0586343705654144287109375">
        <ele>1659</ele>
        <time>2020-08-22T12:19:56.000Z</time>
      </trkpt>
      <trkpt lat="40.057978928089141845703125" lon="-1.05850755237042903900146484375">
        <ele>1658.199951171875</ele>
        <time>2020-08-22T12:19:58.000Z</time>
      </trkpt>
      <trkpt lat="40.0578483380377292633056640625" lon="-1.05830890126526355743408203125">
        <ele>1656.800048828125</ele>
        <time>2020-08-22T12:20:01.000Z</time>
      </trkpt>
      <trkpt lat="40.05771397612988948822021484375" lon="-1.05812785215675830841064453125">
        <ele>1655.199951171875</ele>
        <time>2020-08-22T12:20:04.000Z</time>
      </trkpt>
      <trkpt lat="40.05761540494859218597412109375" lon="-1.05802106671035289764404296875">
        <ele>1654.4000244140625</ele>
        <time>2020-08-22T12:20:06.000Z</time>
      </trkpt>
      <trkpt lat="40.05756444297730922698974609375" lon="-1.05797915719449520111083984375">
        <ele>1654</ele>
        <time>2020-08-22T12:20:07.000Z</time>
      </trkpt>
      <trkpt lat="40.057513229548931121826171875" lon="-1.05794831179082393646240234375">
        <ele>1653.5999755859375</ele>
        <time>2020-08-22T12:20:08.000Z</time>
      </trkpt>
      <trkpt lat="40.0572830624878406524658203125" lon="-1.0578838549554347991943359375">
        <ele>1652.5999755859375</ele>
        <time>2020-08-22T12:20:12.000Z</time>
      </trkpt>
      <trkpt lat="40.0570996664464473724365234375" lon="-1.0578741319477558135986328125">
        <ele>1651.199951171875</ele>
        <time>2020-08-22T12:20:15.000Z</time>
      </trkpt>
      <trkpt lat="40.05693085491657257080078125" lon="-1.057890392839908599853515625">
        <ele>1649.800048828125</ele>
        <time>2020-08-22T12:20:18.000Z</time>
      </trkpt>
      <trkpt lat="40.056821890175342559814453125" lon="-1.05790807865560054779052734375">
        <ele>1648.199951171875</ele>
        <time>2020-08-22T12:20:20.000Z</time>
      </trkpt>
      <trkpt lat="40.056713260710239410400390625" lon="-1.057929284870624542236328125">
        <ele>1646.199951171875</ele>
        <time>2020-08-22T12:20:22.000Z</time>
      </trkpt>
      <trkpt lat="40.056662298738956451416015625" lon="-1.05793892405927181243896484375">
        <ele>1644.800048828125</ele>
        <time>2020-08-22T12:20:23.000Z</time>
      </trkpt>
      <trkpt lat="40.0566145218908786773681640625" lon="-1.057944707572460174560546875">
        <ele>1643.800048828125</ele>
        <time>2020-08-22T12:20:24.000Z</time>
      </trkpt>
      <trkpt lat="40.056520141661167144775390625" lon="-1.05794847942888736724853515625">
        <ele>1642.199951171875</ele>
        <time>2020-08-22T12:20:26.000Z</time>
      </trkpt>
      <trkpt lat="40.05647345446050167083740234375" lon="-1.0579530894756317138671875">
        <ele>1641.5999755859375</ele>
        <time>2020-08-22T12:20:27.000Z</time>
      </trkpt>
      <trkpt lat="40.0564287789165973663330078125" lon="-1.05796876363456249237060546875">
        <ele>1640.800048828125</ele>
        <time>2020-08-22T12:20:28.000Z</time>
      </trkpt>
      <trkpt lat="40.05638695321977138519287109375" lon="-1.05799307115375995635986328125">
        <ele>1640</ele>
        <time>2020-08-22T12:20:29.000Z</time>
      </trkpt>
      <trkpt lat="40.05634806118905544281005859375" lon="-1.05802391655743122100830078125">
        <ele>1639</ele>
        <time>2020-08-22T12:20:30.000Z</time>
      </trkpt>
      <trkpt lat="40.0562421977519989013671875" lon="-1.05814796872437000274658203125">
        <ele>1637.800048828125</ele>
        <time>2020-08-22T12:20:33.000Z</time>
      </trkpt>
      <trkpt lat="40.05620640702545642852783203125" lon="-1.05819138698279857635498046875">
        <ele>1637.5999755859375</ele>
        <time>2020-08-22T12:20:34.000Z</time>
      </trkpt>
      <trkpt lat="40.05608822219073772430419921875" lon="-1.05829171836376190185546875">
        <ele>1637.199951171875</ele>
        <time>2020-08-22T12:20:37.000Z</time>
      </trkpt>
      <trkpt lat="40.05599736236035823822021484375" lon="-1.05832851491868495941162109375">
        <ele>1637</ele>
        <time>2020-08-22T12:20:39.000Z</time>
      </trkpt>
      <trkpt lat="40.0559469871222972869873046875" lon="-1.058339662849903106689453125">
        <ele>1636.800048828125</ele>
        <time>2020-08-22T12:20:40.000Z</time>
      </trkpt>
      <trkpt lat="40.05584162659943103790283203125" lon="-1.05835114605724811553955078125">
        <ele>1635.5999755859375</ele>
        <time>2020-08-22T12:20:42.000Z</time>
      </trkpt>
      <trkpt lat="40.05567030049860477447509765625" lon="-1.05835583992302417755126953125">
        <ele>1634.5999755859375</ele>
        <time>2020-08-22T12:20:45.000Z</time>
      </trkpt>
      <trkpt lat="40.05549562163650989532470703125" lon="-1.05836908333003520965576171875">
        <ele>1633.5999755859375</ele>
        <time>2020-08-22T12:20:48.000Z</time>
      </trkpt>
      <trkpt lat="40.05537877790629863739013671875" lon="-1.058371849358081817626953125">
        <ele>1633.4000244140625</ele>
        <time>2020-08-22T12:20:50.000Z</time>
      </trkpt>
      <trkpt lat="40.05520812235772609710693359375" lon="-1.05835064314305782318115234375">
        <ele>1632.4000244140625</ele>
        <time>2020-08-22T12:20:53.000Z</time>
      </trkpt>
      <trkpt lat="40.0550432503223419189453125" lon="-1.0583237372338771820068359375">
        <ele>1630.199951171875</ele>
        <time>2020-08-22T12:20:56.000Z</time>
      </trkpt>
      <trkpt lat="40.05493436940014362335205078125" lon="-1.05831761844456195831298828125">
        <ele>1628.800048828125</ele>
        <time>2020-08-22T12:20:58.000Z</time>
      </trkpt>
      <trkpt lat="40.054631531238555908203125" lon="-1.0582791455090045928955078125">
        <ele>1627.800048828125</ele>
        <time>2020-08-22T12:21:04.000Z</time>
      </trkpt>
      <trkpt lat="40.054539330303668975830078125" lon="-1.05824871920049190521240234375">
        <ele>1627.5999755859375</ele>
        <time>2020-08-22T12:21:06.000Z</time>
      </trkpt>
      <trkpt lat="40.054448135197162628173828125" lon="-1.05818887241184711456298828125">
        <ele>1627.5999755859375</ele>
        <time>2020-08-22T12:21:08.000Z</time>
      </trkpt>
      <trkpt lat="40.0539869628846645355224609375" lon="-1.057820655405521392822265625">
        <ele>1626.800048828125</ele>
        <time>2020-08-22T12:21:16.000Z</time>
      </trkpt>
      <trkpt lat="40.05392150022089481353759765625" lon="-1.0577631555497646331787109375">
        <ele>1626.4000244140625</ele>
        <time>2020-08-22T12:21:17.000Z</time>
      </trkpt>
      <trkpt lat="40.053631402552127838134765625" lon="-1.05753600597381591796875">
        <ele>1624.800048828125</ele>
        <time>2020-08-22T12:21:21.000Z</time>
      </trkpt>
      <trkpt lat="40.05347306840121746063232421875" lon="-1.05743282474577426910400390625">
        <ele>1623.199951171875</ele>
        <time>2020-08-22T12:21:23.000Z</time>
      </trkpt>
      <trkpt lat="40.0533231161534786224365234375" lon="-1.05734489858150482177734375">
        <ele>1622</ele>
        <time>2020-08-22T12:21:25.000Z</time>
      </trkpt>
      <trkpt lat="40.05318783223628997802734375" lon="-1.05727625079452991485595703125">
        <ele>1620.4000244140625</ele>
        <time>2020-08-22T12:21:27.000Z</time>
      </trkpt>
      <trkpt lat="40.0530673004686832427978515625" lon="-1.05720852501690387725830078125">
        <ele>1619</ele>
        <time>2020-08-22T12:21:29.000Z</time>
      </trkpt>
      <trkpt lat="40.05301608704030513763427734375" lon="-1.05716787278652191162109375">
        <ele>1618.4000244140625</ele>
        <time>2020-08-22T12:21:30.000Z</time>
      </trkpt>
      <trkpt lat="40.05297417752444744110107421875" lon="-1.0571170784533023834228515625">
        <ele>1617.4000244140625</ele>
        <time>2020-08-22T12:21:31.000Z</time>
      </trkpt>
      <trkpt lat="40.0529435835778713226318359375" lon="-1.05705547146499156951904296875">
        <ele>1616.5999755859375</ele>
        <time>2020-08-22T12:21:32.000Z</time>
      </trkpt>
      <trkpt lat="40.05290661938488483428955078125" lon="-1.05691465549170970916748046875">
        <ele>1616.199951171875</ele>
        <time>2020-08-22T12:21:34.000Z</time>
      </trkpt>
      <trkpt lat="40.0528406538069248199462890625" lon="-1.0565502941608428955078125">
        <ele>1615</ele>
        <time>2020-08-22T12:21:39.000Z</time>
      </trkpt>
      <trkpt lat="40.05279061384499073028564453125" lon="-1.05632121674716472625732421875">
        <ele>1613.800048828125</ele>
        <time>2020-08-22T12:21:42.000Z</time>
      </trkpt>
      <trkpt lat="40.05277468822896480560302734375" lon="-1.05624519288539886474609375">
        <ele>1612.5999755859375</ele>
        <time>2020-08-22T12:21:43.000Z</time>
      </trkpt>
      <trkpt lat="40.05274367518723011016845703125" lon="-1.05610513128340244293212890625">
        <ele>1611.5999755859375</ele>
        <time>2020-08-22T12:21:45.000Z</time>
      </trkpt>
      <trkpt lat="40.0527191162109375" lon="-1.0559848509728908538818359375">
        <ele>1610.4000244140625</ele>
        <time>2020-08-22T12:21:47.000Z</time>
      </trkpt>
      <trkpt lat="40.05270344205200672149658203125" lon="-1.05587278492748737335205078125">
        <ele>1609.5999755859375</ele>
        <time>2020-08-22T12:21:49.000Z</time>
      </trkpt>
      <trkpt lat="40.052700005471706390380859375" lon="-1.0558138601481914520263671875">
        <ele>1609.199951171875</ele>
        <time>2020-08-22T12:21:50.000Z</time>
      </trkpt>
      <trkpt lat="40.0526963174343109130859375" lon="-1.05569005943834781646728515625">
        <ele>1608</ele>
        <time>2020-08-22T12:21:52.000Z</time>
      </trkpt>
      <trkpt lat="40.0526963174343109130859375" lon="-1.05562920682132244110107421875">
        <ele>1607</ele>
        <time>2020-08-22T12:21:53.000Z</time>
      </trkpt>
      <trkpt lat="40.05270193330943584442138671875" lon="-1.0554571263492107391357421875">
        <ele>1605.800048828125</ele>
        <time>2020-08-22T12:21:56.000Z</time>
      </trkpt>
      <trkpt lat="40.0526974909007549285888671875" lon="-1.05533885769546031951904296875">
        <ele>1605.4000244140625</ele>
        <time>2020-08-22T12:21:58.000Z</time>
      </trkpt>
      <trkpt lat="40.052687264978885650634765625" lon="-1.05528102256357669830322265625">
        <ele>1604.5999755859375</ele>
        <time>2020-08-22T12:21:59.000Z</time>
      </trkpt>
      <trkpt lat="40.0526555813848972320556640625" lon="-1.05516434647142887115478515625">
        <ele>1603.4000244140625</ele>
        <time>2020-08-22T12:22:01.000Z</time>
      </trkpt>
      <trkpt lat="40.05257687531411647796630859375" lon="-1.05498195625841617584228515625">
        <ele>1601.800048828125</ele>
        <time>2020-08-22T12:22:04.000Z</time>
      </trkpt>
      <trkpt lat="40.0525446049869060516357421875" lon="-1.054926551878452301025390625">
        <ele>1601.199951171875</ele>
        <time>2020-08-22T12:22:05.000Z</time>
      </trkpt>
      <trkpt lat="40.05251191556453704833984375" lon="-1.0548730753362178802490234375">
        <ele>1600.5999755859375</ele>
        <time>2020-08-22T12:22:06.000Z</time>
      </trkpt>
      <trkpt lat="40.05243019200861454010009765625" lon="-1.0546997375786304473876953125">
        <ele>1598.800048828125</ele>
        <time>2020-08-22T12:22:09.000Z</time>
      </trkpt>
      <trkpt lat="40.052391551434993743896484375" lon="-1.0545733384788036346435546875">
        <ele>1597.5999755859375</ele>
        <time>2020-08-22T12:22:11.000Z</time>
      </trkpt>
      <trkpt lat="40.05236280150711536407470703125" lon="-1.05444685555994510650634765625">
        <ele>1596.5999755859375</ele>
        <time>2020-08-22T12:22:13.000Z</time>
      </trkpt>
      <trkpt lat="40.05234318785369396209716796875" lon="-1.054320372641086578369140625">
        <ele>1594.4000244140625</ele>
        <time>2020-08-22T12:22:15.000Z</time>
      </trkpt>
      <trkpt lat="40.05232055671513080596923828125" lon="-1.054196320474147796630859375">
        <ele>1592.4000244140625</ele>
        <time>2020-08-22T12:22:17.000Z</time>
      </trkpt>
      <trkpt lat="40.05228568799793720245361328125" lon="-1.05408065021038055419921875">
        <ele>1591.199951171875</ele>
        <time>2020-08-22T12:22:19.000Z</time>
      </trkpt>
      <trkpt lat="40.05224637687206268310546875" lon="-1.05397009290754795074462890625">
        <ele>1589.800048828125</ele>
        <time>2020-08-22T12:22:21.000Z</time>
      </trkpt>
      <trkpt lat="40.05221611820161342620849609375" lon="-1.0538592003285884857177734375">
        <ele>1588.5999755859375</ele>
        <time>2020-08-22T12:22:23.000Z</time>
      </trkpt>
      <trkpt lat="40.0522173754870891571044921875" lon="-1.05373456142842769622802734375">
        <ele>1588</ele>
        <time>2020-08-22T12:22:25.000Z</time>
      </trkpt>
      <trkpt lat="40.05222952924668788909912109375" lon="-1.05367203243076801300048828125">
        <ele>1586.800048828125</ele>
        <time>2020-08-22T12:22:26.000Z</time>
      </trkpt>
      <trkpt lat="40.05224595777690410614013671875" lon="-1.05361268855631351470947265625">
        <ele>1586.199951171875</ele>
        <time>2020-08-22T12:22:27.000Z</time>
      </trkpt>
      <trkpt lat="40.0522656552493572235107421875" lon="-1.0535574518144130706787109375">
        <ele>1585.199951171875</ele>
        <time>2020-08-22T12:22:28.000Z</time>
      </trkpt>
      <trkpt lat="40.05228350870311260223388671875" lon="-1.05350397527217864990234375">
        <ele>1584.199951171875</ele>
        <time>2020-08-22T12:22:29.000Z</time>
      </trkpt>
      <trkpt lat="40.05229507572948932647705078125" lon="-1.0534498281776905059814453125">
        <ele>1583.5999755859375</ele>
        <time>2020-08-22T12:22:30.000Z</time>
      </trkpt>
      <trkpt lat="40.05229893140494823455810546875" lon="-1.05339467525482177734375">
        <ele>1583.199951171875</ele>
        <time>2020-08-22T12:22:31.000Z</time>
      </trkpt>
      <trkpt lat="40.05227311514317989349365234375" lon="-1.05329099111258983612060546875">
        <ele>1582.199951171875</ele>
        <time>2020-08-22T12:22:33.000Z</time>
      </trkpt>
      <trkpt lat="40.05220907740294933319091796875" lon="-1.0532283782958984375">
        <ele>1580.800048828125</ele>
        <time>2020-08-22T12:22:35.000Z</time>
      </trkpt>
      <trkpt lat="40.05209391005337238311767578125" lon="-1.05324354954063892364501953125">
        <ele>1579.4000244140625</ele>
        <time>2020-08-22T12:22:38.000Z</time>
      </trkpt>
      <trkpt lat="40.052013695240020751953125" lon="-1.05327598750591278076171875">
        <ele>1578.800048828125</ele>
        <time>2020-08-22T12:22:40.000Z</time>
      </trkpt>
      <trkpt lat="40.05196650512516498565673828125" lon="-1.0532878898084163665771484375">
        <ele>1578.199951171875</ele>
        <time>2020-08-22T12:22:41.000Z</time>
      </trkpt>
      <trkpt lat="40.05191571079194545745849609375" lon="-1.05329702608287334442138671875">
        <ele>1577.800048828125</ele>
        <time>2020-08-22T12:22:42.000Z</time>
      </trkpt>
      <trkpt lat="40.05186391063034534454345703125" lon="-1.05329903773963451385498046875">
        <ele>1577.199951171875</ele>
        <time>2020-08-22T12:22:43.000Z</time>
      </trkpt>
      <trkpt lat="40.0518138706684112548828125" lon="-1.0532909072935581207275390625">
        <ele>1576.5999755859375</ele>
        <time>2020-08-22T12:22:44.000Z</time>
      </trkpt>
      <trkpt lat="40.05172074772417545318603515625" lon="-1.05324874632060527801513671875">
        <ele>1575.800048828125</ele>
        <time>2020-08-22T12:22:46.000Z</time>
      </trkpt>
      <trkpt lat="40.05167816765606403350830078125" lon="-1.0532204993069171905517578125">
        <ele>1575.199951171875</ele>
        <time>2020-08-22T12:22:47.000Z</time>
      </trkpt>
      <trkpt lat="40.05159988068044185638427734375" lon="-1.0531407035887241363525390625">
        <ele>1574.199951171875</ele>
        <time>2020-08-22T12:22:49.000Z</time>
      </trkpt>
      <trkpt lat="40.05156316794455051422119140625" lon="-1.05308881960809230804443359375">
        <ele>1573.800048828125</ele>
        <time>2020-08-22T12:22:50.000Z</time>
      </trkpt>
      <trkpt lat="40.0515277124941349029541015625" lon="-1.053029559552669525146484375">
        <ele>1573</ele>
        <time>2020-08-22T12:22:51.000Z</time>
      </trkpt>
      <trkpt lat="40.05145780742168426513671875" lon="-1.0528986342251300811767578125">
        <ele>1571.199951171875</ele>
        <time>2020-08-22T12:22:53.000Z</time>
      </trkpt>
      <trkpt lat="40.0513820350170135498046875" lon="-1.05276326648890972137451171875">
        <ele>1570.199951171875</ele>
        <time>2020-08-22T12:22:55.000Z</time>
      </trkpt>
      <trkpt lat="40.05133668892085552215576171875" lon="-1.052699983119964599609375">
        <ele>1569.800048828125</ele>
        <time>2020-08-22T12:22:56.000Z</time>
      </trkpt>
      <trkpt lat="40.0512849725782871246337890625" lon="-1.052644662559032440185546875">
        <ele>1568.5999755859375</ele>
        <time>2020-08-22T12:22:57.000Z</time>
      </trkpt>
      <trkpt lat="40.05122956819832324981689453125" lon="-1.0525994002819061279296875">
        <ele>1567.800048828125</ele>
        <time>2020-08-22T12:22:58.000Z</time>
      </trkpt>
      <trkpt lat="40.05117139779031276702880859375" lon="-1.05256360955536365509033203125">
        <ele>1567</ele>
        <time>2020-08-22T12:22:59.000Z</time>
      </trkpt>
      <trkpt lat="40.0510536320507526397705078125" lon="-1.0525100491940975189208984375">
        <ele>1564.800048828125</ele>
        <time>2020-08-22T12:23:01.000Z</time>
      </trkpt>
      <trkpt lat="40.05095162428915500640869140625" lon="-1.05245112441480159759521484375">
        <ele>1563.5999755859375</ele>
        <time>2020-08-22T12:23:03.000Z</time>
      </trkpt>
      <trkpt lat="40.050699748098850250244140625" lon="-1.05225834064185619354248046875">
        <ele>1562.5999755859375</ele>
        <time>2020-08-22T12:23:09.000Z</time>
      </trkpt>
      <trkpt lat="40.05065725184977054595947265625" lon="-1.0522193647921085357666015625">
        <ele>1562.4000244140625</ele>
        <time>2020-08-22T12:23:10.000Z</time>
      </trkpt>
      <trkpt lat="40.05061802454292774200439453125" lon="-1.0521741025149822235107421875">
        <ele>1562.4000244140625</ele>
        <time>2020-08-22T12:23:11.000Z</time>
      </trkpt>
      <trkpt lat="40.05030739121139049530029296875" lon="-1.0517250001430511474609375">
        <ele>1561</ele>
        <time>2020-08-22T12:23:20.000Z</time>
      </trkpt>
      <trkpt lat="40.05021535791456699371337890625" lon="-1.05158560909330844879150390625">
        <ele>1559.5999755859375</ele>
        <time>2020-08-22T12:23:23.000Z</time>
      </trkpt>
      <trkpt lat="40.05017998628318309783935546875" lon="-1.0515501536428928375244140625">
        <ele>1558.800048828125</ele>
        <time>2020-08-22T12:23:24.000Z</time>
      </trkpt>
      <trkpt lat="40.0501406751573085784912109375" lon="-1.05151738040149211883544921875">
        <ele>1558.4000244140625</ele>
        <time>2020-08-22T12:23:25.000Z</time>
      </trkpt>
      <trkpt lat="40.0500570237636566162109375" lon="-1.0514515824615955352783203125">
        <ele>1557.199951171875</ele>
        <time>2020-08-22T12:23:27.000Z</time>
      </trkpt>
      <trkpt lat="40.04997027106583118438720703125" lon="-1.05138461105525493621826171875">
        <ele>1556</ele>
        <time>2020-08-22T12:23:29.000Z</time>
      </trkpt>
      <trkpt lat="40.0498801656067371368408203125" lon="-1.05130850337445735931396484375">
        <ele>1554.4000244140625</ele>
        <time>2020-08-22T12:23:31.000Z</time>
      </trkpt>
      <trkpt lat="40.049791820347309112548828125" lon="-1.05123725719749927520751953125">
        <ele>1553.4000244140625</ele>
        <time>2020-08-22T12:23:33.000Z</time>
      </trkpt>
      <trkpt lat="40.04966885782778263092041015625" lon="-1.05113550089299678802490234375">
        <ele>1551.800048828125</ele>
        <time>2020-08-22T12:23:36.000Z</time>
      </trkpt>
      <trkpt lat="40.04958562552928924560546875" lon="-1.05107984505593776702880859375">
        <ele>1550.199951171875</ele>
        <time>2020-08-22T12:23:38.000Z</time>
      </trkpt>
      <trkpt lat="40.04950239323079586029052734375" lon="-1.05103022418916225433349609375">
        <ele>1549.199951171875</ele>
        <time>2020-08-22T12:23:40.000Z</time>
      </trkpt>
      <trkpt lat="40.04942008294165134429931640625" lon="-1.0509781725704669952392578125">
        <ele>1548</ele>
        <time>2020-08-22T12:23:42.000Z</time>
      </trkpt>
      <trkpt lat="40.04937666468322277069091796875" lon="-1.05095093138515949249267578125">
        <ele>1546.4000244140625</ele>
        <time>2020-08-22T12:23:43.000Z</time>
      </trkpt>
      <trkpt lat="40.0493328273296356201171875" lon="-1.050918661057949066162109375">
        <ele>1545.4000244140625</ele>
        <time>2020-08-22T12:23:44.000Z</time>
      </trkpt>
      <trkpt lat="40.04924339242279529571533203125" lon="-1.05084381066262722015380859375">
        <ele>1544.4000244140625</ele>
        <time>2020-08-22T12:23:46.000Z</time>
      </trkpt>
      <trkpt lat="40.0491563044488430023193359375" lon="-1.05076988227665424346923828125">
        <ele>1543.199951171875</ele>
        <time>2020-08-22T12:23:48.000Z</time>
      </trkpt>
      <trkpt lat="40.04908405244350433349609375" lon="-1.05069763027131557464599609375">
        <ele>1541.5999755859375</ele>
        <time>2020-08-22T12:23:50.000Z</time>
      </trkpt>
      <trkpt lat="40.04905278794467449188232421875" lon="-1.05066644959151744842529296875">
        <ele>1540.199951171875</ele>
        <time>2020-08-22T12:23:51.000Z</time>
      </trkpt>
      <trkpt lat="40.04899361170828342437744140625" lon="-1.0506103746592998504638671875">
        <ele>1538.4000244140625</ele>
        <time>2020-08-22T12:23:53.000Z</time>
      </trkpt>
      <trkpt lat="40.04892672412097454071044921875" lon="-1.05054910294711589813232421875">
        <ele>1536.5999755859375</ele>
        <time>2020-08-22T12:23:55.000Z</time>
      </trkpt>
      <trkpt lat="40.0488914363086223602294921875" lon="-1.05051607824862003326416015625">
        <ele>1535.800048828125</ele>
        <time>2020-08-22T12:23:56.000Z</time>
      </trkpt>
      <trkpt lat="40.0488569028675556182861328125" lon="-1.050478778779506683349609375">
        <ele>1535.4000244140625</ele>
        <time>2020-08-22T12:23:57.000Z</time>
      </trkpt>
      <trkpt lat="40.04882278852164745330810546875" lon="-1.05043888092041015625">
        <ele>1534.4000244140625</ele>
        <time>2020-08-22T12:23:58.000Z</time>
      </trkpt>
      <trkpt lat="40.04875523038208484649658203125" lon="-1.0503398068249225616455078125">
        <ele>1532.5999755859375</ele>
        <time>2020-08-22T12:24:00.000Z</time>
      </trkpt>
      <trkpt lat="40.04867040552198886871337890625" lon="-1.050148867070674896240234375">
        <ele>1531.5999755859375</ele>
        <time>2020-08-22T12:24:03.000Z</time>
      </trkpt>
      <trkpt lat="40.0486258976161479949951171875" lon="-1.0500075481832027435302734375">
        <ele>1530.199951171875</ele>
        <time>2020-08-22T12:24:05.000Z</time>
      </trkpt>
      <trkpt lat="40.04858893342316150665283203125" lon="-1.0498702526092529296875">
        <ele>1528.800048828125</ele>
        <time>2020-08-22T12:24:07.000Z</time>
      </trkpt>
      <trkpt lat="40.04855565726757049560546875" lon="-1.04974008165299892425537109375">
        <ele>1527.5999755859375</ele>
        <time>2020-08-22T12:24:09.000Z</time>
      </trkpt>
      <trkpt lat="40.0485236383974552154541015625" lon="-1.04961879551410675048828125">
        <ele>1526</ele>
        <time>2020-08-22T12:24:11.000Z</time>
      </trkpt>
      <trkpt lat="40.04849170334637165069580078125" lon="-1.04949943721294403076171875">
        <ele>1524.4000244140625</ele>
        <time>2020-08-22T12:24:13.000Z</time>
      </trkpt>
      <trkpt lat="40.0484750233590602874755859375" lon="-1.0494382493197917938232421875">
        <ele>1523.4000244140625</ele>
        <time>2020-08-22T12:24:14.000Z</time>
      </trkpt>
      <trkpt lat="40.04844074137508869171142578125" lon="-1.049301624298095703125">
        <ele>1521.5999755859375</ele>
        <time>2020-08-22T12:24:16.000Z</time>
      </trkpt>
      <trkpt lat="40.04841811023652553558349609375" lon="-1.04914764873683452606201171875">
        <ele>1520.4000244140625</ele>
        <time>2020-08-22T12:24:18.000Z</time>
      </trkpt>
      <trkpt lat="40.0484066270291805267333984375" lon="-1.04899643920361995697021484375">
        <ele>1518.800048828125</ele>
        <time>2020-08-22T12:24:20.000Z</time>
      </trkpt>
      <trkpt lat="40.04840302281081676483154296875" lon="-1.04892234317958354949951171875">
        <ele>1517.5999755859375</ele>
        <time>2020-08-22T12:24:21.000Z</time>
      </trkpt>
      <trkpt lat="40.048393718898296356201171875" lon="-1.0487767495214939117431640625">
        <ele>1516.5999755859375</ele>
        <time>2020-08-22T12:24:23.000Z</time>
      </trkpt>
      <trkpt lat="40.04837804473936557769775390625" lon="-1.0485695488750934600830078125">
        <ele>1515.5999755859375</ele>
        <time>2020-08-22T12:24:26.000Z</time>
      </trkpt>
      <trkpt lat="40.04836848936975002288818359375" lon="-1.04850324802100658416748046875">
        <ele>1515.4000244140625</ele>
        <time>2020-08-22T12:24:27.000Z</time>
      </trkpt>
      <trkpt lat="40.048338733613491058349609375" lon="-1.0482971370220184326171875">
        <ele>1514</ele>
        <time>2020-08-22T12:24:30.000Z</time>
      </trkpt>
      <trkpt lat="40.04831870086491107940673828125" lon="-1.04815657250583171844482421875">
        <ele>1512.5999755859375</ele>
        <time>2020-08-22T12:24:32.000Z</time>
      </trkpt>
      <trkpt lat="40.0482867658138275146484375" lon="-1.0480126552283763885498046875">
        <ele>1511.4000244140625</ele>
        <time>2020-08-22T12:24:34.000Z</time>
      </trkpt>
      <trkpt lat="40.04824879579246044158935546875" lon="-1.0478725098073482513427734375">
        <ele>1510.199951171875</ele>
        <time>2020-08-22T12:24:36.000Z</time>
      </trkpt>
      <trkpt lat="40.048204958438873291015625" lon="-1.0477373935282230377197265625">
        <ele>1508.800048828125</ele>
        <time>2020-08-22T12:24:38.000Z</time>
      </trkpt>
      <trkpt lat="40.04816011525690555572509765625" lon="-1.04761208407580852508544921875">
        <ele>1506.800048828125</ele>
        <time>2020-08-22T12:24:40.000Z</time>
      </trkpt>
      <trkpt lat="40.04811150021851062774658203125" lon="-1.0475023649632930755615234375">
        <ele>1505.4000244140625</ele>
        <time>2020-08-22T12:24:42.000Z</time>
      </trkpt>
      <trkpt lat="40.04805852659046649932861328125" lon="-1.04740370996296405792236328125">
        <ele>1503.5999755859375</ele>
        <time>2020-08-22T12:24:44.000Z</time>
      </trkpt>
      <trkpt lat="40.04800052382051944732666015625" lon="-1.04730983264744281768798828125">
        <ele>1502.199951171875</ele>
        <time>2020-08-22T12:24:46.000Z</time>
      </trkpt>
      <trkpt lat="40.04784646444022655487060546875" lon="-1.0470923222601413726806640625">
        <ele>1500.800048828125</ele>
        <time>2020-08-22T12:24:51.000Z</time>
      </trkpt>
      <trkpt lat="40.04781679250299930572509765625" lon="-1.047048904001712799072265625">
        <ele>1499.4000244140625</ele>
        <time>2020-08-22T12:24:52.000Z</time>
      </trkpt>
      <trkpt lat="40.047786869108676910400390625" lon="-1.04700506664812564849853515625">
        <ele>1498.4000244140625</ele>
        <time>2020-08-22T12:24:53.000Z</time>
      </trkpt>
      <trkpt lat="40.04766759462654590606689453125" lon="-1.04683876968920230865478515625">
        <ele>1497.199951171875</ele>
        <time>2020-08-22T12:24:57.000Z</time>
      </trkpt>
      <trkpt lat="40.04750465042889118194580078125" lon="-1.0465927608311176300048828125">
        <ele>1496.199951171875</ele>
        <time>2020-08-22T12:25:03.000Z</time>
      </trkpt>
      <trkpt lat="40.04738579504191875457763671875" lon="-1.046389080584049224853515625">
        <ele>1494.800048828125</ele>
        <time>2020-08-22T12:25:08.000Z</time>
      </trkpt>
      <trkpt lat="40.04730314947664737701416015625" lon="-1.0462742485105991363525390625">
        <ele>1493.4000244140625</ele>
        <time>2020-08-22T12:25:11.000Z</time>
      </trkpt>
      <trkpt lat="40.04718228243291378021240234375" lon="-1.04610602371394634246826171875">
        <ele>1492</ele>
        <time>2020-08-22T12:25:15.000Z</time>
      </trkpt>
      <trkpt lat="40.04704716615378856658935546875" lon="-1.045937798917293548583984375">
        <ele>1490.800048828125</ele>
        <time>2020-08-22T12:25:19.000Z</time>
      </trkpt>
      <trkpt lat="40.04696720279753208160400390625" lon="-1.04584551416337490081787109375">
        <ele>1489.800048828125</ele>
        <time>2020-08-22T12:25:21.000Z</time>
      </trkpt>
      <trkpt lat="40.04687014035880565643310546875" lon="-1.0457314364612102508544921875">
        <ele>1488.5999755859375</ele>
        <time>2020-08-22T12:25:23.000Z</time>
      </trkpt>
      <trkpt lat="40.046760924160480499267578125" lon="-1.045608222484588623046875">
        <ele>1487</ele>
        <time>2020-08-22T12:25:25.000Z</time>
      </trkpt>
      <trkpt lat="40.04664852283895015716552734375" lon="-1.045476458966732025146484375">
        <ele>1485.4000244140625</ele>
        <time>2020-08-22T12:25:27.000Z</time>
      </trkpt>
      <trkpt lat="40.04653436131775379180908203125" lon="-1.04534645564854145050048828125">
        <ele>1484</ele>
        <time>2020-08-22T12:25:29.000Z</time>
      </trkpt>
      <trkpt lat="40.0463694892823696136474609375" lon="-1.04516138322651386260986328125">
        <ele>1482.800048828125</ele>
        <time>2020-08-22T12:25:32.000Z</time>
      </trkpt>
      <trkpt lat="40.04621216095983982086181640625" lon="-1.04499676264822483062744140625">
        <ele>1481.5999755859375</ele>
        <time>2020-08-22T12:25:35.000Z</time>
      </trkpt>
      <trkpt lat="40.0461565889418125152587890625" lon="-1.0449470579624176025390625">
        <ele>1480.4000244140625</ele>
        <time>2020-08-22T12:25:36.000Z</time>
      </trkpt>
      <trkpt lat="40.04603597335517406463623046875" lon="-1.0448520071804523468017578125">
        <ele>1478.4000244140625</ele>
        <time>2020-08-22T12:25:38.000Z</time>
      </trkpt>
      <trkpt lat="40.045975036919116973876953125" lon="-1.04480087757110595703125">
        <ele>1477.199951171875</ele>
        <time>2020-08-22T12:25:39.000Z</time>
      </trkpt>
      <trkpt lat="40.04585375078022480010986328125" lon="-1.04469300247728824615478515625">
        <ele>1475.4000244140625</ele>
        <time>2020-08-22T12:25:41.000Z</time>
      </trkpt>
      <trkpt lat="40.04567806608974933624267578125" lon="-1.0445254482328891754150390625">
        <ele>1474</ele>
        <time>2020-08-22T12:25:44.000Z</time>
      </trkpt>
      <trkpt lat="40.04562023095786571502685546875" lon="-1.0444657690823078155517578125">
        <ele>1473.4000244140625</ele>
        <time>2020-08-22T12:25:45.000Z</time>
      </trkpt>
      <trkpt lat="40.04550472833216190338134765625" lon="-1.044337190687656402587890625">
        <ele>1473</ele>
        <time>2020-08-22T12:25:47.000Z</time>
      </trkpt>
      <trkpt lat="40.04539459012448787689208984375" lon="-1.04420903138816356658935546875">
        <ele>1471.4000244140625</ele>
        <time>2020-08-22T12:25:49.000Z</time>
      </trkpt>
      <trkpt lat="40.04529451020061969757080078125" lon="-1.044090092182159423828125">
        <ele>1470.199951171875</ele>
        <time>2020-08-22T12:25:51.000Z</time>
      </trkpt>
      <trkpt lat="40.045195855200290679931640625" lon="-1.04398607276380062103271484375">
        <ele>1468.5999755859375</ele>
        <time>2020-08-22T12:25:53.000Z</time>
      </trkpt>
      <trkpt lat="40.04509284161031246185302734375" lon="-1.0438911058008670806884765625">
        <ele>1467.4000244140625</ele>
        <time>2020-08-22T12:25:55.000Z</time>
      </trkpt>
      <trkpt lat="40.04492101259529590606689453125" lon="-1.0437529720366001129150390625">
        <ele>1466.4000244140625</ele>
        <time>2020-08-22T12:25:58.000Z</time>
      </trkpt>
      <trkpt lat="40.04479260183870792388916015625" lon="-1.04366831481456756591796875">
        <ele>1466.199951171875</ele>
        <time>2020-08-22T12:26:00.000Z</time>
      </trkpt>
      <trkpt lat="40.04457701928913593292236328125" lon="-1.043566726148128509521484375">
        <ele>1465</ele>
        <time>2020-08-22T12:26:03.000Z</time>
      </trkpt>
      <trkpt lat="40.0444282405078411102294921875" lon="-1.04349740780889987945556640625">
        <ele>1463.4000244140625</ele>
        <time>2020-08-22T12:26:05.000Z</time>
      </trkpt>
      <trkpt lat="40.04420720972120761871337890625" lon="-1.04338022880256175994873046875">
        <ele>1462.199951171875</ele>
        <time>2020-08-22T12:26:08.000Z</time>
      </trkpt>
      <trkpt lat="40.0441382266581058502197265625" lon="-1.04333831928670406341552734375">
        <ele>1461</ele>
        <time>2020-08-22T12:26:09.000Z</time>
      </trkpt>
      <trkpt lat="40.04407494328916072845458984375" lon="-1.0432963259518146514892578125">
        <ele>1460</ele>
        <time>2020-08-22T12:26:10.000Z</time>
      </trkpt>
      <trkpt lat="40.0439652241766452789306640625" lon="-1.04320504702627658843994140625">
        <ele>1458.199951171875</ele>
        <time>2020-08-22T12:26:12.000Z</time>
      </trkpt>
      <trkpt lat="40.0438180379569530487060546875" lon="-1.0430700145661830902099609375">
        <ele>1457.199951171875</ele>
        <time>2020-08-22T12:26:15.000Z</time>
      </trkpt>
      <trkpt lat="40.04364662803709506988525390625" lon="-1.042944453656673431396484375">
        <ele>1456</ele>
        <time>2020-08-22T12:26:18.000Z</time>
      </trkpt>
      <trkpt lat="40.0432147085666656494140625" lon="-1.04269023053348064422607421875">
        <ele>1455</ele>
        <time>2020-08-22T12:26:24.000Z</time>
      </trkpt>
      <trkpt lat="40.04298730753362178802490234375" lon="-1.0426271148025989532470703125">
        <ele>1453</ele>
        <time>2020-08-22T12:26:27.000Z</time>
      </trkpt>
      <trkpt lat="40.04285386763513088226318359375" lon="-1.04258663021028041839599609375">
        <ele>1450.4000244140625</ele>
        <time>2020-08-22T12:26:29.000Z</time>
      </trkpt>
      <trkpt lat="40.0427951104938983917236328125" lon="-1.042563915252685546875">
        <ele>1449.4000244140625</ele>
        <time>2020-08-22T12:26:30.000Z</time>
      </trkpt>
      <trkpt lat="40.042694695293903350830078125" lon="-1.0425208322703838348388671875">
        <ele>1448.199951171875</ele>
        <time>2020-08-22T12:26:32.000Z</time>
      </trkpt>
      <trkpt lat="40.04265052266418933868408203125" lon="-1.0424980334937572479248046875">
        <ele>1448</ele>
        <time>2020-08-22T12:26:33.000Z</time>
      </trkpt>
      <trkpt lat="40.0425704754889011383056640625" lon="-1.04243407957255840301513671875">
        <ele>1447.4000244140625</ele>
        <time>2020-08-22T12:26:35.000Z</time>
      </trkpt>
      <trkpt lat="40.04250534810125827789306640625" lon="-1.04234154336154460906982421875">
        <ele>1447.199951171875</ele>
        <time>2020-08-22T12:26:37.000Z</time>
      </trkpt>
      <trkpt lat="40.04243795759975910186767578125" lon="-1.0421627573668956756591796875">
        <ele>1446.5999755859375</ele>
        <time>2020-08-22T12:26:40.000Z</time>
      </trkpt>
      <trkpt lat="40.0423344410955905914306640625" lon="-1.04198648594319820404052734375">
        <ele>1446.4000244140625</ele>
        <time>2020-08-22T12:26:43.000Z</time>
      </trkpt>
      <trkpt lat="40.0422455929219722747802734375" lon="-1.04189579375088214874267578125">
        <ele>1446.199951171875</ele>
        <time>2020-08-22T12:26:45.000Z</time>
      </trkpt>
      <trkpt lat="40.04219907335937023162841796875" lon="-1.04186260141432285308837890625">
        <ele>1446.199951171875</ele>
        <time>2020-08-22T12:26:46.000Z</time>
      </trkpt>
      <trkpt lat="40.0421533919870853424072265625" lon="-1.04183770716190338134765625">
        <ele>1446</ele>
        <time>2020-08-22T12:26:47.000Z</time>
      </trkpt>
      <trkpt lat="40.04194761626422405242919921875" lon="-1.0417714901268482208251953125">
        <ele>1445</ele>
        <time>2020-08-22T12:26:53.000Z</time>
      </trkpt>
      <trkpt lat="40.04146230407059192657470703125" lon="-1.0414787940680980682373046875">
        <ele>1445.199951171875</ele>
        <time>2020-08-22T12:27:13.000Z</time>
      </trkpt>
      <trkpt lat="40.041363649070262908935546875" lon="-1.0413349606096744537353515625">
        <ele>1446.4000244140625</ele>
        <time>2020-08-22T12:27:18.000Z</time>
      </trkpt>
      <trkpt lat="40.0412022136151790618896484375" lon="-1.04105592705309391021728515625">
        <ele>1447.4000244140625</ele>
        <time>2020-08-22T12:27:28.000Z</time>
      </trkpt>
      <trkpt lat="40.04107522778213024139404296875" lon="-1.0408296994864940643310546875">
        <ele>1448.4000244140625</ele>
        <time>2020-08-22T12:27:36.000Z</time>
      </trkpt>
      <trkpt lat="40.04085243679583072662353515625" lon="-1.04042862541973590850830078125">
        <ele>1449.4000244140625</ele>
        <time>2020-08-22T12:27:49.000Z</time>
      </trkpt>
      <trkpt lat="40.04059142433106899261474609375" lon="-1.0398215241730213165283203125">
        <ele>1449.5999755859375</ele>
        <time>2020-08-22T12:28:07.000Z</time>
      </trkpt>
      <trkpt lat="40.0402004085481166839599609375" lon="-1.03933361358940601348876953125">
        <ele>1449.800048828125</ele>
        <time>2020-08-22T12:28:21.000Z</time>
      </trkpt>
      <trkpt lat="40.03966086544096469879150390625" lon="-1.0390306077897548675537109375">
        <ele>1449.800048828125</ele>
        <time>2020-08-22T12:28:33.000Z</time>
      </trkpt>
      <trkpt lat="40.0391265191137790679931640625" lon="-1.03878132998943328857421875">
        <ele>1448</ele>
        <time>2020-08-22T12:28:42.000Z</time>
      </trkpt>
      <trkpt lat="40.0390074960887432098388671875" lon="-1.03875459171831607818603515625">
        <ele>1447</ele>
        <time>2020-08-22T12:28:44.000Z</time>
      </trkpt>
      <trkpt lat="40.03864397294819355010986328125" lon="-1.03868250735104084014892578125">
        <ele>1445.800048828125</ele>
        <time>2020-08-22T12:28:49.000Z</time>
      </trkpt>
      <trkpt lat="40.03837793134152889251708984375" lon="-1.03858544491231441497802734375">
        <ele>1444.800048828125</ele>
        <time>2020-08-22T12:28:52.000Z</time>
      </trkpt>
      <trkpt lat="40.03828472457826137542724609375" lon="-1.03856281377375125885009765625">
        <ele>1443.5999755859375</ele>
        <time>2020-08-22T12:28:53.000Z</time>
      </trkpt>
      <trkpt lat="40.0381900928914546966552734375" lon="-1.0385528393089771270751953125">
        <ele>1443.199951171875</ele>
        <time>2020-08-22T12:28:54.000Z</time>
      </trkpt>
      <trkpt lat="40.038095377385616302490234375" lon="-1.0385622270405292510986328125">
        <ele>1442</ele>
        <time>2020-08-22T12:28:55.000Z</time>
      </trkpt>
      <trkpt lat="40.03800476901233196258544921875" lon="-1.03858326561748981475830078125">
        <ele>1441</ele>
        <time>2020-08-22T12:28:56.000Z</time>
      </trkpt>
      <trkpt lat="40.03782154060900211334228515625" lon="-1.03859969414770603179931640625">
        <ele>1439.800048828125</ele>
        <time>2020-08-22T12:28:58.000Z</time>
      </trkpt>
      <trkpt lat="40.037521384656429290771484375" lon="-1.0385890491306781768798828125">
        <ele>1438.5999755859375</ele>
        <time>2020-08-22T12:29:01.000Z</time>
      </trkpt>
      <trkpt lat="40.03730974160134792327880859375" lon="-1.038621403276920318603515625">
        <ele>1438.4000244140625</ele>
        <time>2020-08-22T12:29:03.000Z</time>
      </trkpt>
      <trkpt lat="40.0370799936354160308837890625" lon="-1.038675047457218170166015625">
        <ele>1437</ele>
        <time>2020-08-22T12:29:05.000Z</time>
      </trkpt>
      <trkpt lat="40.0369613058865070343017578125" lon="-1.0386832617223262786865234375">
        <ele>1436.199951171875</ele>
        <time>2020-08-22T12:29:06.000Z</time>
      </trkpt>
      <trkpt lat="40.036848150193691253662109375" lon="-1.0386792384088039398193359375">
        <ele>1435.800048828125</ele>
        <time>2020-08-22T12:29:07.000Z</time>
      </trkpt>
      <trkpt lat="40.0366394408047199249267578125" lon="-1.0386465489864349365234375">
        <ele>1434.4000244140625</ele>
        <time>2020-08-22T12:29:09.000Z</time>
      </trkpt>
      <trkpt lat="40.0365388579666614532470703125" lon="-1.03864076547324657440185546875">
        <ele>1434.199951171875</ele>
        <time>2020-08-22T12:29:10.000Z</time>
      </trkpt>
      <trkpt lat="40.03643500618636608123779296875" lon="-1.038644872605800628662109375">
        <ele>1432.800048828125</ele>
        <time>2020-08-22T12:29:11.000Z</time>
      </trkpt>
      <trkpt lat="40.03633090294897556304931640625" lon="-1.038668341934680938720703125">
        <ele>1431.199951171875</ele>
        <time>2020-08-22T12:29:12.000Z</time>
      </trkpt>
      <trkpt lat="40.0361444056034088134765625" lon="-1.038779318332672119140625">
        <ele>1429.5999755859375</ele>
        <time>2020-08-22T12:29:14.000Z</time>
      </trkpt>
      <trkpt lat="40.03605463542044162750244140625" lon="-1.03885509073734283447265625">
        <ele>1428.5999755859375</ele>
        <time>2020-08-22T12:29:15.000Z</time>
      </trkpt>
      <trkpt lat="40.03586000762879848480224609375" lon="-1.03900906629860401153564453125">
        <ele>1426.800048828125</ele>
        <time>2020-08-22T12:29:17.000Z</time>
      </trkpt>
      <trkpt lat="40.0357412360608577728271484375" lon="-1.0390621237456798553466796875">
        <ele>1425.4000244140625</ele>
        <time>2020-08-22T12:29:18.000Z</time>
      </trkpt>
      <trkpt lat="40.0356133282184600830078125" lon="-1.03909112513065338134765625">
        <ele>1424.5999755859375</ele>
        <time>2020-08-22T12:29:19.000Z</time>
      </trkpt>
      <trkpt lat="40.03548097796738147735595703125" lon="-1.03910294361412525177001953125">
        <ele>1424</ele>
        <time>2020-08-22T12:29:20.000Z</time>
      </trkpt>
      <trkpt lat="40.03534602932631969451904296875" lon="-1.03909607045352458953857421875">
        <ele>1423</ele>
        <time>2020-08-22T12:29:21.000Z</time>
      </trkpt>
      <trkpt lat="40.03521476872265338897705078125" lon="-1.0390658117830753326416015625">
        <ele>1421.5999755859375</ele>
        <time>2020-08-22T12:29:22.000Z</time>
      </trkpt>
      <trkpt lat="40.0350911356508731842041015625" lon="-1.03902549482882022857666015625">
        <ele>1419.800048828125</ele>
        <time>2020-08-22T12:29:23.000Z</time>
      </trkpt>
      <trkpt lat="40.034977979958057403564453125" lon="-1.0389940626919269561767578125">
        <ele>1417.800048828125</ele>
        <time>2020-08-22T12:29:24.000Z</time>
      </trkpt>
      <trkpt lat="40.03487815149128437042236328125" lon="-1.0389927215874195098876953125">
        <ele>1416.800048828125</ele>
        <time>2020-08-22T12:29:25.000Z</time>
      </trkpt>
      <trkpt lat="40.0347910635173320770263671875" lon="-1.03902675211429595947265625">
        <ele>1414.199951171875</ele>
        <time>2020-08-22T12:29:26.000Z</time>
      </trkpt>
      <trkpt lat="40.03472794778645038604736328125" lon="-1.0391003452241420745849609375">
        <ele>1411.800048828125</ele>
        <time>2020-08-22T12:29:27.000Z</time>
      </trkpt>
      <trkpt lat="40.03468000330030918121337890625" lon="-1.03919506072998046875">
        <ele>1409.5999755859375</ele>
        <time>2020-08-22T12:29:28.000Z</time>
      </trkpt>
      <trkpt lat="40.0346391834318637847900390625" lon="-1.0392968170344829559326171875">
        <ele>1408</ele>
        <time>2020-08-22T12:29:29.000Z</time>
      </trkpt>
      <trkpt lat="40.034558214247226715087890625" lon="-1.03951248340308666229248046875">
        <ele>1406.4000244140625</ele>
        <time>2020-08-22T12:29:31.000Z</time>
      </trkpt>
      <trkpt lat="40.03445302136242389678955078125" lon="-1.03974290192127227783203125">
        <ele>1405.5999755859375</ele>
        <time>2020-08-22T12:29:33.000Z</time>
      </trkpt>
      <trkpt lat="40.0343763269484043121337890625" lon="-1.03984482586383819580078125">
        <ele>1405</ele>
        <time>2020-08-22T12:29:34.000Z</time>
      </trkpt>
      <trkpt lat="40.03409964032471179962158203125" lon="-1.04011715389788150787353515625">
        <ele>1404</ele>
        <time>2020-08-22T12:29:37.000Z</time>
      </trkpt>
      <trkpt lat="40.03392286598682403564453125" lon="-1.040263585746288299560546875">
        <ele>1402.5999755859375</ele>
        <time>2020-08-22T12:29:39.000Z</time>
      </trkpt>
      <trkpt lat="40.03383879549801349639892578125" lon="-1.04033055715262889862060546875">
        <ele>1401.199951171875</ele>
        <time>2020-08-22T12:29:40.000Z</time>
      </trkpt>
      <trkpt lat="40.0336826406419277191162109375" lon="-1.04046466760337352752685546875">
        <ele>1399</ele>
        <time>2020-08-22T12:29:42.000Z</time>
      </trkpt>
      <trkpt lat="40.0335290841758251190185546875" lon="-1.040576063096523284912109375">
        <ele>1397.5999755859375</ele>
        <time>2020-08-22T12:29:44.000Z</time>
      </trkpt>
      <trkpt lat="40.033450461924076080322265625" lon="-1.04062090627849102020263671875">
        <ele>1397.199951171875</ele>
        <time>2020-08-22T12:29:45.000Z</time>
      </trkpt>
      <trkpt lat="40.0332860089838504791259765625" lon="-1.04069366119801998138427734375">
        <ele>1396</ele>
        <time>2020-08-22T12:29:47.000Z</time>
      </trkpt>
      <trkpt lat="40.03319171257317066192626953125" lon="-1.04071109555661678314208984375">
        <ele>1395.4000244140625</ele>
        <time>2020-08-22T12:29:48.000Z</time>
      </trkpt>
      <trkpt lat="40.03297545947134494781494140625" lon="-1.040692739188671112060546875">
        <ele>1394.800048828125</ele>
        <time>2020-08-22T12:29:50.000Z</time>
      </trkpt>
      <trkpt lat="40.032606907188892364501953125" lon="-1.0406412743031978607177734375">
        <ele>1393.199951171875</ele>
        <time>2020-08-22T12:29:53.000Z</time>
      </trkpt>
      <trkpt lat="40.03235536627471446990966796875" lon="-1.040595509111881256103515625">
        <ele>1390.4000244140625</ele>
        <time>2020-08-22T12:29:55.000Z</time>
      </trkpt>
      <trkpt lat="40.03223709762096405029296875" lon="-1.04055368341505527496337890625">
        <ele>1389.199951171875</ele>
        <time>2020-08-22T12:29:56.000Z</time>
      </trkpt>
      <trkpt lat="40.03212511539459228515625" lon="-1.0405021347105503082275390625">
        <ele>1387.800048828125</ele>
        <time>2020-08-22T12:29:57.000Z</time>
      </trkpt>
      <trkpt lat="40.03201849758625030517578125" lon="-1.04045125655829906463623046875">
        <ele>1386</ele>
        <time>2020-08-22T12:29:58.000Z</time>
      </trkpt>
      <trkpt lat="40.031915567815303802490234375" lon="-1.0404085926711559295654296875">
        <ele>1383.5999755859375</ele>
        <time>2020-08-22T12:29:59.000Z</time>
      </trkpt>
      <trkpt lat="40.03181775100529193878173828125" lon="-1.040376238524913787841796875">
        <ele>1381</ele>
        <time>2020-08-22T12:30:00.000Z</time>
      </trkpt>
      <trkpt lat="40.0317263044416904449462890625" lon="-1.0403458960354328155517578125">
        <ele>1379.800048828125</ele>
        <time>2020-08-22T12:30:01.000Z</time>
      </trkpt>
      <trkpt lat="40.031643323600292205810546875" lon="-1.04030021466314792633056640625">
        <ele>1379</ele>
        <time>2020-08-22T12:30:02.000Z</time>
      </trkpt>
      <trkpt lat="40.031569898128509521484375" lon="-1.0402312316000461578369140625">
        <ele>1378.4000244140625</ele>
        <time>2020-08-22T12:30:03.000Z</time>
      </trkpt>
      <trkpt lat="40.03150351345539093017578125" lon="-1.04014389216899871826171875">
        <ele>1377.5999755859375</ele>
        <time>2020-08-22T12:30:04.000Z</time>
      </trkpt>
      <trkpt lat="40.031445510685443878173828125" lon="-1.04004154913127422332763671875">
        <ele>1376.4000244140625</ele>
        <time>2020-08-22T12:30:05.000Z</time>
      </trkpt>
      <trkpt lat="40.03139798529446125030517578125" lon="-1.03992571122944355010986328125">
        <ele>1375.4000244140625</ele>
        <time>2020-08-22T12:30:06.000Z</time>
      </trkpt>
      <trkpt lat="40.03136278130114078521728515625" lon="-1.03980031795799732208251953125">
        <ele>1374.199951171875</ele>
        <time>2020-08-22T12:30:07.000Z</time>
      </trkpt>
      <trkpt lat="40.0313377194106578826904296875" lon="-1.03967073373496532440185546875">
        <ele>1372.800048828125</ele>
        <time>2020-08-22T12:30:08.000Z</time>
      </trkpt>
      <trkpt lat="40.0312964804470539093017578125" lon="-1.03941424749791622161865234375">
        <ele>1371.4000244140625</ele>
        <time>2020-08-22T12:30:10.000Z</time>
      </trkpt>
      <trkpt lat="40.0312606059014797210693359375" lon="-1.0391744412481784820556640625">
        <ele>1369.5999755859375</ele>
        <time>2020-08-22T12:30:12.000Z</time>
      </trkpt>
      <trkpt lat="40.03124258480966091156005859375" lon="-1.03896397165954113006591796875">
        <ele>1368.199951171875</ele>
        <time>2020-08-22T12:30:14.000Z</time>
      </trkpt>
      <trkpt lat="40.03123956732451915740966796875" lon="-1.038875542581081390380859375">
        <ele>1367</ele>
        <time>2020-08-22T12:30:15.000Z</time>
      </trkpt>
      <trkpt lat="40.03123051486909389495849609375" lon="-1.0387999378144741058349609375">
        <ele>1366</ele>
        <time>2020-08-22T12:30:16.000Z</time>
      </trkpt>
      <trkpt lat="40.031204111874103546142578125" lon="-1.0387405939400196075439453125">
        <ele>1365.4000244140625</ele>
        <time>2020-08-22T12:30:17.000Z</time>
      </trkpt>
      <trkpt lat="40.03115708939731121063232421875" lon="-1.03870899416506290435791015625">
        <ele>1364.800048828125</ele>
        <time>2020-08-22T12:30:18.000Z</time>
      </trkpt>
      <trkpt lat="40.031098835170269012451171875" lon="-1.03870899416506290435791015625">
        <ele>1364</ele>
        <time>2020-08-22T12:30:19.000Z</time>
      </trkpt>
      <trkpt lat="40.03104208968579769134521484375" lon="-1.03875987231731414794921875">
        <ele>1363</ele>
        <time>2020-08-22T12:30:20.000Z</time>
      </trkpt>
      <trkpt lat="40.03098559565842151641845703125" lon="-1.03884813375771045684814453125">
        <ele>1361.800048828125</ele>
        <time>2020-08-22T12:30:21.000Z</time>
      </trkpt>
      <trkpt lat="40.0308472104370594024658203125" lon="-1.03903790004551410675048828125">
        <ele>1360.800048828125</ele>
        <time>2020-08-22T12:30:23.000Z</time>
      </trkpt>
      <trkpt lat="40.03076263703405857086181640625" lon="-1.03912859223783016204833984375">
        <ele>1360.5999755859375</ele>
        <time>2020-08-22T12:30:24.000Z</time>
      </trkpt>
      <trkpt lat="40.030559711158275604248046875" lon="-1.03925297968089580535888671875">
        <ele>1359.4000244140625</ele>
        <time>2020-08-22T12:30:26.000Z</time>
      </trkpt>
      <trkpt lat="40.03044144250452518463134765625" lon="-1.03926680982112884521484375">
        <ele>1358</ele>
        <time>2020-08-22T12:30:27.000Z</time>
      </trkpt>
      <trkpt lat="40.030319653451442718505859375" lon="-1.03924040682613849639892578125">
        <ele>1356.5999755859375</ele>
        <time>2020-08-22T12:30:28.000Z</time>
      </trkpt>
      <trkpt lat="40.03020088188350200653076171875" lon="-1.03919346816837787628173828125">
        <ele>1354.5999755859375</ele>
        <time>2020-08-22T12:30:29.000Z</time>
      </trkpt>
      <trkpt lat="40.03008596599102020263671875" lon="-1.03914099745452404022216796875">
        <ele>1352.800048828125</ele>
        <time>2020-08-22T12:30:30.000Z</time>
      </trkpt>
      <trkpt lat="40.029977001249790191650390625" lon="-1.0390936397016048431396484375">
        <ele>1351.199951171875</ele>
        <time>2020-08-22T12:30:31.000Z</time>
      </trkpt>
      <trkpt lat="40.02987532876431941986083984375" lon="-1.03906053118407726287841796875">
        <ele>1350.199951171875</ele>
        <time>2020-08-22T12:30:32.000Z</time>
      </trkpt>
      <trkpt lat="40.02977776341140270233154296875" lon="-1.03904812596738338470458984375">
        <ele>1349</ele>
        <time>2020-08-22T12:30:33.000Z</time>
      </trkpt>
      <trkpt lat="40.02967894077301025390625" lon="-1.039076708257198333740234375">
        <ele>1347.4000244140625</ele>
        <time>2020-08-22T12:30:34.000Z</time>
      </trkpt>
      <trkpt lat="40.029582045972347259521484375" lon="-1.03913445957005023956298828125">
        <ele>1346.199951171875</ele>
        <time>2020-08-22T12:30:35.000Z</time>
      </trkpt>
      <trkpt lat="40.0294836424291133880615234375" lon="-1.0392056219279766082763671875">
        <ele>1343.800048828125</ele>
        <time>2020-08-22T12:30:36.000Z</time>
      </trkpt>
      <trkpt lat="40.0293810479342937469482421875" lon="-1.03927695192396640777587890625">
        <ele>1342.5999755859375</ele>
        <time>2020-08-22T12:30:37.000Z</time>
      </trkpt>
      <trkpt lat="40.0292777828872203826904296875" lon="-1.0393492877483367919921875">
        <ele>1340.800048828125</ele>
        <time>2020-08-22T12:30:38.000Z</time>
      </trkpt>
      <trkpt lat="40.0291708298027515411376953125" lon="-1.0394248925149440765380859375">
        <ele>1339.800048828125</ele>
        <time>2020-08-22T12:30:39.000Z</time>
      </trkpt>
      <trkpt lat="40.02896212041378021240234375" lon="-1.0395891778171062469482421875">
        <ele>1338.5999755859375</ele>
        <time>2020-08-22T12:30:41.000Z</time>
      </trkpt>
      <trkpt lat="40.02875299192965030670166015625" lon="-1.03973141871392726898193359375">
        <ele>1336.199951171875</ele>
        <time>2020-08-22T12:30:43.000Z</time>
      </trkpt>
      <trkpt lat="40.02864561975002288818359375" lon="-1.03979646228253841400146484375">
        <ele>1334</ele>
        <time>2020-08-22T12:30:44.000Z</time>
      </trkpt>
      <trkpt lat="40.0285384990274906158447265625" lon="-1.03984843008220195770263671875">
        <ele>1332.199951171875</ele>
        <time>2020-08-22T12:30:45.000Z</time>
      </trkpt>
      <trkpt lat="40.02843162976205348968505859375" lon="-1.039886064827442169189453125">
        <ele>1330.800048828125</ele>
        <time>2020-08-22T12:30:46.000Z</time>
      </trkpt>
      <trkpt lat="40.0283259339630603790283203125" lon="-1.0399247892200946807861328125">
        <ele>1328.199951171875</ele>
        <time>2020-08-22T12:30:47.000Z</time>
      </trkpt>
      <trkpt lat="40.0282203219830989837646484375" lon="-1.0399782657623291015625">
        <ele>1326.800048828125</ele>
        <time>2020-08-22T12:30:48.000Z</time>
      </trkpt>
      <trkpt lat="40.0281147100031375885009765625" lon="-1.04004205204546451568603515625">
        <ele>1324.5999755859375</ele>
        <time>2020-08-22T12:30:49.000Z</time>
      </trkpt>
      <trkpt lat="40.028007924556732177734375" lon="-1.040107347071170806884765625">
        <ele>1322.800048828125</ele>
        <time>2020-08-22T12:30:50.000Z</time>
      </trkpt>
      <trkpt lat="40.02790155820548534393310546875" lon="-1.04017180390655994415283203125">
        <ele>1321.5999755859375</ele>
        <time>2020-08-22T12:30:51.000Z</time>
      </trkpt>
      <trkpt lat="40.02780097536742687225341796875" lon="-1.04024581611156463623046875">
        <ele>1320.5999755859375</ele>
        <time>2020-08-22T12:30:52.000Z</time>
      </trkpt>
      <trkpt lat="40.02770743332803249359130859375" lon="-1.0403314791619777679443359375">
        <ele>1318.199951171875</ele>
        <time>2020-08-22T12:30:53.000Z</time>
      </trkpt>
      <trkpt lat="40.027620010077953338623046875" lon="-1.04042879305779933929443359375">
        <ele>1317.4000244140625</ele>
        <time>2020-08-22T12:30:54.000Z</time>
      </trkpt>
      <trkpt lat="40.0275397114455699920654296875" lon="-1.04053842835128307342529296875">
        <ele>1316.199951171875</ele>
        <time>2020-08-22T12:30:55.000Z</time>
      </trkpt>
      <trkpt lat="40.027461089193820953369140625" lon="-1.04065409861505031585693359375">
        <ele>1313.4000244140625</ele>
        <time>2020-08-22T12:30:56.000Z</time>
      </trkpt>
      <trkpt lat="40.02737601287662982940673828125" lon="-1.04076390154659748077392578125">
        <ele>1312</ele>
        <time>2020-08-22T12:30:57.000Z</time>
      </trkpt>
      <trkpt lat="40.02728347666561603546142578125" lon="-1.040863730013370513916015625">
        <ele>1310.800048828125</ele>
        <time>2020-08-22T12:30:58.000Z</time>
      </trkpt>
      <trkpt lat="40.02719026990234851837158203125" lon="-1.0409628041088581085205078125">
        <ele>1309.4000244140625</ele>
        <time>2020-08-22T12:30:59.000Z</time>
      </trkpt>
      <trkpt lat="40.02710343338549137115478515625" lon="-1.0410685837268829345703125">
        <ele>1308.199951171875</ele>
        <time>2020-08-22T12:31:00.000Z</time>
      </trkpt>
      <trkpt lat="40.02702045254409313201904296875" lon="-1.04118148796260356903076171875">
        <ele>1306</ele>
        <time>2020-08-22T12:31:01.000Z</time>
      </trkpt>
      <trkpt lat="40.0269352085888385772705078125" lon="-1.0412937216460704803466796875">
        <ele>1304.800048828125</ele>
        <time>2020-08-22T12:31:02.000Z</time>
      </trkpt>
      <trkpt lat="40.02684292383491992950439453125" lon="-1.04139790870249271392822265625">
        <ele>1303</ele>
        <time>2020-08-22T12:31:03.000Z</time>
      </trkpt>
      <trkpt lat="40.02674334682524204254150390625" lon="-1.041489355266094207763671875">
        <ele>1301</ele>
        <time>2020-08-22T12:31:04.000Z</time>
      </trkpt>
      <trkpt lat="40.0266374833881855010986328125" lon="-1.04156420566141605377197265625">
        <ele>1297.800048828125</ele>
        <time>2020-08-22T12:31:05.000Z</time>
      </trkpt>
      <trkpt lat="40.02652642317116260528564453125" lon="-1.0416152514517307281494140625">
        <ele>1295.5999755859375</ele>
        <time>2020-08-22T12:31:06.000Z</time>
      </trkpt>
      <trkpt lat="40.0264111720025539398193359375" lon="-1.04163327254354953765869140625">
        <ele>1294.5999755859375</ele>
        <time>2020-08-22T12:31:07.000Z</time>
      </trkpt>
      <trkpt lat="40.0262938253581523895263671875" lon="-1.04161986149847507476806640625">
        <ele>1293.4000244140625</ele>
        <time>2020-08-22T12:31:08.000Z</time>
      </trkpt>
      <trkpt lat="40.0261771492660045623779296875" lon="-1.0415907762944698333740234375">
        <ele>1291.5999755859375</ele>
        <time>2020-08-22T12:31:09.000Z</time>
      </trkpt>
      <trkpt lat="40.026060976088047027587890625" lon="-1.0415594279766082763671875">
        <ele>1290</ele>
        <time>2020-08-22T12:31:10.000Z</time>
      </trkpt>
      <trkpt lat="40.02594597637653350830078125" lon="-1.041549034416675567626953125">
        <ele>1288.800048828125</ele>
        <time>2020-08-22T12:31:11.000Z</time>
      </trkpt>
      <trkpt lat="40.0258328206837177276611328125" lon="-1.04156604968011379241943359375">
        <ele>1287.5999755859375</ele>
        <time>2020-08-22T12:31:12.000Z</time>
      </trkpt>
      <trkpt lat="40.025722682476043701171875" lon="-1.0415969789028167724609375">
        <ele>1285.199951171875</ele>
        <time>2020-08-22T12:31:13.000Z</time>
      </trkpt>
      <trkpt lat="40.02561564557254314422607421875" lon="-1.04162891395390033721923828125">
        <ele>1283.199951171875</ele>
        <time>2020-08-22T12:31:14.000Z</time>
      </trkpt>
      <trkpt lat="40.0255094468593597412109375" lon="-1.04165690951049327850341796875">
        <ele>1282.199951171875</ele>
        <time>2020-08-22T12:31:15.000Z</time>
      </trkpt>
      <trkpt lat="40.02531238831579685211181640625" lon="-1.04172782041132450103759765625">
        <ele>1280.5999755859375</ele>
        <time>2020-08-22T12:31:17.000Z</time>
      </trkpt>
      <trkpt lat="40.025217421352863311767578125" lon="-1.04178138077259063720703125">
        <ele>1280</ele>
        <time>2020-08-22T12:31:18.000Z</time>
      </trkpt>
      <trkpt lat="40.02512379549443721771240234375" lon="-1.0418356955051422119140625">
        <ele>1279.5999755859375</ele>
        <time>2020-08-22T12:31:19.000Z</time>
      </trkpt>
      <trkpt lat="40.024770833551883697509765625" lon="-1.0420591570436954498291015625">
        <ele>1278.199951171875</ele>
        <time>2020-08-22T12:31:23.000Z</time>
      </trkpt>
      <trkpt lat="40.0243292748928070068359375" lon="-1.04253767989575862884521484375">
        <ele>1277</ele>
        <time>2020-08-22T12:31:29.000Z</time>
      </trkpt>
      <trkpt lat="40.02399860881268978118896484375" lon="-1.04296884499490261077880859375">
        <ele>1276</ele>
        <time>2020-08-22T12:31:34.000Z</time>
      </trkpt>
      <trkpt lat="40.0235093571245670318603515625" lon="-1.043445356190204620361328125">
        <ele>1275</ele>
        <time>2020-08-22T12:31:41.000Z</time>
      </trkpt>
      <trkpt lat="40.02324096858501434326171875" lon="-1.04370946995913982391357421875">
        <ele>1273.4000244140625</ele>
        <time>2020-08-22T12:31:45.000Z</time>
      </trkpt>
      <trkpt lat="40.023135356605052947998046875" lon="-1.04388314299285411834716796875">
        <ele>1272.199951171875</ele>
        <time>2020-08-22T12:31:47.000Z</time>
      </trkpt>
      <trkpt lat="40.02298272214829921722412109375" lon="-1.04415915906429290771484375">
        <ele>1271.199951171875</ele>
        <time>2020-08-22T12:31:50.000Z</time>
      </trkpt>
      <trkpt lat="40.0228163413703441619873046875" lon="-1.04429603554308414459228515625">
        <ele>1270</ele>
        <time>2020-08-22T12:31:52.000Z</time>
      </trkpt>
      <trkpt lat="40.0225818157196044921875" lon="-1.044358313083648681640625">
        <ele>1268.5999755859375</ele>
        <time>2020-08-22T12:31:54.000Z</time>
      </trkpt>
      <trkpt lat="40.0224472023546695709228515625" lon="-1.044357307255268096923828125">
        <ele>1267.4000244140625</ele>
        <time>2020-08-22T12:31:55.000Z</time>
      </trkpt>
      <trkpt lat="40.02217303030192852020263671875" lon="-1.04430659674108028411865234375">
        <ele>1265.199951171875</ele>
        <time>2020-08-22T12:31:57.000Z</time>
      </trkpt>
      <trkpt lat="40.0220438651740550994873046875" lon="-1.0442525334656238555908203125">
        <ele>1264</ele>
        <time>2020-08-22T12:31:58.000Z</time>
      </trkpt>
      <trkpt lat="40.02191788516938686370849609375" lon="-1.0441895015537738800048828125">
        <ele>1262.199951171875</ele>
        <time>2020-08-22T12:31:59.000Z</time>
      </trkpt>
      <trkpt lat="40.0217873789370059967041015625" lon="-1.0441345162689685821533203125">
        <ele>1259.199951171875</ele>
        <time>2020-08-22T12:32:00.000Z</time>
      </trkpt>
      <trkpt lat="40.0216556154191493988037109375" lon="-1.04409118182957172393798828125">
        <ele>1257.4000244140625</ele>
        <time>2020-08-22T12:32:01.000Z</time>
      </trkpt>
      <trkpt lat="40.0213890708982944488525390625" lon="-1.0440235398709774017333984375">
        <ele>1253.4000244140625</ele>
        <time>2020-08-22T12:32:03.000Z</time>
      </trkpt>
      <trkpt lat="40.0212536193430423736572265625" lon="-1.04400719515979290008544921875">
        <ele>1251.800048828125</ele>
        <time>2020-08-22T12:32:04.000Z</time>
      </trkpt>
      <trkpt lat="40.0211221911013126373291015625" lon="-1.04399763979017734527587890625">
        <ele>1249</ele>
        <time>2020-08-22T12:32:05.000Z</time>
      </trkpt>
      <trkpt lat="40.0209934450685977935791015625" lon="-1.044003255665302276611328125">
        <ele>1247</ele>
        <time>2020-08-22T12:32:06.000Z</time>
      </trkpt>
      <trkpt lat="40.0208692252635955810546875" lon="-1.04402010329067707061767578125">
        <ele>1245.4000244140625</ele>
        <time>2020-08-22T12:32:07.000Z</time>
      </trkpt>
      <trkpt lat="40.02063360996544361114501953125" lon="-1.04406570084393024444580078125">
        <ele>1243.800048828125</ele>
        <time>2020-08-22T12:32:09.000Z</time>
      </trkpt>
      <trkpt lat="40.02040595747530460357666015625" lon="-1.0441227816045284271240234375">
        <ele>1242.5999755859375</ele>
        <time>2020-08-22T12:32:11.000Z</time>
      </trkpt>
      <trkpt lat="40.02007730305194854736328125" lon="-1.044187657535076141357421875">
        <ele>1241.199951171875</ele>
        <time>2020-08-22T12:32:14.000Z</time>
      </trkpt>
      <trkpt lat="40.01944296061992645263671875" lon="-1.04426334612071514129638671875">
        <ele>1240.5999755859375</ele>
        <time>2020-08-22T12:32:20.000Z</time>
      </trkpt>
      <trkpt lat="40.0189713947474956512451171875" lon="-1.04434766806662082672119140625">
        <ele>1240.800048828125</ele>
        <time>2020-08-22T12:32:25.000Z</time>
      </trkpt>
      <trkpt lat="40.01835540868341922760009765625" lon="-1.04430190287530422210693359375">
        <ele>1240.800048828125</ele>
        <time>2020-08-22T12:32:32.000Z</time>
      </trkpt>
      <trkpt lat="40.01818609423935413360595703125" lon="-1.0443623363971710205078125">
        <ele>1240.4000244140625</ele>
        <time>2020-08-22T12:32:34.000Z</time>
      </trkpt>
      <trkpt lat="40.01810411922633647918701171875" lon="-1.044411621987819671630859375">
        <ele>1240</ele>
        <time>2020-08-22T12:32:35.000Z</time>
      </trkpt>
      <trkpt lat="40.0180207192897796630859375" lon="-1.04444724507629871368408203125">
        <ele>1236.800048828125</ele>
        <time>2020-08-22T12:32:36.000Z</time>
      </trkpt>
      <trkpt lat="40.0179353915154933929443359375" lon="-1.044462583959102630615234375">
        <ele>1234.800048828125</ele>
        <time>2020-08-22T12:32:37.000Z</time>
      </trkpt>
      <trkpt lat="40.01784629188477993011474609375" lon="-1.04446987621486186981201171875">
        <ele>1233.800048828125</ele>
        <time>2020-08-22T12:32:38.000Z</time>
      </trkpt>
      <trkpt lat="40.01775451004505157470703125" lon="-1.04446384124457836151123046875">
        <ele>1232.199951171875</ele>
        <time>2020-08-22T12:32:39.000Z</time>
      </trkpt>
      <trkpt lat="40.01766105182468891143798828125" lon="-1.04444925673305988311767578125">
        <ele>1231</ele>
        <time>2020-08-22T12:32:40.000Z</time>
      </trkpt>
      <trkpt lat="40.01745368354022502899169921875" lon="-1.04443534277379512786865234375">
        <ele>1228.4000244140625</ele>
        <time>2020-08-22T12:32:42.000Z</time>
      </trkpt>
      <trkpt lat="40.01733935438096523284912109375" lon="-1.04444573633372783660888671875">
        <ele>1227.5999755859375</ele>
        <time>2020-08-22T12:32:43.000Z</time>
      </trkpt>
      <trkpt lat="40.017227120697498321533203125" lon="-1.04446627199649810791015625">
        <ele>1227</ele>
        <time>2020-08-22T12:32:44.000Z</time>
      </trkpt>
      <trkpt lat="40.01711421646177768707275390625" lon="-1.04453525505959987640380859375">
        <ele>1226.5999755859375</ele>
        <time>2020-08-22T12:32:45.000Z</time>
      </trkpt>
      <trkpt lat="40.016906261444091796875" lon="-1.0447343252599239349365234375">
        <ele>1226.199951171875</ele>
        <time>2020-08-22T12:32:47.000Z</time>
      </trkpt>
      <trkpt lat="40.016824789345264434814453125" lon="-1.04483817704021930694580078125">
        <ele>1225.5999755859375</ele>
        <time>2020-08-22T12:32:48.000Z</time>
      </trkpt>
      <trkpt lat="40.01669629476964473724365234375" lon="-1.04499332606792449951171875">
        <ele>1224.4000244140625</ele>
        <time>2020-08-22T12:32:50.000Z</time>
      </trkpt>
      <trkpt lat="40.016640387475490570068359375" lon="-1.0449951700866222381591796875">
        <ele>1223</ele>
        <time>2020-08-22T12:32:51.000Z</time>
      </trkpt>
      <trkpt lat="40.01658464781939983367919921875" lon="-1.04496172629296779632568359375">
        <ele>1221.5999755859375</ele>
        <time>2020-08-22T12:32:52.000Z</time>
      </trkpt>
      <trkpt lat="40.0165406428277492523193359375" lon="-1.04488628916442394256591796875">
        <ele>1218.800048828125</ele>
        <time>2020-08-22T12:32:53.000Z</time>
      </trkpt>
      <trkpt lat="40.01644198782742023468017578125" lon="-1.044762991368770599365234375">
        <ele>1217.199951171875</ele>
        <time>2020-08-22T12:32:55.000Z</time>
      </trkpt>
      <trkpt lat="40.0163257308304309844970703125" lon="-1.04466341435909271240234375">
        <ele>1216.4000244140625</ele>
        <time>2020-08-22T12:32:57.000Z</time>
      </trkpt>
      <trkpt lat="40.01618918962776660919189453125" lon="-1.044610105454921722412109375">
        <ele>1216.199951171875</ele>
        <time>2020-08-22T12:32:59.000Z</time>
      </trkpt>
      <trkpt lat="40.0156263448297977447509765625" lon="-1.0445459000766277313232421875">
        <ele>1216.4000244140625</ele>
        <time>2020-08-22T12:33:08.000Z</time>
      </trkpt>
      <trkpt lat="40.0154077447950839996337890625" lon="-1.04445009492337703704833984375">
        <ele>1217.4000244140625</ele>
        <time>2020-08-22T12:33:13.000Z</time>
      </trkpt>
      <trkpt lat="40.0153618119657039642333984375" lon="-1.0444238595664501190185546875">
        <ele>1217.5999755859375</ele>
        <time>2020-08-22T12:33:14.000Z</time>
      </trkpt>
      <trkpt lat="40.01514245755970478057861328125" lon="-1.04417885653674602508544921875">
        <ele>1218.4000244140625</ele>
        <time>2020-08-22T12:33:19.000Z</time>
      </trkpt>
      <trkpt lat="40.014674328267574310302734375" lon="-1.04374601505696773529052734375">
        <ele>1217.800048828125</ele>
        <time>2020-08-22T12:33:29.000Z</time>
      </trkpt>
      <trkpt lat="40.01455463469028472900390625" lon="-1.04362246580421924591064453125">
        <ele>1217.199951171875</ele>
        <time>2020-08-22T12:33:32.000Z</time>
      </trkpt>
      <trkpt lat="40.01432756893336772918701171875" lon="-1.04339531622827053070068359375">
        <ele>1216.800048828125</ele>
        <time>2020-08-22T12:33:38.000Z</time>
      </trkpt>
      <trkpt lat="40.014239810407161712646484375" lon="-1.04334636591374874114990234375">
        <ele>1216.5999755859375</ele>
        <time>2020-08-22T12:33:40.000Z</time>
      </trkpt>
      <trkpt lat="40.01412279903888702392578125" lon="-1.04335357435047626495361328125">
        <ele>1216.4000244140625</ele>
        <time>2020-08-22T12:33:42.000Z</time>
      </trkpt>
      <trkpt lat="40.0139771215617656707763671875" lon="-1.04339749552309513092041015625">
        <ele>1216.199951171875</ele>
        <time>2020-08-22T12:33:44.000Z</time>
      </trkpt>
      <trkpt lat="40.0137068890035152435302734375" lon="-1.04344166815280914306640625">
        <ele>1216</ele>
        <time>2020-08-22T12:33:47.000Z</time>
      </trkpt>
      <trkpt lat="40.01351050101220607757568359375" lon="-1.043407134711742401123046875">
        <ele>1214.800048828125</ele>
        <time>2020-08-22T12:33:49.000Z</time>
      </trkpt>
      <trkpt lat="40.01331067644059658050537109375" lon="-1.04336095042526721954345703125">
        <ele>1213.4000244140625</ele>
        <time>2020-08-22T12:33:51.000Z</time>
      </trkpt>
      <trkpt lat="40.01311403699219226837158203125" lon="-1.04333932511508464813232421875">
        <ele>1210.199951171875</ele>
        <time>2020-08-22T12:33:53.000Z</time>
      </trkpt>
      <trkpt lat="40.01301705837249755859375" lon="-1.043330021202564239501953125">
        <ele>1209</ele>
        <time>2020-08-22T12:33:54.000Z</time>
      </trkpt>
      <trkpt lat="40.012932904064655303955078125" lon="-1.04331786744296550750732421875">
        <ele>1207.199951171875</ele>
        <time>2020-08-22T12:33:55.000Z</time>
      </trkpt>
      <trkpt lat="40.01285537146031856536865234375" lon="-1.04330495931208133697509765625">
        <ele>1206</ele>
        <time>2020-08-22T12:33:56.000Z</time>
      </trkpt>
      <trkpt lat="40.01270885579288005828857421875" lon="-1.04329104535281658172607421875">
        <ele>1204.4000244140625</ele>
        <time>2020-08-22T12:33:58.000Z</time>
      </trkpt>
      <trkpt lat="40.01255848444998264312744140625" lon="-1.04328366927802562713623046875">
        <ele>1203.4000244140625</ele>
        <time>2020-08-22T12:34:00.000Z</time>
      </trkpt>
      <trkpt lat="40.0124827958643436431884765625" lon="-1.04327159933745861053466796875">
        <ele>1203</ele>
        <time>2020-08-22T12:34:01.000Z</time>
      </trkpt>
      <trkpt lat="40.01233653165400028228759765625" lon="-1.04320705868303775787353515625">
        <ele>1202.199951171875</ele>
        <time>2020-08-22T12:34:03.000Z</time>
      </trkpt>
      <trkpt lat="40.012069903314113616943359375" lon="-1.042963229119777679443359375">
        <ele>1201.5999755859375</ele>
        <time>2020-08-22T12:34:07.000Z</time>
      </trkpt>
      <trkpt lat="40.01191240735352039337158203125" lon="-1.04289474897086620330810546875">
        <ele>1201</ele>
        <time>2020-08-22T12:34:09.000Z</time>
      </trkpt>
      <trkpt lat="40.0116586871445178985595703125" lon="-1.0428356565535068511962890625">
        <ele>1199.5999755859375</ele>
        <time>2020-08-22T12:34:12.000Z</time>
      </trkpt>
      <trkpt lat="40.0114809907972812652587890625" lon="-1.0428038053214550018310546875">
        <ele>1198.800048828125</ele>
        <time>2020-08-22T12:34:14.000Z</time>
      </trkpt>
      <trkpt lat="40.0113904662430286407470703125" lon="-1.0428064875304698944091796875">
        <ele>1198.5999755859375</ele>
        <time>2020-08-22T12:34:15.000Z</time>
      </trkpt>
      <trkpt lat="40.0113006122410297393798828125" lon="-1.0428225807845592498779296875">
        <ele>1198.4000244140625</ele>
        <time>2020-08-22T12:34:16.000Z</time>
      </trkpt>
      <trkpt lat="40.01103314571082592010498046875" lon="-1.04295107536017894744873046875">
        <ele>1197.4000244140625</ele>
        <time>2020-08-22T12:34:19.000Z</time>
      </trkpt>
      <trkpt lat="40.0109378434717655181884765625" lon="-1.0429872013628482818603515625">
        <ele>1197.199951171875</ele>
        <time>2020-08-22T12:34:20.000Z</time>
      </trkpt>
      <trkpt lat="40.01065009273588657379150390625" lon="-1.043020896613597869873046875">
        <ele>1196</ele>
        <time>2020-08-22T12:34:23.000Z</time>
      </trkpt>
      <trkpt lat="40.010554455220699310302734375" lon="-1.04302215389907360076904296875">
        <ele>1194.5999755859375</ele>
        <time>2020-08-22T12:34:24.000Z</time>
      </trkpt>
      <trkpt lat="40.01046133227646350860595703125" lon="-1.0430294461548328399658203125">
        <ele>1193.4000244140625</ele>
        <time>2020-08-22T12:34:25.000Z</time>
      </trkpt>
      <trkpt lat="40.01028455793857574462890625" lon="-1.04308786801993846893310546875">
        <ele>1192.199951171875</ele>
        <time>2020-08-22T12:34:27.000Z</time>
      </trkpt>
      <trkpt lat="40.01011733897030353546142578125" lon="-1.04318358935415744781494140625">
        <ele>1190.800048828125</ele>
        <time>2020-08-22T12:34:29.000Z</time>
      </trkpt>
      <trkpt lat="40.0100322626531124114990234375" lon="-1.04321996681392192840576171875">
        <ele>1190.4000244140625</ele>
        <time>2020-08-22T12:34:30.000Z</time>
      </trkpt>
      <trkpt lat="40.00962934456765651702880859375" lon="-1.04334234260022640228271484375">
        <ele>1189.5999755859375</ele>
        <time>2020-08-22T12:34:35.000Z</time>
      </trkpt>
      <trkpt lat="40.0091461278498172760009765625" lon="-1.0435243137180805206298828125">
        <ele>1188.800048828125</ele>
        <time>2020-08-22T12:34:41.000Z</time>
      </trkpt>
      <trkpt lat="40.0090002827346324920654296875" lon="-1.0436859168112277984619140625">
        <ele>1188.4000244140625</ele>
        <time>2020-08-22T12:34:43.000Z</time>
      </trkpt>
      <trkpt lat="40.0087773241102695465087890625" lon="-1.0441482625901699066162109375">
        <ele>1186.4000244140625</ele>
        <time>2020-08-22T12:34:47.000Z</time>
      </trkpt>
      <trkpt lat="40.00867598690092563629150390625" lon="-1.04438991285860538482666015625">
        <ele>1184.5999755859375</ele>
        <time>2020-08-22T12:34:49.000Z</time>
      </trkpt>
      <trkpt lat="40.0085640884935855865478515625" lon="-1.04462510906159877777099609375">
        <ele>1182.4000244140625</ele>
        <time>2020-08-22T12:34:51.000Z</time>
      </trkpt>
      <trkpt lat="40.00850935466587543487548828125" lon="-1.0447380132973194122314453125">
        <ele>1181.199951171875</ele>
        <time>2020-08-22T12:34:52.000Z</time>
      </trkpt>
      <trkpt lat="40.00845688395202159881591796875" lon="-1.0448416136205196380615234375">
        <ele>1179.800048828125</ele>
        <time>2020-08-22T12:34:53.000Z</time>
      </trkpt>
      <trkpt lat="40.008351020514965057373046875" lon="-1.04503297246992588043212890625">
        <ele>1178.5999755859375</ele>
        <time>2020-08-22T12:34:55.000Z</time>
      </trkpt>
      <trkpt lat="40.008234679698944091796875" lon="-1.04518719948828220367431640625">
        <ele>1177.199951171875</ele>
        <time>2020-08-22T12:34:57.000Z</time>
      </trkpt>
      <trkpt lat="40.00804566778242588043212890625" lon="-1.045270599424839019775390625">
        <ele>1176.4000244140625</ele>
        <time>2020-08-22T12:34:59.000Z</time>
      </trkpt>
      <trkpt lat="40.0078442506492137908935546875" lon="-1.04529029689729213714599609375">
        <ele>1176.199951171875</ele>
        <time>2020-08-22T12:35:01.000Z</time>
      </trkpt>
      <trkpt lat="40.00744468532502651214599609375" lon="-1.04531527496874332427978515625">
        <ele>1173.800048828125</ele>
        <time>2020-08-22T12:35:05.000Z</time>
      </trkpt>
      <trkpt lat="40.0073520652949810028076171875" lon="-1.0453331284224987030029296875">
        <ele>1172.800048828125</ele>
        <time>2020-08-22T12:35:06.000Z</time>
      </trkpt>
      <trkpt lat="40.00726145692169666290283203125" lon="-1.04535299353301525115966796875">
        <ele>1170.5999755859375</ele>
        <time>2020-08-22T12:35:07.000Z</time>
      </trkpt>
      <trkpt lat="40.00717529095709323883056640625" lon="-1.04536841623485088348388671875">
        <ele>1169.199951171875</ele>
        <time>2020-08-22T12:35:08.000Z</time>
      </trkpt>
      <trkpt lat="40.00709046609699726104736328125" lon="-1.0453834198415279388427734375">
        <ele>1167.800048828125</ele>
        <time>2020-08-22T12:35:09.000Z</time>
      </trkpt>
      <trkpt lat="40.00692064873874187469482421875" lon="-1.04539574123919010162353515625">
        <ele>1166.4000244140625</ele>
        <time>2020-08-22T12:35:11.000Z</time>
      </trkpt>
      <trkpt lat="40.00683632679283618927001953125" lon="-1.045388281345367431640625">
        <ele>1166.199951171875</ele>
        <time>2020-08-22T12:35:12.000Z</time>
      </trkpt>
      <trkpt lat="40.0065906532108783721923828125" lon="-1.0453321225941181182861328125">
        <ele>1165.199951171875</ele>
        <time>2020-08-22T12:35:15.000Z</time>
      </trkpt>
      <trkpt lat="40.0063383579254150390625" lon="-1.04523346759378910064697265625">
        <ele>1164</ele>
        <time>2020-08-22T12:35:18.000Z</time>
      </trkpt>
      <trkpt lat="40.006014816462993621826171875" lon="-1.04510555975139141082763671875">
        <ele>1163</ele>
        <time>2020-08-22T12:35:22.000Z</time>
      </trkpt>
      <trkpt lat="40.0056894309818744659423828125" lon="-1.04495435021817684173583984375">
        <ele>1161.5999755859375</ele>
        <time>2020-08-22T12:35:26.000Z</time>
      </trkpt>
      <trkpt lat="40.00555582344532012939453125" lon="-1.0448302142322063446044921875">
        <ele>1160.5999755859375</ele>
        <time>2020-08-22T12:35:28.000Z</time>
      </trkpt>
      <trkpt lat="40.0052185356616973876953125" lon="-1.0444379411637783050537109375">
        <ele>1159.5999755859375</ele>
        <time>2020-08-22T12:35:34.000Z</time>
      </trkpt>
      <trkpt lat="40.0049404241144657135009765625" lon="-1.04418589733541011810302734375">
        <ele>1159.4000244140625</ele>
        <time>2020-08-22T12:35:39.000Z</time>
      </trkpt>
      <trkpt lat="40.004822909832000732421875" lon="-1.04413040913641452789306640625">
        <ele>1159.4000244140625</ele>
        <time>2020-08-22T12:35:41.000Z</time>
      </trkpt>
      <trkpt lat="40.00429593957960605621337890625" lon="-1.04397484101355075836181640625">
        <ele>1159.199951171875</ele>
        <time>2020-08-22T12:35:49.000Z</time>
      </trkpt>
      <trkpt lat="40.00422268174588680267333984375" lon="-1.04396176524460315704345703125">
        <ele>1159.199951171875</ele>
        <time>2020-08-22T12:35:50.000Z</time>
      </trkpt>
      <trkpt lat="40.00407046638429164886474609375" lon="-1.0439869947731494903564453125">
        <ele>1159</ele>
        <time>2020-08-22T12:35:52.000Z</time>
      </trkpt>
      <trkpt lat="40.00359772704541683197021484375" lon="-1.0441851429641246795654296875">
        <ele>1158.5999755859375</ele>
        <time>2020-08-22T12:35:58.000Z</time>
      </trkpt>
      <trkpt lat="40.00325691886246204376220703125" lon="-1.04424842633306980133056640625">
        <ele>1157.4000244140625</ele>
        <time>2020-08-22T12:36:02.000Z</time>
      </trkpt>
      <trkpt lat="40.0029976665973663330078125" lon="-1.04433727450668811798095703125">
        <ele>1157</ele>
        <time>2020-08-22T12:36:05.000Z</time>
      </trkpt>
      <trkpt lat="40.0028439424932003021240234375" lon="-1.04446400888264179229736328125">
        <ele>1156.4000244140625</ele>
        <time>2020-08-22T12:36:07.000Z</time>
      </trkpt>
      <trkpt lat="40.00260849483311176300048828125" lon="-1.04467238299548625946044921875">
        <ele>1155</ele>
        <time>2020-08-22T12:36:10.000Z</time>
      </trkpt>
      <trkpt lat="40.00252266414463520050048828125" lon="-1.0447316430509090423583984375">
        <ele>1154.5999755859375</ele>
        <time>2020-08-22T12:36:11.000Z</time>
      </trkpt>
      <trkpt lat="40.00233046710491180419921875" lon="-1.0448030568659305572509765625">
        <ele>1154.199951171875</ele>
        <time>2020-08-22T12:36:13.000Z</time>
      </trkpt>
      <trkpt lat="40.0022380985319614410400390625" lon="-1.044785790145397186279296875">
        <ele>1153.199951171875</ele>
        <time>2020-08-22T12:36:14.000Z</time>
      </trkpt>
      <trkpt lat="40.0021512620151042938232421875" lon="-1.044757626950740814208984375">
        <ele>1152</ele>
        <time>2020-08-22T12:36:15.000Z</time>
      </trkpt>
      <trkpt lat="40.00207104720175266265869140625" lon="-1.04473558254539966583251953125">
        <ele>1151</ele>
        <time>2020-08-22T12:36:16.000Z</time>
      </trkpt>
      <trkpt lat="40.00200147740542888641357421875" lon="-1.0447370074689388275146484375">
        <ele>1150.4000244140625</ele>
        <time>2020-08-22T12:36:17.000Z</time>
      </trkpt>
      <trkpt lat="40.00193618237972259521484375" lon="-1.0447510890662670135498046875">
        <ele>1149.4000244140625</ele>
        <time>2020-08-22T12:36:18.000Z</time>
      </trkpt>
      <trkpt lat="40.001877509057521820068359375" lon="-1.04480347596108913421630859375">
        <ele>1148.800048828125</ele>
        <time>2020-08-22T12:36:19.000Z</time>
      </trkpt>
      <trkpt lat="40.001820512115955352783203125" lon="-1.04486851952970027923583984375">
        <ele>1148.4000244140625</ele>
        <time>2020-08-22T12:36:20.000Z</time>
      </trkpt>
      <trkpt lat="40.00169587321579456329345703125" lon="-1.045006401836872100830078125">
        <ele>1148</ele>
        <time>2020-08-22T12:36:22.000Z</time>
      </trkpt>
      <trkpt lat="40.00152538530528545379638671875" lon="-1.045074462890625">
        <ele>1147.800048828125</ele>
        <time>2020-08-22T12:36:24.000Z</time>
      </trkpt>
      <trkpt lat="40.001247860491275787353515625" lon="-1.04511209763586521148681640625">
        <ele>1147.4000244140625</ele>
        <time>2020-08-22T12:36:27.000Z</time>
      </trkpt>
      <trkpt lat="40.00089875422418117523193359375" lon="-1.04515836574137210845947265625">
        <ele>1146</ele>
        <time>2020-08-22T12:36:31.000Z</time>
      </trkpt>
      <trkpt lat="40.0008143484592437744140625" lon="-1.04514210484921932220458984375">
        <ele>1145</ele>
        <time>2020-08-22T12:36:32.000Z</time>
      </trkpt>
      <trkpt lat="40.00072977505624294281005859375" lon="-1.04511947371065616607666015625">
        <ele>1144.5999755859375</ele>
        <time>2020-08-22T12:36:33.000Z</time>
      </trkpt>
      <trkpt lat="40.00056012533605098724365234375" lon="-1.04506038129329681396484375">
        <ele>1143.4000244140625</ele>
        <time>2020-08-22T12:36:35.000Z</time>
      </trkpt>
      <trkpt lat="39.9999667704105377197265625" lon="-1.04493875987827777862548828125">
        <ele>1142.5999755859375</ele>
        <time>2020-08-22T12:36:42.000Z</time>
      </trkpt>
      <trkpt lat="39.99964364804327487945556640625" lon="-1.04489752091467380523681640625">
        <ele>1142.4000244140625</ele>
        <time>2020-08-22T12:36:46.000Z</time>
      </trkpt>
      <trkpt lat="39.999361597001552581787109375" lon="-1.04481219314038753509521484375">
        <ele>1141.199951171875</ele>
        <time>2020-08-22T12:36:50.000Z</time>
      </trkpt>
      <trkpt lat="39.99881283380091190338134765625" lon="-1.0446615703403949737548828125">
        <ele>1140.800048828125</ele>
        <time>2020-08-22T12:36:59.000Z</time>
      </trkpt>
      <trkpt lat="39.99832768924534320831298828125" lon="-1.04454330168664455413818359375">
        <ele>1140</ele>
        <time>2020-08-22T12:37:05.000Z</time>
      </trkpt>
      <trkpt lat="39.9980494938790798187255859375" lon="-1.044390834867954254150390625">
        <ele>1138.5999755859375</ele>
        <time>2020-08-22T12:37:08.000Z</time>
      </trkpt>
      <trkpt lat="39.99796307645738124847412109375" lon="-1.04432352818548679351806640625">
        <ele>1138</ele>
        <time>2020-08-22T12:37:09.000Z</time>
      </trkpt>
      <trkpt lat="39.997879676520824432373046875" lon="-1.04425060562789440155029296875">
        <ele>1137.199951171875</ele>
        <time>2020-08-22T12:37:10.000Z</time>
      </trkpt>
      <trkpt lat="39.9977953545749187469482421875" lon="-1.04417885653674602508544921875">
        <ele>1135.800048828125</ele>
        <time>2020-08-22T12:37:11.000Z</time>
      </trkpt>
      <trkpt lat="39.99770902097225189208984375" lon="-1.04410945437848567962646484375">
        <ele>1134.4000244140625</ele>
        <time>2020-08-22T12:37:12.000Z</time>
      </trkpt>
      <trkpt lat="39.99753409065306186676025390625" lon="-1.0439880006015300750732421875">
        <ele>1132.199951171875</ele>
        <time>2020-08-22T12:37:14.000Z</time>
      </trkpt>
      <trkpt lat="39.9974429793655872344970703125" lon="-1.04394458234310150146484375">
        <ele>1131.4000244140625</ele>
        <time>2020-08-22T12:37:15.000Z</time>
      </trkpt>
      <trkpt lat="39.9973524548113346099853515625" lon="-1.04390728287398815155029296875">
        <ele>1130.800048828125</ele>
        <time>2020-08-22T12:37:16.000Z</time>
      </trkpt>
      <trkpt lat="39.9970114789903163909912109375" lon="-1.0437928698956966400146484375">
        <ele>1130</ele>
        <time>2020-08-22T12:37:20.000Z</time>
      </trkpt>
      <trkpt lat="39.996470846235752105712890625" lon="-1.04358457960188388824462890625">
        <ele>1130</ele>
        <time>2020-08-22T12:37:29.000Z</time>
      </trkpt>
      <trkpt lat="39.996189214289188385009765625" lon="-1.04350126348435878753662109375">
        <ele>1131</ele>
        <time>2020-08-22T12:37:35.000Z</time>
      </trkpt>
      <trkpt lat="39.99562402255833148956298828125" lon="-1.04344074614346027374267578125">
        <ele>1131</ele>
        <time>2020-08-22T12:37:44.000Z</time>
      </trkpt>
      <trkpt lat="39.9953173287212848663330078125" lon="-1.0432798974215984344482421875">
        <ele>1129.800048828125</ele>
        <time>2020-08-22T12:37:49.000Z</time>
      </trkpt>
      <trkpt lat="39.99507911503314971923828125" lon="-1.04322633706033229827880859375">
        <ele>1128.800048828125</ele>
        <time>2020-08-22T12:37:53.000Z</time>
      </trkpt>
      <trkpt lat="39.9949666298925876617431640625" lon="-1.043250560760498046875">
        <ele>1128.5999755859375</ele>
        <time>2020-08-22T12:37:55.000Z</time>
      </trkpt>
      <trkpt lat="39.99479119665920734405517578125" lon="-1.04338240809738636016845703125">
        <ele>1128.4000244140625</ele>
        <time>2020-08-22T12:37:58.000Z</time>
      </trkpt>
      <trkpt lat="39.994657002389430999755859375" lon="-1.043404452502727508544921875">
        <ele>1128</ele>
        <time>2020-08-22T12:38:00.000Z</time>
      </trkpt>
      <trkpt lat="39.99439942650496959686279296875" lon="-1.04337838478386402130126953125">
        <ele>1128</ele>
        <time>2020-08-22T12:38:04.000Z</time>
      </trkpt>
      <trkpt lat="39.99427990056574344635009765625" lon="-1.04338643141090869903564453125">
        <ele>1127.800048828125</ele>
        <time>2020-08-22T12:38:06.000Z</time>
      </trkpt>
      <trkpt lat="39.9942260049283504486083984375" lon="-1.04338006116449832916259765625">
        <ele>1127.800048828125</ele>
        <time>2020-08-22T12:38:07.000Z</time>
      </trkpt>
      <trkpt lat="39.9941267631947994232177734375" lon="-1.0433600284159183502197265625">
        <ele>1127.5999755859375</ele>
        <time>2020-08-22T12:38:09.000Z</time>
      </trkpt>
      <trkpt lat="39.99393247067928314208984375" lon="-1.04327864013612270355224609375">
        <ele>1127.5999755859375</ele>
        <time>2020-08-22T12:38:13.000Z</time>
      </trkpt>
      <trkpt lat="39.99369107186794281005859375" lon="-1.04313849471509456634521484375">
        <ele>1127.199951171875</ele>
        <time>2020-08-22T12:38:18.000Z</time>
      </trkpt>
      <trkpt lat="39.993577413260936737060546875" lon="-1.04312106035649776458740234375">
        <ele>1127</ele>
        <time>2020-08-22T12:38:20.000Z</time>
      </trkpt>
      <trkpt lat="39.99340281821787357330322265625" lon="-1.0431176237761974334716796875">
        <ele>1127</ele>
        <time>2020-08-22T12:38:23.000Z</time>
      </trkpt>
      <trkpt lat="39.993248172104358673095703125" lon="-1.04307143948972225189208984375">
        <ele>1126.5999755859375</ele>
        <time>2020-08-22T12:38:27.000Z</time>
      </trkpt>
      <trkpt lat="39.99320735223591327667236328125" lon="-1.04307445697486400604248046875">
        <ele>1126</ele>
        <time>2020-08-22T12:38:29.000Z</time>
      </trkpt>
      <trkpt lat="39.99313526786863803863525390625" lon="-1.04313195683062076568603515625">
        <ele>1125.5999755859375</ele>
        <time>2020-08-22T12:38:55.000Z</time>
      </trkpt>
      <trkpt lat="39.99313057400286197662353515625" lon="-1.04313028044998645782470703125">
        <ele>1125.5999755859375</ele>
        <time>2020-08-22T12:39:25.000Z</time>
      </trkpt>
      <trkpt lat="39.9887211062014102935791015625" lon="-1.0491354949772357940673828125">
        <ele>1043.4000244140625</ele>
        <time>2020-08-22T15:27:47.000Z</time>
      </trkpt>
      <trkpt lat="39.988713562488555908203125" lon="-1.04915971867740154266357421875">
        <ele>1045.5999755859375</ele>
        <time>2020-08-22T15:27:48.000Z</time>
      </trkpt>
      <trkpt lat="39.98870627023279666900634765625" lon="-1.0491834394633769989013671875">
        <ele>1048.5999755859375</ele>
        <time>2020-08-22T15:27:49.000Z</time>
      </trkpt>
      <trkpt lat="39.988698475062847137451171875" lon="-1.0492085851728916168212890625">
        <ele>1050</ele>
        <time>2020-08-22T15:27:50.000Z</time>
      </trkpt>
      <trkpt lat="39.98867860995233058929443359375" lon="-1.04925393126904964447021484375">
        <ele>1051</ele>
        <time>2020-08-22T15:27:52.000Z</time>
      </trkpt>
      <trkpt lat="39.988628067076206207275390625" lon="-1.049377731978893280029296875">
        <ele>1052.199951171875</ele>
        <time>2020-08-22T15:27:57.000Z</time>
      </trkpt>
      <trkpt lat="39.98855858109891414642333984375" lon="-1.04956339113414287567138671875">
        <ele>1053.199951171875</ele>
        <time>2020-08-22T15:28:04.000Z</time>
      </trkpt>
      <trkpt lat="39.988424889743328094482421875" lon="-1.0500003397464752197265625">
        <ele>1054.199951171875</ele>
        <time>2020-08-22T15:28:20.000Z</time>
      </trkpt>
      <trkpt lat="39.98837250284850597381591796875" lon="-1.0502097196877002716064453125">
        <ele>1055.199951171875</ele>
        <time>2020-08-22T15:28:28.000Z</time>
      </trkpt>
      <trkpt lat="39.9883368797600269317626953125" lon="-1.0504477657377719879150390625">
        <ele>1056.199951171875</ele>
        <time>2020-08-22T15:28:37.000Z</time>
      </trkpt>
      <trkpt lat="39.98830963857471942901611328125" lon="-1.0507086105644702911376953125">
        <ele>1057.4000244140625</ele>
        <time>2020-08-22T15:28:47.000Z</time>
      </trkpt>
      <trkpt lat="39.98828818090260028839111328125" lon="-1.0510076768696308135986328125">
        <ele>1058.4000244140625</ele>
        <time>2020-08-22T15:28:58.000Z</time>
      </trkpt>
      <trkpt lat="39.98826638795435428619384765625" lon="-1.05129961855709552764892578125">
        <ele>1059.4000244140625</ele>
        <time>2020-08-22T15:29:08.000Z</time>
      </trkpt>
      <trkpt lat="39.98825557529926300048828125" lon="-1.051518805325031280517578125">
        <ele>1060.5999755859375</ele>
        <time>2020-08-22T15:29:16.000Z</time>
      </trkpt>
      <trkpt lat="39.9882537312805652618408203125" lon="-1.0516579449176788330078125">
        <ele>1061.800048828125</ele>
        <time>2020-08-22T15:29:21.000Z</time>
      </trkpt>
      <trkpt lat="39.9882589280605316162109375" lon="-1.051905043423175811767578125">
        <ele>1062.800048828125</ele>
        <time>2020-08-22T15:29:30.000Z</time>
      </trkpt>
      <trkpt lat="39.98825364746153354644775390625" lon="-1.0521828196942806243896484375">
        <ele>1063.800048828125</ele>
        <time>2020-08-22T15:29:40.000Z</time>
      </trkpt>
      <trkpt lat="39.98821861110627651214599609375" lon="-1.05245917104184627532958984375">
        <ele>1064.800048828125</ele>
        <time>2020-08-22T15:29:50.000Z</time>
      </trkpt>
      <trkpt lat="39.98816563747823238372802734375" lon="-1.05276192538440227508544921875">
        <ele>1065.800048828125</ele>
        <time>2020-08-22T15:30:01.000Z</time>
      </trkpt>
      <trkpt lat="39.98811266385018825531005859375" lon="-1.0530297271907329559326171875">
        <ele>1067</ele>
        <time>2020-08-22T15:30:11.000Z</time>
      </trkpt>
      <trkpt lat="39.98807720839977264404296875" lon="-1.05321907438337802886962890625">
        <ele>1068</ele>
        <time>2020-08-22T15:30:18.000Z</time>
      </trkpt>
      <trkpt lat="39.9880227260291576385498046875" lon="-1.0534523427486419677734375">
        <ele>1069</ele>
        <time>2020-08-22T15:30:27.000Z</time>
      </trkpt>
      <trkpt lat="39.9879826605319976806640625" lon="-1.053628027439117431640625">
        <ele>1070</ele>
        <time>2020-08-22T15:30:34.000Z</time>
      </trkpt>
      <trkpt lat="39.9879493005573749542236328125" lon="-1.05375031940639019012451171875">
        <ele>1071.199951171875</ele>
        <time>2020-08-22T15:30:39.000Z</time>
      </trkpt>
      <trkpt lat="39.9879000149667263031005859375" lon="-1.0539453662931919097900390625">
        <ele>1072.199951171875</ele>
        <time>2020-08-22T15:30:47.000Z</time>
      </trkpt>
      <trkpt lat="39.98786170966923236846923828125" lon="-1.05409129522740840911865234375">
        <ele>1073.4000244140625</ele>
        <time>2020-08-22T15:30:53.000Z</time>
      </trkpt>
      <trkpt lat="39.98783312737941741943359375" lon="-1.0542166046798229217529296875">
        <ele>1074.4000244140625</ele>
        <time>2020-08-22T15:30:58.000Z</time>
      </trkpt>
      <trkpt lat="39.9877933971583843231201171875" lon="-1.05444836430251598358154296875">
        <ele>1075.4000244140625</ele>
        <time>2020-08-22T15:31:07.000Z</time>
      </trkpt>
      <trkpt lat="39.98776598833501338958740234375" lon="-1.05460259132087230682373046875">
        <ele>1076.5999755859375</ele>
        <time>2020-08-22T15:31:13.000Z</time>
      </trkpt>
      <trkpt lat="39.98772826977074146270751953125" lon="-1.0547934472560882568359375">
        <ele>1077.5999755859375</ele>
        <time>2020-08-22T15:31:21.000Z</time>
      </trkpt>
      <trkpt lat="39.9877010285854339599609375" lon="-1.05493216775357723236083984375">
        <ele>1078.5999755859375</ele>
        <time>2020-08-22T15:31:27.000Z</time>
      </trkpt>
      <trkpt lat="39.987665824592113494873046875" lon="-1.05515261180698871612548828125">
        <ele>1079.800048828125</ele>
        <time>2020-08-22T15:31:36.000Z</time>
      </trkpt>
      <trkpt lat="39.98762785457074642181396484375" lon="-1.05536785908043384552001953125">
        <ele>1080.800048828125</ele>
        <time>2020-08-22T15:31:45.000Z</time>
      </trkpt>
      <trkpt lat="39.98758544214069843292236328125" lon="-1.05561110191047191619873046875">
        <ele>1082</ele>
        <time>2020-08-22T15:31:55.000Z</time>
      </trkpt>
      <trkpt lat="39.98753297142684459686279296875" lon="-1.05579483322799205780029296875">
        <ele>1083</ele>
        <time>2020-08-22T15:32:03.000Z</time>
      </trkpt>
      <trkpt lat="39.9874722026288509368896484375" lon="-1.05599264614284038543701171875">
        <ele>1084.199951171875</ele>
        <time>2020-08-22T15:32:12.000Z</time>
      </trkpt>
      <trkpt lat="39.98742434196174144744873046875" lon="-1.056152321398258209228515625">
        <ele>1085.199951171875</ele>
        <time>2020-08-22T15:32:19.000Z</time>
      </trkpt>
      <trkpt lat="39.987378828227519989013671875" lon="-1.05628584511578083038330078125">
        <ele>1086.4000244140625</ele>
        <time>2020-08-22T15:32:25.000Z</time>
      </trkpt>
      <trkpt lat="39.98731051571667194366455078125" lon="-1.0565152578055858612060546875">
        <ele>1087.4000244140625</ele>
        <time>2020-08-22T15:32:35.000Z</time>
      </trkpt>
      <trkpt lat="39.987265169620513916015625" lon="-1.056682728230953216552734375">
        <ele>1088.4000244140625</ele>
        <time>2020-08-22T15:32:42.000Z</time>
      </trkpt>
      <trkpt lat="39.98723139055073261260986328125" lon="-1.0568029247224330902099609375">
        <ele>1089.5999755859375</ele>
        <time>2020-08-22T15:32:47.000Z</time>
      </trkpt>
      <trkpt lat="39.98717439360916614532470703125" lon="-1.0570215247571468353271484375">
        <ele>1090.800048828125</ele>
        <time>2020-08-22T15:32:56.000Z</time>
      </trkpt>
      <trkpt lat="39.98711219988763332366943359375" lon="-1.05726066045463085174560546875">
        <ele>1092</ele>
        <time>2020-08-22T15:33:06.000Z</time>
      </trkpt>
      <trkpt lat="39.9870465695858001708984375" lon="-1.05753525160253047943115234375">
        <ele>1093.199951171875</ele>
        <time>2020-08-22T15:33:17.000Z</time>
      </trkpt>
      <trkpt lat="39.987001977860927581787109375" lon="-1.0577155463397502899169921875">
        <ele>1094.4000244140625</ele>
        <time>2020-08-22T15:33:24.000Z</time>
      </trkpt>
      <trkpt lat="39.9869283847510814666748046875" lon="-1.05798418633639812469482421875">
        <ele>1095.4000244140625</ele>
        <time>2020-08-22T15:33:35.000Z</time>
      </trkpt>
      <trkpt lat="39.9868770875036716461181640625" lon="-1.05818300507962703704833984375">
        <ele>1096.4000244140625</ele>
        <time>2020-08-22T15:33:43.000Z</time>
      </trkpt>
      <trkpt lat="39.98682721517980098724365234375" lon="-1.0583736933767795562744140625">
        <ele>1097.4000244140625</ele>
        <time>2020-08-22T15:33:51.000Z</time>
      </trkpt>
      <trkpt lat="39.9867805279791355133056640625" lon="-1.05860075913369655609130859375">
        <ele>1098.5999755859375</ele>
        <time>2020-08-22T15:34:01.000Z</time>
      </trkpt>
      <trkpt lat="39.98673015274107456207275390625" lon="-1.05881399475038051605224609375">
        <ele>1099.5999755859375</ele>
        <time>2020-08-22T15:34:10.000Z</time>
      </trkpt>
      <trkpt lat="39.986686818301677703857421875" lon="-1.05900493450462818145751953125">
        <ele>1100.800048828125</ele>
        <time>2020-08-22T15:34:18.000Z</time>
      </trkpt>
      <trkpt lat="39.986658990383148193359375" lon="-1.0591763444244861602783203125">
        <ele>1101.800048828125</ele>
        <time>2020-08-22T15:34:25.000Z</time>
      </trkpt>
      <trkpt lat="39.98662772588431835174560546875" lon="-1.0594046674668788909912109375">
        <ele>1102.800048828125</ele>
        <time>2020-08-22T15:34:34.000Z</time>
      </trkpt>
      <trkpt lat="39.98657659627497196197509765625" lon="-1.05966509319841861724853515625">
        <ele>1104</ele>
        <time>2020-08-22T15:34:44.000Z</time>
      </trkpt>
      <trkpt lat="39.9865454994142055511474609375" lon="-1.0597885586321353912353515625">
        <ele>1105</ele>
        <time>2020-08-22T15:34:49.000Z</time>
      </trkpt>
      <trkpt lat="39.98648523353040218353271484375" lon="-1.0600262694060802459716796875">
        <ele>1106</ele>
        <time>2020-08-22T15:34:59.000Z</time>
      </trkpt>
      <trkpt lat="39.9864224530756473541259765625" lon="-1.06025299988687038421630859375">
        <ele>1107.199951171875</ele>
        <time>2020-08-22T15:35:09.000Z</time>
      </trkpt>
      <trkpt lat="39.9863285757601261138916015625" lon="-1.0605774633586406707763671875">
        <ele>1108.4000244140625</ele>
        <time>2020-08-22T15:35:23.000Z</time>
      </trkpt>
      <trkpt lat="39.9862692318856716156005859375" lon="-1.0607028566300868988037109375">
        <ele>1109.4000244140625</ele>
        <time>2020-08-22T15:35:29.000Z</time>
      </trkpt>
      <trkpt lat="39.986179880797863006591796875" lon="-1.06085448525846004486083984375">
        <ele>1110.5999755859375</ele>
        <time>2020-08-22T15:35:37.000Z</time>
      </trkpt>
      <trkpt lat="39.98609237372875213623046875" lon="-1.0609740950167179107666015625">
        <ele>1111.800048828125</ele>
        <time>2020-08-22T15:35:44.000Z</time>
      </trkpt>
      <trkpt lat="39.985983073711395263671875" lon="-1.06110124848783016204833984375">
        <ele>1112.800048828125</ele>
        <time>2020-08-22T15:35:52.000Z</time>
      </trkpt>
      <trkpt lat="39.985921718180179595947265625" lon="-1.0611886717379093170166015625">
        <ele>1114</ele>
        <time>2020-08-22T15:35:57.000Z</time>
      </trkpt>
      <trkpt lat="39.9858380667865276336669921875" lon="-1.0612781904637813568115234375">
        <ele>1115</ele>
        <time>2020-08-22T15:36:03.000Z</time>
      </trkpt>
      <trkpt lat="39.98576581478118896484375" lon="-1.0614853911101818084716796875">
        <ele>1116.199951171875</ele>
        <time>2020-08-22T15:36:12.000Z</time>
      </trkpt>
      <trkpt lat="39.985778890550136566162109375" lon="-1.061638779938220977783203125">
        <ele>1117.199951171875</ele>
        <time>2020-08-22T15:36:18.000Z</time>
      </trkpt>
      <trkpt lat="39.98582205735146999359130859375" lon="-1.06176828034222126007080078125">
        <ele>1118.4000244140625</ele>
        <time>2020-08-22T15:36:24.000Z</time>
      </trkpt>
      <trkpt lat="39.98590101487934589385986328125" lon="-1.061907000839710235595703125">
        <ele>1119.4000244140625</ele>
        <time>2020-08-22T15:36:31.000Z</time>
      </trkpt>
      <trkpt lat="39.9859979934990406036376953125" lon="-1.06209383346140384674072265625">
        <ele>1120.4000244140625</ele>
        <time>2020-08-22T15:36:40.000Z</time>
      </trkpt>
      <trkpt lat="39.9860881827771663665771484375" lon="-1.06234026141464710235595703125">
        <ele>1121.5999755859375</ele>
        <time>2020-08-22T15:36:51.000Z</time>
      </trkpt>
      <trkpt lat="39.986129589378833770751953125" lon="-1.06244780123233795166015625">
        <ele>1122.5999755859375</ele>
        <time>2020-08-22T15:36:56.000Z</time>
      </trkpt>
      <trkpt lat="39.98617577366530895233154296875" lon="-1.06258098967373371124267578125">
        <ele>1123.5999755859375</ele>
        <time>2020-08-22T15:37:02.000Z</time>
      </trkpt>
      <trkpt lat="39.98623712919652462005615234375" lon="-1.06280679814517498016357421875">
        <ele>1125</ele>
        <time>2020-08-22T15:37:12.000Z</time>
      </trkpt>
      <trkpt lat="39.986293874680995941162109375" lon="-1.06303646229207515716552734375">
        <ele>1126.199951171875</ele>
        <time>2020-08-22T15:37:22.000Z</time>
      </trkpt>
      <trkpt lat="39.9863433279097080230712890625" lon="-1.06333351694047451019287109375">
        <ele>1127.199951171875</ele>
        <time>2020-08-22T15:37:34.000Z</time>
      </trkpt>
      <trkpt lat="39.986368976533412933349609375" lon="-1.0636660270392894744873046875">
        <ele>1128.199951171875</ele>
        <time>2020-08-22T15:37:47.000Z</time>
      </trkpt>
      <trkpt lat="39.98638548888266086578369140625" lon="-1.06381597928702831268310546875">
        <ele>1129.199951171875</ele>
        <time>2020-08-22T15:37:53.000Z</time>
      </trkpt>
      <trkpt lat="39.9863906018435955047607421875" lon="-1.0638866387307643890380859375">
        <ele>1130.4000244140625</ele>
        <time>2020-08-22T15:37:56.000Z</time>
      </trkpt>
      <trkpt lat="39.9863946251571178436279296875" lon="-1.0640106908977031707763671875">
        <ele>1131.5999755859375</ele>
        <time>2020-08-22T15:38:01.000Z</time>
      </trkpt>
      <trkpt lat="39.98639621771872043609619140625" lon="-1.06432677246630191802978515625">
        <ele>1132.5999755859375</ele>
        <time>2020-08-22T15:38:14.000Z</time>
      </trkpt>
      <trkpt lat="39.98638079501688480377197265625" lon="-1.0646041296422481536865234375">
        <ele>1133.800048828125</ele>
        <time>2020-08-22T15:38:25.000Z</time>
      </trkpt>
      <trkpt lat="39.98636864125728607177734375" lon="-1.06472323648631572723388671875">
        <ele>1134.800048828125</ele>
        <time>2020-08-22T15:38:30.000Z</time>
      </trkpt>
      <trkpt lat="39.9863624386489391326904296875" lon="-1.06484175659716129302978515625">
        <ele>1135.800048828125</ele>
        <time>2020-08-22T15:38:35.000Z</time>
      </trkpt>
      <trkpt lat="39.9863443337380886077880859375" lon="-1.06502414681017398834228515625">
        <ele>1136.800048828125</ele>
        <time>2020-08-22T15:38:42.000Z</time>
      </trkpt>
      <trkpt lat="39.98631910420954227447509765625" lon="-1.0652297548949718475341796875">
        <ele>1137.800048828125</ele>
        <time>2020-08-22T15:38:50.000Z</time>
      </trkpt>
      <trkpt lat="39.98630250804126262664794921875" lon="-1.06535992585122585296630859375">
        <ele>1139</ele>
        <time>2020-08-22T15:38:55.000Z</time>
      </trkpt>
      <trkpt lat="39.9862621910870075225830078125" lon="-1.06553980149328708648681640625">
        <ele>1140.199951171875</ele>
        <time>2020-08-22T15:39:02.000Z</time>
      </trkpt>
      <trkpt lat="39.9861693195998668670654296875" lon="-1.06574431993067264556884765625">
        <ele>1141.4000244140625</ele>
        <time>2020-08-22T15:39:11.000Z</time>
      </trkpt>
      <trkpt lat="39.9860432557761669158935546875" lon="-1.06590525247156620025634765625">
        <ele>1142.4000244140625</ele>
        <time>2020-08-22T15:39:20.000Z</time>
      </trkpt>
      <trkpt lat="39.9859200417995452880859375" lon="-1.06601404957473278045654296875">
        <ele>1143.4000244140625</ele>
        <time>2020-08-22T15:39:28.000Z</time>
      </trkpt>
      <trkpt lat="39.98579867184162139892578125" lon="-1.0661339946091175079345703125">
        <ele>1144.5999755859375</ele>
        <time>2020-08-22T15:39:36.000Z</time>
      </trkpt>
      <trkpt lat="39.98574192635715007781982421875" lon="-1.06628067791461944580078125">
        <ele>1145.5999755859375</ele>
        <time>2020-08-22T15:39:42.000Z</time>
      </trkpt>
      <trkpt lat="39.985727258026599884033203125" lon="-1.06644823215901851654052734375">
        <ele>1146.800048828125</ele>
        <time>2020-08-22T15:39:48.000Z</time>
      </trkpt>
      <trkpt lat="39.98573639430105686187744140625" lon="-1.066682673990726470947265625">
        <ele>1147.800048828125</ele>
        <time>2020-08-22T15:39:57.000Z</time>
      </trkpt>
      <trkpt lat="39.985723234713077545166015625" lon="-1.06683480553328990936279296875">
        <ele>1148.800048828125</ele>
        <time>2020-08-22T15:40:03.000Z</time>
      </trkpt>
      <trkpt lat="39.98570638708770275115966796875" lon="-1.06701216660439968109130859375">
        <ele>1150</ele>
        <time>2020-08-22T15:40:10.000Z</time>
      </trkpt>
      <trkpt lat="39.9856840074062347412109375" lon="-1.0671820677816867828369140625">
        <ele>1151</ele>
        <time>2020-08-22T15:40:17.000Z</time>
      </trkpt>
      <trkpt lat="39.98564243316650390625" lon="-1.06740226037800312042236328125">
        <ele>1152.199951171875</ele>
        <time>2020-08-22T15:40:26.000Z</time>
      </trkpt>
      <trkpt lat="39.985605888068675994873046875" lon="-1.06757241301238536834716796875">
        <ele>1153.199951171875</ele>
        <time>2020-08-22T15:40:33.000Z</time>
      </trkpt>
      <trkpt lat="39.9855577759444713592529296875" lon="-1.0677600838243961334228515625">
        <ele>1154.4000244140625</ele>
        <time>2020-08-22T15:40:41.000Z</time>
      </trkpt>
      <trkpt lat="39.98550890944898128509521484375" lon="-1.06798111461102962493896484375">
        <ele>1155.5999755859375</ele>
        <time>2020-08-22T15:40:50.000Z</time>
      </trkpt>
      <trkpt lat="39.9854793213307857513427734375" lon="-1.06818563304841518402099609375">
        <ele>1156.5999755859375</ele>
        <time>2020-08-22T15:40:58.000Z</time>
      </trkpt>
      <trkpt lat="39.9854581989347934722900390625" lon="-1.06831069104373455047607421875">
        <ele>1158</ele>
        <time>2020-08-22T15:41:03.000Z</time>
      </trkpt>
      <trkpt lat="39.9854410998523235321044921875" lon="-1.06846273876726627349853515625">
        <ele>1159</ele>
        <time>2020-08-22T15:41:09.000Z</time>
      </trkpt>
      <trkpt lat="39.98541134409606456756591796875" lon="-1.06866809539496898651123046875">
        <ele>1160</ele>
        <time>2020-08-22T15:41:17.000Z</time>
      </trkpt>
      <trkpt lat="39.98543280176818370819091796875" lon="-1.068896837532520294189453125">
        <ele>1161.199951171875</ele>
        <time>2020-08-22T15:41:26.000Z</time>
      </trkpt>
      <trkpt lat="39.98554252088069915771484375" lon="-1.069083921611309051513671875">
        <ele>1162.199951171875</ele>
        <time>2020-08-22T15:41:35.000Z</time>
      </trkpt>
      <trkpt lat="39.98564570210874080657958984375" lon="-1.06924074701964855194091796875">
        <ele>1163.199951171875</ele>
        <time>2020-08-22T15:41:43.000Z</time>
      </trkpt>
      <trkpt lat="39.9857063032686710357666015625" lon="-1.06945666484534740447998046875">
        <ele>1164.4000244140625</ele>
        <time>2020-08-22T15:41:52.000Z</time>
      </trkpt>
      <trkpt lat="39.98571359552443027496337890625" lon="-1.06964509002864360809326171875">
        <ele>1165.4000244140625</ele>
        <time>2020-08-22T15:41:59.000Z</time>
      </trkpt>
      <trkpt lat="39.9857029505074024200439453125" lon="-1.0698062740266323089599609375">
        <ele>1166.800048828125</ele>
        <time>2020-08-22T15:42:05.000Z</time>
      </trkpt>
      <trkpt lat="39.98569331131875514984130859375" lon="-1.0700124688446521759033203125">
        <ele>1167.800048828125</ele>
        <time>2020-08-22T15:42:13.000Z</time>
      </trkpt>
      <trkpt lat="39.98567470349371433258056640625" lon="-1.0701831243932247161865234375">
        <ele>1168.800048828125</ele>
        <time>2020-08-22T15:42:19.000Z</time>
      </trkpt>
      <trkpt lat="39.98564737848937511444091796875" lon="-1.07040725648403167724609375">
        <ele>1170</ele>
        <time>2020-08-22T15:42:27.000Z</time>
      </trkpt>
      <trkpt lat="39.985626675188541412353515625" lon="-1.0705703683197498321533203125">
        <ele>1171</ele>
        <time>2020-08-22T15:42:33.000Z</time>
      </trkpt>
      <trkpt lat="39.98559884727001190185546875" lon="-1.0707034729421138763427734375">
        <ele>1172.199951171875</ele>
        <time>2020-08-22T15:42:38.000Z</time>
      </trkpt>
      <trkpt lat="39.98555400408804416656494140625" lon="-1.07089164666831493377685546875">
        <ele>1173.4000244140625</ele>
        <time>2020-08-22T15:42:45.000Z</time>
      </trkpt>
      <trkpt lat="39.985502623021602630615234375" lon="-1.07109985314309597015380859375">
        <ele>1174.800048828125</ele>
        <time>2020-08-22T15:42:53.000Z</time>
      </trkpt>
      <trkpt lat="39.98546482063829898834228515625" lon="-1.07122424058616161346435546875">
        <ele>1175.800048828125</ele>
        <time>2020-08-22T15:42:58.000Z</time>
      </trkpt>
      <trkpt lat="39.98541369102895259857177734375" lon="-1.0714045353233814239501953125">
        <ele>1176.800048828125</ele>
        <time>2020-08-22T15:43:05.000Z</time>
      </trkpt>
      <trkpt lat="39.98535283841192722320556640625" lon="-1.071641407907009124755859375">
        <ele>1177.800048828125</ele>
        <time>2020-08-22T15:43:14.000Z</time>
      </trkpt>
      <trkpt lat="39.98530271463096141815185546875" lon="-1.071860678493976593017578125">
        <ele>1179</ele>
        <time>2020-08-22T15:43:22.000Z</time>
      </trkpt>
      <trkpt lat="39.98526197858154773712158203125" lon="-1.07205103151500225067138671875">
        <ele>1180</ele>
        <time>2020-08-22T15:43:29.000Z</time>
      </trkpt>
      <trkpt lat="39.9852292053401470184326171875" lon="-1.0722152329981327056884765625">
        <ele>1181.199951171875</ele>
        <time>2020-08-22T15:43:35.000Z</time>
      </trkpt>
      <trkpt lat="39.98518167994916439056396484375" lon="-1.07244079001247882843017578125">
        <ele>1182.199951171875</ele>
        <time>2020-08-22T15:43:43.000Z</time>
      </trkpt>
      <trkpt lat="39.98513055033981800079345703125" lon="-1.0726976953446865081787109375">
        <ele>1183.4000244140625</ele>
        <time>2020-08-22T15:43:51.000Z</time>
      </trkpt>
      <trkpt lat="39.98510054312646389007568359375" lon="-1.072861142456531524658203125">
        <ele>1184.4000244140625</ele>
        <time>2020-08-22T15:43:56.000Z</time>
      </trkpt>
      <trkpt lat="39.98506383039057254791259765625" lon="-1.07305518351495265960693359375">
        <ele>1185.5999755859375</ele>
        <time>2020-08-22T15:44:02.000Z</time>
      </trkpt>
      <trkpt lat="39.9850367568433284759521484375" lon="-1.07318124733865261077880859375">
        <ele>1186.5999755859375</ele>
        <time>2020-08-22T15:44:06.000Z</time>
      </trkpt>
      <trkpt lat="39.9849854595959186553955078125" lon="-1.07341325841844081878662109375">
        <ele>1187.800048828125</ele>
        <time>2020-08-22T15:44:13.000Z</time>
      </trkpt>
      <trkpt lat="39.98492837883532047271728515625" lon="-1.07361811213195323944091796875">
        <ele>1188.800048828125</ele>
        <time>2020-08-22T15:44:19.000Z</time>
      </trkpt>
      <trkpt lat="39.9848530255258083343505859375" lon="-1.0737861692905426025390625">
        <ele>1190</ele>
        <time>2020-08-22T15:44:24.000Z</time>
      </trkpt>
      <trkpt lat="39.98475135304033756256103515625" lon="-1.07393628917634487152099609375">
        <ele>1191</ele>
        <time>2020-08-22T15:44:29.000Z</time>
      </trkpt>
      <trkpt lat="39.98464909382164478302001953125" lon="-1.07403435744345188140869140625">
        <ele>1192</ele>
        <time>2020-08-22T15:44:33.000Z</time>
      </trkpt>
      <trkpt lat="39.984421022236347198486328125" lon="-1.07413091696798801422119140625">
        <ele>1193.199951171875</ele>
        <time>2020-08-22T15:44:40.000Z</time>
      </trkpt>
      <trkpt lat="39.9838391505181789398193359375" lon="-1.0742014087736606597900390625">
        <ele>1194.199951171875</ele>
        <time>2020-08-22T15:44:53.000Z</time>
      </trkpt>
      <trkpt lat="39.98379497788846492767333984375" lon="-1.07420199550688266754150390625">
        <ele>1194.199951171875</ele>
        <time>2020-08-22T15:44:54.000Z</time>
      </trkpt>
      <trkpt lat="39.98346204869449138641357421875" lon="-1.0742436535656452178955078125">
        <ele>1195.199951171875</ele>
        <time>2020-08-22T15:45:01.000Z</time>
      </trkpt>
      <trkpt lat="39.983046390116214752197265625" lon="-1.0743596591055393218994140625">
        <ele>1196.4000244140625</ele>
        <time>2020-08-22T15:45:10.000Z</time>
      </trkpt>
      <trkpt lat="39.98269996605813503265380859375" lon="-1.074362508952617645263671875">
        <ele>1197.5999755859375</ele>
        <time>2020-08-22T15:45:19.000Z</time>
      </trkpt>
      <trkpt lat="39.98257339932024478912353515625" lon="-1.07419830746948719024658203125">
        <ele>1198.5999755859375</ele>
        <time>2020-08-22T15:45:24.000Z</time>
      </trkpt>
      <trkpt lat="39.98254892416298389434814453125" lon="-1.0741115547716617584228515625">
        <ele>1199.5999755859375</ele>
        <time>2020-08-22T15:45:26.000Z</time>
      </trkpt>
      <trkpt lat="39.982506930828094482421875" lon="-1.07389002107083797454833984375">
        <ele>1201</ele>
        <time>2020-08-22T15:45:31.000Z</time>
      </trkpt>
      <trkpt lat="39.98249980621039867401123046875" lon="-1.0737571679055690765380859375">
        <ele>1202.199951171875</ele>
        <time>2020-08-22T15:45:34.000Z</time>
      </trkpt>
      <trkpt lat="39.98250332660973072052001953125" lon="-1.07358005829155445098876953125">
        <ele>1203.199951171875</ele>
        <time>2020-08-22T15:45:38.000Z</time>
      </trkpt>
      <trkpt lat="39.98253584839403629302978515625" lon="-1.073323823511600494384765625">
        <ele>1204.5999755859375</ele>
        <time>2020-08-22T15:45:44.000Z</time>
      </trkpt>
      <trkpt lat="39.9825634248554706573486328125" lon="-1.07312257401645183563232421875">
        <ele>1205.800048828125</ele>
        <time>2020-08-22T15:45:49.000Z</time>
      </trkpt>
      <trkpt lat="39.9825744889676570892333984375" lon="-1.07297413051128387451171875">
        <ele>1206.800048828125</ele>
        <time>2020-08-22T15:45:53.000Z</time>
      </trkpt>
      <trkpt lat="39.9825295619666576385498046875" lon="-1.0728029720485210418701171875">
        <ele>1208</ele>
        <time>2020-08-22T15:45:58.000Z</time>
      </trkpt>
      <trkpt lat="39.982479102909564971923828125" lon="-1.07275259681046009063720703125">
        <ele>1208.5999755859375</ele>
        <time>2020-08-22T15:45:59.000Z</time>
      </trkpt>
      <trkpt lat="39.98244549147784709930419921875" lon="-1.07273415662348270416259765625">
        <ele>1209.199951171875</ele>
        <time>2020-08-22T15:46:01.000Z</time>
      </trkpt>
      <trkpt lat="39.98234624974429607391357421875" lon="-1.07271353714168071746826171875">
        <ele>1210.4000244140625</ele>
        <time>2020-08-22T15:46:04.000Z</time>
      </trkpt>
      <trkpt lat="39.98228087089955806732177734375" lon="-1.0727295465767383575439453125">
        <ele>1211.4000244140625</ele>
        <time>2020-08-22T15:46:06.000Z</time>
      </trkpt>
      <trkpt lat="39.98205942101776599884033203125" lon="-1.072952337563037872314453125">
        <ele>1212.5999755859375</ele>
        <time>2020-08-22T15:46:14.000Z</time>
      </trkpt>
      <trkpt lat="39.98171241022646427154541015625" lon="-1.07353311963379383087158203125">
        <ele>1213.5999755859375</ele>
        <time>2020-08-22T15:46:27.000Z</time>
      </trkpt>
      <trkpt lat="39.981486685574054718017578125" lon="-1.0738577507436275482177734375">
        <ele>1214.800048828125</ele>
        <time>2020-08-22T15:46:34.000Z</time>
      </trkpt>
      <trkpt lat="39.98123413883149623870849609375" lon="-1.07435873709619045257568359375">
        <ele>1215.800048828125</ele>
        <time>2020-08-22T15:46:43.000Z</time>
      </trkpt>
      <trkpt lat="39.9810464680194854736328125" lon="-1.07475704513490200042724609375">
        <ele>1216.800048828125</ele>
        <time>2020-08-22T15:46:50.000Z</time>
      </trkpt>
      <trkpt lat="39.9808880500495433807373046875" lon="-1.07498587109148502349853515625">
        <ele>1217.5999755859375</ele>
        <time>2020-08-22T15:46:55.000Z</time>
      </trkpt>
      <trkpt lat="39.980847649276256561279296875" lon="-1.07501772232353687286376953125">
        <ele>1217.800048828125</ele>
        <time>2020-08-22T15:46:56.000Z</time>
      </trkpt>
      <trkpt lat="39.98060096986591815948486328125" lon="-1.07513573952019214630126953125">
        <ele>1219</ele>
        <time>2020-08-22T15:47:02.000Z</time>
      </trkpt>
      <trkpt lat="39.98009118251502513885498046875" lon="-1.07522316277027130126953125">
        <ele>1220</ele>
        <time>2020-08-22T15:47:12.000Z</time>
      </trkpt>
      <trkpt lat="39.97956211678683757781982421875" lon="-1.07528946362435817718505859375">
        <ele>1221</ele>
        <time>2020-08-22T15:47:20.000Z</time>
      </trkpt>
      <trkpt lat="39.97900170274078845977783203125" lon="-1.07537680305540561676025390625">
        <ele>1221</ele>
        <time>2020-08-22T15:47:32.000Z</time>
      </trkpt>
      <trkpt lat="39.978717304766178131103515625" lon="-1.07535182498395442962646484375">
        <ele>1222.199951171875</ele>
        <time>2020-08-22T15:47:42.000Z</time>
      </trkpt>
      <trkpt lat="39.97870096005499362945556640625" lon="-1.07534226961433887481689453125">
        <ele>1222.5999755859375</ele>
        <time>2020-08-22T15:47:44.000Z</time>
      </trkpt>
      <trkpt lat="39.978677071630954742431640625" lon="-1.07530631124973297119140625">
        <ele>1223.5999755859375</ele>
        <time>2020-08-22T15:53:12.000Z</time>
      </trkpt>
      <trkpt lat="39.978667013347148895263671875" lon="-1.07529767788946628570556640625">
        <ele>1223.5999755859375</ele>
        <time>2020-08-22T15:53:15.000Z</time>
      </trkpt>
      <trkpt lat="39.97829762287437915802001953125" lon="-1.0748246870934963226318359375">
        <ele>1222.5999755859375</ele>
        <time>2020-08-22T15:53:33.000Z</time>
      </trkpt>
      <trkpt lat="39.9781029112637042999267578125" lon="-1.074484884738922119140625">
        <ele>1221.5999755859375</ele>
        <time>2020-08-22T15:53:41.000Z</time>
      </trkpt>
      <trkpt lat="39.97803929261863231658935546875" lon="-1.074400730431079864501953125">
        <ele>1221.4000244140625</ele>
        <time>2020-08-22T15:53:43.000Z</time>
      </trkpt>
      <trkpt lat="39.97795832343399524688720703125" lon="-1.07433258555829524993896484375">
        <ele>1221.199951171875</ele>
        <time>2020-08-22T15:53:45.000Z</time>
      </trkpt>
      <trkpt lat="39.9778574891388416290283203125" lon="-1.074291765689849853515625">
        <ele>1221</ele>
        <time>2020-08-22T15:53:47.000Z</time>
      </trkpt>
      <trkpt lat="39.97774877585470676422119140625" lon="-1.07428246177732944488525390625">
        <ele>1220.800048828125</ele>
        <time>2020-08-22T15:53:49.000Z</time>
      </trkpt>
      <trkpt lat="39.97751710005104541778564453125" lon="-1.07429654337465763092041015625">
        <ele>1220.5999755859375</ele>
        <time>2020-08-22T15:53:53.000Z</time>
      </trkpt>
      <trkpt lat="39.977335296571254730224609375" lon="-1.0742604173719882965087890625">
        <ele>1219.4000244140625</ele>
        <time>2020-08-22T15:53:56.000Z</time>
      </trkpt>
      <trkpt lat="39.977034889161586761474609375" lon="-1.07413963414728641510009765625">
        <ele>1218.4000244140625</ele>
        <time>2020-08-22T15:54:01.000Z</time>
      </trkpt>
      <trkpt lat="39.97692458331584930419921875" lon="-1.0740522108972072601318359375">
        <ele>1218.199951171875</ele>
        <time>2020-08-22T15:54:03.000Z</time>
      </trkpt>
      <trkpt lat="39.97680765576660633087158203125" lon="-1.07384844683110713958740234375">
        <ele>1217.5999755859375</ele>
        <time>2020-08-22T15:54:06.000Z</time>
      </trkpt>
      <trkpt lat="39.97676272876560688018798828125" lon="-1.07368198223412036895751953125">
        <ele>1217.4000244140625</ele>
        <time>2020-08-22T15:54:08.000Z</time>
      </trkpt>
      <trkpt lat="39.9766585417091846466064453125" lon="-1.0729183070361614227294921875">
        <ele>1216.5999755859375</ele>
        <time>2020-08-22T15:54:17.000Z</time>
      </trkpt>
      <trkpt lat="39.9766020476818084716796875" lon="-1.0723895765841007232666015625">
        <ele>1216.4000244140625</ele>
        <time>2020-08-22T15:54:23.000Z</time>
      </trkpt>
      <trkpt lat="39.97660716064274311065673828125" lon="-1.0719408094882965087890625">
        <ele>1215.4000244140625</ele>
        <time>2020-08-22T15:54:28.000Z</time>
      </trkpt>
      <trkpt lat="39.976658709347248077392578125" lon="-1.07160645537078380584716796875">
        <ele>1214.199951171875</ele>
        <time>2020-08-22T15:54:32.000Z</time>
      </trkpt>
      <trkpt lat="39.97674982063472270965576171875" lon="-1.07113220728933811187744140625">
        <ele>1213.4000244140625</ele>
        <time>2020-08-22T15:54:38.000Z</time>
      </trkpt>
      <trkpt lat="39.97672148980200290679931640625" lon="-1.0707406885921955108642578125">
        <ele>1213.199951171875</ele>
        <time>2020-08-22T15:54:43.000Z</time>
      </trkpt>
      <trkpt lat="39.9765626527369022369384765625" lon="-1.0700681246817111968994140625">
        <ele>1211.800048828125</ele>
        <time>2020-08-22T15:54:51.000Z</time>
      </trkpt>
      <trkpt lat="39.97647464275360107421875" lon="-1.06972371228039264678955078125">
        <ele>1210.5999755859375</ele>
        <time>2020-08-22T15:54:55.000Z</time>
      </trkpt>
      <trkpt lat="39.97643097303807735443115234375" lon="-1.06936714611947536468505859375">
        <ele>1209.4000244140625</ele>
        <time>2020-08-22T15:54:59.000Z</time>
      </trkpt>
      <trkpt lat="39.9764406122267246246337890625" lon="-1.06910294853150844573974609375">
        <ele>1208.199951171875</ele>
        <time>2020-08-22T15:55:02.000Z</time>
      </trkpt>
      <trkpt lat="39.97643147595226764678955078125" lon="-1.0689315386116504669189453125">
        <ele>1207.800048828125</ele>
        <time>2020-08-22T15:55:04.000Z</time>
      </trkpt>
      <trkpt lat="39.97631731443107128143310546875" lon="-1.0685144551098346710205078125">
        <ele>1207</ele>
        <time>2020-08-22T15:55:09.000Z</time>
      </trkpt>
      <trkpt lat="39.97613861225545406341552734375" lon="-1.06801263056695461273193359375">
        <ele>1206</ele>
        <time>2020-08-22T15:55:15.000Z</time>
      </trkpt>
      <trkpt lat="39.9759276397526264190673828125" lon="-1.0674217902123928070068359375">
        <ele>1204.800048828125</ele>
        <time>2020-08-22T15:55:22.000Z</time>
      </trkpt>
      <trkpt lat="39.97583166696131229400634765625" lon="-1.06716773472726345062255859375">
        <ele>1203.800048828125</ele>
        <time>2020-08-22T15:55:25.000Z</time>
      </trkpt>
      <trkpt lat="39.97545951046049594879150390625" lon="-1.0665933229029178619384765625">
        <ele>1202.800048828125</ele>
        <time>2020-08-22T15:55:33.000Z</time>
      </trkpt>
      <trkpt lat="39.975424893200397491455078125" lon="-1.06651646085083484649658203125">
        <ele>1202.5999755859375</ele>
        <time>2020-08-22T15:55:34.000Z</time>
      </trkpt>
      <trkpt lat="39.97540100477635860443115234375" lon="-1.06643146835267543792724609375">
        <ele>1202.199951171875</ele>
        <time>2020-08-22T15:55:35.000Z</time>
      </trkpt>
      <trkpt lat="39.9753868393599987030029296875" lon="-1.06625544838607311248779296875">
        <ele>1201.199951171875</ele>
        <time>2020-08-22T15:55:37.000Z</time>
      </trkpt>
      <trkpt lat="39.9754458479583263397216796875" lon="-1.0657796077430248260498046875">
        <ele>1200.199951171875</ele>
        <time>2020-08-22T15:55:43.000Z</time>
      </trkpt>
      <trkpt lat="39.9754297547042369842529296875" lon="-1.06563250534236431121826171875">
        <ele>1199.800048828125</ele>
        <time>2020-08-22T15:55:45.000Z</time>
      </trkpt>
      <trkpt lat="39.97537560760974884033203125" lon="-1.06549638323485851287841796875">
        <ele>1199.5999755859375</ele>
        <time>2020-08-22T15:55:47.000Z</time>
      </trkpt>
      <trkpt lat="39.975148625671863555908203125" lon="-1.06514518149197101593017578125">
        <ele>1199</ele>
        <time>2020-08-22T15:55:53.000Z</time>
      </trkpt>
      <trkpt lat="39.97498224489390850067138671875" lon="-1.06475072912871837615966796875">
        <ele>1198.5999755859375</ele>
        <time>2020-08-22T15:55:59.000Z</time>
      </trkpt>
      <trkpt lat="39.97491049580276012420654296875" lon="-1.0643670894205570220947265625">
        <ele>1198.4000244140625</ele>
        <time>2020-08-22T15:56:04.000Z</time>
      </trkpt>
      <trkpt lat="39.9748452007770538330078125" lon="-1.064231805503368377685546875">
        <ele>1198.4000244140625</ele>
        <time>2020-08-22T15:56:06.000Z</time>
      </trkpt>
      <trkpt lat="39.97466624714434146881103515625" lon="-1.0639976151287555694580078125">
        <ele>1198</ele>
        <time>2020-08-22T15:56:10.000Z</time>
      </trkpt>
      <trkpt lat="39.97436516918241977691650390625" lon="-1.06335547752678394317626953125">
        <ele>1196.800048828125</ele>
        <time>2020-08-22T15:56:19.000Z</time>
      </trkpt>
      <trkpt lat="39.97423541732132434844970703125" lon="-1.0629151761531829833984375">
        <ele>1195.800048828125</ele>
        <time>2020-08-22T15:56:25.000Z</time>
      </trkpt>
      <trkpt lat="39.97409041039645671844482421875" lon="-1.06218871660530567169189453125">
        <ele>1194.800048828125</ele>
        <time>2020-08-22T15:56:33.000Z</time>
      </trkpt>
      <trkpt lat="39.97406928800046443939208984375" lon="-1.06210825033485889434814453125">
        <ele>1194.199951171875</ele>
        <time>2020-08-22T15:56:34.000Z</time>
      </trkpt>
      <trkpt lat="39.97381296940147876739501953125" lon="-1.0614562220871448516845703125">
        <ele>1194.5999755859375</ele>
        <time>2020-08-22T15:56:47.000Z</time>
      </trkpt>
      <trkpt lat="39.973784722387790679931640625" lon="-1.06135019101202487945556640625">
        <ele>1195.199951171875</ele>
        <time>2020-08-22T15:56:50.000Z</time>
      </trkpt>
      <trkpt lat="39.97372948564589023590087890625" lon="-1.06117241084575653076171875">
        <ele>1196.4000244140625</ele>
        <time>2020-08-22T15:56:55.000Z</time>
      </trkpt>
      <trkpt lat="39.9736698903143405914306640625" lon="-1.060892455279827117919921875">
        <ele>1197.5999755859375</ele>
        <time>2020-08-22T15:57:02.000Z</time>
      </trkpt>
      <trkpt lat="39.9736340157687664031982421875" lon="-1.0606555826961994171142578125">
        <ele>1198.5999755859375</ele>
        <time>2020-08-22T15:57:08.000Z</time>
      </trkpt>
      <trkpt lat="39.9736172519624233245849609375" lon="-1.06041762046515941619873046875">
        <ele>1199.800048828125</ele>
        <time>2020-08-22T15:57:14.000Z</time>
      </trkpt>
      <trkpt lat="39.97355514205992221832275390625" lon="-1.06012232601642608642578125">
        <ele>1200.800048828125</ele>
        <time>2020-08-22T15:57:22.000Z</time>
      </trkpt>
      <trkpt lat="39.97345447540283203125" lon="-1.0600192286074161529541015625">
        <ele>1201.800048828125</ele>
        <time>2020-08-22T15:57:26.000Z</time>
      </trkpt>
      <trkpt lat="39.9732689000666141510009765625" lon="-1.0598432086408138275146484375">
        <ele>1203</ele>
        <time>2020-08-22T15:57:34.000Z</time>
      </trkpt>
      <trkpt lat="39.9731468595564365386962890625" lon="-1.059647910296916961669921875">
        <ele>1204.199951171875</ele>
        <time>2020-08-22T15:57:41.000Z</time>
      </trkpt>
      <trkpt lat="39.9730057083070278167724609375" lon="-1.05932570993900299072265625">
        <ele>1205.199951171875</ele>
        <time>2020-08-22T15:57:50.000Z</time>
      </trkpt>
      <trkpt lat="39.97286933474242687225341796875" lon="-1.05877174995839595794677734375">
        <ele>1206.199951171875</ele>
        <time>2020-08-22T15:58:03.000Z</time>
      </trkpt>
      <trkpt lat="39.97283949516713619232177734375" lon="-1.0583280958235263824462890625">
        <ele>1207.4000244140625</ele>
        <time>2020-08-22T15:58:13.000Z</time>
      </trkpt>
      <trkpt lat="39.97273270972073078155517578125" lon="-1.057589314877986907958984375">
        <ele>1208</ele>
        <time>2020-08-22T15:58:27.000Z</time>
      </trkpt>
      <trkpt lat="39.97244772501289844512939453125" lon="-1.05694583617150783538818359375">
        <ele>1208.199951171875</ele>
        <time>2020-08-22T15:58:41.000Z</time>
      </trkpt>
      <trkpt lat="39.97241034172475337982177734375" lon="-1.05685447342693805694580078125">
        <ele>1208.4000244140625</ele>
        <time>2020-08-22T15:58:43.000Z</time>
      </trkpt>
      <trkpt lat="39.97215938754379749298095703125" lon="-1.05621594004333019256591796875">
        <ele>1208.800048828125</ele>
        <time>2020-08-22T15:58:56.000Z</time>
      </trkpt>
      <trkpt lat="39.9719143845140933990478515625" lon="-1.055542789399623870849609375">
        <ele>1209.199951171875</ele>
        <time>2020-08-22T15:59:09.000Z</time>
      </trkpt>
      <trkpt lat="39.971581287682056427001953125" lon="-1.05492361821234226226806640625">
        <ele>1208.5999755859375</ele>
        <time>2020-08-22T15:59:20.000Z</time>
      </trkpt>
      <trkpt lat="39.97123754583299160003662109375" lon="-1.05431643314659595489501953125">
        <ele>1208.5999755859375</ele>
        <time>2020-08-22T15:59:31.000Z</time>
      </trkpt>
      <trkpt lat="39.97095306403934955596923828125" lon="-1.05379231274127960205078125">
        <ele>1209.5999755859375</ele>
        <time>2020-08-22T15:59:41.000Z</time>
      </trkpt>
      <trkpt lat="39.97074955143034458160400390625" lon="-1.053418479859828948974609375">
        <ele>1210.5999755859375</ele>
        <time>2020-08-22T15:59:48.000Z</time>
      </trkpt>
      <trkpt lat="39.9705255031585693359375" lon="-1.05301489122211933135986328125">
        <ele>1211.800048828125</ele>
        <time>2020-08-22T15:59:56.000Z</time>
      </trkpt>
      <trkpt lat="39.970364905893802642822265625" lon="-1.05272605083882808685302734375">
        <ele>1213</ele>
        <time>2020-08-22T16:00:02.000Z</time>
      </trkpt>
      <trkpt lat="39.97004664503037929534912109375" lon="-1.05210696347057819366455078125">
        <ele>1214</ele>
        <time>2020-08-22T16:00:14.000Z</time>
      </trkpt>
      <trkpt lat="39.969856627285480499267578125" lon="-1.05139031074941158294677734375">
        <ele>1214.800048828125</ele>
        <time>2020-08-22T16:00:26.000Z</time>
      </trkpt>
      <trkpt lat="39.96965319849550724029541015625" lon="-1.05074004270136356353759765625">
        <ele>1215</ele>
        <time>2020-08-22T16:00:37.000Z</time>
      </trkpt>
      <trkpt lat="39.96962268836796283721923828125" lon="-1.05069075711071491241455078125">
        <ele>1215.199951171875</ele>
        <time>2020-08-22T16:00:38.000Z</time>
      </trkpt>
      <trkpt lat="39.96955898590385913848876953125" lon="-1.0505999810993671417236328125">
        <ele>1215.199951171875</ele>
        <time>2020-08-22T16:00:39.000Z</time>
      </trkpt>
      <trkpt lat="39.969444237649440765380859375" lon="-1.05048825033009052276611328125">
        <ele>1215.4000244140625</ele>
        <time>2020-08-22T16:00:43.000Z</time>
      </trkpt>
      <trkpt lat="39.96893738396465778350830078125" lon="-1.050173006951808929443359375">
        <ele>1215.5999755859375</ele>
        <time>2020-08-22T16:00:55.000Z</time>
      </trkpt>
      <trkpt lat="39.96876798570156097412109375" lon="-1.05006546713411808013916015625">
        <ele>1216.199951171875</ele>
        <time>2020-08-22T16:00:59.000Z</time>
      </trkpt>
      <trkpt lat="39.9685160256922245025634765625" lon="-1.049902439117431640625">
        <ele>1217.4000244140625</ele>
        <time>2020-08-22T16:01:05.000Z</time>
      </trkpt>
      <trkpt lat="39.96801822446286678314208984375" lon="-1.04957990348339080810546875">
        <ele>1218.199951171875</ele>
        <time>2020-08-22T16:01:16.000Z</time>
      </trkpt>
      <trkpt lat="39.96762863360345363616943359375" lon="-1.04934328235685825347900390625">
        <ele>1218.4000244140625</ele>
        <time>2020-08-22T16:01:24.000Z</time>
      </trkpt>
      <trkpt lat="39.96711750514805316925048828125" lon="-1.0490272007882595062255859375">
        <ele>1217.800048828125</ele>
        <time>2020-08-22T16:01:33.000Z</time>
      </trkpt>
      <trkpt lat="39.9668617732822895050048828125" lon="-1.04886710643768310546875">
        <ele>1217</ele>
        <time>2020-08-22T16:01:37.000Z</time>
      </trkpt>
      <trkpt lat="39.9666079692542552947998046875" lon="-1.048675663769245147705078125">
        <ele>1216</ele>
        <time>2020-08-22T16:01:41.000Z</time>
      </trkpt>
      <trkpt lat="39.9661704339087009429931640625" lon="-1.048243157565593719482421875">
        <ele>1215</ele>
        <time>2020-08-22T16:01:48.000Z</time>
      </trkpt>
      <trkpt lat="39.965920485556125640869140625" lon="-1.0479777865111827850341796875">
        <ele>1213.800048828125</ele>
        <time>2020-08-22T16:01:52.000Z</time>
      </trkpt>
      <trkpt lat="39.9655142985284328460693359375" lon="-1.04755081236362457275390625">
        <ele>1212.5999755859375</ele>
        <time>2020-08-22T16:01:58.000Z</time>
      </trkpt>
      <trkpt lat="39.96531120501458644866943359375" lon="-1.0473229922354221343994140625">
        <ele>1211</ele>
        <time>2020-08-22T16:02:01.000Z</time>
      </trkpt>
      <trkpt lat="39.96505471877753734588623046875" lon="-1.046997271478176116943359375">
        <ele>1210</ele>
        <time>2020-08-22T16:02:05.000Z</time>
      </trkpt>
      <trkpt lat="39.96493318118155002593994140625" lon="-1.046821586787700653076171875">
        <ele>1208.800048828125</ele>
        <time>2020-08-22T16:02:07.000Z</time>
      </trkpt>
      <trkpt lat="39.96475565247237682342529296875" lon="-1.046553365886211395263671875">
        <ele>1207.800048828125</ele>
        <time>2020-08-22T16:02:10.000Z</time>
      </trkpt>
      <trkpt lat="39.9643398262560367584228515625" lon="-1.04596436955034732818603515625">
        <ele>1207</ele>
        <time>2020-08-22T16:02:17.000Z</time>
      </trkpt>
      <trkpt lat="39.96420227922499179840087890625" lon="-1.045829169452190399169921875">
        <ele>1206.800048828125</ele>
        <time>2020-08-22T16:02:19.000Z</time>
      </trkpt>
      <trkpt lat="39.9636917375028133392333984375" lon="-1.0453713499009609222412109375">
        <ele>1205.5999755859375</ele>
        <time>2020-08-22T16:02:26.000Z</time>
      </trkpt>
      <trkpt lat="39.9632937647402286529541015625" lon="-1.04501637630164623260498046875">
        <ele>1204.4000244140625</ele>
        <time>2020-08-22T16:02:31.000Z</time>
      </trkpt>
      <trkpt lat="39.9630513601005077362060546875" lon="-1.044793836772441864013671875">
        <ele>1202.800048828125</ele>
        <time>2020-08-22T16:02:34.000Z</time>
      </trkpt>
      <trkpt lat="39.96288682334125041961669921875" lon="-1.04464463889598846435546875">
        <ele>1201.5999755859375</ele>
        <time>2020-08-22T16:02:36.000Z</time>
      </trkpt>
      <trkpt lat="39.96280535124242305755615234375" lon="-1.04457129724323749542236328125">
        <ele>1200.5999755859375</ele>
        <time>2020-08-22T16:02:37.000Z</time>
      </trkpt>
      <trkpt lat="39.96265129186213016510009765625" lon="-1.04441908188164234161376953125">
        <ele>1199.199951171875</ele>
        <time>2020-08-22T16:02:39.000Z</time>
      </trkpt>
      <trkpt lat="39.96258406899869441986083984375" lon="-1.04433090426027774810791015625">
        <ele>1198.800048828125</ele>
        <time>2020-08-22T16:02:40.000Z</time>
      </trkpt>
      <trkpt lat="39.96249220333993434906005859375" lon="-1.0441155731678009033203125">
        <ele>1198</ele>
        <time>2020-08-22T16:02:42.000Z</time>
      </trkpt>
      <trkpt lat="39.9624696560204029083251953125" lon="-1.043871156871318817138671875">
        <ele>1197.4000244140625</ele>
        <time>2020-08-22T16:02:44.000Z</time>
      </trkpt>
      <trkpt lat="39.96251567266881465911865234375" lon="-1.04362514801323413848876953125">
        <ele>1197</ele>
        <time>2020-08-22T16:02:46.000Z</time>
      </trkpt>
      <trkpt lat="39.96275103650987148284912109375" lon="-1.04284144006669521331787109375">
        <ele>1195.800048828125</ele>
        <time>2020-08-22T16:02:52.000Z</time>
      </trkpt>
      <trkpt lat="39.96287525631487369537353515625" lon="-1.0424249432981014251708984375">
        <ele>1194.800048828125</ele>
        <time>2020-08-22T16:02:55.000Z</time>
      </trkpt>
      <trkpt lat="39.962962009012699127197265625" lon="-1.042146496474742889404296875">
        <ele>1193.800048828125</ele>
        <time>2020-08-22T16:02:57.000Z</time>
      </trkpt>
      <trkpt lat="39.9630523659288883209228515625" lon="-1.0418690554797649383544921875">
        <ele>1191.800048828125</ele>
        <time>2020-08-22T16:02:59.000Z</time>
      </trkpt>
      <trkpt lat="39.9631321616470813751220703125" lon="-1.041582562029361724853515625">
        <ele>1190.5999755859375</ele>
        <time>2020-08-22T16:03:01.000Z</time>
      </trkpt>
      <trkpt lat="39.96320231817662715911865234375" lon="-1.04129045270383358001708984375">
        <ele>1189.4000244140625</ele>
        <time>2020-08-22T16:03:03.000Z</time>
      </trkpt>
      <trkpt lat="39.96323467232286930084228515625" lon="-1.04114544577896595001220703125">
        <ele>1188.199951171875</ele>
        <time>2020-08-22T16:03:04.000Z</time>
      </trkpt>
      <trkpt lat="39.96327004395425319671630859375" lon="-1.04085878469049930572509765625">
        <ele>1187.199951171875</ele>
        <time>2020-08-22T16:03:06.000Z</time>
      </trkpt>
      <trkpt lat="39.96316074393689632415771484375" lon="-1.04061906225979328155517578125">
        <ele>1186.800048828125</ele>
        <time>2020-08-22T16:03:08.000Z</time>
      </trkpt>
      <trkpt lat="39.96294214390218257904052734375" lon="-1.0404803417623043060302734375">
        <ele>1185.5999755859375</ele>
        <time>2020-08-22T16:03:10.000Z</time>
      </trkpt>
      <trkpt lat="39.96261877007782459259033203125" lon="-1.04028814472258090972900390625">
        <ele>1183.800048828125</ele>
        <time>2020-08-22T16:03:13.000Z</time>
      </trkpt>
      <trkpt lat="39.96240419335663318634033203125" lon="-1.04015604592859745025634765625">
        <ele>1182.4000244140625</ele>
        <time>2020-08-22T16:03:15.000Z</time>
      </trkpt>
      <trkpt lat="39.96229715645313262939453125" lon="-1.0400910861790180206298828125">
        <ele>1180.5999755859375</ele>
        <time>2020-08-22T16:03:16.000Z</time>
      </trkpt>
      <trkpt lat="39.9621897004544734954833984375" lon="-1.040020845830440521240234375">
        <ele>1179</ele>
        <time>2020-08-22T16:03:17.000Z</time>
      </trkpt>
      <trkpt lat="39.9620884470641613006591796875" lon="-1.03993467986583709716796875">
        <ele>1178.199951171875</ele>
        <time>2020-08-22T16:03:18.000Z</time>
      </trkpt>
      <trkpt lat="39.96199599467217922210693359375" lon="-1.0398325882852077484130859375">
        <ele>1177.5999755859375</ele>
        <time>2020-08-22T16:03:19.000Z</time>
      </trkpt>
      <trkpt lat="39.9619130976498126983642578125" lon="-1.03971473872661590576171875">
        <ele>1176.5999755859375</ele>
        <time>2020-08-22T16:03:20.000Z</time>
      </trkpt>
      <trkpt lat="39.9618443660438060760498046875" lon="-1.03958104737102985382080078125">
        <ele>1175.199951171875</ele>
        <time>2020-08-22T16:03:21.000Z</time>
      </trkpt>
      <trkpt lat="39.96172810904681682586669921875" lon="-1.0392941348254680633544921875">
        <ele>1174</ele>
        <time>2020-08-22T16:03:23.000Z</time>
      </trkpt>
      <trkpt lat="39.96161780320107936859130859375" lon="-1.03900185786187648773193359375">
        <ele>1170.800048828125</ele>
        <time>2020-08-22T16:03:25.000Z</time>
      </trkpt>
      <trkpt lat="39.96156650595366954803466796875" lon="-1.03885433636605739593505859375">
        <ele>1169.800048828125</ele>
        <time>2020-08-22T16:03:26.000Z</time>
      </trkpt>
      <trkpt lat="39.9614655040204524993896484375" lon="-1.0385595448315143585205078125">
        <ele>1168.5999755859375</ele>
        <time>2020-08-22T16:03:28.000Z</time>
      </trkpt>
      <trkpt lat="39.96126593090593814849853515625" lon="-1.03797926567494869232177734375">
        <ele>1167.199951171875</ele>
        <time>2020-08-22T16:03:32.000Z</time>
      </trkpt>
      <trkpt lat="39.96120122261345386505126953125" lon="-1.03783643804490566253662109375">
        <ele>1166.800048828125</ele>
        <time>2020-08-22T16:03:33.000Z</time>
      </trkpt>
      <trkpt lat="39.96104322373867034912109375" lon="-1.03759654797613620758056640625">
        <ele>1165.800048828125</ele>
        <time>2020-08-22T16:03:35.000Z</time>
      </trkpt>
      <trkpt lat="39.9607731588184833526611328125" lon="-1.03729999624192714691162109375">
        <ele>1164</ele>
        <time>2020-08-22T16:03:38.000Z</time>
      </trkpt>
      <trkpt lat="39.96059504337608814239501953125" lon="-1.03711165487766265869140625">
        <ele>1162.5999755859375</ele>
        <time>2020-08-22T16:03:40.000Z</time>
      </trkpt>
      <trkpt lat="39.96050636284053325653076171875" lon="-1.0370189510285854339599609375">
        <ele>1161.199951171875</ele>
        <time>2020-08-22T16:03:41.000Z</time>
      </trkpt>
      <trkpt lat="39.96041701175272464752197265625" lon="-1.0369284264743328094482421875">
        <ele>1159.4000244140625</ele>
        <time>2020-08-22T16:03:42.000Z</time>
      </trkpt>
      <trkpt lat="39.9602387286722660064697265625" lon="-1.03675014339387416839599609375">
        <ele>1158</ele>
        <time>2020-08-22T16:03:44.000Z</time>
      </trkpt>
      <trkpt lat="39.95997461490333080291748046875" lon="-1.03648259304463863372802734375">
        <ele>1156.5999755859375</ele>
        <time>2020-08-22T16:03:47.000Z</time>
      </trkpt>
      <trkpt lat="39.959693737328052520751953125" lon="-1.03625762276351451873779296875">
        <ele>1155.4000244140625</ele>
        <time>2020-08-22T16:03:50.000Z</time>
      </trkpt>
      <trkpt lat="39.95921554975211620330810546875" lon="-1.035907007753849029541015625">
        <ele>1154.5999755859375</ele>
        <time>2020-08-22T16:03:55.000Z</time>
      </trkpt>
      <trkpt lat="39.9590525217354297637939453125" lon="-1.03573702275753021240234375">
        <ele>1154.4000244140625</ele>
        <time>2020-08-22T16:03:57.000Z</time>
      </trkpt>
      <trkpt lat="39.95881657116115093231201171875" lon="-1.0354642756283283233642578125">
        <ele>1152.5999755859375</ele>
        <time>2020-08-22T16:04:00.000Z</time>
      </trkpt>
      <trkpt lat="39.95866368524730205535888671875" lon="-1.0352812148630619049072265625">
        <ele>1151</ele>
        <time>2020-08-22T16:04:02.000Z</time>
      </trkpt>
      <trkpt lat="39.9584429897367954254150390625" lon="-1.03501022793352603912353515625">
        <ele>1149.199951171875</ele>
        <time>2020-08-22T16:04:05.000Z</time>
      </trkpt>
      <trkpt lat="39.95823520235717296600341796875" lon="-1.03475977666676044464111328125">
        <ele>1148.199951171875</ele>
        <time>2020-08-22T16:04:08.000Z</time>
      </trkpt>
      <trkpt lat="39.95792247354984283447265625" lon="-1.03437504731118679046630859375">
        <ele>1146.800048828125</ele>
        <time>2020-08-22T16:04:13.000Z</time>
      </trkpt>
      <trkpt lat="39.95750698260962963104248046875" lon="-1.0338697023689746856689453125">
        <ele>1145.800048828125</ele>
        <time>2020-08-22T16:04:20.000Z</time>
      </trkpt>
      <trkpt lat="39.95709543116390705108642578125" lon="-1.033357568085193634033203125">
        <ele>1144.800048828125</ele>
        <time>2020-08-22T16:04:27.000Z</time>
      </trkpt>
      <trkpt lat="39.956654794514179229736328125" lon="-1.03283889591693878173828125">
        <ele>1144</ele>
        <time>2020-08-22T16:04:34.000Z</time>
      </trkpt>
      <trkpt lat="39.95658916421234607696533203125" lon="-1.03277318179607391357421875">
        <ele>1144</ele>
        <time>2020-08-22T16:04:35.000Z</time>
      </trkpt>
      <trkpt lat="39.95644834823906421661376953125" lon="-1.03267452679574489593505859375">
        <ele>1143.4000244140625</ele>
        <time>2020-08-22T16:04:37.000Z</time>
      </trkpt>
      <trkpt lat="39.9562221206724643707275390625" lon="-1.03258534334599971771240234375">
        <ele>1142.199951171875</ele>
        <time>2020-08-22T16:04:40.000Z</time>
      </trkpt>
      <trkpt lat="39.95585507713258266448974609375" lon="-1.032453663647174835205078125">
        <ele>1141</ele>
        <time>2020-08-22T16:04:45.000Z</time>
      </trkpt>
      <trkpt lat="39.95531192980706691741943359375" lon="-1.03210841305553913116455078125">
        <ele>1140.5999755859375</ele>
        <time>2020-08-22T16:04:53.000Z</time>
      </trkpt>
      <trkpt lat="39.95496106334030628204345703125" lon="-1.03185025043785572052001953125">
        <ele>1140</ele>
        <time>2020-08-22T16:04:58.000Z</time>
      </trkpt>
      <trkpt lat="39.95462327264249324798583984375" lon="-1.0315378569066524505615234375">
        <ele>1138.5999755859375</ele>
        <time>2020-08-22T16:05:03.000Z</time>
      </trkpt>
      <trkpt lat="39.95432051829993724822998046875" lon="-1.031194366514682769775390625">
        <ele>1137.5999755859375</ele>
        <time>2020-08-22T16:05:08.000Z</time>
      </trkpt>
      <trkpt lat="39.9538798816502094268798828125" lon="-1.03067141957581043243408203125">
        <ele>1136.4000244140625</ele>
        <time>2020-08-22T16:05:16.000Z</time>
      </trkpt>
      <trkpt lat="39.9534599483013153076171875" lon="-1.03008016012609004974365234375">
        <ele>1135.800048828125</ele>
        <time>2020-08-22T16:05:24.000Z</time>
      </trkpt>
      <trkpt lat="39.953280575573444366455078125" lon="-1.0296676866710186004638671875">
        <ele>1135.199951171875</ele>
        <time>2020-08-22T16:05:28.000Z</time>
      </trkpt>
      <trkpt lat="39.95289945043623447418212890625" lon="-1.0290799476206302642822265625">
        <ele>1134.199951171875</ele>
        <time>2020-08-22T16:05:34.000Z</time>
      </trkpt>
      <trkpt lat="39.9525179900228977203369140625" lon="-1.02867702953517436981201171875">
        <ele>1132.199951171875</ele>
        <time>2020-08-22T16:05:39.000Z</time>
      </trkpt>
      <trkpt lat="39.952323697507381439208984375" lon="-1.028583906590938568115234375">
        <ele>1130.800048828125</ele>
        <time>2020-08-22T16:05:41.000Z</time>
      </trkpt>
      <trkpt lat="39.952221103012561798095703125" lon="-1.02855498902499675750732421875">
        <ele>1129.4000244140625</ele>
        <time>2020-08-22T16:05:42.000Z</time>
      </trkpt>
      <trkpt lat="39.95211473666131496429443359375" lon="-1.0285441763699054718017578125">
        <ele>1128</ele>
        <time>2020-08-22T16:05:43.000Z</time>
      </trkpt>
      <trkpt lat="39.951905272901058197021484375" lon="-1.0285538993775844573974609375">
        <ele>1126</ele>
        <time>2020-08-22T16:05:45.000Z</time>
      </trkpt>
      <trkpt lat="39.95170569978654384613037109375" lon="-1.028587259352207183837890625">
        <ele>1124</ele>
        <time>2020-08-22T16:05:47.000Z</time>
      </trkpt>
      <trkpt lat="39.9515181966125965118408203125" lon="-1.0286192782223224639892578125">
        <ele>1122.5999755859375</ele>
        <time>2020-08-22T16:05:49.000Z</time>
      </trkpt>
      <trkpt lat="39.9514306895434856414794921875" lon="-1.02861768566071987152099609375">
        <ele>1122.199951171875</ele>
        <time>2020-08-22T16:05:50.000Z</time>
      </trkpt>
      <trkpt lat="39.95127101428806781768798828125" lon="-1.028543673455715179443359375">
        <ele>1121.5999755859375</ele>
        <time>2020-08-22T16:05:52.000Z</time>
      </trkpt>
      <trkpt lat="39.95088695548474788665771484375" lon="-1.0280335508286952972412109375">
        <ele>1121</ele>
        <time>2020-08-22T16:05:59.000Z</time>
      </trkpt>
      <trkpt lat="39.950492419302463531494140625" lon="-1.027466766536235809326171875">
        <ele>1121</ele>
        <time>2020-08-22T16:06:07.000Z</time>
      </trkpt>
      <trkpt lat="39.9500347673892974853515625" lon="-1.026990003883838653564453125">
        <ele>1120.800048828125</ele>
        <time>2020-08-22T16:06:15.000Z</time>
      </trkpt>
      <trkpt lat="39.949907362461090087890625" lon="-1.02687559090554714202880859375">
        <ele>1120.4000244140625</ele>
        <time>2020-08-22T16:06:17.000Z</time>
      </trkpt>
      <trkpt lat="39.94953545741736888885498046875" lon="-1.02654014714062213897705078125">
        <ele>1119.199951171875</ele>
        <time>2020-08-22T16:06:23.000Z</time>
      </trkpt>
      <trkpt lat="39.949060790240764617919921875" lon="-1.02608668617904186248779296875">
        <ele>1118.199951171875</ele>
        <time>2020-08-22T16:06:31.000Z</time>
      </trkpt>
      <trkpt lat="39.9490029551088809967041015625" lon="-1.026029773056507110595703125">
        <ele>1118.199951171875</ele>
        <time>2020-08-22T16:06:32.000Z</time>
      </trkpt>
      <trkpt lat="39.94852895848453044891357421875" lon="-1.02557681500911712646484375">
        <ele>1117</ele>
        <time>2020-08-22T16:06:40.000Z</time>
      </trkpt>
      <trkpt lat="39.94834790937602519989013671875" lon="-1.02541051805019378662109375">
        <ele>1116</ele>
        <time>2020-08-22T16:06:43.000Z</time>
      </trkpt>
      <trkpt lat="39.94794524274766445159912109375" lon="-1.02517205290496349334716796875">
        <ele>1115</ele>
        <time>2020-08-22T16:06:49.000Z</time>
      </trkpt>
      <trkpt lat="39.94758666492998600006103515625" lon="-1.0250241123139858245849609375">
        <ele>1113.5999755859375</ele>
        <time>2020-08-22T16:06:54.000Z</time>
      </trkpt>
      <trkpt lat="39.947292543947696685791015625" lon="-1.02489545010030269622802734375">
        <ele>1112.4000244140625</ele>
        <time>2020-08-22T16:06:58.000Z</time>
      </trkpt>
      <trkpt lat="39.94714535772800445556640625" lon="-1.0248143970966339111328125">
        <ele>1111.199951171875</ele>
        <time>2020-08-22T16:07:00.000Z</time>
      </trkpt>
      <trkpt lat="39.94707536883652210235595703125" lon="-1.02476066909730434417724609375">
        <ele>1110.800048828125</ele>
        <time>2020-08-22T16:07:01.000Z</time>
      </trkpt>
      <trkpt lat="39.946879483759403228759765625" lon="-1.02454022504389286041259765625">
        <ele>1110.199951171875</ele>
        <time>2020-08-22T16:07:04.000Z</time>
      </trkpt>
      <trkpt lat="39.9466348998248577117919921875" lon="-1.02415499277412891387939453125">
        <ele>1109.199951171875</ele>
        <time>2020-08-22T16:07:08.000Z</time>
      </trkpt>
      <trkpt lat="39.9465532600879669189453125" lon="-1.02390655316412448883056640625">
        <ele>1109</ele>
        <time>2020-08-22T16:07:10.000Z</time>
      </trkpt>
      <trkpt lat="39.94647874496877193450927734375" lon="-1.0234989412128925323486328125">
        <ele>1107.800048828125</ele>
        <time>2020-08-22T16:07:13.000Z</time>
      </trkpt>
      <trkpt lat="39.94646650739014148712158203125" lon="-1.02335820905864238739013671875">
        <ele>1107</ele>
        <time>2020-08-22T16:07:14.000Z</time>
      </trkpt>
      <trkpt lat="39.9464699439704418182373046875" lon="-1.0232158005237579345703125">
        <ele>1106.4000244140625</ele>
        <time>2020-08-22T16:07:15.000Z</time>
      </trkpt>
      <trkpt lat="39.94649517349898815155029296875" lon="-1.02307674475014209747314453125">
        <ele>1106</ele>
        <time>2020-08-22T16:07:16.000Z</time>
      </trkpt>
      <trkpt lat="39.9465358257293701171875" lon="-1.02294129319489002227783203125">
        <ele>1105.4000244140625</ele>
        <time>2020-08-22T16:07:17.000Z</time>
      </trkpt>
      <trkpt lat="39.94658888317644596099853515625" lon="-1.0228119604289531707763671875">
        <ele>1105.199951171875</ele>
        <time>2020-08-22T16:07:18.000Z</time>
      </trkpt>
      <trkpt lat="39.94665241800248622894287109375" lon="-1.02268732152879238128662109375">
        <ele>1104.4000244140625</ele>
        <time>2020-08-22T16:07:19.000Z</time>
      </trkpt>
      <trkpt lat="39.94678384624421596527099609375" lon="-1.02243469096720218658447265625">
        <ele>1103.199951171875</ele>
        <time>2020-08-22T16:07:21.000Z</time>
      </trkpt>
      <trkpt lat="39.94694553315639495849609375" lon="-1.02203101851046085357666015625">
        <ele>1101.5999755859375</ele>
        <time>2020-08-22T16:07:24.000Z</time>
      </trkpt>
      <trkpt lat="39.94702138938009738922119140625" lon="-1.02174569852650165557861328125">
        <ele>1100.800048828125</ele>
        <time>2020-08-22T16:07:26.000Z</time>
      </trkpt>
      <trkpt lat="39.94704184122383594512939453125" lon="-1.02159800939261913299560546875">
        <ele>1100.199951171875</ele>
        <time>2020-08-22T16:07:27.000Z</time>
      </trkpt>
      <trkpt lat="39.94705257005989551544189453125" lon="-1.02144747041165828704833984375">
        <ele>1099.4000244140625</ele>
        <time>2020-08-22T16:07:28.000Z</time>
      </trkpt>
      <trkpt lat="39.94705122895538806915283203125" lon="-1.02129743434488773345947265625">
        <ele>1099</ele>
        <time>2020-08-22T16:07:29.000Z</time>
      </trkpt>
      <trkpt lat="39.94702759198844432830810546875" lon="-1.02115494199097156524658203125">
        <ele>1098.199951171875</ele>
        <time>2020-08-22T16:07:30.000Z</time>
      </trkpt>
      <trkpt lat="39.94690219871699810028076171875" lon="-1.02092175744473934173583984375">
        <ele>1097.4000244140625</ele>
        <time>2020-08-22T16:07:32.000Z</time>
      </trkpt>
      <trkpt lat="39.946658872067928314208984375" lon="-1.0206568054854869842529296875">
        <ele>1096.4000244140625</ele>
        <time>2020-08-22T16:07:35.000Z</time>
      </trkpt>
      <trkpt lat="39.946569018065929412841796875" lon="-1.02058983407914638519287109375">
        <ele>1095.4000244140625</ele>
        <time>2020-08-22T16:07:36.000Z</time>
      </trkpt>
      <trkpt lat="39.9464736320078372955322265625" lon="-1.02053216658532619476318359375">
        <ele>1095</ele>
        <time>2020-08-22T16:07:37.000Z</time>
      </trkpt>
      <trkpt lat="39.94618244469165802001953125" lon="-1.0204003192484378814697265625">
        <ele>1093.800048828125</ele>
        <time>2020-08-22T16:07:40.000Z</time>
      </trkpt>
      <trkpt lat="39.9459861405193805694580078125" lon="-1.020320355892181396484375">
        <ele>1092.5999755859375</ele>
        <time>2020-08-22T16:07:42.000Z</time>
      </trkpt>
      <trkpt lat="39.9457946978509426116943359375" lon="-1.0202363692224025726318359375">
        <ele>1091.5999755859375</ele>
        <time>2020-08-22T16:07:44.000Z</time>
      </trkpt>
      <trkpt lat="39.945610128343105316162109375" lon="-1.02015565149486064910888671875">
        <ele>1090.199951171875</ele>
        <time>2020-08-22T16:07:46.000Z</time>
      </trkpt>
      <trkpt lat="39.945428073406219482421875" lon="-1.020075939595699310302734375">
        <ele>1088.199951171875</ele>
        <time>2020-08-22T16:07:48.000Z</time>
      </trkpt>
      <trkpt lat="39.9452465213835239410400390625" lon="-1.01999220438301563262939453125">
        <ele>1086.5999755859375</ele>
        <time>2020-08-22T16:07:50.000Z</time>
      </trkpt>
      <trkpt lat="39.94506924413144588470458984375" lon="-1.0198910348117351531982421875">
        <ele>1085.800048828125</ele>
        <time>2020-08-22T16:07:52.000Z</time>
      </trkpt>
      <trkpt lat="39.94491233490407466888427734375" lon="-1.019754074513912200927734375">
        <ele>1085.5999755859375</ele>
        <time>2020-08-22T16:07:54.000Z</time>
      </trkpt>
      <trkpt lat="39.94456700049340724945068359375" lon="-1.0193292796611785888671875">
        <ele>1084.4000244140625</ele>
        <time>2020-08-22T16:07:59.000Z</time>
      </trkpt>
      <trkpt lat="39.9443188123404979705810546875" lon="-1.01897564716637134552001953125">
        <ele>1083.199951171875</ele>
        <time>2020-08-22T16:08:03.000Z</time>
      </trkpt>
      <trkpt lat="39.943940453231334686279296875" lon="-1.01849435828626155853271484375">
        <ele>1082.199951171875</ele>
        <time>2020-08-22T16:08:09.000Z</time>
      </trkpt>
      <trkpt lat="39.9435894191265106201171875" lon="-1.01798809133470058441162109375">
        <ele>1080.800048828125</ele>
        <time>2020-08-22T16:08:15.000Z</time>
      </trkpt>
      <trkpt lat="39.94340660981833934783935546875" lon="-1.01770411245524883270263671875">
        <ele>1079.5999755859375</ele>
        <time>2020-08-22T16:08:18.000Z</time>
      </trkpt>
      <trkpt lat="39.9430878460407257080078125" lon="-1.01722584106028079986572265625">
        <ele>1078.5999755859375</ele>
        <time>2020-08-22T16:08:23.000Z</time>
      </trkpt>
      <trkpt lat="39.94290956296026706695556640625" lon="-1.01695544086396694183349609375">
        <ele>1077.5999755859375</ele>
        <time>2020-08-22T16:08:26.000Z</time>
      </trkpt>
      <trkpt lat="39.94266916997730731964111328125" lon="-1.01662066765129566192626953125">
        <ele>1076.199951171875</ele>
        <time>2020-08-22T16:08:30.000Z</time>
      </trkpt>
      <trkpt lat="39.9422563612461090087890625" lon="-1.01609327830374240875244140625">
        <ele>1075.199951171875</ele>
        <time>2020-08-22T16:08:37.000Z</time>
      </trkpt>
      <trkpt lat="39.9421968497335910797119140625" lon="-1.0160216130316257476806640625">
        <ele>1075</ele>
        <time>2020-08-22T16:08:38.000Z</time>
      </trkpt>
      <trkpt lat="39.94207304902374744415283203125" lon="-1.0158932022750377655029296875">
        <ele>1074.4000244140625</ele>
        <time>2020-08-22T16:08:40.000Z</time>
      </trkpt>
      <trkpt lat="39.94193038903176784515380859375" lon="-1.0157993249595165252685546875">
        <ele>1074</ele>
        <time>2020-08-22T16:08:42.000Z</time>
      </trkpt>
      <trkpt lat="39.94185470044612884521484375" lon="-1.0157698206603527069091796875">
        <ele>1073.800048828125</ele>
        <time>2020-08-22T16:08:43.000Z</time>
      </trkpt>
      <trkpt lat="39.9413563124835491180419921875" lon="-1.01569262333214282989501953125">
        <ele>1072.5999755859375</ele>
        <time>2020-08-22T16:08:49.000Z</time>
      </trkpt>
      <trkpt lat="39.9408061243593692779541015625" lon="-1.0156068764626979827880859375">
        <ele>1071.5999755859375</ele>
        <time>2020-08-22T16:08:55.000Z</time>
      </trkpt>
      <trkpt lat="39.94063152931630611419677734375" lon="-1.015503443777561187744140625">
        <ele>1070.4000244140625</ele>
        <time>2020-08-22T16:08:57.000Z</time>
      </trkpt>
      <trkpt lat="39.9404765479266643524169921875" lon="-1.01534930057823657989501953125">
        <ele>1068.5999755859375</ele>
        <time>2020-08-22T16:08:59.000Z</time>
      </trkpt>
      <trkpt lat="39.9403330497443675994873046875" lon="-1.01517244242131710052490234375">
        <ele>1067.199951171875</ele>
        <time>2020-08-22T16:09:01.000Z</time>
      </trkpt>
      <trkpt lat="39.94019634090363979339599609375" lon="-1.0149896331131458282470703125">
        <ele>1066.199951171875</ele>
        <time>2020-08-22T16:09:03.000Z</time>
      </trkpt>
      <trkpt lat="39.93998947553336620330810546875" lon="-1.01472501643002033233642578125">
        <ele>1065</ele>
        <time>2020-08-22T16:09:06.000Z</time>
      </trkpt>
      <trkpt lat="39.939858131110668182373046875" lon="-1.01455184631049633026123046875">
        <ele>1063.800048828125</ele>
        <time>2020-08-22T16:09:08.000Z</time>
      </trkpt>
      <trkpt lat="39.939669705927371978759765625" lon="-1.01429938338696956634521484375">
        <ele>1062.800048828125</ele>
        <time>2020-08-22T16:09:11.000Z</time>
      </trkpt>
      <trkpt lat="39.939426966011524200439453125" lon="-1.0139690525829792022705078125">
        <ele>1061.5999755859375</ele>
        <time>2020-08-22T16:09:15.000Z</time>
      </trkpt>
      <trkpt lat="39.9391461722552776336669921875" lon="-1.013552136719226837158203125">
        <ele>1060.4000244140625</ele>
        <time>2020-08-22T16:09:20.000Z</time>
      </trkpt>
      <trkpt lat="39.93876722641289234161376953125" lon="-1.01296464912593364715576171875">
        <ele>1060</ele>
        <time>2020-08-22T16:09:27.000Z</time>
      </trkpt>
      <trkpt lat="39.93855156004428863525390625" lon="-1.0126343183219432830810546875">
        <ele>1059.4000244140625</ele>
        <time>2020-08-22T16:09:31.000Z</time>
      </trkpt>
      <trkpt lat="39.93817127309739589691162109375" lon="-1.0120631754398345947265625">
        <ele>1058.800048828125</ele>
        <time>2020-08-22T16:09:38.000Z</time>
      </trkpt>
      <trkpt lat="39.938012771308422088623046875" lon="-1.011830158531665802001953125">
        <ele>1058.4000244140625</ele>
        <time>2020-08-22T16:09:41.000Z</time>
      </trkpt>
      <trkpt lat="39.937638938426971435546875" lon="-1.01127318106591701507568359375">
        <ele>1058</ele>
        <time>2020-08-22T16:09:48.000Z</time>
      </trkpt>
      <trkpt lat="39.93725412525236606597900390625" lon="-1.01069013588130474090576171875">
        <ele>1057</ele>
        <time>2020-08-22T16:09:55.000Z</time>
      </trkpt>
      <trkpt lat="39.936984479427337646484375" lon="-1.0102759860455989837646484375">
        <ele>1056</ele>
        <time>2020-08-22T16:10:00.000Z</time>
      </trkpt>
      <trkpt lat="39.93664543144404888153076171875" lon="-1.009691767394542694091796875">
        <ele>1055.5999755859375</ele>
        <time>2020-08-22T16:10:07.000Z</time>
      </trkpt>
      <trkpt lat="39.9363375641405582427978515625" lon="-1.00908122956752777099609375">
        <ele>1055.5999755859375</ele>
        <time>2020-08-22T16:10:14.000Z</time>
      </trkpt>
      <trkpt lat="39.9360914714634418487548828125" lon="-1.008674204349517822265625">
        <ele>1055</ele>
        <time>2020-08-22T16:10:19.000Z</time>
      </trkpt>
      <trkpt lat="39.93567044846713542938232421875" lon="-1.0082103498280048370361328125">
        <ele>1054.199951171875</ele>
        <time>2020-08-22T16:10:26.000Z</time>
      </trkpt>
      <trkpt lat="39.93538714013993740081787109375" lon="-1.007849760353565216064453125">
        <ele>1053.800048828125</ele>
        <time>2020-08-22T16:10:31.000Z</time>
      </trkpt>
      <trkpt lat="39.93505957536399364471435546875" lon="-1.00751808844506740570068359375">
        <ele>1052.800048828125</ele>
        <time>2020-08-22T16:10:36.000Z</time>
      </trkpt>
      <trkpt lat="39.9346997402608394622802734375" lon="-1.0072695650160312652587890625">
        <ele>1051.4000244140625</ele>
        <time>2020-08-22T16:10:41.000Z</time>
      </trkpt>
      <trkpt lat="39.9344989098608493804931640625" lon="-1.00710041821002960205078125">
        <ele>1050.199951171875</ele>
        <time>2020-08-22T16:10:44.000Z</time>
      </trkpt>
      <trkpt lat="39.93423881940543651580810546875" lon="-1.0068581812083721160888671875">
        <ele>1049.199951171875</ele>
        <time>2020-08-22T16:10:48.000Z</time>
      </trkpt>
      <trkpt lat="39.9337939918041229248046875" lon="-1.00643849931657314300537109375">
        <ele>1048.800048828125</ele>
        <time>2020-08-22T16:10:55.000Z</time>
      </trkpt>
      <trkpt lat="39.93330155499279499053955078125" lon="-1.0059676878154277801513671875">
        <ele>1048.5999755859375</ele>
        <time>2020-08-22T16:11:03.000Z</time>
      </trkpt>
      <trkpt lat="39.9328795261681079864501953125" lon="-1.00556083023548126220703125">
        <ele>1048.199951171875</ele>
        <time>2020-08-22T16:11:10.000Z</time>
      </trkpt>
      <trkpt lat="39.9324207007884979248046875" lon="-1.00512807257473468780517578125">
        <ele>1047.4000244140625</ele>
        <time>2020-08-22T16:11:17.000Z</time>
      </trkpt>
      <trkpt lat="39.9321657232940196990966796875" lon="-1.00490964017808437347412109375">
        <ele>1047.199951171875</ele>
        <time>2020-08-22T16:11:21.000Z</time>
      </trkpt>
      <trkpt lat="39.93209523148834705352783203125" lon="-1.0048753581941127777099609375">
        <ele>1047</ele>
        <time>2020-08-22T16:11:22.000Z</time>
      </trkpt>
      <trkpt lat="39.93152408860623836517333984375" lon="-1.00472867488861083984375">
        <ele>1046.4000244140625</ele>
        <time>2020-08-22T16:11:30.000Z</time>
      </trkpt>
      <trkpt lat="39.931391738355159759521484375" lon="-1.00468081422150135040283203125">
        <ele>1046.5999755859375</ele>
        <time>2020-08-22T16:11:32.000Z</time>
      </trkpt>
      <trkpt lat="39.930955208837985992431640625" lon="-1.00436029024422168731689453125">
        <ele>1045.800048828125</ele>
        <time>2020-08-22T16:11:39.000Z</time>
      </trkpt>
      <trkpt lat="39.93049596436321735382080078125" lon="-1.0038242675364017486572265625">
        <ele>1045.4000244140625</ele>
        <time>2020-08-22T16:11:46.000Z</time>
      </trkpt>
      <trkpt lat="39.9302982352674007415771484375" lon="-1.00357574410736560821533203125">
        <ele>1044.800048828125</ele>
        <time>2020-08-22T16:11:49.000Z</time>
      </trkpt>
      <trkpt lat="39.92997586727142333984375" lon="-1.00317106582224369049072265625">
        <ele>1043.5999755859375</ele>
        <time>2020-08-22T16:11:54.000Z</time>
      </trkpt>
      <trkpt lat="39.92971711792051792144775390625" lon="-1.00285976193845272064208984375">
        <ele>1042.4000244140625</ele>
        <time>2020-08-22T16:11:58.000Z</time>
      </trkpt>
      <trkpt lat="39.92952995002269744873046875" lon="-1.0026244819164276123046875">
        <ele>1041.199951171875</ele>
        <time>2020-08-22T16:12:01.000Z</time>
      </trkpt>
      <trkpt lat="39.92911378853023052215576171875" lon="-1.00209164433181285858154296875">
        <ele>1040.199951171875</ele>
        <time>2020-08-22T16:12:08.000Z</time>
      </trkpt>
      <trkpt lat="39.92905679158866405487060546875" lon="-1.0020131058990955352783203125">
        <ele>1040.199951171875</ele>
        <time>2020-08-22T16:12:09.000Z</time>
      </trkpt>
      <trkpt lat="39.9286570586264133453369140625" lon="-1.00147842429578304290771484375">
        <ele>1039.5999755859375</ele>
        <time>2020-08-22T16:12:16.000Z</time>
      </trkpt>
      <trkpt lat="39.9284840561449527740478515625" lon="-1.00126527249813079833984375">
        <ele>1039</ele>
        <time>2020-08-22T16:12:19.000Z</time>
      </trkpt>
      <trkpt lat="39.92813746444880962371826171875" lon="-1.00087794475257396697998046875">
        <ele>1037.800048828125</ele>
        <time>2020-08-22T16:12:25.000Z</time>
      </trkpt>
      <trkpt lat="39.92774904705584049224853515625" lon="-1.000385843217372894287109375">
        <ele>1037</ele>
        <time>2020-08-22T16:12:32.000Z</time>
      </trkpt>
      <trkpt lat="39.927699007093906402587890625" lon="-1.00029305554926395416259765625">
        <ele>1036.800048828125</ele>
        <time>2020-08-22T16:12:33.000Z</time>
      </trkpt>
      <trkpt lat="39.9274691753089427947998046875" lon="-0.99962267093360424041748046875">
        <ele>1036</ele>
        <time>2020-08-22T16:12:39.000Z</time>
      </trkpt>
      <trkpt lat="39.92743455804884433746337890625" lon="-0.99949861876666545867919921875">
        <ele>1035.800048828125</ele>
        <time>2020-08-22T16:12:40.000Z</time>
      </trkpt>
      <trkpt lat="39.9272559396922588348388671875" lon="-0.9988715685904026031494140625">
        <ele>1034.800048828125</ele>
        <time>2020-08-22T16:12:45.000Z</time>
      </trkpt>
      <trkpt lat="39.92718628607690334320068359375" lon="-0.99862170405685901641845703125">
        <ele>1033.4000244140625</ele>
        <time>2020-08-22T16:12:47.000Z</time>
      </trkpt>
      <trkpt lat="39.9270826019346714019775390625" lon="-0.998249463737010955810546875">
        <ele>1032</ele>
        <time>2020-08-22T16:12:50.000Z</time>
      </trkpt>
      <trkpt lat="39.92701395414769649505615234375" lon="-0.99801041185855865478515625">
        <ele>1031</ele>
        <time>2020-08-22T16:12:52.000Z</time>
      </trkpt>
      <trkpt lat="39.9269152991473674774169921875" lon="-0.99766298197209835052490234375">
        <ele>1030</ele>
        <time>2020-08-22T16:12:55.000Z</time>
      </trkpt>
      <trkpt lat="39.9267563782632350921630859375" lon="-0.99710592068731784820556640625">
        <ele>1028.800048828125</ele>
        <time>2020-08-22T16:13:00.000Z</time>
      </trkpt>
      <trkpt lat="39.92658128030598163604736328125" lon="-0.99648700095713138580322265625">
        <ele>1027.5999755859375</ele>
        <time>2020-08-22T16:13:06.000Z</time>
      </trkpt>
      <trkpt lat="39.92639176547527313232421875" lon="-0.99582466296851634979248046875">
        <ele>1027</ele>
        <time>2020-08-22T16:13:13.000Z</time>
      </trkpt>
      <trkpt lat="39.92622370831668376922607421875" lon="-0.9952582977712154388427734375">
        <ele>1026.5999755859375</ele>
        <time>2020-08-22T16:13:19.000Z</time>
      </trkpt>
      <trkpt lat="39.92603511549532413482666015625" lon="-0.99458799697458744049072265625">
        <ele>1027.199951171875</ele>
        <time>2020-08-22T16:13:26.000Z</time>
      </trkpt>
      <trkpt lat="39.92588759399950504302978515625" lon="-0.9940637089312076568603515625">
        <ele>1027.5999755859375</ele>
        <time>2020-08-22T16:13:32.000Z</time>
      </trkpt>
      <trkpt lat="39.92569439113140106201171875" lon="-0.99352047778666019439697265625">
        <ele>1027.800048828125</ele>
        <time>2020-08-22T16:13:39.000Z</time>
      </trkpt>
      <trkpt lat="39.92556472308933734893798828125" lon="-0.99332937039434909820556640625">
        <ele>1027.5999755859375</ele>
        <time>2020-08-22T16:13:42.000Z</time>
      </trkpt>
      <trkpt lat="39.92550437338650226593017578125" lon="-0.99318050779402256011962890625">
        <ele>1027.5999755859375</ele>
        <time>2020-08-22T16:13:44.000Z</time>
      </trkpt>
      <trkpt lat="39.92545223794877529144287109375" lon="-0.993027202785015106201171875">
        <ele>1027.5999755859375</ele>
        <time>2020-08-22T16:13:46.000Z</time>
      </trkpt>
      <trkpt lat="39.9250468052923679351806640625" lon="-0.992544405162334442138671875">
        <ele>1027.5999755859375</ele>
        <time>2020-08-22T16:13:55.000Z</time>
      </trkpt>
      <trkpt lat="39.9246490001678466796875" lon="-0.9923196025192737579345703125">
        <ele>1028.5999755859375</ele>
        <time>2020-08-22T16:14:03.000Z</time>
      </trkpt>
      <trkpt lat="39.9245573021471500396728515625" lon="-0.9922512061893939971923828125">
        <ele>1029</ele>
        <time>2020-08-22T16:14:05.000Z</time>
      </trkpt>
      <trkpt lat="39.924458898603916168212890625" lon="-0.99217736162245273590087890625">
        <ele>1029.5999755859375</ele>
        <time>2020-08-22T16:14:07.000Z</time>
      </trkpt>
      <trkpt lat="39.92440290749073028564453125" lon="-0.992150120437145233154296875">
        <ele>1029.800048828125</ele>
        <time>2020-08-22T16:14:08.000Z</time>
      </trkpt>
      <trkpt lat="39.92415119893848896026611328125" lon="-0.9920094721019268035888671875">
        <ele>1030.800048828125</ele>
        <time>2020-08-22T16:14:13.000Z</time>
      </trkpt>
      <trkpt lat="39.92368407547473907470703125" lon="-0.99157311022281646728515625">
        <ele>1031.5999755859375</ele>
        <time>2020-08-22T16:14:24.000Z</time>
      </trkpt>
      <trkpt lat="39.92349422536790370941162109375" lon="-0.991379320621490478515625">
        <ele>1031.800048828125</ele>
        <time>2020-08-22T16:14:29.000Z</time>
      </trkpt>
      <trkpt lat="39.92303900420665740966796875" lon="-0.99090968258678913116455078125">
        <ele>1031.5999755859375</ele>
        <time>2020-08-22T16:14:40.000Z</time>
      </trkpt>
      <trkpt lat="39.9225912429392337799072265625" lon="-0.9904470853507518768310546875">
        <ele>1031</ele>
        <time>2020-08-22T16:14:49.000Z</time>
      </trkpt>
      <trkpt lat="39.92247708141803741455078125" lon="-0.9903257153928279876708984375">
        <ele>1030.4000244140625</ele>
        <time>2020-08-22T16:14:51.000Z</time>
      </trkpt>
      <trkpt lat="39.9221848882734775543212890625" lon="-0.9900085441768169403076171875">
        <ele>1029.199951171875</ele>
        <time>2020-08-22T16:14:56.000Z</time>
      </trkpt>
      <trkpt lat="39.92201507091522216796875" lon="-0.98980830051004886627197265625">
        <ele>1028.199951171875</ele>
        <time>2020-08-22T16:14:59.000Z</time>
      </trkpt>
      <trkpt lat="39.92173469625413417816162109375" lon="-0.98945458419620990753173828125">
        <ele>1027</ele>
        <time>2020-08-22T16:15:04.000Z</time>
      </trkpt>
      <trkpt lat="39.9213232286274433135986328125" lon="-0.9889209084212779998779296875">
        <ele>1026.199951171875</ele>
        <time>2020-08-22T16:15:11.000Z</time>
      </trkpt>
      <trkpt lat="39.9211535789072513580322265625" lon="-0.98870440386235713958740234375">
        <ele>1026</ele>
        <time>2020-08-22T16:15:14.000Z</time>
      </trkpt>
      <trkpt lat="39.9207616411149501800537109375" lon="-0.9881673753261566162109375">
        <ele>1025.5999755859375</ele>
        <time>2020-08-22T16:15:22.000Z</time>
      </trkpt>
      <trkpt lat="39.92052854038774967193603515625" lon="-0.98752389661967754364013671875">
        <ele>1025.800048828125</ele>
        <time>2020-08-22T16:15:31.000Z</time>
      </trkpt>
      <trkpt lat="39.92033005692064762115478515625" lon="-0.9868596307933330535888671875">
        <ele>1026.4000244140625</ele>
        <time>2020-08-22T16:15:41.000Z</time>
      </trkpt>
      <trkpt lat="39.92014624178409576416015625" lon="-0.98622553981840610504150390625">
        <ele>1027</ele>
        <time>2020-08-22T16:15:51.000Z</time>
      </trkpt>
      <trkpt lat="39.91994616575539112091064453125" lon="-0.9855493716895580291748046875">
        <ele>1027.800048828125</ele>
        <time>2020-08-22T16:16:02.000Z</time>
      </trkpt>
      <trkpt lat="39.91991079412400722503662109375" lon="-0.98544417880475521087646484375">
        <ele>1028</ele>
        <time>2020-08-22T16:16:04.000Z</time>
      </trkpt>
      <trkpt lat="39.91976696066558361053466796875" lon="-0.98501452244818210601806640625">
        <ele>1029.199951171875</ele>
        <time>2020-08-22T16:16:12.000Z</time>
      </trkpt>
      <trkpt lat="39.9196626059710979461669921875" lon="-0.98462752997875213623046875">
        <ele>1030.199951171875</ele>
        <time>2020-08-22T16:16:19.000Z</time>
      </trkpt>
      <trkpt lat="39.9195514619350433349609375" lon="-0.98389788530766963958740234375">
        <ele>1031</ele>
        <time>2020-08-22T16:16:31.000Z</time>
      </trkpt>
      <trkpt lat="39.9194584228098392486572265625" lon="-0.98317000083625316619873046875">
        <ele>1031.199951171875</ele>
        <time>2020-08-22T16:16:42.000Z</time>
      </trkpt>
      <trkpt lat="39.91940218023955821990966796875" lon="-0.98265266977250576019287109375">
        <ele>1032.4000244140625</ele>
        <time>2020-08-22T16:16:51.000Z</time>
      </trkpt>
      <trkpt lat="39.91935758851468563079833984375" lon="-0.9824333153665065765380859375">
        <ele>1033.4000244140625</ele>
        <time>2020-08-22T16:16:55.000Z</time>
      </trkpt>
      <trkpt lat="39.919233284890651702880859375" lon="-0.982097201049327850341796875">
        <ele>1034.5999755859375</ele>
        <time>2020-08-22T16:17:01.000Z</time>
      </trkpt>
      <trkpt lat="39.9188492260873317718505859375" lon="-0.98153720609843730926513671875">
        <ele>1035.199951171875</ele>
        <time>2020-08-22T16:17:12.000Z</time>
      </trkpt>
      <trkpt lat="39.9184479005634784698486328125" lon="-0.98118483088910579681396484375">
        <ele>1035.5999755859375</ele>
        <time>2020-08-22T16:17:22.000Z</time>
      </trkpt>
      <trkpt lat="39.91822251118719577789306640625" lon="-0.9811227209866046905517578125">
        <ele>1036.800048828125</ele>
        <time>2020-08-22T16:17:27.000Z</time>
      </trkpt>
      <trkpt lat="39.91800743155181407928466796875" lon="-0.9810824878513813018798828125">
        <ele>1037.800048828125</ele>
        <time>2020-08-22T16:17:32.000Z</time>
      </trkpt>
      <trkpt lat="39.917610548436641693115234375" lon="-0.981004200875759124755859375">
        <ele>1039</ele>
        <time>2020-08-22T16:17:41.000Z</time>
      </trkpt>
      <trkpt lat="39.91739219985902309417724609375" lon="-0.98095969296991825103759765625">
        <ele>1040</ele>
        <time>2020-08-22T16:17:46.000Z</time>
      </trkpt>
      <trkpt lat="39.91713454015552997589111328125" lon="-0.98087788559496402740478515625">
        <ele>1041</ele>
        <time>2020-08-22T16:17:52.000Z</time>
      </trkpt>
      <trkpt lat="39.91698525846004486083984375" lon="-0.9807817451655864715576171875">
        <ele>1042.199951171875</ele>
        <time>2020-08-22T16:17:56.000Z</time>
      </trkpt>
      <trkpt lat="39.9169522337615489959716796875" lon="-0.9807498939335346221923828125">
        <ele>1042.199951171875</ele>
        <time>2020-08-22T16:17:57.000Z</time>
      </trkpt>
      <trkpt lat="39.91670337505638599395751953125" lon="-0.9804240055382251739501953125">
        <ele>1043.199951171875</ele>
        <time>2020-08-22T16:18:06.000Z</time>
      </trkpt>
      <trkpt lat="39.91653288714587688446044921875" lon="-0.98018352873623371124267578125">
        <ele>1044.199951171875</ele>
        <time>2020-08-22T16:18:13.000Z</time>
      </trkpt>
      <trkpt lat="39.91634295322000980377197265625" lon="-0.979920923709869384765625">
        <ele>1045.5999755859375</ele>
        <time>2020-08-22T16:18:21.000Z</time>
      </trkpt>
      <trkpt lat="39.9162375926971435546875" lon="-0.97975261509418487548828125">
        <ele>1046.800048828125</ele>
        <time>2020-08-22T16:18:26.000Z</time>
      </trkpt>
      <trkpt lat="39.916146732866764068603515625" lon="-0.97959327511489391326904296875">
        <ele>1047.800048828125</ele>
        <time>2020-08-22T16:18:31.000Z</time>
      </trkpt>
      <trkpt lat="39.916060231626033782958984375" lon="-0.97934617660939693450927734375">
        <ele>1048.800048828125</ele>
        <time>2020-08-22T16:18:37.000Z</time>
      </trkpt>
      <trkpt lat="39.91601203568279743194580078125" lon="-0.97912363708019256591796875">
        <ele>1049.800048828125</ele>
        <time>2020-08-22T16:18:42.000Z</time>
      </trkpt>
      <trkpt lat="39.9159886501729488372802734375" lon="-0.9789119102060794830322265625">
        <ele>1051</ele>
        <time>2020-08-22T16:18:47.000Z</time>
      </trkpt>
      <trkpt lat="39.91598345339298248291015625" lon="-0.97878676839172840118408203125">
        <ele>1052.199951171875</ele>
        <time>2020-08-22T16:18:50.000Z</time>
      </trkpt>
      <trkpt lat="39.9159876443445682525634765625" lon="-0.9784633107483386993408203125">
        <ele>1053.4000244140625</ele>
        <time>2020-08-22T16:18:58.000Z</time>
      </trkpt>
      <trkpt lat="39.91598638705909252166748046875" lon="-0.97825996577739715576171875">
        <ele>1054.4000244140625</ele>
        <time>2020-08-22T16:19:03.000Z</time>
      </trkpt>
      <trkpt lat="39.915882535278797149658203125" lon="-0.97804882563650608062744140625">
        <ele>1055.5999755859375</ele>
        <time>2020-08-22T16:19:09.000Z</time>
      </trkpt>
      <trkpt lat="39.91567508317530155181884765625" lon="-0.9779489971697330474853515625">
        <ele>1056.5999755859375</ele>
        <time>2020-08-22T16:19:16.000Z</time>
      </trkpt>
      <trkpt lat="39.915415830910205841064453125" lon="-0.97778362222015857696533203125">
        <ele>1057.800048828125</ele>
        <time>2020-08-22T16:19:25.000Z</time>
      </trkpt>
      <trkpt lat="39.915339052677154541015625" lon="-0.9775429777801036834716796875">
        <ele>1059</ele>
        <time>2020-08-22T16:19:31.000Z</time>
      </trkpt>
      <trkpt lat="39.91536545567214488983154296875" lon="-0.97730183042585849761962890625">
        <ele>1059.800048828125</ele>
        <time>2020-08-22T16:19:36.000Z</time>
      </trkpt>
      <trkpt lat="39.91537735797464847564697265625" lon="-0.97724919207394123077392578125">
        <ele>1060</ele>
        <time>2020-08-22T16:19:37.000Z</time>
      </trkpt>
      <trkpt lat="39.91540585644543170928955078125" lon="-0.97714274190366268157958984375">
        <ele>1060.199951171875</ele>
        <time>2020-08-22T16:19:39.000Z</time>
      </trkpt>
      <trkpt lat="39.9154190160334110260009765625" lon="-0.9770890139043331146240234375">
        <ele>1060.199951171875</ele>
        <time>2020-08-22T16:19:40.000Z</time>
      </trkpt>
      <trkpt lat="39.9155859835445880889892578125" lon="-0.97643346525728702545166015625">
        <ele>1061.199951171875</ele>
        <time>2020-08-22T16:19:53.000Z</time>
      </trkpt>
      <trkpt lat="39.91553728468716144561767578125" lon="-0.97618821077048778533935546875">
        <ele>1062.199951171875</ele>
        <time>2020-08-22T16:19:58.000Z</time>
      </trkpt>
      <trkpt lat="39.9154143221676349639892578125" lon="-0.97592887468636035919189453125">
        <ele>1063.199951171875</ele>
        <time>2020-08-22T16:20:04.000Z</time>
      </trkpt>
      <trkpt lat="39.915274679660797119140625" lon="-0.9756744839251041412353515625">
        <ele>1064.4000244140625</ele>
        <time>2020-08-22T16:20:10.000Z</time>
      </trkpt>
      <trkpt lat="39.9151102267205715179443359375" lon="-0.9753485955297946929931640625">
        <ele>1065.4000244140625</ele>
        <time>2020-08-22T16:20:18.000Z</time>
      </trkpt>
      <trkpt lat="39.91499246098101139068603515625" lon="-0.975093953311443328857421875">
        <ele>1066.5999755859375</ele>
        <time>2020-08-22T16:20:24.000Z</time>
      </trkpt>
      <trkpt lat="39.91492238827049732208251953125" lon="-0.9748584218323230743408203125">
        <ele>1068</ele>
        <time>2020-08-22T16:20:29.000Z</time>
      </trkpt>
      <trkpt lat="39.9149006791412830352783203125" lon="-0.97471886314451694488525390625">
        <ele>1069</ele>
        <time>2020-08-22T16:20:32.000Z</time>
      </trkpt>
      <trkpt lat="39.91490495391190052032470703125" lon="-0.97448282875120639801025390625">
        <ele>1070.199951171875</ele>
        <time>2020-08-22T16:20:37.000Z</time>
      </trkpt>
      <trkpt lat="39.91495482623577117919921875" lon="-0.9741201438009738922119140625">
        <ele>1071.199951171875</ele>
        <time>2020-08-22T16:20:45.000Z</time>
      </trkpt>
      <trkpt lat="39.91494275629520416259765625" lon="-0.97372510470449924468994140625">
        <ele>1072.4000244140625</ele>
        <time>2020-08-22T16:20:54.000Z</time>
      </trkpt>
      <trkpt lat="39.91489187814295291900634765625" lon="-0.9734636731445789337158203125">
        <ele>1073.4000244140625</ele>
        <time>2020-08-22T16:21:00.000Z</time>
      </trkpt>
      <trkpt lat="39.9148473702371120452880859375" lon="-0.973247922956943511962890625">
        <ele>1074.4000244140625</ele>
        <time>2020-08-22T16:21:05.000Z</time>
      </trkpt>
      <trkpt lat="39.9148292653262615203857421875" lon="-0.97296000458300113677978515625">
        <ele>1075.5999755859375</ele>
        <time>2020-08-22T16:21:12.000Z</time>
      </trkpt>
      <trkpt lat="39.91489774547517299652099609375" lon="-0.9726918675005435943603515625">
        <ele>1076.5999755859375</ele>
        <time>2020-08-22T16:21:19.000Z</time>
      </trkpt>
      <trkpt lat="39.91496077738702297210693359375" lon="-0.9724615328013896942138671875">
        <ele>1077.800048828125</ele>
        <time>2020-08-22T16:21:25.000Z</time>
      </trkpt>
      <trkpt lat="39.91494736634194850921630859375" lon="-0.97216690890491008758544921875">
        <ele>1078.800048828125</ele>
        <time>2020-08-22T16:21:32.000Z</time>
      </trkpt>
      <trkpt lat="39.91490310989320278167724609375" lon="-0.9718999452888965606689453125">
        <ele>1079.800048828125</ele>
        <time>2020-08-22T16:21:38.000Z</time>
      </trkpt>
      <trkpt lat="39.91484426893293857574462890625" lon="-0.9715737216174602508544921875">
        <ele>1080.800048828125</ele>
        <time>2020-08-22T16:21:45.000Z</time>
      </trkpt>
      <trkpt lat="39.914754331111907958984375" lon="-0.97103753127157688140869140625">
        <ele>1082</ele>
        <time>2020-08-22T16:21:56.000Z</time>
      </trkpt>
      <trkpt lat="39.91468383930623531341552734375" lon="-0.9707113914191722869873046875">
        <ele>1083</ele>
        <time>2020-08-22T16:22:03.000Z</time>
      </trkpt>
      <trkpt lat="39.914454929530620574951171875" lon="-0.97028575837612152099609375">
        <ele>1084</ele>
        <time>2020-08-22T16:22:14.000Z</time>
      </trkpt>
      <trkpt lat="39.914356358349323272705078125" lon="-0.97016346640884876251220703125">
        <ele>1085.199951171875</ele>
        <time>2020-08-22T16:22:18.000Z</time>
      </trkpt>
      <trkpt lat="39.914278574287891387939453125" lon="-0.9700690023601055145263671875">
        <ele>1086.199951171875</ele>
        <time>2020-08-22T16:22:21.000Z</time>
      </trkpt>
      <trkpt lat="39.9141567014157772064208984375" lon="-0.9699013642966747283935546875">
        <ele>1087.199951171875</ele>
        <time>2020-08-22T16:22:26.000Z</time>
      </trkpt>
      <trkpt lat="39.91385637782514095306396484375" lon="-0.9695144556462764739990234375">
        <ele>1088.199951171875</ele>
        <time>2020-08-22T16:22:38.000Z</time>
      </trkpt>
      <trkpt lat="39.913651607930660247802734375" lon="-0.9690688736736774444580078125">
        <ele>1089.4000244140625</ele>
        <time>2020-08-22T16:22:49.000Z</time>
      </trkpt>
      <trkpt lat="39.9135126359760761260986328125" lon="-0.96845003776252269744873046875">
        <ele>1090.199951171875</ele>
        <time>2020-08-22T16:23:00.000Z</time>
      </trkpt>
      <trkpt lat="39.9134046770632266998291015625" lon="-0.968206040561199188232421875">
        <ele>1090.4000244140625</ele>
        <time>2020-08-22T16:23:05.000Z</time>
      </trkpt>
      <trkpt lat="39.9131609313189983367919921875" lon="-0.96779524348676204681396484375">
        <ele>1091.4000244140625</ele>
        <time>2020-08-22T16:23:16.000Z</time>
      </trkpt>
      <trkpt lat="39.91302522830665111541748046875" lon="-0.9675711952149868011474609375">
        <ele>1092.5999755859375</ele>
        <time>2020-08-22T16:23:23.000Z</time>
      </trkpt>
      <trkpt lat="39.91288625635206699371337890625" lon="-0.96734480001032352447509765625">
        <ele>1093.5999755859375</ele>
        <time>2020-08-22T16:23:30.000Z</time>
      </trkpt>
      <trkpt lat="39.91275633685290813446044921875" lon="-0.96716006286442279815673828125">
        <ele>1094.5999755859375</ele>
        <time>2020-08-22T16:23:36.000Z</time>
      </trkpt>
      <trkpt lat="39.91258685477077960968017578125" lon="-0.96695713698863983154296875">
        <ele>1096</ele>
        <time>2020-08-22T16:23:43.000Z</time>
      </trkpt>
      <trkpt lat="39.912437908351421356201171875" lon="-0.96679276786744594573974609375">
        <ele>1097</ele>
        <time>2020-08-22T16:23:49.000Z</time>
      </trkpt>
      <trkpt lat="39.91231595166027545928955078125" lon="-0.9666501916944980621337890625">
        <ele>1098.199951171875</ele>
        <time>2020-08-22T16:23:54.000Z</time>
      </trkpt>
      <trkpt lat="39.91212300024926662445068359375" lon="-0.96641935408115386962890625">
        <ele>1099.4000244140625</ele>
        <time>2020-08-22T16:24:02.000Z</time>
      </trkpt>
      <trkpt lat="39.9116267077624797821044921875" lon="-0.96600470133125782012939453125">
        <ele>1100</ele>
        <time>2020-08-22T16:24:15.000Z</time>
      </trkpt>
      <trkpt lat="39.91107911802828311920166015625" lon="-0.9657392464578151702880859375">
        <ele>1098.800048828125</ele>
        <time>2020-08-22T16:24:24.000Z</time>
      </trkpt>
      <trkpt lat="39.91100636310875415802001953125" lon="-0.965704880654811859130859375">
        <ele>1098.199951171875</ele>
        <time>2020-08-22T16:24:25.000Z</time>
      </trkpt>
      <trkpt lat="39.91068919189274311065673828125" lon="-0.96556280739605426788330078125">
        <ele>1096.5999755859375</ele>
        <time>2020-08-22T16:24:29.000Z</time>
      </trkpt>
      <trkpt lat="39.9102453701198101043701171875" lon="-0.96536457538604736328125">
        <ele>1095.5999755859375</ele>
        <time>2020-08-22T16:24:34.000Z</time>
      </trkpt>
      <trkpt lat="39.9100592918694019317626953125" lon="-0.96527698449790477752685546875">
        <ele>1093.800048828125</ele>
        <time>2020-08-22T16:24:36.000Z</time>
      </trkpt>
      <trkpt lat="39.90987413562834262847900390625" lon="-0.96519048325717449188232421875">
        <ele>1092</ele>
        <time>2020-08-22T16:24:38.000Z</time>
      </trkpt>
      <trkpt lat="39.90969342179596424102783203125" lon="-0.965109430253505706787109375">
        <ele>1089.800048828125</ele>
        <time>2020-08-22T16:24:40.000Z</time>
      </trkpt>
      <trkpt lat="39.9095158092677593231201171875" lon="-0.96503273583948612213134765625">
        <ele>1088.4000244140625</ele>
        <time>2020-08-22T16:24:42.000Z</time>
      </trkpt>
      <trkpt lat="39.90902245044708251953125" lon="-0.96481363289058208465576171875">
        <ele>1087.4000244140625</ele>
        <time>2020-08-22T16:24:48.000Z</time>
      </trkpt>
      <trkpt lat="39.9084767885506153106689453125" lon="-0.9645630978047847747802734375">
        <ele>1086.5999755859375</ele>
        <time>2020-08-22T16:24:55.000Z</time>
      </trkpt>
      <trkpt lat="39.908248297870159149169921875" lon="-0.96445740200579166412353515625">
        <ele>1086.4000244140625</ele>
        <time>2020-08-22T16:24:58.000Z</time>
      </trkpt>
      <trkpt lat="39.90771780721843242645263671875" lon="-0.964221619069576263427734375">
        <ele>1085.4000244140625</ele>
        <time>2020-08-22T16:25:05.000Z</time>
      </trkpt>
      <trkpt lat="39.90764203481376171112060546875" lon="-0.96418666653335094451904296875">
        <ele>1085.199951171875</ele>
        <time>2020-08-22T16:25:06.000Z</time>
      </trkpt>
      <trkpt lat="39.90726116113364696502685546875" lon="-0.9640135802328586578369140625">
        <ele>1084</ele>
        <time>2020-08-22T16:25:11.000Z</time>
      </trkpt>
      <trkpt lat="39.906950108706951141357421875" lon="-0.96387318335473537445068359375">
        <ele>1082.5999755859375</ele>
        <time>2020-08-22T16:25:15.000Z</time>
      </trkpt>
      <trkpt lat="39.90655506961047649383544921875" lon="-0.96369163133203983306884765625">
        <ele>1081</ele>
        <time>2020-08-22T16:25:20.000Z</time>
      </trkpt>
      <trkpt lat="39.9063953943550586700439453125" lon="-0.96361569128930568695068359375">
        <ele>1079.4000244140625</ele>
        <time>2020-08-22T16:25:22.000Z</time>
      </trkpt>
      <trkpt lat="39.90623622201383113861083984375" lon="-0.96353673376142978668212890625">
        <ele>1078.199951171875</ele>
        <time>2020-08-22T16:25:24.000Z</time>
      </trkpt>
      <trkpt lat="39.90599432028830051422119140625" lon="-0.9634224884212017059326171875">
        <ele>1076.800048828125</ele>
        <time>2020-08-22T16:25:27.000Z</time>
      </trkpt>
      <trkpt lat="39.90543239749968051910400390625" lon="-0.96316273324191570281982421875">
        <ele>1076</ele>
        <time>2020-08-22T16:25:34.000Z</time>
      </trkpt>
      <trkpt lat="39.90527045913040637969970703125" lon="-0.96308964304625988006591796875">
        <ele>1075.800048828125</ele>
        <time>2020-08-22T16:25:36.000Z</time>
      </trkpt>
      <trkpt lat="39.9049419723451137542724609375" lon="-0.962951593101024627685546875">
        <ele>1074.5999755859375</ele>
        <time>2020-08-22T16:25:40.000Z</time>
      </trkpt>
      <trkpt lat="39.90468439646065235137939453125" lon="-0.9628365933895111083984375">
        <ele>1073.4000244140625</ele>
        <time>2020-08-22T16:25:43.000Z</time>
      </trkpt>
      <trkpt lat="39.90432481281459331512451171875" lon="-0.96266585402190685272216796875">
        <ele>1072.4000244140625</ele>
        <time>2020-08-22T16:25:47.000Z</time>
      </trkpt>
      <trkpt lat="39.9040482938289642333984375" lon="-0.96253375522792339324951171875">
        <ele>1071.199951171875</ele>
        <time>2020-08-22T16:25:50.000Z</time>
      </trkpt>
      <trkpt lat="39.90367102436721324920654296875" lon="-0.96235538832843303680419921875">
        <ele>1069.5999755859375</ele>
        <time>2020-08-22T16:25:54.000Z</time>
      </trkpt>
      <trkpt lat="39.903390817344188690185546875" lon="-0.96223619766533374786376953125">
        <ele>1068.4000244140625</ele>
        <time>2020-08-22T16:25:57.000Z</time>
      </trkpt>
      <trkpt lat="39.90285764448344707489013671875" lon="-0.96199798397719860076904296875">
        <ele>1067.4000244140625</ele>
        <time>2020-08-22T16:26:03.000Z</time>
      </trkpt>
      <trkpt lat="39.9027724005281925201416015625" lon="-0.96195976249873638153076171875">
        <ele>1067.199951171875</ele>
        <time>2020-08-22T16:26:04.000Z</time>
      </trkpt>
      <trkpt lat="39.90244542248547077178955078125" lon="-0.9617985785007476806640625">
        <ele>1065.5999755859375</ele>
        <time>2020-08-22T16:26:08.000Z</time>
      </trkpt>
      <trkpt lat="39.90221290849149227142333984375" lon="-0.961690954864025115966796875">
        <ele>1063.800048828125</ele>
        <time>2020-08-22T16:26:11.000Z</time>
      </trkpt>
      <trkpt lat="39.90190814249217510223388671875" lon="-0.961560197174549102783203125">
        <ele>1062.800048828125</ele>
        <time>2020-08-22T16:26:15.000Z</time>
      </trkpt>
      <trkpt lat="39.90175358019769191741943359375" lon="-0.961486436426639556884765625">
        <ele>1061.4000244140625</ele>
        <time>2020-08-22T16:26:17.000Z</time>
      </trkpt>
      <trkpt lat="39.90159767679870128631591796875" lon="-0.9614094905555248260498046875">
        <ele>1060.199951171875</ele>
        <time>2020-08-22T16:26:19.000Z</time>
      </trkpt>
      <trkpt lat="39.90135669708251953125" lon="-0.9612954966723918914794921875">
        <ele>1059</ele>
        <time>2020-08-22T16:26:22.000Z</time>
      </trkpt>
      <trkpt lat="39.901026450097560882568359375" lon="-0.96115509979426860809326171875">
        <ele>1057.800048828125</ele>
        <time>2020-08-22T16:26:26.000Z</time>
      </trkpt>
      <trkpt lat="39.90055312402546405792236328125" lon="-0.9609454683959484100341796875">
        <ele>1056.5999755859375</ele>
        <time>2020-08-22T16:26:32.000Z</time>
      </trkpt>
      <trkpt lat="39.90008038468658924102783203125" lon="-0.96072494052350521087646484375">
        <ele>1055.5999755859375</ele>
        <time>2020-08-22T16:26:38.000Z</time>
      </trkpt>
      <trkpt lat="39.89983798004686832427978515625" lon="-0.96061111427843570709228515625">
        <ele>1054</ele>
        <time>2020-08-22T16:26:41.000Z</time>
      </trkpt>
      <trkpt lat="39.8995986767113208770751953125" lon="-0.96049326471984386444091796875">
        <ele>1053</ele>
        <time>2020-08-22T16:26:44.000Z</time>
      </trkpt>
      <trkpt lat="39.899067096412181854248046875" lon="-0.96025320701301097869873046875">
        <ele>1052</ele>
        <time>2020-08-22T16:26:51.000Z</time>
      </trkpt>
      <trkpt lat="39.89893625490367412567138671875" lon="-0.96019688062369823455810546875">
        <ele>1051.800048828125</ele>
        <time>2020-08-22T16:26:53.000Z</time>
      </trkpt>
      <trkpt lat="39.898747913539409637451171875" lon="-0.96015580929815769195556640625">
        <ele>1051.5999755859375</ele>
        <time>2020-08-22T16:26:56.000Z</time>
      </trkpt>
      <trkpt lat="39.89862553775310516357421875" lon="-0.9601669572293758392333984375">
        <ele>1051.5999755859375</ele>
        <time>2020-08-22T16:26:58.000Z</time>
      </trkpt>
      <trkpt lat="39.89851146005094051361083984375" lon="-0.9602132253348827362060546875">
        <ele>1051.5999755859375</ele>
        <time>2020-08-22T16:27:00.000Z</time>
      </trkpt>
      <trkpt lat="39.89798893220722675323486328125" lon="-0.96057188697159290313720703125">
        <ele>1051.800048828125</ele>
        <time>2020-08-22T16:27:09.000Z</time>
      </trkpt>
      <trkpt lat="39.89745869301259517669677734375" lon="-0.960861481726169586181640625">
        <ele>1052.5999755859375</ele>
        <time>2020-08-22T16:27:18.000Z</time>
      </trkpt>
      <trkpt lat="39.89685368724167346954345703125" lon="-0.960952006280422210693359375">
        <ele>1052.4000244140625</ele>
        <time>2020-08-22T16:27:27.000Z</time>
      </trkpt>
      <trkpt lat="39.8964987136423587799072265625" lon="-0.96097824163734912872314453125">
        <ele>1050.4000244140625</ele>
        <time>2020-08-22T16:27:32.000Z</time>
      </trkpt>
      <trkpt lat="39.8959988169372081756591796875" lon="-0.961007662117481231689453125">
        <ele>1049.4000244140625</ele>
        <time>2020-08-22T16:27:39.000Z</time>
      </trkpt>
      <trkpt lat="39.89543446339666843414306640625" lon="-0.9610421955585479736328125">
        <ele>1049</ele>
        <time>2020-08-22T16:27:47.000Z</time>
      </trkpt>
      <trkpt lat="39.8948917351663112640380859375" lon="-0.961075387895107269287109375">
        <ele>1048.5999755859375</ele>
        <time>2020-08-22T16:27:55.000Z</time>
      </trkpt>
      <trkpt lat="39.89475519396364688873291015625" lon="-0.96108444035053253173828125">
        <ele>1048.4000244140625</ele>
        <time>2020-08-22T16:27:57.000Z</time>
      </trkpt>
      <trkpt lat="39.89454363472759723663330078125" lon="-0.96110296435654163360595703125">
        <ele>1047.4000244140625</ele>
        <time>2020-08-22T16:28:00.000Z</time>
      </trkpt>
      <trkpt lat="39.89410693757236003875732421875" lon="-0.96117504872381687164306640625">
        <ele>1046.199951171875</ele>
        <time>2020-08-22T16:28:06.000Z</time>
      </trkpt>
      <trkpt lat="39.89371801726520061492919921875" lon="-0.961226932704448699951171875">
        <ele>1045.199951171875</ele>
        <time>2020-08-22T16:28:11.000Z</time>
      </trkpt>
      <trkpt lat="39.89364392124116420745849609375" lon="-0.96124939620494842529296875">
        <ele>1044.800048828125</ele>
        <time>2020-08-22T16:28:12.000Z</time>
      </trkpt>
      <trkpt lat="39.8930926434695720672607421875" lon="-0.96139021217823028564453125">
        <ele>1044.199951171875</ele>
        <time>2020-08-22T16:28:19.000Z</time>
      </trkpt>
      <trkpt lat="39.89263155497610569000244140625" lon="-0.9614467062056064605712890625">
        <ele>1044</ele>
        <time>2020-08-22T16:28:25.000Z</time>
      </trkpt>
      <trkpt lat="39.8924854584038257598876953125" lon="-0.96142105758190155029296875">
        <ele>1043.5999755859375</ele>
        <time>2020-08-22T16:28:27.000Z</time>
      </trkpt>
      <trkpt lat="39.89235226996243000030517578125" lon="-0.96132927574217319488525390625">
        <ele>1043</ele>
        <time>2020-08-22T16:28:29.000Z</time>
      </trkpt>
      <trkpt lat="39.8920874856412410736083984375" lon="-0.9611154533922672271728515625">
        <ele>1042.5999755859375</ele>
        <time>2020-08-22T16:28:33.000Z</time>
      </trkpt>
      <trkpt lat="39.8918631859123706817626953125" lon="-0.96111126244068145751953125">
        <ele>1041.4000244140625</ele>
        <time>2020-08-22T16:28:36.000Z</time>
      </trkpt>
      <trkpt lat="39.89172228612005710601806640625" lon="-0.9611486457288265228271484375">
        <ele>1039.800048828125</ele>
        <time>2020-08-22T16:28:38.000Z</time>
      </trkpt>
      <trkpt lat="39.89144719205796718597412109375" lon="-0.9612532518804073333740234375">
        <ele>1038.5999755859375</ele>
        <time>2020-08-22T16:28:42.000Z</time>
      </trkpt>
      <trkpt lat="39.89120788872241973876953125" lon="-0.9613531641662120819091796875">
        <ele>1037.5999755859375</ele>
        <time>2020-08-22T16:28:46.000Z</time>
      </trkpt>
      <trkpt lat="39.89106304943561553955078125" lon="-0.96152172423899173736572265625">
        <ele>1036.800048828125</ele>
        <time>2020-08-22T16:28:52.000Z</time>
      </trkpt>
      <trkpt lat="39.891149885952472686767578125" lon="-0.96163840033113956451416015625">
        <ele>1036.800048828125</ele>
        <time>2020-08-22T16:29:04.000Z</time>
      </trkpt>
      <trkpt lat="39.89112935028970241546630859375" lon="-0.9617303498089313507080078125">
        <ele>1036.4000244140625</ele>
        <time>2020-08-22T16:45:13.000Z</time>
      </trkpt>
      <trkpt lat="39.89113203249871730804443359375" lon="-0.96173915080726146697998046875">
        <ele>1037.199951171875</ele>
        <time>2020-08-22T16:45:52.000Z</time>
      </trkpt>
      <trkpt lat="39.89111929200589656829833984375" lon="-0.96171299926936626434326171875">
        <ele>1037</ele>
        <time>2020-08-22T16:49:18.000Z</time>
      </trkpt>
      <trkpt lat="39.8910729400813579559326171875" lon="-0.961678214371204376220703125">
        <ele>1037.4000244140625</ele>
        <time>2020-08-22T16:49:32.000Z</time>
      </trkpt>
      <trkpt lat="39.89089398644864559173583984375" lon="-0.9610222466289997100830078125">
        <ele>1036.4000244140625</ele>
        <time>2020-08-22T16:49:48.000Z</time>
      </trkpt>
      <trkpt lat="39.8907846026122570037841796875" lon="-0.96061505377292633056640625">
        <ele>1035.5999755859375</ele>
        <time>2020-08-22T16:49:56.000Z</time>
      </trkpt>
      <trkpt lat="39.89073959179222583770751953125" lon="-0.96048471517860889434814453125">
        <ele>1035.4000244140625</ele>
        <time>2020-08-22T16:49:58.000Z</time>
      </trkpt>
      <trkpt lat="39.890622831881046295166015625" lon="-0.9601454995572566986083984375">
        <ele>1034</ele>
        <time>2020-08-22T16:50:03.000Z</time>
      </trkpt>
      <trkpt lat="39.89054563455283641815185546875" lon="-0.9598968923091888427734375">
        <ele>1032.800048828125</ele>
        <time>2020-08-22T16:50:06.000Z</time>
      </trkpt>
      <trkpt lat="39.8905167169868946075439453125" lon="-0.95970042049884796142578125">
        <ele>1031.800048828125</ele>
        <time>2020-08-22T16:50:08.000Z</time>
      </trkpt>
      <trkpt lat="39.89045879803597927093505859375" lon="-0.95950906164944171905517578125">
        <ele>1031.199951171875</ele>
        <time>2020-08-22T16:50:10.000Z</time>
      </trkpt>
      <trkpt lat="39.8903467319905757904052734375" lon="-0.95935449935495853424072265625">
        <ele>1031</ele>
        <time>2020-08-22T16:50:12.000Z</time>
      </trkpt>
      <trkpt lat="39.890267439186573028564453125" lon="-0.95930345356464385986328125">
        <ele>1030.199951171875</ele>
        <time>2020-08-22T16:50:13.000Z</time>
      </trkpt>
      <trkpt lat="39.8901864700019359588623046875" lon="-0.9592462889850139617919921875">
        <ele>1029.5999755859375</ele>
        <time>2020-08-22T16:50:14.000Z</time>
      </trkpt>
      <trkpt lat="39.89011681638658046722412109375" lon="-0.95916959457099437713623046875">
        <ele>1029</ele>
        <time>2020-08-22T16:50:15.000Z</time>
      </trkpt>
      <trkpt lat="39.8900744877755641937255859375" lon="-0.95906431786715984344482421875">
        <ele>1028.4000244140625</ele>
        <time>2020-08-22T16:50:16.000Z</time>
      </trkpt>
      <trkpt lat="39.89006401039659976959228515625" lon="-0.9588191471993923187255859375">
        <ele>1028</ele>
        <time>2020-08-22T16:50:18.000Z</time>
      </trkpt>
      <trkpt lat="39.890084378421306610107421875" lon="-0.958699285984039306640625">
        <ele>1027.800048828125</ele>
        <time>2020-08-22T16:50:19.000Z</time>
      </trkpt>
      <trkpt lat="39.8901167325675487518310546875" lon="-0.95858654938638210296630859375">
        <ele>1026.5999755859375</ele>
        <time>2020-08-22T16:50:20.000Z</time>
      </trkpt>
      <trkpt lat="39.890217483043670654296875" lon="-0.9583975374698638916015625">
        <ele>1025</ele>
        <time>2020-08-22T16:50:22.000Z</time>
      </trkpt>
      <trkpt lat="39.890331812202930450439453125" lon="-0.9582245349884033203125">
        <ele>1023.79998779296875</ele>
        <time>2020-08-22T16:50:24.000Z</time>
      </trkpt>
      <trkpt lat="39.890512526035308837890625" lon="-0.958010293543338775634765625">
        <ele>1023.20001220703125</ele>
        <time>2020-08-22T16:50:27.000Z</time>
      </trkpt>
      <trkpt lat="39.89054161123931407928466796875" lon="-0.9579199366271495819091796875">
        <ele>1022.79998779296875</ele>
        <time>2020-08-22T16:50:28.000Z</time>
      </trkpt>
      <trkpt lat="39.890551753342151641845703125" lon="-0.95782262273132801055908203125">
        <ele>1022.20001220703125</ele>
        <time>2020-08-22T16:50:29.000Z</time>
      </trkpt>
      <trkpt lat="39.89053859375417232513427734375" lon="-0.95763067714869976043701171875">
        <ele>1021.79998779296875</ele>
        <time>2020-08-22T16:50:31.000Z</time>
      </trkpt>
      <trkpt lat="39.89042610861361026763916015625" lon="-0.95720202662050724029541015625">
        <ele>1021.20001220703125</ele>
        <time>2020-08-22T16:50:36.000Z</time>
      </trkpt>
      <trkpt lat="39.8900245316326618194580078125" lon="-0.95671554096043109893798828125">
        <ele>1020.79998779296875</ele>
        <time>2020-08-22T16:50:45.000Z</time>
      </trkpt>
      <trkpt lat="39.88959252834320068359375" lon="-0.95625956542789936065673828125">
        <ele>1022</ele>
        <time>2020-08-22T16:50:56.000Z</time>
      </trkpt>
      <trkpt lat="39.88935439847409725189208984375" lon="-0.9560232795774936676025390625">
        <ele>1022.79998779296875</ele>
        <time>2020-08-22T16:51:03.000Z</time>
      </trkpt>
      <trkpt lat="39.8892279155552387237548828125" lon="-0.9558707289397716522216796875">
        <ele>1024</ele>
        <time>2020-08-22T16:51:07.000Z</time>
      </trkpt>
      <trkpt lat="39.888996742665767669677734375" lon="-0.95544568262994289398193359375">
        <ele>1025</ele>
        <time>2020-08-22T16:51:16.000Z</time>
      </trkpt>
      <trkpt lat="39.888821057975292205810546875" lon="-0.95474638044834136962890625">
        <ele>1025.199951171875</ele>
        <time>2020-08-22T16:51:26.000Z</time>
      </trkpt>
      <trkpt lat="39.8887863568961620330810546875" lon="-0.95449936576187610626220703125">
        <ele>1024.800048828125</ele>
        <time>2020-08-22T16:51:29.000Z</time>
      </trkpt>
      <trkpt lat="39.888799600303173065185546875" lon="-0.9543230943381786346435546875">
        <ele>1024.5999755859375</ele>
        <time>2020-08-22T16:51:31.000Z</time>
      </trkpt>
      <trkpt lat="39.888847880065441131591796875" lon="-0.95415495336055755615234375">
        <ele>1024.4000244140625</ele>
        <time>2020-08-22T16:51:33.000Z</time>
      </trkpt>
      <trkpt lat="39.8889127559959888458251953125" lon="-0.95399125479161739349365234375">
        <ele>1024</ele>
        <time>2020-08-22T16:51:35.000Z</time>
      </trkpt>
      <trkpt lat="39.88903890363872051239013671875" lon="-0.95365597866475582122802734375">
        <ele>1022.5999755859375</ele>
        <time>2020-08-22T16:51:39.000Z</time>
      </trkpt>
      <trkpt lat="39.88913160748779773712158203125" lon="-0.95332958735525608062744140625">
        <ele>1021.4000244140625</ele>
        <time>2020-08-22T16:51:43.000Z</time>
      </trkpt>
      <trkpt lat="39.8891459405422210693359375" lon="-0.95317066647112369537353515625">
        <ele>1021.20001220703125</ele>
        <time>2020-08-22T16:51:44.000Z</time>
      </trkpt>
      <trkpt lat="39.88914367742836475372314453125" lon="-0.95275215804576873779296875">
        <ele>1020.4000244140625</ele>
        <time>2020-08-22T16:51:51.000Z</time>
      </trkpt>
      <trkpt lat="39.8891125805675983428955078125" lon="-0.9521404467523097991943359375">
        <ele>1021.79998779296875</ele>
        <time>2020-08-22T16:52:01.000Z</time>
      </trkpt>
      <trkpt lat="39.8890733532607555389404296875" lon="-0.9518598206341266632080078125">
        <ele>1023</ele>
        <time>2020-08-22T16:52:06.000Z</time>
      </trkpt>
      <trkpt lat="39.88899917341768741607666015625" lon="-0.95152194611728191375732421875">
        <ele>1024</ele>
        <time>2020-08-22T16:52:12.000Z</time>
      </trkpt>
      <trkpt lat="39.88894921727478504180908203125" lon="-0.9513002447783946990966796875">
        <ele>1025</ele>
        <time>2020-08-22T16:52:16.000Z</time>
      </trkpt>
      <trkpt lat="39.88878509961068630218505859375" lon="-0.95058568753302097320556640625">
        <ele>1025.800048828125</ele>
        <time>2020-08-22T16:52:28.000Z</time>
      </trkpt>
      <trkpt lat="39.88863288424909114837646484375" lon="-0.9498707950115203857421875">
        <ele>1025.800048828125</ele>
        <time>2020-08-22T16:52:39.000Z</time>
      </trkpt>
      <trkpt lat="39.8884899728000164031982421875" lon="-0.94913025386631488800048828125">
        <ele>1026</ele>
        <time>2020-08-22T16:52:50.000Z</time>
      </trkpt>
      <trkpt lat="39.888426102697849273681640625" lon="-0.94881199300289154052734375">
        <ele>1026</ele>
        <time>2020-08-22T16:52:55.000Z</time>
      </trkpt>
      <trkpt lat="39.8883032239973545074462890625" lon="-0.94824981875717639923095703125">
        <ele>1027</ele>
        <time>2020-08-22T16:53:04.000Z</time>
      </trkpt>
      <trkpt lat="39.8881389386951923370361328125" lon="-0.94751036725938320159912109375">
        <ele>1027.4000244140625</ele>
        <time>2020-08-22T16:53:15.000Z</time>
      </trkpt>
      <trkpt lat="39.88798026926815509796142578125" lon="-0.9467916190624237060546875">
        <ele>1027.5999755859375</ele>
        <time>2020-08-22T16:53:26.000Z</time>
      </trkpt>
      <trkpt lat="39.8879216797649860382080078125" lon="-0.94653521664440631866455078125">
        <ele>1027.800048828125</ele>
        <time>2020-08-22T16:53:30.000Z</time>
      </trkpt>
      <trkpt lat="39.8878799378871917724609375" lon="-0.94634838402271270751953125">
        <ele>1028.199951171875</ele>
        <time>2020-08-22T16:53:33.000Z</time>
      </trkpt>
      <trkpt lat="39.8877211846411228179931640625" lon="-0.94566517509520053863525390625">
        <ele>1028.4000244140625</ele>
        <time>2020-08-22T16:53:43.000Z</time>
      </trkpt>
      <trkpt lat="39.887573830783367156982421875" lon="-0.944930501282215118408203125">
        <ele>1027.199951171875</ele>
        <time>2020-08-22T16:53:52.000Z</time>
      </trkpt>
      <trkpt lat="39.887555055320262908935546875" lon="-0.94484676606953144073486328125">
        <ele>1026.800048828125</ele>
        <time>2020-08-22T16:53:53.000Z</time>
      </trkpt>
      <trkpt lat="39.8874025046825408935546875" lon="-0.94412592239677906036376953125">
        <ele>1026.199951171875</ele>
        <time>2020-08-22T16:54:02.000Z</time>
      </trkpt>
      <trkpt lat="39.88724919967353343963623046875" lon="-0.9434400312602519989013671875">
        <ele>1027.5999755859375</ele>
        <time>2020-08-22T16:54:13.000Z</time>
      </trkpt>
      <trkpt lat="39.88722455687820911407470703125" lon="-0.9433290548622608184814453125">
        <ele>1028</ele>
        <time>2020-08-22T16:54:15.000Z</time>
      </trkpt>
      <trkpt lat="39.8871532268822193145751953125" lon="-0.943048931658267974853515625">
        <ele>1029.199951171875</ele>
        <time>2020-08-22T16:54:20.000Z</time>
      </trkpt>
      <trkpt lat="39.88709782250225543975830078125" lon="-0.9427691437304019927978515625">
        <ele>1030.4000244140625</ele>
        <time>2020-08-22T16:54:25.000Z</time>
      </trkpt>
      <trkpt lat="39.88702858798205852508544921875" lon="-0.94249404966831207275390625">
        <ele>1031.5999755859375</ele>
        <time>2020-08-22T16:54:30.000Z</time>
      </trkpt>
      <trkpt lat="39.8869572579860687255859375" lon="-0.942169167101383209228515625">
        <ele>1032.800048828125</ele>
        <time>2020-08-22T16:54:36.000Z</time>
      </trkpt>
      <trkpt lat="39.88685407675802707672119140625" lon="-0.94173540361225605010986328125">
        <ele>1033.800048828125</ele>
        <time>2020-08-22T16:54:44.000Z</time>
      </trkpt>
      <trkpt lat="39.88676807843148708343505859375" lon="-0.94134313054382801055908203125">
        <ele>1034.800048828125</ele>
        <time>2020-08-22T16:54:51.000Z</time>
      </trkpt>
      <trkpt lat="39.88667185418307781219482421875" lon="-0.9409167431294918060302734375">
        <ele>1035.800048828125</ele>
        <time>2020-08-22T16:54:59.000Z</time>
      </trkpt>
      <trkpt lat="39.886635057628154754638671875" lon="-0.94076159410178661346435546875">
        <ele>1037</ele>
        <time>2020-08-22T16:55:02.000Z</time>
      </trkpt>
      <trkpt lat="39.88655182532966136932373046875" lon="-0.9403554908931255340576171875">
        <ele>1038</ele>
        <time>2020-08-22T16:55:09.000Z</time>
      </trkpt>
      <trkpt lat="39.88644973374903202056884765625" lon="-0.93987495638430118560791015625">
        <ele>1039.199951171875</ele>
        <time>2020-08-22T16:55:17.000Z</time>
      </trkpt>
      <trkpt lat="39.88631210289895534515380859375" lon="-0.9392018057405948638916015625">
        <ele>1040.199951171875</ele>
        <time>2020-08-22T16:55:28.000Z</time>
      </trkpt>
      <trkpt lat="39.88614647649228572845458984375" lon="-0.93846000730991363525390625">
        <ele>1041</ele>
        <time>2020-08-22T16:55:39.000Z</time>
      </trkpt>
      <trkpt lat="39.88598939962685108184814453125" lon="-0.9377235732972621917724609375">
        <ele>1040.199951171875</ele>
        <time>2020-08-22T16:55:48.000Z</time>
      </trkpt>
      <trkpt lat="39.88584422506392002105712890625" lon="-0.937026701867580413818359375">
        <ele>1039.4000244140625</ele>
        <time>2020-08-22T16:55:57.000Z</time>
      </trkpt>
      <trkpt lat="39.88568865694105625152587890625" lon="-0.93632019124925136566162109375">
        <ele>1040.4000244140625</ele>
        <time>2020-08-22T16:56:07.000Z</time>
      </trkpt>
      <trkpt lat="39.88560182042419910430908203125" lon="-0.93593764118850231170654296875">
        <ele>1041.199951171875</ele>
        <time>2020-08-22T16:56:13.000Z</time>
      </trkpt>
      <trkpt lat="39.885475337505340576171875" lon="-0.93533255159854888916015625">
        <ele>1042.199951171875</ele>
        <time>2020-08-22T16:56:22.000Z</time>
      </trkpt>
      <trkpt lat="39.8853273130953311920166015625" lon="-0.93461547978222370147705078125">
        <ele>1042</ele>
        <time>2020-08-22T16:56:31.000Z</time>
      </trkpt>
      <trkpt lat="39.88523117266595363616943359375" lon="-0.93414844013750553131103515625">
        <ele>1041</ele>
        <time>2020-08-22T16:56:36.000Z</time>
      </trkpt>
      <trkpt lat="39.8851761035621166229248046875" lon="-0.9338699094951152801513671875">
        <ele>1040</ele>
        <time>2020-08-22T16:56:39.000Z</time>
      </trkpt>
      <trkpt lat="39.88507996313273906707763671875" lon="-0.9334280155599117279052734375">
        <ele>1038.800048828125</ele>
        <time>2020-08-22T16:56:44.000Z</time>
      </trkpt>
      <trkpt lat="39.8849149234592914581298828125" lon="-0.9326716326177120208740234375">
        <ele>1038.5999755859375</ele>
        <time>2020-08-22T16:56:53.000Z</time>
      </trkpt>
      <trkpt lat="39.88475709222257137298583984375" lon="-0.93193192966282367706298828125">
        <ele>1039.5999755859375</ele>
        <time>2020-08-22T16:57:03.000Z</time>
      </trkpt>
      <trkpt lat="39.88472574390470981597900390625" lon="-0.9317953884601593017578125">
        <ele>1040</ele>
        <time>2020-08-22T16:57:05.000Z</time>
      </trkpt>
      <trkpt lat="39.884563721716403961181640625" lon="-0.93106054700911045074462890625">
        <ele>1040.5999755859375</ele>
        <time>2020-08-22T16:57:16.000Z</time>
      </trkpt>
      <trkpt lat="39.88446825183928012847900390625" lon="-0.93060381710529327392578125">
        <ele>1041</ele>
        <time>2020-08-22T16:57:23.000Z</time>
      </trkpt>
      <trkpt lat="39.884359203279018402099609375" lon="-0.93011506833136081695556640625">
        <ele>1042.4000244140625</ele>
        <time>2020-08-22T16:57:31.000Z</time>
      </trkpt>
      <trkpt lat="39.88431888632476329803466796875" lon="-0.929939635097980499267578125">
        <ele>1043.4000244140625</ele>
        <time>2020-08-22T16:57:34.000Z</time>
      </trkpt>
      <trkpt lat="39.88421612419188022613525390625" lon="-0.92945725657045841217041015625">
        <ele>1044.4000244140625</ele>
        <time>2020-08-22T16:57:42.000Z</time>
      </trkpt>
      <trkpt lat="39.88406592048704624176025390625" lon="-0.928747393190860748291015625">
        <ele>1045</ele>
        <time>2020-08-22T16:57:53.000Z</time>
      </trkpt>
      <trkpt lat="39.8839218355715274810791015625" lon="-0.92806988395750522613525390625">
        <ele>1045</ele>
        <time>2020-08-22T16:58:03.000Z</time>
      </trkpt>
      <trkpt lat="39.883781187236309051513671875" lon="-0.92736882157623767852783203125">
        <ele>1044.5999755859375</ele>
        <time>2020-08-22T16:58:12.000Z</time>
      </trkpt>
      <trkpt lat="39.88362654112279415130615234375" lon="-0.92665937729179859161376953125">
        <ele>1044</ele>
        <time>2020-08-22T16:58:22.000Z</time>
      </trkpt>
      <trkpt lat="39.8835174925625324249267578125" lon="-0.92616744339466094970703125">
        <ele>1045.4000244140625</ele>
        <time>2020-08-22T16:58:30.000Z</time>
      </trkpt>
      <trkpt lat="39.88343895412981510162353515625" lon="-0.9258140623569488525390625">
        <ele>1046.4000244140625</ele>
        <time>2020-08-22T16:58:36.000Z</time>
      </trkpt>
      <trkpt lat="39.8833625949919223785400390625" lon="-0.9254739247262477874755859375">
        <ele>1047.4000244140625</ele>
        <time>2020-08-22T16:58:42.000Z</time>
      </trkpt>
      <trkpt lat="39.88329713232815265655517578125" lon="-0.92519220896065235137939453125">
        <ele>1048.5999755859375</ele>
        <time>2020-08-22T16:58:47.000Z</time>
      </trkpt>
      <trkpt lat="39.88323460333049297332763671875" lon="-0.92491912655532360076904296875">
        <ele>1050</ele>
        <time>2020-08-22T16:58:52.000Z</time>
      </trkpt>
      <trkpt lat="39.88312480039894580841064453125" lon="-0.92450053431093692779541015625">
        <ele>1051</ele>
        <time>2020-08-22T16:59:00.000Z</time>
      </trkpt>
      <trkpt lat="39.88291441462934017181396484375" lon="-0.9239916689693927764892578125">
        <ele>1052</ele>
        <time>2020-08-22T16:59:10.000Z</time>
      </trkpt>
      <trkpt lat="39.88251409493386745452880859375" lon="-0.9234900958836078643798828125">
        <ele>1052.800048828125</ele>
        <time>2020-08-22T16:59:21.000Z</time>
      </trkpt>
      <trkpt lat="39.8820650763809680938720703125" lon="-0.923017524182796478271484375">
        <ele>1052</ele>
        <time>2020-08-22T16:59:31.000Z</time>
      </trkpt>
      <trkpt lat="39.88162008114159107208251953125" lon="-0.9225389175117015838623046875">
        <ele>1051.199951171875</ele>
        <time>2020-08-22T16:59:40.000Z</time>
      </trkpt>
      <trkpt lat="39.88157129846513271331787109375" lon="-0.922486782073974609375">
        <ele>1051</ele>
        <time>2020-08-22T16:59:41.000Z</time>
      </trkpt>
      <trkpt lat="39.8811289854347705841064453125" lon="-0.9220162220299243927001953125">
        <ele>1050</ele>
        <time>2020-08-22T16:59:50.000Z</time>
      </trkpt>
      <trkpt lat="39.8810776881873607635498046875" lon="-0.92195930890738964080810546875">
        <ele>1049.800048828125</ele>
        <time>2020-08-22T16:59:51.000Z</time>
      </trkpt>
      <trkpt lat="39.88065951503813266754150390625" lon="-0.9215045906603336334228515625">
        <ele>1049.199951171875</ele>
        <time>2020-08-22T16:59:59.000Z</time>
      </trkpt>
      <trkpt lat="39.88060737960040569305419921875" lon="-0.92144943773746490478515625">
        <ele>1048.800048828125</ele>
        <time>2020-08-22T17:00:00.000Z</time>
      </trkpt>
      <trkpt lat="39.8801580257713794708251953125" lon="-0.92096823267638683319091796875">
        <ele>1047.800048828125</ele>
        <time>2020-08-22T17:00:09.000Z</time>
      </trkpt>
      <trkpt lat="39.87973297946155071258544921875" lon="-0.920520387589931488037109375">
        <ele>1047.800048828125</ele>
        <time>2020-08-22T17:00:18.000Z</time>
      </trkpt>
      <trkpt lat="39.87928907386958599090576171875" lon="-0.920046977698802947998046875">
        <ele>1048.4000244140625</ele>
        <time>2020-08-22T17:00:28.000Z</time>
      </trkpt>
      <trkpt lat="39.878930412232875823974609375" lon="-0.9196645952761173248291015625">
        <ele>1048.800048828125</ele>
        <time>2020-08-22T17:00:37.000Z</time>
      </trkpt>
      <trkpt lat="39.87850436009466648101806640625" lon="-0.9192066080868244171142578125">
        <ele>1049.800048828125</ele>
        <time>2020-08-22T17:00:49.000Z</time>
      </trkpt>
      <trkpt lat="39.87808677367866039276123046875" lon="-0.91878860257565975189208984375">
        <ele>1051</ele>
        <time>2020-08-22T17:01:01.000Z</time>
      </trkpt>
      <trkpt lat="39.87780631519854068756103515625" lon="-0.91849003918468952178955078125">
        <ele>1052</ele>
        <time>2020-08-22T17:01:08.000Z</time>
      </trkpt>
      <trkpt lat="39.877477996051311492919921875" lon="-0.918129868805408477783203125">
        <ele>1053</ele>
        <time>2020-08-22T17:01:16.000Z</time>
      </trkpt>
      <trkpt lat="39.87700902856886386871337890625" lon="-0.91766215860843658447265625">
        <ele>1053.199951171875</ele>
        <time>2020-08-22T17:01:26.000Z</time>
      </trkpt>
      <trkpt lat="39.87655657343566417694091796875" lon="-0.91727717779576778411865234375">
        <ele>1052.4000244140625</ele>
        <time>2020-08-22T17:01:33.000Z</time>
      </trkpt>
      <trkpt lat="39.876421876251697540283203125" lon="-0.91714876703917980194091796875">
        <ele>1051.4000244140625</ele>
        <time>2020-08-22T17:01:35.000Z</time>
      </trkpt>
      <trkpt lat="39.87629639916121959686279296875" lon="-0.91699504293501377105712890625">
        <ele>1049.800048828125</ele>
        <time>2020-08-22T17:01:37.000Z</time>
      </trkpt>
      <trkpt lat="39.8762074671685695648193359375" lon="-0.9168020077049732208251953125">
        <ele>1048.4000244140625</ele>
        <time>2020-08-22T17:01:39.000Z</time>
      </trkpt>
      <trkpt lat="39.876135550439357757568359375" lon="-0.91645809821784496307373046875">
        <ele>1047.199951171875</ele>
        <time>2020-08-22T17:01:42.000Z</time>
      </trkpt>
      <trkpt lat="39.8760728538036346435546875" lon="-0.91608703136444091796875">
        <ele>1046</ele>
        <time>2020-08-22T17:01:45.000Z</time>
      </trkpt>
      <trkpt lat="39.87598241306841373443603515625" lon="-0.9157009609043598175048828125">
        <ele>1044.5999755859375</ele>
        <time>2020-08-22T17:01:48.000Z</time>
      </trkpt>
      <trkpt lat="39.87579482607543468475341796875" lon="-0.9151973761618137359619140625">
        <ele>1043.4000244140625</ele>
        <time>2020-08-22T17:01:52.000Z</time>
      </trkpt>
      <trkpt lat="39.87567010335624217987060546875" lon="-0.91495103202760219573974609375">
        <ele>1041.4000244140625</ele>
        <time>2020-08-22T17:01:54.000Z</time>
      </trkpt>
      <trkpt lat="39.87552492879331111907958984375" lon="-0.91471885330975055694580078125">
        <ele>1040.4000244140625</ele>
        <time>2020-08-22T17:01:56.000Z</time>
      </trkpt>
      <trkpt lat="39.87536215223371982574462890625" lon="-0.91449807398021221160888671875">
        <ele>1038.199951171875</ele>
        <time>2020-08-22T17:01:58.000Z</time>
      </trkpt>
      <trkpt lat="39.8751754872500896453857421875" lon="-0.9143085591495037078857421875">
        <ele>1037</ele>
        <time>2020-08-22T17:02:00.000Z</time>
      </trkpt>
      <trkpt lat="39.87507364712655544281005859375" lon="-0.91422582976520061492919921875">
        <ele>1036</ele>
        <time>2020-08-22T17:02:01.000Z</time>
      </trkpt>
      <trkpt lat="39.87486158497631549835205078125" lon="-0.914084427058696746826171875">
        <ele>1034</ele>
        <time>2020-08-22T17:02:03.000Z</time>
      </trkpt>
      <trkpt lat="39.87464256584644317626953125" lon="-0.91396850533783435821533203125">
        <ele>1031.5999755859375</ele>
        <time>2020-08-22T17:02:05.000Z</time>
      </trkpt>
      <trkpt lat="39.8744241334497928619384765625" lon="-0.913869179785251617431640625">
        <ele>1030.4000244140625</ele>
        <time>2020-08-22T17:02:07.000Z</time>
      </trkpt>
      <trkpt lat="39.87409598194062709808349609375" lon="-0.9137213230133056640625">
        <ele>1028.800048828125</ele>
        <time>2020-08-22T17:02:10.000Z</time>
      </trkpt>
      <trkpt lat="39.87388358451426029205322265625" lon="-0.91362618841230869293212890625">
        <ele>1027.199951171875</ele>
        <time>2020-08-22T17:02:12.000Z</time>
      </trkpt>
      <trkpt lat="39.87367588095366954803466796875" lon="-0.913505069911479949951171875">
        <ele>1025.5999755859375</ele>
        <time>2020-08-22T17:02:14.000Z</time>
      </trkpt>
      <trkpt lat="39.87348251044750213623046875" lon="-0.91333097778260707855224609375">
        <ele>1024.5999755859375</ele>
        <time>2020-08-22T17:02:16.000Z</time>
      </trkpt>
      <trkpt lat="39.87339290790259838104248046875" lon="-0.91323517262935638427734375">
        <ele>1023.20001220703125</ele>
        <time>2020-08-22T17:02:17.000Z</time>
      </trkpt>
      <trkpt lat="39.8732184804975986480712890625" lon="-0.91304264031350612640380859375">
        <ele>1021.79998779296875</ele>
        <time>2020-08-22T17:02:19.000Z</time>
      </trkpt>
      <trkpt lat="39.8730364255607128143310546875" lon="-0.91286628507077693939208984375">
        <ele>1020.20001220703125</ele>
        <time>2020-08-22T17:02:21.000Z</time>
      </trkpt>
      <trkpt lat="39.872939698398113250732421875" lon="-0.91279126703739166259765625">
        <ele>1019.5999755859375</ele>
        <time>2020-08-22T17:02:22.000Z</time>
      </trkpt>
      <trkpt lat="39.87283752299845218658447265625" lon="-0.91272731311619281768798828125">
        <ele>1019.20001220703125</ele>
        <time>2020-08-22T17:02:23.000Z</time>
      </trkpt>
      <trkpt lat="39.8725140653550624847412109375" lon="-0.9126036800444126129150390625">
        <ele>1017.5999755859375</ele>
        <time>2020-08-22T17:02:26.000Z</time>
      </trkpt>
      <trkpt lat="39.87228582613170146942138671875" lon="-0.9125612676143646240234375">
        <ele>1016.5999755859375</ele>
        <time>2020-08-22T17:02:28.000Z</time>
      </trkpt>
      <trkpt lat="39.87205884419381618499755859375" lon="-0.9125825576484203338623046875">
        <ele>1015.4000244140625</ele>
        <time>2020-08-22T17:02:30.000Z</time>
      </trkpt>
      <trkpt lat="39.87194149754941463470458984375" lon="-0.9125859104096889495849609375">
        <ele>1014.20001220703125</ele>
        <time>2020-08-22T17:02:31.000Z</time>
      </trkpt>
      <trkpt lat="39.87183161079883575439453125" lon="-0.91255246661603450775146484375">
        <ele>1013.5999755859375</ele>
        <time>2020-08-22T17:02:32.000Z</time>
      </trkpt>
      <trkpt lat="39.87172943539917469024658203125" lon="-0.91249354183673858642578125">
        <ele>1013</ele>
        <time>2020-08-22T17:02:33.000Z</time>
      </trkpt>
      <trkpt lat="39.87163404934108257293701171875" lon="-0.91241952963173389434814453125">
        <ele>1012.20001220703125</ele>
        <time>2020-08-22T17:02:34.000Z</time>
      </trkpt>
      <trkpt lat="39.8715417645871639251708984375" lon="-0.91234459541738033294677734375">
        <ele>1011</ele>
        <time>2020-08-22T17:02:35.000Z</time>
      </trkpt>
      <trkpt lat="39.87136230804026126861572265625" lon="-0.91221861541271209716796875">
        <ele>1009.20001220703125</ele>
        <time>2020-08-22T17:02:37.000Z</time>
      </trkpt>
      <trkpt lat="39.87118846736848354339599609375" lon="-0.91210587881505489349365234375">
        <ele>1007.79998779296875</ele>
        <time>2020-08-22T17:02:39.000Z</time>
      </trkpt>
      <trkpt lat="39.871019236743450164794921875" lon="-0.911990292370319366455078125">
        <ele>1006.4000244140625</ele>
        <time>2020-08-22T17:02:41.000Z</time>
      </trkpt>
      <trkpt lat="39.8706449009478092193603515625" lon="-0.91165778227150440216064453125">
        <ele>1005.20001220703125</ele>
        <time>2020-08-22T17:02:46.000Z</time>
      </trkpt>
      <trkpt lat="39.8705862276256084442138671875" lon="-0.9115757234394550323486328125">
        <ele>1005.20001220703125</ele>
        <time>2020-08-22T17:02:47.000Z</time>
      </trkpt>
      <trkpt lat="39.8704112134873867034912109375" lon="-0.91133273206651210784912109375">
        <ele>1005.20001220703125</ele>
        <time>2020-08-22T17:02:50.000Z</time>
      </trkpt>
      <trkpt lat="39.87026863731443881988525390625" lon="-0.91121320612728595733642578125">
        <ele>1005</ele>
        <time>2020-08-22T17:02:52.000Z</time>
      </trkpt>
      <trkpt lat="39.86974359489977359771728515625" lon="-0.9109036624431610107421875">
        <ele>1004.20001220703125</ele>
        <time>2020-08-22T17:02:59.000Z</time>
      </trkpt>
      <trkpt lat="39.86928828991949558258056640625" lon="-0.91061021201312541961669921875">
        <ele>1003.20001220703125</ele>
        <time>2020-08-22T17:03:05.000Z</time>
      </trkpt>
      <trkpt lat="39.8691753856837749481201171875" lon="-0.9104535542428493499755859375">
        <ele>1002.79998779296875</ele>
        <time>2020-08-22T17:03:07.000Z</time>
      </trkpt>
      <trkpt lat="39.86900389194488525390625" lon="-0.9102145023643970489501953125">
        <ele>1002.5999755859375</ele>
        <time>2020-08-22T17:03:10.000Z</time>
      </trkpt>
      <trkpt lat="39.86885972321033477783203125" lon="-0.91009858064353466033935546875">
        <ele>1002.4000244140625</ele>
        <time>2020-08-22T17:03:12.000Z</time>
      </trkpt>
      <trkpt lat="39.86870524473488330841064453125" lon="-0.9100280888378620147705078125">
        <ele>1002.20001220703125</ele>
        <time>2020-08-22T17:03:13.000Z</time>
      </trkpt>
      <trkpt lat="39.8686258681118488311767578125" lon="-0.91001777909696102142333984375">
        <ele>1002.20001220703125</ele>
        <time>2020-08-22T17:03:15.000Z</time>
      </trkpt>
      <trkpt lat="39.86838002689182758331298828125" lon="-0.91003018431365489959716796875">
        <ele>1001.20001220703125</ele>
        <time>2020-08-22T17:03:18.000Z</time>
      </trkpt>
      <trkpt lat="39.86795715987682342529296875" lon="-0.91007226146757602691650390625">
        <ele>1000</ele>
        <time>2020-08-22T17:03:23.000Z</time>
      </trkpt>
      <trkpt lat="39.86743655987083911895751953125" lon="-0.910156667232513427734375">
        <ele>999</ele>
        <time>2020-08-22T17:03:29.000Z</time>
      </trkpt>
      <trkpt lat="39.86725484021008014678955078125" lon="-0.91020293533802032470703125">
        <ele>997.79998779296875</ele>
        <time>2020-08-22T17:03:31.000Z</time>
      </trkpt>
      <trkpt lat="39.86700539477169513702392578125" lon="-0.9102966450154781341552734375">
        <ele>996.79998779296875</ele>
        <time>2020-08-22T17:03:34.000Z</time>
      </trkpt>
      <trkpt lat="39.86643358133733272552490234375" lon="-0.910384654998779296875">
        <ele>995.79998779296875</ele>
        <time>2020-08-22T17:03:42.000Z</time>
      </trkpt>
      <trkpt lat="39.866098053753376007080078125" lon="-0.91049051843583583831787109375">
        <ele>996.79998779296875</ele>
        <time>2020-08-22T17:03:48.000Z</time>
      </trkpt>
      <trkpt lat="39.865962602198123931884765625" lon="-0.9105983935296535491943359375">
        <ele>998</ele>
        <time>2020-08-22T17:03:51.000Z</time>
      </trkpt>
      <trkpt lat="39.86588004045188426971435546875" lon="-0.91068665497004985809326171875">
        <ele>999.20001220703125</ele>
        <time>2020-08-22T17:03:53.000Z</time>
      </trkpt>
      <trkpt lat="39.865781553089618682861328125" lon="-0.91083057224750518798828125">
        <ele>1000.20001220703125</ele>
        <time>2020-08-22T17:03:56.000Z</time>
      </trkpt>
      <trkpt lat="39.8657569102942943572998046875" lon="-0.910885222256183624267578125">
        <ele>1000.4000244140625</ele>
        <time>2020-08-22T17:03:57.000Z</time>
      </trkpt>
      <trkpt lat="39.865735284984111785888671875" lon="-0.9109423868358135223388671875">
        <ele>1000.5999755859375</ele>
        <time>2020-08-22T17:03:58.000Z</time>
      </trkpt>
      <trkpt lat="39.86566714011132717132568359375" lon="-0.911101140081882476806640625">
        <ele>1001.4000244140625</ele>
        <time>2020-08-22T17:04:01.000Z</time>
      </trkpt>
      <trkpt lat="39.8655379749834537506103515625" lon="-0.91141998767852783203125">
        <ele>1002</ele>
        <time>2020-08-22T17:04:07.000Z</time>
      </trkpt>
      <trkpt lat="39.86541350372135639190673828125" lon="-0.911593325436115264892578125">
        <ele>1002.4000244140625</ele>
        <time>2020-08-22T17:04:11.000Z</time>
      </trkpt>
      <trkpt lat="39.86527268774807453155517578125" lon="-0.911728441715240478515625">
        <ele>1003.5999755859375</ele>
        <time>2020-08-22T17:04:15.000Z</time>
      </trkpt>
      <trkpt lat="39.86510932445526123046875" lon="-0.9118328802287578582763671875">
        <ele>1004.5999755859375</ele>
        <time>2020-08-22T17:04:19.000Z</time>
      </trkpt>
      <trkpt lat="39.8645737208425998687744140625" lon="-0.912051983177661895751953125">
        <ele>1005</ele>
        <time>2020-08-22T17:04:28.000Z</time>
      </trkpt>
      <trkpt lat="39.86428915522992610931396484375" lon="-0.9123140014708042144775390625">
        <ele>1003.4000244140625</ele>
        <time>2020-08-22T17:04:32.000Z</time>
      </trkpt>
      <trkpt lat="39.86414934508502483367919921875" lon="-0.91248105280101299285888671875">
        <ele>1002</ele>
        <time>2020-08-22T17:04:34.000Z</time>
      </trkpt>
      <trkpt lat="39.86400651745498180389404296875" lon="-0.91266009025275707244873046875">
        <ele>1000.79998779296875</ele>
        <time>2020-08-22T17:04:36.000Z</time>
      </trkpt>
      <trkpt lat="39.8637955449521541595458984375" lon="-0.91294859535992145538330078125">
        <ele>999.20001220703125</ele>
        <time>2020-08-22T17:04:39.000Z</time>
      </trkpt>
      <trkpt lat="39.86372790299355983734130859375" lon="-0.91305010020732879638671875">
        <ele>998.20001220703125</ele>
        <time>2020-08-22T17:04:40.000Z</time>
      </trkpt>
      <trkpt lat="39.8635913617908954620361328125" lon="-0.91325570829212665557861328125">
        <ele>996.79998779296875</ele>
        <time>2020-08-22T17:04:42.000Z</time>
      </trkpt>
      <trkpt lat="39.8634522221982479095458984375" lon="-0.91345972381532192230224609375">
        <ele>995.5999755859375</ele>
        <time>2020-08-22T17:04:44.000Z</time>
      </trkpt>
      <trkpt lat="39.8633110709488391876220703125" lon="-0.9136581234633922576904296875">
        <ele>993.79998779296875</ele>
        <time>2020-08-22T17:04:46.000Z</time>
      </trkpt>
      <trkpt lat="39.86316002905368804931640625" lon="-0.913842022418975830078125">
        <ele>992</ele>
        <time>2020-08-22T17:04:48.000Z</time>
      </trkpt>
      <trkpt lat="39.862979985773563385009765625" lon="-0.91397236101329326629638671875">
        <ele>990.79998779296875</ele>
        <time>2020-08-22T17:04:50.000Z</time>
      </trkpt>
      <trkpt lat="39.86278929747641086578369140625" lon="-0.91403086669743061065673828125">
        <ele>989.20001220703125</ele>
        <time>2020-08-22T17:04:52.000Z</time>
      </trkpt>
      <trkpt lat="39.86261445097625255584716796875" lon="-0.91405081562697887420654296875">
        <ele>987.5999755859375</ele>
        <time>2020-08-22T17:04:54.000Z</time>
      </trkpt>
      <trkpt lat="39.8623769916594028472900390625" lon="-0.9140772186219692230224609375">
        <ele>986.4000244140625</ele>
        <time>2020-08-22T17:04:57.000Z</time>
      </trkpt>
      <trkpt lat="39.86183661036193370819091796875" lon="-0.91409339569509029388427734375">
        <ele>986.5999755859375</ele>
        <time>2020-08-22T17:05:06.000Z</time>
      </trkpt>
      <trkpt lat="39.86169143579900264739990234375" lon="-0.91406690888106822967529296875">
        <ele>987.5999755859375</ele>
        <time>2020-08-22T17:05:09.000Z</time>
      </trkpt>
      <trkpt lat="39.861501753330230712890625" lon="-0.91403254307806491851806640625">
        <ele>988.79998779296875</ele>
        <time>2020-08-22T17:05:13.000Z</time>
      </trkpt>
      <trkpt lat="39.8614579997956752777099609375" lon="-0.91402030549943447113037109375">
        <ele>989.20001220703125</ele>
        <time>2020-08-22T17:05:14.000Z</time>
      </trkpt>
      <trkpt lat="39.8613770306110382080078125" lon="-0.913982503116130828857421875">
        <ele>989.79998779296875</ele>
        <time>2020-08-22T17:05:16.000Z</time>
      </trkpt>
      <trkpt lat="39.86126638948917388916015625" lon="-0.913914777338504791259765625">
        <ele>990.5999755859375</ele>
        <time>2020-08-22T17:05:19.000Z</time>
      </trkpt>
      <trkpt lat="39.86123126931488513946533203125" lon="-0.9138854406774044036865234375">
        <ele>991.20001220703125</ele>
        <time>2020-08-22T17:05:20.000Z</time>
      </trkpt>
      <trkpt lat="39.86109464429318904876708984375" lon="-0.9137540124356746673583984375">
        <ele>992.5999755859375</ele>
        <time>2020-08-22T17:05:24.000Z</time>
      </trkpt>
      <trkpt lat="39.8609460331499576568603515625" lon="-0.91350196860730648040771484375">
        <ele>994</ele>
        <time>2020-08-22T17:05:30.000Z</time>
      </trkpt>
      <trkpt lat="39.86087637953460216522216796875" lon="-0.91331563889980316162109375">
        <ele>995</ele>
        <time>2020-08-22T17:05:34.000Z</time>
      </trkpt>
      <trkpt lat="39.86066314391791820526123046875" lon="-0.91295647434890270233154296875">
        <ele>996.20001220703125</ele>
        <time>2020-08-22T17:05:42.000Z</time>
      </trkpt>
      <trkpt lat="39.8604917339980602264404296875" lon="-0.912704430520534515380859375">
        <ele>996.79998779296875</ele>
        <time>2020-08-22T17:05:48.000Z</time>
      </trkpt>
      <trkpt lat="39.8604167997837066650390625" lon="-0.91264248825609683990478515625">
        <ele>997.20001220703125</ele>
        <time>2020-08-22T17:05:50.000Z</time>
      </trkpt>
      <trkpt lat="39.86037782393395900726318359375" lon="-0.91262136586010456085205078125">
        <ele>997.20001220703125</ele>
        <time>2020-08-22T17:05:51.000Z</time>
      </trkpt>
      <trkpt lat="39.8603361658751964569091796875" lon="-0.91260493732988834381103515625">
        <ele>997.4000244140625</ele>
        <time>2020-08-22T17:05:52.000Z</time>
      </trkpt>
      <trkpt lat="39.86025712452828884124755859375" lon="-0.91258733533322811126708984375">
        <ele>997.5999755859375</ele>
        <time>2020-08-22T17:05:54.000Z</time>
      </trkpt>
      <trkpt lat="39.8601785860955715179443359375" lon="-0.9126093797385692596435546875">
        <ele>997.79998779296875</ele>
        <time>2020-08-22T17:05:56.000Z</time>
      </trkpt>
      <trkpt lat="39.86010105349123477935791015625" lon="-0.91268020682036876678466796875">
        <ele>997.79998779296875</ele>
        <time>2020-08-22T17:05:58.000Z</time>
      </trkpt>
      <trkpt lat="39.86002209596335887908935546875" lon="-0.91279990039765834808349609375">
        <ele>997.79998779296875</ele>
        <time>2020-08-22T17:06:00.000Z</time>
      </trkpt>
      <trkpt lat="39.85992017202079296112060546875" lon="-0.91303928755223751068115234375">
        <ele>997.79998779296875</ele>
        <time>2020-08-22T17:06:03.000Z</time>
      </trkpt>
      <trkpt lat="39.85969453118741512298583984375" lon="-0.91369022615253925323486328125">
        <ele>996.4000244140625</ele>
        <time>2020-08-22T17:06:11.000Z</time>
      </trkpt>
      <trkpt lat="39.8596579022705554962158203125" lon="-0.9137684293091297149658203125">
        <ele>996.20001220703125</ele>
        <time>2020-08-22T17:06:12.000Z</time>
      </trkpt>
      <trkpt lat="39.8593742586672306060791015625" lon="-0.91426522471010684967041015625">
        <ele>995</ele>
        <time>2020-08-22T17:06:18.000Z</time>
      </trkpt>
      <trkpt lat="39.85926973633468151092529296875" lon="-0.91444493271410465240478515625">
        <ele>994</ele>
        <time>2020-08-22T17:06:20.000Z</time>
      </trkpt>
      <trkpt lat="39.8589992523193359375" lon="-0.91493577696382999420166015625">
        <ele>993</ele>
        <time>2020-08-22T17:06:25.000Z</time>
      </trkpt>
      <trkpt lat="39.85881560482084751129150390625" lon="-0.91535554267466068267822265625">
        <ele>991.5999755859375</ele>
        <time>2020-08-22T17:06:29.000Z</time>
      </trkpt>
      <trkpt lat="39.858736060559749603271484375" lon="-0.915687717497348785400390625">
        <ele>990.4000244140625</ele>
        <time>2020-08-22T17:06:32.000Z</time>
      </trkpt>
      <trkpt lat="39.85864830203354358673095703125" lon="-0.915998518466949462890625">
        <ele>989</ele>
        <time>2020-08-22T17:06:35.000Z</time>
      </trkpt>
      <trkpt lat="39.85852525569498538970947265625" lon="-0.9161742031574249267578125">
        <ele>987.5999755859375</ele>
        <time>2020-08-22T17:06:37.000Z</time>
      </trkpt>
      <trkpt lat="39.8584458790719509124755859375" lon="-0.9162374027073383331298828125">
        <ele>987.20001220703125</ele>
        <time>2020-08-22T17:06:38.000Z</time>
      </trkpt>
      <trkpt lat="39.85827128402888774871826171875" lon="-0.91633220203220844268798828125">
        <ele>986.5999755859375</ele>
        <time>2020-08-22T17:06:40.000Z</time>
      </trkpt>
      <trkpt lat="39.8578551225364208221435546875" lon="-0.91666278429329395294189453125">
        <ele>985.4000244140625</ele>
        <time>2020-08-22T17:06:45.000Z</time>
      </trkpt>
      <trkpt lat="39.8576891608536243438720703125" lon="-0.91680997051298618316650390625">
        <ele>983.79998779296875</ele>
        <time>2020-08-22T17:06:47.000Z</time>
      </trkpt>
      <trkpt lat="39.8575168289244174957275390625" lon="-0.91694491915404796600341796875">
        <ele>982.4000244140625</ele>
        <time>2020-08-22T17:06:49.000Z</time>
      </trkpt>
      <trkpt lat="39.857256151735782623291015625" lon="-0.91711121611297130584716796875">
        <ele>981</ele>
        <time>2020-08-22T17:06:52.000Z</time>
      </trkpt>
      <trkpt lat="39.85708423890173435211181640625" lon="-0.9171915985643863677978515625">
        <ele>979</ele>
        <time>2020-08-22T17:06:54.000Z</time>
      </trkpt>
      <trkpt lat="39.85682238824665546417236328125" lon="-0.9172817878425121307373046875">
        <ele>977.5999755859375</ele>
        <time>2020-08-22T17:06:57.000Z</time>
      </trkpt>
      <trkpt lat="39.8567326180636882781982421875" lon="-0.917292349040508270263671875">
        <ele>977.20001220703125</ele>
        <time>2020-08-22T17:06:58.000Z</time>
      </trkpt>
      <trkpt lat="39.85655483789741992950439453125" lon="-0.9172767587006092071533203125">
        <ele>976.4000244140625</ele>
        <time>2020-08-22T17:07:00.000Z</time>
      </trkpt>
      <trkpt lat="39.85629047267138957977294921875" lon="-0.9172687120735645294189453125">
        <ele>975</ele>
        <time>2020-08-22T17:07:03.000Z</time>
      </trkpt>
      <trkpt lat="39.85610875301063060760498046875" lon="-0.9173163212835788726806640625">
        <ele>973.79998779296875</ele>
        <time>2020-08-22T17:07:05.000Z</time>
      </trkpt>
      <trkpt lat="39.85582896508276462554931640625" lon="-0.91743324883282184600830078125">
        <ele>972.5999755859375</ele>
        <time>2020-08-22T17:07:08.000Z</time>
      </trkpt>
      <trkpt lat="39.855424202978610992431640625" lon="-0.91757440008223056793212890625">
        <ele>971.5999755859375</ele>
        <time>2020-08-22T17:07:12.000Z</time>
      </trkpt>
      <trkpt lat="39.85503268428146839141845703125" lon="-0.917793251574039459228515625">
        <ele>970</ele>
        <time>2020-08-22T17:07:16.000Z</time>
      </trkpt>
      <trkpt lat="39.854718111455440521240234375" lon="-0.917944796383380889892578125">
        <ele>969</ele>
        <time>2020-08-22T17:07:19.000Z</time>
      </trkpt>
      <trkpt lat="39.85448601655662059783935546875" lon="-0.918023921549320220947265625">
        <ele>967.79998779296875</ele>
        <time>2020-08-22T17:07:21.000Z</time>
      </trkpt>
      <trkpt lat="39.854150153696537017822265625" lon="-0.9182155318558216094970703125">
        <ele>966.20001220703125</ele>
        <time>2020-08-22T17:07:24.000Z</time>
      </trkpt>
      <trkpt lat="39.85404613427817821502685546875" lon="-0.91829507611691951751708984375">
        <ele>965.5999755859375</ele>
        <time>2020-08-22T17:07:25.000Z</time>
      </trkpt>
      <trkpt lat="39.8538562841713428497314453125" lon="-0.9184723533689975738525390625">
        <ele>964.79998779296875</ele>
        <time>2020-08-22T17:07:27.000Z</time>
      </trkpt>
      <trkpt lat="39.8537729680538177490234375" lon="-0.91857117600739002227783203125">
        <ele>963.79998779296875</ele>
        <time>2020-08-22T17:07:28.000Z</time>
      </trkpt>
      <trkpt lat="39.8536152206361293792724609375" lon="-0.9187603555619716644287109375">
        <ele>962.20001220703125</ele>
        <time>2020-08-22T17:07:30.000Z</time>
      </trkpt>
      <trkpt lat="39.8534361831843852996826171875" lon="-0.91890360228717327117919921875">
        <ele>960.5999755859375</ele>
        <time>2020-08-22T17:07:32.000Z</time>
      </trkpt>
      <trkpt lat="39.85327449627220630645751953125" lon="-0.91907124035060405731201171875">
        <ele>959.5999755859375</ele>
        <time>2020-08-22T17:07:34.000Z</time>
      </trkpt>
      <trkpt lat="39.8532081954181194305419921875" lon="-0.9191764332354068756103515625">
        <ele>959.4000244140625</ele>
        <time>2020-08-22T17:07:35.000Z</time>
      </trkpt>
      <trkpt lat="39.85298079438507556915283203125" lon="-0.91965596191585063934326171875">
        <ele>958.20001220703125</ele>
        <time>2020-08-22T17:07:39.000Z</time>
      </trkpt>
      <trkpt lat="39.8528444208204746246337890625" lon="-0.9198882244527339935302734375">
        <ele>957.5999755859375</ele>
        <time>2020-08-22T17:07:41.000Z</time>
      </trkpt>
      <trkpt lat="39.852692373096942901611328125" lon="-0.92009349726140499114990234375">
        <ele>957</ele>
        <time>2020-08-22T17:07:43.000Z</time>
      </trkpt>
      <trkpt lat="39.85254191793501377105712890625" lon="-0.92030103318393230438232421875">
        <ele>955.20001220703125</ele>
        <time>2020-08-22T17:07:45.000Z</time>
      </trkpt>
      <trkpt lat="39.85246832482516765594482421875" lon="-0.9204092435538768768310546875">
        <ele>954.20001220703125</ele>
        <time>2020-08-22T17:07:46.000Z</time>
      </trkpt>
      <trkpt lat="39.85231962986290454864501953125" lon="-0.92062306590378284454345703125">
        <ele>952.79998779296875</ele>
        <time>2020-08-22T17:07:47.000Z</time>
      </trkpt>
      <trkpt lat="39.85231962986290454864501953125" lon="-0.92062306590378284454345703125">
        <ele>951.79998779296875</ele>
        <time>2020-08-22T17:07:48.000Z</time>
      </trkpt>
      <trkpt lat="39.8522385768592357635498046875" lon="-0.92071727849543094635009765625">
        <ele>951</ele>
        <time>2020-08-22T17:07:49.000Z</time>
      </trkpt>
      <trkpt lat="39.8521457053720951080322265625" lon="-0.92079053632915019989013671875">
        <ele>950</ele>
        <time>2020-08-22T17:07:50.000Z</time>
      </trkpt>
      <trkpt lat="39.852042607963085174560546875" lon="-0.92084049247205257415771484375">
        <ele>949.20001220703125</ele>
        <time>2020-08-22T17:07:51.000Z</time>
      </trkpt>
      <trkpt lat="39.85193707980215549468994140625" lon="-0.9208746068179607391357421875">
        <ele>948.5999755859375</ele>
        <time>2020-08-22T17:07:52.000Z</time>
      </trkpt>
      <trkpt lat="39.85172837041318416595458984375" lon="-0.920906625688076019287109375">
        <ele>947.4000244140625</ele>
        <time>2020-08-22T17:07:54.000Z</time>
      </trkpt>
      <trkpt lat="39.85152619890868663787841796875" lon="-0.92092699371278285980224609375">
        <ele>944.79998779296875</ele>
        <time>2020-08-22T17:07:56.000Z</time>
      </trkpt>
      <trkpt lat="39.85142326913774013519287109375" lon="-0.9209366329014301300048828125">
        <ele>943.4000244140625</ele>
        <time>2020-08-22T17:07:57.000Z</time>
      </trkpt>
      <trkpt lat="39.85121120698750019073486328125" lon="-0.92095113359391689300537109375">
        <ele>942.20001220703125</ele>
        <time>2020-08-22T17:07:59.000Z</time>
      </trkpt>
      <trkpt lat="39.85100266523659229278564453125" lon="-0.92091173864901065826416015625">
        <ele>941.20001220703125</ele>
        <time>2020-08-22T17:08:01.000Z</time>
      </trkpt>
      <trkpt lat="39.85090409405529499053955078125" lon="-0.920841582119464874267578125">
        <ele>941</ele>
        <time>2020-08-22T17:08:02.000Z</time>
      </trkpt>
      <trkpt lat="39.85081725753843784332275390625" lon="-0.92075876891613006591796875">
        <ele>940.79998779296875</ele>
        <time>2020-08-22T17:08:03.000Z</time>
      </trkpt>
      <trkpt lat="39.8507067002356052398681640625" lon="-0.920508988201618194580078125">
        <ele>940.20001220703125</ele>
        <time>2020-08-22T17:08:05.000Z</time>
      </trkpt>
      <trkpt lat="39.85066437162458896636962890625" lon="-0.92037345282733440399169921875">
        <ele>939.5999755859375</ele>
        <time>2020-08-22T17:08:06.000Z</time>
      </trkpt>
      <trkpt lat="39.85057803802192211151123046875" lon="-0.92011009342968463897705078125">
        <ele>938.20001220703125</ele>
        <time>2020-08-22T17:08:08.000Z</time>
      </trkpt>
      <trkpt lat="39.850429929792881011962890625" lon="-0.91973508708178997039794921875">
        <ele>937</ele>
        <time>2020-08-22T17:08:11.000Z</time>
      </trkpt>
      <trkpt lat="39.85029875300824642181396484375" lon="-0.919391848146915435791015625">
        <ele>935.5999755859375</ele>
        <time>2020-08-22T17:08:14.000Z</time>
      </trkpt>
      <trkpt lat="39.85009322874248027801513671875" lon="-0.918689109385013580322265625">
        <ele>934.79998779296875</ele>
        <time>2020-08-22T17:08:21.000Z</time>
      </trkpt>
      <trkpt lat="39.850010164082050323486328125" lon="-0.91850303113460540771484375">
        <ele>934.5999755859375</ele>
        <time>2020-08-22T17:08:23.000Z</time>
      </trkpt>
      <trkpt lat="39.84987596981227397918701171875" lon="-0.91838233172893524169921875">
        <ele>934.4000244140625</ele>
        <time>2020-08-22T17:08:25.000Z</time>
      </trkpt>
      <trkpt lat="39.84972107224166393280029296875" lon="-0.918355174362659454345703125">
        <ele>934.5999755859375</ele>
        <time>2020-08-22T17:08:27.000Z</time>
      </trkpt>
      <trkpt lat="39.849152527749538421630859375" lon="-0.91847218573093414306640625">
        <ele>935</ele>
        <time>2020-08-22T17:08:35.000Z</time>
      </trkpt>
      <trkpt lat="39.84870434738695621490478515625" lon="-0.918624401092529296875">
        <ele>935.5999755859375</ele>
        <time>2020-08-22T17:08:42.000Z</time>
      </trkpt>
      <trkpt lat="39.84815030358731746673583984375" lon="-0.91883822344243526458740234375">
        <ele>935.5999755859375</ele>
        <time>2020-08-22T17:08:50.000Z</time>
      </trkpt>
      <trkpt lat="39.8475423641502857208251953125" lon="-0.9190208651125431060791015625">
        <ele>934.4000244140625</ele>
        <time>2020-08-22T17:08:57.000Z</time>
      </trkpt>
      <trkpt lat="39.846987314522266387939453125" lon="-0.9192562289535999298095703125">
        <ele>933.20001220703125</ele>
        <time>2020-08-22T17:09:03.000Z</time>
      </trkpt>
      <trkpt lat="39.8465355299413204193115234375" lon="-0.91936091892421245574951171875">
        <ele>931.4000244140625</ele>
        <time>2020-08-22T17:09:08.000Z</time>
      </trkpt>
      <trkpt lat="39.84635825268924236297607421875" lon="-0.9194062650203704833984375">
        <ele>930</ele>
        <time>2020-08-22T17:09:10.000Z</time>
      </trkpt>
      <trkpt lat="39.84627611003816127777099609375" lon="-0.9194486774504184722900390625">
        <ele>929</ele>
        <time>2020-08-22T17:09:11.000Z</time>
      </trkpt>
      <trkpt lat="39.84612590633332729339599609375" lon="-0.9195459075272083282470703125">
        <ele>927.5999755859375</ele>
        <time>2020-08-22T17:09:13.000Z</time>
      </trkpt>
      <trkpt lat="39.84598894603550434112548828125" lon="-0.91962964273989200592041015625">
        <ele>927</ele>
        <time>2020-08-22T17:09:15.000Z</time>
      </trkpt>
      <trkpt lat="39.84588534571230411529541015625" lon="-0.91974556446075439453125">
        <ele>926.4000244140625</ele>
        <time>2020-08-22T17:09:17.000Z</time>
      </trkpt>
      <trkpt lat="39.8457379080355167388916015625" lon="-0.919922254979610443115234375">
        <ele>926.5999755859375</ele>
        <time>2020-08-22T17:09:20.000Z</time>
      </trkpt>
      <trkpt lat="39.84563858248293399810791015625" lon="-0.919986627995967864990234375">
        <ele>926.5999755859375</ele>
        <time>2020-08-22T17:09:22.000Z</time>
      </trkpt>
      <trkpt lat="39.8455213196575641632080078125" lon="-0.919996015727519989013671875">
        <ele>926.5999755859375</ele>
        <time>2020-08-22T17:09:24.000Z</time>
      </trkpt>
      <trkpt lat="39.8449104465544223785400390625" lon="-0.9198627434670925140380859375">
        <ele>927.4000244140625</ele>
        <time>2020-08-22T17:09:32.000Z</time>
      </trkpt>
      <trkpt lat="39.8443615995347499847412109375" lon="-0.91980499215424060821533203125">
        <ele>926.5999755859375</ele>
        <time>2020-08-22T17:09:38.000Z</time>
      </trkpt>
      <trkpt lat="39.844076447188854217529296875" lon="-0.91974782757461071014404296875">
        <ele>925.79998779296875</ele>
        <time>2020-08-22T17:09:41.000Z</time>
      </trkpt>
      <trkpt lat="39.84398583881556987762451171875" lon="-0.9197101928293704986572265625">
        <ele>924.5999755859375</ele>
        <time>2020-08-22T17:09:42.000Z</time>
      </trkpt>
      <trkpt lat="39.84381367452442646026611328125" lon="-0.91962285339832305908203125">
        <ele>923.4000244140625</ele>
        <time>2020-08-22T17:09:44.000Z</time>
      </trkpt>
      <trkpt lat="39.843641929328441619873046875" lon="-0.91953702270984649658203125">
        <ele>921.5999755859375</ele>
        <time>2020-08-22T17:09:46.000Z</time>
      </trkpt>
      <trkpt lat="39.843554757535457611083984375" lon="-0.9194934368133544921875">
        <ele>920.4000244140625</ele>
        <time>2020-08-22T17:09:47.000Z</time>
      </trkpt>
      <trkpt lat="39.84346783719956874847412109375" lon="-0.91944540850818157196044921875">
        <ele>919.20001220703125</ele>
        <time>2020-08-22T17:09:48.000Z</time>
      </trkpt>
      <trkpt lat="39.84330791048705577850341796875" lon="-0.9193269722163677215576171875">
        <ele>918.4000244140625</ele>
        <time>2020-08-22T17:09:50.000Z</time>
      </trkpt>
      <trkpt lat="39.84324202872812747955322265625" lon="-0.919249691069126129150390625">
        <ele>918.20001220703125</ele>
        <time>2020-08-22T17:09:51.000Z</time>
      </trkpt>
      <trkpt lat="39.843184612691402435302734375" lon="-0.9191650338470935821533203125">
        <ele>917.5999755859375</ele>
        <time>2020-08-22T17:09:52.000Z</time>
      </trkpt>
      <trkpt lat="39.8431291244924068450927734375" lon="-0.91896168887615203857421875">
        <ele>917</ele>
        <time>2020-08-22T17:09:54.000Z</time>
      </trkpt>
      <trkpt lat="39.8431217484176158905029296875" lon="-0.9187571704387664794921875">
        <ele>917</ele>
        <time>2020-08-22T17:09:56.000Z</time>
      </trkpt>
      <trkpt lat="39.84317086637020111083984375" lon="-0.9181421063840389251708984375">
        <ele>916.4000244140625</ele>
        <time>2020-08-22T17:10:02.000Z</time>
      </trkpt>
      <trkpt lat="39.84310917556285858154296875" lon="-0.91796097345650196075439453125">
        <ele>916.4000244140625</ele>
        <time>2020-08-22T17:10:04.000Z</time>
      </trkpt>
      <trkpt lat="39.84300649724900722503662109375" lon="-0.91782283969223499298095703125">
        <ele>916.79998779296875</ele>
        <time>2020-08-22T17:10:06.000Z</time>
      </trkpt>
      <trkpt lat="39.84267088584601879119873046875" lon="-0.917625613510608673095703125">
        <ele>918.20001220703125</ele>
        <time>2020-08-22T17:10:13.000Z</time>
      </trkpt>
      <trkpt lat="39.8425487615168094635009765625" lon="-0.9175711311399936676025390625">
        <ele>919.5999755859375</ele>
        <time>2020-08-22T17:10:16.000Z</time>
      </trkpt>
      <trkpt lat="39.8424726538360118865966796875" lon="-0.91753617860376834869384765625">
        <ele>920.5999755859375</ele>
        <time>2020-08-22T17:10:18.000Z</time>
      </trkpt>
      <trkpt lat="39.8422346077859401702880859375" lon="-0.91743961907923221588134765625">
        <ele>922</ele>
        <time>2020-08-22T17:10:24.000Z</time>
      </trkpt>
      <trkpt lat="39.841962866485118865966796875" lon="-0.91742671094834804534912109375">
        <ele>923.4000244140625</ele>
        <time>2020-08-22T17:10:31.000Z</time>
      </trkpt>
      <trkpt lat="39.8418517224490642547607421875" lon="-0.917474068701267242431640625">
        <ele>924.5999755859375</ele>
        <time>2020-08-22T17:10:34.000Z</time>
      </trkpt>
      <trkpt lat="39.84171937219798564910888671875" lon="-0.91755528934299945831298828125">
        <ele>926</ele>
        <time>2020-08-22T17:10:38.000Z</time>
      </trkpt>
      <trkpt lat="39.84159347601234912872314453125" lon="-0.91760356910526752471923828125">
        <ele>927.4000244140625</ele>
        <time>2020-08-22T17:10:42.000Z</time>
      </trkpt>
      <trkpt lat="39.84146506525576114654541015625" lon="-0.9176629967987537384033203125">
        <ele>928.5999755859375</ele>
        <time>2020-08-22T17:10:46.000Z</time>
      </trkpt>
      <trkpt lat="39.84134051017463207244873046875" lon="-0.91771370731294155120849609375">
        <ele>930</ele>
        <time>2020-08-22T17:10:50.000Z</time>
      </trkpt>
      <trkpt lat="39.841186702251434326171875" lon="-0.91772208921611309051513671875">
        <ele>931</ele>
        <time>2020-08-22T17:10:55.000Z</time>
      </trkpt>
      <trkpt lat="39.84103557653725147247314453125" lon="-0.9176851250231266021728515625">
        <ele>932</ele>
        <time>2020-08-22T17:11:00.000Z</time>
      </trkpt>
      <trkpt lat="39.8406933434307575225830078125" lon="-0.91755059547722339630126953125">
        <ele>933.20001220703125</ele>
        <time>2020-08-22T17:11:09.000Z</time>
      </trkpt>
      <trkpt lat="39.84018062241375446319580078125" lon="-0.91724448837339878082275390625">
        <ele>933.79998779296875</ele>
        <time>2020-08-22T17:11:21.000Z</time>
      </trkpt>
      <trkpt lat="39.83968324027955532073974609375" lon="-0.9169297479093074798583984375">
        <ele>933.79998779296875</ele>
        <time>2020-08-22T17:11:32.000Z</time>
      </trkpt>
      <trkpt lat="39.83940479345619678497314453125" lon="-0.91675691306591033935546875">
        <ele>934.20001220703125</ele>
        <time>2020-08-22T17:11:38.000Z</time>
      </trkpt>
      <trkpt lat="39.8390729539096355438232421875" lon="-0.9165401570498943328857421875">
        <ele>935.20001220703125</ele>
        <time>2020-08-22T17:11:46.000Z</time>
      </trkpt>
      <trkpt lat="39.83887304551899433135986328125" lon="-0.9164083935320377349853515625">
        <ele>936.4000244140625</ele>
        <time>2020-08-22T17:11:51.000Z</time>
      </trkpt>
      <trkpt lat="39.8385412059724330902099609375" lon="-0.9161924757063388824462890625">
        <ele>937.4000244140625</ele>
        <time>2020-08-22T17:11:59.000Z</time>
      </trkpt>
      <trkpt lat="39.83821640722453594207763671875" lon="-0.9159487299621105194091796875">
        <ele>938.5999755859375</ele>
        <time>2020-08-22T17:12:07.000Z</time>
      </trkpt>
      <trkpt lat="39.837713576853275299072265625" lon="-0.915602557361125946044921875">
        <ele>939.5999755859375</ele>
        <time>2020-08-22T17:12:19.000Z</time>
      </trkpt>
      <trkpt lat="39.83719649724662303924560546875" lon="-0.91521673835813999176025390625">
        <ele>940.5999755859375</ele>
        <time>2020-08-22T17:12:30.000Z</time>
      </trkpt>
      <trkpt lat="39.83668126165866851806640625" lon="-0.91483619995415210723876953125">
        <ele>938.4000244140625</ele>
        <time>2020-08-22T17:12:38.000Z</time>
      </trkpt>
      <trkpt lat="39.83654673211276531219482421875" lon="-0.914739556610584259033203125">
        <ele>937.20001220703125</ele>
        <time>2020-08-22T17:12:40.000Z</time>
      </trkpt>
      <trkpt lat="39.8364152200520038604736328125" lon="-0.91464425437152385711669921875">
        <ele>936</ele>
        <time>2020-08-22T17:12:42.000Z</time>
      </trkpt>
      <trkpt lat="39.83591691590845584869384765625" lon="-0.91429757885634899139404296875">
        <ele>935.20001220703125</ele>
        <time>2020-08-22T17:12:51.000Z</time>
      </trkpt>
      <trkpt lat="39.835436046123504638671875" lon="-0.91396548785269260406494140625">
        <ele>936.79998779296875</ele>
        <time>2020-08-22T17:13:03.000Z</time>
      </trkpt>
      <trkpt lat="39.83521417714655399322509765625" lon="-0.913808830082416534423828125">
        <ele>937</ele>
        <time>2020-08-22T17:13:08.000Z</time>
      </trkpt>
      <trkpt lat="39.83478418551385402679443359375" lon="-0.91349895112216472625732421875">
        <ele>938.4000244140625</ele>
        <time>2020-08-22T17:13:17.000Z</time>
      </trkpt>
      <trkpt lat="39.83427842147648334503173828125" lon="-0.91313266195356845855712890625">
        <ele>938</ele>
        <time>2020-08-22T17:13:26.000Z</time>
      </trkpt>
      <trkpt lat="39.833955466747283935546875" lon="-0.91290836222469806671142578125">
        <ele>937.20001220703125</ele>
        <time>2020-08-22T17:13:31.000Z</time>
      </trkpt>
      <trkpt lat="39.8336076177656650543212890625" lon="-0.9126631915569305419921875">
        <ele>935.79998779296875</ele>
        <time>2020-08-22T17:13:36.000Z</time>
      </trkpt>
      <trkpt lat="39.8332277499139308929443359375" lon="-0.9124005027115345001220703125">
        <ele>934.79998779296875</ele>
        <time>2020-08-22T17:13:41.000Z</time>
      </trkpt>
      <trkpt lat="39.83280488289892673492431640625" lon="-0.91210587881505489349365234375">
        <ele>933.5999755859375</ele>
        <time>2020-08-22T17:13:46.000Z</time>
      </trkpt>
      <trkpt lat="39.832538925111293792724609375" lon="-0.91192851774394512176513671875">
        <ele>932.4000244140625</ele>
        <time>2020-08-22T17:13:49.000Z</time>
      </trkpt>
      <trkpt lat="39.83236424624919891357421875" lon="-0.9118060581386089324951171875">
        <ele>931.4000244140625</ele>
        <time>2020-08-22T17:13:51.000Z</time>
      </trkpt>
      <trkpt lat="39.832196272909641265869140625" lon="-0.9116883762180805206298828125">
        <ele>929.20001220703125</ele>
        <time>2020-08-22T17:13:53.000Z</time>
      </trkpt>
      <trkpt lat="39.83211471699178218841552734375" lon="-0.91162987053394317626953125">
        <ele>928.20001220703125</ele>
        <time>2020-08-22T17:13:54.000Z</time>
      </trkpt>
      <trkpt lat="39.8319550417363643646240234375" lon="-0.91151495464146137237548828125">
        <ele>926.79998779296875</ele>
        <time>2020-08-22T17:13:56.000Z</time>
      </trkpt>
      <trkpt lat="39.83171355910599231719970703125" lon="-0.911345891654491424560546875">
        <ele>925.4000244140625</ele>
        <time>2020-08-22T17:13:59.000Z</time>
      </trkpt>
      <trkpt lat="39.831548519432544708251953125" lon="-0.91123332269489765167236328125">
        <ele>924.4000244140625</ele>
        <time>2020-08-22T17:14:01.000Z</time>
      </trkpt>
      <trkpt lat="39.83129379339516162872314453125" lon="-0.911051519215106964111328125">
        <ele>922.79998779296875</ele>
        <time>2020-08-22T17:14:04.000Z</time>
      </trkpt>
      <trkpt lat="39.8311202041804790496826171875" lon="-0.9109331667423248291015625">
        <ele>921.4000244140625</ele>
        <time>2020-08-22T17:14:06.000Z</time>
      </trkpt>
      <trkpt lat="39.83095072209835052490234375" lon="-0.91080618090927600860595703125">
        <ele>920</ele>
        <time>2020-08-22T17:14:08.000Z</time>
      </trkpt>
      <trkpt lat="39.830723069608211517333984375" lon="-0.910583473742008209228515625">
        <ele>919</ele>
        <time>2020-08-22T17:14:11.000Z</time>
      </trkpt>
      <trkpt lat="39.83065945096313953399658203125" lon="-0.9104937873780727386474609375">
        <ele>918.79998779296875</ele>
        <time>2020-08-22T17:14:12.000Z</time>
      </trkpt>
      <trkpt lat="39.83060538768768310546875" lon="-0.91039739549160003662109375">
        <ele>918.4000244140625</ele>
        <time>2020-08-22T17:14:13.000Z</time>
      </trkpt>
      <trkpt lat="39.830556102097034454345703125" lon="-0.910296477377414703369140625">
        <ele>917.5999755859375</ele>
        <time>2020-08-22T17:14:14.000Z</time>
      </trkpt>
      <trkpt lat="39.83042609877884387969970703125" lon="-0.9099868498742580413818359375">
        <ele>916</ele>
        <time>2020-08-22T17:14:17.000Z</time>
      </trkpt>
      <trkpt lat="39.830305315554141998291015625" lon="-0.90971477329730987548828125">
        <ele>915</ele>
        <time>2020-08-22T17:14:20.000Z</time>
      </trkpt>
      <trkpt lat="39.83002007938921451568603515625" lon="-0.90906643308699131011962890625">
        <ele>914.4000244140625</ele>
        <time>2020-08-22T17:14:28.000Z</time>
      </trkpt>
      <trkpt lat="39.82993693090975284576416015625" lon="-0.908908434212207794189453125">
        <ele>914.20001220703125</ele>
        <time>2020-08-22T17:14:30.000Z</time>
      </trkpt>
      <trkpt lat="39.82982662506401538848876953125" lon="-0.90877063572406768798828125">
        <ele>913.79998779296875</ele>
        <time>2020-08-22T17:14:32.000Z</time>
      </trkpt>
      <trkpt lat="39.82933460734784603118896484375" lon="-0.90844097547233104705810546875">
        <ele>914.20001220703125</ele>
        <time>2020-08-22T17:14:40.000Z</time>
      </trkpt>
      <trkpt lat="39.82897837646305561065673828125" lon="-0.9083423204720020294189453125">
        <ele>915.20001220703125</ele>
        <time>2020-08-22T17:14:47.000Z</time>
      </trkpt>
      <trkpt lat="39.828887768089771270751953125" lon="-0.90831155888736248016357421875">
        <ele>916.4000244140625</ele>
        <time>2020-08-22T17:14:49.000Z</time>
      </trkpt>
      <trkpt lat="39.82871334068477153778076171875" lon="-0.90822757221758365631103515625">
        <ele>917.4000244140625</ele>
        <time>2020-08-22T17:14:53.000Z</time>
      </trkpt>
      <trkpt lat="39.82863304205238819122314453125" lon="-0.90817795135080814361572265625">
        <ele>918</ele>
        <time>2020-08-22T17:14:55.000Z</time>
      </trkpt>
      <trkpt lat="39.8285241611301898956298828125" lon="-0.90810142457485198974609375">
        <ele>918.4000244140625</ele>
        <time>2020-08-22T17:14:58.000Z</time>
      </trkpt>
      <trkpt lat="39.82837135903537273406982421875" lon="-0.907941162586212158203125">
        <ele>919.5999755859375</ele>
        <time>2020-08-22T17:15:03.000Z</time>
      </trkpt>
      <trkpt lat="39.8282249271869659423828125" lon="-0.90779364109039306640625">
        <ele>920.79998779296875</ele>
        <time>2020-08-22T17:15:08.000Z</time>
      </trkpt>
      <trkpt lat="39.8280561156570911407470703125" lon="-0.9075705148279666900634765625">
        <ele>921.79998779296875</ele>
        <time>2020-08-22T17:15:15.000Z</time>
      </trkpt>
      <trkpt lat="39.8279277049005031585693359375" lon="-0.90739239938557147979736328125">
        <ele>922.79998779296875</ele>
        <time>2020-08-22T17:15:21.000Z</time>
      </trkpt>
      <trkpt lat="39.8277872242033481597900390625" lon="-0.90712107717990875244140625">
        <ele>924</ele>
        <time>2020-08-22T17:15:29.000Z</time>
      </trkpt>
      <trkpt lat="39.82770198024809360504150390625" lon="-0.9068456478416919708251953125">
        <ele>925</ele>
        <time>2020-08-22T17:15:36.000Z</time>
      </trkpt>
      <trkpt lat="39.82762117870151996612548828125" lon="-0.90644180774688720703125">
        <ele>926.20001220703125</ele>
        <time>2020-08-22T17:15:45.000Z</time>
      </trkpt>
      <trkpt lat="39.827526547014713287353515625" lon="-0.9059065394103527069091796875">
        <ele>927.20001220703125</ele>
        <time>2020-08-22T17:15:57.000Z</time>
      </trkpt>
      <trkpt lat="39.8275101184844970703125" lon="-0.9057060442864894866943359375">
        <ele>928.4000244140625</ele>
        <time>2020-08-22T17:16:02.000Z</time>
      </trkpt>
      <trkpt lat="39.82751757837831974029541015625" lon="-0.9055043756961822509765625">
        <ele>929.4000244140625</ele>
        <time>2020-08-22T17:16:07.000Z</time>
      </trkpt>
      <trkpt lat="39.82758714817464351654052734375" lon="-0.9051370806992053985595703125">
        <ele>930.5999755859375</ele>
        <time>2020-08-22T17:16:16.000Z</time>
      </trkpt>
      <trkpt lat="39.8276293091475963592529296875" lon="-0.90501512400805950164794921875">
        <ele>931.5999755859375</ele>
        <time>2020-08-22T17:16:19.000Z</time>
      </trkpt>
      <trkpt lat="39.82778211124241352081298828125" lon="-0.904626287519931793212890625">
        <ele>932.79998779296875</ele>
        <time>2020-08-22T17:16:29.000Z</time>
      </trkpt>
      <trkpt lat="39.82788789086043834686279296875" lon="-0.9044279716908931732177734375">
        <ele>934</ele>
        <time>2020-08-22T17:16:35.000Z</time>
      </trkpt>
      <trkpt lat="39.82805703766644001007080078125" lon="-0.90421062894165515899658203125">
        <ele>935.20001220703125</ele>
        <time>2020-08-22T17:16:42.000Z</time>
      </trkpt>
      <trkpt lat="39.8282814212143421173095703125" lon="-0.90396923013031482696533203125">
        <ele>935.4000244140625</ele>
        <time>2020-08-22T17:16:49.000Z</time>
      </trkpt>
      <trkpt lat="39.82835090719163417816162109375" lon="-0.90382992289960384368896484375">
        <ele>935.4000244140625</ele>
        <time>2020-08-22T17:16:52.000Z</time>
      </trkpt>
      <trkpt lat="39.828374125063419342041015625" lon="-0.90370670892298221588134765625">
        <ele>935.4000244140625</ele>
        <time>2020-08-22T17:16:54.000Z</time>
      </trkpt>
      <trkpt lat="39.828345961868762969970703125" lon="-0.90356371365487575531005859375">
        <ele>935.20001220703125</ele>
        <time>2020-08-22T17:16:56.000Z</time>
      </trkpt>
      <trkpt lat="39.828259460628032684326171875" lon="-0.90345961041748523712158203125">
        <ele>935.20001220703125</ele>
        <time>2020-08-22T17:16:58.000Z</time>
      </trkpt>
      <trkpt lat="39.828156195580959320068359375" lon="-0.90343245305120944976806640625">
        <ele>935.20001220703125</ele>
        <time>2020-08-22T17:17:00.000Z</time>
      </trkpt>
      <trkpt lat="39.82806139625608921051025390625" lon="-0.90344955213367938995361328125">
        <ele>935.20001220703125</ele>
        <time>2020-08-22T17:17:02.000Z</time>
      </trkpt>
      <trkpt lat="39.8276953585445880889892578125" lon="-0.9035894460976123809814453125">
        <ele>936.20001220703125</ele>
        <time>2020-08-22T17:17:11.000Z</time>
      </trkpt>
      <trkpt lat="39.82743979431688785552978515625" lon="-0.9036095626652240753173828125">
        <ele>937.20001220703125</ele>
        <time>2020-08-22T17:17:17.000Z</time>
      </trkpt>
      <trkpt lat="39.82692229561507701873779296875" lon="-0.90343429706990718841552734375">
        <ele>937.79998779296875</ele>
        <time>2020-08-22T17:17:31.000Z</time>
      </trkpt>
      <trkpt lat="39.826845265924930572509765625" lon="-0.90335064567625522613525390625">
        <ele>938.20001220703125</ele>
        <time>2020-08-22T17:17:34.000Z</time>
      </trkpt>
      <trkpt lat="39.82674962840974330902099609375" lon="-0.9032357297837734222412109375">
        <ele>939.5999755859375</ele>
        <time>2020-08-22T17:17:38.000Z</time>
      </trkpt>
      <trkpt lat="39.82670185156166553497314453125" lon="-0.9031713567674160003662109375">
        <ele>941</ele>
        <time>2020-08-22T17:17:40.000Z</time>
      </trkpt>
      <trkpt lat="39.8266271688044071197509765625" lon="-0.903081335127353668212890625">
        <ele>942</ele>
        <time>2020-08-22T17:17:43.000Z</time>
      </trkpt>
      <trkpt lat="39.8264032043516635894775390625" lon="-0.902936495840549468994140625">
        <ele>943.20001220703125</ele>
        <time>2020-08-22T17:17:50.000Z</time>
      </trkpt>
      <trkpt lat="39.82614688575267791748046875" lon="-0.90297262184321880340576171875">
        <ele>944.5999755859375</ele>
        <time>2020-08-22T17:17:58.000Z</time>
      </trkpt>
      <trkpt lat="39.82594865374267101287841796875" lon="-0.90302023105323314666748046875">
        <ele>945.5999755859375</ele>
        <time>2020-08-22T17:18:04.000Z</time>
      </trkpt>
      <trkpt lat="39.82575394213199615478515625" lon="-0.90313942171633243560791015625">
        <ele>947</ele>
        <time>2020-08-22T17:18:10.000Z</time>
      </trkpt>
      <trkpt lat="39.8255485855042934417724609375" lon="-0.90328811667859554290771484375">
        <ele>948</ele>
        <time>2020-08-22T17:18:17.000Z</time>
      </trkpt>
      <trkpt lat="39.82541439123451709747314453125" lon="-0.90336506254971027374267578125">
        <ele>949</ele>
        <time>2020-08-22T17:18:21.000Z</time>
      </trkpt>
      <trkpt lat="39.8252610862255096435546875" lon="-0.9034658968448638916015625">
        <ele>950.20001220703125</ele>
        <time>2020-08-22T17:18:26.000Z</time>
      </trkpt>
      <trkpt lat="39.8251435719430446624755859375" lon="-0.90352691709995269775390625">
        <ele>951.4000244140625</ele>
        <time>2020-08-22T17:18:30.000Z</time>
      </trkpt>
      <trkpt lat="39.82498825527727603912353515625" lon="-0.90359942056238651275634765625">
        <ele>952.5999755859375</ele>
        <time>2020-08-22T17:18:35.000Z</time>
      </trkpt>
      <trkpt lat="39.82484006322920322418212890625" lon="-0.90364870615303516387939453125">
        <ele>953.5999755859375</ele>
        <time>2020-08-22T17:18:40.000Z</time>
      </trkpt>
      <trkpt lat="39.824664629995822906494140625" lon="-0.90371928177773952484130859375">
        <ele>954.79998779296875</ele>
        <time>2020-08-22T17:18:46.000Z</time>
      </trkpt>
      <trkpt lat="39.82441476546227931976318359375" lon="-0.90380854904651641845703125">
        <ele>956</ele>
        <time>2020-08-22T17:18:55.000Z</time>
      </trkpt>
      <trkpt lat="39.82425861060619354248046875" lon="-0.90386730618774890899658203125">
        <ele>957.20001220703125</ele>
        <time>2020-08-22T17:19:01.000Z</time>
      </trkpt>
      <trkpt lat="39.8241524957120418548583984375" lon="-0.9039196930825710296630859375">
        <ele>958.5999755859375</ele>
        <time>2020-08-22T17:19:05.000Z</time>
      </trkpt>
      <trkpt lat="39.824004471302032470703125" lon="-0.90398691594600677490234375">
        <ele>959.5999755859375</ele>
        <time>2020-08-22T17:19:11.000Z</time>
      </trkpt>
      <trkpt lat="39.82387312687933444976806640625" lon="-0.90406763367354869842529296875">
        <ele>960.79998779296875</ele>
        <time>2020-08-22T17:19:16.000Z</time>
      </trkpt>
      <trkpt lat="39.823723174631595611572265625" lon="-0.904175341129302978515625">
        <ele>961.79998779296875</ele>
        <time>2020-08-22T17:19:22.000Z</time>
      </trkpt>
      <trkpt lat="39.823564589023590087890625" lon="-0.90433292090892791748046875">
        <ele>962.79998779296875</ele>
        <time>2020-08-22T17:19:29.000Z</time>
      </trkpt>
      <trkpt lat="39.82331941835582256317138671875" lon="-0.904589407145977020263671875">
        <ele>964</ele>
        <time>2020-08-22T17:19:38.000Z</time>
      </trkpt>
      <trkpt lat="39.82318396680057048797607421875" lon="-0.90472259558737277984619140625">
        <ele>965</ele>
        <time>2020-08-22T17:19:43.000Z</time>
      </trkpt>
      <trkpt lat="39.82300811447203159332275390625" lon="-0.904888473451137542724609375">
        <ele>966.20001220703125</ele>
        <time>2020-08-22T17:19:50.000Z</time>
      </trkpt>
      <trkpt lat="39.822876937687397003173828125" lon="-0.90499098412692546844482421875">
        <ele>967.20001220703125</ele>
        <time>2020-08-22T17:19:55.000Z</time>
      </trkpt>
      <trkpt lat="39.82273838482797145843505859375" lon="-0.905057452619075775146484375">
        <ele>968.4000244140625</ele>
        <time>2020-08-22T17:20:00.000Z</time>
      </trkpt>
      <trkpt lat="39.8225314356386661529541015625" lon="-0.9050549380481243133544921875">
        <ele>969.4000244140625</ele>
        <time>2020-08-22T17:20:07.000Z</time>
      </trkpt>
      <trkpt lat="39.82231241650879383087158203125" lon="-0.90485729277133941650390625">
        <ele>970.4000244140625</ele>
        <time>2020-08-22T17:20:16.000Z</time>
      </trkpt>
      <trkpt lat="39.82224402017891407012939453125" lon="-0.9047028981149196624755859375">
        <ele>971.4000244140625</ele>
        <time>2020-08-22T17:20:20.000Z</time>
      </trkpt>
      <trkpt lat="39.82223027385771274566650390625" lon="-0.90465486980974674224853515625">
        <ele>971.79998779296875</ele>
        <time>2020-08-22T17:20:21.000Z</time>
      </trkpt>
      <trkpt lat="39.82220403850078582763671875" lon="-0.90454070828855037689208984375">
        <ele>972.20001220703125</ele>
        <time>2020-08-22T17:20:23.000Z</time>
      </trkpt>
      <trkpt lat="39.822095744311809539794921875" lon="-0.904044248163700103759765625">
        <ele>972.20001220703125</ele>
        <time>2020-08-22T17:20:30.000Z</time>
      </trkpt>
      <trkpt lat="39.82199750840663909912109375" lon="-0.90382539667189121246337890625">
        <ele>970.79998779296875</ele>
        <time>2020-08-22T17:20:33.000Z</time>
      </trkpt>
      <trkpt lat="39.82195098884403705596923828125" lon="-0.903758592903614044189453125">
        <ele>970.20001220703125</ele>
        <time>2020-08-22T17:20:34.000Z</time>
      </trkpt>
      <trkpt lat="39.82189047150313854217529296875" lon="-0.9037101455032825469970703125">
        <ele>969.79998779296875</ele>
        <time>2020-08-22T17:20:35.000Z</time>
      </trkpt>
      <trkpt lat="39.8217311315238475799560546875" lon="-0.9036906994879245758056640625">
        <ele>969.20001220703125</ele>
        <time>2020-08-22T17:20:37.000Z</time>
      </trkpt>
      <trkpt lat="39.82156609185039997100830078125" lon="-0.90375130064785480499267578125">
        <ele>968.20001220703125</ele>
        <time>2020-08-22T17:20:39.000Z</time>
      </trkpt>
      <trkpt lat="39.82148227281868457794189453125" lon="-0.9037906117737293243408203125">
        <ele>968</ele>
        <time>2020-08-22T17:20:40.000Z</time>
      </trkpt>
      <trkpt lat="39.82115202583372592926025390625" lon="-0.9039025940001010894775390625">
        <ele>966.79998779296875</ele>
        <time>2020-08-22T17:20:44.000Z</time>
      </trkpt>
      <trkpt lat="39.82107256539165973663330078125" lon="-0.9039133228361606597900390625">
        <ele>966</ele>
        <time>2020-08-22T17:20:45.000Z</time>
      </trkpt>
      <trkpt lat="39.82099193148314952850341796875" lon="-0.90391022153198719024658203125">
        <ele>965.5999755859375</ele>
        <time>2020-08-22T17:20:46.000Z</time>
      </trkpt>
      <trkpt lat="39.82091414742171764373779296875" lon="-0.90389597229659557342529296875">
        <ele>965.20001220703125</ele>
        <time>2020-08-22T17:20:47.000Z</time>
      </trkpt>
      <trkpt lat="39.82076662592589855194091796875" lon="-0.9038199484348297119140625">
        <ele>964.4000244140625</ele>
        <time>2020-08-22T17:20:49.000Z</time>
      </trkpt>
      <trkpt lat="39.82058926485478878021240234375" lon="-0.90362909249961376190185546875">
        <ele>963.20001220703125</ele>
        <time>2020-08-22T17:20:52.000Z</time>
      </trkpt>
      <trkpt lat="39.8205368779599666595458984375" lon="-0.90355466119945049285888671875">
        <ele>963</ele>
        <time>2020-08-22T17:20:53.000Z</time>
      </trkpt>
      <trkpt lat="39.82044643722474575042724609375" lon="-0.90338584966957569122314453125">
        <ele>962.20001220703125</ele>
        <time>2020-08-22T17:20:55.000Z</time>
      </trkpt>
      <trkpt lat="39.82033579610288143157958984375" lon="-0.90310807339847087860107421875">
        <ele>961</ele>
        <time>2020-08-22T17:20:58.000Z</time>
      </trkpt>
      <trkpt lat="39.82021543197333812713623046875" lon="-0.90272116474807262420654296875">
        <ele>959.79998779296875</ele>
        <time>2020-08-22T17:21:02.000Z</time>
      </trkpt>
      <trkpt lat="39.82011753134429454803466796875" lon="-0.9025646746158599853515625">
        <ele>959.20001220703125</ele>
        <time>2020-08-22T17:21:04.000Z</time>
      </trkpt>
      <trkpt lat="39.81997587718069553375244140625" lon="-0.90251815505325794219970703125">
        <ele>958.79998779296875</ele>
        <time>2020-08-22T17:21:06.000Z</time>
      </trkpt>
      <trkpt lat="39.81990949250757694244384765625" lon="-0.9025517664849758148193359375">
        <ele>958.5999755859375</ele>
        <time>2020-08-22T17:21:07.000Z</time>
      </trkpt>
      <trkpt lat="39.8198495618999004364013671875" lon="-0.9026067517697811126708984375">
        <ele>958.5999755859375</ele>
        <time>2020-08-22T17:21:08.000Z</time>
      </trkpt>
      <trkpt lat="39.81947086751461029052734375" lon="-0.9031643159687519073486328125">
        <ele>958</ele>
        <time>2020-08-22T17:21:16.000Z</time>
      </trkpt>
      <trkpt lat="39.81904431246221065521240234375" lon="-0.90358793735504150390625">
        <ele>958.20001220703125</ele>
        <time>2020-08-22T17:21:24.000Z</time>
      </trkpt>
      <trkpt lat="39.81853653676807880401611328125" lon="-0.903934948146343231201171875">
        <ele>959.5999755859375</ele>
        <time>2020-08-22T17:21:33.000Z</time>
      </trkpt>
      <trkpt lat="39.81848591007292270660400390625" lon="-0.90397107414901256561279296875">
        <ele>959.79998779296875</ele>
        <time>2020-08-22T17:21:34.000Z</time>
      </trkpt>
      <trkpt lat="39.81798266060650348663330078125" lon="-0.90435764752328395843505859375">
        <ele>960.79998779296875</ele>
        <time>2020-08-22T17:21:44.000Z</time>
      </trkpt>
      <trkpt lat="39.81747874058783054351806640625" lon="-0.9047412872314453125">
        <ele>960.79998779296875</ele>
        <time>2020-08-22T17:21:54.000Z</time>
      </trkpt>
      <trkpt lat="39.8174328915774822235107421875" lon="-0.90477389283478260040283203125">
        <ele>960.79998779296875</ele>
        <time>2020-08-22T17:21:55.000Z</time>
      </trkpt>
      <trkpt lat="39.81729132123291492462158203125" lon="-0.904850922524929046630859375">
        <ele>960.79998779296875</ele>
        <time>2020-08-22T17:21:58.000Z</time>
      </trkpt>
      <trkpt lat="39.8171945102512836456298828125" lon="-0.90487497858703136444091796875">
        <ele>961</ele>
        <time>2020-08-22T17:22:00.000Z</time>
      </trkpt>
      <trkpt lat="39.8170992918312549591064453125" lon="-0.9048712067306041717529296875">
        <ele>961.20001220703125</ele>
        <time>2020-08-22T17:22:02.000Z</time>
      </trkpt>
      <trkpt lat="39.8169554583728313446044921875" lon="-0.90482778847217559814453125">
        <ele>961.20001220703125</ele>
        <time>2020-08-22T17:22:05.000Z</time>
      </trkpt>
      <trkpt lat="39.81685227714478969573974609375" lon="-0.9047748148441314697265625">
        <ele>961.4000244140625</ele>
        <time>2020-08-22T17:22:07.000Z</time>
      </trkpt>
      <trkpt lat="39.81675378978252410888671875" lon="-0.9046884812414646148681640625">
        <ele>961.5999755859375</ele>
        <time>2020-08-22T17:22:09.000Z</time>
      </trkpt>
      <trkpt lat="39.81666921637952327728271484375" lon="-0.90455763973295688629150390625">
        <ele>961.4000244140625</ele>
        <time>2020-08-22T17:22:11.000Z</time>
      </trkpt>
      <trkpt lat="39.81662772595882415771484375" lon="-0.90438790619373321533203125">
        <ele>961.5999755859375</ele>
        <time>2020-08-22T17:22:13.000Z</time>
      </trkpt>
      <trkpt lat="39.816593863070011138916015625" lon="-0.90365004725754261016845703125">
        <ele>961.4000244140625</ele>
        <time>2020-08-22T17:22:20.000Z</time>
      </trkpt>
      <trkpt lat="39.81662906706333160400390625" lon="-0.903214104473590850830078125">
        <ele>959.20001220703125</ele>
        <time>2020-08-22T17:22:24.000Z</time>
      </trkpt>
      <trkpt lat="39.81665161438286304473876953125" lon="-0.9031145274639129638671875">
        <ele>958.20001220703125</ele>
        <time>2020-08-22T17:22:25.000Z</time>
      </trkpt>
      <trkpt lat="39.81669369153678417205810546875" lon="-0.90292744338512420654296875">
        <ele>956.4000244140625</ele>
        <time>2020-08-22T17:22:27.000Z</time>
      </trkpt>
      <trkpt lat="39.81672671623528003692626953125" lon="-0.90274429880082607269287109375">
        <ele>955.20001220703125</ele>
        <time>2020-08-22T17:22:29.000Z</time>
      </trkpt>
      <trkpt lat="39.8167375288903713226318359375" lon="-0.902649499475955963134765625">
        <ele>954.79998779296875</ele>
        <time>2020-08-22T17:22:30.000Z</time>
      </trkpt>
      <trkpt lat="39.81672353111207485198974609375" lon="-0.902453027665615081787109375">
        <ele>954.5999755859375</ele>
        <time>2020-08-22T17:22:32.000Z</time>
      </trkpt>
      <trkpt lat="39.8166540451347827911376953125" lon="-0.902267955243587493896484375">
        <ele>954.4000244140625</ele>
        <time>2020-08-22T17:22:34.000Z</time>
      </trkpt>
      <trkpt lat="39.81653862632811069488525390625" lon="-0.90210576541721820831298828125">
        <ele>954.20001220703125</ele>
        <time>2020-08-22T17:22:36.000Z</time>
      </trkpt>
      <trkpt lat="39.8161132447421550750732421875" lon="-0.90154283680021762847900390625">
        <ele>953.4000244140625</ele>
        <time>2020-08-22T17:22:43.000Z</time>
      </trkpt>
      <trkpt lat="39.81603923253715038299560546875" lon="-0.9013454429805278778076171875">
        <ele>952.79998779296875</ele>
        <time>2020-08-22T17:22:45.000Z</time>
      </trkpt>
      <trkpt lat="39.8159831576049327850341796875" lon="-0.90089843608438968658447265625">
        <ele>951.5999755859375</ele>
        <time>2020-08-22T17:22:49.000Z</time>
      </trkpt>
      <trkpt lat="39.815991036593914031982421875" lon="-0.90066474862396717071533203125">
        <ele>950.4000244140625</ele>
        <time>2020-08-22T17:22:51.000Z</time>
      </trkpt>
      <trkpt lat="39.81602632440626621246337890625" lon="-0.90044011361896991729736328125">
        <ele>949.4000244140625</ele>
        <time>2020-08-22T17:22:53.000Z</time>
      </trkpt>
      <trkpt lat="39.81605716980993747711181640625" lon="-0.9003319032490253448486328125">
        <ele>949</ele>
        <time>2020-08-22T17:22:54.000Z</time>
      </trkpt>
      <trkpt lat="39.8161742649972438812255859375" lon="-0.89992764405906200408935546875">
        <ele>947.79998779296875</ele>
        <time>2020-08-22T17:22:58.000Z</time>
      </trkpt>
      <trkpt lat="39.816453047096729278564453125" lon="-0.89921467937529087066650390625">
        <ele>946.79998779296875</ele>
        <time>2020-08-22T17:23:06.000Z</time>
      </trkpt>
      <trkpt lat="39.816489256918430328369140625" lon="-0.89912398718297481536865234375">
        <ele>946.79998779296875</ele>
        <time>2020-08-22T17:23:07.000Z</time>
      </trkpt>
      <trkpt lat="39.81676359660923480987548828125" lon="-0.8984957635402679443359375">
        <ele>945.79998779296875</ele>
        <time>2020-08-22T17:23:14.000Z</time>
      </trkpt>
      <trkpt lat="39.81701538898050785064697265625" lon="-0.89780601672828197479248046875">
        <ele>945.5999755859375</ele>
        <time>2020-08-22T17:23:22.000Z</time>
      </trkpt>
      <trkpt lat="39.817055873572826385498046875" lon="-0.89754290878772735595703125">
        <ele>945.5999755859375</ele>
        <time>2020-08-22T17:23:25.000Z</time>
      </trkpt>
      <trkpt lat="39.81703952886164188385009765625" lon="-0.89736345224082469940185546875">
        <ele>945.79998779296875</ele>
        <time>2020-08-22T17:23:27.000Z</time>
      </trkpt>
      <trkpt lat="39.8169953562319278717041015625" lon="-0.8971893601119518280029296875">
        <ele>946</ele>
        <time>2020-08-22T17:23:29.000Z</time>
      </trkpt>
      <trkpt lat="39.816745407879352569580078125" lon="-0.8965654112398624420166015625">
        <ele>946.20001220703125</ele>
        <time>2020-08-22T17:23:37.000Z</time>
      </trkpt>
      <trkpt lat="39.81672604568302631378173828125" lon="-0.89640858583152294158935546875">
        <ele>946.20001220703125</ele>
        <time>2020-08-22T17:23:39.000Z</time>
      </trkpt>
      <trkpt lat="39.816750101745128631591796875" lon="-0.89609661139547824859619140625">
        <ele>946.20001220703125</ele>
        <time>2020-08-22T17:23:43.000Z</time>
      </trkpt>
      <trkpt lat="39.81681807897984981536865234375" lon="-0.8958747424185276031494140625">
        <ele>946.4000244140625</ele>
        <time>2020-08-22T17:23:46.000Z</time>
      </trkpt>
      <trkpt lat="39.81688748113811016082763671875" lon="-0.89574716985225677490234375">
        <ele>946.4000244140625</ele>
        <time>2020-08-22T17:23:48.000Z</time>
      </trkpt>
      <trkpt lat="39.817344211041927337646484375" lon="-0.8953245542943477630615234375">
        <ele>946.79998779296875</ele>
        <time>2020-08-22T17:23:57.000Z</time>
      </trkpt>
      <trkpt lat="39.81743481941521167755126953125" lon="-0.8952145837247371673583984375">
        <ele>947</ele>
        <time>2020-08-22T17:23:59.000Z</time>
      </trkpt>
      <trkpt lat="39.81747304089367389678955078125" lon="-0.8951532281935214996337890625">
        <ele>947</ele>
        <time>2020-08-22T17:24:00.000Z</time>
      </trkpt>
      <trkpt lat="39.8175328038632869720458984375" lon="-0.8950217999517917633056640625">
        <ele>947.20001220703125</ele>
        <time>2020-08-22T17:24:02.000Z</time>
      </trkpt>
      <trkpt lat="39.81756255961954593658447265625" lon="-0.8948772959411144256591796875">
        <ele>947.20001220703125</ele>
        <time>2020-08-22T17:24:04.000Z</time>
      </trkpt>
      <trkpt lat="39.81758183799684047698974609375" lon="-0.8946033753454685211181640625">
        <ele>947.20001220703125</ele>
        <time>2020-08-22T17:24:08.000Z</time>
      </trkpt>
      <trkpt lat="39.81753238476812839508056640625" lon="-0.89406165294349193572998046875">
        <ele>948</ele>
        <time>2020-08-22T17:24:17.000Z</time>
      </trkpt>
      <trkpt lat="39.817512519657611846923828125" lon="-0.8937920071184635162353515625">
        <ele>949</ele>
        <time>2020-08-22T17:24:22.000Z</time>
      </trkpt>
      <trkpt lat="39.817482344806194305419921875" lon="-0.8934815414249897003173828125">
        <ele>950.20001220703125</ele>
        <time>2020-08-22T17:24:28.000Z</time>
      </trkpt>
      <trkpt lat="39.817434065043926239013671875" lon="-0.893281884491443634033203125">
        <ele>951</ele>
        <time>2020-08-22T17:24:32.000Z</time>
      </trkpt>
      <trkpt lat="39.8173727095127105712890625" lon="-0.89314467273652553558349609375">
        <ele>951.4000244140625</ele>
        <time>2020-08-22T17:24:35.000Z</time>
      </trkpt>
      <trkpt lat="39.81721102260053157806396484375" lon="-0.89284946210682392120361328125">
        <ele>952.4000244140625</ele>
        <time>2020-08-22T17:24:42.000Z</time>
      </trkpt>
      <trkpt lat="39.817125611007213592529296875" lon="-0.89256204664707183837890625">
        <ele>953.4000244140625</ele>
        <time>2020-08-22T17:24:48.000Z</time>
      </trkpt>
      <trkpt lat="39.81713810004293918609619140625" lon="-0.8919235132634639739990234375">
        <ele>954.4000244140625</ele>
        <time>2020-08-22T17:25:00.000Z</time>
      </trkpt>
      <trkpt lat="39.81730624102056026458740234375" lon="-0.89125472120940685272216796875">
        <ele>955.20001220703125</ele>
        <time>2020-08-22T17:25:11.000Z</time>
      </trkpt>
      <trkpt lat="39.81743649579584598541259765625" lon="-0.89092430658638477325439453125">
        <ele>955.4000244140625</ele>
        <time>2020-08-22T17:25:17.000Z</time>
      </trkpt>
      <trkpt lat="39.81771393679082393646240234375" lon="-0.89025375433266162872314453125">
        <ele>956.20001220703125</ele>
        <time>2020-08-22T17:25:29.000Z</time>
      </trkpt>
      <trkpt lat="39.81776573695242404937744140625" lon="-0.89006599970161914825439453125">
        <ele>956.4000244140625</ele>
        <time>2020-08-22T17:25:32.000Z</time>
      </trkpt>
      <trkpt lat="39.81787168420851230621337890625" lon="-0.88944322429597377777099609375">
        <ele>957.5999755859375</ele>
        <time>2020-08-22T17:25:42.000Z</time>
      </trkpt>
      <trkpt lat="39.817932285368442535400390625" lon="-0.88881139643490314483642578125">
        <ele>958.79998779296875</ele>
        <time>2020-08-22T17:25:52.000Z</time>
      </trkpt>
      <trkpt lat="39.817970506846904754638671875" lon="-0.88843722827732563018798828125">
        <ele>960</ele>
        <time>2020-08-22T17:25:58.000Z</time>
      </trkpt>
      <trkpt lat="39.81804099865257740020751953125" lon="-0.88788402266800403594970703125">
        <ele>961.20001220703125</ele>
        <time>2020-08-22T17:26:07.000Z</time>
      </trkpt>
      <trkpt lat="39.8181131668388843536376953125" lon="-0.88737599551677703857421875">
        <ele>962.20001220703125</ele>
        <time>2020-08-22T17:26:16.000Z</time>
      </trkpt>
      <trkpt lat="39.8181557469069957733154296875" lon="-0.88698816485702991485595703125">
        <ele>963.4000244140625</ele>
        <time>2020-08-22T17:26:23.000Z</time>
      </trkpt>
      <trkpt lat="39.818175025284290313720703125" lon="-0.88682823814451694488525390625">
        <ele>964.79998779296875</ele>
        <time>2020-08-22T17:26:26.000Z</time>
      </trkpt>
      <trkpt lat="39.81818969361484050750732421875" lon="-0.8865647949278354644775390625">
        <ele>966</ele>
        <time>2020-08-22T17:26:31.000Z</time>
      </trkpt>
      <trkpt lat="39.8181865923106670379638671875" lon="-0.88610856793820858001708984375">
        <ele>967</ele>
        <time>2020-08-22T17:26:40.000Z</time>
      </trkpt>
      <trkpt lat="39.8181639611721038818359375" lon="-0.88575367815792560577392578125">
        <ele>968.20001220703125</ele>
        <time>2020-08-22T17:26:47.000Z</time>
      </trkpt>
      <trkpt lat="39.81810403056442737579345703125" lon="-0.8853435516357421875">
        <ele>969.4000244140625</ele>
        <time>2020-08-22T17:26:55.000Z</time>
      </trkpt>
      <trkpt lat="39.81804929673671722412109375" lon="-0.88509284891188144683837890625">
        <ele>970.5999755859375</ele>
        <time>2020-08-22T17:27:00.000Z</time>
      </trkpt>
      <trkpt lat="39.81800277717411518096923828125" lon="-0.8848991431295871734619140625">
        <ele>971.5999755859375</ele>
        <time>2020-08-22T17:27:04.000Z</time>
      </trkpt>
      <trkpt lat="39.81793656013906002044677734375" lon="-0.884669981896877288818359375">
        <ele>972.79998779296875</ele>
        <time>2020-08-22T17:27:09.000Z</time>
      </trkpt>
      <trkpt lat="39.81786279939115047454833984375" lon="-0.8844277448952198028564453125">
        <ele>973.79998779296875</ele>
        <time>2020-08-22T17:27:15.000Z</time>
      </trkpt>
      <trkpt lat="39.8177473805844783782958984375" lon="-0.884087271988391876220703125">
        <ele>975</ele>
        <time>2020-08-22T17:27:23.000Z</time>
      </trkpt>
      <trkpt lat="39.81767437420785427093505859375" lon="-0.88386825285851955413818359375">
        <ele>976.20001220703125</ele>
        <time>2020-08-22T17:27:28.000Z</time>
      </trkpt>
      <trkpt lat="39.81761871837079524993896484375" lon="-0.88368519209325313568115234375">
        <ele>977.20001220703125</ele>
        <time>2020-08-22T17:27:32.000Z</time>
      </trkpt>
      <trkpt lat="39.8175455443561077117919921875" lon="-0.883458293974399566650390625">
        <ele>978.4000244140625</ele>
        <time>2020-08-22T17:27:37.000Z</time>
      </trkpt>
      <trkpt lat="39.81738888658583164215087890625" lon="-0.882926546037197113037109375">
        <ele>979.5999755859375</ele>
        <time>2020-08-22T17:27:48.000Z</time>
      </trkpt>
      <trkpt lat="39.817241616547107696533203125" lon="-0.8824802935123443603515625">
        <ele>980.5999755859375</ele>
        <time>2020-08-22T17:27:57.000Z</time>
      </trkpt>
      <trkpt lat="39.81701706536114215850830078125" lon="-0.88181904517114162445068359375">
        <ele>980.79998779296875</ele>
        <time>2020-08-22T17:28:09.000Z</time>
      </trkpt>
      <trkpt lat="39.81685898266732692718505859375" lon="-0.88144722394645214080810546875">
        <ele>981</ele>
        <time>2020-08-22T17:28:15.000Z</time>
      </trkpt>
      <trkpt lat="39.81676409952342510223388671875" lon="-0.88134362362325191497802734375">
        <ele>980.79998779296875</ele>
        <time>2020-08-22T17:28:17.000Z</time>
      </trkpt>
      <trkpt lat="39.81665228493511676788330078125" lon="-0.8812764845788478851318359375">
        <ele>980.79998779296875</ele>
        <time>2020-08-22T17:28:19.000Z</time>
      </trkpt>
      <trkpt lat="39.81637869961559772491455078125" lon="-0.8812188170850276947021484375">
        <ele>981.20001220703125</ele>
        <time>2020-08-22T17:28:24.000Z</time>
      </trkpt>
      <trkpt lat="39.8161642067134380340576171875" lon="-0.8812513388693332672119140625">
        <ele>981.20001220703125</ele>
        <time>2020-08-22T17:28:28.000Z</time>
      </trkpt>
      <trkpt lat="39.81603202410042285919189453125" lon="-0.8813140355050563812255859375">
        <ele>981.20001220703125</ele>
        <time>2020-08-22T17:28:31.000Z</time>
      </trkpt>
      <trkpt lat="39.8158785514533519744873046875" lon="-0.8814347349107265472412109375">
        <ele>981.5999755859375</ele>
        <time>2020-08-22T17:28:35.000Z</time>
      </trkpt>
      <trkpt lat="39.8156867735087871551513671875" lon="-0.881579406559467315673828125">
        <ele>983</ele>
        <time>2020-08-22T17:28:40.000Z</time>
      </trkpt>
      <trkpt lat="39.81552441604435443878173828125" lon="-0.8817032910883426666259765625">
        <ele>984</ele>
        <time>2020-08-22T17:28:44.000Z</time>
      </trkpt>
      <trkpt lat="39.81512526981532573699951171875" lon="-0.88190487585961818695068359375">
        <ele>985</ele>
        <time>2020-08-22T17:28:53.000Z</time>
      </trkpt>
      <trkpt lat="39.81502837501466274261474609375" lon="-0.88189884088933467864990234375">
        <ele>985.20001220703125</ele>
        <time>2020-08-22T17:28:55.000Z</time>
      </trkpt>
      <trkpt lat="39.81478462927043437957763671875" lon="-0.88178182952105998992919921875">
        <ele>986.20001220703125</ele>
        <time>2020-08-22T17:29:01.000Z</time>
      </trkpt>
      <trkpt lat="39.81461875140666961669921875" lon="-0.88167068548500537872314453125">
        <ele>987.20001220703125</ele>
        <time>2020-08-22T17:29:06.000Z</time>
      </trkpt>
      <trkpt lat="39.8144227825105190277099609375" lon="-0.8815477229654788970947265625">
        <ele>988.4000244140625</ele>
        <time>2020-08-22T17:29:12.000Z</time>
      </trkpt>
      <trkpt lat="39.8143225349485874176025390625" lon="-0.8815011195838451385498046875">
        <ele>989.5999755859375</ele>
        <time>2020-08-22T17:29:15.000Z</time>
      </trkpt>
      <trkpt lat="39.8141914419829845428466796875" lon="-0.8814595453441143035888671875">
        <ele>990.5999755859375</ele>
        <time>2020-08-22T17:29:19.000Z</time>
      </trkpt>
      <trkpt lat="39.8140100575983524322509765625" lon="-0.88142895139753818511962890625">
        <ele>991.79998779296875</ele>
        <time>2020-08-22T17:29:24.000Z</time>
      </trkpt>
      <trkpt lat="39.81377712450921535491943359375" lon="-0.88149164803326129913330078125">
        <ele>993</ele>
        <time>2020-08-22T17:29:31.000Z</time>
      </trkpt>
      <trkpt lat="39.8135963268578052520751953125" lon="-0.881638415157794952392578125">
        <ele>994.20001220703125</ele>
        <time>2020-08-22T17:29:37.000Z</time>
      </trkpt>
      <trkpt lat="39.81349197216331958770751953125" lon="-0.88174059055745601654052734375">
        <ele>995.20001220703125</ele>
        <time>2020-08-22T17:29:41.000Z</time>
      </trkpt>
      <trkpt lat="39.81333263218402862548828125" lon="-0.8818866871297359466552734375">
        <ele>996.4000244140625</ele>
        <time>2020-08-22T17:29:47.000Z</time>
      </trkpt>
      <trkpt lat="39.8131214082241058349609375" lon="-0.882004536688327789306640625">
        <ele>997.79998779296875</ele>
        <time>2020-08-22T17:29:54.000Z</time>
      </trkpt>
      <trkpt lat="39.81298067606985569000244140625" lon="-0.8820419199764728546142578125">
        <ele>998.79998779296875</ele>
        <time>2020-08-22T17:29:58.000Z</time>
      </trkpt>
      <trkpt lat="39.81283566914498805999755859375" lon="-0.88203915394842624664306640625">
        <ele>999.79998779296875</ele>
        <time>2020-08-22T17:30:02.000Z</time>
      </trkpt>
      <trkpt lat="39.81262159533798694610595703125" lon="-0.882000513374805450439453125">
        <ele>1001</ele>
        <time>2020-08-22T17:30:08.000Z</time>
      </trkpt>
      <trkpt lat="39.812514223158359527587890625" lon="-0.88197444565594196319580078125">
        <ele>1002</ele>
        <time>2020-08-22T17:30:11.000Z</time>
      </trkpt>
      <trkpt lat="39.81222529895603656768798828125" lon="-0.88191342540085315704345703125">
        <ele>1003</ele>
        <time>2020-08-22T17:30:19.000Z</time>
      </trkpt>
      <trkpt lat="39.81178424321115016937255859375" lon="-0.8820492960512638092041015625">
        <ele>1004.20001220703125</ele>
        <time>2020-08-22T17:30:31.000Z</time>
      </trkpt>
      <trkpt lat="39.81151954270899295806884765625" lon="-0.88216320611536502838134765625">
        <ele>1005.4000244140625</ele>
        <time>2020-08-22T17:30:38.000Z</time>
      </trkpt>
      <trkpt lat="39.81119901873171329498291015625" lon="-0.8822764456272125244140625">
        <ele>1006.4000244140625</ele>
        <time>2020-08-22T17:30:46.000Z</time>
      </trkpt>
      <trkpt lat="39.81102534569799900054931640625" lon="-0.882332436740398406982421875">
        <ele>1007.4000244140625</ele>
        <time>2020-08-22T17:30:50.000Z</time>
      </trkpt>
      <trkpt lat="39.810859970748424530029296875" lon="-0.88237979449331760406494140625">
        <ele>1008.5999755859375</ele>
        <time>2020-08-22T17:30:54.000Z</time>
      </trkpt>
      <trkpt lat="39.8104594834148883819580078125" lon="-0.88245674036443233489990234375">
        <ele>1009.5999755859375</ele>
        <time>2020-08-22T17:31:04.000Z</time>
      </trkpt>
      <trkpt lat="39.810020439326763153076171875" lon="-0.88268539868295192718505859375">
        <ele>1010.5999755859375</ele>
        <time>2020-08-22T17:31:15.000Z</time>
      </trkpt>
      <trkpt lat="39.80985389091074466705322265625" lon="-0.88283912278711795806884765625">
        <ele>1011.79998779296875</ele>
        <time>2020-08-22T17:31:20.000Z</time>
      </trkpt>
      <trkpt lat="39.80975188314914703369140625" lon="-0.88298982940614223480224609375">
        <ele>1013</ele>
        <time>2020-08-22T17:31:24.000Z</time>
      </trkpt>
      <trkpt lat="39.8095877654850482940673828125" lon="-0.88319350965321063995361328125">
        <ele>1014</ele>
        <time>2020-08-22T17:31:30.000Z</time>
      </trkpt>
      <trkpt lat="39.8094529844820499420166015625" lon="-0.8833193220198154449462890625">
        <ele>1015.4000244140625</ele>
        <time>2020-08-22T17:31:35.000Z</time>
      </trkpt>
      <trkpt lat="39.80930286459624767303466796875" lon="-0.883440189063549041748046875">
        <ele>1016.4000244140625</ele>
        <time>2020-08-22T17:31:40.000Z</time>
      </trkpt>
      <trkpt lat="39.80913765728473663330078125" lon="-0.883521996438503265380859375">
        <ele>1017.5999755859375</ele>
        <time>2020-08-22T17:31:45.000Z</time>
      </trkpt>
      <trkpt lat="39.80899306945502758026123046875" lon="-0.88357840664684772491455078125">
        <ele>1018.5999755859375</ele>
        <time>2020-08-22T17:31:49.000Z</time>
      </trkpt>
      <trkpt lat="39.8088910616934299468994140625" lon="-0.8836143650114536285400390625">
        <ele>1019.79998779296875</ele>
        <time>2020-08-22T17:31:52.000Z</time>
      </trkpt>
      <trkpt lat="39.80877061374485492706298828125" lon="-0.8836613036692142486572265625">
        <ele>1020.79998779296875</ele>
        <time>2020-08-22T17:31:56.000Z</time>
      </trkpt>
      <trkpt lat="39.80861999094486236572265625" lon="-0.88371067307889461517333984375">
        <ele>1021.79998779296875</ele>
        <time>2020-08-22T17:32:01.000Z</time>
      </trkpt>
      <trkpt lat="39.80842108838260173797607421875" lon="-0.88381678797304630279541015625">
        <ele>1023</ele>
        <time>2020-08-22T17:32:08.000Z</time>
      </trkpt>
      <trkpt lat="39.80817667208611965179443359375" lon="-0.8840601146221160888671875">
        <ele>1024.199951171875</ele>
        <time>2020-08-22T17:32:16.000Z</time>
      </trkpt>
      <trkpt lat="39.8080277256667613983154296875" lon="-0.88424795307219028472900390625">
        <ele>1025.199951171875</ele>
        <time>2020-08-22T17:32:21.000Z</time>
      </trkpt>
      <trkpt lat="39.807812310755252838134765625" lon="-0.884539224207401275634765625">
        <ele>1026.199951171875</ele>
        <time>2020-08-22T17:32:28.000Z</time>
      </trkpt>
      <trkpt lat="39.807502515614032745361328125" lon="-0.884961001574993133544921875">
        <ele>1027.4000244140625</ele>
        <time>2020-08-22T17:32:38.000Z</time>
      </trkpt>
      <trkpt lat="39.80735608376562595367431640625" lon="-0.885182954370975494384765625">
        <ele>1028</ele>
        <time>2020-08-22T17:32:43.000Z</time>
      </trkpt>
      <trkpt lat="39.80729171074926853179931640625" lon="-0.88529367931187152862548828125">
        <ele>1028.4000244140625</ele>
        <time>2020-08-22T17:32:45.000Z</time>
      </trkpt>
      <trkpt lat="39.80701862834393978118896484375" lon="-0.885724760591983795166015625">
        <ele>1029.5999755859375</ele>
        <time>2020-08-22T17:32:52.000Z</time>
      </trkpt>
      <trkpt lat="39.806781001389026641845703125" lon="-0.8860357291996479034423828125">
        <ele>1030.4000244140625</ele>
        <time>2020-08-22T17:32:57.000Z</time>
      </trkpt>
      <trkpt lat="39.806499369442462921142578125" lon="-0.886334292590618133544921875">
        <ele>1030.5999755859375</ele>
        <time>2020-08-22T17:33:02.000Z</time>
      </trkpt>
      <trkpt lat="39.80617959983646869659423828125" lon="-0.88672413490712642669677734375">
        <ele>1032.199951171875</ele>
        <time>2020-08-22T17:33:08.000Z</time>
      </trkpt>
      <trkpt lat="39.8058967106044292449951171875" lon="-0.8870606683194637298583984375">
        <ele>1033.199951171875</ele>
        <time>2020-08-22T17:33:14.000Z</time>
      </trkpt>
      <trkpt lat="39.80571188963949680328369140625" lon="-0.88729041628539562225341796875">
        <ele>1034.5999755859375</ele>
        <time>2020-08-22T17:33:19.000Z</time>
      </trkpt>
      <trkpt lat="39.80526857078075408935546875" lon="-0.8877174742519855499267578125">
        <ele>1035.4000244140625</ele>
        <time>2020-08-22T17:33:37.000Z</time>
      </trkpt>
      <trkpt lat="39.80524753220379352569580078125" lon="-0.88772912509739398956298828125">
        <ele>1035.5999755859375</ele>
        <time>2020-08-22T17:33:38.000Z</time>
      </trkpt>
      <trkpt lat="39.80515784583985805511474609375" lon="-0.88784563355147838592529296875">
        <ele>1036.5999755859375</ele>
        <time>2020-08-22T17:33:46.000Z</time>
      </trkpt>
      <trkpt lat="39.80514309369027614593505859375" lon="-0.88784161023795604705810546875">
        <ele>1036.199951171875</ele>
        <time>2020-08-22T17:34:13.000Z</time>
      </trkpt>
      <trkpt lat="39.80513219721615314483642578125" lon="-0.8878559432923793792724609375">
        <ele>1036.5999755859375</ele>
        <time>2020-08-22T17:48:38.000Z</time>
      </trkpt>
      <trkpt lat="39.805121384561061859130859375" lon="-0.8878603018820285797119140625">
        <ele>1036.5999755859375</ele>
        <time>2020-08-22T17:48:41.000Z</time>
      </trkpt>
      <trkpt lat="39.80457597412168979644775390625" lon="-0.88787413202226161956787109375">
        <ele>1037</ele>
        <time>2020-08-22T17:49:12.000Z</time>
      </trkpt>
      <trkpt lat="39.80405277572572231292724609375" lon="-0.88765335269272327423095703125">
        <ele>1036.5999755859375</ele>
        <time>2020-08-22T17:49:32.000Z</time>
      </trkpt>
      <trkpt lat="39.8038731515407562255859375" lon="-0.88749895803630352020263671875">
        <ele>1036.4000244140625</ele>
        <time>2020-08-22T17:49:36.000Z</time>
      </trkpt>
      <trkpt lat="39.8036802001297473907470703125" lon="-0.88726359419524669647216796875">
        <ele>1035.5999755859375</ele>
        <time>2020-08-22T17:49:40.000Z</time>
      </trkpt>
      <trkpt lat="39.8035796172916889190673828125" lon="-0.8871153183281421661376953125">
        <ele>1033.800048828125</ele>
        <time>2020-08-22T17:49:42.000Z</time>
      </trkpt>
      <trkpt lat="39.80348515324294567108154296875" lon="-0.88694508187472820281982421875">
        <ele>1032.4000244140625</ele>
        <time>2020-08-22T17:49:44.000Z</time>
      </trkpt>
      <trkpt lat="39.8033489473164081573486328125" lon="-0.8866643719375133514404296875">
        <ele>1030.800048828125</ele>
        <time>2020-08-22T17:49:47.000Z</time>
      </trkpt>
      <trkpt lat="39.80320352129638195037841796875" lon="-0.8863783814013004302978515625">
        <ele>1029.4000244140625</ele>
        <time>2020-08-22T17:49:50.000Z</time>
      </trkpt>
      <trkpt lat="39.8031068779528141021728515625" lon="-0.8861819095909595489501953125">
        <ele>1028</ele>
        <time>2020-08-22T17:49:52.000Z</time>
      </trkpt>
      <trkpt lat="39.803014509379863739013671875" lon="-0.88597915135324001312255859375">
        <ele>1027</ele>
        <time>2020-08-22T17:49:54.000Z</time>
      </trkpt>
      <trkpt lat="39.8029372282326221466064453125" lon="-0.88577806949615478515625">
        <ele>1025.800048828125</ele>
        <time>2020-08-22T17:49:56.000Z</time>
      </trkpt>
      <trkpt lat="39.80283287353813648223876953125" lon="-0.88547707535326480865478515625">
        <ele>1024.5999755859375</ele>
        <time>2020-08-22T17:49:59.000Z</time>
      </trkpt>
      <trkpt lat="39.80269591324031352996826171875" lon="-0.885043479502201080322265625">
        <ele>1022.5999755859375</ele>
        <time>2020-08-22T17:50:03.000Z</time>
      </trkpt>
      <trkpt lat="39.8026740364730358123779296875" lon="-0.88492638431489467620849609375">
        <ele>1021.79998779296875</ele>
        <time>2020-08-22T17:50:04.000Z</time>
      </trkpt>
      <trkpt lat="39.80266146361827850341796875" lon="-0.88480912148952484130859375">
        <ele>1021.4000244140625</ele>
        <time>2020-08-22T17:50:05.000Z</time>
      </trkpt>
      <trkpt lat="39.802658446133136749267578125" lon="-0.8846879191696643829345703125">
        <ele>1021</ele>
        <time>2020-08-22T17:50:06.000Z</time>
      </trkpt>
      <trkpt lat="39.8026649840176105499267578125" lon="-0.88456780649721622467041015625">
        <ele>1020.4000244140625</ele>
        <time>2020-08-22T17:50:07.000Z</time>
      </trkpt>
      <trkpt lat="39.80268183164298534393310546875" lon="-0.8844458498060703277587890625">
        <ele>1019.4000244140625</ele>
        <time>2020-08-22T17:50:08.000Z</time>
      </trkpt>
      <trkpt lat="39.80275844223797321319580078125" lon="-0.88406858034431934356689453125">
        <ele>1018.20001220703125</ele>
        <time>2020-08-22T17:50:11.000Z</time>
      </trkpt>
      <trkpt lat="39.80279632844030857086181640625" lon="-0.8838054724037647247314453125">
        <ele>1017.20001220703125</ele>
        <time>2020-08-22T17:50:13.000Z</time>
      </trkpt>
      <trkpt lat="39.8028141818940639495849609375" lon="-0.883533395826816558837890625">
        <ele>1015.5999755859375</ele>
        <time>2020-08-22T17:50:15.000Z</time>
      </trkpt>
      <trkpt lat="39.80281141586601734161376953125" lon="-0.88325670920312404632568359375">
        <ele>1014.4000244140625</ele>
        <time>2020-08-22T17:50:17.000Z</time>
      </trkpt>
      <trkpt lat="39.80280001647770404815673828125" lon="-0.88284247554838657379150390625">
        <ele>1013.4000244140625</ele>
        <time>2020-08-22T17:50:20.000Z</time>
      </trkpt>
      <trkpt lat="39.80279247276484966278076171875" lon="-0.8825726620852947235107421875">
        <ele>1012.20001220703125</ele>
        <time>2020-08-22T17:50:22.000Z</time>
      </trkpt>
      <trkpt lat="39.80278828181326389312744140625" lon="-0.88230268098413944244384765625">
        <ele>1011</ele>
        <time>2020-08-22T17:50:24.000Z</time>
      </trkpt>
      <trkpt lat="39.80279901064932346343994140625" lon="-0.88203278370201587677001953125">
        <ele>1009.20001220703125</ele>
        <time>2020-08-22T17:50:26.000Z</time>
      </trkpt>
      <trkpt lat="39.8028088174760341644287109375" lon="-0.88190135546028614044189453125">
        <ele>1007.79998779296875</ele>
        <time>2020-08-22T17:50:27.000Z</time>
      </trkpt>
      <trkpt lat="39.8028212226927280426025390625" lon="-0.88176741264760494232177734375">
        <ele>1006.5999755859375</ele>
        <time>2020-08-22T17:50:28.000Z</time>
      </trkpt>
      <trkpt lat="39.802836813032627105712890625" lon="-0.88163430802524089813232421875">
        <ele>1005.4000244140625</ele>
        <time>2020-08-22T17:50:29.000Z</time>
      </trkpt>
      <trkpt lat="39.80288534425199031829833984375" lon="-0.8812298811972141265869140625">
        <ele>1004.20001220703125</ele>
        <time>2020-08-22T17:50:32.000Z</time>
      </trkpt>
      <trkpt lat="39.80292155407369136810302734375" lon="-0.8808151446282863616943359375">
        <ele>1003</ele>
        <time>2020-08-22T17:50:35.000Z</time>
      </trkpt>
      <trkpt lat="39.80294577777385711669921875" lon="-0.88039428927004337310791015625">
        <ele>1001.79998779296875</ele>
        <time>2020-08-22T17:50:38.000Z</time>
      </trkpt>
      <trkpt lat="39.8029603622853755950927734375" lon="-0.879976451396942138671875">
        <ele>1000.5999755859375</ele>
        <time>2020-08-22T17:50:41.000Z</time>
      </trkpt>
      <trkpt lat="39.80294309556484222412109375" lon="-0.87969406507909297943115234375">
        <ele>999</ele>
        <time>2020-08-22T17:50:43.000Z</time>
      </trkpt>
      <trkpt lat="39.80290160514414310455322265625" lon="-0.87941343896090984344482421875">
        <ele>998</ele>
        <time>2020-08-22T17:50:44.000Z</time>
      </trkpt>
      <trkpt lat="39.80284125544130802154541015625" lon="-0.8791367523372173309326171875">
        <ele>996.20001220703125</ele>
        <time>2020-08-22T17:50:46.000Z</time>
      </trkpt>
      <trkpt lat="39.80276917107403278350830078125" lon="-0.87885729968547821044921875">
        <ele>994.79998779296875</ele>
        <time>2020-08-22T17:50:48.000Z</time>
      </trkpt>
      <trkpt lat="39.80268887244164943695068359375" lon="-0.87856753729283809661865234375">
        <ele>993.5999755859375</ele>
        <time>2020-08-22T17:50:50.000Z</time>
      </trkpt>
      <trkpt lat="39.8026044666767120361328125" lon="-0.8782692253589630126953125">
        <ele>992.5999755859375</ele>
        <time>2020-08-22T17:50:52.000Z</time>
      </trkpt>
      <trkpt lat="39.8026044666767120361328125" lon="-0.8782692253589630126953125">
        <ele>991.4000244140625</ele>
        <time>2020-08-22T17:50:53.000Z</time>
      </trkpt>
      <trkpt lat="39.802566580474376678466796875" lon="-0.8781195245683193206787109375">
        <ele>989.79998779296875</ele>
        <time>2020-08-22T17:50:54.000Z</time>
      </trkpt>
      <trkpt lat="39.80249877087771892547607421875" lon="-0.8778083883225917816162109375">
        <ele>988.4000244140625</ele>
        <time>2020-08-22T17:50:56.000Z</time>
      </trkpt>
      <trkpt lat="39.80240003205835819244384765625" lon="-0.8773411810398101806640625">
        <ele>986.79998779296875</ele>
        <time>2020-08-22T17:50:59.000Z</time>
      </trkpt>
      <trkpt lat="39.8023692704737186431884765625" lon="-0.87718804366886615753173828125">
        <ele>985.4000244140625</ele>
        <time>2020-08-22T17:51:00.000Z</time>
      </trkpt>
      <trkpt lat="39.80234420858323574066162109375" lon="-0.87702694348990917205810546875">
        <ele>984.20001220703125</ele>
        <time>2020-08-22T17:51:01.000Z</time>
      </trkpt>
      <trkpt lat="39.802301041781902313232421875" lon="-0.87670608423650264739990234375">
        <ele>982.79998779296875</ele>
        <time>2020-08-22T17:51:03.000Z</time>
      </trkpt>
      <trkpt lat="39.8022611439228057861328125" lon="-0.87637935765087604522705078125">
        <ele>979.20001220703125</ele>
        <time>2020-08-22T17:51:05.000Z</time>
      </trkpt>
      <trkpt lat="39.8022314719855785369873046875" lon="-0.8762173354625701904296875">
        <ele>977.4000244140625</ele>
        <time>2020-08-22T17:51:06.000Z</time>
      </trkpt>
      <trkpt lat="39.802193753421306610107421875" lon="-0.8760579116642475128173828125">
        <ele>976.20001220703125</ele>
        <time>2020-08-22T17:51:07.000Z</time>
      </trkpt>
      <trkpt lat="39.8021550290286540985107421875" lon="-0.8757306821644306182861328125">
        <ele>975.20001220703125</ele>
        <time>2020-08-22T17:51:09.000Z</time>
      </trkpt>
      <trkpt lat="39.80220523662865161895751953125" lon="-0.87523237802088260650634765625">
        <ele>974</ele>
        <time>2020-08-22T17:51:12.000Z</time>
      </trkpt>
      <trkpt lat="39.80222216807305812835693359375" lon="-0.8749166317284107208251953125">
        <ele>972.20001220703125</ele>
        <time>2020-08-22T17:51:14.000Z</time>
      </trkpt>
      <trkpt lat="39.80220875702798366546630859375" lon="-0.8747570402920246124267578125">
        <ele>970.5999755859375</ele>
        <time>2020-08-22T17:51:15.000Z</time>
      </trkpt>
      <trkpt lat="39.80217598378658294677734375" lon="-0.87460063397884368896484375">
        <ele>968.20001220703125</ele>
        <time>2020-08-22T17:51:16.000Z</time>
      </trkpt>
      <trkpt lat="39.80212032794952392578125" lon="-0.87445403449237346649169921875">
        <ele>967</ele>
        <time>2020-08-22T17:51:17.000Z</time>
      </trkpt>
      <trkpt lat="39.80205000378191471099853515625" lon="-0.87431690655648708343505859375">
        <ele>966.4000244140625</ele>
        <time>2020-08-22T17:51:18.000Z</time>
      </trkpt>
      <trkpt lat="39.8019823618233203887939453125" lon="-0.87418313138186931610107421875">
        <ele>965.20001220703125</ele>
        <time>2020-08-22T17:51:19.000Z</time>
      </trkpt>
      <trkpt lat="39.8019307292997837066650390625" lon="-0.87404533289372920989990234375">
        <ele>964.5999755859375</ele>
        <time>2020-08-22T17:51:20.000Z</time>
      </trkpt>
      <trkpt lat="39.8019173182547092437744140625" lon="-0.8738923631608486175537109375">
        <ele>964</ele>
        <time>2020-08-22T17:51:21.000Z</time>
      </trkpt>
      <trkpt lat="39.80192259885370731353759765625" lon="-0.8737243898212909698486328125">
        <ele>963.79998779296875</ele>
        <time>2020-08-22T17:51:22.000Z</time>
      </trkpt>
      <trkpt lat="39.80195310898125171661376953125" lon="-0.87355951778590679168701171875">
        <ele>963</ele>
        <time>2020-08-22T17:51:23.000Z</time>
      </trkpt>
      <trkpt lat="39.80201731435954570770263671875" lon="-0.87341434322297573089599609375">
        <ele>962</ele>
        <time>2020-08-22T17:51:24.000Z</time>
      </trkpt>
      <trkpt lat="39.8021818511188030242919921875" lon="-0.87315626442432403564453125">
        <ele>959.5999755859375</ele>
        <time>2020-08-22T17:51:25.000Z</time>
      </trkpt>
      <trkpt lat="39.80234303511679172515869140625" lon="-0.87291746400296688079833984375">
        <ele>958.4000244140625</ele>
        <time>2020-08-22T17:51:28.000Z</time>
      </trkpt>
      <trkpt lat="39.80240640230476856231689453125" lon="-0.872793160378932952880859375">
        <ele>957.4000244140625</ele>
        <time>2020-08-22T17:51:29.000Z</time>
      </trkpt>
      <trkpt lat="39.8024215735495090484619140625" lon="-0.8725033141672611236572265625">
        <ele>955</ele>
        <time>2020-08-22T17:51:30.000Z</time>
      </trkpt>
      <trkpt lat="39.8024215735495090484619140625" lon="-0.8725033141672611236572265625">
        <ele>953.79998779296875</ele>
        <time>2020-08-22T17:51:31.000Z</time>
      </trkpt>
      <trkpt lat="39.80237622745335102081298828125" lon="-0.87235386483371257781982421875">
        <ele>953</ele>
        <time>2020-08-22T17:51:32.000Z</time>
      </trkpt>
      <trkpt lat="39.802317805588245391845703125" lon="-0.872209109365940093994140625">
        <ele>952.5999755859375</ele>
        <time>2020-08-22T17:51:33.000Z</time>
      </trkpt>
      <trkpt lat="39.8022048175334930419921875" lon="-0.8719365298748016357421875">
        <ele>951.20001220703125</ele>
        <time>2020-08-22T17:51:35.000Z</time>
      </trkpt>
      <trkpt lat="39.8021650873124599456787109375" lon="-0.87161592207849025726318359375">
        <ele>950.4000244140625</ele>
        <time>2020-08-22T17:51:37.000Z</time>
      </trkpt>
      <trkpt lat="39.8022200725972652435302734375" lon="-0.8712859265506267547607421875">
        <ele>949</ele>
        <time>2020-08-22T17:51:39.000Z</time>
      </trkpt>
      <trkpt lat="39.80225217528641223907470703125" lon="-0.8711263351142406463623046875">
        <ele>947.20001220703125</ele>
        <time>2020-08-22T17:51:40.000Z</time>
      </trkpt>
      <trkpt lat="39.80226491577923297882080078125" lon="-0.87096691131591796875">
        <ele>945.20001220703125</ele>
        <time>2020-08-22T17:51:41.000Z</time>
      </trkpt>
      <trkpt lat="39.80225871317088603973388671875" lon="-0.87080606259405612945556640625">
        <ele>943.79998779296875</ele>
        <time>2020-08-22T17:51:42.000Z</time>
      </trkpt>
      <trkpt lat="39.80225502513349056243896484375" lon="-0.87064345367252826690673828125">
        <ele>942.79998779296875</ele>
        <time>2020-08-22T17:51:43.000Z</time>
      </trkpt>
      <trkpt lat="39.80226256884634494781494140625" lon="-0.870318152010440826416015625">
        <ele>941.20001220703125</ele>
        <time>2020-08-22T17:51:45.000Z</time>
      </trkpt>
      <trkpt lat="39.80224572122097015380859375" lon="-0.87016065604984760284423828125">
        <ele>940.5999755859375</ele>
        <time>2020-08-22T17:51:46.000Z</time>
      </trkpt>
      <trkpt lat="39.80220423080027103424072265625" lon="-0.8700205944478511810302734375">
        <ele>939.79998779296875</ele>
        <time>2020-08-22T17:51:47.000Z</time>
      </trkpt>
      <trkpt lat="39.80212560854852199554443359375" lon="-0.86990383453667163848876953125">
        <ele>939.20001220703125</ele>
        <time>2020-08-22T17:51:48.000Z</time>
      </trkpt>
      <trkpt lat="39.80204011313617229461669921875" lon="-0.86979134939610958099365234375">
        <ele>938.4000244140625</ele>
        <time>2020-08-22T17:51:49.000Z</time>
      </trkpt>
      <trkpt lat="39.80196903459727764129638671875" lon="-0.869666039943695068359375">
        <ele>936.5999755859375</ele>
        <time>2020-08-22T17:51:50.000Z</time>
      </trkpt>
      <trkpt lat="39.801924861967563629150390625" lon="-0.869360603392124176025390625">
        <ele>934.79998779296875</ele>
        <time>2020-08-22T17:51:52.000Z</time>
      </trkpt>
      <trkpt lat="39.80192695744335651397705078125" lon="-0.86902574636042118072509765625">
        <ele>933.20001220703125</ele>
        <time>2020-08-22T17:51:54.000Z</time>
      </trkpt>
      <trkpt lat="39.801919162273406982421875" lon="-0.8688627183437347412109375">
        <ele>932.5999755859375</ele>
        <time>2020-08-22T17:51:55.000Z</time>
      </trkpt>
      <trkpt lat="39.80189125053584575653076171875" lon="-0.868710167706012725830078125">
        <ele>930.79998779296875</ele>
        <time>2020-08-22T17:51:56.000Z</time>
      </trkpt>
      <trkpt lat="39.80183760635554790496826171875" lon="-0.8685745485126972198486328125">
        <ele>929.20001220703125</ele>
        <time>2020-08-22T17:51:57.000Z</time>
      </trkpt>
      <trkpt lat="39.80175747536122798919677734375" lon="-0.86845912970602512359619140625">
        <ele>928</ele>
        <time>2020-08-22T17:51:58.000Z</time>
      </trkpt>
      <trkpt lat="39.80165965855121612548828125" lon="-0.868362151086330413818359375">
        <ele>927</ele>
        <time>2020-08-22T17:51:59.000Z</time>
      </trkpt>
      <trkpt lat="39.80156267993152141571044921875" lon="-0.86826534010469913482666015625">
        <ele>926.5999755859375</ele>
        <time>2020-08-22T17:52:00.000Z</time>
      </trkpt>
      <trkpt lat="39.80147819034755229949951171875" lon="-0.86815671063959598541259765625">
        <ele>925.79998779296875</ele>
        <time>2020-08-22T17:52:01.000Z</time>
      </trkpt>
      <trkpt lat="39.80140543542802333831787109375" lon="-0.86803215555846691131591796875">
        <ele>925.20001220703125</ele>
        <time>2020-08-22T17:52:02.000Z</time>
      </trkpt>
      <trkpt lat="39.80135765857994556427001953125" lon="-0.8678863942623138427734375">
        <ele>924.79998779296875</ele>
        <time>2020-08-22T17:52:03.000Z</time>
      </trkpt>
      <trkpt lat="39.8013118095695972442626953125" lon="-0.86756788194179534912109375">
        <ele>923.4000244140625</ele>
        <time>2020-08-22T17:52:04.000Z</time>
      </trkpt>
      <trkpt lat="39.801310636103153228759765625" lon="-0.86739848367869853973388671875">
        <ele>921.5999755859375</ele>
        <time>2020-08-22T17:52:06.000Z</time>
      </trkpt>
      <trkpt lat="39.80132949538528919219970703125" lon="-0.867045186460018157958984375">
        <ele>919.79998779296875</ele>
        <time>2020-08-22T17:52:08.000Z</time>
      </trkpt>
      <trkpt lat="39.80137710459530353546142578125" lon="-0.86669758893549442291259765625">
        <ele>918.20001220703125</ele>
        <time>2020-08-22T17:52:10.000Z</time>
      </trkpt>
      <trkpt lat="39.8014586605131626129150390625" lon="-0.8663674257695674896240234375">
        <ele>917.20001220703125</ele>
        <time>2020-08-22T17:52:12.000Z</time>
      </trkpt>
      <trkpt lat="39.80148439295589923858642578125" lon="-0.866202302277088165283203125">
        <ele>916.4000244140625</ele>
        <time>2020-08-22T17:52:13.000Z</time>
      </trkpt>
      <trkpt lat="39.80149311013519763946533203125" lon="-0.86603022180497646331787109375">
        <ele>916</ele>
        <time>2020-08-22T17:52:14.000Z</time>
      </trkpt>
      <trkpt lat="39.80150802992284297943115234375" lon="-0.86567834950983524322509765625">
        <ele>914.5999755859375</ele>
        <time>2020-08-22T17:52:16.000Z</time>
      </trkpt>
      <trkpt lat="39.80153870768845081329345703125" lon="-0.8655000664293766021728515625">
        <ele>913.5999755859375</ele>
        <time>2020-08-22T17:52:17.000Z</time>
      </trkpt>
      <trkpt lat="39.8015847243368625640869140625" lon="-0.8653253875672817230224609375">
        <ele>912.79998779296875</ele>
        <time>2020-08-22T17:52:18.000Z</time>
      </trkpt>
      <trkpt lat="39.801709949970245361328125" lon="-0.86501081474125385284423828125">
        <ele>911.20001220703125</ele>
        <time>2020-08-22T17:52:19.000Z</time>
      </trkpt>
      <trkpt lat="39.801765941083431243896484375" lon="-0.86485306732356548309326171875">
        <ele>909.5999755859375</ele>
        <time>2020-08-22T17:52:21.000Z</time>
      </trkpt>
      <trkpt lat="39.80180986225605010986328125" lon="-0.864692218601703643798828125">
        <ele>908.20001220703125</ele>
        <time>2020-08-22T17:52:22.000Z</time>
      </trkpt>
      <trkpt lat="39.8018412105739116668701171875" lon="-0.8645254187285900115966796875">
        <ele>907.20001220703125</ele>
        <time>2020-08-22T17:52:23.000Z</time>
      </trkpt>
      <trkpt lat="39.80190281756222248077392578125" lon="-0.864189304411411285400390625">
        <ele>904.79998779296875</ele>
        <time>2020-08-22T17:52:25.000Z</time>
      </trkpt>
      <trkpt lat="39.80195009149610996246337890625" lon="-0.864029712975025177001953125">
        <ele>904.20001220703125</ele>
        <time>2020-08-22T17:52:26.000Z</time>
      </trkpt>
      <trkpt lat="39.80200029909610748291015625" lon="-0.86387288756668567657470703125">
        <ele>903.5999755859375</ele>
        <time>2020-08-22T17:52:27.000Z</time>
      </trkpt>
      <trkpt lat="39.80203357525169849395751953125" lon="-0.8637101948261260986328125">
        <ele>903.20001220703125</ele>
        <time>2020-08-22T17:52:28.000Z</time>
      </trkpt>
      <trkpt lat="39.802035503089427947998046875" lon="-0.863540880382061004638671875">
        <ele>902.4000244140625</ele>
        <time>2020-08-22T17:52:29.000Z</time>
      </trkpt>
      <trkpt lat="39.80200608260929584503173828125" lon="-0.86338371969759464263916015625">
        <ele>902</ele>
        <time>2020-08-22T17:52:30.000Z</time>
      </trkpt>
      <trkpt lat="39.80194388888776302337646484375" lon="-0.86322647519409656524658203125">
        <ele>901.20001220703125</ele>
        <time>2020-08-22T17:52:31.000Z</time>
      </trkpt>
      <trkpt lat="39.80180106125771999359130859375" lon="-0.86291299201548099517822265625">
        <ele>899.4000244140625</ele>
        <time>2020-08-22T17:52:33.000Z</time>
      </trkpt>
      <trkpt lat="39.80167851783335208892822265625" lon="-0.8626009337604045867919921875">
        <ele>898.20001220703125</ele>
        <time>2020-08-22T17:52:35.000Z</time>
      </trkpt>
      <trkpt lat="39.8015579022467136383056640625" lon="-0.86230027489364147186279296875">
        <ele>896</ele>
        <time>2020-08-22T17:52:37.000Z</time>
      </trkpt>
      <trkpt lat="39.80149679817259311676025390625" lon="-0.86215384304523468017578125">
        <ele>894.79998779296875</ele>
        <time>2020-08-22T17:52:38.000Z</time>
      </trkpt>
      <trkpt lat="39.8014350235462188720703125" lon="-0.86200942285358905792236328125">
        <ele>893.20001220703125</ele>
        <time>2020-08-22T17:52:39.000Z</time>
      </trkpt>
      <trkpt lat="39.801377020776271820068359375" lon="-0.861866511404514312744140625">
        <ele>891.20001220703125</ele>
        <time>2020-08-22T17:52:40.000Z</time>
      </trkpt>
      <trkpt lat="39.80133050121366977691650390625" lon="-0.86171588860452175140380859375">
        <ele>890</ele>
        <time>2020-08-22T17:52:41.000Z</time>
      </trkpt>
      <trkpt lat="39.80127903632819652557373046875" lon="-0.8613936044275760650634765625">
        <ele>888.5999755859375</ele>
        <time>2020-08-22T17:52:43.000Z</time>
      </trkpt>
      <trkpt lat="39.80127476155757904052734375" lon="-0.8605627901852130889892578125">
        <ele>887.4000244140625</ele>
        <time>2020-08-22T17:52:48.000Z</time>
      </trkpt>
      <trkpt lat="39.8012843169271945953369140625" lon="-0.8602295257151126861572265625">
        <ele>885.20001220703125</ele>
        <time>2020-08-22T17:52:50.000Z</time>
      </trkpt>
      <trkpt lat="39.80130334384739398956298828125" lon="-0.86006063036620616912841796875">
        <ele>884.20001220703125</ele>
        <time>2020-08-22T17:52:51.000Z</time>
      </trkpt>
      <trkpt lat="39.80133586563169956207275390625" lon="-0.85989475250244140625">
        <ele>883.79998779296875</ele>
        <time>2020-08-22T17:52:52.000Z</time>
      </trkpt>
      <trkpt lat="39.8014251329004764556884765625" lon="-0.85957800038158893585205078125">
        <ele>882.20001220703125</ele>
        <time>2020-08-22T17:52:54.000Z</time>
      </trkpt>
      <trkpt lat="39.80152898468077182769775390625" lon="-0.8592719770967960357666015625">
        <ele>880.5999755859375</ele>
        <time>2020-08-22T17:52:56.000Z</time>
      </trkpt>
      <trkpt lat="39.80165538378059864044189453125" lon="-0.85899981670081615447998046875">
        <ele>879.5999755859375</ele>
        <time>2020-08-22T17:52:58.000Z</time>
      </trkpt>
      <trkpt lat="39.8018023185431957244873046875" lon="-0.8587543107569217681884765625">
        <ele>878</ele>
        <time>2020-08-22T17:53:00.000Z</time>
      </trkpt>
      <trkpt lat="39.8019392788410186767578125" lon="-0.858500339090824127197265625">
        <ele>876.4000244140625</ele>
        <time>2020-08-22T17:53:02.000Z</time>
      </trkpt>
      <trkpt lat="39.8019940964877605438232421875" lon="-0.85836513899266719818115234375">
        <ele>875.79998779296875</ele>
        <time>2020-08-22T17:53:03.000Z</time>
      </trkpt>
      <trkpt lat="39.80203240178525447845458984375" lon="-0.85822683759033679962158203125">
        <ele>875.20001220703125</ele>
        <time>2020-08-22T17:53:04.000Z</time>
      </trkpt>
      <trkpt lat="39.80204380117356777191162109375" lon="-0.85794369690120220184326171875">
        <ele>874.4000244140625</ele>
        <time>2020-08-22T17:53:05.000Z</time>
      </trkpt>
      <trkpt lat="39.8020168952643871307373046875" lon="-0.8578081615269184112548828125">
        <ele>874.20001220703125</ele>
        <time>2020-08-22T17:53:07.000Z</time>
      </trkpt>
      <trkpt lat="39.80196702294051647186279296875" lon="-0.857681930065155029296875">
        <ele>873.79998779296875</ele>
        <time>2020-08-22T17:53:08.000Z</time>
      </trkpt>
      <trkpt lat="39.801812209188938140869140625" lon="-0.85744790732860565185546875">
        <ele>873.4000244140625</ele>
        <time>2020-08-22T17:53:10.000Z</time>
      </trkpt>
      <trkpt lat="39.8016138933598995208740234375" lon="-0.8572661876678466796875">
        <ele>872.79998779296875</ele>
        <time>2020-08-22T17:53:12.000Z</time>
      </trkpt>
      <trkpt lat="39.801416583359241485595703125" lon="-0.8571012318134307861328125">
        <ele>871.79998779296875</ele>
        <time>2020-08-22T17:53:14.000Z</time>
      </trkpt>
      <trkpt lat="39.8012246377766132354736328125" lon="-0.85693703033030033111572265625">
        <ele>870.20001220703125</ele>
        <time>2020-08-22T17:53:16.000Z</time>
      </trkpt>
      <trkpt lat="39.80103445239365100860595703125" lon="-0.85677358321845531463623046875">
        <ele>868.5999755859375</ele>
        <time>2020-08-22T17:53:18.000Z</time>
      </trkpt>
      <trkpt lat="39.8009406588971614837646484375" lon="-0.856694877147674560546875">
        <ele>866.5999755859375</ele>
        <time>2020-08-22T17:53:19.000Z</time>
      </trkpt>
      <trkpt lat="39.80084560811519622802734375" lon="-0.8566159196197986602783203125">
        <ele>864.79998779296875</ele>
        <time>2020-08-22T17:53:20.000Z</time>
      </trkpt>
      <trkpt lat="39.80075038969516754150390625" lon="-0.85653536953032016754150390625">
        <ele>863.79998779296875</ele>
        <time>2020-08-22T17:53:21.000Z</time>
      </trkpt>
      <trkpt lat="39.80065383017063140869140625" lon="-0.85645322687923908233642578125">
        <ele>862.20001220703125</ele>
        <time>2020-08-22T17:53:22.000Z</time>
      </trkpt>
      <trkpt lat="39.8005567677319049835205078125" lon="-0.85636940784752368927001953125">
        <ele>860.5999755859375</ele>
        <time>2020-08-22T17:53:23.000Z</time>
      </trkpt>
      <trkpt lat="39.80035954155027866363525390625" lon="-0.8562028594315052032470703125">
        <ele>859</ele>
        <time>2020-08-22T17:53:25.000Z</time>
      </trkpt>
      <trkpt lat="39.800057373940944671630859375" lon="-0.8559436909854412078857421875">
        <ele>857.4000244140625</ele>
        <time>2020-08-22T17:53:28.000Z</time>
      </trkpt>
      <trkpt lat="39.7999579645693302154541015625" lon="-0.855859033763408660888671875">
        <ele>856.20001220703125</ele>
        <time>2020-08-22T17:53:29.000Z</time>
      </trkpt>
      <trkpt lat="39.79976023547351360321044921875" lon="-0.85569374263286590576171875">
        <ele>855</ele>
        <time>2020-08-22T17:53:31.000Z</time>
      </trkpt>
      <trkpt lat="39.79955739341676235198974609375" lon="-0.8555514179170131683349609375">
        <ele>853.79998779296875</ele>
        <time>2020-08-22T17:53:33.000Z</time>
      </trkpt>
      <trkpt lat="39.799451529979705810546875" lon="-0.85549634881317615509033203125">
        <ele>852.20001220703125</ele>
        <time>2020-08-22T17:53:34.000Z</time>
      </trkpt>
      <trkpt lat="39.79934281669557094573974609375" lon="-0.8554481528699398040771484375">
        <ele>851.20001220703125</ele>
        <time>2020-08-22T17:53:35.000Z</time>
      </trkpt>
      <trkpt lat="39.79923200793564319610595703125" lon="-0.85541118867695331573486328125">
        <ele>849.79998779296875</ele>
        <time>2020-08-22T17:53:36.000Z</time>
      </trkpt>
      <trkpt lat="39.79911818169057369232177734375" lon="-0.8553874678909778594970703125">
        <ele>848.79998779296875</ele>
        <time>2020-08-22T17:53:37.000Z</time>
      </trkpt>
      <trkpt lat="39.79888969101011753082275390625" lon="-0.85536425001919269561767578125">
        <ele>847.4000244140625</ele>
        <time>2020-08-22T17:53:39.000Z</time>
      </trkpt>
      <trkpt lat="39.79866002686321735382080078125" lon="-0.85538453422486782073974609375">
        <ele>846.4000244140625</ele>
        <time>2020-08-22T17:53:41.000Z</time>
      </trkpt>
      <trkpt lat="39.79854586534202098846435546875" lon="-0.855412445962429046630859375">
        <ele>845.20001220703125</ele>
        <time>2020-08-22T17:53:42.000Z</time>
      </trkpt>
      <trkpt lat="39.79832231998443603515625" lon="-0.85549534298479557037353515625">
        <ele>843.20001220703125</ele>
        <time>2020-08-22T17:53:44.000Z</time>
      </trkpt>
      <trkpt lat="39.798107407987117767333984375" lon="-0.85562224499881267547607421875">
        <ele>842</ele>
        <time>2020-08-22T17:53:46.000Z</time>
      </trkpt>
      <trkpt lat="39.7977924160659313201904296875" lon="-0.85586230270564556121826171875">
        <ele>840.4000244140625</ele>
        <time>2020-08-22T17:53:49.000Z</time>
      </trkpt>
      <trkpt lat="39.7974873147904872894287109375" lon="-0.85612733848392963409423828125">
        <ele>839.4000244140625</ele>
        <time>2020-08-22T17:53:52.000Z</time>
      </trkpt>
      <trkpt lat="39.79729142971336841583251953125" lon="-0.8563131652772426605224609375">
        <ele>837.79998779296875</ele>
        <time>2020-08-22T17:53:54.000Z</time>
      </trkpt>
      <trkpt lat="39.797195456922054290771484375" lon="-0.85640947334468364715576171875">
        <ele>836</ele>
        <time>2020-08-22T17:53:55.000Z</time>
      </trkpt>
      <trkpt lat="39.79701541364192962646484375" lon="-0.85663251578807830810546875">
        <ele>833.4000244140625</ele>
        <time>2020-08-22T17:53:56.000Z</time>
      </trkpt>
      <trkpt lat="39.79694106616079807281494140625" lon="-0.8567641116678714752197265625">
        <ele>832.4000244140625</ele>
        <time>2020-08-22T17:53:58.000Z</time>
      </trkpt>
      <trkpt lat="39.79687602259218692779541015625" lon="-0.8569027483463287353515625">
        <ele>831.5999755859375</ele>
        <time>2020-08-22T17:53:59.000Z</time>
      </trkpt>
      <trkpt lat="39.79675364680588245391845703125" lon="-0.8571946062147617340087890625">
        <ele>830.5999755859375</ele>
        <time>2020-08-22T17:54:01.000Z</time>
      </trkpt>
      <trkpt lat="39.796687848865985870361328125" lon="-0.8573324047029018402099609375">
        <ele>830</ele>
        <time>2020-08-22T17:54:02.000Z</time>
      </trkpt>
      <trkpt lat="39.79661316610872745513916015625" lon="-0.8574631623923778533935546875">
        <ele>829.20001220703125</ele>
        <time>2020-08-22T17:54:03.000Z</time>
      </trkpt>
      <trkpt lat="39.79653404094278812408447265625" lon="-0.857590399682521820068359375">
        <ele>828</ele>
        <time>2020-08-22T17:54:04.000Z</time>
      </trkpt>
      <trkpt lat="39.7963602840900421142578125" lon="-0.85783959366381168365478515625">
        <ele>826.20001220703125</ele>
        <time>2020-08-22T17:54:06.000Z</time>
      </trkpt>
      <trkpt lat="39.79626297019422054290771484375" lon="-0.8579553477466106414794921875">
        <ele>825.5999755859375</ele>
        <time>2020-08-22T17:54:07.000Z</time>
      </trkpt>
      <trkpt lat="39.79615509510040283203125" lon="-0.8580562658607959747314453125">
        <ele>825</ele>
        <time>2020-08-22T17:54:08.000Z</time>
      </trkpt>
      <trkpt lat="39.7959235869348049163818359375" lon="-0.85823019035160541534423828125">
        <ele>823.79998779296875</ele>
        <time>2020-08-22T17:54:10.000Z</time>
      </trkpt>
      <trkpt lat="39.79568495415151119232177734375" lon="-0.8583965711295604705810546875">
        <ele>822.4000244140625</ele>
        <time>2020-08-22T17:54:12.000Z</time>
      </trkpt>
      <trkpt lat="39.79556433856487274169921875" lon="-0.85847695358097553253173828125">
        <ele>820.79998779296875</ele>
        <time>2020-08-22T17:54:13.000Z</time>
      </trkpt>
      <trkpt lat="39.7953194193542003631591796875" lon="-0.85863344371318817138671875">
        <ele>818</ele>
        <time>2020-08-22T17:54:15.000Z</time>
      </trkpt>
      <trkpt lat="39.7951973788440227508544921875" lon="-0.858711898326873779296875">
        <ele>816.79998779296875</ele>
        <time>2020-08-22T17:54:16.000Z</time>
      </trkpt>
      <trkpt lat="39.79495346546173095703125" lon="-0.85886855609714984893798828125">
        <ele>814.79998779296875</ele>
        <time>2020-08-22T17:54:18.000Z</time>
      </trkpt>
      <trkpt lat="39.79483150877058506011962890625" lon="-0.85894332267343997955322265625">
        <ele>813.5999755859375</ele>
        <time>2020-08-22T17:54:19.000Z</time>
      </trkpt>
      <trkpt lat="39.79458868503570556640625" lon="-0.8590956218540668487548828125">
        <ele>811.5999755859375</ele>
        <time>2020-08-22T17:54:21.000Z</time>
      </trkpt>
      <trkpt lat="39.7943484596908092498779296875" lon="-0.859248675405979156494140625">
        <ele>809.79998779296875</ele>
        <time>2020-08-22T17:54:23.000Z</time>
      </trkpt>
      <trkpt lat="39.7941114194691181182861328125" lon="-0.85940147750079631805419921875">
        <ele>808.20001220703125</ele>
        <time>2020-08-22T17:54:25.000Z</time>
      </trkpt>
      <trkpt lat="39.79399382136762142181396484375" lon="-0.85947565734386444091796875">
        <ele>807</ele>
        <time>2020-08-22T17:54:26.000Z</time>
      </trkpt>
      <trkpt lat="39.79387664236128330230712890625" lon="-0.8595474064350128173828125">
        <ele>805.20001220703125</ele>
        <time>2020-08-22T17:54:27.000Z</time>
      </trkpt>
      <trkpt lat="39.79375929571688175201416015625" lon="-0.85962175391614437103271484375">
        <ele>804.20001220703125</ele>
        <time>2020-08-22T17:54:28.000Z</time>
      </trkpt>
      <trkpt lat="39.7936443798243999481201171875" lon="-0.85969836451113224029541015625">
        <ele>803</ele>
        <time>2020-08-22T17:54:29.000Z</time>
      </trkpt>
      <trkpt lat="39.7935332357883453369140625" lon="-0.8597779087722301483154296875">
        <ele>801.5999755859375</ele>
        <time>2020-08-22T17:54:30.000Z</time>
      </trkpt>
      <trkpt lat="39.79342770762741565704345703125" lon="-0.859863571822643280029296875">
        <ele>800.5999755859375</ele>
        <time>2020-08-22T17:54:31.000Z</time>
      </trkpt>
      <trkpt lat="39.7932464070618152618408203125" lon="-0.8600602112710475921630859375">
        <ele>799.4000244140625</ele>
        <time>2020-08-22T17:54:33.000Z</time>
      </trkpt>
      <trkpt lat="39.7930906713008880615234375" lon="-0.8602590300142765045166015625">
        <ele>798.20001220703125</ele>
        <time>2020-08-22T17:54:35.000Z</time>
      </trkpt>
      <trkpt lat="39.79289243929088115692138671875" lon="-0.86032281629741191864013671875">
        <ele>796.5999755859375</ele>
        <time>2020-08-22T17:54:37.000Z</time>
      </trkpt>
      <trkpt lat="39.7926910221576690673828125" lon="-0.86034276522696018218994140625">
        <ele>795.5999755859375</ele>
        <time>2020-08-22T17:54:39.000Z</time>
      </trkpt>
      <trkpt lat="39.7925909422338008880615234375" lon="-0.86037646047770977020263671875">
        <ele>795</ele>
        <time>2020-08-22T17:54:40.000Z</time>
      </trkpt>
      <trkpt lat="39.792285673320293426513671875" lon="-0.86053068749606609344482421875">
        <ele>793.4000244140625</ele>
        <time>2020-08-22T17:54:43.000Z</time>
      </trkpt>
      <trkpt lat="39.79198166169226169586181640625" lon="-0.860715173184871673583984375">
        <ele>792</ele>
        <time>2020-08-22T17:54:46.000Z</time>
      </trkpt>
      <trkpt lat="39.79169148020446300506591796875" lon="-0.86089613847434520721435546875">
        <ele>790</ele>
        <time>2020-08-22T17:54:49.000Z</time>
      </trkpt>
      <trkpt lat="39.79150959290564060211181640625" lon="-0.86101130582392215728759765625">
        <ele>788.5999755859375</ele>
        <time>2020-08-22T17:54:51.000Z</time>
      </trkpt>
      <trkpt lat="39.791424684226512908935546875" lon="-0.8610650338232517242431640625">
        <ele>787.5999755859375</ele>
        <time>2020-08-22T17:54:52.000Z</time>
      </trkpt>
      <trkpt lat="39.79127003811299800872802734375" lon="-0.8611639402806758880615234375">
        <ele>785.79998779296875</ele>
        <time>2020-08-22T17:54:54.000Z</time>
      </trkpt>
      <trkpt lat="39.79120046831667423248291015625" lon="-0.8612068556249141693115234375">
        <ele>784.4000244140625</ele>
        <time>2020-08-22T17:54:55.000Z</time>
      </trkpt>
      <trkpt lat="39.79107675142586231231689453125" lon="-0.86128120310604572296142578125">
        <ele>782.5999755859375</ele>
        <time>2020-08-22T17:54:57.000Z</time>
      </trkpt>
      <trkpt lat="39.79102545417845249176025390625" lon="-0.86132026277482509613037109375">
        <ele>782</ele>
        <time>2020-08-22T17:54:58.000Z</time>
      </trkpt>
      <trkpt lat="39.7909960336983203887939453125" lon="-0.8613721467554569244384765625">
        <ele>781.4000244140625</ele>
        <time>2020-08-22T17:54:59.000Z</time>
      </trkpt>
      <trkpt lat="39.790986143052577972412109375" lon="-0.86143023334443569183349609375">
        <ele>781</ele>
        <time>2020-08-22T17:55:00.000Z</time>
      </trkpt>
      <trkpt lat="39.79102998040616512298583984375" lon="-0.8615431375801563262939453125">
        <ele>780.20001220703125</ele>
        <time>2020-08-22T17:55:02.000Z</time>
      </trkpt>
      <trkpt lat="39.79128797538578510284423828125" lon="-0.86188285611569881439208984375">
        <ele>779.20001220703125</ele>
        <time>2020-08-22T17:55:09.000Z</time>
      </trkpt>
      <trkpt lat="39.7913028113543987274169921875" lon="-0.862019062042236328125">
        <ele>779.20001220703125</ele>
        <time>2020-08-22T17:55:11.000Z</time>
      </trkpt>
      <trkpt lat="39.791276156902313232421875" lon="-0.8620836026966571807861328125">
        <ele>779.20001220703125</ele>
        <time>2020-08-22T17:55:12.000Z</time>
      </trkpt>
      <trkpt lat="39.79123014025390148162841796875" lon="-0.86214177310466766357421875">
        <ele>779.20001220703125</ele>
        <time>2020-08-22T17:55:13.000Z</time>
      </trkpt>
      <trkpt lat="39.79069705121219158172607421875" lon="-0.86239431984722614288330078125">
        <ele>777.79998779296875</ele>
        <time>2020-08-22T17:55:20.000Z</time>
      </trkpt>
      <trkpt lat="39.79051910340785980224609375" lon="-0.8624522387981414794921875">
        <ele>776.5999755859375</ele>
        <time>2020-08-22T17:55:22.000Z</time>
      </trkpt>
      <trkpt lat="39.79034350253641605377197265625" lon="-0.8625187911093235015869140625">
        <ele>775</ele>
        <time>2020-08-22T17:55:24.000Z</time>
      </trkpt>
      <trkpt lat="39.7902510501444339752197265625" lon="-0.86255089379847049713134765625">
        <ele>773.5999755859375</ele>
        <time>2020-08-22T17:55:25.000Z</time>
      </trkpt>
      <trkpt lat="39.7900616191327571868896484375" lon="-0.8626062981784343719482421875">
        <ele>771.79998779296875</ele>
        <time>2020-08-22T17:55:27.000Z</time>
      </trkpt>
      <trkpt lat="39.78997453115880489349365234375" lon="-0.86264066398143768310546875">
        <ele>770.5999755859375</ele>
        <time>2020-08-22T17:55:28.000Z</time>
      </trkpt>
      <trkpt lat="39.78981510736048221588134765625" lon="-0.862703360617160797119140625">
        <ele>769.20001220703125</ele>
        <time>2020-08-22T17:55:30.000Z</time>
      </trkpt>
      <trkpt lat="39.78958569467067718505859375" lon="-0.862802602350711822509765625">
        <ele>767.4000244140625</ele>
        <time>2020-08-22T17:55:33.000Z</time>
      </trkpt>
      <trkpt lat="39.7894701920449733734130859375" lon="-0.86295188404619693756103515625">
        <ele>766.79998779296875</ele>
        <time>2020-08-22T17:55:35.000Z</time>
      </trkpt>
      <trkpt lat="39.78940003551542758941650390625" lon="-0.863116420805454254150390625">
        <ele>766</ele>
        <time>2020-08-22T17:55:37.000Z</time>
      </trkpt>
      <trkpt lat="39.78936684317886829376220703125" lon="-0.86329780519008636474609375">
        <ele>765.5999755859375</ele>
        <time>2020-08-22T17:55:39.000Z</time>
      </trkpt>
      <trkpt lat="39.789294339716434478759765625" lon="-0.8640114404261112213134765625">
        <ele>765.79998779296875</ele>
        <time>2020-08-22T17:55:49.000Z</time>
      </trkpt>
      <trkpt lat="39.78921353816986083984375" lon="-0.86463681422173976898193359375">
        <ele>766.5999755859375</ele>
        <time>2020-08-22T17:55:58.000Z</time>
      </trkpt>
      <trkpt lat="39.78923390619456768035888671875" lon="-0.86474544368684291839599609375">
        <ele>766.5999755859375</ele>
        <time>2020-08-22T17:56:00.000Z</time>
      </trkpt>
      <trkpt lat="39.78925972245633602142333984375" lon="-0.86493487469851970672607421875">
        <ele>766.79998779296875</ele>
        <time>2020-08-22T17:58:43.000Z</time>
      </trkpt>
    </trkseg>
  </trk>
</gpx>
